<?xml version="1.0" encoding="UTF-8" standalone="no" ?>
<gpx xmlns="http://www.topografix.com/GPX/1/1" xmlns:xsi="http://www.w3.org/2001/XMLSchema-instance" xsi:schemaLocation="http://www.topografix.com/GPX/1/1 http://www.topografix.com/GPX/1/1/gpx.xsd" version="1.1" creator="VisuGPX - https://www.visugpx.com">
  <metadata>
    <name>Circuit Dannemarie Ballersdorf</name>
    <desc><![CDATA[Entre champs, forêts et étangs]]></desc>
  </metadata>
  <trk>
    <name><![CDATA[Ballersdorf]]></name>
    <extensions>
      <line xmlns="http://www.topografix.com/GPX/gpx_style/0/2">
        <color>0000FF</color>
        <width>4</width>
      </line>
    </extensions>
    <trkseg>
      <trkpt lat="47.63575" lon="7.1159">
        <ele>300.89505865814</ele>
        <time>2025-10-12T06:39:50Z</time>
      </trkpt>
      <trkpt lat="47.63575" lon="7.11588">
        <ele>300.8303989728</ele>
        <time>2025-10-12T06:39:54Z</time>
      </trkpt>
      <trkpt lat="47.63575" lon="7.11585">
        <ele>300.77399052852</ele>
        <time>2025-10-12T06:39:57Z</time>
      </trkpt>
      <trkpt lat="47.63572" lon="7.11582">
        <ele>300.77708692159</ele>
        <time>2025-10-12T06:40:00Z</time>
      </trkpt>
      <trkpt lat="47.6357" lon="7.1158">
        <ele>300.84612398405</ele>
        <time>2025-10-12T06:40:03Z</time>
      </trkpt>
      <trkpt lat="47.63568" lon="7.11578">
        <ele>300.91820508292</ele>
        <time>2025-10-12T06:40:05Z</time>
      </trkpt>
      <trkpt lat="47.63566" lon="7.11576">
        <ele>300.9943607694</ele>
        <time>2025-10-12T06:40:07Z</time>
      </trkpt>
      <trkpt lat="47.63564" lon="7.11574">
        <ele>301.06083448299</ele>
        <time>2025-10-12T06:40:10Z</time>
      </trkpt>
      <trkpt lat="47.63562" lon="7.11572">
        <ele>301.11134675578</ele>
        <time>2025-10-12T06:40:12Z</time>
      </trkpt>
      <trkpt lat="47.63561" lon="7.11569">
        <ele>301.17130164657</ele>
        <time>2025-10-12T06:40:14Z</time>
      </trkpt>
      <trkpt lat="47.6356" lon="7.11566">
        <ele>301.21859309001</ele>
        <time>2025-10-12T06:40:16Z</time>
      </trkpt>
      <trkpt lat="47.63559" lon="7.11562">
        <ele>301.23905558281</ele>
        <time>2025-10-12T06:40:17Z</time>
      </trkpt>
      <trkpt lat="47.63559" lon="7.1156">
        <ele>301.26464004009</ele>
        <time>2025-10-12T06:40:18Z</time>
      </trkpt>
      <trkpt lat="47.63558" lon="7.11557">
        <ele>301.30660411067</ele>
        <time>2025-10-12T06:40:20Z</time>
      </trkpt>
      <trkpt lat="47.63557" lon="7.11552">
        <ele>301.30949157497</ele>
        <time>2025-10-12T06:40:23Z</time>
      </trkpt>
      <trkpt lat="47.63556" lon="7.11548">
        <ele>301.20839539945</ele>
        <time>2025-10-12T06:40:25Z</time>
      </trkpt>
      <trkpt lat="47.63556" lon="7.11546">
        <ele>301.10309623855</ele>
        <time>2025-10-12T06:40:26Z</time>
      </trkpt>
      <trkpt lat="47.63557" lon="7.11543">
        <ele>300.97946102373</ele>
        <time>2025-10-12T06:40:28Z</time>
      </trkpt>
      <trkpt lat="47.63558" lon="7.1154">
        <ele>300.86243151972</ele>
        <time>2025-10-12T06:40:30Z</time>
      </trkpt>
      <trkpt lat="47.63558" lon="7.11537">
        <ele>300.76020348542</ele>
        <time>2025-10-12T06:40:32Z</time>
      </trkpt>
      <trkpt lat="47.63558" lon="7.11534">
        <ele>300.64371489649</ele>
        <time>2025-10-12T06:40:34Z</time>
      </trkpt>
      <trkpt lat="47.63559" lon="7.11531">
        <ele>300.55429958335</ele>
        <time>2025-10-12T06:40:36Z</time>
      </trkpt>
      <trkpt lat="47.63559" lon="7.11527">
        <ele>300.44396237602</ele>
        <time>2025-10-12T06:40:38Z</time>
      </trkpt>
      <trkpt lat="47.6356" lon="7.11524">
        <ele>300.48303548841</ele>
        <time>2025-10-12T06:40:41Z</time>
      </trkpt>
      <trkpt lat="47.6356" lon="7.11521">
        <ele>300.56782370968</ele>
        <time>2025-10-12T06:40:43Z</time>
      </trkpt>
      <trkpt lat="47.63559" lon="7.11518">
        <ele>300.65509554209</ele>
        <time>2025-10-12T06:40:45Z</time>
      </trkpt>
      <trkpt lat="47.63559" lon="7.11515">
        <ele>300.74223565543</ele>
        <time>2025-10-12T06:40:47Z</time>
      </trkpt>
      <trkpt lat="47.6356" lon="7.11512">
        <ele>300.82937994475</ele>
        <time>2025-10-12T06:40:49Z</time>
      </trkpt>
      <trkpt lat="47.63559" lon="7.11509">
        <ele>300.92943046479</ele>
        <time>2025-10-12T06:40:51Z</time>
      </trkpt>
      <trkpt lat="47.63558" lon="7.11506">
        <ele>301.06702406929</ele>
        <time>2025-10-12T06:40:54Z</time>
      </trkpt>
      <trkpt lat="47.63558" lon="7.11502">
        <ele>301.18710170584</ele>
        <time>2025-10-12T06:40:56Z</time>
      </trkpt>
      <trkpt lat="47.63557" lon="7.11498">
        <ele>301.32753221854</ele>
        <time>2025-10-12T06:40:58Z</time>
      </trkpt>
      <trkpt lat="47.63558" lon="7.11495">
        <ele>301.45561987327</ele>
        <time>2025-10-12T06:41:00Z</time>
      </trkpt>
      <trkpt lat="47.63559" lon="7.11492">
        <ele>301.51724315705</ele>
        <time>2025-10-12T06:41:02Z</time>
      </trkpt>
      <trkpt lat="47.63559" lon="7.11489">
        <ele>301.52765370141</ele>
        <time>2025-10-12T06:41:04Z</time>
      </trkpt>
      <trkpt lat="47.63559" lon="7.11486">
        <ele>301.63401207931</ele>
        <time>2025-10-12T06:41:06Z</time>
      </trkpt>
      <trkpt lat="47.6356" lon="7.11482">
        <ele>301.76634211526</ele>
        <time>2025-10-12T06:41:09Z</time>
      </trkpt>
      <trkpt lat="47.6356" lon="7.11478">
        <ele>301.82632236433</ele>
        <time>2025-10-12T06:41:11Z</time>
      </trkpt>
      <trkpt lat="47.63559" lon="7.11475">
        <ele>301.96881334114</ele>
        <time>2025-10-12T06:41:13Z</time>
      </trkpt>
      <trkpt lat="47.63559" lon="7.1147">
        <ele>302.13729910295</ele>
        <time>2025-10-12T06:41:15Z</time>
      </trkpt>
      <trkpt lat="47.63558" lon="7.11466">
        <ele>302.17679066223</ele>
        <time>2025-10-12T06:41:17Z</time>
      </trkpt>
      <trkpt lat="47.63559" lon="7.11464">
        <ele>302.15823141523</ele>
        <time>2025-10-12T06:41:19Z</time>
      </trkpt>
      <trkpt lat="47.63559" lon="7.1146">
        <ele>302.149449021</ele>
        <time>2025-10-12T06:41:21Z</time>
      </trkpt>
      <trkpt lat="47.63559" lon="7.11456">
        <ele>302.15493675858</ele>
        <time>2025-10-12T06:41:23Z</time>
      </trkpt>
      <trkpt lat="47.63559" lon="7.11453">
        <ele>302.12776751486</ele>
        <time>2025-10-12T06:41:25Z</time>
      </trkpt>
      <trkpt lat="47.6356" lon="7.1145">
        <ele>302.12549081754</ele>
        <time>2025-10-12T06:41:27Z</time>
      </trkpt>
      <trkpt lat="47.6356" lon="7.11447">
        <ele>302.07340384159</ele>
        <time>2025-10-12T06:41:29Z</time>
      </trkpt>
      <trkpt lat="47.63561" lon="7.11443">
        <ele>302.03346226264</ele>
        <time>2025-10-12T06:41:32Z</time>
      </trkpt>
      <trkpt lat="47.63561" lon="7.11441">
        <ele>302.01708224988</ele>
        <time>2025-10-12T06:41:34Z</time>
      </trkpt>
      <trkpt lat="47.6356" lon="7.11437">
        <ele>302.04271434819</ele>
        <time>2025-10-12T06:41:36Z</time>
      </trkpt>
      <trkpt lat="47.63559" lon="7.11434">
        <ele>302.11006692162</ele>
        <time>2025-10-12T06:41:38Z</time>
      </trkpt>
      <trkpt lat="47.63559" lon="7.11432">
        <ele>302.13603372128</ele>
        <time>2025-10-12T06:41:40Z</time>
      </trkpt>
      <trkpt lat="47.63558" lon="7.11427">
        <ele>302.16281163879</ele>
        <time>2025-10-12T06:41:42Z</time>
      </trkpt>
      <trkpt lat="47.63558" lon="7.11425">
        <ele>302.21325123193</ele>
        <time>2025-10-12T06:41:44Z</time>
      </trkpt>
      <trkpt lat="47.63557" lon="7.11421">
        <ele>302.29986648381</ele>
        <time>2025-10-12T06:41:47Z</time>
      </trkpt>
      <trkpt lat="47.63555" lon="7.11419">
        <ele>302.36948058493</ele>
        <time>2025-10-12T06:42:02Z</time>
      </trkpt>
      <trkpt lat="47.63555" lon="7.11415">
        <ele>302.41365135645</ele>
        <time>2025-10-12T06:42:04Z</time>
      </trkpt>
      <trkpt lat="47.63556" lon="7.1141">
        <ele>302.40464756856</ele>
        <time>2025-10-12T06:42:06Z</time>
      </trkpt>
      <trkpt lat="47.63555" lon="7.11406">
        <ele>302.40001863454</ele>
        <time>2025-10-12T06:42:09Z</time>
      </trkpt>
      <trkpt lat="47.63553" lon="7.11403">
        <ele>302.42258924427</ele>
        <time>2025-10-12T06:42:11Z</time>
      </trkpt>
      <trkpt lat="47.63552" lon="7.11399">
        <ele>302.44846527995</ele>
        <time>2025-10-12T06:42:13Z</time>
      </trkpt>
      <trkpt lat="47.6355" lon="7.11395">
        <ele>302.45003690652</ele>
        <time>2025-10-12T06:42:15Z</time>
      </trkpt>
      <trkpt lat="47.63548" lon="7.11391">
        <ele>302.43485578441</ele>
        <time>2025-10-12T06:42:17Z</time>
      </trkpt>
      <trkpt lat="47.63547" lon="7.1139">
        <ele>302.42025826826</ele>
        <time>2025-10-12T06:42:18Z</time>
      </trkpt>
      <trkpt lat="47.63545" lon="7.11386">
        <ele>302.37628376707</ele>
        <time>2025-10-12T06:42:20Z</time>
      </trkpt>
      <trkpt lat="47.63543" lon="7.11385">
        <ele>302.31796529891</ele>
        <time>2025-10-12T06:42:22Z</time>
      </trkpt>
      <trkpt lat="47.63541" lon="7.11386">
        <ele>302.33749527624</ele>
        <time>2025-10-12T06:42:25Z</time>
      </trkpt>
      <trkpt lat="47.63539" lon="7.11386">
        <ele>302.35279958197</ele>
        <time>2025-10-12T06:42:27Z</time>
      </trkpt>
      <trkpt lat="47.63537" lon="7.11385">
        <ele>302.3551883428</ele>
        <time>2025-10-12T06:42:29Z</time>
      </trkpt>
      <trkpt lat="47.63536" lon="7.11385">
        <ele>302.35656354877</ele>
        <time>2025-10-12T06:42:31Z</time>
      </trkpt>
      <trkpt lat="47.63533" lon="7.11384">
        <ele>302.36063770233</ele>
        <time>2025-10-12T06:42:36Z</time>
      </trkpt>
      <trkpt lat="47.63531" lon="7.11386">
        <ele>302.37429504432</ele>
        <time>2025-10-12T06:42:38Z</time>
      </trkpt>
      <trkpt lat="47.63529" lon="7.11387">
        <ele>302.39085617829</ele>
        <time>2025-10-12T06:42:40Z</time>
      </trkpt>
      <trkpt lat="47.63526" lon="7.11388">
        <ele>302.39973394783</ele>
        <time>2025-10-12T06:42:42Z</time>
      </trkpt>
      <trkpt lat="47.63523" lon="7.11389">
        <ele>302.40001773285</ele>
        <time>2025-10-12T06:42:44Z</time>
      </trkpt>
      <trkpt lat="47.63521" lon="7.1139">
        <ele>302.40479936545</ele>
        <time>2025-10-12T06:42:45Z</time>
      </trkpt>
      <trkpt lat="47.6352" lon="7.11391">
        <ele>302.42573956484</ele>
        <time>2025-10-12T06:42:46Z</time>
      </trkpt>
      <trkpt lat="47.63517" lon="7.11392">
        <ele>302.44842262545</ele>
        <time>2025-10-12T06:42:48Z</time>
      </trkpt>
      <trkpt lat="47.63515" lon="7.11393">
        <ele>302.48303666308</ele>
        <time>2025-10-12T06:42:50Z</time>
      </trkpt>
      <trkpt lat="47.63513" lon="7.11393">
        <ele>302.47049584057</ele>
        <time>2025-10-12T06:42:52Z</time>
      </trkpt>
      <trkpt lat="47.63511" lon="7.11394">
        <ele>302.47080164572</ele>
        <time>2025-10-12T06:42:54Z</time>
      </trkpt>
      <trkpt lat="47.63508" lon="7.11395">
        <ele>302.46897548014</ele>
        <time>2025-10-12T06:42:56Z</time>
      </trkpt>
      <trkpt lat="47.63505" lon="7.11396">
        <ele>302.45712219651</ele>
        <time>2025-10-12T06:42:58Z</time>
      </trkpt>
      <trkpt lat="47.63504" lon="7.11398">
        <ele>302.44748126377</ele>
        <time>2025-10-12T06:43:00Z</time>
      </trkpt>
      <trkpt lat="47.63502" lon="7.11401">
        <ele>302.43449789156</ele>
        <time>2025-10-12T06:43:02Z</time>
      </trkpt>
      <trkpt lat="47.635" lon="7.11403">
        <ele>302.4198221594</ele>
        <time>2025-10-12T06:43:04Z</time>
      </trkpt>
      <trkpt lat="47.63499" lon="7.11406">
        <ele>302.40024914116</ele>
        <time>2025-10-12T06:43:07Z</time>
      </trkpt>
      <trkpt lat="47.63497" lon="7.11408">
        <ele>302.40002288478</ele>
        <time>2025-10-12T06:43:09Z</time>
      </trkpt>
      <trkpt lat="47.63494" lon="7.11411">
        <ele>302.40002062222</ele>
        <time>2025-10-12T06:43:11Z</time>
      </trkpt>
      <trkpt lat="47.63492" lon="7.11412">
        <ele>302.40002059939</ele>
        <time>2025-10-12T06:43:14Z</time>
      </trkpt>
      <trkpt lat="47.63489" lon="7.11412">
        <ele>302.40002059937</ele>
        <time>2025-10-12T06:43:17Z</time>
      </trkpt>
      <trkpt lat="47.63486" lon="7.11414">
        <ele>302.40002059937</ele>
        <time>2025-10-12T06:43:19Z</time>
      </trkpt>
      <trkpt lat="47.63484" lon="7.11416">
        <ele>302.40002059937</ele>
        <time>2025-10-12T06:43:21Z</time>
      </trkpt>
      <trkpt lat="47.63481" lon="7.11418">
        <ele>302.40002059937</ele>
        <time>2025-10-12T06:43:23Z</time>
      </trkpt>
      <trkpt lat="47.63478" lon="7.11419">
        <ele>302.40002059937</ele>
        <time>2025-10-12T06:43:25Z</time>
      </trkpt>
      <trkpt lat="47.63476" lon="7.1142">
        <ele>302.40002059937</ele>
        <time>2025-10-12T06:43:26Z</time>
      </trkpt>
      <trkpt lat="47.63474" lon="7.11422">
        <ele>302.40002059937</ele>
        <time>2025-10-12T06:43:28Z</time>
      </trkpt>
      <trkpt lat="47.63472" lon="7.11424">
        <ele>302.40002059937</ele>
        <time>2025-10-12T06:43:29Z</time>
      </trkpt>
      <trkpt lat="47.63471" lon="7.11426">
        <ele>302.39375839233</ele>
        <time>2025-10-12T06:43:30Z</time>
      </trkpt>
      <trkpt lat="47.63469" lon="7.11428">
        <ele>302.36629806519</ele>
        <time>2025-10-12T06:43:31Z</time>
      </trkpt>
      <trkpt lat="47.63467" lon="7.11429">
        <ele>302.31485793457</ele>
        <time>2025-10-12T06:43:33Z</time>
      </trkpt>
      <trkpt lat="47.63464" lon="7.11432">
        <ele>302.27938778375</ele>
        <time>2025-10-12T06:43:35Z</time>
      </trkpt>
      <trkpt lat="47.63463" lon="7.11433">
        <ele>302.26074084592</ele>
        <time>2025-10-12T06:43:37Z</time>
      </trkpt>
      <trkpt lat="47.63461" lon="7.11434">
        <ele>302.24374254792</ele>
        <time>2025-10-12T06:43:39Z</time>
      </trkpt>
      <trkpt lat="47.63458" lon="7.11434">
        <ele>302.23436602198</ele>
        <time>2025-10-12T06:43:41Z</time>
      </trkpt>
      <trkpt lat="47.63456" lon="7.11436">
        <ele>302.21452767428</ele>
        <time>2025-10-12T06:43:44Z</time>
      </trkpt>
      <trkpt lat="47.63453" lon="7.11438">
        <ele>302.21883858271</ele>
        <time>2025-10-12T06:43:46Z</time>
      </trkpt>
      <trkpt lat="47.63451" lon="7.11439">
        <ele>302.24187607656</ele>
        <time>2025-10-12T06:43:48Z</time>
      </trkpt>
      <trkpt lat="47.63449" lon="7.1144">
        <ele>302.26185986947</ele>
        <time>2025-10-12T06:43:50Z</time>
      </trkpt>
      <trkpt lat="47.63447" lon="7.11442">
        <ele>302.27594642615</ele>
        <time>2025-10-12T06:43:52Z</time>
      </trkpt>
      <trkpt lat="47.63446" lon="7.11444">
        <ele>302.34268366623</ele>
        <time>2025-10-12T06:43:54Z</time>
      </trkpt>
      <trkpt lat="47.63443" lon="7.11446">
        <ele>302.3956459605</ele>
        <time>2025-10-12T06:43:56Z</time>
      </trkpt>
      <trkpt lat="47.6344" lon="7.11448">
        <ele>302.31775517329</ele>
        <time>2025-10-12T06:43:58Z</time>
      </trkpt>
      <trkpt lat="47.63438" lon="7.11449">
        <ele>302.27050499426</ele>
        <time>2025-10-12T06:43:59Z</time>
      </trkpt>
      <trkpt lat="47.63435" lon="7.11452">
        <ele>302.19268235249</ele>
        <time>2025-10-12T06:44:01Z</time>
      </trkpt>
      <trkpt lat="47.63433" lon="7.11454">
        <ele>302.14707716074</ele>
        <time>2025-10-12T06:44:03Z</time>
      </trkpt>
      <trkpt lat="47.63431" lon="7.11456">
        <ele>302.12379852113</ele>
        <time>2025-10-12T06:44:04Z</time>
      </trkpt>
      <trkpt lat="47.63429" lon="7.11457">
        <ele>302.11281892377</ele>
        <time>2025-10-12T06:44:05Z</time>
      </trkpt>
      <trkpt lat="47.63427" lon="7.11457">
        <ele>302.10430519255</ele>
        <time>2025-10-12T06:44:06Z</time>
      </trkpt>
      <trkpt lat="47.63424" lon="7.11458">
        <ele>302.03914535448</ele>
        <time>2025-10-12T06:44:08Z</time>
      </trkpt>
      <trkpt lat="47.63421" lon="7.1146">
        <ele>302.02361552123</ele>
        <time>2025-10-12T06:44:10Z</time>
      </trkpt>
      <trkpt lat="47.63418" lon="7.11461">
        <ele>302.01152632397</ele>
        <time>2025-10-12T06:44:12Z</time>
      </trkpt>
      <trkpt lat="47.63416" lon="7.11462">
        <ele>302.02936807849</ele>
        <time>2025-10-12T06:44:14Z</time>
      </trkpt>
      <trkpt lat="47.63414" lon="7.11462">
        <ele>302.02832152045</ele>
        <time>2025-10-12T06:44:16Z</time>
      </trkpt>
      <trkpt lat="47.63411" lon="7.11463">
        <ele>302.0425822951</ele>
        <time>2025-10-12T06:44:18Z</time>
      </trkpt>
      <trkpt lat="47.63408" lon="7.11464">
        <ele>302.08606322072</ele>
        <time>2025-10-12T06:44:20Z</time>
      </trkpt>
      <trkpt lat="47.63405" lon="7.11467">
        <ele>302.16149345234</ele>
        <time>2025-10-12T06:44:22Z</time>
      </trkpt>
      <trkpt lat="47.63403" lon="7.1147">
        <ele>302.26175642164</ele>
        <time>2025-10-12T06:44:24Z</time>
      </trkpt>
      <trkpt lat="47.63401" lon="7.11473">
        <ele>302.38455348493</ele>
        <time>2025-10-12T06:44:26Z</time>
      </trkpt>
      <trkpt lat="47.63398" lon="7.11475">
        <ele>302.39986592822</ele>
        <time>2025-10-12T06:44:28Z</time>
      </trkpt>
      <trkpt lat="47.63395" lon="7.11476">
        <ele>302.40001905265</ele>
        <time>2025-10-12T06:44:30Z</time>
      </trkpt>
      <trkpt lat="47.63393" lon="7.11478">
        <ele>302.4000205839</ele>
        <time>2025-10-12T06:44:32Z</time>
      </trkpt>
      <trkpt lat="47.63391" lon="7.1148">
        <ele>302.40002059921</ele>
        <time>2025-10-12T06:44:34Z</time>
      </trkpt>
      <trkpt lat="47.63389" lon="7.11481">
        <ele>302.40002059936</ele>
        <time>2025-10-12T06:44:36Z</time>
      </trkpt>
      <trkpt lat="47.63386" lon="7.11483">
        <ele>302.40002059937</ele>
        <time>2025-10-12T06:44:38Z</time>
      </trkpt>
      <trkpt lat="47.63384" lon="7.11485">
        <ele>302.40002059937</ele>
        <time>2025-10-12T06:44:39Z</time>
      </trkpt>
      <trkpt lat="47.63381" lon="7.11487">
        <ele>302.40002059937</ele>
        <time>2025-10-12T06:44:41Z</time>
      </trkpt>
      <trkpt lat="47.6338" lon="7.11489">
        <ele>302.40002059937</ele>
        <time>2025-10-12T06:44:43Z</time>
      </trkpt>
      <trkpt lat="47.63378" lon="7.1149">
        <ele>302.40002059937</ele>
        <time>2025-10-12T06:44:45Z</time>
      </trkpt>
      <trkpt lat="47.63376" lon="7.11486">
        <ele>302.40002059937</ele>
        <time>2025-10-12T06:44:47Z</time>
      </trkpt>
      <trkpt lat="47.63374" lon="7.11483">
        <ele>302.40002059937</ele>
        <time>2025-10-12T06:44:49Z</time>
      </trkpt>
      <trkpt lat="47.63372" lon="7.11481">
        <ele>302.40002059937</ele>
        <time>2025-10-12T06:44:51Z</time>
      </trkpt>
      <trkpt lat="47.63371" lon="7.11478">
        <ele>302.40002059937</ele>
        <time>2025-10-12T06:44:53Z</time>
      </trkpt>
      <trkpt lat="47.63369" lon="7.11475">
        <ele>302.40002059937</ele>
        <time>2025-10-12T06:44:55Z</time>
      </trkpt>
      <trkpt lat="47.63366" lon="7.11472">
        <ele>302.40002059937</ele>
        <time>2025-10-12T06:44:57Z</time>
      </trkpt>
      <trkpt lat="47.63364" lon="7.11471">
        <ele>302.38527145386</ele>
        <time>2025-10-12T06:44:58Z</time>
      </trkpt>
      <trkpt lat="47.63362" lon="7.11468">
        <ele>302.31767614746</ele>
        <time>2025-10-12T06:45:00Z</time>
      </trkpt>
      <trkpt lat="47.6336" lon="7.11466">
        <ele>302.24723354187</ele>
        <time>2025-10-12T06:45:01Z</time>
      </trkpt>
      <trkpt lat="47.63357" lon="7.11465">
        <ele>302.16419280203</ele>
        <time>2025-10-12T06:45:03Z</time>
      </trkpt>
      <trkpt lat="47.63355" lon="7.11462">
        <ele>302.09496700889</ele>
        <time>2025-10-12T06:45:05Z</time>
      </trkpt>
      <trkpt lat="47.63352" lon="7.1146">
        <ele>302.00650497557</ele>
        <time>2025-10-12T06:45:07Z</time>
      </trkpt>
      <trkpt lat="47.6335" lon="7.11459">
        <ele>301.93283867799</ele>
        <time>2025-10-12T06:45:09Z</time>
      </trkpt>
      <trkpt lat="47.63347" lon="7.11458">
        <ele>301.87598896432</ele>
        <time>2025-10-12T06:45:12Z</time>
      </trkpt>
      <trkpt lat="47.63345" lon="7.11457">
        <ele>301.86713990216</ele>
        <time>2025-10-12T06:45:14Z</time>
      </trkpt>
      <trkpt lat="47.63342" lon="7.11457">
        <ele>301.85199464884</ele>
        <time>2025-10-12T06:45:16Z</time>
      </trkpt>
      <trkpt lat="47.6334" lon="7.11457">
        <ele>301.8613820757</ele>
        <time>2025-10-12T06:45:18Z</time>
      </trkpt>
      <trkpt lat="47.63337" lon="7.11456">
        <ele>301.83667706081</ele>
        <time>2025-10-12T06:45:20Z</time>
      </trkpt>
      <trkpt lat="47.63334" lon="7.11454">
        <ele>301.78160274015</ele>
        <time>2025-10-12T06:45:22Z</time>
      </trkpt>
      <trkpt lat="47.63331" lon="7.11453">
        <ele>301.75785985827</ele>
        <time>2025-10-12T06:45:24Z</time>
      </trkpt>
      <trkpt lat="47.63329" lon="7.11451">
        <ele>301.76183568629</ele>
        <time>2025-10-12T06:45:26Z</time>
      </trkpt>
      <trkpt lat="47.63327" lon="7.1145">
        <ele>301.76669832388</ele>
        <time>2025-10-12T06:45:27Z</time>
      </trkpt>
      <trkpt lat="47.63325" lon="7.11448">
        <ele>301.77490248314</ele>
        <time>2025-10-12T06:45:28Z</time>
      </trkpt>
      <trkpt lat="47.63323" lon="7.11447">
        <ele>301.80341632982</ele>
        <time>2025-10-12T06:45:30Z</time>
      </trkpt>
      <trkpt lat="47.63322" lon="7.11446">
        <ele>301.83512511331</ele>
        <time>2025-10-12T06:45:32Z</time>
      </trkpt>
      <trkpt lat="47.6332" lon="7.11444">
        <ele>301.84528869773</ele>
        <time>2025-10-12T06:45:34Z</time>
      </trkpt>
      <trkpt lat="47.63318" lon="7.11442">
        <ele>301.83163545076</ele>
        <time>2025-10-12T06:45:36Z</time>
      </trkpt>
      <trkpt lat="47.63315" lon="7.1144">
        <ele>301.81676075911</ele>
        <time>2025-10-12T06:45:38Z</time>
      </trkpt>
      <trkpt lat="47.63313" lon="7.11439">
        <ele>301.83928983018</ele>
        <time>2025-10-12T06:45:39Z</time>
      </trkpt>
      <trkpt lat="47.6331" lon="7.11438">
        <ele>301.90422255681</ele>
        <time>2025-10-12T06:45:41Z</time>
      </trkpt>
      <trkpt lat="47.63308" lon="7.11438">
        <ele>301.9434248039</ele>
        <time>2025-10-12T06:45:42Z</time>
      </trkpt>
      <trkpt lat="47.63306" lon="7.11438">
        <ele>302.03210455009</ele>
        <time>2025-10-12T06:45:43Z</time>
      </trkpt>
      <trkpt lat="47.63303" lon="7.11436">
        <ele>302.16119556485</ele>
        <time>2025-10-12T06:45:45Z</time>
      </trkpt>
      <trkpt lat="47.63302" lon="7.11433">
        <ele>302.09119619179</ele>
        <time>2025-10-12T06:45:47Z</time>
      </trkpt>
      <trkpt lat="47.633" lon="7.11431">
        <ele>302.0521825922</ele>
        <time>2025-10-12T06:45:48Z</time>
      </trkpt>
      <trkpt lat="47.63297" lon="7.11428">
        <ele>302.00514329351</ele>
        <time>2025-10-12T06:45:50Z</time>
      </trkpt>
      <trkpt lat="47.63295" lon="7.11427">
        <ele>301.99226109633</ele>
        <time>2025-10-12T06:45:52Z</time>
      </trkpt>
      <trkpt lat="47.63293" lon="7.11426">
        <ele>302.00699550355</ele>
        <time>2025-10-12T06:45:53Z</time>
      </trkpt>
      <trkpt lat="47.63291" lon="7.11425">
        <ele>302.03318818256</ele>
        <time>2025-10-12T06:45:54Z</time>
      </trkpt>
      <trkpt lat="47.63289" lon="7.11421">
        <ele>302.04894260723</ele>
        <time>2025-10-12T06:45:56Z</time>
      </trkpt>
      <trkpt lat="47.63288" lon="7.11419">
        <ele>302.06136055406</ele>
        <time>2025-10-12T06:45:57Z</time>
      </trkpt>
      <trkpt lat="47.63286" lon="7.11417">
        <ele>302.08576485829</ele>
        <time>2025-10-12T06:45:59Z</time>
      </trkpt>
      <trkpt lat="47.63283" lon="7.11414">
        <ele>302.1569531152</ele>
        <time>2025-10-12T06:46:01Z</time>
      </trkpt>
      <trkpt lat="47.6328" lon="7.11413">
        <ele>302.22061391134</ele>
        <time>2025-10-12T06:46:03Z</time>
      </trkpt>
      <trkpt lat="47.63278" lon="7.11411">
        <ele>302.34915609791</ele>
        <time>2025-10-12T06:46:05Z</time>
      </trkpt>
      <trkpt lat="47.63275" lon="7.11408">
        <ele>302.39951195435</ele>
        <time>2025-10-12T06:46:07Z</time>
      </trkpt>
      <trkpt lat="47.63273" lon="7.11406">
        <ele>302.40001551292</ele>
        <time>2025-10-12T06:46:09Z</time>
      </trkpt>
      <trkpt lat="47.6327" lon="7.11404">
        <ele>302.4000205485</ele>
        <time>2025-10-12T06:46:11Z</time>
      </trkpt>
      <trkpt lat="47.63267" lon="7.11401">
        <ele>302.40002059886</ele>
        <time>2025-10-12T06:46:13Z</time>
      </trkpt>
      <trkpt lat="47.63265" lon="7.11399">
        <ele>302.40002059936</ele>
        <time>2025-10-12T06:46:15Z</time>
      </trkpt>
      <trkpt lat="47.63262" lon="7.11398">
        <ele>302.40002059937</ele>
        <time>2025-10-12T06:46:17Z</time>
      </trkpt>
      <trkpt lat="47.6326" lon="7.11396">
        <ele>302.40002059937</ele>
        <time>2025-10-12T06:46:19Z</time>
      </trkpt>
      <trkpt lat="47.63258" lon="7.11392">
        <ele>302.40002059937</ele>
        <time>2025-10-12T06:46:21Z</time>
      </trkpt>
      <trkpt lat="47.63256" lon="7.1139">
        <ele>302.40002059937</ele>
        <time>2025-10-12T06:46:22Z</time>
      </trkpt>
      <trkpt lat="47.63255" lon="7.11385">
        <ele>302.35357589722</ele>
        <time>2025-10-12T06:46:24Z</time>
      </trkpt>
      <trkpt lat="47.63253" lon="7.11383">
        <ele>302.19620471191</ele>
        <time>2025-10-12T06:46:26Z</time>
      </trkpt>
      <trkpt lat="47.63251" lon="7.1138">
        <ele>302.10137355377</ele>
        <time>2025-10-12T06:46:28Z</time>
      </trkpt>
      <trkpt lat="47.63249" lon="7.11379">
        <ele>302.07900739551</ele>
        <time>2025-10-12T06:46:30Z</time>
      </trkpt>
      <trkpt lat="47.63247" lon="7.11378">
        <ele>302.1057359434</ele>
        <time>2025-10-12T06:46:32Z</time>
      </trkpt>
      <trkpt lat="47.63244" lon="7.11375">
        <ele>302.13129100964</ele>
        <time>2025-10-12T06:46:34Z</time>
      </trkpt>
      <trkpt lat="47.63242" lon="7.11374">
        <ele>302.13287041284</ele>
        <time>2025-10-12T06:46:36Z</time>
      </trkpt>
      <trkpt lat="47.63239" lon="7.11373">
        <ele>302.20941971518</ele>
        <time>2025-10-12T06:46:38Z</time>
      </trkpt>
      <trkpt lat="47.63237" lon="7.11372">
        <ele>302.25007381904</ele>
        <time>2025-10-12T06:46:40Z</time>
      </trkpt>
      <trkpt lat="47.63234" lon="7.1137">
        <ele>302.25473756223</ele>
        <time>2025-10-12T06:46:42Z</time>
      </trkpt>
      <trkpt lat="47.63232" lon="7.11368">
        <ele>302.28755366987</ele>
        <time>2025-10-12T06:46:44Z</time>
      </trkpt>
      <trkpt lat="47.63229" lon="7.11368">
        <ele>302.36479986073</ele>
        <time>2025-10-12T06:46:46Z</time>
      </trkpt>
      <trkpt lat="47.63227" lon="7.11366">
        <ele>302.36526745204</ele>
        <time>2025-10-12T06:46:48Z</time>
      </trkpt>
      <trkpt lat="47.63225" lon="7.11365">
        <ele>302.41341971096</ele>
        <time>2025-10-12T06:46:50Z</time>
      </trkpt>
      <trkpt lat="47.63223" lon="7.11362">
        <ele>302.44656084048</ele>
        <time>2025-10-12T06:46:52Z</time>
      </trkpt>
      <trkpt lat="47.6322" lon="7.1136">
        <ele>302.43253312092</ele>
        <time>2025-10-12T06:46:54Z</time>
      </trkpt>
      <trkpt lat="47.63218" lon="7.11359">
        <ele>302.50424068308</ele>
        <time>2025-10-12T06:46:56Z</time>
      </trkpt>
      <trkpt lat="47.63215" lon="7.11358">
        <ele>302.58263109854</ele>
        <time>2025-10-12T06:46:58Z</time>
      </trkpt>
      <trkpt lat="47.63213" lon="7.11356">
        <ele>302.65333199488</ele>
        <time>2025-10-12T06:47:00Z</time>
      </trkpt>
      <trkpt lat="47.6321" lon="7.11355">
        <ele>302.71452423334</ele>
        <time>2025-10-12T06:47:02Z</time>
      </trkpt>
      <trkpt lat="47.63208" lon="7.11353">
        <ele>302.74868290865</ele>
        <time>2025-10-12T06:47:04Z</time>
      </trkpt>
      <trkpt lat="47.63205" lon="7.11351">
        <ele>302.77377119951</ele>
        <time>2025-10-12T06:47:06Z</time>
      </trkpt>
      <trkpt lat="47.63202" lon="7.11349">
        <ele>302.81164750966</ele>
        <time>2025-10-12T06:47:08Z</time>
      </trkpt>
      <trkpt lat="47.632" lon="7.11347">
        <ele>302.80694784259</ele>
        <time>2025-10-12T06:47:10Z</time>
      </trkpt>
      <trkpt lat="47.63198" lon="7.11345">
        <ele>302.78797689572</ele>
        <time>2025-10-12T06:47:12Z</time>
      </trkpt>
      <trkpt lat="47.63195" lon="7.11342">
        <ele>302.75208985959</ele>
        <time>2025-10-12T06:47:14Z</time>
      </trkpt>
      <trkpt lat="47.63192" lon="7.1134">
        <ele>302.72711886765</ele>
        <time>2025-10-12T06:47:16Z</time>
      </trkpt>
      <trkpt lat="47.6319" lon="7.11337">
        <ele>302.70272670168</ele>
        <time>2025-10-12T06:47:18Z</time>
      </trkpt>
      <trkpt lat="47.63187" lon="7.11334">
        <ele>302.69216387133</ele>
        <time>2025-10-12T06:47:20Z</time>
      </trkpt>
      <trkpt lat="47.63186" lon="7.11331">
        <ele>302.68978956626</ele>
        <time>2025-10-12T06:47:22Z</time>
      </trkpt>
      <trkpt lat="47.63183" lon="7.11328">
        <ele>302.76104512009</ele>
        <time>2025-10-12T06:47:24Z</time>
      </trkpt>
      <trkpt lat="47.6318" lon="7.11326">
        <ele>302.86266984604</ele>
        <time>2025-10-12T06:47:26Z</time>
      </trkpt>
      <trkpt lat="47.63177" lon="7.11324">
        <ele>302.95511706254</ele>
        <time>2025-10-12T06:47:28Z</time>
      </trkpt>
      <trkpt lat="47.63175" lon="7.11323">
        <ele>303.01338852205</ele>
        <time>2025-10-12T06:47:29Z</time>
      </trkpt>
      <trkpt lat="47.63173" lon="7.1132">
        <ele>303.12991434939</ele>
        <time>2025-10-12T06:47:31Z</time>
      </trkpt>
      <trkpt lat="47.63171" lon="7.11318">
        <ele>303.20868153638</ele>
        <time>2025-10-12T06:47:33Z</time>
      </trkpt>
      <trkpt lat="47.63168" lon="7.11316">
        <ele>303.29200399829</ele>
        <time>2025-10-12T06:47:35Z</time>
      </trkpt>
      <trkpt lat="47.63166" lon="7.11314">
        <ele>303.38111786255</ele>
        <time>2025-10-12T06:47:37Z</time>
      </trkpt>
      <trkpt lat="47.63164" lon="7.11311">
        <ele>303.399831572</ele>
        <time>2025-10-12T06:47:39Z</time>
      </trkpt>
      <trkpt lat="47.63163" lon="7.11309">
        <ele>303.40001870909</ele>
        <time>2025-10-12T06:47:41Z</time>
      </trkpt>
      <trkpt lat="47.63161" lon="7.11306">
        <ele>303.40002058046</ele>
        <time>2025-10-12T06:47:43Z</time>
      </trkpt>
      <trkpt lat="47.6316" lon="7.11303">
        <ele>303.40002059918</ele>
        <time>2025-10-12T06:47:45Z</time>
      </trkpt>
      <trkpt lat="47.63158" lon="7.11301">
        <ele>303.40002059936</ele>
        <time>2025-10-12T06:47:47Z</time>
      </trkpt>
      <trkpt lat="47.63156" lon="7.11299">
        <ele>303.40002059937</ele>
        <time>2025-10-12T06:47:49Z</time>
      </trkpt>
      <trkpt lat="47.63154" lon="7.11296">
        <ele>303.40002059937</ele>
        <time>2025-10-12T06:47:51Z</time>
      </trkpt>
      <trkpt lat="47.63152" lon="7.11294">
        <ele>303.40002059937</ele>
        <time>2025-10-12T06:47:53Z</time>
      </trkpt>
      <trkpt lat="47.6315" lon="7.11293">
        <ele>303.40002059937</ele>
        <time>2025-10-12T06:47:55Z</time>
      </trkpt>
      <trkpt lat="47.63147" lon="7.11293">
        <ele>303.40002059937</ele>
        <time>2025-10-12T06:47:58Z</time>
      </trkpt>
      <trkpt lat="47.63145" lon="7.11295">
        <ele>303.40002059937</ele>
        <time>2025-10-12T06:48:00Z</time>
      </trkpt>
      <trkpt lat="47.63143" lon="7.11298">
        <ele>303.40002059937</ele>
        <time>2025-10-12T06:48:02Z</time>
      </trkpt>
      <trkpt lat="47.63141" lon="7.113">
        <ele>303.40002059937</ele>
        <time>2025-10-12T06:48:04Z</time>
      </trkpt>
      <trkpt lat="47.63138" lon="7.11301">
        <ele>303.40002059937</ele>
        <time>2025-10-12T06:48:06Z</time>
      </trkpt>
      <trkpt lat="47.63136" lon="7.11301">
        <ele>303.40002059937</ele>
        <time>2025-10-12T06:48:08Z</time>
      </trkpt>
      <trkpt lat="47.63133" lon="7.113">
        <ele>303.40002059937</ele>
        <time>2025-10-12T06:48:10Z</time>
      </trkpt>
      <trkpt lat="47.6313" lon="7.11301">
        <ele>303.40002059937</ele>
        <time>2025-10-12T06:48:12Z</time>
      </trkpt>
      <trkpt lat="47.63128" lon="7.11301">
        <ele>303.40002059937</ele>
        <time>2025-10-12T06:48:13Z</time>
      </trkpt>
      <trkpt lat="47.63125" lon="7.11301">
        <ele>303.40002059937</ele>
        <time>2025-10-12T06:48:15Z</time>
      </trkpt>
      <trkpt lat="47.63123" lon="7.11304">
        <ele>303.40002059937</ele>
        <time>2025-10-12T06:48:17Z</time>
      </trkpt>
      <trkpt lat="47.63121" lon="7.11305">
        <ele>303.40002059937</ele>
        <time>2025-10-12T06:48:18Z</time>
      </trkpt>
      <trkpt lat="47.6312" lon="7.11308">
        <ele>303.40002059937</ele>
        <time>2025-10-12T06:48:19Z</time>
      </trkpt>
      <trkpt lat="47.63119" lon="7.1131">
        <ele>303.44934921265</ele>
        <time>2025-10-12T06:48:20Z</time>
      </trkpt>
      <trkpt lat="47.63116" lon="7.11314">
        <ele>303.56197445679</ele>
        <time>2025-10-12T06:48:22Z</time>
      </trkpt>
      <trkpt lat="47.63115" lon="7.11317">
        <ele>303.63860673218</ele>
        <time>2025-10-12T06:48:23Z</time>
      </trkpt>
      <trkpt lat="47.63113" lon="7.11319">
        <ele>303.74066998413</ele>
        <time>2025-10-12T06:48:24Z</time>
      </trkpt>
      <trkpt lat="47.63112" lon="7.11322">
        <ele>303.83681686108</ele>
        <time>2025-10-12T06:48:25Z</time>
      </trkpt>
      <trkpt lat="47.6311" lon="7.11324">
        <ele>303.95478420991</ele>
        <time>2025-10-12T06:48:26Z</time>
      </trkpt>
      <trkpt lat="47.63109" lon="7.11327">
        <ele>304.06427686765</ele>
        <time>2025-10-12T06:48:27Z</time>
      </trkpt>
      <trkpt lat="47.63108" lon="7.1133">
        <ele>304.1751193219</ele>
        <time>2025-10-12T06:48:28Z</time>
      </trkpt>
      <trkpt lat="47.63107" lon="7.11334">
        <ele>304.35123624724</ele>
        <time>2025-10-12T06:48:30Z</time>
      </trkpt>
      <trkpt lat="47.63107" lon="7.11337">
        <ele>304.39953275584</ele>
        <time>2025-10-12T06:48:32Z</time>
      </trkpt>
      <trkpt lat="47.63107" lon="7.11341">
        <ele>304.40001572093</ele>
        <time>2025-10-12T06:48:34Z</time>
      </trkpt>
      <trkpt lat="47.63108" lon="7.11345">
        <ele>304.40002055058</ele>
        <time>2025-10-12T06:48:36Z</time>
      </trkpt>
      <trkpt lat="47.63108" lon="7.11349">
        <ele>304.40002059888</ele>
        <time>2025-10-12T06:48:38Z</time>
      </trkpt>
      <trkpt lat="47.63109" lon="7.11351">
        <ele>304.40002059932</ele>
        <time>2025-10-12T06:48:39Z</time>
      </trkpt>
      <trkpt lat="47.63109" lon="7.11356">
        <ele>304.40002059936</ele>
        <time>2025-10-12T06:48:41Z</time>
      </trkpt>
      <trkpt lat="47.63109" lon="7.11359">
        <ele>304.40002059937</ele>
        <time>2025-10-12T06:48:42Z</time>
      </trkpt>
      <trkpt lat="47.6311" lon="7.11363">
        <ele>304.40002059937</ele>
        <time>2025-10-12T06:48:44Z</time>
      </trkpt>
      <trkpt lat="47.6311" lon="7.11367">
        <ele>304.40628555298</ele>
        <time>2025-10-12T06:48:46Z</time>
      </trkpt>
      <trkpt lat="47.6311" lon="7.11371">
        <ele>304.41436272888</ele>
        <time>2025-10-12T06:48:48Z</time>
      </trkpt>
      <trkpt lat="47.6311" lon="7.11376">
        <ele>304.41874739468</ele>
        <time>2025-10-12T06:48:50Z</time>
      </trkpt>
      <trkpt lat="47.6311" lon="7.11379">
        <ele>304.4217328307</ele>
        <time>2025-10-12T06:48:52Z</time>
      </trkpt>
      <trkpt lat="47.63111" lon="7.11382">
        <ele>304.4133801167</ele>
        <time>2025-10-12T06:48:54Z</time>
      </trkpt>
      <trkpt lat="47.63112" lon="7.11386">
        <ele>304.39398262471</ele>
        <time>2025-10-12T06:48:56Z</time>
      </trkpt>
      <trkpt lat="47.63113" lon="7.11391">
        <ele>304.39935597157</ele>
        <time>2025-10-12T06:48:58Z</time>
      </trkpt>
      <trkpt lat="47.63114" lon="7.11396">
        <ele>304.40001395309</ele>
        <time>2025-10-12T06:49:00Z</time>
      </trkpt>
      <trkpt lat="47.63115" lon="7.114">
        <ele>304.4000205329</ele>
        <time>2025-10-12T06:49:02Z</time>
      </trkpt>
      <trkpt lat="47.63116" lon="7.11404">
        <ele>304.4000205987</ele>
        <time>2025-10-12T06:49:04Z</time>
      </trkpt>
      <trkpt lat="47.63116" lon="7.11407">
        <ele>304.40002059936</ele>
        <time>2025-10-12T06:49:06Z</time>
      </trkpt>
      <trkpt lat="47.63117" lon="7.11411">
        <ele>304.40002059937</ele>
        <time>2025-10-12T06:49:08Z</time>
      </trkpt>
      <trkpt lat="47.63117" lon="7.11415">
        <ele>304.40002059937</ele>
        <time>2025-10-12T06:49:10Z</time>
      </trkpt>
      <trkpt lat="47.63118" lon="7.1142">
        <ele>304.42144393921</ele>
        <time>2025-10-12T06:49:12Z</time>
      </trkpt>
      <trkpt lat="47.63119" lon="7.11423">
        <ele>304.51697280884</ele>
        <time>2025-10-12T06:49:14Z</time>
      </trkpt>
      <trkpt lat="47.63119" lon="7.11427">
        <ele>304.61941155701</ele>
        <time>2025-10-12T06:49:16Z</time>
      </trkpt>
      <trkpt lat="47.63118" lon="7.11431">
        <ele>304.72870620816</ele>
        <time>2025-10-12T06:49:18Z</time>
      </trkpt>
      <trkpt lat="47.63118" lon="7.11435">
        <ele>304.82499568788</ele>
        <time>2025-10-12T06:49:20Z</time>
      </trkpt>
      <trkpt lat="47.63118" lon="7.11438">
        <ele>304.92509371451</ele>
        <time>2025-10-12T06:49:22Z</time>
      </trkpt>
      <trkpt lat="47.63118" lon="7.11443">
        <ele>305.04002291743</ele>
        <time>2025-10-12T06:49:24Z</time>
      </trkpt>
      <trkpt lat="47.63119" lon="7.11447">
        <ele>305.1409637744</ele>
        <time>2025-10-12T06:49:26Z</time>
      </trkpt>
      <trkpt lat="47.6312" lon="7.11451">
        <ele>305.12405997496</ele>
        <time>2025-10-12T06:49:28Z</time>
      </trkpt>
      <trkpt lat="47.6312" lon="7.11456">
        <ele>305.1712859565</ele>
        <time>2025-10-12T06:49:30Z</time>
      </trkpt>
      <trkpt lat="47.6312" lon="7.11459">
        <ele>305.20913871223</ele>
        <time>2025-10-12T06:49:31Z</time>
      </trkpt>
      <trkpt lat="47.6312" lon="7.11462">
        <ele>305.25068949073</ele>
        <time>2025-10-12T06:49:32Z</time>
      </trkpt>
      <trkpt lat="47.63118" lon="7.11465">
        <ele>305.31116400703</ele>
        <time>2025-10-12T06:49:34Z</time>
      </trkpt>
      <trkpt lat="47.63118" lon="7.11469">
        <ele>305.34734797582</ele>
        <time>2025-10-12T06:49:36Z</time>
      </trkpt>
      <trkpt lat="47.63117" lon="7.11472">
        <ele>305.372286296</ele>
        <time>2025-10-12T06:49:37Z</time>
      </trkpt>
      <trkpt lat="47.63116" lon="7.11476">
        <ele>305.45192556834</ele>
        <time>2025-10-12T06:49:39Z</time>
      </trkpt>
      <trkpt lat="47.63116" lon="7.11481">
        <ele>305.58720285706</ele>
        <time>2025-10-12T06:49:41Z</time>
      </trkpt>
      <trkpt lat="47.63115" lon="7.11484">
        <ele>305.66615093451</ele>
        <time>2025-10-12T06:49:42Z</time>
      </trkpt>
      <trkpt lat="47.63115" lon="7.11487">
        <ele>305.75240572761</ele>
        <time>2025-10-12T06:49:43Z</time>
      </trkpt>
      <trkpt lat="47.63115" lon="7.1149">
        <ele>305.8783296069</ele>
        <time>2025-10-12T06:49:45Z</time>
      </trkpt>
      <trkpt lat="47.63115" lon="7.11494">
        <ele>305.99927665087</ele>
        <time>2025-10-12T06:49:47Z</time>
      </trkpt>
      <trkpt lat="47.63114" lon="7.11499">
        <ele>306.15595639718</ele>
        <time>2025-10-12T06:49:49Z</time>
      </trkpt>
      <trkpt lat="47.63113" lon="7.11503">
        <ele>306.31272705207</ele>
        <time>2025-10-12T06:49:51Z</time>
      </trkpt>
      <trkpt lat="47.63112" lon="7.11506">
        <ele>306.5247159012</ele>
        <time>2025-10-12T06:49:53Z</time>
      </trkpt>
      <trkpt lat="47.63109" lon="7.11509">
        <ele>306.66576889516</ele>
        <time>2025-10-12T06:49:55Z</time>
      </trkpt>
      <trkpt lat="47.63107" lon="7.11511">
        <ele>306.72256710863</ele>
        <time>2025-10-12T06:49:56Z</time>
      </trkpt>
      <trkpt lat="47.63105" lon="7.11513">
        <ele>306.83655233887</ele>
        <time>2025-10-12T06:49:58Z</time>
      </trkpt>
      <trkpt lat="47.63103" lon="7.11513">
        <ele>306.87234856324</ele>
        <time>2025-10-12T06:50:00Z</time>
      </trkpt>
      <trkpt lat="47.631" lon="7.11513">
        <ele>306.87966911094</ele>
        <time>2025-10-12T06:50:02Z</time>
      </trkpt>
      <trkpt lat="47.63097" lon="7.11512">
        <ele>306.85372226326</ele>
        <time>2025-10-12T06:50:05Z</time>
      </trkpt>
      <trkpt lat="47.63096" lon="7.11512">
        <ele>306.84359022865</ele>
        <time>2025-10-12T06:50:06Z</time>
      </trkpt>
      <trkpt lat="47.63093" lon="7.11511">
        <ele>306.81927532642</ele>
        <time>2025-10-12T06:50:08Z</time>
      </trkpt>
      <trkpt lat="47.6309" lon="7.11511">
        <ele>306.78936634488</ele>
        <time>2025-10-12T06:50:10Z</time>
      </trkpt>
      <trkpt lat="47.63088" lon="7.11511">
        <ele>306.79409624676</ele>
        <time>2025-10-12T06:50:12Z</time>
      </trkpt>
      <trkpt lat="47.63085" lon="7.11509">
        <ele>306.76310442225</ele>
        <time>2025-10-12T06:50:14Z</time>
      </trkpt>
      <trkpt lat="47.63082" lon="7.11507">
        <ele>306.71229584677</ele>
        <time>2025-10-12T06:50:16Z</time>
      </trkpt>
      <trkpt lat="47.63079" lon="7.11506">
        <ele>306.74104984598</ele>
        <time>2025-10-12T06:50:18Z</time>
      </trkpt>
      <trkpt lat="47.63077" lon="7.11505">
        <ele>306.79131144603</ele>
        <time>2025-10-12T06:50:20Z</time>
      </trkpt>
      <trkpt lat="47.63075" lon="7.11503">
        <ele>306.8241633052</ele>
        <time>2025-10-12T06:50:22Z</time>
      </trkpt>
      <trkpt lat="47.63071" lon="7.11502">
        <ele>306.86269128668</ele>
        <time>2025-10-12T06:50:24Z</time>
      </trkpt>
      <trkpt lat="47.63068" lon="7.11501">
        <ele>306.93157082919</ele>
        <time>2025-10-12T06:50:26Z</time>
      </trkpt>
      <trkpt lat="47.63065" lon="7.11501">
        <ele>307.03279825987</ele>
        <time>2025-10-12T06:50:28Z</time>
      </trkpt>
      <trkpt lat="47.63063" lon="7.115">
        <ele>307.10361766308</ele>
        <time>2025-10-12T06:50:30Z</time>
      </trkpt>
      <trkpt lat="47.6306" lon="7.115">
        <ele>307.18887938494</ele>
        <time>2025-10-12T06:50:32Z</time>
      </trkpt>
      <trkpt lat="47.63057" lon="7.115">
        <ele>307.2898147048</ele>
        <time>2025-10-12T06:50:34Z</time>
      </trkpt>
      <trkpt lat="47.63055" lon="7.115">
        <ele>307.36993660683</ele>
        <time>2025-10-12T06:50:36Z</time>
      </trkpt>
      <trkpt lat="47.63052" lon="7.115">
        <ele>307.4581313195</ele>
        <time>2025-10-12T06:50:38Z</time>
      </trkpt>
      <trkpt lat="47.63049" lon="7.115">
        <ele>307.5720982886</ele>
        <time>2025-10-12T06:50:40Z</time>
      </trkpt>
      <trkpt lat="47.63046" lon="7.11499">
        <ele>307.66121372733</ele>
        <time>2025-10-12T06:50:42Z</time>
      </trkpt>
      <trkpt lat="47.63043" lon="7.11499">
        <ele>307.7690595326</ele>
        <time>2025-10-12T06:50:44Z</time>
      </trkpt>
      <trkpt lat="47.6304" lon="7.11498">
        <ele>307.86014348381</ele>
        <time>2025-10-12T06:50:46Z</time>
      </trkpt>
      <trkpt lat="47.63037" lon="7.11498">
        <ele>307.94441858114</ele>
        <time>2025-10-12T06:50:48Z</time>
      </trkpt>
      <trkpt lat="47.63034" lon="7.11497">
        <ele>308.00893534334</ele>
        <time>2025-10-12T06:50:50Z</time>
      </trkpt>
      <trkpt lat="47.63031" lon="7.11497">
        <ele>308.11868298899</ele>
        <time>2025-10-12T06:50:52Z</time>
      </trkpt>
      <trkpt lat="47.63028" lon="7.11495">
        <ele>308.19289997228</ele>
        <time>2025-10-12T06:50:54Z</time>
      </trkpt>
      <trkpt lat="47.63025" lon="7.11494">
        <ele>308.2109016636</ele>
        <time>2025-10-12T06:50:56Z</time>
      </trkpt>
      <trkpt lat="47.63023" lon="7.11494">
        <ele>308.21625885227</ele>
        <time>2025-10-12T06:50:57Z</time>
      </trkpt>
      <trkpt lat="47.6302" lon="7.11493">
        <ele>308.20808105318</ele>
        <time>2025-10-12T06:50:59Z</time>
      </trkpt>
      <trkpt lat="47.63018" lon="7.11493">
        <ele>308.2184692459</ele>
        <time>2025-10-12T06:51:01Z</time>
      </trkpt>
      <trkpt lat="47.63015" lon="7.11492">
        <ele>308.23171002968</ele>
        <time>2025-10-12T06:51:03Z</time>
      </trkpt>
      <trkpt lat="47.63012" lon="7.11491">
        <ele>308.25207376076</ele>
        <time>2025-10-12T06:51:05Z</time>
      </trkpt>
      <trkpt lat="47.63008" lon="7.11491">
        <ele>308.28207231994</ele>
        <time>2025-10-12T06:51:07Z</time>
      </trkpt>
      <trkpt lat="47.63006" lon="7.11492">
        <ele>308.32225816979</ele>
        <time>2025-10-12T06:51:09Z</time>
      </trkpt>
      <trkpt lat="47.63004" lon="7.11492">
        <ele>308.35346569235</ele>
        <time>2025-10-12T06:51:11Z</time>
      </trkpt>
      <trkpt lat="47.63002" lon="7.11492">
        <ele>308.36903503076</ele>
        <time>2025-10-12T06:51:13Z</time>
      </trkpt>
      <trkpt lat="47.62999" lon="7.11491">
        <ele>308.39290471341</ele>
        <time>2025-10-12T06:51:15Z</time>
      </trkpt>
      <trkpt lat="47.62997" lon="7.1149">
        <ele>308.41853508499</ele>
        <time>2025-10-12T06:51:16Z</time>
      </trkpt>
      <trkpt lat="47.62995" lon="7.11488">
        <ele>308.47647832723</ele>
        <time>2025-10-12T06:51:18Z</time>
      </trkpt>
      <trkpt lat="47.62993" lon="7.11485">
        <ele>308.51143947352</ele>
        <time>2025-10-12T06:51:20Z</time>
      </trkpt>
      <trkpt lat="47.62991" lon="7.11485">
        <ele>308.52549398723</ele>
        <time>2025-10-12T06:51:23Z</time>
      </trkpt>
      <trkpt lat="47.62989" lon="7.11484">
        <ele>308.54618500121</ele>
        <time>2025-10-12T06:51:25Z</time>
      </trkpt>
      <trkpt lat="47.62987" lon="7.11485">
        <ele>308.57045063818</ele>
        <time>2025-10-12T06:51:26Z</time>
      </trkpt>
      <trkpt lat="47.62984" lon="7.11486">
        <ele>308.63396214341</ele>
        <time>2025-10-12T06:51:28Z</time>
      </trkpt>
      <trkpt lat="47.62981" lon="7.11487">
        <ele>308.71394875992</ele>
        <time>2025-10-12T06:51:30Z</time>
      </trkpt>
      <trkpt lat="47.62979" lon="7.11486">
        <ele>308.75765242909</ele>
        <time>2025-10-12T06:51:31Z</time>
      </trkpt>
      <trkpt lat="47.62976" lon="7.11487">
        <ele>308.81008281854</ele>
        <time>2025-10-12T06:51:33Z</time>
      </trkpt>
      <trkpt lat="47.62974" lon="7.11487">
        <ele>308.84653219238</ele>
        <time>2025-10-12T06:51:34Z</time>
      </trkpt>
      <trkpt lat="47.62971" lon="7.11488">
        <ele>308.92612481442</ele>
        <time>2025-10-12T06:51:36Z</time>
      </trkpt>
      <trkpt lat="47.62968" lon="7.11488">
        <ele>308.99350612882</ele>
        <time>2025-10-12T06:51:38Z</time>
      </trkpt>
      <trkpt lat="47.62965" lon="7.11488">
        <ele>309.0546431988</ele>
        <time>2025-10-12T06:51:40Z</time>
      </trkpt>
      <trkpt lat="47.62963" lon="7.11489">
        <ele>309.11143590495</ele>
        <time>2025-10-12T06:51:42Z</time>
      </trkpt>
      <trkpt lat="47.6296" lon="7.11489">
        <ele>309.16308751121</ele>
        <time>2025-10-12T06:51:44Z</time>
      </trkpt>
      <trkpt lat="47.62958" lon="7.11489">
        <ele>309.18313271047</ele>
        <time>2025-10-12T06:51:45Z</time>
      </trkpt>
      <trkpt lat="47.62955" lon="7.11489">
        <ele>309.22323776784</ele>
        <time>2025-10-12T06:51:47Z</time>
      </trkpt>
      <trkpt lat="47.62953" lon="7.11491">
        <ele>309.27096242681</ele>
        <time>2025-10-12T06:51:49Z</time>
      </trkpt>
      <trkpt lat="47.6295" lon="7.11493">
        <ele>309.32851914117</ele>
        <time>2025-10-12T06:51:51Z</time>
      </trkpt>
      <trkpt lat="47.62949" lon="7.11496">
        <ele>309.36020524299</ele>
        <time>2025-10-12T06:51:53Z</time>
      </trkpt>
      <trkpt lat="47.62947" lon="7.11499">
        <ele>309.39063837598</ele>
        <time>2025-10-12T06:51:55Z</time>
      </trkpt>
      <trkpt lat="47.62944" lon="7.11501">
        <ele>309.41164369608</ele>
        <time>2025-10-12T06:51:57Z</time>
      </trkpt>
      <trkpt lat="47.62942" lon="7.11502">
        <ele>309.47476384165</ele>
        <time>2025-10-12T06:51:58Z</time>
      </trkpt>
      <trkpt lat="47.6294" lon="7.11503">
        <ele>309.56322612477</ele>
        <time>2025-10-12T06:51:59Z</time>
      </trkpt>
      <trkpt lat="47.62937" lon="7.11503">
        <ele>309.70613324544</ele>
        <time>2025-10-12T06:52:01Z</time>
      </trkpt>
      <trkpt lat="47.62935" lon="7.11504">
        <ele>309.8255417478</ele>
        <time>2025-10-12T06:52:03Z</time>
      </trkpt>
      <trkpt lat="47.62933" lon="7.11507">
        <ele>309.98850676788</ele>
        <time>2025-10-12T06:52:05Z</time>
      </trkpt>
      <trkpt lat="47.6293" lon="7.11509">
        <ele>310.15029510949</ele>
        <time>2025-10-12T06:52:07Z</time>
      </trkpt>
      <trkpt lat="47.62927" lon="7.11511">
        <ele>310.33014144749</ele>
        <time>2025-10-12T06:52:09Z</time>
      </trkpt>
      <trkpt lat="47.62924" lon="7.11513">
        <ele>310.48723165892</ele>
        <time>2025-10-12T06:52:11Z</time>
      </trkpt>
      <trkpt lat="47.62922" lon="7.11514">
        <ele>310.62072913574</ele>
        <time>2025-10-12T06:52:13Z</time>
      </trkpt>
      <trkpt lat="47.6292" lon="7.11514">
        <ele>310.69092690222</ele>
        <time>2025-10-12T06:52:14Z</time>
      </trkpt>
      <trkpt lat="47.62917" lon="7.11515">
        <ele>310.85722806327</ele>
        <time>2025-10-12T06:52:16Z</time>
      </trkpt>
      <trkpt lat="47.62914" lon="7.11516">
        <ele>310.9930478742</ele>
        <time>2025-10-12T06:52:18Z</time>
      </trkpt>
      <trkpt lat="47.62911" lon="7.11517">
        <ele>311.12475061577</ele>
        <time>2025-10-12T06:52:20Z</time>
      </trkpt>
      <trkpt lat="47.62909" lon="7.11518">
        <ele>311.25689558508</ele>
        <time>2025-10-12T06:52:22Z</time>
      </trkpt>
      <trkpt lat="47.62907" lon="7.1152">
        <ele>311.32759042216</ele>
        <time>2025-10-12T06:52:23Z</time>
      </trkpt>
      <trkpt lat="47.62905" lon="7.11522">
        <ele>311.44279284043</ele>
        <time>2025-10-12T06:52:24Z</time>
      </trkpt>
      <trkpt lat="47.62902" lon="7.11524">
        <ele>311.66987703271</ele>
        <time>2025-10-12T06:52:26Z</time>
      </trkpt>
      <trkpt lat="47.629" lon="7.11525">
        <ele>311.78867616458</ele>
        <time>2025-10-12T06:52:27Z</time>
      </trkpt>
      <trkpt lat="47.62898" lon="7.11528">
        <ele>311.97974181078</ele>
        <time>2025-10-12T06:52:29Z</time>
      </trkpt>
      <trkpt lat="47.62896" lon="7.1153">
        <ele>312.12067071675</ele>
        <time>2025-10-12T06:52:31Z</time>
      </trkpt>
      <trkpt lat="47.62896" lon="7.11535">
        <ele>312.14080894868</ele>
        <time>2025-10-12T06:52:33Z</time>
      </trkpt>
      <trkpt lat="47.62896" lon="7.11539">
        <ele>312.13841755757</ele>
        <time>2025-10-12T06:52:35Z</time>
      </trkpt>
      <trkpt lat="47.62894" lon="7.11542">
        <ele>312.18615945176</ele>
        <time>2025-10-12T06:52:37Z</time>
      </trkpt>
      <trkpt lat="47.62892" lon="7.11545">
        <ele>312.24079397519</ele>
        <time>2025-10-12T06:52:39Z</time>
      </trkpt>
      <trkpt lat="47.62891" lon="7.11548">
        <ele>312.30118284973</ele>
        <time>2025-10-12T06:52:41Z</time>
      </trkpt>
      <trkpt lat="47.62889" lon="7.1155">
        <ele>312.35878655536</ele>
        <time>2025-10-12T06:52:43Z</time>
      </trkpt>
      <trkpt lat="47.62887" lon="7.11553">
        <ele>312.42477519008</ele>
        <time>2025-10-12T06:52:45Z</time>
      </trkpt>
      <trkpt lat="47.62886" lon="7.11557">
        <ele>312.48433003492</ele>
        <time>2025-10-12T06:52:47Z</time>
      </trkpt>
      <trkpt lat="47.62884" lon="7.11559">
        <ele>312.52723393298</ele>
        <time>2025-10-12T06:52:49Z</time>
      </trkpt>
      <trkpt lat="47.62883" lon="7.11563">
        <ele>312.58557190751</ele>
        <time>2025-10-12T06:52:51Z</time>
      </trkpt>
      <trkpt lat="47.6288" lon="7.11565">
        <ele>312.67969288491</ele>
        <time>2025-10-12T06:52:53Z</time>
      </trkpt>
      <trkpt lat="47.62878" lon="7.11564">
        <ele>312.70992447343</ele>
        <time>2025-10-12T06:52:54Z</time>
      </trkpt>
      <trkpt lat="47.62878" lon="7.11564">
        <ele>312.80728703135</ele>
        <time>2025-10-12T06:53:02Z</time>
      </trkpt>
      <trkpt lat="47.62875" lon="7.11566">
        <ele>312.84302279757</ele>
        <time>2025-10-12T06:53:06Z</time>
      </trkpt>
      <trkpt lat="47.62873" lon="7.11568">
        <ele>312.94516473268</ele>
        <time>2025-10-12T06:53:08Z</time>
      </trkpt>
      <trkpt lat="47.62871" lon="7.1157">
        <ele>312.99122735076</ele>
        <time>2025-10-12T06:53:10Z</time>
      </trkpt>
      <trkpt lat="47.6287" lon="7.11572">
        <ele>313.06916356288</ele>
        <time>2025-10-12T06:53:12Z</time>
      </trkpt>
      <trkpt lat="47.62868" lon="7.11577">
        <ele>313.11367881704</ele>
        <time>2025-10-12T06:53:15Z</time>
      </trkpt>
      <trkpt lat="47.62866" lon="7.1158">
        <ele>313.18051777725</ele>
        <time>2025-10-12T06:53:17Z</time>
      </trkpt>
      <trkpt lat="47.62865" lon="7.11582">
        <ele>313.21039148415</ele>
        <time>2025-10-12T06:53:18Z</time>
      </trkpt>
      <trkpt lat="47.62864" lon="7.11586">
        <ele>313.27590964757</ele>
        <time>2025-10-12T06:53:20Z</time>
      </trkpt>
      <trkpt lat="47.62862" lon="7.11589">
        <ele>313.33351246104</ele>
        <time>2025-10-12T06:53:22Z</time>
      </trkpt>
      <trkpt lat="47.62861" lon="7.11592">
        <ele>313.40055852091</ele>
        <time>2025-10-12T06:53:24Z</time>
      </trkpt>
      <trkpt lat="47.62859" lon="7.11595">
        <ele>313.42613498737</ele>
        <time>2025-10-12T06:53:26Z</time>
      </trkpt>
      <trkpt lat="47.62858" lon="7.116">
        <ele>313.48674963875</ele>
        <time>2025-10-12T06:53:28Z</time>
      </trkpt>
      <trkpt lat="47.62856" lon="7.11604">
        <ele>313.53122419347</ele>
        <time>2025-10-12T06:53:30Z</time>
      </trkpt>
      <trkpt lat="47.62854" lon="7.11608">
        <ele>313.61134453716</ele>
        <time>2025-10-12T06:53:32Z</time>
      </trkpt>
      <trkpt lat="47.62852" lon="7.11611">
        <ele>313.67692113122</ele>
        <time>2025-10-12T06:53:34Z</time>
      </trkpt>
      <trkpt lat="47.6285" lon="7.11614">
        <ele>313.76313567402</ele>
        <time>2025-10-12T06:53:36Z</time>
      </trkpt>
      <trkpt lat="47.62849" lon="7.11617">
        <ele>313.81349122765</ele>
        <time>2025-10-12T06:53:38Z</time>
      </trkpt>
      <trkpt lat="47.62847" lon="7.1162">
        <ele>313.87560336473</ele>
        <time>2025-10-12T06:53:40Z</time>
      </trkpt>
      <trkpt lat="47.62846" lon="7.11624">
        <ele>313.93861309694</ele>
        <time>2025-10-12T06:53:42Z</time>
      </trkpt>
      <trkpt lat="47.62845" lon="7.11627">
        <ele>313.96962863127</ele>
        <time>2025-10-12T06:53:44Z</time>
      </trkpt>
      <trkpt lat="47.62842" lon="7.1163">
        <ele>314.03125897705</ele>
        <time>2025-10-12T06:53:46Z</time>
      </trkpt>
      <trkpt lat="47.62842" lon="7.11633">
        <ele>314.08007779515</ele>
        <time>2025-10-12T06:53:48Z</time>
      </trkpt>
      <trkpt lat="47.6284" lon="7.11636">
        <ele>314.0971309332</ele>
        <time>2025-10-12T06:53:49Z</time>
      </trkpt>
      <trkpt lat="47.62838" lon="7.1164">
        <ele>314.1865595738</ele>
        <time>2025-10-12T06:53:51Z</time>
      </trkpt>
      <trkpt lat="47.62836" lon="7.11643">
        <ele>314.26506952182</ele>
        <time>2025-10-12T06:53:53Z</time>
      </trkpt>
      <trkpt lat="47.62834" lon="7.11647">
        <ele>314.3384000925</ele>
        <time>2025-10-12T06:53:55Z</time>
      </trkpt>
      <trkpt lat="47.62832" lon="7.1165">
        <ele>314.3908130857</ele>
        <time>2025-10-12T06:53:57Z</time>
      </trkpt>
      <trkpt lat="47.6283" lon="7.11653">
        <ele>314.39992852423</ele>
        <time>2025-10-12T06:53:59Z</time>
      </trkpt>
      <trkpt lat="47.62828" lon="7.11656">
        <ele>314.40001967861</ele>
        <time>2025-10-12T06:54:01Z</time>
      </trkpt>
      <trkpt lat="47.62827" lon="7.11659">
        <ele>314.40002059016</ele>
        <time>2025-10-12T06:54:03Z</time>
      </trkpt>
      <trkpt lat="47.62825" lon="7.11663">
        <ele>314.40002059927</ele>
        <time>2025-10-12T06:54:05Z</time>
      </trkpt>
      <trkpt lat="47.62823" lon="7.11666">
        <ele>314.40002059936</ele>
        <time>2025-10-12T06:54:07Z</time>
      </trkpt>
      <trkpt lat="47.62821" lon="7.1167">
        <ele>314.40002059937</ele>
        <time>2025-10-12T06:54:09Z</time>
      </trkpt>
      <trkpt lat="47.6282" lon="7.11672">
        <ele>314.40002059937</ele>
        <time>2025-10-12T06:54:10Z</time>
      </trkpt>
      <trkpt lat="47.62819" lon="7.11674">
        <ele>314.40002059937</ele>
        <time>2025-10-12T06:54:11Z</time>
      </trkpt>
      <trkpt lat="47.62816" lon="7.11677">
        <ele>314.40002059937</ele>
        <time>2025-10-12T06:54:13Z</time>
      </trkpt>
      <trkpt lat="47.62815" lon="7.1168">
        <ele>314.40002059937</ele>
        <time>2025-10-12T06:54:15Z</time>
      </trkpt>
      <trkpt lat="47.62815" lon="7.11683">
        <ele>314.40002059937</ele>
        <time>2025-10-12T06:54:17Z</time>
      </trkpt>
      <trkpt lat="47.62817" lon="7.11685">
        <ele>314.40002059937</ele>
        <time>2025-10-12T06:54:20Z</time>
      </trkpt>
      <trkpt lat="47.62815" lon="7.1169">
        <ele>314.40002059937</ele>
        <time>2025-10-12T06:54:23Z</time>
      </trkpt>
      <trkpt lat="47.62814" lon="7.11693">
        <ele>314.40002059937</ele>
        <time>2025-10-12T06:54:24Z</time>
      </trkpt>
      <trkpt lat="47.62813" lon="7.11695">
        <ele>314.40002059937</ele>
        <time>2025-10-12T06:54:26Z</time>
      </trkpt>
      <trkpt lat="47.62811" lon="7.11697">
        <ele>314.40002059937</ele>
        <time>2025-10-12T06:54:28Z</time>
      </trkpt>
      <trkpt lat="47.62809" lon="7.11699">
        <ele>314.40002059937</ele>
        <time>2025-10-12T06:54:30Z</time>
      </trkpt>
      <trkpt lat="47.62807" lon="7.117">
        <ele>314.40002059937</ele>
        <time>2025-10-12T06:54:31Z</time>
      </trkpt>
      <trkpt lat="47.62806" lon="7.11704">
        <ele>314.40002059937</ele>
        <time>2025-10-12T06:54:33Z</time>
      </trkpt>
      <trkpt lat="47.62804" lon="7.11708">
        <ele>314.37780075073</ele>
        <time>2025-10-12T06:54:35Z</time>
      </trkpt>
      <trkpt lat="47.62804" lon="7.11712">
        <ele>314.34360333252</ele>
        <time>2025-10-12T06:54:37Z</time>
      </trkpt>
      <trkpt lat="47.62804" lon="7.11715">
        <ele>314.34385462006</ele>
        <time>2025-10-12T06:54:39Z</time>
      </trkpt>
      <trkpt lat="47.62803" lon="7.1172">
        <ele>314.33652375891</ele>
        <time>2025-10-12T06:54:41Z</time>
      </trkpt>
      <trkpt lat="47.62803" lon="7.11723">
        <ele>314.31963312852</ele>
        <time>2025-10-12T06:54:43Z</time>
      </trkpt>
      <trkpt lat="47.62803" lon="7.11727">
        <ele>314.3183820689</ele>
        <time>2025-10-12T06:54:45Z</time>
      </trkpt>
      <trkpt lat="47.62803" lon="7.11732">
        <ele>314.30480418965</ele>
        <time>2025-10-12T06:54:47Z</time>
      </trkpt>
      <trkpt lat="47.62802" lon="7.11737">
        <ele>314.29000715597</ele>
        <time>2025-10-12T06:54:49Z</time>
      </trkpt>
      <trkpt lat="47.62801" lon="7.11742">
        <ele>314.25540331405</ele>
        <time>2025-10-12T06:54:51Z</time>
      </trkpt>
      <trkpt lat="47.62801" lon="7.11746">
        <ele>314.22654775415</ele>
        <time>2025-10-12T06:54:53Z</time>
      </trkpt>
      <trkpt lat="47.62801" lon="7.11749">
        <ele>314.23229794863</ele>
        <time>2025-10-12T06:54:54Z</time>
      </trkpt>
      <trkpt lat="47.62801" lon="7.11752">
        <ele>314.22199650324</ele>
        <time>2025-10-12T06:54:55Z</time>
      </trkpt>
      <trkpt lat="47.628" lon="7.11756">
        <ele>314.2478952046</ele>
        <time>2025-10-12T06:54:57Z</time>
      </trkpt>
      <trkpt lat="47.62798" lon="7.11761">
        <ele>314.24981312716</ele>
        <time>2025-10-12T06:54:59Z</time>
      </trkpt>
      <trkpt lat="47.62797" lon="7.11763">
        <ele>314.24286423203</ele>
        <time>2025-10-12T06:55:00Z</time>
      </trkpt>
      <trkpt lat="47.62796" lon="7.11767">
        <ele>314.25284997563</ele>
        <time>2025-10-12T06:55:02Z</time>
      </trkpt>
      <trkpt lat="47.62795" lon="7.1177">
        <ele>314.26464618836</ele>
        <time>2025-10-12T06:55:03Z</time>
      </trkpt>
      <trkpt lat="47.62794" lon="7.11773">
        <ele>314.29274231354</ele>
        <time>2025-10-12T06:55:04Z</time>
      </trkpt>
      <trkpt lat="47.62793" lon="7.11778">
        <ele>314.35322271885</ele>
        <time>2025-10-12T06:55:06Z</time>
      </trkpt>
      <trkpt lat="47.62791" lon="7.1178">
        <ele>314.39931366792</ele>
        <time>2025-10-12T06:55:08Z</time>
      </trkpt>
      <trkpt lat="47.62791" lon="7.11783">
        <ele>314.40001353005</ele>
        <time>2025-10-12T06:55:10Z</time>
      </trkpt>
      <trkpt lat="47.6279" lon="7.11786">
        <ele>314.40002052867</ele>
        <time>2025-10-12T06:55:12Z</time>
      </trkpt>
      <trkpt lat="47.62789" lon="7.1179">
        <ele>314.40002059866</ele>
        <time>2025-10-12T06:55:14Z</time>
      </trkpt>
      <trkpt lat="47.62789" lon="7.11793">
        <ele>314.40002059936</ele>
        <time>2025-10-12T06:55:16Z</time>
      </trkpt>
      <trkpt lat="47.62788" lon="7.11796">
        <ele>314.40002059937</ele>
        <time>2025-10-12T06:55:18Z</time>
      </trkpt>
      <trkpt lat="47.62787" lon="7.118">
        <ele>314.40002059937</ele>
        <time>2025-10-12T06:55:20Z</time>
      </trkpt>
      <trkpt lat="47.62787" lon="7.11805">
        <ele>314.40002059937</ele>
        <time>2025-10-12T06:55:22Z</time>
      </trkpt>
      <trkpt lat="47.62787" lon="7.11808">
        <ele>314.40002059937</ele>
        <time>2025-10-12T06:55:23Z</time>
      </trkpt>
      <trkpt lat="47.62788" lon="7.11813">
        <ele>314.56914962769</ele>
        <time>2025-10-12T06:55:25Z</time>
      </trkpt>
      <trkpt lat="47.62788" lon="7.11816">
        <ele>314.66563650513</ele>
        <time>2025-10-12T06:55:26Z</time>
      </trkpt>
      <trkpt lat="47.62791" lon="7.11821">
        <ele>314.83876257385</ele>
        <time>2025-10-12T06:55:28Z</time>
      </trkpt>
      <trkpt lat="47.62792" lon="7.11825">
        <ele>314.95596755072</ele>
        <time>2025-10-12T06:55:29Z</time>
      </trkpt>
      <trkpt lat="47.62795" lon="7.11827">
        <ele>315.16758354788</ele>
        <time>2025-10-12T06:55:31Z</time>
      </trkpt>
      <trkpt lat="47.62795" lon="7.1183">
        <ele>315.16312027801</ele>
        <time>2025-10-12T06:55:32Z</time>
      </trkpt>
      <trkpt lat="47.62795" lon="7.11832">
        <ele>315.25333862387</ele>
        <time>2025-10-12T06:55:33Z</time>
      </trkpt>
      <trkpt lat="47.62795" lon="7.11835">
        <ele>315.39693604279</ele>
        <time>2025-10-12T06:55:35Z</time>
      </trkpt>
      <trkpt lat="47.62795" lon="7.11839">
        <ele>315.5263847123</ele>
        <time>2025-10-12T06:55:37Z</time>
      </trkpt>
      <trkpt lat="47.62794" lon="7.11844">
        <ele>315.66989721657</ele>
        <time>2025-10-12T06:55:39Z</time>
      </trkpt>
      <trkpt lat="47.62793" lon="7.11849">
        <ele>315.84982172149</ele>
        <time>2025-10-12T06:55:41Z</time>
      </trkpt>
      <trkpt lat="47.62793" lon="7.11852">
        <ele>315.94806467642</ele>
        <time>2025-10-12T06:55:42Z</time>
      </trkpt>
      <trkpt lat="47.62793" lon="7.11855">
        <ele>316.05053118383</ele>
        <time>2025-10-12T06:55:43Z</time>
      </trkpt>
      <trkpt lat="47.62793" lon="7.11859">
        <ele>316.24998182093</ele>
        <time>2025-10-12T06:55:45Z</time>
      </trkpt>
      <trkpt lat="47.62793" lon="7.11862">
        <ele>316.36256745279</ele>
        <time>2025-10-12T06:55:47Z</time>
      </trkpt>
      <trkpt lat="47.62793" lon="7.11867">
        <ele>316.3996460679</ele>
        <time>2025-10-12T06:55:49Z</time>
      </trkpt>
      <trkpt lat="47.62793" lon="7.11871">
        <ele>316.40001685405</ele>
        <time>2025-10-12T06:55:51Z</time>
      </trkpt>
      <trkpt lat="47.62794" lon="7.11874">
        <ele>316.40002056191</ele>
        <time>2025-10-12T06:55:53Z</time>
      </trkpt>
      <trkpt lat="47.62794" lon="7.11878">
        <ele>316.40002059899</ele>
        <time>2025-10-12T06:55:55Z</time>
      </trkpt>
      <trkpt lat="47.62794" lon="7.11882">
        <ele>316.40002059936</ele>
        <time>2025-10-12T06:55:57Z</time>
      </trkpt>
      <trkpt lat="47.62793" lon="7.11886">
        <ele>316.40002059937</ele>
        <time>2025-10-12T06:55:59Z</time>
      </trkpt>
      <trkpt lat="47.62793" lon="7.11889">
        <ele>316.40002059937</ele>
        <time>2025-10-12T06:56:01Z</time>
      </trkpt>
      <trkpt lat="47.62792" lon="7.11893">
        <ele>316.47227767944</ele>
        <time>2025-10-12T06:56:03Z</time>
      </trkpt>
      <trkpt lat="47.62791" lon="7.11898">
        <ele>316.61710516968</ele>
        <time>2025-10-12T06:56:05Z</time>
      </trkpt>
      <trkpt lat="47.6279" lon="7.11903">
        <ele>316.81916654272</ele>
        <time>2025-10-12T06:56:07Z</time>
      </trkpt>
      <trkpt lat="47.62789" lon="7.11906">
        <ele>316.8953134896</ele>
        <time>2025-10-12T06:56:08Z</time>
      </trkpt>
      <trkpt lat="47.62789" lon="7.11909">
        <ele>317.05925880659</ele>
        <time>2025-10-12T06:56:10Z</time>
      </trkpt>
      <trkpt lat="47.62789" lon="7.11913">
        <ele>317.19178113329</ele>
        <time>2025-10-12T06:56:12Z</time>
      </trkpt>
      <trkpt lat="47.62789" lon="7.11917">
        <ele>317.33582425207</ele>
        <time>2025-10-12T06:56:14Z</time>
      </trkpt>
      <trkpt lat="47.6279" lon="7.11922">
        <ele>317.49423184634</ele>
        <time>2025-10-12T06:56:16Z</time>
      </trkpt>
      <trkpt lat="47.62789" lon="7.11922">
        <ele>317.57401691938</ele>
        <time>2025-10-12T06:56:17Z</time>
      </trkpt>
      <trkpt lat="47.62787" lon="7.11925">
        <ele>317.63857361188</ele>
        <time>2025-10-12T06:56:19Z</time>
      </trkpt>
      <trkpt lat="47.62785" lon="7.11929">
        <ele>317.76511151279</ele>
        <time>2025-10-12T06:56:21Z</time>
      </trkpt>
      <trkpt lat="47.62782" lon="7.11932">
        <ele>317.88556481905</ele>
        <time>2025-10-12T06:56:23Z</time>
      </trkpt>
      <trkpt lat="47.62779" lon="7.11932">
        <ele>317.95102289215</ele>
        <time>2025-10-12T06:56:25Z</time>
      </trkpt>
      <trkpt lat="47.62777" lon="7.11933">
        <ele>317.96560056497</ele>
        <time>2025-10-12T06:56:26Z</time>
      </trkpt>
      <trkpt lat="47.62775" lon="7.11934">
        <ele>317.99510093479</ele>
        <time>2025-10-12T06:56:27Z</time>
      </trkpt>
      <trkpt lat="47.62773" lon="7.11935">
        <ele>318.01887006357</ele>
        <time>2025-10-12T06:56:28Z</time>
      </trkpt>
      <trkpt lat="47.62771" lon="7.11936">
        <ele>318.05291506727</ele>
        <time>2025-10-12T06:56:29Z</time>
      </trkpt>
      <trkpt lat="47.62767" lon="7.11938">
        <ele>318.12871934385</ele>
        <time>2025-10-12T06:56:31Z</time>
      </trkpt>
      <trkpt lat="47.62764" lon="7.11939">
        <ele>318.19407699599</ele>
        <time>2025-10-12T06:56:33Z</time>
      </trkpt>
      <trkpt lat="47.62761" lon="7.1194">
        <ele>318.21369297485</ele>
        <time>2025-10-12T06:56:35Z</time>
      </trkpt>
      <trkpt lat="47.62759" lon="7.11941">
        <ele>318.23623097656</ele>
        <time>2025-10-12T06:56:36Z</time>
      </trkpt>
      <trkpt lat="47.62758" lon="7.11942">
        <ele>318.25735379529</ele>
        <time>2025-10-12T06:56:37Z</time>
      </trkpt>
      <trkpt lat="47.62756" lon="7.11943">
        <ele>318.30585584767</ele>
        <time>2025-10-12T06:56:38Z</time>
      </trkpt>
      <trkpt lat="47.62753" lon="7.11946">
        <ele>318.39282498456</ele>
        <time>2025-10-12T06:56:40Z</time>
      </trkpt>
      <trkpt lat="47.62752" lon="7.11949">
        <ele>318.49601034976</ele>
        <time>2025-10-12T06:56:42Z</time>
      </trkpt>
      <trkpt lat="47.62752" lon="7.11954">
        <ele>318.65472897099</ele>
        <time>2025-10-12T06:56:44Z</time>
      </trkpt>
      <trkpt lat="47.62751" lon="7.11957">
        <ele>318.73494883399</ele>
        <time>2025-10-12T06:56:45Z</time>
      </trkpt>
      <trkpt lat="47.6275" lon="7.11961">
        <ele>318.91734327038</ele>
        <time>2025-10-12T06:56:47Z</time>
      </trkpt>
      <trkpt lat="47.62749" lon="7.11965">
        <ele>319.06252506387</ele>
        <time>2025-10-12T06:56:49Z</time>
      </trkpt>
      <trkpt lat="47.62749" lon="7.1197">
        <ele>319.22623670846</ele>
        <time>2025-10-12T06:56:51Z</time>
      </trkpt>
      <trkpt lat="47.62749" lon="7.11974">
        <ele>319.38821104415</ele>
        <time>2025-10-12T06:56:53Z</time>
      </trkpt>
      <trkpt lat="47.62749" lon="7.11978">
        <ele>319.5254130629</ele>
        <time>2025-10-12T06:56:55Z</time>
      </trkpt>
      <trkpt lat="47.62749" lon="7.11981">
        <ele>319.65093333748</ele>
        <time>2025-10-12T06:56:57Z</time>
      </trkpt>
      <trkpt lat="47.6275" lon="7.11985">
        <ele>319.78007489276</ele>
        <time>2025-10-12T06:56:59Z</time>
      </trkpt>
      <trkpt lat="47.6275" lon="7.11988">
        <ele>319.89780490695</ele>
        <time>2025-10-12T06:57:01Z</time>
      </trkpt>
      <trkpt lat="47.6275" lon="7.11993">
        <ele>320.03490231207</ele>
        <time>2025-10-12T06:57:03Z</time>
      </trkpt>
      <trkpt lat="47.6275" lon="7.11999">
        <ele>320.21316140868</ele>
        <time>2025-10-12T06:57:05Z</time>
      </trkpt>
      <trkpt lat="47.62751" lon="7.12001">
        <ele>320.33445052502</ele>
        <time>2025-10-12T06:57:06Z</time>
      </trkpt>
      <trkpt lat="47.6275" lon="7.12004">
        <ele>320.43136642396</ele>
        <time>2025-10-12T06:57:07Z</time>
      </trkpt>
      <trkpt lat="47.6275" lon="7.12008">
        <ele>320.59156483154</ele>
        <time>2025-10-12T06:57:09Z</time>
      </trkpt>
      <trkpt lat="47.62751" lon="7.12013">
        <ele>320.77463444584</ele>
        <time>2025-10-12T06:57:12Z</time>
      </trkpt>
      <trkpt lat="47.62751" lon="7.12016">
        <ele>320.90719874467</ele>
        <time>2025-10-12T06:57:14Z</time>
      </trkpt>
      <trkpt lat="47.62751" lon="7.12019">
        <ele>320.98129566487</ele>
        <time>2025-10-12T06:57:15Z</time>
      </trkpt>
      <trkpt lat="47.62751" lon="7.12022">
        <ele>321.14771262248</ele>
        <time>2025-10-12T06:57:17Z</time>
      </trkpt>
      <trkpt lat="47.62752" lon="7.12026">
        <ele>321.26144832526</ele>
        <time>2025-10-12T06:57:19Z</time>
      </trkpt>
      <trkpt lat="47.62752" lon="7.1203">
        <ele>321.39010124625</ele>
        <time>2025-10-12T06:57:21Z</time>
      </trkpt>
      <trkpt lat="47.62752" lon="7.12034">
        <ele>321.5425239449</ele>
        <time>2025-10-12T06:57:23Z</time>
      </trkpt>
      <trkpt lat="47.62752" lon="7.12038">
        <ele>321.68651338184</ele>
        <time>2025-10-12T06:57:25Z</time>
      </trkpt>
      <trkpt lat="47.62752" lon="7.12042">
        <ele>321.82888040024</ele>
        <time>2025-10-12T06:57:27Z</time>
      </trkpt>
      <trkpt lat="47.62752" lon="7.12047">
        <ele>321.99522808165</ele>
        <time>2025-10-12T06:57:29Z</time>
      </trkpt>
      <trkpt lat="47.62752" lon="7.12052">
        <ele>322.14558326989</ele>
        <time>2025-10-12T06:57:31Z</time>
      </trkpt>
      <trkpt lat="47.62752" lon="7.12054">
        <ele>322.24389449337</ele>
        <time>2025-10-12T06:57:32Z</time>
      </trkpt>
      <trkpt lat="47.62752" lon="7.12057">
        <ele>322.33999575732</ele>
        <time>2025-10-12T06:57:33Z</time>
      </trkpt>
      <trkpt lat="47.62752" lon="7.12062">
        <ele>322.40767932311</ele>
        <time>2025-10-12T06:57:35Z</time>
      </trkpt>
      <trkpt lat="47.62753" lon="7.12065">
        <ele>322.42203413729</ele>
        <time>2025-10-12T06:57:37Z</time>
      </trkpt>
      <trkpt lat="47.62753" lon="7.12069">
        <ele>322.44136256092</ele>
        <time>2025-10-12T06:57:39Z</time>
      </trkpt>
      <trkpt lat="47.62753" lon="7.12073">
        <ele>322.46094396771</ele>
        <time>2025-10-12T06:57:41Z</time>
      </trkpt>
      <trkpt lat="47.62753" lon="7.12077">
        <ele>322.45993833426</ele>
        <time>2025-10-12T06:57:44Z</time>
      </trkpt>
      <trkpt lat="47.62752" lon="7.12081">
        <ele>322.46830379771</ele>
        <time>2025-10-12T06:57:46Z</time>
      </trkpt>
      <trkpt lat="47.62752" lon="7.12085">
        <ele>322.46831329463</ele>
        <time>2025-10-12T06:57:48Z</time>
      </trkpt>
      <trkpt lat="47.62753" lon="7.1209">
        <ele>322.61273965913</ele>
        <time>2025-10-12T06:57:50Z</time>
      </trkpt>
      <trkpt lat="47.62754" lon="7.12094">
        <ele>322.82411342717</ele>
        <time>2025-10-12T06:57:52Z</time>
      </trkpt>
      <trkpt lat="47.62755" lon="7.12098">
        <ele>323.02170140801</ele>
        <time>2025-10-12T06:57:54Z</time>
      </trkpt>
      <trkpt lat="47.62755" lon="7.12102">
        <ele>323.16021262718</ele>
        <time>2025-10-12T06:57:56Z</time>
      </trkpt>
      <trkpt lat="47.62754" lon="7.12105">
        <ele>323.29662520519</ele>
        <time>2025-10-12T06:57:58Z</time>
      </trkpt>
      <trkpt lat="47.62754" lon="7.12108">
        <ele>323.38893690177</ele>
        <time>2025-10-12T06:58:00Z</time>
      </trkpt>
      <trkpt lat="47.62753" lon="7.12111">
        <ele>323.47677011395</ele>
        <time>2025-10-12T06:58:02Z</time>
      </trkpt>
      <trkpt lat="47.62752" lon="7.12114">
        <ele>323.49735242557</ele>
        <time>2025-10-12T06:58:04Z</time>
      </trkpt>
      <trkpt lat="47.6275" lon="7.12117">
        <ele>323.43845454995</ele>
        <time>2025-10-12T06:58:06Z</time>
      </trkpt>
      <trkpt lat="47.62749" lon="7.12119">
        <ele>323.36053555411</ele>
        <time>2025-10-12T06:58:08Z</time>
      </trkpt>
      <trkpt lat="47.62747" lon="7.1212">
        <ele>323.1101387494</ele>
        <time>2025-10-12T06:58:10Z</time>
      </trkpt>
      <trkpt lat="47.62745" lon="7.12124">
        <ele>322.84879414415</ele>
        <time>2025-10-12T06:58:12Z</time>
      </trkpt>
      <trkpt lat="47.62744" lon="7.12127">
        <ele>322.73617297826</ele>
        <time>2025-10-12T06:58:13Z</time>
      </trkpt>
      <trkpt lat="47.62742" lon="7.1213">
        <ele>322.44387498204</ele>
        <time>2025-10-12T06:58:15Z</time>
      </trkpt>
      <trkpt lat="47.62738" lon="7.12132">
        <ele>322.03667709973</ele>
        <time>2025-10-12T06:58:17Z</time>
      </trkpt>
      <trkpt lat="47.62736" lon="7.12133">
        <ele>321.51985396124</ele>
        <time>2025-10-12T06:58:19Z</time>
      </trkpt>
      <trkpt lat="47.62733" lon="7.12135">
        <ele>321.26104162586</ele>
        <time>2025-10-12T06:58:21Z</time>
      </trkpt>
      <trkpt lat="47.62731" lon="7.12135">
        <ele>320.91357343658</ele>
        <time>2025-10-12T06:58:23Z</time>
      </trkpt>
      <trkpt lat="47.62728" lon="7.12137">
        <ele>320.54138934307</ele>
        <time>2025-10-12T06:58:25Z</time>
      </trkpt>
      <trkpt lat="47.62725" lon="7.12138">
        <ele>320.09804958221</ele>
        <time>2025-10-12T06:58:27Z</time>
      </trkpt>
      <trkpt lat="47.62723" lon="7.12137">
        <ele>319.64309158744</ele>
        <time>2025-10-12T06:58:29Z</time>
      </trkpt>
      <trkpt lat="47.6272" lon="7.12138">
        <ele>319.53634718327</ele>
        <time>2025-10-12T06:58:31Z</time>
      </trkpt>
      <trkpt lat="47.62717" lon="7.12138">
        <ele>319.89457661423</ele>
        <time>2025-10-12T06:58:33Z</time>
      </trkpt>
      <trkpt lat="47.62715" lon="7.12139">
        <ele>320.27733005112</ele>
        <time>2025-10-12T06:58:35Z</time>
      </trkpt>
      <trkpt lat="47.62712" lon="7.1214">
        <ele>320.62006658207</ele>
        <time>2025-10-12T06:58:37Z</time>
      </trkpt>
      <trkpt lat="47.62709" lon="7.1214">
        <ele>321.03466002404</ele>
        <time>2025-10-12T06:58:39Z</time>
      </trkpt>
      <trkpt lat="47.62706" lon="7.12141">
        <ele>321.46043925924</ele>
        <time>2025-10-12T06:58:41Z</time>
      </trkpt>
      <trkpt lat="47.62703" lon="7.12142">
        <ele>321.86545083577</ele>
        <time>2025-10-12T06:58:43Z</time>
      </trkpt>
      <trkpt lat="47.627" lon="7.12143">
        <ele>322.34040518737</ele>
        <time>2025-10-12T06:58:45Z</time>
      </trkpt>
      <trkpt lat="47.62697" lon="7.12144">
        <ele>322.68811768255</ele>
        <time>2025-10-12T06:58:47Z</time>
      </trkpt>
      <trkpt lat="47.62696" lon="7.12145">
        <ele>322.8834106034</ele>
        <time>2025-10-12T06:58:49Z</time>
      </trkpt>
      <trkpt lat="47.62694" lon="7.12147">
        <ele>323.10331580312</ele>
        <time>2025-10-12T06:58:51Z</time>
      </trkpt>
      <trkpt lat="47.62691" lon="7.12147">
        <ele>323.19473482582</ele>
        <time>2025-10-12T06:58:53Z</time>
      </trkpt>
      <trkpt lat="47.62689" lon="7.12148">
        <ele>323.23963606498</ele>
        <time>2025-10-12T06:58:54Z</time>
      </trkpt>
      <trkpt lat="47.62686" lon="7.12149">
        <ele>323.37401611926</ele>
        <time>2025-10-12T06:58:56Z</time>
      </trkpt>
      <trkpt lat="47.62684" lon="7.12149">
        <ele>323.47223704589</ele>
        <time>2025-10-12T06:58:57Z</time>
      </trkpt>
      <trkpt lat="47.62682" lon="7.12148">
        <ele>323.62208706315</ele>
        <time>2025-10-12T06:58:59Z</time>
      </trkpt>
      <trkpt lat="47.6268" lon="7.12147">
        <ele>323.67005134242</ele>
        <time>2025-10-12T06:59:00Z</time>
      </trkpt>
      <trkpt lat="47.62678" lon="7.12145">
        <ele>323.82424159771</ele>
        <time>2025-10-12T06:59:02Z</time>
      </trkpt>
      <trkpt lat="47.62676" lon="7.12144">
        <ele>323.95806987722</ele>
        <time>2025-10-12T06:59:04Z</time>
      </trkpt>
      <trkpt lat="47.62674" lon="7.12142">
        <ele>324.04027577476</ele>
        <time>2025-10-12T06:59:06Z</time>
      </trkpt>
      <trkpt lat="47.62672" lon="7.12141">
        <ele>324.13749462329</ele>
        <time>2025-10-12T06:59:08Z</time>
      </trkpt>
      <trkpt lat="47.6267" lon="7.12139">
        <ele>324.21927125513</ele>
        <time>2025-10-12T06:59:10Z</time>
      </trkpt>
      <trkpt lat="47.62669" lon="7.12137">
        <ele>324.31500540329</ele>
        <time>2025-10-12T06:59:12Z</time>
      </trkpt>
      <trkpt lat="47.62669" lon="7.12133">
        <ele>324.42826273261</ele>
        <time>2025-10-12T06:59:15Z</time>
      </trkpt>
      <trkpt lat="47.62669" lon="7.12131">
        <ele>324.51885099433</ele>
        <time>2025-10-12T06:59:17Z</time>
      </trkpt>
      <trkpt lat="47.62667" lon="7.12128">
        <ele>324.67549906445</ele>
        <time>2025-10-12T06:59:19Z</time>
      </trkpt>
      <trkpt lat="47.62667" lon="7.12125">
        <ele>324.85400011836</ele>
        <time>2025-10-12T06:59:22Z</time>
      </trkpt>
      <trkpt lat="47.62666" lon="7.12121">
        <ele>324.92770187405</ele>
        <time>2025-10-12T06:59:24Z</time>
      </trkpt>
      <trkpt lat="47.62666" lon="7.12114">
        <ele>324.95772036746</ele>
        <time>2025-10-12T06:59:25Z</time>
      </trkpt>
      <trkpt lat="47.62666" lon="7.1211">
        <ele>325.30287848084</ele>
        <time>2025-10-12T06:59:27Z</time>
      </trkpt>
      <trkpt lat="47.62666" lon="7.12107">
        <ele>325.34781676349</ele>
        <time>2025-10-12T06:59:28Z</time>
      </trkpt>
      <trkpt lat="47.62665" lon="7.12102">
        <ele>325.24303127585</ele>
        <time>2025-10-12T06:59:30Z</time>
      </trkpt>
      <trkpt lat="47.62665" lon="7.12099">
        <ele>325.12012306941</ele>
        <time>2025-10-12T06:59:32Z</time>
      </trkpt>
      <trkpt lat="47.62665" lon="7.12094">
        <ele>325.08867609184</ele>
        <time>2025-10-12T06:59:34Z</time>
      </trkpt>
      <trkpt lat="47.62666" lon="7.12086">
        <ele>325.05366092889</ele>
        <time>2025-10-12T06:59:35Z</time>
      </trkpt>
      <trkpt lat="47.62667" lon="7.12083">
        <ele>325.31587615549</ele>
        <time>2025-10-12T06:59:37Z</time>
      </trkpt>
      <trkpt lat="47.62668" lon="7.1208">
        <ele>325.2944025436</ele>
        <time>2025-10-12T06:59:39Z</time>
      </trkpt>
      <trkpt lat="47.62667" lon="7.12077">
        <ele>325.29620239586</ele>
        <time>2025-10-12T06:59:42Z</time>
      </trkpt>
      <trkpt lat="47.62666" lon="7.12073">
        <ele>325.30434863541</ele>
        <time>2025-10-12T06:59:45Z</time>
      </trkpt>
      <trkpt lat="47.62667" lon="7.12069">
        <ele>325.34152298617</ele>
        <time>2025-10-12T06:59:47Z</time>
      </trkpt>
      <trkpt lat="47.62667" lon="7.12064">
        <ele>325.38066273505</ele>
        <time>2025-10-12T06:59:49Z</time>
      </trkpt>
      <trkpt lat="47.62666" lon="7.1206">
        <ele>325.33001165207</ele>
        <time>2025-10-12T06:59:51Z</time>
      </trkpt>
      <trkpt lat="47.62666" lon="7.12057">
        <ele>325.3551168726</ele>
        <time>2025-10-12T06:59:52Z</time>
      </trkpt>
      <trkpt lat="47.62666" lon="7.12054">
        <ele>325.26797895716</ele>
        <time>2025-10-12T06:59:53Z</time>
      </trkpt>
      <trkpt lat="47.62666" lon="7.12052">
        <ele>325.20603640585</ele>
        <time>2025-10-12T06:59:54Z</time>
      </trkpt>
      <trkpt lat="47.62666" lon="7.12048">
        <ele>325.09772278624</ele>
        <time>2025-10-12T06:59:56Z</time>
      </trkpt>
      <trkpt lat="47.62667" lon="7.12044">
        <ele>325.05110955971</ele>
        <time>2025-10-12T06:59:58Z</time>
      </trkpt>
      <trkpt lat="47.62667" lon="7.12042">
        <ele>324.97113230302</ele>
        <time>2025-10-12T06:59:59Z</time>
      </trkpt>
      <trkpt lat="47.62667" lon="7.12039">
        <ele>324.89295940645</ele>
        <time>2025-10-12T07:00:00Z</time>
      </trkpt>
      <trkpt lat="47.62667" lon="7.12035">
        <ele>324.79109914804</ele>
        <time>2025-10-12T07:00:01Z</time>
      </trkpt>
      <trkpt lat="47.62667" lon="7.12033">
        <ele>324.65443301966</ele>
        <time>2025-10-12T07:00:02Z</time>
      </trkpt>
      <trkpt lat="47.62666" lon="7.12029">
        <ele>324.50516329535</ele>
        <time>2025-10-12T07:00:04Z</time>
      </trkpt>
      <trkpt lat="47.62665" lon="7.12025">
        <ele>324.3206667049</ele>
        <time>2025-10-12T07:00:05Z</time>
      </trkpt>
      <trkpt lat="47.62665" lon="7.12022">
        <ele>324.05414575679</ele>
        <time>2025-10-12T07:00:06Z</time>
      </trkpt>
      <trkpt lat="47.62665" lon="7.12019">
        <ele>323.89953040515</ele>
        <time>2025-10-12T07:00:07Z</time>
      </trkpt>
      <trkpt lat="47.62665" lon="7.12016">
        <ele>323.80603847447</ele>
        <time>2025-10-12T07:00:08Z</time>
      </trkpt>
      <trkpt lat="47.62665" lon="7.12013">
        <ele>323.71680111503</ele>
        <time>2025-10-12T07:00:10Z</time>
      </trkpt>
      <trkpt lat="47.62665" lon="7.12007">
        <ele>323.55395927855</ele>
        <time>2025-10-12T07:00:12Z</time>
      </trkpt>
      <trkpt lat="47.62665" lon="7.12003">
        <ele>323.29578361897</ele>
        <time>2025-10-12T07:00:14Z</time>
      </trkpt>
      <trkpt lat="47.62664" lon="7.12">
        <ele>323.21615024605</ele>
        <time>2025-10-12T07:00:15Z</time>
      </trkpt>
      <trkpt lat="47.62663" lon="7.11997">
        <ele>323.04059047321</ele>
        <time>2025-10-12T07:00:16Z</time>
      </trkpt>
      <trkpt lat="47.62662" lon="7.11993">
        <ele>322.86230398365</ele>
        <time>2025-10-12T07:00:18Z</time>
      </trkpt>
      <trkpt lat="47.62661" lon="7.11988">
        <ele>322.67231982481</ele>
        <time>2025-10-12T07:00:20Z</time>
      </trkpt>
      <trkpt lat="47.62661" lon="7.11984">
        <ele>322.61477972443</ele>
        <time>2025-10-12T07:00:22Z</time>
      </trkpt>
      <trkpt lat="47.6266" lon="7.11979">
        <ele>322.58035881656</ele>
        <time>2025-10-12T07:00:23Z</time>
      </trkpt>
      <trkpt lat="47.6266" lon="7.11975">
        <ele>322.47529319062</ele>
        <time>2025-10-12T07:00:24Z</time>
      </trkpt>
      <trkpt lat="47.6266" lon="7.11972">
        <ele>322.49131861044</ele>
        <time>2025-10-12T07:00:25Z</time>
      </trkpt>
      <trkpt lat="47.62659" lon="7.11969">
        <ele>322.36144227059</ele>
        <time>2025-10-12T07:00:26Z</time>
      </trkpt>
      <trkpt lat="47.62659" lon="7.11966">
        <ele>322.09980656532</ele>
        <time>2025-10-12T07:00:27Z</time>
      </trkpt>
      <trkpt lat="47.62658" lon="7.11964">
        <ele>321.88042094889</ele>
        <time>2025-10-12T07:00:28Z</time>
      </trkpt>
      <trkpt lat="47.62656" lon="7.11961">
        <ele>321.63334505815</ele>
        <time>2025-10-12T07:00:29Z</time>
      </trkpt>
      <trkpt lat="47.62656" lon="7.11958">
        <ele>321.30481056477</ele>
        <time>2025-10-12T07:00:30Z</time>
      </trkpt>
      <trkpt lat="47.62655" lon="7.11954">
        <ele>320.91962513964</ele>
        <time>2025-10-12T07:00:32Z</time>
      </trkpt>
      <trkpt lat="47.62654" lon="7.11951">
        <ele>320.68406723503</ele>
        <time>2025-10-12T07:00:33Z</time>
      </trkpt>
      <trkpt lat="47.62653" lon="7.11948">
        <ele>320.41829037524</ele>
        <time>2025-10-12T07:00:34Z</time>
      </trkpt>
      <trkpt lat="47.62652" lon="7.11945">
        <ele>319.96468877076</ele>
        <time>2025-10-12T07:00:36Z</time>
      </trkpt>
      <trkpt lat="47.62649" lon="7.1194">
        <ele>319.64988511555</ele>
        <time>2025-10-12T07:00:38Z</time>
      </trkpt>
      <trkpt lat="47.62646" lon="7.11936">
        <ele>319.38049440322</ele>
        <time>2025-10-12T07:00:40Z</time>
      </trkpt>
      <trkpt lat="47.62644" lon="7.11932">
        <ele>319.22170399951</ele>
        <time>2025-10-12T07:00:42Z</time>
      </trkpt>
      <trkpt lat="47.62641" lon="7.11928">
        <ele>319.11372998708</ele>
        <time>2025-10-12T07:00:44Z</time>
      </trkpt>
      <trkpt lat="47.6264" lon="7.11926">
        <ele>319.08983941411</ele>
        <time>2025-10-12T07:00:45Z</time>
      </trkpt>
      <trkpt lat="47.62639" lon="7.11924">
        <ele>319.089867349</ele>
        <time>2025-10-12T07:00:46Z</time>
      </trkpt>
      <trkpt lat="47.62636" lon="7.11921">
        <ele>319.15008099313</ele>
        <time>2025-10-12T07:00:48Z</time>
      </trkpt>
      <trkpt lat="47.62634" lon="7.1192">
        <ele>319.14450600886</ele>
        <time>2025-10-12T07:00:49Z</time>
      </trkpt>
      <trkpt lat="47.62632" lon="7.11918">
        <ele>319.12696832211</ele>
        <time>2025-10-12T07:00:51Z</time>
      </trkpt>
      <trkpt lat="47.6263" lon="7.11917">
        <ele>319.09602847991</ele>
        <time>2025-10-12T07:00:53Z</time>
      </trkpt>
      <trkpt lat="47.62627" lon="7.11917">
        <ele>319.01161324653</ele>
        <time>2025-10-12T07:00:55Z</time>
      </trkpt>
      <trkpt lat="47.62625" lon="7.11917">
        <ele>318.94680119869</ele>
        <time>2025-10-12T07:00:57Z</time>
      </trkpt>
      <trkpt lat="47.62623" lon="7.11916">
        <ele>318.87823559774</ele>
        <time>2025-10-12T07:00:59Z</time>
      </trkpt>
      <trkpt lat="47.62621" lon="7.11916">
        <ele>318.82005889608</ele>
        <time>2025-10-12T07:01:00Z</time>
      </trkpt>
      <trkpt lat="47.62619" lon="7.11916">
        <ele>318.68730844571</ele>
        <time>2025-10-12T07:01:02Z</time>
      </trkpt>
      <trkpt lat="47.62615" lon="7.11916">
        <ele>318.57569468632</ele>
        <time>2025-10-12T07:01:04Z</time>
      </trkpt>
      <trkpt lat="47.62614" lon="7.11916">
        <ele>318.50457226099</ele>
        <time>2025-10-12T07:01:05Z</time>
      </trkpt>
      <trkpt lat="47.62611" lon="7.11916">
        <ele>318.41746870387</ele>
        <time>2025-10-12T07:01:07Z</time>
      </trkpt>
      <trkpt lat="47.62608" lon="7.11916">
        <ele>318.34682624496</ele>
        <time>2025-10-12T07:01:09Z</time>
      </trkpt>
      <trkpt lat="47.62605" lon="7.11917">
        <ele>318.21778302838</ele>
        <time>2025-10-12T07:01:11Z</time>
      </trkpt>
      <trkpt lat="47.62602" lon="7.11917">
        <ele>318.11931852395</ele>
        <time>2025-10-12T07:01:13Z</time>
      </trkpt>
      <trkpt lat="47.626" lon="7.11916">
        <ele>318.02419477978</ele>
        <time>2025-10-12T07:01:15Z</time>
      </trkpt>
      <trkpt lat="47.62598" lon="7.11915">
        <ele>317.97220364241</ele>
        <time>2025-10-12T07:01:16Z</time>
      </trkpt>
      <trkpt lat="47.62596" lon="7.11913">
        <ele>317.77497918517</ele>
        <time>2025-10-12T07:01:18Z</time>
      </trkpt>
      <trkpt lat="47.62593" lon="7.11914">
        <ele>317.66004002165</ele>
        <time>2025-10-12T07:01:20Z</time>
      </trkpt>
      <trkpt lat="47.62591" lon="7.11915">
        <ele>317.63875269056</ele>
        <time>2025-10-12T07:01:22Z</time>
      </trkpt>
      <trkpt lat="47.62589" lon="7.11916">
        <ele>317.62326819813</ele>
        <time>2025-10-12T07:01:23Z</time>
      </trkpt>
      <trkpt lat="47.62586" lon="7.11917">
        <ele>317.55536678385</ele>
        <time>2025-10-12T07:01:25Z</time>
      </trkpt>
      <trkpt lat="47.62584" lon="7.11918">
        <ele>317.43716701775</ele>
        <time>2025-10-12T07:01:27Z</time>
      </trkpt>
      <trkpt lat="47.62582" lon="7.11917">
        <ele>317.38096607616</ele>
        <time>2025-10-12T07:01:28Z</time>
      </trkpt>
      <trkpt lat="47.6258" lon="7.11917">
        <ele>317.33131827205</ele>
        <time>2025-10-12T07:01:29Z</time>
      </trkpt>
      <trkpt lat="47.62576" lon="7.11917">
        <ele>317.20936897648</ele>
        <time>2025-10-12T07:01:31Z</time>
      </trkpt>
      <trkpt lat="47.62573" lon="7.11917">
        <ele>317.09178778919</ele>
        <time>2025-10-12T07:01:33Z</time>
      </trkpt>
      <trkpt lat="47.62569" lon="7.11917">
        <ele>316.95574930642</ele>
        <time>2025-10-12T07:01:35Z</time>
      </trkpt>
      <trkpt lat="47.62566" lon="7.11917">
        <ele>316.83177875313</ele>
        <time>2025-10-12T07:01:37Z</time>
      </trkpt>
      <trkpt lat="47.62562" lon="7.11917">
        <ele>316.71063151586</ele>
        <time>2025-10-12T07:01:39Z</time>
      </trkpt>
      <trkpt lat="47.6256" lon="7.11918">
        <ele>316.60827166703</ele>
        <time>2025-10-12T07:01:41Z</time>
      </trkpt>
      <trkpt lat="47.62558" lon="7.1192">
        <ele>316.5116285617</ele>
        <time>2025-10-12T07:01:43Z</time>
      </trkpt>
      <trkpt lat="47.62555" lon="7.1192">
        <ele>316.43215382987</ele>
        <time>2025-10-12T07:01:45Z</time>
      </trkpt>
      <trkpt lat="47.62553" lon="7.11921">
        <ele>316.40034193167</ele>
        <time>2025-10-12T07:01:47Z</time>
      </trkpt>
      <trkpt lat="47.6255" lon="7.11922">
        <ele>316.40002381269</ele>
        <time>2025-10-12T07:01:49Z</time>
      </trkpt>
      <trkpt lat="47.62548" lon="7.11922">
        <ele>316.4000209207</ele>
        <time>2025-10-12T07:01:50Z</time>
      </trkpt>
      <trkpt lat="47.62546" lon="7.11921">
        <ele>316.4000206315</ele>
        <time>2025-10-12T07:01:51Z</time>
      </trkpt>
      <trkpt lat="47.62543" lon="7.1192">
        <ele>316.40002059969</ele>
        <time>2025-10-12T07:01:53Z</time>
      </trkpt>
      <trkpt lat="47.6254" lon="7.1192">
        <ele>316.40002059937</ele>
        <time>2025-10-12T07:01:55Z</time>
      </trkpt>
      <trkpt lat="47.62537" lon="7.11919">
        <ele>316.40002059937</ele>
        <time>2025-10-12T07:01:57Z</time>
      </trkpt>
      <trkpt lat="47.62535" lon="7.11919">
        <ele>316.40002059937</ele>
        <time>2025-10-12T07:01:58Z</time>
      </trkpt>
      <trkpt lat="47.62533" lon="7.11919">
        <ele>316.40002059937</ele>
        <time>2025-10-12T07:01:59Z</time>
      </trkpt>
      <trkpt lat="47.62531" lon="7.11919">
        <ele>316.40002059937</ele>
        <time>2025-10-12T07:02:00Z</time>
      </trkpt>
      <trkpt lat="47.62528" lon="7.11919">
        <ele>316.40002059937</ele>
        <time>2025-10-12T07:02:02Z</time>
      </trkpt>
      <trkpt lat="47.62526" lon="7.11919">
        <ele>316.42462997437</ele>
        <time>2025-10-12T07:02:04Z</time>
      </trkpt>
      <trkpt lat="47.62523" lon="7.11919">
        <ele>316.51784237671</ele>
        <time>2025-10-12T07:02:06Z</time>
      </trkpt>
      <trkpt lat="47.6252" lon="7.1192">
        <ele>316.62076882446</ele>
        <time>2025-10-12T07:02:08Z</time>
      </trkpt>
      <trkpt lat="47.62517" lon="7.11921">
        <ele>316.73073027888</ele>
        <time>2025-10-12T07:02:10Z</time>
      </trkpt>
      <trkpt lat="47.62515" lon="7.11921">
        <ele>316.79014723138</ele>
        <time>2025-10-12T07:02:11Z</time>
      </trkpt>
      <trkpt lat="47.62512" lon="7.11921">
        <ele>316.85868353112</ele>
        <time>2025-10-12T07:02:12Z</time>
      </trkpt>
      <trkpt lat="47.6251" lon="7.11921">
        <ele>316.94499577926</ele>
        <time>2025-10-12T07:02:13Z</time>
      </trkpt>
      <trkpt lat="47.62508" lon="7.11921">
        <ele>317.03437651579</ele>
        <time>2025-10-12T07:02:14Z</time>
      </trkpt>
      <trkpt lat="47.62506" lon="7.11921">
        <ele>317.10967201132</ele>
        <time>2025-10-12T07:02:15Z</time>
      </trkpt>
      <trkpt lat="47.62504" lon="7.11921">
        <ele>317.17628054037</ele>
        <time>2025-10-12T07:02:16Z</time>
      </trkpt>
      <trkpt lat="47.62502" lon="7.1192">
        <ele>317.28949645561</ele>
        <time>2025-10-12T07:02:18Z</time>
      </trkpt>
      <trkpt lat="47.62499" lon="7.11919">
        <ele>317.38745387111</ele>
        <time>2025-10-12T07:02:20Z</time>
      </trkpt>
      <trkpt lat="47.62496" lon="7.1192">
        <ele>317.39989493208</ele>
        <time>2025-10-12T07:02:22Z</time>
      </trkpt>
      <trkpt lat="47.62494" lon="7.11922">
        <ele>317.40001934269</ele>
        <time>2025-10-12T07:02:24Z</time>
      </trkpt>
      <trkpt lat="47.62492" lon="7.11922">
        <ele>317.4000205868</ele>
        <time>2025-10-12T07:02:26Z</time>
      </trkpt>
      <trkpt lat="47.62489" lon="7.11922">
        <ele>317.40002059924</ele>
        <time>2025-10-12T07:02:28Z</time>
      </trkpt>
      <trkpt lat="47.62486" lon="7.11923">
        <ele>317.40002059936</ele>
        <time>2025-10-12T07:02:30Z</time>
      </trkpt>
      <trkpt lat="47.62483" lon="7.11923">
        <ele>317.40002059937</ele>
        <time>2025-10-12T07:02:32Z</time>
      </trkpt>
      <trkpt lat="47.6248" lon="7.11922">
        <ele>317.40002059937</ele>
        <time>2025-10-12T07:02:34Z</time>
      </trkpt>
      <trkpt lat="47.62477" lon="7.11922">
        <ele>317.40002059937</ele>
        <time>2025-10-12T07:02:36Z</time>
      </trkpt>
      <trkpt lat="47.62475" lon="7.11922">
        <ele>317.40002059937</ele>
        <time>2025-10-12T07:02:38Z</time>
      </trkpt>
      <trkpt lat="47.62472" lon="7.11923">
        <ele>317.40002059937</ele>
        <time>2025-10-12T07:02:40Z</time>
      </trkpt>
      <trkpt lat="47.6247" lon="7.11925">
        <ele>317.40002059937</ele>
        <time>2025-10-12T07:02:42Z</time>
      </trkpt>
      <trkpt lat="47.62466" lon="7.11925">
        <ele>317.40002059937</ele>
        <time>2025-10-12T07:02:44Z</time>
      </trkpt>
      <trkpt lat="47.62463" lon="7.11925">
        <ele>317.40002059937</ele>
        <time>2025-10-12T07:02:46Z</time>
      </trkpt>
      <trkpt lat="47.62462" lon="7.11925">
        <ele>317.40002059937</ele>
        <time>2025-10-12T07:02:47Z</time>
      </trkpt>
      <trkpt lat="47.62459" lon="7.11925">
        <ele>317.40002059937</ele>
        <time>2025-10-12T07:02:49Z</time>
      </trkpt>
      <trkpt lat="47.62456" lon="7.11926">
        <ele>317.40002059937</ele>
        <time>2025-10-12T07:02:51Z</time>
      </trkpt>
      <trkpt lat="47.62454" lon="7.11926">
        <ele>317.40002059937</ele>
        <time>2025-10-12T07:02:53Z</time>
      </trkpt>
      <trkpt lat="47.62452" lon="7.11926">
        <ele>317.40002059937</ele>
        <time>2025-10-12T07:02:55Z</time>
      </trkpt>
      <trkpt lat="47.62449" lon="7.11926">
        <ele>317.40002059937</ele>
        <time>2025-10-12T07:02:57Z</time>
      </trkpt>
      <trkpt lat="47.62446" lon="7.11926">
        <ele>317.40002059937</ele>
        <time>2025-10-12T07:02:59Z</time>
      </trkpt>
      <trkpt lat="47.62443" lon="7.11926">
        <ele>317.40372848511</ele>
        <time>2025-10-12T07:03:01Z</time>
      </trkpt>
      <trkpt lat="47.62441" lon="7.11925">
        <ele>317.42049636841</ele>
        <time>2025-10-12T07:03:02Z</time>
      </trkpt>
      <trkpt lat="47.62439" lon="7.11925">
        <ele>317.43953155518</ele>
        <time>2025-10-12T07:03:03Z</time>
      </trkpt>
      <trkpt lat="47.62436" lon="7.11925">
        <ele>317.47416418304</ele>
        <time>2025-10-12T07:03:05Z</time>
      </trkpt>
      <trkpt lat="47.62432" lon="7.11925">
        <ele>317.51071595366</ele>
        <time>2025-10-12T07:03:07Z</time>
      </trkpt>
      <trkpt lat="47.62431" lon="7.11924">
        <ele>317.52081608694</ele>
        <time>2025-10-12T07:03:08Z</time>
      </trkpt>
      <trkpt lat="47.62427" lon="7.11925">
        <ele>317.55368033647</ele>
        <time>2025-10-12T07:03:10Z</time>
      </trkpt>
      <trkpt lat="47.62424" lon="7.11924">
        <ele>317.5841609565</ele>
        <time>2025-10-12T07:03:12Z</time>
      </trkpt>
      <trkpt lat="47.62421" lon="7.11925">
        <ele>317.61601025733</ele>
        <time>2025-10-12T07:03:14Z</time>
      </trkpt>
      <trkpt lat="47.62418" lon="7.11925">
        <ele>317.67005738803</ele>
        <time>2025-10-12T07:03:16Z</time>
      </trkpt>
      <trkpt lat="47.62415" lon="7.11925">
        <ele>317.70083772751</ele>
        <time>2025-10-12T07:03:18Z</time>
      </trkpt>
      <trkpt lat="47.62412" lon="7.11926">
        <ele>317.79886342641</ele>
        <time>2025-10-12T07:03:20Z</time>
      </trkpt>
      <trkpt lat="47.6241" lon="7.11926">
        <ele>317.84247141039</ele>
        <time>2025-10-12T07:03:21Z</time>
      </trkpt>
      <trkpt lat="47.62407" lon="7.11927">
        <ele>317.94424460699</ele>
        <time>2025-10-12T07:03:23Z</time>
      </trkpt>
      <trkpt lat="47.62405" lon="7.11927">
        <ele>318.00686542733</ele>
        <time>2025-10-12T07:03:25Z</time>
      </trkpt>
      <trkpt lat="47.62402" lon="7.11927">
        <ele>318.06749346659</ele>
        <time>2025-10-12T07:03:27Z</time>
      </trkpt>
      <trkpt lat="47.62399" lon="7.11927">
        <ele>318.12700843839</ele>
        <time>2025-10-12T07:03:29Z</time>
      </trkpt>
      <trkpt lat="47.62397" lon="7.11927">
        <ele>318.18354047776</ele>
        <time>2025-10-12T07:03:31Z</time>
      </trkpt>
      <trkpt lat="47.62395" lon="7.11926">
        <ele>318.21747781181</ele>
        <time>2025-10-12T07:03:32Z</time>
      </trkpt>
      <trkpt lat="47.62392" lon="7.11925">
        <ele>318.29363828672</ele>
        <time>2025-10-12T07:03:34Z</time>
      </trkpt>
      <trkpt lat="47.62389" lon="7.11924">
        <ele>318.36072710095</ele>
        <time>2025-10-12T07:03:36Z</time>
      </trkpt>
      <trkpt lat="47.62386" lon="7.11924">
        <ele>318.39962766438</ele>
        <time>2025-10-12T07:03:38Z</time>
      </trkpt>
      <trkpt lat="47.62383" lon="7.11924">
        <ele>318.40001667002</ele>
        <time>2025-10-12T07:03:40Z</time>
      </trkpt>
      <trkpt lat="47.6238" lon="7.11925">
        <ele>318.40002056007</ele>
        <time>2025-10-12T07:03:42Z</time>
      </trkpt>
      <trkpt lat="47.62378" lon="7.11925">
        <ele>318.40002059897</ele>
        <time>2025-10-12T07:03:44Z</time>
      </trkpt>
      <trkpt lat="47.62375" lon="7.11926">
        <ele>318.40002059936</ele>
        <time>2025-10-12T07:03:46Z</time>
      </trkpt>
      <trkpt lat="47.62372" lon="7.11926">
        <ele>318.40002059937</ele>
        <time>2025-10-12T07:03:48Z</time>
      </trkpt>
      <trkpt lat="47.6237" lon="7.11926">
        <ele>318.40002059937</ele>
        <time>2025-10-12T07:03:50Z</time>
      </trkpt>
      <trkpt lat="47.62368" lon="7.11926">
        <ele>318.40002059937</ele>
        <time>2025-10-12T07:03:52Z</time>
      </trkpt>
      <trkpt lat="47.62365" lon="7.11925">
        <ele>318.40002059937</ele>
        <time>2025-10-12T07:03:54Z</time>
      </trkpt>
      <trkpt lat="47.62362" lon="7.11925">
        <ele>318.40002059937</ele>
        <time>2025-10-12T07:03:56Z</time>
      </trkpt>
      <trkpt lat="47.62359" lon="7.11925">
        <ele>318.40002059937</ele>
        <time>2025-10-12T07:03:58Z</time>
      </trkpt>
      <trkpt lat="47.62357" lon="7.11925">
        <ele>318.40002059937</ele>
        <time>2025-10-12T07:04:00Z</time>
      </trkpt>
      <trkpt lat="47.62354" lon="7.11925">
        <ele>318.40002059937</ele>
        <time>2025-10-12T07:04:02Z</time>
      </trkpt>
      <trkpt lat="47.6235" lon="7.11926">
        <ele>318.40002059937</ele>
        <time>2025-10-12T07:04:04Z</time>
      </trkpt>
      <trkpt lat="47.62348" lon="7.11927">
        <ele>318.40002059937</ele>
        <time>2025-10-12T07:04:06Z</time>
      </trkpt>
      <trkpt lat="47.62345" lon="7.11927">
        <ele>318.40002059937</ele>
        <time>2025-10-12T07:04:08Z</time>
      </trkpt>
      <trkpt lat="47.62342" lon="7.11927">
        <ele>318.40002059937</ele>
        <time>2025-10-12T07:04:10Z</time>
      </trkpt>
      <trkpt lat="47.62339" lon="7.11927">
        <ele>318.40002059937</ele>
        <time>2025-10-12T07:04:12Z</time>
      </trkpt>
      <trkpt lat="47.62337" lon="7.11926">
        <ele>318.40002059937</ele>
        <time>2025-10-12T07:04:14Z</time>
      </trkpt>
      <trkpt lat="47.62334" lon="7.11926">
        <ele>318.40002059937</ele>
        <time>2025-10-12T07:04:16Z</time>
      </trkpt>
      <trkpt lat="47.62331" lon="7.11926">
        <ele>318.40705184937</ele>
        <time>2025-10-12T07:04:18Z</time>
      </trkpt>
      <trkpt lat="47.62328" lon="7.11925">
        <ele>318.43912258911</ele>
        <time>2025-10-12T07:04:20Z</time>
      </trkpt>
      <trkpt lat="47.62325" lon="7.11925">
        <ele>318.46726891907</ele>
        <time>2025-10-12T07:04:22Z</time>
      </trkpt>
      <trkpt lat="47.62322" lon="7.11925">
        <ele>318.50341250395</ele>
        <time>2025-10-12T07:04:24Z</time>
      </trkpt>
      <trkpt lat="47.62319" lon="7.11925">
        <ele>318.53376112241</ele>
        <time>2025-10-12T07:04:26Z</time>
      </trkpt>
      <trkpt lat="47.62317" lon="7.11924">
        <ele>318.54190722491</ele>
        <time>2025-10-12T07:04:27Z</time>
      </trkpt>
      <trkpt lat="47.62314" lon="7.11924">
        <ele>318.56989008818</ele>
        <time>2025-10-12T07:04:29Z</time>
      </trkpt>
      <trkpt lat="47.62312" lon="7.11924">
        <ele>318.59622124738</ele>
        <time>2025-10-12T07:04:31Z</time>
      </trkpt>
      <trkpt lat="47.62309" lon="7.11924">
        <ele>318.61961901942</ele>
        <time>2025-10-12T07:04:33Z</time>
      </trkpt>
      <trkpt lat="47.62306" lon="7.11924">
        <ele>318.64230630525</ele>
        <time>2025-10-12T07:04:35Z</time>
      </trkpt>
      <trkpt lat="47.62304" lon="7.11923">
        <ele>318.67802176453</ele>
        <time>2025-10-12T07:04:37Z</time>
      </trkpt>
      <trkpt lat="47.62301" lon="7.11923">
        <ele>318.72862214422</ele>
        <time>2025-10-12T07:04:39Z</time>
      </trkpt>
      <trkpt lat="47.623" lon="7.11923">
        <ele>318.7638164228</ele>
        <time>2025-10-12T07:04:40Z</time>
      </trkpt>
      <trkpt lat="47.62297" lon="7.11923">
        <ele>318.87878154344</ele>
        <time>2025-10-12T07:04:42Z</time>
      </trkpt>
      <trkpt lat="47.62294" lon="7.11923">
        <ele>318.98827561603</ele>
        <time>2025-10-12T07:04:44Z</time>
      </trkpt>
      <trkpt lat="47.62291" lon="7.11923">
        <ele>319.08910444348</ele>
        <time>2025-10-12T07:04:46Z</time>
      </trkpt>
      <trkpt lat="47.62289" lon="7.11924">
        <ele>319.16595657167</ele>
        <time>2025-10-12T07:04:47Z</time>
      </trkpt>
      <trkpt lat="47.62286" lon="7.11924">
        <ele>319.35191091612</ele>
        <time>2025-10-12T07:04:49Z</time>
      </trkpt>
      <trkpt lat="47.62282" lon="7.11925">
        <ele>319.46272187558</ele>
        <time>2025-10-12T07:04:51Z</time>
      </trkpt>
      <trkpt lat="47.62279" lon="7.11924">
        <ele>319.54098971418</ele>
        <time>2025-10-12T07:04:53Z</time>
      </trkpt>
      <trkpt lat="47.62277" lon="7.11924">
        <ele>319.640174187</ele>
        <time>2025-10-12T07:04:55Z</time>
      </trkpt>
      <trkpt lat="47.62274" lon="7.11923">
        <ele>319.69662776268</ele>
        <time>2025-10-12T07:04:57Z</time>
      </trkpt>
      <trkpt lat="47.62271" lon="7.11923">
        <ele>319.80379538682</ele>
        <time>2025-10-12T07:04:59Z</time>
      </trkpt>
      <trkpt lat="47.62268" lon="7.11923">
        <ele>319.92178631355</ele>
        <time>2025-10-12T07:05:01Z</time>
      </trkpt>
      <trkpt lat="47.62265" lon="7.11923">
        <ele>320.04067374235</ele>
        <time>2025-10-12T07:05:03Z</time>
      </trkpt>
      <trkpt lat="47.62262" lon="7.11923">
        <ele>320.17109754095</ele>
        <time>2025-10-12T07:05:05Z</time>
      </trkpt>
      <trkpt lat="47.62259" lon="7.11923">
        <ele>320.26368717933</ele>
        <time>2025-10-12T07:05:07Z</time>
      </trkpt>
      <trkpt lat="47.62256" lon="7.11923">
        <ele>320.35249820755</ele>
        <time>2025-10-12T07:05:09Z</time>
      </trkpt>
      <trkpt lat="47.62253" lon="7.11922">
        <ele>320.45243355904</ele>
        <time>2025-10-12T07:05:11Z</time>
      </trkpt>
      <trkpt lat="47.6225" lon="7.11922">
        <ele>320.52730772945</ele>
        <time>2025-10-12T07:05:13Z</time>
      </trkpt>
      <trkpt lat="47.62247" lon="7.11922">
        <ele>320.65623945455</ele>
        <time>2025-10-12T07:05:15Z</time>
      </trkpt>
      <trkpt lat="47.62245" lon="7.11922">
        <ele>320.68972634719</ele>
        <time>2025-10-12T07:05:16Z</time>
      </trkpt>
      <trkpt lat="47.62242" lon="7.11922">
        <ele>320.79303118223</ele>
        <time>2025-10-12T07:05:18Z</time>
      </trkpt>
      <trkpt lat="47.62239" lon="7.11922">
        <ele>320.90779744592</ele>
        <time>2025-10-12T07:05:20Z</time>
      </trkpt>
      <trkpt lat="47.62236" lon="7.11921">
        <ele>320.99550364127</ele>
        <time>2025-10-12T07:05:22Z</time>
      </trkpt>
      <trkpt lat="47.62233" lon="7.11922">
        <ele>321.12508553721</ele>
        <time>2025-10-12T07:05:24Z</time>
      </trkpt>
      <trkpt lat="47.6223" lon="7.11922">
        <ele>321.29146466915</ele>
        <time>2025-10-12T07:05:26Z</time>
      </trkpt>
      <trkpt lat="47.62228" lon="7.11922">
        <ele>321.3389194761</ele>
        <time>2025-10-12T07:05:28Z</time>
      </trkpt>
      <trkpt lat="47.62226" lon="7.11921">
        <ele>321.41063486889</ele>
        <time>2025-10-12T07:05:30Z</time>
      </trkpt>
      <trkpt lat="47.62224" lon="7.11921">
        <ele>321.44153421276</ele>
        <time>2025-10-12T07:05:32Z</time>
      </trkpt>
      <trkpt lat="47.62222" lon="7.1192">
        <ele>321.49907373599</ele>
        <time>2025-10-12T07:05:34Z</time>
      </trkpt>
      <trkpt lat="47.62219" lon="7.11919">
        <ele>321.50157935541</ele>
        <time>2025-10-12T07:05:35Z</time>
      </trkpt>
      <trkpt lat="47.62217" lon="7.11919">
        <ele>321.47900582067</ele>
        <time>2025-10-12T07:05:36Z</time>
      </trkpt>
      <trkpt lat="47.62215" lon="7.11919">
        <ele>321.49259624552</ele>
        <time>2025-10-12T07:05:37Z</time>
      </trkpt>
      <trkpt lat="47.62213" lon="7.11919">
        <ele>321.49788290031</ele>
        <time>2025-10-12T07:05:38Z</time>
      </trkpt>
      <trkpt lat="47.62211" lon="7.11919">
        <ele>321.49398956872</ele>
        <time>2025-10-12T07:05:39Z</time>
      </trkpt>
      <trkpt lat="47.62209" lon="7.11918">
        <ele>321.48316322384</ele>
        <time>2025-10-12T07:05:40Z</time>
      </trkpt>
      <trkpt lat="47.62205" lon="7.11918">
        <ele>321.45192471848</ele>
        <time>2025-10-12T07:05:42Z</time>
      </trkpt>
      <trkpt lat="47.62202" lon="7.11917">
        <ele>321.43325361382</ele>
        <time>2025-10-12T07:05:43Z</time>
      </trkpt>
      <trkpt lat="47.622" lon="7.11917">
        <ele>321.41809310285</ele>
        <time>2025-10-12T07:05:45Z</time>
      </trkpt>
      <trkpt lat="47.62196" lon="7.11916">
        <ele>321.41298941034</ele>
        <time>2025-10-12T07:05:47Z</time>
      </trkpt>
      <trkpt lat="47.62194" lon="7.11915">
        <ele>321.43630893554</ele>
        <time>2025-10-12T07:05:48Z</time>
      </trkpt>
      <trkpt lat="47.62192" lon="7.11915">
        <ele>321.45344496521</ele>
        <time>2025-10-12T07:05:49Z</time>
      </trkpt>
      <trkpt lat="47.62189" lon="7.11915">
        <ele>321.58117831714</ele>
        <time>2025-10-12T07:05:51Z</time>
      </trkpt>
      <trkpt lat="47.62186" lon="7.11916">
        <ele>321.67120320926</ele>
        <time>2025-10-12T07:05:53Z</time>
      </trkpt>
      <trkpt lat="47.62184" lon="7.11917">
        <ele>321.74899127556</ele>
        <time>2025-10-12T07:05:55Z</time>
      </trkpt>
      <trkpt lat="47.62181" lon="7.11918">
        <ele>321.86281847263</ele>
        <time>2025-10-12T07:05:57Z</time>
      </trkpt>
      <trkpt lat="47.62178" lon="7.11921">
        <ele>322.01842177146</ele>
        <time>2025-10-12T07:05:59Z</time>
      </trkpt>
      <trkpt lat="47.62177" lon="7.11924">
        <ele>322.19418251636</ele>
        <time>2025-10-12T07:06:01Z</time>
      </trkpt>
      <trkpt lat="47.62175" lon="7.11926">
        <ele>322.27932387603</ele>
        <time>2025-10-12T07:06:02Z</time>
      </trkpt>
      <trkpt lat="47.62174" lon="7.1193">
        <ele>322.50599350274</ele>
        <time>2025-10-12T07:06:04Z</time>
      </trkpt>
      <trkpt lat="47.62172" lon="7.11934">
        <ele>322.72653381961</ele>
        <time>2025-10-12T07:06:06Z</time>
      </trkpt>
      <trkpt lat="47.62171" lon="7.11938">
        <ele>322.88680501868</ele>
        <time>2025-10-12T07:06:08Z</time>
      </trkpt>
      <trkpt lat="47.62171" lon="7.11941">
        <ele>323.00243744462</ele>
        <time>2025-10-12T07:06:09Z</time>
      </trkpt>
      <trkpt lat="47.6217" lon="7.11945">
        <ele>323.21779983374</ele>
        <time>2025-10-12T07:06:11Z</time>
      </trkpt>
      <trkpt lat="47.6217" lon="7.11948">
        <ele>323.26284405503</ele>
        <time>2025-10-12T07:06:12Z</time>
      </trkpt>
      <trkpt lat="47.62169" lon="7.11951">
        <ele>323.28654708556</ele>
        <time>2025-10-12T07:06:13Z</time>
      </trkpt>
      <trkpt lat="47.62168" lon="7.11955">
        <ele>323.31737005612</ele>
        <time>2025-10-12T07:06:15Z</time>
      </trkpt>
      <trkpt lat="47.62168" lon="7.1196">
        <ele>323.34440802216</ele>
        <time>2025-10-12T07:06:17Z</time>
      </trkpt>
      <trkpt lat="47.62168" lon="7.11965">
        <ele>323.35893316256</ele>
        <time>2025-10-12T07:06:19Z</time>
      </trkpt>
      <trkpt lat="47.62167" lon="7.11969">
        <ele>323.36451939297</ele>
        <time>2025-10-12T07:06:21Z</time>
      </trkpt>
      <trkpt lat="47.62166" lon="7.11972">
        <ele>323.3935819081</ele>
        <time>2025-10-12T07:06:23Z</time>
      </trkpt>
      <trkpt lat="47.62166" lon="7.11977">
        <ele>323.32393906157</ele>
        <time>2025-10-12T07:06:25Z</time>
      </trkpt>
      <trkpt lat="47.62165" lon="7.11981">
        <ele>323.18424086309</ele>
        <time>2025-10-12T07:06:27Z</time>
      </trkpt>
      <trkpt lat="47.62166" lon="7.11986">
        <ele>323.02798334644</ele>
        <time>2025-10-12T07:06:29Z</time>
      </trkpt>
      <trkpt lat="47.62165" lon="7.11989">
        <ele>322.87510058084</ele>
        <time>2025-10-12T07:06:31Z</time>
      </trkpt>
      <trkpt lat="47.62165" lon="7.11992">
        <ele>322.75656202456</ele>
        <time>2025-10-12T07:06:34Z</time>
      </trkpt>
      <trkpt lat="47.62165" lon="7.11997">
        <ele>322.64807026655</ele>
        <time>2025-10-12T07:06:36Z</time>
      </trkpt>
      <trkpt lat="47.62163" lon="7.12001">
        <ele>322.54622424057</ele>
        <time>2025-10-12T07:06:38Z</time>
      </trkpt>
      <trkpt lat="47.62163" lon="7.12004">
        <ele>322.51761032384</ele>
        <time>2025-10-12T07:06:39Z</time>
      </trkpt>
      <trkpt lat="47.62162" lon="7.12006">
        <ele>322.51999490384</ele>
        <time>2025-10-12T07:06:40Z</time>
      </trkpt>
      <trkpt lat="47.62162" lon="7.1201">
        <ele>322.51786768128</ele>
        <time>2025-10-12T07:06:42Z</time>
      </trkpt>
      <trkpt lat="47.62161" lon="7.12015">
        <ele>322.49654391882</ele>
        <time>2025-10-12T07:06:44Z</time>
      </trkpt>
      <trkpt lat="47.62161" lon="7.12019">
        <ele>322.47685741459</ele>
        <time>2025-10-12T07:06:46Z</time>
      </trkpt>
      <trkpt lat="47.62161" lon="7.12024">
        <ele>322.44452004662</ele>
        <time>2025-10-12T07:06:48Z</time>
      </trkpt>
      <trkpt lat="47.6216" lon="7.12027">
        <ele>322.4226662164</ele>
        <time>2025-10-12T07:06:50Z</time>
      </trkpt>
      <trkpt lat="47.6216" lon="7.1203">
        <ele>322.37408860827</ele>
        <time>2025-10-12T07:06:52Z</time>
      </trkpt>
      <trkpt lat="47.62159" lon="7.12034">
        <ele>322.25478569352</ele>
        <time>2025-10-12T07:06:54Z</time>
      </trkpt>
      <trkpt lat="47.62159" lon="7.12037">
        <ele>322.11947706378</ele>
        <time>2025-10-12T07:06:56Z</time>
      </trkpt>
      <trkpt lat="47.62158" lon="7.12042">
        <ele>321.99392353803</ele>
        <time>2025-10-12T07:06:58Z</time>
      </trkpt>
      <trkpt lat="47.62158" lon="7.12046">
        <ele>321.84530838363</ele>
        <time>2025-10-12T07:07:00Z</time>
      </trkpt>
      <trkpt lat="47.62157" lon="7.1205">
        <ele>321.69378194889</ele>
        <time>2025-10-12T07:07:02Z</time>
      </trkpt>
      <trkpt lat="47.62157" lon="7.12053">
        <ele>321.62039404877</ele>
        <time>2025-10-12T07:07:03Z</time>
      </trkpt>
      <trkpt lat="47.62157" lon="7.12057">
        <ele>321.43404897986</ele>
        <time>2025-10-12T07:07:05Z</time>
      </trkpt>
      <trkpt lat="47.62156" lon="7.12061">
        <ele>321.33461869567</ele>
        <time>2025-10-12T07:07:07Z</time>
      </trkpt>
      <trkpt lat="47.62154" lon="7.12064">
        <ele>321.26653638013</ele>
        <time>2025-10-12T07:07:09Z</time>
      </trkpt>
      <trkpt lat="47.62153" lon="7.12069">
        <ele>321.19880324985</ele>
        <time>2025-10-12T07:07:11Z</time>
      </trkpt>
      <trkpt lat="47.62152" lon="7.12072">
        <ele>321.14383697812</ele>
        <time>2025-10-12T07:07:13Z</time>
      </trkpt>
      <trkpt lat="47.6215" lon="7.12076">
        <ele>321.11804073337</ele>
        <time>2025-10-12T07:07:15Z</time>
      </trkpt>
      <trkpt lat="47.62149" lon="7.1208">
        <ele>321.09018786125</ele>
        <time>2025-10-12T07:07:17Z</time>
      </trkpt>
      <trkpt lat="47.62147" lon="7.12085">
        <ele>321.09037075831</ele>
        <time>2025-10-12T07:07:19Z</time>
      </trkpt>
      <trkpt lat="47.62145" lon="7.12087">
        <ele>321.12318159182</ele>
        <time>2025-10-12T07:07:20Z</time>
      </trkpt>
      <trkpt lat="47.62143" lon="7.12091">
        <ele>321.19988007794</ele>
        <time>2025-10-12T07:07:22Z</time>
      </trkpt>
      <trkpt lat="47.62141" lon="7.12094">
        <ele>321.25135664488</ele>
        <time>2025-10-12T07:07:23Z</time>
      </trkpt>
      <trkpt lat="47.62139" lon="7.12097">
        <ele>321.35465731187</ele>
        <time>2025-10-12T07:07:25Z</time>
      </trkpt>
      <trkpt lat="47.62137" lon="7.121">
        <ele>321.39956696649</ele>
        <time>2025-10-12T07:07:27Z</time>
      </trkpt>
      <trkpt lat="47.62135" lon="7.12102">
        <ele>321.40001606304</ele>
        <time>2025-10-12T07:07:29Z</time>
      </trkpt>
      <trkpt lat="47.62134" lon="7.12105">
        <ele>321.400020554</ele>
        <time>2025-10-12T07:07:31Z</time>
      </trkpt>
      <trkpt lat="47.62132" lon="7.12108">
        <ele>321.40002059891</ele>
        <time>2025-10-12T07:07:33Z</time>
      </trkpt>
      <trkpt lat="47.6213" lon="7.1211">
        <ele>321.40002059936</ele>
        <time>2025-10-12T07:07:35Z</time>
      </trkpt>
      <trkpt lat="47.62127" lon="7.12112">
        <ele>321.40002059937</ele>
        <time>2025-10-12T07:07:37Z</time>
      </trkpt>
      <trkpt lat="47.62125" lon="7.12114">
        <ele>321.36363937378</ele>
        <time>2025-10-12T07:07:39Z</time>
      </trkpt>
      <trkpt lat="47.62123" lon="7.12117">
        <ele>321.33102519531</ele>
        <time>2025-10-12T07:07:41Z</time>
      </trkpt>
      <trkpt lat="47.6212" lon="7.12119">
        <ele>321.31192616534</ele>
        <time>2025-10-12T07:07:43Z</time>
      </trkpt>
      <trkpt lat="47.62119" lon="7.12121">
        <ele>321.30571005733</ele>
        <time>2025-10-12T07:07:44Z</time>
      </trkpt>
      <trkpt lat="47.62117" lon="7.12123">
        <ele>321.30247471074</ele>
        <time>2025-10-12T07:07:46Z</time>
      </trkpt>
      <trkpt lat="47.62114" lon="7.12126">
        <ele>321.32796634409</ele>
        <time>2025-10-12T07:07:48Z</time>
      </trkpt>
      <trkpt lat="47.62112" lon="7.12128">
        <ele>321.36767316472</ele>
        <time>2025-10-12T07:07:50Z</time>
      </trkpt>
      <trkpt lat="47.6211" lon="7.12131">
        <ele>321.41193040139</ele>
        <time>2025-10-12T07:07:52Z</time>
      </trkpt>
      <trkpt lat="47.62108" lon="7.12133">
        <ele>321.47315758069</ele>
        <time>2025-10-12T07:07:54Z</time>
      </trkpt>
      <trkpt lat="47.62105" lon="7.12135">
        <ele>321.57266603168</ele>
        <time>2025-10-12T07:07:56Z</time>
      </trkpt>
      <trkpt lat="47.62103" lon="7.12137">
        <ele>321.64954368455</ele>
        <time>2025-10-12T07:07:58Z</time>
      </trkpt>
      <trkpt lat="47.62099" lon="7.12138">
        <ele>321.75283962172</ele>
        <time>2025-10-12T07:08:00Z</time>
      </trkpt>
      <trkpt lat="47.62097" lon="7.12141">
        <ele>321.86337056693</ele>
        <time>2025-10-12T07:08:02Z</time>
      </trkpt>
      <trkpt lat="47.62095" lon="7.12142">
        <ele>321.94691178947</ele>
        <time>2025-10-12T07:08:04Z</time>
      </trkpt>
      <trkpt lat="47.62093" lon="7.12145">
        <ele>322.02667847611</ele>
        <time>2025-10-12T07:08:06Z</time>
      </trkpt>
      <trkpt lat="47.6209" lon="7.12147">
        <ele>322.11122217569</ele>
        <time>2025-10-12T07:08:08Z</time>
      </trkpt>
      <trkpt lat="47.62087" lon="7.12149">
        <ele>322.21545720009</ele>
        <time>2025-10-12T07:08:10Z</time>
      </trkpt>
      <trkpt lat="47.62084" lon="7.12151">
        <ele>322.32317404985</ele>
        <time>2025-10-12T07:08:12Z</time>
      </trkpt>
      <trkpt lat="47.62083" lon="7.12153">
        <ele>322.37267041707</ele>
        <time>2025-10-12T07:08:13Z</time>
      </trkpt>
      <trkpt lat="47.6208" lon="7.12155">
        <ele>322.46034219032</ele>
        <time>2025-10-12T07:08:15Z</time>
      </trkpt>
      <trkpt lat="47.62078" lon="7.12158">
        <ele>322.54726382992</ele>
        <time>2025-10-12T07:08:17Z</time>
      </trkpt>
      <trkpt lat="47.62076" lon="7.12161">
        <ele>322.60413585394</ele>
        <time>2025-10-12T07:08:19Z</time>
      </trkpt>
      <trkpt lat="47.62073" lon="7.12162">
        <ele>322.70614683492</ele>
        <time>2025-10-12T07:08:21Z</time>
      </trkpt>
      <trkpt lat="47.62072" lon="7.12162">
        <ele>322.75280729519</ele>
        <time>2025-10-12T07:08:22Z</time>
      </trkpt>
      <trkpt lat="47.62069" lon="7.12163">
        <ele>322.87755359328</ele>
        <time>2025-10-12T07:08:24Z</time>
      </trkpt>
      <trkpt lat="47.62066" lon="7.12163">
        <ele>322.97337136876</ele>
        <time>2025-10-12T07:08:26Z</time>
      </trkpt>
      <trkpt lat="47.62064" lon="7.12162">
        <ele>323.05193696839</ele>
        <time>2025-10-12T07:08:28Z</time>
      </trkpt>
      <trkpt lat="47.62062" lon="7.12161">
        <ele>323.11943435534</ele>
        <time>2025-10-12T07:08:30Z</time>
      </trkpt>
      <trkpt lat="47.62059" lon="7.1216">
        <ele>323.23349922179</ele>
        <time>2025-10-12T07:08:32Z</time>
      </trkpt>
      <trkpt lat="47.62056" lon="7.12158">
        <ele>323.32821317368</ele>
        <time>2025-10-12T07:08:34Z</time>
      </trkpt>
      <trkpt lat="47.62053" lon="7.12158">
        <ele>323.41326340157</ele>
        <time>2025-10-12T07:08:36Z</time>
      </trkpt>
      <trkpt lat="47.62051" lon="7.12158">
        <ele>323.47805691572</ele>
        <time>2025-10-12T07:08:37Z</time>
      </trkpt>
      <trkpt lat="47.62047" lon="7.12158">
        <ele>323.55089368901</ele>
        <time>2025-10-12T07:08:38Z</time>
      </trkpt>
      <trkpt lat="47.62044" lon="7.12159">
        <ele>323.74607156659</ele>
        <time>2025-10-12T07:08:40Z</time>
      </trkpt>
      <trkpt lat="47.62042" lon="7.12159">
        <ele>323.86063046206</ele>
        <time>2025-10-12T07:08:42Z</time>
      </trkpt>
      <trkpt lat="47.6204" lon="7.12159">
        <ele>323.89407658075</ele>
        <time>2025-10-12T07:08:43Z</time>
      </trkpt>
      <trkpt lat="47.62037" lon="7.1216">
        <ele>324.00916526074</ele>
        <time>2025-10-12T07:08:45Z</time>
      </trkpt>
      <trkpt lat="47.62035" lon="7.12161">
        <ele>324.07636170125</ele>
        <time>2025-10-12T07:08:46Z</time>
      </trkpt>
      <trkpt lat="47.62032" lon="7.12161">
        <ele>324.19753596351</ele>
        <time>2025-10-12T07:08:48Z</time>
      </trkpt>
      <trkpt lat="47.62029" lon="7.12162">
        <ele>324.29235122176</ele>
        <time>2025-10-12T07:08:50Z</time>
      </trkpt>
      <trkpt lat="47.62027" lon="7.12162">
        <ele>324.34080395457</ele>
        <time>2025-10-12T07:08:51Z</time>
      </trkpt>
      <trkpt lat="47.62024" lon="7.12163">
        <ele>324.52174746368</ele>
        <time>2025-10-12T07:08:53Z</time>
      </trkpt>
      <trkpt lat="47.62022" lon="7.12164">
        <ele>324.75697242611</ele>
        <time>2025-10-12T07:08:55Z</time>
      </trkpt>
      <trkpt lat="47.6202" lon="7.12165">
        <ele>324.87231631392</ele>
        <time>2025-10-12T07:08:57Z</time>
      </trkpt>
      <trkpt lat="47.62017" lon="7.12168">
        <ele>325.06364583923</ele>
        <time>2025-10-12T07:08:59Z</time>
      </trkpt>
      <trkpt lat="47.62015" lon="7.12168">
        <ele>325.2191937923</ele>
        <time>2025-10-12T07:09:00Z</time>
      </trkpt>
      <trkpt lat="47.62013" lon="7.12169">
        <ele>325.37677434444</ele>
        <time>2025-10-12T07:09:01Z</time>
      </trkpt>
      <trkpt lat="47.62011" lon="7.12172">
        <ele>325.5353821311</ele>
        <time>2025-10-12T07:09:02Z</time>
      </trkpt>
      <trkpt lat="47.62009" lon="7.12173">
        <ele>325.74292686973</ele>
        <time>2025-10-12T07:09:03Z</time>
      </trkpt>
      <trkpt lat="47.62006" lon="7.12175">
        <ele>326.08194056783</ele>
        <time>2025-10-12T07:09:05Z</time>
      </trkpt>
      <trkpt lat="47.62003" lon="7.12176">
        <ele>326.3583437053</ele>
        <time>2025-10-12T07:09:07Z</time>
      </trkpt>
      <trkpt lat="47.62" lon="7.12178">
        <ele>326.62227472886</ele>
        <time>2025-10-12T07:09:09Z</time>
      </trkpt>
      <trkpt lat="47.61998" lon="7.12179">
        <ele>326.86681101175</ele>
        <time>2025-10-12T07:09:11Z</time>
      </trkpt>
      <trkpt lat="47.61995" lon="7.12181">
        <ele>326.98745003913</ele>
        <time>2025-10-12T07:09:13Z</time>
      </trkpt>
      <trkpt lat="47.61993" lon="7.12182">
        <ele>327.14168224728</ele>
        <time>2025-10-12T07:09:15Z</time>
      </trkpt>
      <trkpt lat="47.61991" lon="7.12184">
        <ele>327.26986397366</ele>
        <time>2025-10-12T07:09:17Z</time>
      </trkpt>
      <trkpt lat="47.61988" lon="7.12186">
        <ele>327.43363358389</ele>
        <time>2025-10-12T07:09:19Z</time>
      </trkpt>
      <trkpt lat="47.61986" lon="7.12188">
        <ele>327.57275144357</ele>
        <time>2025-10-12T07:09:21Z</time>
      </trkpt>
      <trkpt lat="47.61983" lon="7.1219">
        <ele>327.7525770704</ele>
        <time>2025-10-12T07:09:23Z</time>
      </trkpt>
      <trkpt lat="47.6198" lon="7.12193">
        <ele>327.94456789259</ele>
        <time>2025-10-12T07:09:25Z</time>
      </trkpt>
      <trkpt lat="47.61979" lon="7.12195">
        <ele>328.10559180472</ele>
        <time>2025-10-12T07:09:27Z</time>
      </trkpt>
      <trkpt lat="47.61977" lon="7.12198">
        <ele>328.2867653373</ele>
        <time>2025-10-12T07:09:29Z</time>
      </trkpt>
      <trkpt lat="47.61976" lon="7.12202">
        <ele>328.44143260241</ele>
        <time>2025-10-12T07:09:31Z</time>
      </trkpt>
      <trkpt lat="47.61975" lon="7.12206">
        <ele>328.63489394791</ele>
        <time>2025-10-12T07:09:33Z</time>
      </trkpt>
      <trkpt lat="47.61975" lon="7.1221">
        <ele>328.79256800228</ele>
        <time>2025-10-12T07:09:35Z</time>
      </trkpt>
      <trkpt lat="47.61974" lon="7.12215">
        <ele>328.96352096353</ele>
        <time>2025-10-12T07:09:37Z</time>
      </trkpt>
      <trkpt lat="47.61974" lon="7.12219">
        <ele>329.12934700926</ele>
        <time>2025-10-12T07:09:39Z</time>
      </trkpt>
      <trkpt lat="47.61974" lon="7.12223">
        <ele>329.27117708368</ele>
        <time>2025-10-12T07:09:41Z</time>
      </trkpt>
      <trkpt lat="47.61975" lon="7.12228">
        <ele>329.4207597521</ele>
        <time>2025-10-12T07:09:43Z</time>
      </trkpt>
      <trkpt lat="47.61975" lon="7.12232">
        <ele>329.57564943865</ele>
        <time>2025-10-12T07:09:45Z</time>
      </trkpt>
      <trkpt lat="47.61974" lon="7.12235">
        <ele>329.7288151568</ele>
        <time>2025-10-12T07:09:47Z</time>
      </trkpt>
      <trkpt lat="47.61974" lon="7.12239">
        <ele>329.87152387697</ele>
        <time>2025-10-12T07:09:49Z</time>
      </trkpt>
      <trkpt lat="47.61974" lon="7.12242">
        <ele>329.98554434796</ele>
        <time>2025-10-12T07:09:51Z</time>
      </trkpt>
      <trkpt lat="47.61974" lon="7.12245">
        <ele>330.04230405333</ele>
        <time>2025-10-12T07:09:52Z</time>
      </trkpt>
      <trkpt lat="47.61973" lon="7.12249">
        <ele>330.22818232551</ele>
        <time>2025-10-12T07:09:54Z</time>
      </trkpt>
      <trkpt lat="47.61974" lon="7.12252">
        <ele>330.36574423323</ele>
        <time>2025-10-12T07:09:56Z</time>
      </trkpt>
      <trkpt lat="47.61975" lon="7.12256">
        <ele>330.59801676393</ele>
        <time>2025-10-12T07:09:58Z</time>
      </trkpt>
      <trkpt lat="47.61975" lon="7.12259">
        <ele>330.81152418162</ele>
        <time>2025-10-12T07:10:00Z</time>
      </trkpt>
      <trkpt lat="47.61975" lon="7.12264">
        <ele>331.10370655804</ele>
        <time>2025-10-12T07:10:02Z</time>
      </trkpt>
      <trkpt lat="47.61974" lon="7.12268">
        <ele>331.46415371139</ele>
        <time>2025-10-12T07:10:04Z</time>
      </trkpt>
      <trkpt lat="47.61973" lon="7.12272">
        <ele>331.79176971857</ele>
        <time>2025-10-12T07:10:06Z</time>
      </trkpt>
      <trkpt lat="47.61972" lon="7.12277">
        <ele>332.12288614964</ele>
        <time>2025-10-12T07:10:08Z</time>
      </trkpt>
      <trkpt lat="47.61971" lon="7.12281">
        <ele>332.44717387645</ele>
        <time>2025-10-12T07:10:10Z</time>
      </trkpt>
      <trkpt lat="47.61971" lon="7.12284">
        <ele>332.55442464778</ele>
        <time>2025-10-12T07:10:11Z</time>
      </trkpt>
      <trkpt lat="47.6197" lon="7.12289">
        <ele>332.77787659053</ele>
        <time>2025-10-12T07:10:13Z</time>
      </trkpt>
      <trkpt lat="47.61971" lon="7.12293">
        <ele>332.92015932773</ele>
        <time>2025-10-12T07:10:15Z</time>
      </trkpt>
      <trkpt lat="47.61972" lon="7.12297">
        <ele>333.04701580989</ele>
        <time>2025-10-12T07:10:17Z</time>
      </trkpt>
      <trkpt lat="47.61972" lon="7.12302">
        <ele>333.17387183809</ele>
        <time>2025-10-12T07:10:19Z</time>
      </trkpt>
      <trkpt lat="47.61973" lon="7.12305">
        <ele>333.26136263242</ele>
        <time>2025-10-12T07:10:20Z</time>
      </trkpt>
      <trkpt lat="47.61973" lon="7.12309">
        <ele>333.41019163688</ele>
        <time>2025-10-12T07:10:22Z</time>
      </trkpt>
      <trkpt lat="47.61974" lon="7.12313">
        <ele>333.53869561296</ele>
        <time>2025-10-12T07:10:24Z</time>
      </trkpt>
      <trkpt lat="47.61975" lon="7.12317">
        <ele>333.65573535243</ele>
        <time>2025-10-12T07:10:26Z</time>
      </trkpt>
      <trkpt lat="47.61975" lon="7.12322">
        <ele>333.81251610139</ele>
        <time>2025-10-12T07:10:28Z</time>
      </trkpt>
      <trkpt lat="47.61974" lon="7.12325">
        <ele>333.96380833515</ele>
        <time>2025-10-12T07:10:30Z</time>
      </trkpt>
      <trkpt lat="47.61975" lon="7.12329">
        <ele>334.0932570485</ele>
        <time>2025-10-12T07:10:32Z</time>
      </trkpt>
      <trkpt lat="47.61975" lon="7.12333">
        <ele>334.22130080321</ele>
        <time>2025-10-12T07:10:34Z</time>
      </trkpt>
      <trkpt lat="47.61975" lon="7.12336">
        <ele>334.32665198051</ele>
        <time>2025-10-12T07:10:36Z</time>
      </trkpt>
      <trkpt lat="47.61975" lon="7.1234">
        <ele>334.46129924228</ele>
        <time>2025-10-12T07:10:38Z</time>
      </trkpt>
      <trkpt lat="47.61976" lon="7.12343">
        <ele>334.5402091326</ele>
        <time>2025-10-12T07:10:39Z</time>
      </trkpt>
      <trkpt lat="47.61977" lon="7.12348">
        <ele>334.68922582942</ele>
        <time>2025-10-12T07:10:41Z</time>
      </trkpt>
      <trkpt lat="47.61977" lon="7.12351">
        <ele>334.76613899835</ele>
        <time>2025-10-12T07:10:42Z</time>
      </trkpt>
      <trkpt lat="47.61977" lon="7.12356">
        <ele>334.9360929772</ele>
        <time>2025-10-12T07:10:44Z</time>
      </trkpt>
      <trkpt lat="47.61977" lon="7.12361">
        <ele>335.13465653066</ele>
        <time>2025-10-12T07:10:46Z</time>
      </trkpt>
      <trkpt lat="47.61977" lon="7.12364">
        <ele>335.26618745428</ele>
        <time>2025-10-12T07:10:48Z</time>
      </trkpt>
      <trkpt lat="47.61978" lon="7.12368">
        <ele>335.37417176987</ele>
        <time>2025-10-12T07:10:50Z</time>
      </trkpt>
      <trkpt lat="47.61978" lon="7.12372">
        <ele>335.43623397386</ele>
        <time>2025-10-12T07:10:52Z</time>
      </trkpt>
      <trkpt lat="47.61979" lon="7.12376">
        <ele>335.51935642696</ele>
        <time>2025-10-12T07:10:54Z</time>
      </trkpt>
      <trkpt lat="47.6198" lon="7.12381">
        <ele>335.59163174329</ele>
        <time>2025-10-12T07:10:56Z</time>
      </trkpt>
      <trkpt lat="47.61981" lon="7.12385">
        <ele>335.6584097943</ele>
        <time>2025-10-12T07:10:58Z</time>
      </trkpt>
      <trkpt lat="47.61981" lon="7.12389">
        <ele>335.73091168126</ele>
        <time>2025-10-12T07:11:00Z</time>
      </trkpt>
      <trkpt lat="47.61982" lon="7.12394">
        <ele>335.83288670013</ele>
        <time>2025-10-12T07:11:02Z</time>
      </trkpt>
      <trkpt lat="47.61982" lon="7.12399">
        <ele>335.96116108899</ele>
        <time>2025-10-12T07:11:04Z</time>
      </trkpt>
      <trkpt lat="47.61982" lon="7.12403">
        <ele>336.08251341295</ele>
        <time>2025-10-12T07:11:06Z</time>
      </trkpt>
      <trkpt lat="47.61983" lon="7.12408">
        <ele>336.25151563248</ele>
        <time>2025-10-12T07:11:08Z</time>
      </trkpt>
      <trkpt lat="47.61983" lon="7.12413">
        <ele>336.38421761757</ele>
        <time>2025-10-12T07:11:10Z</time>
      </trkpt>
      <trkpt lat="47.61983" lon="7.12416">
        <ele>336.52576588986</ele>
        <time>2025-10-12T07:11:12Z</time>
      </trkpt>
      <trkpt lat="47.61984" lon="7.12419">
        <ele>336.59508786672</ele>
        <time>2025-10-12T07:11:14Z</time>
      </trkpt>
      <trkpt lat="47.61985" lon="7.12423">
        <ele>336.55681532721</ele>
        <time>2025-10-12T07:11:16Z</time>
      </trkpt>
      <trkpt lat="47.61985" lon="7.12428">
        <ele>336.46716319264</ele>
        <time>2025-10-12T07:11:18Z</time>
      </trkpt>
      <trkpt lat="47.61986" lon="7.1243">
        <ele>336.46056786651</ele>
        <time>2025-10-12T07:11:19Z</time>
      </trkpt>
      <trkpt lat="47.61987" lon="7.12436">
        <ele>336.4003266946</ele>
        <time>2025-10-12T07:11:21Z</time>
      </trkpt>
      <trkpt lat="47.61988" lon="7.12441">
        <ele>336.31954056706</ele>
        <time>2025-10-12T07:11:23Z</time>
      </trkpt>
      <trkpt lat="47.61988" lon="7.12444">
        <ele>336.30996286935</ele>
        <time>2025-10-12T07:11:25Z</time>
      </trkpt>
      <trkpt lat="47.61987" lon="7.12448">
        <ele>336.32924422861</ele>
        <time>2025-10-12T07:11:27Z</time>
      </trkpt>
      <trkpt lat="47.61988" lon="7.12452">
        <ele>336.38313821408</ele>
        <time>2025-10-12T07:11:29Z</time>
      </trkpt>
      <trkpt lat="47.61988" lon="7.12456">
        <ele>336.40884683166</ele>
        <time>2025-10-12T07:11:31Z</time>
      </trkpt>
      <trkpt lat="47.61988" lon="7.12459">
        <ele>336.45523061517</ele>
        <time>2025-10-12T07:11:32Z</time>
      </trkpt>
      <trkpt lat="47.61988" lon="7.12463">
        <ele>336.53301288507</ele>
        <time>2025-10-12T07:11:34Z</time>
      </trkpt>
      <trkpt lat="47.61988" lon="7.12467">
        <ele>336.68426769752</ele>
        <time>2025-10-12T07:11:36Z</time>
      </trkpt>
      <trkpt lat="47.61987" lon="7.12471">
        <ele>336.70490024441</ele>
        <time>2025-10-12T07:11:39Z</time>
      </trkpt>
      <trkpt lat="47.61987" lon="7.12475">
        <ele>336.81149438361</ele>
        <time>2025-10-12T07:11:41Z</time>
      </trkpt>
      <trkpt lat="47.61987" lon="7.12478">
        <ele>336.85867591236</ele>
        <time>2025-10-12T07:11:42Z</time>
      </trkpt>
      <trkpt lat="47.61986" lon="7.12482">
        <ele>337.00476279214</ele>
        <time>2025-10-12T07:11:44Z</time>
      </trkpt>
      <trkpt lat="47.61985" lon="7.12486">
        <ele>337.16840932989</ele>
        <time>2025-10-12T07:11:46Z</time>
      </trkpt>
      <trkpt lat="47.61985" lon="7.12488">
        <ele>337.22695102515</ele>
        <time>2025-10-12T07:11:47Z</time>
      </trkpt>
      <trkpt lat="47.61984" lon="7.12492">
        <ele>337.33944713019</ele>
        <time>2025-10-12T07:11:49Z</time>
      </trkpt>
      <trkpt lat="47.61984" lon="7.12498">
        <ele>337.4344447719</ele>
        <time>2025-10-12T07:11:51Z</time>
      </trkpt>
      <trkpt lat="47.61983" lon="7.12501">
        <ele>337.52576831447</ele>
        <time>2025-10-12T07:11:52Z</time>
      </trkpt>
      <trkpt lat="47.61983" lon="7.12504">
        <ele>337.62589493142</ele>
        <time>2025-10-12T07:11:53Z</time>
      </trkpt>
      <trkpt lat="47.61981" lon="7.12509">
        <ele>337.90873533634</ele>
        <time>2025-10-12T07:11:55Z</time>
      </trkpt>
      <trkpt lat="47.6198" lon="7.12511">
        <ele>338.06041355744</ele>
        <time>2025-10-12T07:11:56Z</time>
      </trkpt>
      <trkpt lat="47.6198" lon="7.12516">
        <ele>338.32177192885</ele>
        <time>2025-10-12T07:11:58Z</time>
      </trkpt>
      <trkpt lat="47.61979" lon="7.1252">
        <ele>338.51712965319</ele>
        <time>2025-10-12T07:12:00Z</time>
      </trkpt>
      <trkpt lat="47.61978" lon="7.12523">
        <ele>338.71497770065</ele>
        <time>2025-10-12T07:12:02Z</time>
      </trkpt>
      <trkpt lat="47.61976" lon="7.12525">
        <ele>338.88765350778</ele>
        <time>2025-10-12T07:12:04Z</time>
      </trkpt>
      <trkpt lat="47.61974" lon="7.12527">
        <ele>339.03402558943</ele>
        <time>2025-10-12T07:12:05Z</time>
      </trkpt>
      <trkpt lat="47.61972" lon="7.1253">
        <ele>339.2994777147</ele>
        <time>2025-10-12T07:12:07Z</time>
      </trkpt>
      <trkpt lat="47.61969" lon="7.12532">
        <ele>339.47712247032</ele>
        <time>2025-10-12T07:12:09Z</time>
      </trkpt>
      <trkpt lat="47.61967" lon="7.12533">
        <ele>339.69603270694</ele>
        <time>2025-10-12T07:12:11Z</time>
      </trkpt>
      <trkpt lat="47.61964" lon="7.12534">
        <ele>339.89252326194</ele>
        <time>2025-10-12T07:12:13Z</time>
      </trkpt>
      <trkpt lat="47.61961" lon="7.12535">
        <ele>340.0724392173</ele>
        <time>2025-10-12T07:12:15Z</time>
      </trkpt>
      <trkpt lat="47.61959" lon="7.12537">
        <ele>340.27926523232</ele>
        <time>2025-10-12T07:12:17Z</time>
      </trkpt>
      <trkpt lat="47.61956" lon="7.12539">
        <ele>340.4825151331</ele>
        <time>2025-10-12T07:12:19Z</time>
      </trkpt>
      <trkpt lat="47.61953" lon="7.12539">
        <ele>340.67602285183</ele>
        <time>2025-10-12T07:12:21Z</time>
      </trkpt>
      <trkpt lat="47.6195" lon="7.1254">
        <ele>340.86896073664</ele>
        <time>2025-10-12T07:12:23Z</time>
      </trkpt>
      <trkpt lat="47.61948" lon="7.1254">
        <ele>341.06098105787</ele>
        <time>2025-10-12T07:12:25Z</time>
      </trkpt>
      <trkpt lat="47.61945" lon="7.12541">
        <ele>341.22716609262</ele>
        <time>2025-10-12T07:12:27Z</time>
      </trkpt>
      <trkpt lat="47.61942" lon="7.12541">
        <ele>341.43460461533</ele>
        <time>2025-10-12T07:12:29Z</time>
      </trkpt>
      <trkpt lat="47.6194" lon="7.12541">
        <ele>341.59006462068</ele>
        <time>2025-10-12T07:12:31Z</time>
      </trkpt>
      <trkpt lat="47.61937" lon="7.12542">
        <ele>341.73721131477</ele>
        <time>2025-10-12T07:12:34Z</time>
      </trkpt>
      <trkpt lat="47.61934" lon="7.12543">
        <ele>341.90426195232</ele>
        <time>2025-10-12T07:12:36Z</time>
      </trkpt>
      <trkpt lat="47.61931" lon="7.12543">
        <ele>342.03858138448</ele>
        <time>2025-10-12T07:12:38Z</time>
      </trkpt>
      <trkpt lat="47.61929" lon="7.12544">
        <ele>342.2333141662</ele>
        <time>2025-10-12T07:12:40Z</time>
      </trkpt>
      <trkpt lat="47.61927" lon="7.12544">
        <ele>342.35876155505</ele>
        <time>2025-10-12T07:12:42Z</time>
      </trkpt>
      <trkpt lat="47.61926" lon="7.12545">
        <ele>342.41800468029</ele>
        <time>2025-10-12T07:12:43Z</time>
      </trkpt>
      <trkpt lat="47.61923" lon="7.12545">
        <ele>342.54296228099</ele>
        <time>2025-10-12T07:12:45Z</time>
      </trkpt>
      <trkpt lat="47.6192" lon="7.12547">
        <ele>342.74537152497</ele>
        <time>2025-10-12T07:12:47Z</time>
      </trkpt>
      <trkpt lat="47.61918" lon="7.12548">
        <ele>342.97589476292</ele>
        <time>2025-10-12T07:12:49Z</time>
      </trkpt>
      <trkpt lat="47.61916" lon="7.1255">
        <ele>343.14521690204</ele>
        <time>2025-10-12T07:12:51Z</time>
      </trkpt>
      <trkpt lat="47.61914" lon="7.12551">
        <ele>343.28094607313</ele>
        <time>2025-10-12T07:12:53Z</time>
      </trkpt>
      <trkpt lat="47.61911" lon="7.12552">
        <ele>343.42518880186</ele>
        <time>2025-10-12T07:12:55Z</time>
      </trkpt>
      <trkpt lat="47.61908" lon="7.12553">
        <ele>343.57928900502</ele>
        <time>2025-10-12T07:12:57Z</time>
      </trkpt>
      <trkpt lat="47.61905" lon="7.12553">
        <ele>343.70736778782</ele>
        <time>2025-10-12T07:12:59Z</time>
      </trkpt>
      <trkpt lat="47.61903" lon="7.12553">
        <ele>343.82043995748</ele>
        <time>2025-10-12T07:13:01Z</time>
      </trkpt>
      <trkpt lat="47.619" lon="7.12552">
        <ele>343.88542047166</ele>
        <time>2025-10-12T07:13:03Z</time>
      </trkpt>
      <trkpt lat="47.61898" lon="7.12553">
        <ele>343.99175051362</ele>
        <time>2025-10-12T07:13:05Z</time>
      </trkpt>
      <trkpt lat="47.61895" lon="7.12554">
        <ele>344.11914834773</ele>
        <time>2025-10-12T07:13:07Z</time>
      </trkpt>
      <trkpt lat="47.61892" lon="7.12556">
        <ele>344.21901638124</ele>
        <time>2025-10-12T07:13:09Z</time>
      </trkpt>
      <trkpt lat="47.6189" lon="7.12556">
        <ele>344.27793458185</ele>
        <time>2025-10-12T07:13:10Z</time>
      </trkpt>
      <trkpt lat="47.61887" lon="7.12557">
        <ele>344.39941222698</ele>
        <time>2025-10-12T07:13:12Z</time>
      </trkpt>
      <trkpt lat="47.61885" lon="7.12558">
        <ele>344.459285934</ele>
        <time>2025-10-12T07:13:13Z</time>
      </trkpt>
      <trkpt lat="47.61882" lon="7.12558">
        <ele>344.58852890213</ele>
        <time>2025-10-12T07:13:15Z</time>
      </trkpt>
      <trkpt lat="47.61879" lon="7.12558">
        <ele>344.6837819031</ele>
        <time>2025-10-12T07:13:17Z</time>
      </trkpt>
      <trkpt lat="47.61877" lon="7.12559">
        <ele>344.77726952832</ele>
        <time>2025-10-12T07:13:19Z</time>
      </trkpt>
      <trkpt lat="47.61874" lon="7.12561">
        <ele>344.86972051785</ele>
        <time>2025-10-12T07:13:21Z</time>
      </trkpt>
      <trkpt lat="47.61871" lon="7.12561">
        <ele>344.97265308439</ele>
        <time>2025-10-12T07:13:23Z</time>
      </trkpt>
      <trkpt lat="47.61869" lon="7.12561">
        <ele>345.03016592795</ele>
        <time>2025-10-12T07:13:24Z</time>
      </trkpt>
      <trkpt lat="47.61866" lon="7.12562">
        <ele>345.15769076603</ele>
        <time>2025-10-12T07:13:26Z</time>
      </trkpt>
      <trkpt lat="47.61864" lon="7.12562">
        <ele>345.2630147815</ele>
        <time>2025-10-12T07:13:28Z</time>
      </trkpt>
      <trkpt lat="47.61861" lon="7.12562">
        <ele>345.35827853191</ele>
        <time>2025-10-12T07:13:30Z</time>
      </trkpt>
      <trkpt lat="47.61858" lon="7.12562">
        <ele>345.46028616209</ele>
        <time>2025-10-12T07:13:32Z</time>
      </trkpt>
      <trkpt lat="47.61855" lon="7.12561">
        <ele>345.56526436827</ele>
        <time>2025-10-12T07:13:34Z</time>
      </trkpt>
      <trkpt lat="47.61852" lon="7.1256">
        <ele>345.66753668452</ele>
        <time>2025-10-12T07:13:36Z</time>
      </trkpt>
      <trkpt lat="47.61849" lon="7.1256">
        <ele>345.76507155367</ele>
        <time>2025-10-12T07:13:38Z</time>
      </trkpt>
      <trkpt lat="47.61846" lon="7.1256">
        <ele>345.87987899465</ele>
        <time>2025-10-12T07:13:40Z</time>
      </trkpt>
      <trkpt lat="47.61844" lon="7.1256">
        <ele>345.9771354675</ele>
        <time>2025-10-12T07:13:42Z</time>
      </trkpt>
      <trkpt lat="47.61841" lon="7.12561">
        <ele>346.0824342041</ele>
        <time>2025-10-12T07:13:44Z</time>
      </trkpt>
      <trkpt lat="47.61838" lon="7.12562">
        <ele>346.16812037018</ele>
        <time>2025-10-12T07:13:46Z</time>
      </trkpt>
      <trkpt lat="47.61836" lon="7.12563">
        <ele>346.26299548135</ele>
        <time>2025-10-12T07:13:48Z</time>
      </trkpt>
      <trkpt lat="47.61833" lon="7.12565">
        <ele>346.35963789701</ele>
        <time>2025-10-12T07:13:50Z</time>
      </trkpt>
      <trkpt lat="47.61831" lon="7.12566">
        <ele>346.42237698245</ele>
        <time>2025-10-12T07:13:51Z</time>
      </trkpt>
      <trkpt lat="47.61829" lon="7.12567">
        <ele>346.4869333617</ele>
        <time>2025-10-12T07:13:52Z</time>
      </trkpt>
      <trkpt lat="47.61825" lon="7.12568">
        <ele>346.61356306683</ele>
        <time>2025-10-12T07:13:54Z</time>
      </trkpt>
      <trkpt lat="47.61824" lon="7.12569">
        <ele>346.68315157951</ele>
        <time>2025-10-12T07:13:55Z</time>
      </trkpt>
      <trkpt lat="47.61821" lon="7.1257">
        <ele>346.79062260008</ele>
        <time>2025-10-12T07:13:57Z</time>
      </trkpt>
      <trkpt lat="47.61818" lon="7.12571">
        <ele>346.90198356517</ele>
        <time>2025-10-12T07:13:59Z</time>
      </trkpt>
      <trkpt lat="47.61815" lon="7.12571">
        <ele>347.01071100539</ele>
        <time>2025-10-12T07:14:01Z</time>
      </trkpt>
      <trkpt lat="47.61812" lon="7.12571">
        <ele>347.1000542002</ele>
        <time>2025-10-12T07:14:03Z</time>
      </trkpt>
      <trkpt lat="47.6181" lon="7.12571">
        <ele>347.16026748972</ele>
        <time>2025-10-12T07:14:04Z</time>
      </trkpt>
      <trkpt lat="47.61808" lon="7.1257">
        <ele>347.28321968692</ele>
        <time>2025-10-12T07:14:06Z</time>
      </trkpt>
      <trkpt lat="47.61806" lon="7.1257">
        <ele>347.35079015128</ele>
        <time>2025-10-12T07:14:08Z</time>
      </trkpt>
      <trkpt lat="47.61804" lon="7.12569">
        <ele>347.38954945885</ele>
        <time>2025-10-12T07:14:09Z</time>
      </trkpt>
      <trkpt lat="47.61801" lon="7.1257">
        <ele>347.55884136403</ele>
        <time>2025-10-12T07:14:11Z</time>
      </trkpt>
      <trkpt lat="47.61798" lon="7.1257">
        <ele>347.70755057947</ele>
        <time>2025-10-12T07:14:13Z</time>
      </trkpt>
      <trkpt lat="47.61796" lon="7.12571">
        <ele>347.85343647534</ele>
        <time>2025-10-12T07:14:15Z</time>
      </trkpt>
      <trkpt lat="47.61794" lon="7.12569">
        <ele>347.97929627424</ele>
        <time>2025-10-12T07:14:17Z</time>
      </trkpt>
      <trkpt lat="47.61791" lon="7.12569">
        <ele>348.10857031412</ele>
        <time>2025-10-12T07:14:19Z</time>
      </trkpt>
      <trkpt lat="47.61789" lon="7.12568">
        <ele>348.19160616166</ele>
        <time>2025-10-12T07:14:20Z</time>
      </trkpt>
      <trkpt lat="47.61787" lon="7.12567">
        <ele>348.33866707063</ele>
        <time>2025-10-12T07:14:21Z</time>
      </trkpt>
      <trkpt lat="47.61784" lon="7.12567">
        <ele>348.54767305529</ele>
        <time>2025-10-12T07:14:23Z</time>
      </trkpt>
      <trkpt lat="47.61781" lon="7.12567">
        <ele>348.70931206533</ele>
        <time>2025-10-12T07:14:25Z</time>
      </trkpt>
      <trkpt lat="47.61779" lon="7.12565">
        <ele>348.87724223717</ele>
        <time>2025-10-12T07:14:27Z</time>
      </trkpt>
      <trkpt lat="47.61776" lon="7.12566">
        <ele>349.00505172311</ele>
        <time>2025-10-12T07:14:28Z</time>
      </trkpt>
      <trkpt lat="47.61773" lon="7.12566">
        <ele>349.17153233638</ele>
        <time>2025-10-12T07:14:30Z</time>
      </trkpt>
      <trkpt lat="47.6177" lon="7.12565">
        <ele>349.35233196918</ele>
        <time>2025-10-12T07:14:32Z</time>
      </trkpt>
      <trkpt lat="47.61768" lon="7.12565">
        <ele>349.45158413381</ele>
        <time>2025-10-12T07:14:33Z</time>
      </trkpt>
      <trkpt lat="47.61764" lon="7.12563">
        <ele>349.6240860394</ele>
        <time>2025-10-12T07:14:35Z</time>
      </trkpt>
      <trkpt lat="47.61762" lon="7.12562">
        <ele>349.74751259259</ele>
        <time>2025-10-12T07:14:36Z</time>
      </trkpt>
      <trkpt lat="47.61759" lon="7.12561">
        <ele>349.93243503346</ele>
        <time>2025-10-12T07:14:38Z</time>
      </trkpt>
      <trkpt lat="47.61757" lon="7.1256">
        <ele>350.05318654058</ele>
        <time>2025-10-12T07:14:40Z</time>
      </trkpt>
      <trkpt lat="47.61755" lon="7.12558">
        <ele>350.14901380663</ele>
        <time>2025-10-12T07:14:42Z</time>
      </trkpt>
      <trkpt lat="47.61753" lon="7.12558">
        <ele>350.24615463544</ele>
        <time>2025-10-12T07:14:44Z</time>
      </trkpt>
      <trkpt lat="47.6175" lon="7.12559">
        <ele>350.33816425174</ele>
        <time>2025-10-12T07:14:46Z</time>
      </trkpt>
      <trkpt lat="47.61747" lon="7.12559">
        <ele>350.47034350317</ele>
        <time>2025-10-12T07:14:48Z</time>
      </trkpt>
      <trkpt lat="47.61745" lon="7.12559">
        <ele>350.58049954502</ele>
        <time>2025-10-12T07:14:49Z</time>
      </trkpt>
      <trkpt lat="47.61742" lon="7.12559">
        <ele>350.81128858462</ele>
        <time>2025-10-12T07:14:51Z</time>
      </trkpt>
      <trkpt lat="47.6174" lon="7.12558">
        <ele>350.94154717816</ele>
        <time>2025-10-12T07:14:52Z</time>
      </trkpt>
      <trkpt lat="47.61738" lon="7.12558">
        <ele>351.0773177885</ele>
        <time>2025-10-12T07:14:53Z</time>
      </trkpt>
      <trkpt lat="47.61736" lon="7.12558">
        <ele>351.30957585885</ele>
        <time>2025-10-12T07:14:55Z</time>
      </trkpt>
      <trkpt lat="47.61733" lon="7.12558">
        <ele>351.45374566856</ele>
        <time>2025-10-12T07:14:57Z</time>
      </trkpt>
      <trkpt lat="47.6173" lon="7.12557">
        <ele>351.65520720308</ele>
        <time>2025-10-12T07:14:59Z</time>
      </trkpt>
      <trkpt lat="47.61729" lon="7.12557">
        <ele>351.78237519724</ele>
        <time>2025-10-12T07:15:00Z</time>
      </trkpt>
      <trkpt lat="47.61726" lon="7.12556">
        <ele>352.01145400863</ele>
        <time>2025-10-12T07:15:02Z</time>
      </trkpt>
      <trkpt lat="47.61724" lon="7.12557">
        <ele>352.18190702818</ele>
        <time>2025-10-12T07:15:04Z</time>
      </trkpt>
      <trkpt lat="47.61722" lon="7.12557">
        <ele>352.30215403885</ele>
        <time>2025-10-12T07:15:06Z</time>
      </trkpt>
      <trkpt lat="47.6172" lon="7.12558">
        <ele>352.40547992204</ele>
        <time>2025-10-12T07:15:08Z</time>
      </trkpt>
      <trkpt lat="47.61718" lon="7.12556">
        <ele>352.42805981777</ele>
        <time>2025-10-12T07:15:09Z</time>
      </trkpt>
      <trkpt lat="47.61716" lon="7.12555">
        <ele>352.5362809421</ele>
        <time>2025-10-12T07:15:10Z</time>
      </trkpt>
      <trkpt lat="47.61714" lon="7.12554">
        <ele>352.65021529508</ele>
        <time>2025-10-12T07:15:12Z</time>
      </trkpt>
      <trkpt lat="47.61712" lon="7.12554">
        <ele>352.69511148007</ele>
        <time>2025-10-12T07:15:13Z</time>
      </trkpt>
      <trkpt lat="47.61709" lon="7.12555">
        <ele>352.81285493102</ele>
        <time>2025-10-12T07:15:15Z</time>
      </trkpt>
      <trkpt lat="47.61706" lon="7.12556">
        <ele>352.87803804132</ele>
        <time>2025-10-12T07:15:16Z</time>
      </trkpt>
      <trkpt lat="47.61703" lon="7.12556">
        <ele>353.01428929918</ele>
        <time>2025-10-12T07:15:18Z</time>
      </trkpt>
      <trkpt lat="47.61701" lon="7.12556">
        <ele>353.07179292833</ele>
        <time>2025-10-12T07:15:19Z</time>
      </trkpt>
      <trkpt lat="47.61699" lon="7.12557">
        <ele>353.1437359182</ele>
        <time>2025-10-12T07:15:20Z</time>
      </trkpt>
      <trkpt lat="47.61696" lon="7.12557">
        <ele>353.28095323595</ele>
        <time>2025-10-12T07:15:22Z</time>
      </trkpt>
      <trkpt lat="47.61694" lon="7.12557">
        <ele>353.383839081</ele>
        <time>2025-10-12T07:15:24Z</time>
      </trkpt>
      <trkpt lat="47.61691" lon="7.12557">
        <ele>353.470901875</ele>
        <time>2025-10-12T07:15:26Z</time>
      </trkpt>
      <trkpt lat="47.6169" lon="7.12559">
        <ele>353.53892368702</ele>
        <time>2025-10-12T07:15:28Z</time>
      </trkpt>
      <trkpt lat="47.61687" lon="7.1256">
        <ele>353.60895235485</ele>
        <time>2025-10-12T07:15:30Z</time>
      </trkpt>
      <trkpt lat="47.61685" lon="7.12561">
        <ele>353.69804314446</ele>
        <time>2025-10-12T07:15:32Z</time>
      </trkpt>
      <trkpt lat="47.61683" lon="7.12562">
        <ele>353.74697068102</ele>
        <time>2025-10-12T07:15:33Z</time>
      </trkpt>
      <trkpt lat="47.6168" lon="7.12564">
        <ele>353.85803844003</ele>
        <time>2025-10-12T07:15:35Z</time>
      </trkpt>
      <trkpt lat="47.61677" lon="7.12565">
        <ele>353.96087702289</ele>
        <time>2025-10-12T07:15:37Z</time>
      </trkpt>
      <trkpt lat="47.61674" lon="7.12567">
        <ele>354.07401264749</ele>
        <time>2025-10-12T07:15:39Z</time>
      </trkpt>
      <trkpt lat="47.61672" lon="7.12568">
        <ele>354.14428747996</ele>
        <time>2025-10-12T07:15:40Z</time>
      </trkpt>
      <trkpt lat="47.6167" lon="7.12569">
        <ele>354.2068783177</ele>
        <time>2025-10-12T07:15:41Z</time>
      </trkpt>
      <trkpt lat="47.61667" lon="7.1257">
        <ele>354.32293994559</ele>
        <time>2025-10-12T07:15:43Z</time>
      </trkpt>
      <trkpt lat="47.61664" lon="7.12571">
        <ele>354.44506827427</ele>
        <time>2025-10-12T07:15:45Z</time>
      </trkpt>
      <trkpt lat="47.61661" lon="7.12571">
        <ele>354.55537830268</ele>
        <time>2025-10-12T07:15:47Z</time>
      </trkpt>
      <trkpt lat="47.61658" lon="7.12572">
        <ele>354.65445747718</ele>
        <time>2025-10-12T07:15:49Z</time>
      </trkpt>
      <trkpt lat="47.61656" lon="7.12573">
        <ele>354.74328945545</ele>
        <time>2025-10-12T07:15:51Z</time>
      </trkpt>
      <trkpt lat="47.61654" lon="7.12574">
        <ele>354.83094779476</ele>
        <time>2025-10-12T07:15:53Z</time>
      </trkpt>
      <trkpt lat="47.61652" lon="7.12576">
        <ele>354.89558078685</ele>
        <time>2025-10-12T07:15:55Z</time>
      </trkpt>
      <trkpt lat="47.6165" lon="7.12579">
        <ele>354.97820984382</ele>
        <time>2025-10-12T07:15:57Z</time>
      </trkpt>
      <trkpt lat="47.61647" lon="7.1258">
        <ele>355.0594807755</ele>
        <time>2025-10-12T07:15:59Z</time>
      </trkpt>
      <trkpt lat="47.61644" lon="7.12581">
        <ele>355.15762136568</ele>
        <time>2025-10-12T07:16:01Z</time>
      </trkpt>
      <trkpt lat="47.61642" lon="7.12581">
        <ele>355.24501024228</ele>
        <time>2025-10-12T07:16:03Z</time>
      </trkpt>
      <trkpt lat="47.6164" lon="7.12582">
        <ele>355.31167850361</ele>
        <time>2025-10-12T07:16:05Z</time>
      </trkpt>
      <trkpt lat="47.61638" lon="7.12583">
        <ele>355.37935629462</ele>
        <time>2025-10-12T07:16:07Z</time>
      </trkpt>
      <trkpt lat="47.61636" lon="7.12585">
        <ele>355.43618694216</ele>
        <time>2025-10-12T07:16:09Z</time>
      </trkpt>
      <trkpt lat="47.61633" lon="7.12587">
        <ele>355.46615191611</ele>
        <time>2025-10-12T07:16:11Z</time>
      </trkpt>
      <trkpt lat="47.6163" lon="7.1259">
        <ele>355.46770950042</ele>
        <time>2025-10-12T07:16:13Z</time>
      </trkpt>
      <trkpt lat="47.61628" lon="7.12592">
        <ele>355.47112259824</ele>
        <time>2025-10-12T07:16:15Z</time>
      </trkpt>
      <trkpt lat="47.61625" lon="7.12594">
        <ele>355.49577159738</ele>
        <time>2025-10-12T07:16:17Z</time>
      </trkpt>
      <trkpt lat="47.61622" lon="7.12596">
        <ele>355.54785707663</ele>
        <time>2025-10-12T07:16:19Z</time>
      </trkpt>
      <trkpt lat="47.6162" lon="7.12597">
        <ele>355.56292741604</ele>
        <time>2025-10-12T07:16:20Z</time>
      </trkpt>
      <trkpt lat="47.61619" lon="7.12598">
        <ele>355.58734094412</ele>
        <time>2025-10-12T07:16:21Z</time>
      </trkpt>
      <trkpt lat="47.61617" lon="7.126">
        <ele>355.59178730181</ele>
        <time>2025-10-12T07:16:22Z</time>
      </trkpt>
      <trkpt lat="47.61615" lon="7.126">
        <ele>355.59475879305</ele>
        <time>2025-10-12T07:16:23Z</time>
      </trkpt>
      <trkpt lat="47.61613" lon="7.126">
        <ele>355.64919107401</ele>
        <time>2025-10-12T07:16:24Z</time>
      </trkpt>
      <trkpt lat="47.6161" lon="7.12601">
        <ele>355.77827768497</ele>
        <time>2025-10-12T07:16:26Z</time>
      </trkpt>
      <trkpt lat="47.61608" lon="7.12602">
        <ele>355.81440270441</ele>
        <time>2025-10-12T07:16:27Z</time>
      </trkpt>
      <trkpt lat="47.61605" lon="7.12605">
        <ele>355.83929991846</ele>
        <time>2025-10-12T07:16:29Z</time>
      </trkpt>
      <trkpt lat="47.61603" lon="7.12607">
        <ele>355.84929101707</ele>
        <time>2025-10-12T07:16:31Z</time>
      </trkpt>
      <trkpt lat="47.616" lon="7.12609">
        <ele>355.87044622591</ele>
        <time>2025-10-12T07:16:33Z</time>
      </trkpt>
      <trkpt lat="47.61598" lon="7.12611">
        <ele>355.87791948526</ele>
        <time>2025-10-12T07:16:34Z</time>
      </trkpt>
      <trkpt lat="47.61596" lon="7.12612">
        <ele>355.8824570944</ele>
        <time>2025-10-12T07:16:35Z</time>
      </trkpt>
      <trkpt lat="47.61593" lon="7.12614">
        <ele>355.90107817965</ele>
        <time>2025-10-12T07:16:37Z</time>
      </trkpt>
      <trkpt lat="47.6159" lon="7.12617">
        <ele>355.95116703943</ele>
        <time>2025-10-12T07:16:39Z</time>
      </trkpt>
      <trkpt lat="47.61589" lon="7.12619">
        <ele>355.95320042892</ele>
        <time>2025-10-12T07:16:40Z</time>
      </trkpt>
      <trkpt lat="47.61587" lon="7.1262">
        <ele>355.92463992207</ele>
        <time>2025-10-12T07:16:42Z</time>
      </trkpt>
      <trkpt lat="47.61585" lon="7.12622">
        <ele>355.92835533437</ele>
        <time>2025-10-12T07:16:43Z</time>
      </trkpt>
      <trkpt lat="47.61583" lon="7.12624">
        <ele>355.96004485248</ele>
        <time>2025-10-12T07:16:45Z</time>
      </trkpt>
      <trkpt lat="47.61581" lon="7.12625">
        <ele>355.97007331765</ele>
        <time>2025-10-12T07:16:46Z</time>
      </trkpt>
      <trkpt lat="47.61577" lon="7.12626">
        <ele>356.03017577743</ele>
        <time>2025-10-12T07:16:48Z</time>
      </trkpt>
      <trkpt lat="47.61575" lon="7.12626">
        <ele>356.08096214256</ele>
        <time>2025-10-12T07:16:49Z</time>
      </trkpt>
      <trkpt lat="47.61572" lon="7.12627">
        <ele>356.22632769546</ele>
        <time>2025-10-12T07:16:51Z</time>
      </trkpt>
      <trkpt lat="47.6157" lon="7.12628">
        <ele>356.26191156288</ele>
        <time>2025-10-12T07:16:52Z</time>
      </trkpt>
      <trkpt lat="47.61568" lon="7.1263">
        <ele>356.25907041349</ele>
        <time>2025-10-12T07:16:53Z</time>
      </trkpt>
      <trkpt lat="47.61566" lon="7.12633">
        <ele>356.23662592905</ele>
        <time>2025-10-12T07:16:55Z</time>
      </trkpt>
      <trkpt lat="47.61564" lon="7.12634">
        <ele>356.23945843001</ele>
        <time>2025-10-12T07:16:57Z</time>
      </trkpt>
      <trkpt lat="47.61562" lon="7.12634">
        <ele>356.28667578089</ele>
        <time>2025-10-12T07:16:59Z</time>
      </trkpt>
      <trkpt lat="47.6156" lon="7.12635">
        <ele>356.37293195099</ele>
        <time>2025-10-12T07:17:01Z</time>
      </trkpt>
      <trkpt lat="47.61557" lon="7.12636">
        <ele>356.39932399267</ele>
        <time>2025-10-12T07:17:03Z</time>
      </trkpt>
      <trkpt lat="47.61555" lon="7.12637">
        <ele>356.4738115459</ele>
        <time>2025-10-12T07:17:05Z</time>
      </trkpt>
      <trkpt lat="47.61552" lon="7.12637">
        <ele>356.52289626518</ele>
        <time>2025-10-12T07:17:07Z</time>
      </trkpt>
      <trkpt lat="47.61549" lon="7.12638">
        <ele>356.63353329157</ele>
        <time>2025-10-12T07:17:09Z</time>
      </trkpt>
      <trkpt lat="47.61546" lon="7.1264">
        <ele>356.69020850949</ele>
        <time>2025-10-12T07:17:11Z</time>
      </trkpt>
      <trkpt lat="47.61544" lon="7.12641">
        <ele>356.72572518139</ele>
        <time>2025-10-12T07:17:12Z</time>
      </trkpt>
      <trkpt lat="47.61541" lon="7.12643">
        <ele>356.80453680046</ele>
        <time>2025-10-12T07:17:14Z</time>
      </trkpt>
      <trkpt lat="47.61539" lon="7.12644">
        <ele>356.85119609643</ele>
        <time>2025-10-12T07:17:15Z</time>
      </trkpt>
      <trkpt lat="47.61537" lon="7.12645">
        <ele>356.92345540981</ele>
        <time>2025-10-12T07:17:16Z</time>
      </trkpt>
      <trkpt lat="47.61534" lon="7.12646">
        <ele>357.05411023311</ele>
        <time>2025-10-12T07:17:18Z</time>
      </trkpt>
      <trkpt lat="47.61531" lon="7.12648">
        <ele>357.17945517246</ele>
        <time>2025-10-12T07:17:20Z</time>
      </trkpt>
      <trkpt lat="47.61529" lon="7.12649">
        <ele>357.26115192289</ele>
        <time>2025-10-12T07:17:21Z</time>
      </trkpt>
      <trkpt lat="47.61525" lon="7.12649">
        <ele>357.39525910987</ele>
        <time>2025-10-12T07:17:23Z</time>
      </trkpt>
      <trkpt lat="47.61522" lon="7.12651">
        <ele>357.39997298447</ele>
        <time>2025-10-12T07:17:25Z</time>
      </trkpt>
      <trkpt lat="47.6152" lon="7.12652">
        <ele>357.40002012322</ele>
        <time>2025-10-12T07:17:27Z</time>
      </trkpt>
      <trkpt lat="47.61516" lon="7.12654">
        <ele>357.4000205946</ele>
        <time>2025-10-12T07:17:29Z</time>
      </trkpt>
      <trkpt lat="47.61513" lon="7.12654">
        <ele>357.40002059932</ele>
        <time>2025-10-12T07:17:31Z</time>
      </trkpt>
      <trkpt lat="47.61511" lon="7.12655">
        <ele>357.40002059936</ele>
        <time>2025-10-12T07:17:32Z</time>
      </trkpt>
      <trkpt lat="47.61507" lon="7.12656">
        <ele>357.40002059937</ele>
        <time>2025-10-12T07:17:34Z</time>
      </trkpt>
      <trkpt lat="47.61505" lon="7.12657">
        <ele>357.40002059937</ele>
        <time>2025-10-12T07:17:36Z</time>
      </trkpt>
      <trkpt lat="47.61502" lon="7.12659">
        <ele>357.40002059937</ele>
        <time>2025-10-12T07:17:38Z</time>
      </trkpt>
      <trkpt lat="47.61499" lon="7.12661">
        <ele>357.40002059937</ele>
        <time>2025-10-12T07:17:40Z</time>
      </trkpt>
      <trkpt lat="47.61497" lon="7.12661">
        <ele>357.47565872192</ele>
        <time>2025-10-12T07:17:42Z</time>
      </trkpt>
      <trkpt lat="47.61494" lon="7.12661">
        <ele>357.55229217834</ele>
        <time>2025-10-12T07:17:44Z</time>
      </trkpt>
      <trkpt lat="47.61493" lon="7.12662">
        <ele>357.63998508762</ele>
        <time>2025-10-12T07:17:46Z</time>
      </trkpt>
      <trkpt lat="47.6149" lon="7.12664">
        <ele>357.70800770763</ele>
        <time>2025-10-12T07:17:48Z</time>
      </trkpt>
      <trkpt lat="47.61487" lon="7.12666">
        <ele>357.79555133715</ele>
        <time>2025-10-12T07:17:50Z</time>
      </trkpt>
      <trkpt lat="47.61486" lon="7.12667">
        <ele>357.85054474248</ele>
        <time>2025-10-12T07:17:51Z</time>
      </trkpt>
      <trkpt lat="47.61483" lon="7.12667">
        <ele>357.91506813086</ele>
        <time>2025-10-12T07:17:52Z</time>
      </trkpt>
      <trkpt lat="47.61481" lon="7.12669">
        <ele>357.99205269627</ele>
        <time>2025-10-12T07:17:53Z</time>
      </trkpt>
      <trkpt lat="47.6148" lon="7.12669">
        <ele>358.06231829148</ele>
        <time>2025-10-12T07:17:54Z</time>
      </trkpt>
      <trkpt lat="47.61478" lon="7.12669">
        <ele>358.12960486076</ele>
        <time>2025-10-12T07:17:55Z</time>
      </trkpt>
      <trkpt lat="47.61475" lon="7.12669">
        <ele>358.26207748934</ele>
        <time>2025-10-12T07:17:57Z</time>
      </trkpt>
      <trkpt lat="47.61472" lon="7.1267">
        <ele>358.35686840215</ele>
        <time>2025-10-12T07:17:59Z</time>
      </trkpt>
      <trkpt lat="47.61469" lon="7.1267">
        <ele>358.40659560815</ele>
        <time>2025-10-12T07:18:01Z</time>
      </trkpt>
      <trkpt lat="47.61466" lon="7.1267">
        <ele>358.41539854428</ele>
        <time>2025-10-12T07:18:03Z</time>
      </trkpt>
      <trkpt lat="47.61463" lon="7.12671">
        <ele>358.44361157364</ele>
        <time>2025-10-12T07:18:05Z</time>
      </trkpt>
      <trkpt lat="47.61459" lon="7.12671">
        <ele>358.46687435579</ele>
        <time>2025-10-12T07:18:07Z</time>
      </trkpt>
      <trkpt lat="47.61456" lon="7.12671">
        <ele>358.46974003262</ele>
        <time>2025-10-12T07:18:08Z</time>
      </trkpt>
      <trkpt lat="47.61454" lon="7.12674">
        <ele>358.49227391476</ele>
        <time>2025-10-12T07:18:09Z</time>
      </trkpt>
      <trkpt lat="47.61451" lon="7.12675">
        <ele>358.589430071</ele>
        <time>2025-10-12T07:18:11Z</time>
      </trkpt>
      <trkpt lat="47.61447" lon="7.12676">
        <ele>358.63323183275</ele>
        <time>2025-10-12T07:18:13Z</time>
      </trkpt>
      <trkpt lat="47.61444" lon="7.12677">
        <ele>358.72790233328</ele>
        <time>2025-10-12T07:18:15Z</time>
      </trkpt>
      <trkpt lat="47.61441" lon="7.12678">
        <ele>358.83175248067</ele>
        <time>2025-10-12T07:18:17Z</time>
      </trkpt>
      <trkpt lat="47.61439" lon="7.12679">
        <ele>358.91183211984</ele>
        <time>2025-10-12T07:18:19Z</time>
      </trkpt>
      <trkpt lat="47.61436" lon="7.1268">
        <ele>358.97504075314</ele>
        <time>2025-10-12T07:18:21Z</time>
      </trkpt>
      <trkpt lat="47.61433" lon="7.12681">
        <ele>359.07236076672</ele>
        <time>2025-10-12T07:18:23Z</time>
      </trkpt>
      <trkpt lat="47.6143" lon="7.12681">
        <ele>359.1204378487</ele>
        <time>2025-10-12T07:18:25Z</time>
      </trkpt>
      <trkpt lat="47.61427" lon="7.12683">
        <ele>359.19556797254</ele>
        <time>2025-10-12T07:18:27Z</time>
      </trkpt>
      <trkpt lat="47.61425" lon="7.12684">
        <ele>359.26558807261</ele>
        <time>2025-10-12T07:18:29Z</time>
      </trkpt>
      <trkpt lat="47.61422" lon="7.12684">
        <ele>359.31126080779</ele>
        <time>2025-10-12T07:18:31Z</time>
      </trkpt>
      <trkpt lat="47.61419" lon="7.12685">
        <ele>359.35378418553</ele>
        <time>2025-10-12T07:18:33Z</time>
      </trkpt>
      <trkpt lat="47.61416" lon="7.12686">
        <ele>359.38759137732</ele>
        <time>2025-10-12T07:18:35Z</time>
      </trkpt>
      <trkpt lat="47.61413" lon="7.12687">
        <ele>359.39989630714</ele>
        <time>2025-10-12T07:18:37Z</time>
      </trkpt>
      <trkpt lat="47.6141" lon="7.12687">
        <ele>359.40001935644</ele>
        <time>2025-10-12T07:18:39Z</time>
      </trkpt>
      <trkpt lat="47.61408" lon="7.12688">
        <ele>359.40002058694</ele>
        <time>2025-10-12T07:18:41Z</time>
      </trkpt>
      <trkpt lat="47.61405" lon="7.12689">
        <ele>359.40002059924</ele>
        <time>2025-10-12T07:18:43Z</time>
      </trkpt>
      <trkpt lat="47.61402" lon="7.12691">
        <ele>359.40002059936</ele>
        <time>2025-10-12T07:18:45Z</time>
      </trkpt>
      <trkpt lat="47.61399" lon="7.12692">
        <ele>359.40002059937</ele>
        <time>2025-10-12T07:18:47Z</time>
      </trkpt>
      <trkpt lat="47.61397" lon="7.12694">
        <ele>359.40002059937</ele>
        <time>2025-10-12T07:18:49Z</time>
      </trkpt>
      <trkpt lat="47.61394" lon="7.12695">
        <ele>359.41943893433</ele>
        <time>2025-10-12T07:18:51Z</time>
      </trkpt>
      <trkpt lat="47.61392" lon="7.12696">
        <ele>359.43663446045</ele>
        <time>2025-10-12T07:18:53Z</time>
      </trkpt>
      <trkpt lat="47.61389" lon="7.12698">
        <ele>359.49054329315</ele>
        <time>2025-10-12T07:18:55Z</time>
      </trkpt>
      <trkpt lat="47.61386" lon="7.12699">
        <ele>359.52940269398</ele>
        <time>2025-10-12T07:18:57Z</time>
      </trkpt>
      <trkpt lat="47.61385" lon="7.12699">
        <ele>359.5525950393</ele>
        <time>2025-10-12T07:18:58Z</time>
      </trkpt>
      <trkpt lat="47.61383" lon="7.127">
        <ele>359.56713656387</ele>
        <time>2025-10-12T07:18:59Z</time>
      </trkpt>
      <trkpt lat="47.6138" lon="7.12702">
        <ele>359.63383836546</ele>
        <time>2025-10-12T07:19:01Z</time>
      </trkpt>
      <trkpt lat="47.61377" lon="7.12703">
        <ele>359.69052741716</ele>
        <time>2025-10-12T07:19:03Z</time>
      </trkpt>
      <trkpt lat="47.61375" lon="7.12704">
        <ele>359.72653894879</ele>
        <time>2025-10-12T07:19:05Z</time>
      </trkpt>
      <trkpt lat="47.61371" lon="7.12705">
        <ele>359.7388686686</ele>
        <time>2025-10-12T07:19:07Z</time>
      </trkpt>
      <trkpt lat="47.61369" lon="7.12705">
        <ele>359.76003455668</ele>
        <time>2025-10-12T07:19:08Z</time>
      </trkpt>
      <trkpt lat="47.61367" lon="7.12706">
        <ele>359.78538722947</ele>
        <time>2025-10-12T07:19:09Z</time>
      </trkpt>
      <trkpt lat="47.61365" lon="7.12707">
        <ele>359.81025220866</ele>
        <time>2025-10-12T07:19:10Z</time>
      </trkpt>
      <trkpt lat="47.61363" lon="7.12707">
        <ele>359.8318274517</ele>
        <time>2025-10-12T07:19:11Z</time>
      </trkpt>
      <trkpt lat="47.61361" lon="7.12707">
        <ele>359.85230467815</ele>
        <time>2025-10-12T07:19:12Z</time>
      </trkpt>
      <trkpt lat="47.61358" lon="7.12708">
        <ele>359.86040464621</ele>
        <time>2025-10-12T07:19:14Z</time>
      </trkpt>
      <trkpt lat="47.61355" lon="7.12709">
        <ele>359.90618053114</ele>
        <time>2025-10-12T07:19:16Z</time>
      </trkpt>
      <trkpt lat="47.61353" lon="7.1271">
        <ele>359.93742472798</ele>
        <time>2025-10-12T07:19:18Z</time>
      </trkpt>
      <trkpt lat="47.6135" lon="7.12711">
        <ele>359.96085789749</ele>
        <time>2025-10-12T07:19:20Z</time>
      </trkpt>
      <trkpt lat="47.61347" lon="7.12713">
        <ele>360.00804230242</ele>
        <time>2025-10-12T07:19:22Z</time>
      </trkpt>
      <trkpt lat="47.61344" lon="7.12715">
        <ele>360.10344975438</ele>
        <time>2025-10-12T07:19:24Z</time>
      </trkpt>
      <trkpt lat="47.61342" lon="7.12717">
        <ele>360.17546889238</ele>
        <time>2025-10-12T07:19:26Z</time>
      </trkpt>
      <trkpt lat="47.61339" lon="7.12718">
        <ele>360.21738781423</ele>
        <time>2025-10-12T07:19:28Z</time>
      </trkpt>
      <trkpt lat="47.61336" lon="7.1272">
        <ele>360.27265899319</ele>
        <time>2025-10-12T07:19:30Z</time>
      </trkpt>
      <trkpt lat="47.61333" lon="7.12721">
        <ele>360.34336215664</ele>
        <time>2025-10-12T07:19:32Z</time>
      </trkpt>
      <trkpt lat="47.6133" lon="7.12723">
        <ele>360.38905270879</ele>
        <time>2025-10-12T07:19:34Z</time>
      </trkpt>
      <trkpt lat="47.61328" lon="7.12724">
        <ele>360.39892381031</ele>
        <time>2025-10-12T07:19:35Z</time>
      </trkpt>
      <trkpt lat="47.61326" lon="7.12725">
        <ele>360.39991092046</ele>
        <time>2025-10-12T07:19:36Z</time>
      </trkpt>
      <trkpt lat="47.61323" lon="7.12726">
        <ele>360.40001950258</ele>
        <time>2025-10-12T07:19:38Z</time>
      </trkpt>
      <trkpt lat="47.61321" lon="7.12727">
        <ele>360.40002048969</ele>
        <time>2025-10-12T07:19:39Z</time>
      </trkpt>
      <trkpt lat="47.61319" lon="7.12727">
        <ele>360.4000205884</ele>
        <time>2025-10-12T07:19:40Z</time>
      </trkpt>
      <trkpt lat="47.61316" lon="7.12727">
        <ele>360.40002059926</ele>
        <time>2025-10-12T07:19:42Z</time>
      </trkpt>
      <trkpt lat="47.61313" lon="7.12729">
        <ele>360.40002059936</ele>
        <time>2025-10-12T07:19:44Z</time>
      </trkpt>
      <trkpt lat="47.61311" lon="7.1273">
        <ele>360.40002059937</ele>
        <time>2025-10-12T07:19:46Z</time>
      </trkpt>
      <trkpt lat="47.61307" lon="7.12731">
        <ele>360.40002059937</ele>
        <time>2025-10-12T07:19:48Z</time>
      </trkpt>
      <trkpt lat="47.61305" lon="7.12733">
        <ele>360.40002059937</ele>
        <time>2025-10-12T07:19:50Z</time>
      </trkpt>
      <trkpt lat="47.61303" lon="7.12735">
        <ele>360.37585287476</ele>
        <time>2025-10-12T07:19:53Z</time>
      </trkpt>
      <trkpt lat="47.61301" lon="7.12736">
        <ele>360.33987322144</ele>
        <time>2025-10-12T07:19:55Z</time>
      </trkpt>
      <trkpt lat="47.61299" lon="7.12738">
        <ele>360.307675046</ele>
        <time>2025-10-12T07:19:57Z</time>
      </trkpt>
      <trkpt lat="47.61295" lon="7.12739">
        <ele>360.27472092313</ele>
        <time>2025-10-12T07:19:59Z</time>
      </trkpt>
      <trkpt lat="47.61294" lon="7.12741">
        <ele>360.2558744208</ele>
        <time>2025-10-12T07:20:00Z</time>
      </trkpt>
      <trkpt lat="47.61292" lon="7.12742">
        <ele>360.25377004401</ele>
        <time>2025-10-12T07:20:01Z</time>
      </trkpt>
      <trkpt lat="47.61289" lon="7.12744">
        <ele>360.26862279108</ele>
        <time>2025-10-12T07:20:03Z</time>
      </trkpt>
      <trkpt lat="47.61287" lon="7.12745">
        <ele>360.2866323415</ele>
        <time>2025-10-12T07:20:05Z</time>
      </trkpt>
      <trkpt lat="47.61285" lon="7.12746">
        <ele>360.27445556444</ele>
        <time>2025-10-12T07:20:07Z</time>
      </trkpt>
      <trkpt lat="47.61283" lon="7.12747">
        <ele>360.29433715361</ele>
        <time>2025-10-12T07:20:09Z</time>
      </trkpt>
      <trkpt lat="47.6128" lon="7.12749">
        <ele>360.33504530788</ele>
        <time>2025-10-12T07:20:11Z</time>
      </trkpt>
      <trkpt lat="47.61278" lon="7.1275">
        <ele>360.36278912038</ele>
        <time>2025-10-12T07:20:13Z</time>
      </trkpt>
      <trkpt lat="47.61275" lon="7.12753">
        <ele>360.44221206631</ele>
        <time>2025-10-12T07:20:15Z</time>
      </trkpt>
      <trkpt lat="47.61272" lon="7.12755">
        <ele>360.52898804626</ele>
        <time>2025-10-12T07:20:17Z</time>
      </trkpt>
      <trkpt lat="47.6127" lon="7.12756">
        <ele>360.57232896515</ele>
        <time>2025-10-12T07:20:18Z</time>
      </trkpt>
      <trkpt lat="47.61267" lon="7.12757">
        <ele>360.60725119035</ele>
        <time>2025-10-12T07:20:20Z</time>
      </trkpt>
      <trkpt lat="47.61264" lon="7.1276">
        <ele>360.69733399414</ele>
        <time>2025-10-12T07:20:22Z</time>
      </trkpt>
      <trkpt lat="47.61262" lon="7.12763">
        <ele>360.78740810099</ele>
        <time>2025-10-12T07:20:24Z</time>
      </trkpt>
      <trkpt lat="47.6126" lon="7.12765">
        <ele>360.85596516007</ele>
        <time>2025-10-12T07:20:25Z</time>
      </trkpt>
      <trkpt lat="47.61258" lon="7.12768">
        <ele>360.98291683696</ele>
        <time>2025-10-12T07:20:27Z</time>
      </trkpt>
      <trkpt lat="47.61256" lon="7.12769">
        <ele>361.07431544309</ele>
        <time>2025-10-12T07:20:29Z</time>
      </trkpt>
      <trkpt lat="47.61253" lon="7.12771">
        <ele>361.10660912886</ele>
        <time>2025-10-12T07:20:31Z</time>
      </trkpt>
      <trkpt lat="47.61251" lon="7.12772">
        <ele>361.16584625029</ele>
        <time>2025-10-12T07:20:33Z</time>
      </trkpt>
      <trkpt lat="47.61249" lon="7.12773">
        <ele>361.18252535246</ele>
        <time>2025-10-12T07:20:35Z</time>
      </trkpt>
      <trkpt lat="47.61246" lon="7.12773">
        <ele>361.11797443108</ele>
        <time>2025-10-12T07:20:37Z</time>
      </trkpt>
      <trkpt lat="47.61244" lon="7.12776">
        <ele>361.10273633153</ele>
        <time>2025-10-12T07:20:39Z</time>
      </trkpt>
      <trkpt lat="47.61241" lon="7.12778">
        <ele>361.08968325473</ele>
        <time>2025-10-12T07:20:41Z</time>
      </trkpt>
      <trkpt lat="47.61239" lon="7.12779">
        <ele>361.07570683561</ele>
        <time>2025-10-12T07:20:42Z</time>
      </trkpt>
      <trkpt lat="47.61237" lon="7.1278">
        <ele>361.03574718197</ele>
        <time>2025-10-12T07:20:43Z</time>
      </trkpt>
      <trkpt lat="47.61233" lon="7.1278">
        <ele>360.93058776509</ele>
        <time>2025-10-12T07:20:45Z</time>
      </trkpt>
      <trkpt lat="47.6123" lon="7.12782">
        <ele>360.86177249905</ele>
        <time>2025-10-12T07:20:47Z</time>
      </trkpt>
      <trkpt lat="47.61227" lon="7.12784">
        <ele>360.82139074287</ele>
        <time>2025-10-12T07:20:49Z</time>
      </trkpt>
      <trkpt lat="47.61225" lon="7.12784">
        <ele>360.77320189113</ele>
        <time>2025-10-12T07:20:51Z</time>
      </trkpt>
      <trkpt lat="47.61222" lon="7.12785">
        <ele>360.70199826189</ele>
        <time>2025-10-12T07:20:53Z</time>
      </trkpt>
      <trkpt lat="47.61219" lon="7.12786">
        <ele>360.68497976808</ele>
        <time>2025-10-12T07:20:55Z</time>
      </trkpt>
      <trkpt lat="47.61216" lon="7.12787">
        <ele>360.71763673158</ele>
        <time>2025-10-12T07:20:57Z</time>
      </trkpt>
      <trkpt lat="47.61214" lon="7.12787">
        <ele>360.73575291303</ele>
        <time>2025-10-12T07:20:59Z</time>
      </trkpt>
      <trkpt lat="47.61211" lon="7.1279">
        <ele>360.77448235365</ele>
        <time>2025-10-12T07:21:01Z</time>
      </trkpt>
      <trkpt lat="47.61208" lon="7.12792">
        <ele>360.85020290001</ele>
        <time>2025-10-12T07:21:03Z</time>
      </trkpt>
      <trkpt lat="47.61206" lon="7.12792">
        <ele>360.9178614677</ele>
        <time>2025-10-12T07:21:06Z</time>
      </trkpt>
      <trkpt lat="47.61203" lon="7.12793">
        <ele>360.92843387133</ele>
        <time>2025-10-12T07:21:08Z</time>
      </trkpt>
      <trkpt lat="47.61201" lon="7.12795">
        <ele>360.97305178974</ele>
        <time>2025-10-12T07:21:11Z</time>
      </trkpt>
      <trkpt lat="47.61197" lon="7.12796">
        <ele>361.05258745912</ele>
        <time>2025-10-12T07:21:13Z</time>
      </trkpt>
      <trkpt lat="47.61194" lon="7.12797">
        <ele>361.07020563076</ele>
        <time>2025-10-12T07:21:15Z</time>
      </trkpt>
      <trkpt lat="47.61191" lon="7.12798">
        <ele>361.12238285007</ele>
        <time>2025-10-12T07:21:17Z</time>
      </trkpt>
      <trkpt lat="47.61188" lon="7.12798">
        <ele>361.17657558174</ele>
        <time>2025-10-12T07:21:19Z</time>
      </trkpt>
      <trkpt lat="47.61185" lon="7.12799">
        <ele>361.2092552654</ele>
        <time>2025-10-12T07:21:21Z</time>
      </trkpt>
      <trkpt lat="47.61182" lon="7.128">
        <ele>361.26284378099</ele>
        <time>2025-10-12T07:21:23Z</time>
      </trkpt>
      <trkpt lat="47.61179" lon="7.12801">
        <ele>361.30563308411</ele>
        <time>2025-10-12T07:21:25Z</time>
      </trkpt>
      <trkpt lat="47.61177" lon="7.12803">
        <ele>361.33756152646</ele>
        <time>2025-10-12T07:21:27Z</time>
      </trkpt>
      <trkpt lat="47.61174" lon="7.12803">
        <ele>361.36886774936</ele>
        <time>2025-10-12T07:21:29Z</time>
      </trkpt>
      <trkpt lat="47.61171" lon="7.12804">
        <ele>361.38392721051</ele>
        <time>2025-10-12T07:21:31Z</time>
      </trkpt>
      <trkpt lat="47.61167" lon="7.12804">
        <ele>361.39622319087</ele>
        <time>2025-10-12T07:21:33Z</time>
      </trkpt>
      <trkpt lat="47.61165" lon="7.12804">
        <ele>361.39895421301</ele>
        <time>2025-10-12T07:21:34Z</time>
      </trkpt>
      <trkpt lat="47.61163" lon="7.12805">
        <ele>361.48663987935</ele>
        <time>2025-10-12T07:21:36Z</time>
      </trkpt>
      <trkpt lat="47.61161" lon="7.12806">
        <ele>361.53648098928</ele>
        <time>2025-10-12T07:21:37Z</time>
      </trkpt>
      <trkpt lat="47.61158" lon="7.12807">
        <ele>361.69374787416</ele>
        <time>2025-10-12T07:21:39Z</time>
      </trkpt>
      <trkpt lat="47.61154" lon="7.12808">
        <ele>361.82159190532</ele>
        <time>2025-10-12T07:21:41Z</time>
      </trkpt>
      <trkpt lat="47.61152" lon="7.12809">
        <ele>361.89536376512</ele>
        <time>2025-10-12T07:21:42Z</time>
      </trkpt>
      <trkpt lat="47.61149" lon="7.1281">
        <ele>362.0221227737</ele>
        <time>2025-10-12T07:21:44Z</time>
      </trkpt>
      <trkpt lat="47.61146" lon="7.12811">
        <ele>362.12104508791</ele>
        <time>2025-10-12T07:21:46Z</time>
      </trkpt>
      <trkpt lat="47.61143" lon="7.12813">
        <ele>362.22694275831</ele>
        <time>2025-10-12T07:21:48Z</time>
      </trkpt>
      <trkpt lat="47.61141" lon="7.12814">
        <ele>362.32604098062</ele>
        <time>2025-10-12T07:21:50Z</time>
      </trkpt>
      <trkpt lat="47.61138" lon="7.12815">
        <ele>362.38314188716</ele>
        <time>2025-10-12T07:21:52Z</time>
      </trkpt>
      <trkpt lat="47.61136" lon="7.12816">
        <ele>362.42621899974</ele>
        <time>2025-10-12T07:21:54Z</time>
      </trkpt>
      <trkpt lat="47.61133" lon="7.12818">
        <ele>362.46467070593</ele>
        <time>2025-10-12T07:21:56Z</time>
      </trkpt>
      <trkpt lat="47.61131" lon="7.1282">
        <ele>362.51822355795</ele>
        <time>2025-10-12T07:21:58Z</time>
      </trkpt>
      <trkpt lat="47.61129" lon="7.12821">
        <ele>362.57224327837</ele>
        <time>2025-10-12T07:22:00Z</time>
      </trkpt>
      <trkpt lat="47.61126" lon="7.12821">
        <ele>362.63326870506</ele>
        <time>2025-10-12T07:22:02Z</time>
      </trkpt>
      <trkpt lat="47.61123" lon="7.12821">
        <ele>362.69670427671</ele>
        <time>2025-10-12T07:22:04Z</time>
      </trkpt>
      <trkpt lat="47.6112" lon="7.12821">
        <ele>362.75078711876</ele>
        <time>2025-10-12T07:22:06Z</time>
      </trkpt>
      <trkpt lat="47.61118" lon="7.12821">
        <ele>362.76427510775</ele>
        <time>2025-10-12T07:22:07Z</time>
      </trkpt>
      <trkpt lat="47.61115" lon="7.12822">
        <ele>362.85918652091</ele>
        <time>2025-10-12T07:22:09Z</time>
      </trkpt>
      <trkpt lat="47.61111" lon="7.12821">
        <ele>362.91861036649</ele>
        <time>2025-10-12T07:22:11Z</time>
      </trkpt>
      <trkpt lat="47.61108" lon="7.1282">
        <ele>362.94905171188</ele>
        <time>2025-10-12T07:22:13Z</time>
      </trkpt>
      <trkpt lat="47.61105" lon="7.1282">
        <ele>362.98302922104</ele>
        <time>2025-10-12T07:22:15Z</time>
      </trkpt>
      <trkpt lat="47.61102" lon="7.12821">
        <ele>363.07478897904</ele>
        <time>2025-10-12T07:22:17Z</time>
      </trkpt>
      <trkpt lat="47.61101" lon="7.12822">
        <ele>363.10250720296</ele>
        <time>2025-10-12T07:22:18Z</time>
      </trkpt>
      <trkpt lat="47.61098" lon="7.12822">
        <ele>363.16769213288</ele>
        <time>2025-10-12T07:22:20Z</time>
      </trkpt>
      <trkpt lat="47.61095" lon="7.12823">
        <ele>363.21500017115</ele>
        <time>2025-10-12T07:22:22Z</time>
      </trkpt>
      <trkpt lat="47.61092" lon="7.12822">
        <ele>363.25734764118</ele>
        <time>2025-10-12T07:22:24Z</time>
      </trkpt>
      <trkpt lat="47.6109" lon="7.12822">
        <ele>363.26792493441</ele>
        <time>2025-10-12T07:22:25Z</time>
      </trkpt>
      <trkpt lat="47.61087" lon="7.12822">
        <ele>363.31915588051</ele>
        <time>2025-10-12T07:22:27Z</time>
      </trkpt>
      <trkpt lat="47.61084" lon="7.12823">
        <ele>363.36451438138</ele>
        <time>2025-10-12T07:22:29Z</time>
      </trkpt>
      <trkpt lat="47.61082" lon="7.12825">
        <ele>363.42641175301</ele>
        <time>2025-10-12T07:22:31Z</time>
      </trkpt>
      <trkpt lat="47.61078" lon="7.12825">
        <ele>363.51235055094</ele>
        <time>2025-10-12T07:22:33Z</time>
      </trkpt>
      <trkpt lat="47.61075" lon="7.12826">
        <ele>363.61952738277</ele>
        <time>2025-10-12T07:22:35Z</time>
      </trkpt>
      <trkpt lat="47.61073" lon="7.12825">
        <ele>363.73127267404</ele>
        <time>2025-10-12T07:22:37Z</time>
      </trkpt>
      <trkpt lat="47.61069" lon="7.12825">
        <ele>363.82636717773</ele>
        <time>2025-10-12T07:22:39Z</time>
      </trkpt>
      <trkpt lat="47.61066" lon="7.12826">
        <ele>363.95730286398</ele>
        <time>2025-10-12T07:22:41Z</time>
      </trkpt>
      <trkpt lat="47.61064" lon="7.12827">
        <ele>364.06520432289</ele>
        <time>2025-10-12T07:22:43Z</time>
      </trkpt>
      <trkpt lat="47.61062" lon="7.12829">
        <ele>364.10520169144</ele>
        <time>2025-10-12T07:22:44Z</time>
      </trkpt>
      <trkpt lat="47.6106" lon="7.1283">
        <ele>364.16913184822</ele>
        <time>2025-10-12T07:22:45Z</time>
      </trkpt>
      <trkpt lat="47.61057" lon="7.12832">
        <ele>364.28180869672</ele>
        <time>2025-10-12T07:22:47Z</time>
      </trkpt>
      <trkpt lat="47.61053" lon="7.12834">
        <ele>364.40837461315</ele>
        <time>2025-10-12T07:22:49Z</time>
      </trkpt>
      <trkpt lat="47.61052" lon="7.12835">
        <ele>364.48731840309</ele>
        <time>2025-10-12T07:22:50Z</time>
      </trkpt>
      <trkpt lat="47.6105" lon="7.12836">
        <ele>364.57815955942</ele>
        <time>2025-10-12T07:22:51Z</time>
      </trkpt>
      <trkpt lat="47.61047" lon="7.12837">
        <ele>364.74675071943</ele>
        <time>2025-10-12T07:22:53Z</time>
      </trkpt>
      <trkpt lat="47.61044" lon="7.12837">
        <ele>364.88476597674</ele>
        <time>2025-10-12T07:22:55Z</time>
      </trkpt>
      <trkpt lat="47.61041" lon="7.12839">
        <ele>365.05291309708</ele>
        <time>2025-10-12T07:22:57Z</time>
      </trkpt>
      <trkpt lat="47.61038" lon="7.12839">
        <ele>365.18467818645</ele>
        <time>2025-10-12T07:22:59Z</time>
      </trkpt>
      <trkpt lat="47.61036" lon="7.12839">
        <ele>365.28215642084</ele>
        <time>2025-10-12T07:23:01Z</time>
      </trkpt>
      <trkpt lat="47.61033" lon="7.1284">
        <ele>365.37859964801</ele>
        <time>2025-10-12T07:23:03Z</time>
      </trkpt>
      <trkpt lat="47.61031" lon="7.12841">
        <ele>365.50254229073</ele>
        <time>2025-10-12T07:23:05Z</time>
      </trkpt>
      <trkpt lat="47.61028" lon="7.12844">
        <ele>365.67612149987</ele>
        <time>2025-10-12T07:23:07Z</time>
      </trkpt>
      <trkpt lat="47.61025" lon="7.12846">
        <ele>365.86411675241</ele>
        <time>2025-10-12T07:23:09Z</time>
      </trkpt>
      <trkpt lat="47.61023" lon="7.12846">
        <ele>365.97774414146</ele>
        <time>2025-10-12T07:23:11Z</time>
      </trkpt>
      <trkpt lat="47.61021" lon="7.1285">
        <ele>366.01661253365</ele>
        <time>2025-10-12T07:23:12Z</time>
      </trkpt>
      <trkpt lat="47.61018" lon="7.12854">
        <ele>366.23896250764</ele>
        <time>2025-10-12T07:23:13Z</time>
      </trkpt>
      <trkpt lat="47.61016" lon="7.12855">
        <ele>366.54251493788</ele>
        <time>2025-10-12T07:23:15Z</time>
      </trkpt>
      <trkpt lat="47.61014" lon="7.12855">
        <ele>366.66401878494</ele>
        <time>2025-10-12T07:23:17Z</time>
      </trkpt>
      <trkpt lat="47.6101" lon="7.12854">
        <ele>366.74475561296</ele>
        <time>2025-10-12T07:23:19Z</time>
      </trkpt>
      <trkpt lat="47.61007" lon="7.12854">
        <ele>366.82482109892</ele>
        <time>2025-10-12T07:23:21Z</time>
      </trkpt>
      <trkpt lat="47.61006" lon="7.12855">
        <ele>366.85981632315</ele>
        <time>2025-10-12T07:23:22Z</time>
      </trkpt>
      <trkpt lat="47.61004" lon="7.12855">
        <ele>366.95208537682</ele>
        <time>2025-10-12T07:23:23Z</time>
      </trkpt>
      <trkpt lat="47.61001" lon="7.12854">
        <ele>367.06499559284</ele>
        <time>2025-10-12T07:23:25Z</time>
      </trkpt>
      <trkpt lat="47.60998" lon="7.12855">
        <ele>367.18799328631</ele>
        <time>2025-10-12T07:23:27Z</time>
      </trkpt>
      <trkpt lat="47.60996" lon="7.12855">
        <ele>367.27458507997</ele>
        <time>2025-10-12T07:23:28Z</time>
      </trkpt>
      <trkpt lat="47.60994" lon="7.12856">
        <ele>367.36880028961</ele>
        <time>2025-10-12T07:23:29Z</time>
      </trkpt>
      <trkpt lat="47.60991" lon="7.12858">
        <ele>367.55136641629</ele>
        <time>2025-10-12T07:23:31Z</time>
      </trkpt>
      <trkpt lat="47.60988" lon="7.12858">
        <ele>367.70713250724</ele>
        <time>2025-10-12T07:23:33Z</time>
      </trkpt>
      <trkpt lat="47.60985" lon="7.12857">
        <ele>367.81276365448</ele>
        <time>2025-10-12T07:23:35Z</time>
      </trkpt>
      <trkpt lat="47.60983" lon="7.12856">
        <ele>367.88069309824</ele>
        <time>2025-10-12T07:23:36Z</time>
      </trkpt>
      <trkpt lat="47.6098" lon="7.12856">
        <ele>367.95958382093</ele>
        <time>2025-10-12T07:23:37Z</time>
      </trkpt>
      <trkpt lat="47.60979" lon="7.12856">
        <ele>368.04668431898</ele>
        <time>2025-10-12T07:23:38Z</time>
      </trkpt>
      <trkpt lat="47.60976" lon="7.12856">
        <ele>368.17512645775</ele>
        <time>2025-10-12T07:23:40Z</time>
      </trkpt>
      <trkpt lat="47.60973" lon="7.12857">
        <ele>368.28960027123</ele>
        <time>2025-10-12T07:23:42Z</time>
      </trkpt>
      <trkpt lat="47.60971" lon="7.1286">
        <ele>368.39187415976</ele>
        <time>2025-10-12T07:23:44Z</time>
      </trkpt>
      <trkpt lat="47.6097" lon="7.12863">
        <ele>368.46074571456</ele>
        <time>2025-10-12T07:23:46Z</time>
      </trkpt>
      <trkpt lat="47.60967" lon="7.12863">
        <ele>368.66209971331</ele>
        <time>2025-10-12T07:23:48Z</time>
      </trkpt>
      <trkpt lat="47.60965" lon="7.12865">
        <ele>368.78431466931</ele>
        <time>2025-10-12T07:23:50Z</time>
      </trkpt>
      <trkpt lat="47.60963" lon="7.12866">
        <ele>368.88232512843</ele>
        <time>2025-10-12T07:23:51Z</time>
      </trkpt>
      <trkpt lat="47.6096" lon="7.12867">
        <ele>369.10708973841</ele>
        <time>2025-10-12T07:23:53Z</time>
      </trkpt>
      <trkpt lat="47.60959" lon="7.12868">
        <ele>369.17583762865</ele>
        <time>2025-10-12T07:23:55Z</time>
      </trkpt>
      <trkpt lat="47.60957" lon="7.1287">
        <ele>369.26095496343</ele>
        <time>2025-10-12T07:23:56Z</time>
      </trkpt>
      <trkpt lat="47.60955" lon="7.12872">
        <ele>369.41168471448</ele>
        <time>2025-10-12T07:23:57Z</time>
      </trkpt>
      <trkpt lat="47.60952" lon="7.12872">
        <ele>369.59481772147</ele>
        <time>2025-10-12T07:23:59Z</time>
      </trkpt>
      <trkpt lat="47.6095" lon="7.12873">
        <ele>369.64302234256</ele>
        <time>2025-10-12T07:24:01Z</time>
      </trkpt>
      <trkpt lat="47.60948" lon="7.12872">
        <ele>369.71361089512</ele>
        <time>2025-10-12T07:24:03Z</time>
      </trkpt>
      <trkpt lat="47.60946" lon="7.12873">
        <ele>369.75312323816</ele>
        <time>2025-10-12T07:24:05Z</time>
      </trkpt>
      <trkpt lat="47.60942" lon="7.12875">
        <ele>369.85599333718</ele>
        <time>2025-10-12T07:24:07Z</time>
      </trkpt>
      <trkpt lat="47.6094" lon="7.12875">
        <ele>370.07338678426</ele>
        <time>2025-10-12T07:24:09Z</time>
      </trkpt>
      <trkpt lat="47.60937" lon="7.12876">
        <ele>370.24901286717</ele>
        <time>2025-10-12T07:24:11Z</time>
      </trkpt>
      <trkpt lat="47.60934" lon="7.12877">
        <ele>370.39515145222</ele>
        <time>2025-10-12T07:24:13Z</time>
      </trkpt>
      <trkpt lat="47.60931" lon="7.12878">
        <ele>370.58569853143</ele>
        <time>2025-10-12T07:24:15Z</time>
      </trkpt>
      <trkpt lat="47.60929" lon="7.12881">
        <ele>370.75089379714</ele>
        <time>2025-10-12T07:24:17Z</time>
      </trkpt>
      <trkpt lat="47.60926" lon="7.12882">
        <ele>370.89666714873</ele>
        <time>2025-10-12T07:24:19Z</time>
      </trkpt>
      <trkpt lat="47.60924" lon="7.12884">
        <ele>371.01802142765</ele>
        <time>2025-10-12T07:24:21Z</time>
      </trkpt>
      <trkpt lat="47.60922" lon="7.12886">
        <ele>371.13807133519</ele>
        <time>2025-10-12T07:24:23Z</time>
      </trkpt>
      <trkpt lat="47.60919" lon="7.12887">
        <ele>371.24923948563</ele>
        <time>2025-10-12T07:24:25Z</time>
      </trkpt>
      <trkpt lat="47.60916" lon="7.12889">
        <ele>371.37049490493</ele>
        <time>2025-10-12T07:24:27Z</time>
      </trkpt>
      <trkpt lat="47.60913" lon="7.1289">
        <ele>371.60563110414</ele>
        <time>2025-10-12T07:24:29Z</time>
      </trkpt>
      <trkpt lat="47.6091" lon="7.12892">
        <ele>371.92400968781</ele>
        <time>2025-10-12T07:24:31Z</time>
      </trkpt>
      <trkpt lat="47.60907" lon="7.12894">
        <ele>372.26613542921</ele>
        <time>2025-10-12T07:24:33Z</time>
      </trkpt>
      <trkpt lat="47.60905" lon="7.12895">
        <ele>372.58313121055</ele>
        <time>2025-10-12T07:24:35Z</time>
      </trkpt>
      <trkpt lat="47.60903" lon="7.12897">
        <ele>372.72762426302</ele>
        <time>2025-10-12T07:24:36Z</time>
      </trkpt>
      <trkpt lat="47.60901" lon="7.12899">
        <ele>373.06247357692</ele>
        <time>2025-10-12T07:24:38Z</time>
      </trkpt>
      <trkpt lat="47.60899" lon="7.12902">
        <ele>373.36660850805</ele>
        <time>2025-10-12T07:24:40Z</time>
      </trkpt>
      <trkpt lat="47.60897" lon="7.12903">
        <ele>373.56883473285</ele>
        <time>2025-10-12T07:24:42Z</time>
      </trkpt>
      <trkpt lat="47.60894" lon="7.12905">
        <ele>373.70673590134</ele>
        <time>2025-10-12T07:24:44Z</time>
      </trkpt>
      <trkpt lat="47.60891" lon="7.12908">
        <ele>373.91678648285</ele>
        <time>2025-10-12T07:24:46Z</time>
      </trkpt>
      <trkpt lat="47.60889" lon="7.1291">
        <ele>374.09963405898</ele>
        <time>2025-10-12T07:24:48Z</time>
      </trkpt>
      <trkpt lat="47.60886" lon="7.12913">
        <ele>374.26008039363</ele>
        <time>2025-10-12T07:24:50Z</time>
      </trkpt>
      <trkpt lat="47.60884" lon="7.12914">
        <ele>374.41790769633</ele>
        <time>2025-10-12T07:24:52Z</time>
      </trkpt>
      <trkpt lat="47.60881" lon="7.12915">
        <ele>374.53068134289</ele>
        <time>2025-10-12T07:24:54Z</time>
      </trkpt>
      <trkpt lat="47.60879" lon="7.12916">
        <ele>374.63122021864</ele>
        <time>2025-10-12T07:24:55Z</time>
      </trkpt>
      <trkpt lat="47.60876" lon="7.12918">
        <ele>374.79622267124</ele>
        <time>2025-10-12T07:24:57Z</time>
      </trkpt>
      <trkpt lat="47.60875" lon="7.1292">
        <ele>374.87796783292</ele>
        <time>2025-10-12T07:24:58Z</time>
      </trkpt>
      <trkpt lat="47.60873" lon="7.12922">
        <ele>374.95815772995</ele>
        <time>2025-10-12T07:24:59Z</time>
      </trkpt>
      <trkpt lat="47.60871" lon="7.12924">
        <ele>375.04538814543</ele>
        <time>2025-10-12T07:25:00Z</time>
      </trkpt>
      <trkpt lat="47.60869" lon="7.12926">
        <ele>375.12609910202</ele>
        <time>2025-10-12T07:25:01Z</time>
      </trkpt>
      <trkpt lat="47.60867" lon="7.12929">
        <ele>375.23295063488</ele>
        <time>2025-10-12T07:25:03Z</time>
      </trkpt>
      <trkpt lat="47.60866" lon="7.12933">
        <ele>375.29845671124</ele>
        <time>2025-10-12T07:25:05Z</time>
      </trkpt>
      <trkpt lat="47.60864" lon="7.12936">
        <ele>375.34662214798</ele>
        <time>2025-10-12T07:25:07Z</time>
      </trkpt>
      <trkpt lat="47.60862" lon="7.12939">
        <ele>375.37863731065</ele>
        <time>2025-10-12T07:25:09Z</time>
      </trkpt>
      <trkpt lat="47.60861" lon="7.12941">
        <ele>375.39052143065</ele>
        <time>2025-10-12T07:25:10Z</time>
      </trkpt>
      <trkpt lat="47.60859" lon="7.12943">
        <ele>375.44425269508</ele>
        <time>2025-10-12T07:25:12Z</time>
      </trkpt>
      <trkpt lat="47.60858" lon="7.12944">
        <ele>375.50042477335</ele>
        <time>2025-10-12T07:25:14Z</time>
      </trkpt>
      <trkpt lat="47.60856" lon="7.12948">
        <ele>375.56013963134</ele>
        <time>2025-10-12T07:25:16Z</time>
      </trkpt>
      <trkpt lat="47.60854" lon="7.1295">
        <ele>375.62676461195</ele>
        <time>2025-10-12T07:25:18Z</time>
      </trkpt>
      <trkpt lat="47.60852" lon="7.12951">
        <ele>375.69121748285</ele>
        <time>2025-10-12T07:25:20Z</time>
      </trkpt>
      <trkpt lat="47.6085" lon="7.12954">
        <ele>375.7688789183</ele>
        <time>2025-10-12T07:25:22Z</time>
      </trkpt>
      <trkpt lat="47.60847" lon="7.12958">
        <ele>375.84977607709</ele>
        <time>2025-10-12T07:25:24Z</time>
      </trkpt>
      <trkpt lat="47.60846" lon="7.12959">
        <ele>375.89131572722</ele>
        <time>2025-10-12T07:25:25Z</time>
      </trkpt>
      <trkpt lat="47.60843" lon="7.12962">
        <ele>375.97992225914</ele>
        <time>2025-10-12T07:25:27Z</time>
      </trkpt>
      <trkpt lat="47.60841" lon="7.12965">
        <ele>376.07063803637</ele>
        <time>2025-10-12T07:25:29Z</time>
      </trkpt>
      <trkpt lat="47.60839" lon="7.12969">
        <ele>376.15569497442</ele>
        <time>2025-10-12T07:25:31Z</time>
      </trkpt>
      <trkpt lat="47.60837" lon="7.12971">
        <ele>376.21838758481</ele>
        <time>2025-10-12T07:25:33Z</time>
      </trkpt>
      <trkpt lat="47.60835" lon="7.12975">
        <ele>376.31476036053</ele>
        <time>2025-10-12T07:25:35Z</time>
      </trkpt>
      <trkpt lat="47.60833" lon="7.12978">
        <ele>376.48447958145</ele>
        <time>2025-10-12T07:25:37Z</time>
      </trkpt>
      <trkpt lat="47.60832" lon="7.12981">
        <ele>376.67307618772</ele>
        <time>2025-10-12T07:25:39Z</time>
      </trkpt>
      <trkpt lat="47.6083" lon="7.12984">
        <ele>376.81103057419</ele>
        <time>2025-10-12T07:25:41Z</time>
      </trkpt>
      <trkpt lat="47.60829" lon="7.12987">
        <ele>376.92809066005</ele>
        <time>2025-10-12T07:25:43Z</time>
      </trkpt>
      <trkpt lat="47.60826" lon="7.1299">
        <ele>377.04543344109</ele>
        <time>2025-10-12T07:25:45Z</time>
      </trkpt>
      <trkpt lat="47.60824" lon="7.12991">
        <ele>377.16447918335</ele>
        <time>2025-10-12T07:25:47Z</time>
      </trkpt>
      <trkpt lat="47.60822" lon="7.12993">
        <ele>377.22104897427</ele>
        <time>2025-10-12T07:25:49Z</time>
      </trkpt>
      <trkpt lat="47.60821" lon="7.12995">
        <ele>377.25297914975</ele>
        <time>2025-10-12T07:25:50Z</time>
      </trkpt>
      <trkpt lat="47.60818" lon="7.12997">
        <ele>377.33220100274</ele>
        <time>2025-10-12T07:25:52Z</time>
      </trkpt>
      <trkpt lat="47.60815" lon="7.13">
        <ele>377.37344488143</ele>
        <time>2025-10-12T07:25:54Z</time>
      </trkpt>
      <trkpt lat="47.60813" lon="7.13001">
        <ele>377.39312459316</ele>
        <time>2025-10-12T07:25:56Z</time>
      </trkpt>
      <trkpt lat="47.6081" lon="7.13004">
        <ele>377.38009934438</ele>
        <time>2025-10-12T07:25:58Z</time>
      </trkpt>
      <trkpt lat="47.60808" lon="7.13006">
        <ele>377.3749571848</ele>
        <time>2025-10-12T07:25:59Z</time>
      </trkpt>
      <trkpt lat="47.60807" lon="7.13009">
        <ele>377.3800852118</ele>
        <time>2025-10-12T07:26:01Z</time>
      </trkpt>
      <trkpt lat="47.60806" lon="7.13012">
        <ele>377.39036906922</ele>
        <time>2025-10-12T07:26:08Z</time>
      </trkpt>
      <trkpt lat="47.60806" lon="7.13013">
        <ele>377.39259407772</ele>
        <time>2025-10-12T07:26:11Z</time>
      </trkpt>
      <trkpt lat="47.60806" lon="7.13017">
        <ele>377.39931462028</ele>
        <time>2025-10-12T07:26:13Z</time>
      </trkpt>
      <trkpt lat="47.60805" lon="7.1302">
        <ele>377.39630565383</ele>
        <time>2025-10-12T07:26:15Z</time>
      </trkpt>
      <trkpt lat="47.60805" lon="7.13024">
        <ele>377.39998344991</ele>
        <time>2025-10-12T07:26:17Z</time>
      </trkpt>
      <trkpt lat="47.60805" lon="7.13027">
        <ele>377.40001688442</ele>
        <time>2025-10-12T07:26:18Z</time>
      </trkpt>
      <trkpt lat="47.60805" lon="7.13032">
        <ele>377.34613262276</ele>
        <time>2025-10-12T07:26:20Z</time>
      </trkpt>
      <trkpt lat="47.60805" lon="7.13036">
        <ele>377.19080465661</ele>
        <time>2025-10-12T07:26:22Z</time>
      </trkpt>
      <trkpt lat="47.60805" lon="7.13041">
        <ele>377.03403927978</ele>
        <time>2025-10-12T07:26:24Z</time>
      </trkpt>
      <trkpt lat="47.60805" lon="7.13045">
        <ele>376.8773886182</ele>
        <time>2025-10-12T07:26:26Z</time>
      </trkpt>
      <trkpt lat="47.60805" lon="7.13049">
        <ele>376.74907009742</ele>
        <time>2025-10-12T07:26:28Z</time>
      </trkpt>
      <trkpt lat="47.60805" lon="7.13054">
        <ele>376.5960519879</ele>
        <time>2025-10-12T07:26:30Z</time>
      </trkpt>
      <trkpt lat="47.60805" lon="7.13057">
        <ele>376.40934999284</ele>
        <time>2025-10-12T07:26:32Z</time>
      </trkpt>
      <trkpt lat="47.60806" lon="7.13061">
        <ele>376.27579260424</ele>
        <time>2025-10-12T07:26:34Z</time>
      </trkpt>
      <trkpt lat="47.60806" lon="7.13064">
        <ele>376.12536431795</ele>
        <time>2025-10-12T07:26:36Z</time>
      </trkpt>
      <trkpt lat="47.60806" lon="7.13069">
        <ele>375.99848680511</ele>
        <time>2025-10-12T07:26:38Z</time>
      </trkpt>
      <trkpt lat="47.60807" lon="7.13073">
        <ele>375.81109315205</ele>
        <time>2025-10-12T07:26:40Z</time>
      </trkpt>
      <trkpt lat="47.60807" lon="7.13078">
        <ele>375.63629990399</ele>
        <time>2025-10-12T07:26:42Z</time>
      </trkpt>
      <trkpt lat="47.60807" lon="7.13081">
        <ele>375.52532699662</ele>
        <time>2025-10-12T07:26:43Z</time>
      </trkpt>
      <trkpt lat="47.60807" lon="7.13084">
        <ele>375.4013451844</ele>
        <time>2025-10-12T07:26:44Z</time>
      </trkpt>
      <trkpt lat="47.60808" lon="7.13089">
        <ele>375.18936276367</ele>
        <time>2025-10-12T07:26:46Z</time>
      </trkpt>
      <trkpt lat="47.60808" lon="7.13094">
        <ele>374.96054555177</ele>
        <time>2025-10-12T07:26:48Z</time>
      </trkpt>
      <trkpt lat="47.60809" lon="7.13096">
        <ele>374.79916985524</ele>
        <time>2025-10-12T07:26:50Z</time>
      </trkpt>
      <trkpt lat="47.60809" lon="7.131">
        <ele>374.64072626429</ele>
        <time>2025-10-12T07:26:52Z</time>
      </trkpt>
      <trkpt lat="47.60809" lon="7.13103">
        <ele>374.47825529273</ele>
        <time>2025-10-12T07:26:54Z</time>
      </trkpt>
      <trkpt lat="47.6081" lon="7.13107">
        <ele>374.33869157698</ele>
        <time>2025-10-12T07:26:57Z</time>
      </trkpt>
      <trkpt lat="47.60811" lon="7.1311">
        <ele>374.12136531695</ele>
        <time>2025-10-12T07:26:59Z</time>
      </trkpt>
      <trkpt lat="47.60812" lon="7.13115">
        <ele>373.93736283072</ele>
        <time>2025-10-12T07:27:01Z</time>
      </trkpt>
      <trkpt lat="47.60812" lon="7.1312">
        <ele>373.79182712715</ele>
        <time>2025-10-12T07:27:03Z</time>
      </trkpt>
      <trkpt lat="47.60812" lon="7.13123">
        <ele>373.73149251191</ele>
        <time>2025-10-12T07:27:04Z</time>
      </trkpt>
      <trkpt lat="47.60812" lon="7.13126">
        <ele>373.64558844492</ele>
        <time>2025-10-12T07:27:05Z</time>
      </trkpt>
      <trkpt lat="47.60812" lon="7.1313">
        <ele>373.46986366796</ele>
        <time>2025-10-12T07:27:07Z</time>
      </trkpt>
      <trkpt lat="47.60813" lon="7.13133">
        <ele>373.39901235251</ele>
        <time>2025-10-12T07:27:08Z</time>
      </trkpt>
      <trkpt lat="47.60814" lon="7.13138">
        <ele>373.20679671074</ele>
        <time>2025-10-12T07:27:10Z</time>
      </trkpt>
      <trkpt lat="47.60813" lon="7.13141">
        <ele>373.14174557378</ele>
        <time>2025-10-12T07:27:11Z</time>
      </trkpt>
      <trkpt lat="47.60813" lon="7.13144">
        <ele>373.10653867786</ele>
        <time>2025-10-12T07:27:12Z</time>
      </trkpt>
      <trkpt lat="47.60814" lon="7.13148">
        <ele>373.03956045056</ele>
        <time>2025-10-12T07:27:14Z</time>
      </trkpt>
      <trkpt lat="47.60815" lon="7.13152">
        <ele>372.97043760432</ele>
        <time>2025-10-12T07:27:16Z</time>
      </trkpt>
      <trkpt lat="47.60815" lon="7.13156">
        <ele>372.88038083631</ele>
        <time>2025-10-12T07:27:18Z</time>
      </trkpt>
      <trkpt lat="47.60815" lon="7.13159">
        <ele>372.85743894783</ele>
        <time>2025-10-12T07:27:20Z</time>
      </trkpt>
      <trkpt lat="47.60815" lon="7.13164">
        <ele>372.81034185316</ele>
        <time>2025-10-12T07:27:22Z</time>
      </trkpt>
      <trkpt lat="47.60816" lon="7.13169">
        <ele>372.69202054042</ele>
        <time>2025-10-12T07:27:24Z</time>
      </trkpt>
      <trkpt lat="47.60816" lon="7.13172">
        <ele>372.5680788434</ele>
        <time>2025-10-12T07:27:26Z</time>
      </trkpt>
      <trkpt lat="47.60817" lon="7.13178">
        <ele>372.46803663102</ele>
        <time>2025-10-12T07:27:28Z</time>
      </trkpt>
      <trkpt lat="47.60817" lon="7.1318">
        <ele>372.38789825234</ele>
        <time>2025-10-12T07:27:29Z</time>
      </trkpt>
      <trkpt lat="47.60817" lon="7.13184">
        <ele>372.24445931242</ele>
        <time>2025-10-12T07:27:31Z</time>
      </trkpt>
      <trkpt lat="47.60817" lon="7.13189">
        <ele>372.13838014763</ele>
        <time>2025-10-12T07:27:33Z</time>
      </trkpt>
      <trkpt lat="47.60818" lon="7.13194">
        <ele>372.03859346487</ele>
        <time>2025-10-12T07:27:35Z</time>
      </trkpt>
      <trkpt lat="47.60817" lon="7.13196">
        <ele>371.9936386281</ele>
        <time>2025-10-12T07:27:36Z</time>
      </trkpt>
      <trkpt lat="47.60817" lon="7.13199">
        <ele>372.03111091786</ele>
        <time>2025-10-12T07:27:37Z</time>
      </trkpt>
      <trkpt lat="47.60817" lon="7.13202">
        <ele>372.14255162829</ele>
        <time>2025-10-12T07:27:38Z</time>
      </trkpt>
      <trkpt lat="47.60817" lon="7.13207">
        <ele>372.36320976463</ele>
        <time>2025-10-12T07:27:40Z</time>
      </trkpt>
      <trkpt lat="47.60816" lon="7.13211">
        <ele>372.50355843584</ele>
        <time>2025-10-12T07:27:42Z</time>
      </trkpt>
      <trkpt lat="47.60817" lon="7.13214">
        <ele>372.5938460627</ele>
        <time>2025-10-12T07:27:43Z</time>
      </trkpt>
      <trkpt lat="47.60817" lon="7.13217">
        <ele>372.69279792109</ele>
        <time>2025-10-12T07:27:44Z</time>
      </trkpt>
      <trkpt lat="47.60817" lon="7.1322">
        <ele>372.80200951318</ele>
        <time>2025-10-12T07:27:45Z</time>
      </trkpt>
      <trkpt lat="47.60817" lon="7.13224">
        <ele>372.91969031594</ele>
        <time>2025-10-12T07:27:46Z</time>
      </trkpt>
      <trkpt lat="47.60817" lon="7.13227">
        <ele>372.96721889427</ele>
        <time>2025-10-12T07:27:47Z</time>
      </trkpt>
      <trkpt lat="47.60817" lon="7.13231">
        <ele>372.87117506522</ele>
        <time>2025-10-12T07:27:49Z</time>
      </trkpt>
      <trkpt lat="47.60818" lon="7.13235">
        <ele>372.7640784575</ele>
        <time>2025-10-12T07:27:51Z</time>
      </trkpt>
      <trkpt lat="47.60819" lon="7.13238">
        <ele>372.66581693967</ele>
        <time>2025-10-12T07:27:53Z</time>
      </trkpt>
      <trkpt lat="47.60819" lon="7.13243">
        <ele>372.58947086013</ele>
        <time>2025-10-12T07:27:55Z</time>
      </trkpt>
      <trkpt lat="47.60819" lon="7.13246">
        <ele>372.54451189009</ele>
        <time>2025-10-12T07:27:56Z</time>
      </trkpt>
      <trkpt lat="47.60819" lon="7.13248">
        <ele>372.49016552922</ele>
        <time>2025-10-12T07:27:57Z</time>
      </trkpt>
      <trkpt lat="47.60818" lon="7.13251">
        <ele>372.44037359333</ele>
        <time>2025-10-12T07:27:58Z</time>
      </trkpt>
      <trkpt lat="47.60819" lon="7.13255">
        <ele>372.4004241293</ele>
        <time>2025-10-12T07:28:00Z</time>
      </trkpt>
      <trkpt lat="47.60819" lon="7.13259">
        <ele>372.40002463466</ele>
        <time>2025-10-12T07:28:02Z</time>
      </trkpt>
      <trkpt lat="47.6082" lon="7.13263">
        <ele>372.40002063972</ele>
        <time>2025-10-12T07:28:04Z</time>
      </trkpt>
      <trkpt lat="47.6082" lon="7.13267">
        <ele>372.40002059977</ele>
        <time>2025-10-12T07:28:06Z</time>
      </trkpt>
      <trkpt lat="47.60821" lon="7.13271">
        <ele>372.40002059937</ele>
        <time>2025-10-12T07:28:08Z</time>
      </trkpt>
      <trkpt lat="47.60821" lon="7.13275">
        <ele>372.40002059937</ele>
        <time>2025-10-12T07:28:10Z</time>
      </trkpt>
      <trkpt lat="47.60821" lon="7.13279">
        <ele>372.40002059937</ele>
        <time>2025-10-12T07:28:12Z</time>
      </trkpt>
      <trkpt lat="47.60821" lon="7.13282">
        <ele>372.31582687378</ele>
        <time>2025-10-12T07:28:14Z</time>
      </trkpt>
      <trkpt lat="47.60821" lon="7.13286">
        <ele>372.17854298096</ele>
        <time>2025-10-12T07:28:16Z</time>
      </trkpt>
      <trkpt lat="47.60822" lon="7.1329">
        <ele>372.03859134564</ele>
        <time>2025-10-12T07:28:18Z</time>
      </trkpt>
      <trkpt lat="47.60821" lon="7.13294">
        <ele>371.88853307685</ele>
        <time>2025-10-12T07:28:20Z</time>
      </trkpt>
      <trkpt lat="47.60821" lon="7.13297">
        <ele>371.81054176899</ele>
        <time>2025-10-12T07:28:21Z</time>
      </trkpt>
      <trkpt lat="47.60821" lon="7.13301">
        <ele>371.62819746633</ele>
        <time>2025-10-12T07:28:23Z</time>
      </trkpt>
      <trkpt lat="47.60821" lon="7.13305">
        <ele>371.48571881091</ele>
        <time>2025-10-12T07:28:25Z</time>
      </trkpt>
      <trkpt lat="47.60822" lon="7.1331">
        <ele>371.32512135589</ele>
        <time>2025-10-12T07:28:27Z</time>
      </trkpt>
      <trkpt lat="47.60823" lon="7.13314">
        <ele>371.18458227588</ele>
        <time>2025-10-12T07:28:29Z</time>
      </trkpt>
      <trkpt lat="47.60823" lon="7.13317">
        <ele>371.05679565949</ele>
        <time>2025-10-12T07:28:31Z</time>
      </trkpt>
      <trkpt lat="47.60823" lon="7.1332">
        <ele>370.93443747106</ele>
        <time>2025-10-12T07:28:33Z</time>
      </trkpt>
      <trkpt lat="47.60823" lon="7.13324">
        <ele>370.79546053702</ele>
        <time>2025-10-12T07:28:37Z</time>
      </trkpt>
      <trkpt lat="47.60823" lon="7.13327">
        <ele>370.68572315911</ele>
        <time>2025-10-12T07:28:41Z</time>
      </trkpt>
      <trkpt lat="47.60825" lon="7.13326">
        <ele>370.65715135751</ele>
        <time>2025-10-12T07:29:10Z</time>
      </trkpt>
      <trkpt lat="47.60825" lon="7.13326">
        <ele>370.65501834315</ele>
        <time>2025-10-12T07:29:11Z</time>
      </trkpt>
      <trkpt lat="47.60827" lon="7.13328">
        <ele>370.61552047359</ele>
        <time>2025-10-12T07:29:21Z</time>
      </trkpt>
      <trkpt lat="47.60828" lon="7.13325">
        <ele>370.65676959093</ele>
        <time>2025-10-12T07:29:30Z</time>
      </trkpt>
      <trkpt lat="47.60828" lon="7.13328">
        <ele>370.63401820223</ele>
        <time>2025-10-12T07:29:51Z</time>
      </trkpt>
      <trkpt lat="47.60829" lon="7.13331">
        <ele>370.524219929</ele>
        <time>2025-10-12T07:29:54Z</time>
      </trkpt>
      <trkpt lat="47.60829" lon="7.13334">
        <ele>370.41623867077</ele>
        <time>2025-10-12T07:29:57Z</time>
      </trkpt>
      <trkpt lat="47.60828" lon="7.13337">
        <ele>370.40003681744</ele>
        <time>2025-10-12T07:30:00Z</time>
      </trkpt>
      <trkpt lat="47.60827" lon="7.1334">
        <ele>370.40002061558</ele>
        <time>2025-10-12T07:30:03Z</time>
      </trkpt>
      <trkpt lat="47.60826" lon="7.13343">
        <ele>370.40002059937</ele>
        <time>2025-10-12T07:30:07Z</time>
      </trkpt>
      <trkpt lat="47.60825" lon="7.13347">
        <ele>370.40002059937</ele>
        <time>2025-10-12T07:30:10Z</time>
      </trkpt>
      <trkpt lat="47.60825" lon="7.13349">
        <ele>370.40002059937</ele>
        <time>2025-10-12T07:30:13Z</time>
      </trkpt>
      <trkpt lat="47.60825" lon="7.13352">
        <ele>370.40002059937</ele>
        <time>2025-10-12T07:30:16Z</time>
      </trkpt>
      <trkpt lat="47.60826" lon="7.13356">
        <ele>370.40002059937</ele>
        <time>2025-10-12T07:30:20Z</time>
      </trkpt>
      <trkpt lat="47.60828" lon="7.13358">
        <ele>370.40002059937</ele>
        <time>2025-10-12T07:30:22Z</time>
      </trkpt>
      <trkpt lat="47.60829" lon="7.1336">
        <ele>370.40002059937</ele>
        <time>2025-10-12T07:30:25Z</time>
      </trkpt>
      <trkpt lat="47.60831" lon="7.13363">
        <ele>370.39419784546</ele>
        <time>2025-10-12T07:30:27Z</time>
      </trkpt>
      <trkpt lat="47.60832" lon="7.13366">
        <ele>370.30427145386</ele>
        <time>2025-10-12T07:30:29Z</time>
      </trkpt>
      <trkpt lat="47.60832" lon="7.13369">
        <ele>370.19294860596</ele>
        <time>2025-10-12T07:30:31Z</time>
      </trkpt>
      <trkpt lat="47.60832" lon="7.13372">
        <ele>370.12964909338</ele>
        <time>2025-10-12T07:30:32Z</time>
      </trkpt>
      <trkpt lat="47.60833" lon="7.13374">
        <ele>370.03402776029</ele>
        <time>2025-10-12T07:30:33Z</time>
      </trkpt>
      <trkpt lat="47.60834" lon="7.13378">
        <ele>369.85403706258</ele>
        <time>2025-10-12T07:30:35Z</time>
      </trkpt>
      <trkpt lat="47.60834" lon="7.13382">
        <ele>369.70025229232</ele>
        <time>2025-10-12T07:30:37Z</time>
      </trkpt>
      <trkpt lat="47.60835" lon="7.13386">
        <ele>369.62378766514</ele>
        <time>2025-10-12T07:30:38Z</time>
      </trkpt>
      <trkpt lat="47.60836" lon="7.13391">
        <ele>369.38046688819</ele>
        <time>2025-10-12T07:30:40Z</time>
      </trkpt>
      <trkpt lat="47.60836" lon="7.13396">
        <ele>369.30583977173</ele>
        <time>2025-10-12T07:30:42Z</time>
      </trkpt>
      <trkpt lat="47.60837" lon="7.134">
        <ele>369.28211252637</ele>
        <time>2025-10-12T07:30:43Z</time>
      </trkpt>
      <trkpt lat="47.60837" lon="7.13404">
        <ele>369.24554485554</ele>
        <time>2025-10-12T07:30:44Z</time>
      </trkpt>
      <trkpt lat="47.60838" lon="7.13408">
        <ele>369.18896145272</ele>
        <time>2025-10-12T07:30:45Z</time>
      </trkpt>
      <trkpt lat="47.60838" lon="7.13412">
        <ele>369.13440018124</ele>
        <time>2025-10-12T07:30:47Z</time>
      </trkpt>
      <trkpt lat="47.60838" lon="7.13414">
        <ele>369.12464569134</ele>
        <time>2025-10-12T07:30:48Z</time>
      </trkpt>
      <trkpt lat="47.60839" lon="7.1342">
        <ele>369.02965881806</ele>
        <time>2025-10-12T07:30:50Z</time>
      </trkpt>
      <trkpt lat="47.60841" lon="7.13424">
        <ele>368.97927321935</ele>
        <time>2025-10-12T07:30:52Z</time>
      </trkpt>
      <trkpt lat="47.60842" lon="7.13429">
        <ele>368.94807081599</ele>
        <time>2025-10-12T07:30:54Z</time>
      </trkpt>
      <trkpt lat="47.60842" lon="7.13433">
        <ele>368.94286578216</ele>
        <time>2025-10-12T07:30:55Z</time>
      </trkpt>
      <trkpt lat="47.60843" lon="7.13436">
        <ele>368.94580597214</ele>
        <time>2025-10-12T07:30:56Z</time>
      </trkpt>
      <trkpt lat="47.60843" lon="7.13439">
        <ele>368.94755567961</ele>
        <time>2025-10-12T07:30:57Z</time>
      </trkpt>
      <trkpt lat="47.60844" lon="7.13443">
        <ele>368.98591465134</ele>
        <time>2025-10-12T07:30:59Z</time>
      </trkpt>
      <trkpt lat="47.60844" lon="7.13447">
        <ele>369.00951942839</ele>
        <time>2025-10-12T07:31:00Z</time>
      </trkpt>
      <trkpt lat="47.60844" lon="7.1345">
        <ele>369.1211389393</ele>
        <time>2025-10-12T07:31:01Z</time>
      </trkpt>
      <trkpt lat="47.60844" lon="7.13454">
        <ele>369.28608201832</ele>
        <time>2025-10-12T07:31:02Z</time>
      </trkpt>
      <trkpt lat="47.60845" lon="7.13458">
        <ele>369.46143863091</ele>
        <time>2025-10-12T07:31:03Z</time>
      </trkpt>
      <trkpt lat="47.60846" lon="7.13462">
        <ele>369.66821379412</ele>
        <time>2025-10-12T07:31:04Z</time>
      </trkpt>
      <trkpt lat="47.60846" lon="7.13466">
        <ele>369.84896211122</ele>
        <time>2025-10-12T07:31:05Z</time>
      </trkpt>
      <trkpt lat="47.60847" lon="7.13472">
        <ele>370.18069409652</ele>
        <time>2025-10-12T07:31:07Z</time>
      </trkpt>
      <trkpt lat="47.60848" lon="7.13477">
        <ele>370.46244891637</ele>
        <time>2025-10-12T07:31:09Z</time>
      </trkpt>
      <trkpt lat="47.60848" lon="7.1348">
        <ele>370.55240906095</ele>
        <time>2025-10-12T07:31:10Z</time>
      </trkpt>
      <trkpt lat="47.60848" lon="7.13483">
        <ele>370.70973845371</ele>
        <time>2025-10-12T07:31:12Z</time>
      </trkpt>
      <trkpt lat="47.60848" lon="7.13488">
        <ele>370.87951517781</ele>
        <time>2025-10-12T07:31:14Z</time>
      </trkpt>
      <trkpt lat="47.60848" lon="7.13493">
        <ele>371.03133562572</ele>
        <time>2025-10-12T07:31:16Z</time>
      </trkpt>
      <trkpt lat="47.60848" lon="7.13497">
        <ele>371.22428235803</ele>
        <time>2025-10-12T07:31:18Z</time>
      </trkpt>
      <trkpt lat="47.60848" lon="7.13501">
        <ele>371.37492825601</ele>
        <time>2025-10-12T07:31:20Z</time>
      </trkpt>
      <trkpt lat="47.60849" lon="7.13507">
        <ele>371.45787911197</ele>
        <time>2025-10-12T07:31:22Z</time>
      </trkpt>
      <trkpt lat="47.60848" lon="7.13512">
        <ele>371.56540234611</ele>
        <time>2025-10-12T07:31:24Z</time>
      </trkpt>
      <trkpt lat="47.60848" lon="7.13517">
        <ele>371.61623528771</ele>
        <time>2025-10-12T07:31:25Z</time>
      </trkpt>
      <trkpt lat="47.60848" lon="7.13522">
        <ele>371.75352002652</ele>
        <time>2025-10-12T07:31:27Z</time>
      </trkpt>
      <trkpt lat="47.60847" lon="7.13526">
        <ele>371.84048393156</ele>
        <time>2025-10-12T07:31:30Z</time>
      </trkpt>
      <trkpt lat="47.60847" lon="7.1353">
        <ele>371.91185626296</ele>
        <time>2025-10-12T07:31:32Z</time>
      </trkpt>
      <trkpt lat="47.60847" lon="7.13535">
        <ele>372.06268992036</ele>
        <time>2025-10-12T07:31:34Z</time>
      </trkpt>
      <trkpt lat="47.60846" lon="7.13538">
        <ele>372.17722560068</ele>
        <time>2025-10-12T07:31:36Z</time>
      </trkpt>
      <trkpt lat="47.60846" lon="7.13542">
        <ele>372.31115446578</ele>
        <time>2025-10-12T07:31:38Z</time>
      </trkpt>
      <trkpt lat="47.60845" lon="7.13547">
        <ele>372.42373581987</ele>
        <time>2025-10-12T07:31:40Z</time>
      </trkpt>
      <trkpt lat="47.60844" lon="7.1355">
        <ele>372.52821002208</ele>
        <time>2025-10-12T07:31:42Z</time>
      </trkpt>
      <trkpt lat="47.60844" lon="7.13553">
        <ele>372.63237147556</ele>
        <time>2025-10-12T07:31:45Z</time>
      </trkpt>
      <trkpt lat="47.60845" lon="7.13558">
        <ele>372.77965178447</ele>
        <time>2025-10-12T07:31:48Z</time>
      </trkpt>
      <trkpt lat="47.60845" lon="7.13562">
        <ele>372.80110932823</ele>
        <time>2025-10-12T07:31:49Z</time>
      </trkpt>
      <trkpt lat="47.60846" lon="7.13567">
        <ele>372.825181389</ele>
        <time>2025-10-12T07:31:51Z</time>
      </trkpt>
      <trkpt lat="47.60846" lon="7.13572">
        <ele>372.84834508324</ele>
        <time>2025-10-12T07:31:53Z</time>
      </trkpt>
      <trkpt lat="47.60846" lon="7.13576">
        <ele>372.863369811</ele>
        <time>2025-10-12T07:31:55Z</time>
      </trkpt>
      <trkpt lat="47.60845" lon="7.1358">
        <ele>372.8438298117</ele>
        <time>2025-10-12T07:31:57Z</time>
      </trkpt>
      <trkpt lat="47.60844" lon="7.13584">
        <ele>372.79876075448</ele>
        <time>2025-10-12T07:31:59Z</time>
      </trkpt>
      <trkpt lat="47.60843" lon="7.13588">
        <ele>372.86483502728</ele>
        <time>2025-10-12T07:32:01Z</time>
      </trkpt>
      <trkpt lat="47.60842" lon="7.13591">
        <ele>372.91166581396</ele>
        <time>2025-10-12T07:32:03Z</time>
      </trkpt>
      <trkpt lat="47.60842" lon="7.13594">
        <ele>373.04366244214</ele>
        <time>2025-10-12T07:32:05Z</time>
      </trkpt>
      <trkpt lat="47.60842" lon="7.13598">
        <ele>373.18453408374</ele>
        <time>2025-10-12T07:32:08Z</time>
      </trkpt>
      <trkpt lat="47.60841" lon="7.13601">
        <ele>373.280537243</ele>
        <time>2025-10-12T07:32:10Z</time>
      </trkpt>
      <trkpt lat="47.60842" lon="7.13605">
        <ele>373.39296181316</ele>
        <time>2025-10-12T07:32:12Z</time>
      </trkpt>
      <trkpt lat="47.60842" lon="7.13608">
        <ele>373.54496679617</ele>
        <time>2025-10-12T07:32:14Z</time>
      </trkpt>
      <trkpt lat="47.60843" lon="7.13612">
        <ele>373.65836337188</ele>
        <time>2025-10-12T07:32:16Z</time>
      </trkpt>
      <trkpt lat="47.60843" lon="7.13615">
        <ele>373.74078517943</ele>
        <time>2025-10-12T07:32:18Z</time>
      </trkpt>
      <trkpt lat="47.60843" lon="7.1362">
        <ele>373.7586079937</ele>
        <time>2025-10-12T07:32:20Z</time>
      </trkpt>
      <trkpt lat="47.60843" lon="7.13623">
        <ele>373.75499044548</ele>
        <time>2025-10-12T07:32:22Z</time>
      </trkpt>
      <trkpt lat="47.60844" lon="7.13627">
        <ele>373.75236149656</ele>
        <time>2025-10-12T07:32:24Z</time>
      </trkpt>
      <trkpt lat="47.60845" lon="7.13631">
        <ele>373.78986175736</ele>
        <time>2025-10-12T07:32:26Z</time>
      </trkpt>
      <trkpt lat="47.60845" lon="7.13635">
        <ele>373.81117120821</ele>
        <time>2025-10-12T07:32:28Z</time>
      </trkpt>
      <trkpt lat="47.60844" lon="7.1364">
        <ele>373.79942843114</ele>
        <time>2025-10-12T07:32:30Z</time>
      </trkpt>
      <trkpt lat="47.60845" lon="7.13644">
        <ele>373.82006086985</ele>
        <time>2025-10-12T07:32:31Z</time>
      </trkpt>
      <trkpt lat="47.60844" lon="7.13649">
        <ele>373.9567344298</ele>
        <time>2025-10-12T07:32:33Z</time>
      </trkpt>
      <trkpt lat="47.60843" lon="7.13654">
        <ele>374.04130062829</ele>
        <time>2025-10-12T07:32:35Z</time>
      </trkpt>
      <trkpt lat="47.60843" lon="7.13658">
        <ele>374.1336569104</ele>
        <time>2025-10-12T07:32:37Z</time>
      </trkpt>
      <trkpt lat="47.60843" lon="7.13661">
        <ele>374.19557050977</ele>
        <time>2025-10-12T07:32:38Z</time>
      </trkpt>
      <trkpt lat="47.60843" lon="7.13665">
        <ele>374.26081338337</ele>
        <time>2025-10-12T07:32:39Z</time>
      </trkpt>
      <trkpt lat="47.60843" lon="7.13669">
        <ele>374.39362974791</ele>
        <time>2025-10-12T07:32:41Z</time>
      </trkpt>
      <trkpt lat="47.60842" lon="7.13673">
        <ele>374.39995669085</ele>
        <time>2025-10-12T07:32:43Z</time>
      </trkpt>
      <trkpt lat="47.6084" lon="7.13677">
        <ele>374.40001996028</ele>
        <time>2025-10-12T07:32:45Z</time>
      </trkpt>
      <trkpt lat="47.60839" lon="7.13681">
        <ele>374.40002059297</ele>
        <time>2025-10-12T07:32:47Z</time>
      </trkpt>
      <trkpt lat="47.60838" lon="7.13685">
        <ele>374.4000205993</ele>
        <time>2025-10-12T07:32:49Z</time>
      </trkpt>
      <trkpt lat="47.60838" lon="7.13685">
        <ele>374.40002059936</ele>
        <time>2025-10-12T07:32:50Z</time>
      </trkpt>
      <trkpt lat="47.60835" lon="7.13691">
        <ele>374.40002059936</ele>
        <time>2025-10-12T07:32:51Z</time>
      </trkpt>
      <trkpt lat="47.60835" lon="7.13695">
        <ele>374.40002059937</ele>
        <time>2025-10-12T07:32:53Z</time>
      </trkpt>
      <trkpt lat="47.60834" lon="7.137">
        <ele>374.49017935181</ele>
        <time>2025-10-12T07:32:56Z</time>
      </trkpt>
      <trkpt lat="47.60833" lon="7.13703">
        <ele>374.59465048828</ele>
        <time>2025-10-12T07:32:57Z</time>
      </trkpt>
      <trkpt lat="47.60833" lon="7.13708">
        <ele>374.78417850714</ele>
        <time>2025-10-12T07:32:59Z</time>
      </trkpt>
      <trkpt lat="47.60831" lon="7.13713">
        <ele>374.96284380686</ele>
        <time>2025-10-12T07:33:01Z</time>
      </trkpt>
      <trkpt lat="47.6083" lon="7.13716">
        <ele>375.04896039082</ele>
        <time>2025-10-12T07:33:02Z</time>
      </trkpt>
      <trkpt lat="47.60829" lon="7.1372">
        <ele>375.22102263156</ele>
        <time>2025-10-12T07:33:04Z</time>
      </trkpt>
      <trkpt lat="47.60828" lon="7.13721">
        <ele>375.29439497251</ele>
        <time>2025-10-12T07:33:05Z</time>
      </trkpt>
      <trkpt lat="47.60826" lon="7.13723">
        <ele>375.36072878863</ele>
        <time>2025-10-12T07:33:06Z</time>
      </trkpt>
      <trkpt lat="47.60825" lon="7.13727">
        <ele>375.39962768126</ele>
        <time>2025-10-12T07:33:08Z</time>
      </trkpt>
      <trkpt lat="47.60825" lon="7.13731">
        <ele>375.40001667018</ele>
        <time>2025-10-12T07:33:10Z</time>
      </trkpt>
      <trkpt lat="47.60825" lon="7.13735">
        <ele>375.40002056007</ele>
        <time>2025-10-12T07:33:12Z</time>
      </trkpt>
      <trkpt lat="47.60825" lon="7.13738">
        <ele>375.40002059544</ele>
        <time>2025-10-12T07:33:13Z</time>
      </trkpt>
      <trkpt lat="47.60826" lon="7.13743">
        <ele>375.40002059933</ele>
        <time>2025-10-12T07:33:15Z</time>
      </trkpt>
      <trkpt lat="47.60826" lon="7.13747">
        <ele>375.40002059936</ele>
        <time>2025-10-12T07:33:16Z</time>
      </trkpt>
      <trkpt lat="47.60826" lon="7.13751">
        <ele>375.40002059936</ele>
        <time>2025-10-12T07:33:17Z</time>
      </trkpt>
      <trkpt lat="47.60826" lon="7.13754">
        <ele>375.40900192261</ele>
        <time>2025-10-12T07:33:18Z</time>
      </trkpt>
      <trkpt lat="47.60827" lon="7.13758">
        <ele>375.43250442505</ele>
        <time>2025-10-12T07:33:19Z</time>
      </trkpt>
      <trkpt lat="47.60826" lon="7.13761">
        <ele>375.46102960205</ele>
        <time>2025-10-12T07:33:20Z</time>
      </trkpt>
      <trkpt lat="47.60826" lon="7.13764">
        <ele>375.49343534241</ele>
        <time>2025-10-12T07:33:21Z</time>
      </trkpt>
      <trkpt lat="47.60825" lon="7.13767">
        <ele>375.53603443695</ele>
        <time>2025-10-12T07:33:22Z</time>
      </trkpt>
      <trkpt lat="47.60824" lon="7.13772">
        <ele>375.6187287602</ele>
        <time>2025-10-12T07:33:24Z</time>
      </trkpt>
      <trkpt lat="47.60824" lon="7.13775">
        <ele>375.65702630314</ele>
        <time>2025-10-12T07:33:25Z</time>
      </trkpt>
      <trkpt lat="47.60824" lon="7.13777">
        <ele>375.69318332795</ele>
        <time>2025-10-12T07:33:26Z</time>
      </trkpt>
      <trkpt lat="47.60823" lon="7.13782">
        <ele>375.74958186532</ele>
        <time>2025-10-12T07:33:28Z</time>
      </trkpt>
      <trkpt lat="47.60823" lon="7.13786">
        <ele>375.7689159923</ele>
        <time>2025-10-12T07:33:30Z</time>
      </trkpt>
      <trkpt lat="47.60823" lon="7.13791">
        <ele>375.77140822273</ele>
        <time>2025-10-12T07:33:32Z</time>
      </trkpt>
      <trkpt lat="47.60823" lon="7.13795">
        <ele>375.76888981007</ele>
        <time>2025-10-12T07:33:34Z</time>
      </trkpt>
      <trkpt lat="47.60823" lon="7.138">
        <ele>375.76459643747</ele>
        <time>2025-10-12T07:33:36Z</time>
      </trkpt>
      <trkpt lat="47.60824" lon="7.13802">
        <ele>375.75944876423</ele>
        <time>2025-10-12T07:33:37Z</time>
      </trkpt>
      <trkpt lat="47.60823" lon="7.13807">
        <ele>375.76134620426</ele>
        <time>2025-10-12T07:33:39Z</time>
      </trkpt>
      <trkpt lat="47.60822" lon="7.13812">
        <ele>375.83077405317</ele>
        <time>2025-10-12T07:33:41Z</time>
      </trkpt>
      <trkpt lat="47.60822" lon="7.13815">
        <ele>375.89529321037</ele>
        <time>2025-10-12T07:33:42Z</time>
      </trkpt>
      <trkpt lat="47.60823" lon="7.13818">
        <ele>375.94381976102</ele>
        <time>2025-10-12T07:33:44Z</time>
      </trkpt>
      <trkpt lat="47.60822" lon="7.13822">
        <ele>375.98189200163</ele>
        <time>2025-10-12T07:33:46Z</time>
      </trkpt>
      <trkpt lat="47.60822" lon="7.13825">
        <ele>376.02664035678</ele>
        <time>2025-10-12T07:33:47Z</time>
      </trkpt>
      <trkpt lat="47.60822" lon="7.13829">
        <ele>376.08922167243</ele>
        <time>2025-10-12T07:33:49Z</time>
      </trkpt>
      <trkpt lat="47.60821" lon="7.13832">
        <ele>376.1807016726</ele>
        <time>2025-10-12T07:33:51Z</time>
      </trkpt>
      <trkpt lat="47.6082" lon="7.13836">
        <ele>376.32480678021</ele>
        <time>2025-10-12T07:33:53Z</time>
      </trkpt>
      <trkpt lat="47.6082" lon="7.13839">
        <ele>376.29288068718</ele>
        <time>2025-10-12T07:33:54Z</time>
      </trkpt>
      <trkpt lat="47.6082" lon="7.13844">
        <ele>376.24278678569</ele>
        <time>2025-10-12T07:33:56Z</time>
      </trkpt>
      <trkpt lat="47.6082" lon="7.13848">
        <ele>376.13263679883</ele>
        <time>2025-10-12T07:33:58Z</time>
      </trkpt>
      <trkpt lat="47.6082" lon="7.13851">
        <ele>376.11482885017</ele>
        <time>2025-10-12T07:33:59Z</time>
      </trkpt>
      <trkpt lat="47.60819" lon="7.13855">
        <ele>376.05607065941</ele>
        <time>2025-10-12T07:34:01Z</time>
      </trkpt>
      <trkpt lat="47.60819" lon="7.13857">
        <ele>376.02386840322</ele>
        <time>2025-10-12T07:34:02Z</time>
      </trkpt>
      <trkpt lat="47.60818" lon="7.1386">
        <ele>375.98587644909</ele>
        <time>2025-10-12T07:34:03Z</time>
      </trkpt>
      <trkpt lat="47.60817" lon="7.13864">
        <ele>375.96298212417</ele>
        <time>2025-10-12T07:34:05Z</time>
      </trkpt>
      <trkpt lat="47.60817" lon="7.13867">
        <ele>375.97275657118</ele>
        <time>2025-10-12T07:34:06Z</time>
      </trkpt>
      <trkpt lat="47.60817" lon="7.13872">
        <ele>375.98320859141</ele>
        <time>2025-10-12T07:34:08Z</time>
      </trkpt>
      <trkpt lat="47.60816" lon="7.13877">
        <ele>376.01299267704</ele>
        <time>2025-10-12T07:34:10Z</time>
      </trkpt>
      <trkpt lat="47.60815" lon="7.13882">
        <ele>376.04064922151</ele>
        <time>2025-10-12T07:34:12Z</time>
      </trkpt>
      <trkpt lat="47.60815" lon="7.13887">
        <ele>376.06608447836</ele>
        <time>2025-10-12T07:34:14Z</time>
      </trkpt>
      <trkpt lat="47.60815" lon="7.1389">
        <ele>376.07057291012</ele>
        <time>2025-10-12T07:34:15Z</time>
      </trkpt>
      <trkpt lat="47.60816" lon="7.13895">
        <ele>375.97125584659</ele>
        <time>2025-10-12T07:34:17Z</time>
      </trkpt>
      <trkpt lat="47.60816" lon="7.13899">
        <ele>375.72051920278</ele>
        <time>2025-10-12T07:34:20Z</time>
      </trkpt>
      <trkpt lat="47.60816" lon="7.13902">
        <ele>375.669100489</ele>
        <time>2025-10-12T07:34:21Z</time>
      </trkpt>
      <trkpt lat="47.60816" lon="7.13906">
        <ele>375.49179403986</ele>
        <time>2025-10-12T07:34:23Z</time>
      </trkpt>
      <trkpt lat="47.60815" lon="7.1391">
        <ele>375.37000632693</ele>
        <time>2025-10-12T07:34:25Z</time>
      </trkpt>
      <trkpt lat="47.60815" lon="7.13913">
        <ele>375.29616467993</ele>
        <time>2025-10-12T07:34:26Z</time>
      </trkpt>
      <trkpt lat="47.60814" lon="7.13916">
        <ele>375.13754038978</ele>
        <time>2025-10-12T07:34:28Z</time>
      </trkpt>
      <trkpt lat="47.60813" lon="7.13921">
        <ele>375.0722021194</ele>
        <time>2025-10-12T07:34:31Z</time>
      </trkpt>
      <trkpt lat="47.60813" lon="7.13926">
        <ele>374.95013444337</ele>
        <time>2025-10-12T07:34:33Z</time>
      </trkpt>
      <trkpt lat="47.60814" lon="7.13929">
        <ele>374.87503930798</ele>
        <time>2025-10-12T07:34:34Z</time>
      </trkpt>
      <trkpt lat="47.60814" lon="7.13933">
        <ele>374.74446255891</ele>
        <time>2025-10-12T07:34:36Z</time>
      </trkpt>
      <trkpt lat="47.60814" lon="7.13938">
        <ele>374.63055516789</ele>
        <time>2025-10-12T07:34:38Z</time>
      </trkpt>
      <trkpt lat="47.60814" lon="7.13942">
        <ele>374.52312886253</ele>
        <time>2025-10-12T07:34:40Z</time>
      </trkpt>
      <trkpt lat="47.60813" lon="7.13946">
        <ele>374.4162617528</ele>
        <time>2025-10-12T07:34:42Z</time>
      </trkpt>
      <trkpt lat="47.60813" lon="7.1395">
        <ele>374.36619405826</ele>
        <time>2025-10-12T07:34:44Z</time>
      </trkpt>
      <trkpt lat="47.60812" lon="7.13953">
        <ele>374.34121584225</ele>
        <time>2025-10-12T07:34:46Z</time>
      </trkpt>
      <trkpt lat="47.60812" lon="7.13957">
        <ele>374.31875170463</ele>
        <time>2025-10-12T07:34:48Z</time>
      </trkpt>
      <trkpt lat="47.60812" lon="7.13962">
        <ele>374.27639998805</ele>
        <time>2025-10-12T07:34:50Z</time>
      </trkpt>
      <trkpt lat="47.60812" lon="7.13966">
        <ele>374.25554190058</ele>
        <time>2025-10-12T07:34:52Z</time>
      </trkpt>
      <trkpt lat="47.60812" lon="7.13968">
        <ele>374.23863059081</ele>
        <time>2025-10-12T07:34:53Z</time>
      </trkpt>
      <trkpt lat="47.60811" lon="7.13973">
        <ele>374.2038827735</ele>
        <time>2025-10-12T07:34:55Z</time>
      </trkpt>
      <trkpt lat="47.60812" lon="7.13977">
        <ele>374.10681715568</ele>
        <time>2025-10-12T07:34:57Z</time>
      </trkpt>
      <trkpt lat="47.60812" lon="7.13981">
        <ele>373.98067102342</ele>
        <time>2025-10-12T07:34:59Z</time>
      </trkpt>
      <trkpt lat="47.60811" lon="7.13985">
        <ele>373.88076606845</ele>
        <time>2025-10-12T07:35:01Z</time>
      </trkpt>
      <trkpt lat="47.60811" lon="7.1399">
        <ele>373.77273546372</ele>
        <time>2025-10-12T07:35:03Z</time>
      </trkpt>
      <trkpt lat="47.60811" lon="7.13994">
        <ele>373.64139575826</ele>
        <time>2025-10-12T07:35:05Z</time>
      </trkpt>
      <trkpt lat="47.60813" lon="7.13999">
        <ele>373.50383541297</ele>
        <time>2025-10-12T07:35:07Z</time>
      </trkpt>
      <trkpt lat="47.60813" lon="7.14003">
        <ele>373.34842324945</ele>
        <time>2025-10-12T07:35:09Z</time>
      </trkpt>
      <trkpt lat="47.60813" lon="7.14007">
        <ele>373.17818779237</ele>
        <time>2025-10-12T07:35:11Z</time>
      </trkpt>
      <trkpt lat="47.60813" lon="7.14012">
        <ele>372.99236227364</ele>
        <time>2025-10-12T07:35:14Z</time>
      </trkpt>
      <trkpt lat="47.60814" lon="7.14015">
        <ele>372.80406932128</ele>
        <time>2025-10-12T07:35:16Z</time>
      </trkpt>
      <trkpt lat="47.60814" lon="7.14019">
        <ele>372.62647380631</ele>
        <time>2025-10-12T07:35:18Z</time>
      </trkpt>
      <trkpt lat="47.60812" lon="7.14022">
        <ele>372.46814816854</ele>
        <time>2025-10-12T07:35:20Z</time>
      </trkpt>
      <trkpt lat="47.60812" lon="7.14025">
        <ele>372.42287339535</ele>
        <time>2025-10-12T07:35:21Z</time>
      </trkpt>
      <trkpt lat="47.60811" lon="7.1403">
        <ele>372.2215372743</ele>
        <time>2025-10-12T07:35:23Z</time>
      </trkpt>
      <trkpt lat="47.60811" lon="7.14034">
        <ele>372.08968474072</ele>
        <time>2025-10-12T07:35:25Z</time>
      </trkpt>
      <trkpt lat="47.60811" lon="7.14037">
        <ele>372.01415608088</ele>
        <time>2025-10-12T07:35:26Z</time>
      </trkpt>
      <trkpt lat="47.60811" lon="7.14041">
        <ele>371.80619613387</ele>
        <time>2025-10-12T07:35:28Z</time>
      </trkpt>
      <trkpt lat="47.60812" lon="7.14045">
        <ele>371.63647066037</ele>
        <time>2025-10-12T07:35:30Z</time>
      </trkpt>
      <trkpt lat="47.60811" lon="7.14048">
        <ele>371.55802839843</ele>
        <time>2025-10-12T07:35:31Z</time>
      </trkpt>
      <trkpt lat="47.60811" lon="7.14051">
        <ele>371.47025863513</ele>
        <time>2025-10-12T07:35:32Z</time>
      </trkpt>
      <trkpt lat="47.6081" lon="7.14054">
        <ele>371.39160861193</ele>
        <time>2025-10-12T07:35:33Z</time>
      </trkpt>
      <trkpt lat="47.6081" lon="7.14057">
        <ele>371.29250215453</ele>
        <time>2025-10-12T07:35:34Z</time>
      </trkpt>
      <trkpt lat="47.6081" lon="7.1406">
        <ele>371.1944536914</ele>
        <time>2025-10-12T07:35:35Z</time>
      </trkpt>
      <trkpt lat="47.60808" lon="7.14065">
        <ele>371.0198649547</ele>
        <time>2025-10-12T07:35:37Z</time>
      </trkpt>
      <trkpt lat="47.60807" lon="7.14067">
        <ele>370.99036502025</ele>
        <time>2025-10-12T07:35:38Z</time>
      </trkpt>
      <trkpt lat="47.60806" lon="7.14072">
        <ele>370.88012143127</ele>
        <time>2025-10-12T07:35:40Z</time>
      </trkpt>
      <trkpt lat="47.60806" lon="7.14075">
        <ele>370.80203764056</ele>
        <time>2025-10-12T07:35:41Z</time>
      </trkpt>
      <trkpt lat="47.60806" lon="7.14079">
        <ele>370.59128625318</ele>
        <time>2025-10-12T07:35:43Z</time>
      </trkpt>
      <trkpt lat="47.60806" lon="7.14082">
        <ele>370.47955441069</ele>
        <time>2025-10-12T07:35:45Z</time>
      </trkpt>
      <trkpt lat="47.60806" lon="7.14086">
        <ele>370.35509083982</ele>
        <time>2025-10-12T07:35:47Z</time>
      </trkpt>
      <trkpt lat="47.60806" lon="7.1409">
        <ele>370.21458076222</ele>
        <time>2025-10-12T07:35:49Z</time>
      </trkpt>
      <trkpt lat="47.60805" lon="7.14094">
        <ele>370.07990600812</ele>
        <time>2025-10-12T07:35:51Z</time>
      </trkpt>
      <trkpt lat="47.60805" lon="7.14097">
        <ele>370.02111582969</ele>
        <time>2025-10-12T07:35:52Z</time>
      </trkpt>
      <trkpt lat="47.60805" lon="7.14101">
        <ele>369.88419175675</ele>
        <time>2025-10-12T07:35:54Z</time>
      </trkpt>
      <trkpt lat="47.60806" lon="7.14106">
        <ele>369.70857385879</ele>
        <time>2025-10-12T07:35:56Z</time>
      </trkpt>
      <trkpt lat="47.60805" lon="7.1411">
        <ele>369.52693303626</ele>
        <time>2025-10-12T07:35:58Z</time>
      </trkpt>
      <trkpt lat="47.60805" lon="7.14115">
        <ele>369.38186864219</ele>
        <time>2025-10-12T07:36:00Z</time>
      </trkpt>
      <trkpt lat="47.60805" lon="7.1412">
        <ele>369.20109091085</ele>
        <time>2025-10-12T07:36:02Z</time>
      </trkpt>
      <trkpt lat="47.60805" lon="7.14124">
        <ele>369.04477965453</ele>
        <time>2025-10-12T07:36:04Z</time>
      </trkpt>
      <trkpt lat="47.60804" lon="7.14128">
        <ele>368.87017185866</ele>
        <time>2025-10-12T07:36:07Z</time>
      </trkpt>
      <trkpt lat="47.60804" lon="7.14132">
        <ele>368.76306317641</ele>
        <time>2025-10-12T07:36:09Z</time>
      </trkpt>
      <trkpt lat="47.60804" lon="7.14136">
        <ele>368.60610982641</ele>
        <time>2025-10-12T07:36:11Z</time>
      </trkpt>
      <trkpt lat="47.60803" lon="7.14141">
        <ele>368.49232868402</ele>
        <time>2025-10-12T07:36:13Z</time>
      </trkpt>
      <trkpt lat="47.60803" lon="7.14145">
        <ele>368.35739112894</ele>
        <time>2025-10-12T07:36:15Z</time>
      </trkpt>
      <trkpt lat="47.60804" lon="7.14149">
        <ele>368.21030261765</ele>
        <time>2025-10-12T07:36:17Z</time>
      </trkpt>
      <trkpt lat="47.60806" lon="7.14152">
        <ele>368.04798364904</ele>
        <time>2025-10-12T07:36:19Z</time>
      </trkpt>
      <trkpt lat="47.60806" lon="7.14156">
        <ele>367.88160673621</ele>
        <time>2025-10-12T07:36:21Z</time>
      </trkpt>
      <trkpt lat="47.60807" lon="7.14158">
        <ele>367.71451083818</ele>
        <time>2025-10-12T07:36:23Z</time>
      </trkpt>
      <trkpt lat="47.60807" lon="7.14162">
        <ele>367.57453848759</ele>
        <time>2025-10-12T07:36:25Z</time>
      </trkpt>
      <trkpt lat="47.60808" lon="7.14166">
        <ele>367.43463412542</ele>
        <time>2025-10-12T07:36:27Z</time>
      </trkpt>
      <trkpt lat="47.60808" lon="7.14171">
        <ele>367.30980093873</ele>
        <time>2025-10-12T07:36:29Z</time>
      </trkpt>
      <trkpt lat="47.60809" lon="7.14175">
        <ele>367.29289983586</ele>
        <time>2025-10-12T07:36:31Z</time>
      </trkpt>
      <trkpt lat="47.6081" lon="7.14177">
        <ele>367.2592030599</ele>
        <time>2025-10-12T07:36:34Z</time>
      </trkpt>
      <trkpt lat="47.60811" lon="7.14182">
        <ele>367.23026891811</ele>
        <time>2025-10-12T07:36:36Z</time>
      </trkpt>
      <trkpt lat="47.60812" lon="7.14186">
        <ele>367.18917635404</ele>
        <time>2025-10-12T07:36:38Z</time>
      </trkpt>
      <trkpt lat="47.60812" lon="7.14189">
        <ele>367.16649064812</ele>
        <time>2025-10-12T07:36:40Z</time>
      </trkpt>
      <trkpt lat="47.60811" lon="7.14191">
        <ele>367.1835150728</ele>
        <time>2025-10-12T07:36:42Z</time>
      </trkpt>
      <trkpt lat="47.6081" lon="7.14194">
        <ele>367.21719955017</ele>
        <time>2025-10-12T07:37:01Z</time>
      </trkpt>
      <trkpt lat="47.60813" lon="7.14194">
        <ele>367.1674531597</ele>
        <time>2025-10-12T07:37:10Z</time>
      </trkpt>
      <trkpt lat="47.60815" lon="7.14195">
        <ele>367.11054355561</ele>
        <time>2025-10-12T07:37:13Z</time>
      </trkpt>
      <trkpt lat="47.60817" lon="7.14198">
        <ele>367.06843687566</ele>
        <time>2025-10-12T07:37:17Z</time>
      </trkpt>
      <trkpt lat="47.60819" lon="7.14197">
        <ele>367.04487584367</ele>
        <time>2025-10-12T07:37:19Z</time>
      </trkpt>
      <trkpt lat="47.60821" lon="7.14196">
        <ele>366.92379611714</ele>
        <time>2025-10-12T07:37:21Z</time>
      </trkpt>
      <trkpt lat="47.60823" lon="7.14196">
        <ele>366.82471579212</ele>
        <time>2025-10-12T07:37:24Z</time>
      </trkpt>
      <trkpt lat="47.60825" lon="7.14194">
        <ele>366.77279839298</ele>
        <time>2025-10-12T07:37:28Z</time>
      </trkpt>
      <trkpt lat="47.60827" lon="7.14191">
        <ele>366.68249976144</ele>
        <time>2025-10-12T07:37:31Z</time>
      </trkpt>
      <trkpt lat="47.60828" lon="7.14191">
        <ele>366.60178582067</ele>
        <time>2025-10-12T07:37:33Z</time>
      </trkpt>
      <trkpt lat="47.60831" lon="7.14192">
        <ele>366.55309172102</ele>
        <time>2025-10-12T07:37:38Z</time>
      </trkpt>
      <trkpt lat="47.60833" lon="7.14191">
        <ele>366.46313791947</ele>
        <time>2025-10-12T07:37:40Z</time>
      </trkpt>
      <trkpt lat="47.60835" lon="7.14189">
        <ele>366.34757132823</ele>
        <time>2025-10-12T07:37:42Z</time>
      </trkpt>
      <trkpt lat="47.60837" lon="7.14188">
        <ele>366.20507508369</ele>
        <time>2025-10-12T07:37:45Z</time>
      </trkpt>
      <trkpt lat="47.6084" lon="7.14189">
        <ele>366.03487137614</ele>
        <time>2025-10-12T07:37:47Z</time>
      </trkpt>
      <trkpt lat="47.60841" lon="7.14188">
        <ele>365.91336068428</ele>
        <time>2025-10-12T07:37:49Z</time>
      </trkpt>
      <trkpt lat="47.60844" lon="7.1419">
        <ele>365.77330036252</ele>
        <time>2025-10-12T07:37:51Z</time>
      </trkpt>
      <trkpt lat="47.60846" lon="7.14191">
        <ele>365.65232355127</ele>
        <time>2025-10-12T07:37:52Z</time>
      </trkpt>
      <trkpt lat="47.60848" lon="7.14192">
        <ele>365.44507719822</ele>
        <time>2025-10-12T07:37:54Z</time>
      </trkpt>
      <trkpt lat="47.6085" lon="7.14192">
        <ele>365.29628506916</ele>
        <time>2025-10-12T07:37:56Z</time>
      </trkpt>
      <trkpt lat="47.60852" lon="7.14194">
        <ele>365.14614938176</ele>
        <time>2025-10-12T07:37:58Z</time>
      </trkpt>
      <trkpt lat="47.60853" lon="7.14196">
        <ele>365.01025227293</ele>
        <time>2025-10-12T07:38:00Z</time>
      </trkpt>
      <trkpt lat="47.60855" lon="7.14197">
        <ele>364.96844733117</ele>
        <time>2025-10-12T07:38:01Z</time>
      </trkpt>
      <trkpt lat="47.60857" lon="7.14198">
        <ele>364.75692679051</ele>
        <time>2025-10-12T07:38:03Z</time>
      </trkpt>
      <trkpt lat="47.60862" lon="7.14198">
        <ele>364.57654467837</ele>
        <time>2025-10-12T07:38:05Z</time>
      </trkpt>
      <trkpt lat="47.60864" lon="7.14199">
        <ele>364.37386502387</ele>
        <time>2025-10-12T07:38:06Z</time>
      </trkpt>
      <trkpt lat="47.60866" lon="7.14199">
        <ele>364.11021711246</ele>
        <time>2025-10-12T07:38:08Z</time>
      </trkpt>
      <trkpt lat="47.60869" lon="7.14197">
        <ele>363.94581456213</ele>
        <time>2025-10-12T07:38:12Z</time>
      </trkpt>
      <trkpt lat="47.60872" lon="7.14194">
        <ele>363.75651655812</ele>
        <time>2025-10-12T07:38:15Z</time>
      </trkpt>
      <trkpt lat="47.60874" lon="7.14192">
        <ele>363.5406729613</ele>
        <time>2025-10-12T07:38:17Z</time>
      </trkpt>
      <trkpt lat="47.60875" lon="7.1419">
        <ele>363.49711529437</ele>
        <time>2025-10-12T07:38:19Z</time>
      </trkpt>
      <trkpt lat="47.60877" lon="7.14188">
        <ele>363.40517733733</ele>
        <time>2025-10-12T07:38:21Z</time>
      </trkpt>
      <trkpt lat="47.60879" lon="7.14186">
        <ele>363.37749244992</ele>
        <time>2025-10-12T07:38:22Z</time>
      </trkpt>
      <trkpt lat="47.6088" lon="7.14184">
        <ele>363.30813638232</ele>
        <time>2025-10-12T07:38:24Z</time>
      </trkpt>
      <trkpt lat="47.60883" lon="7.14183">
        <ele>363.21344243817</ele>
        <time>2025-10-12T07:38:28Z</time>
      </trkpt>
      <trkpt lat="47.60885" lon="7.14181">
        <ele>363.15394579106</ele>
        <time>2025-10-12T07:38:29Z</time>
      </trkpt>
      <trkpt lat="47.60887" lon="7.14179">
        <ele>363.08707693689</ele>
        <time>2025-10-12T07:38:30Z</time>
      </trkpt>
      <trkpt lat="47.60889" lon="7.14176">
        <ele>363.06536624777</ele>
        <time>2025-10-12T07:38:31Z</time>
      </trkpt>
      <trkpt lat="47.60893" lon="7.14171">
        <ele>363.0633874396</ele>
        <time>2025-10-12T07:38:32Z</time>
      </trkpt>
      <trkpt lat="47.60895" lon="7.14168">
        <ele>363.00630784491</ele>
        <time>2025-10-12T07:38:33Z</time>
      </trkpt>
      <trkpt lat="47.60897" lon="7.14166">
        <ele>362.90171605897</ele>
        <time>2025-10-12T07:38:36Z</time>
      </trkpt>
      <trkpt lat="47.609" lon="7.14163">
        <ele>362.79738130396</ele>
        <time>2025-10-12T07:38:38Z</time>
      </trkpt>
      <trkpt lat="47.60903" lon="7.14161">
        <ele>362.73584174059</ele>
        <time>2025-10-12T07:38:40Z</time>
      </trkpt>
      <trkpt lat="47.60906" lon="7.14157">
        <ele>362.69958171739</ele>
        <time>2025-10-12T07:38:41Z</time>
      </trkpt>
      <trkpt lat="47.60908" lon="7.14155">
        <ele>362.70919424047</ele>
        <time>2025-10-12T07:38:42Z</time>
      </trkpt>
      <trkpt lat="47.6091" lon="7.14153">
        <ele>362.75780869101</ele>
        <time>2025-10-12T07:38:43Z</time>
      </trkpt>
      <trkpt lat="47.60912" lon="7.14153">
        <ele>362.78346176205</ele>
        <time>2025-10-12T07:38:44Z</time>
      </trkpt>
      <trkpt lat="47.60914" lon="7.14153">
        <ele>362.67388412481</ele>
        <time>2025-10-12T07:38:45Z</time>
      </trkpt>
      <trkpt lat="47.60916" lon="7.14152">
        <ele>362.55773226929</ele>
        <time>2025-10-12T07:38:46Z</time>
      </trkpt>
      <trkpt lat="47.60918" lon="7.14152">
        <ele>362.45396925659</ele>
        <time>2025-10-12T07:38:47Z</time>
      </trkpt>
      <trkpt lat="47.60921" lon="7.1415">
        <ele>362.46160287158</ele>
        <time>2025-10-12T07:38:49Z</time>
      </trkpt>
      <trkpt lat="47.60923" lon="7.1415">
        <ele>362.43221642424</ele>
        <time>2025-10-12T07:38:50Z</time>
      </trkpt>
      <trkpt lat="47.60925" lon="7.1415">
        <ele>362.41117780392</ele>
        <time>2025-10-12T07:38:51Z</time>
      </trkpt>
      <trkpt lat="47.60928" lon="7.1415">
        <ele>362.32879134912</ele>
        <time>2025-10-12T07:38:52Z</time>
      </trkpt>
      <trkpt lat="47.60931" lon="7.14149">
        <ele>362.24046237161</ele>
        <time>2025-10-12T07:38:53Z</time>
      </trkpt>
      <trkpt lat="47.60933" lon="7.14149">
        <ele>362.15900984495</ele>
        <time>2025-10-12T07:38:54Z</time>
      </trkpt>
      <trkpt lat="47.60937" lon="7.14148">
        <ele>362.07371310303</ele>
        <time>2025-10-12T07:38:55Z</time>
      </trkpt>
      <trkpt lat="47.6094" lon="7.14147">
        <ele>362.02044160754</ele>
        <time>2025-10-12T07:38:56Z</time>
      </trkpt>
      <trkpt lat="47.60942" lon="7.14147">
        <ele>361.99163118163</ele>
        <time>2025-10-12T07:38:57Z</time>
      </trkpt>
      <trkpt lat="47.60945" lon="7.14145">
        <ele>361.9081959215</ele>
        <time>2025-10-12T07:38:59Z</time>
      </trkpt>
      <trkpt lat="47.60947" lon="7.14145">
        <ele>361.92190441576</ele>
        <time>2025-10-12T07:39:00Z</time>
      </trkpt>
      <trkpt lat="47.60951" lon="7.14146">
        <ele>361.80552355618</ele>
        <time>2025-10-12T07:39:02Z</time>
      </trkpt>
      <trkpt lat="47.60953" lon="7.14146">
        <ele>361.7145973843</ele>
        <time>2025-10-12T07:39:03Z</time>
      </trkpt>
      <trkpt lat="47.60955" lon="7.14144">
        <ele>361.68386170071</ele>
        <time>2025-10-12T07:39:04Z</time>
      </trkpt>
      <trkpt lat="47.60958" lon="7.14142">
        <ele>361.75977734534</ele>
        <time>2025-10-12T07:39:06Z</time>
      </trkpt>
      <trkpt lat="47.60961" lon="7.14141">
        <ele>361.72240984818</ele>
        <time>2025-10-12T07:39:07Z</time>
      </trkpt>
      <trkpt lat="47.60964" lon="7.14139">
        <ele>361.69639831819</ele>
        <time>2025-10-12T07:39:08Z</time>
      </trkpt>
      <trkpt lat="47.60967" lon="7.14142">
        <ele>361.62157934726</ele>
        <time>2025-10-12T07:39:10Z</time>
      </trkpt>
      <trkpt lat="47.60968" lon="7.14143">
        <ele>361.41085221468</ele>
        <time>2025-10-12T07:39:12Z</time>
      </trkpt>
      <trkpt lat="47.6097" lon="7.14144">
        <ele>361.32499728181</ele>
        <time>2025-10-12T07:39:15Z</time>
      </trkpt>
      <trkpt lat="47.60973" lon="7.14142">
        <ele>361.2623587451</ele>
        <time>2025-10-12T07:39:17Z</time>
      </trkpt>
      <trkpt lat="47.60975" lon="7.14141">
        <ele>361.24884291491</ele>
        <time>2025-10-12T07:39:18Z</time>
      </trkpt>
      <trkpt lat="47.60977" lon="7.14139">
        <ele>361.23543383678</ele>
        <time>2025-10-12T07:39:19Z</time>
      </trkpt>
      <trkpt lat="47.60979" lon="7.14138">
        <ele>361.22203543385</ele>
        <time>2025-10-12T07:39:20Z</time>
      </trkpt>
      <trkpt lat="47.60982" lon="7.14136">
        <ele>361.20435343047</ele>
        <time>2025-10-12T07:39:21Z</time>
      </trkpt>
      <trkpt lat="47.60984" lon="7.14133">
        <ele>361.23570900943</ele>
        <time>2025-10-12T07:39:22Z</time>
      </trkpt>
      <trkpt lat="47.60986" lon="7.14132">
        <ele>361.34269283393</ele>
        <time>2025-10-12T07:39:23Z</time>
      </trkpt>
      <trkpt lat="47.60989" lon="7.1413">
        <ele>361.4149421197</ele>
        <time>2025-10-12T07:39:24Z</time>
      </trkpt>
      <trkpt lat="47.60992" lon="7.14127">
        <ele>361.46976531487</ele>
        <time>2025-10-12T07:39:25Z</time>
      </trkpt>
      <trkpt lat="47.60995" lon="7.14126">
        <ele>361.54947018275</ele>
        <time>2025-10-12T07:39:27Z</time>
      </trkpt>
      <trkpt lat="47.60997" lon="7.14124">
        <ele>361.50648671385</ele>
        <time>2025-10-12T07:39:29Z</time>
      </trkpt>
      <trkpt lat="47.61" lon="7.14122">
        <ele>361.62462682545</ele>
        <time>2025-10-12T07:39:31Z</time>
      </trkpt>
      <trkpt lat="47.61002" lon="7.1412">
        <ele>361.6370527334</ele>
        <time>2025-10-12T07:39:33Z</time>
      </trkpt>
      <trkpt lat="47.61004" lon="7.14118">
        <ele>361.64377996511</ele>
        <time>2025-10-12T07:39:34Z</time>
      </trkpt>
      <trkpt lat="47.61006" lon="7.14117">
        <ele>361.62574846465</ele>
        <time>2025-10-12T07:39:35Z</time>
      </trkpt>
      <trkpt lat="47.61008" lon="7.14115">
        <ele>361.55816288778</ele>
        <time>2025-10-12T07:39:37Z</time>
      </trkpt>
      <trkpt lat="47.6101" lon="7.14114">
        <ele>361.55483934481</ele>
        <time>2025-10-12T07:39:38Z</time>
      </trkpt>
      <trkpt lat="47.61012" lon="7.14111">
        <ele>361.50326098653</ele>
        <time>2025-10-12T07:39:40Z</time>
      </trkpt>
      <trkpt lat="47.61014" lon="7.1411">
        <ele>361.50625808136</ele>
        <time>2025-10-12T07:39:42Z</time>
      </trkpt>
      <trkpt lat="47.61016" lon="7.1411">
        <ele>361.34590963434</ele>
        <time>2025-10-12T07:39:44Z</time>
      </trkpt>
      <trkpt lat="47.61019" lon="7.14109">
        <ele>361.228026853</ele>
        <time>2025-10-12T07:39:46Z</time>
      </trkpt>
      <trkpt lat="47.61021" lon="7.14109">
        <ele>361.12030291418</ele>
        <time>2025-10-12T07:39:47Z</time>
      </trkpt>
      <trkpt lat="47.61023" lon="7.14108">
        <ele>360.97898547635</ele>
        <time>2025-10-12T07:39:48Z</time>
      </trkpt>
      <trkpt lat="47.61025" lon="7.14107">
        <ele>360.82686402011</ele>
        <time>2025-10-12T07:39:50Z</time>
      </trkpt>
      <trkpt lat="47.61027" lon="7.14107">
        <ele>360.68788736121</ele>
        <time>2025-10-12T07:39:52Z</time>
      </trkpt>
      <trkpt lat="47.6103" lon="7.14105">
        <ele>360.51912912538</ele>
        <time>2025-10-12T07:39:54Z</time>
      </trkpt>
      <trkpt lat="47.61033" lon="7.14104">
        <ele>360.38469648687</ele>
        <time>2025-10-12T07:39:56Z</time>
      </trkpt>
      <trkpt lat="47.61036" lon="7.14102">
        <ele>360.22148234847</ele>
        <time>2025-10-12T07:39:58Z</time>
      </trkpt>
      <trkpt lat="47.61038" lon="7.141">
        <ele>360.10917119098</ele>
        <time>2025-10-12T07:40:00Z</time>
      </trkpt>
      <trkpt lat="47.61041" lon="7.141">
        <ele>359.98141966143</ele>
        <time>2025-10-12T07:40:02Z</time>
      </trkpt>
      <trkpt lat="47.61042" lon="7.14099">
        <ele>359.89920664815</ele>
        <time>2025-10-12T07:40:03Z</time>
      </trkpt>
      <trkpt lat="47.61046" lon="7.14099">
        <ele>359.71695002089</ele>
        <time>2025-10-12T07:40:05Z</time>
      </trkpt>
      <trkpt lat="47.61048" lon="7.141">
        <ele>359.57159696437</ele>
        <time>2025-10-12T07:40:06Z</time>
      </trkpt>
      <trkpt lat="47.61049" lon="7.141">
        <ele>359.41745289407</ele>
        <time>2025-10-12T07:40:07Z</time>
      </trkpt>
      <trkpt lat="47.61053" lon="7.141">
        <ele>359.1307167729</ele>
        <time>2025-10-12T07:40:09Z</time>
      </trkpt>
      <trkpt lat="47.61055" lon="7.141">
        <ele>359.00557007512</ele>
        <time>2025-10-12T07:40:10Z</time>
      </trkpt>
      <trkpt lat="47.61057" lon="7.14101">
        <ele>358.87118956061</ele>
        <time>2025-10-12T07:40:11Z</time>
      </trkpt>
      <trkpt lat="47.61059" lon="7.14101">
        <ele>358.7167694535</ele>
        <time>2025-10-12T07:40:12Z</time>
      </trkpt>
      <trkpt lat="47.61063" lon="7.14102">
        <ele>358.38668936964</ele>
        <time>2025-10-12T07:40:14Z</time>
      </trkpt>
      <trkpt lat="47.61066" lon="7.14103">
        <ele>358.08115742867</ele>
        <time>2025-10-12T07:40:16Z</time>
      </trkpt>
      <trkpt lat="47.61068" lon="7.14103">
        <ele>357.93947522468</ele>
        <time>2025-10-12T07:40:17Z</time>
      </trkpt>
      <trkpt lat="47.6107" lon="7.14104">
        <ele>357.79437743885</ele>
        <time>2025-10-12T07:40:18Z</time>
      </trkpt>
      <trkpt lat="47.61072" lon="7.14104">
        <ele>357.63891307042</ele>
        <time>2025-10-12T07:40:19Z</time>
      </trkpt>
      <trkpt lat="47.61075" lon="7.14105">
        <ele>357.35513810074</ele>
        <time>2025-10-12T07:40:21Z</time>
      </trkpt>
      <trkpt lat="47.61077" lon="7.14106">
        <ele>357.1729787568</ele>
        <time>2025-10-12T07:40:23Z</time>
      </trkpt>
      <trkpt lat="47.61079" lon="7.14108">
        <ele>357.01894239167</ele>
        <time>2025-10-12T07:40:24Z</time>
      </trkpt>
      <trkpt lat="47.61082" lon="7.14109">
        <ele>356.71473612344</ele>
        <time>2025-10-12T07:40:26Z</time>
      </trkpt>
      <trkpt lat="47.61084" lon="7.14111">
        <ele>356.57140304044</ele>
        <time>2025-10-12T07:40:27Z</time>
      </trkpt>
      <trkpt lat="47.61087" lon="7.14114">
        <ele>356.36046939035</ele>
        <time>2025-10-12T07:40:28Z</time>
      </trkpt>
      <trkpt lat="47.61091" lon="7.14115">
        <ele>355.76673568298</ele>
        <time>2025-10-12T07:40:30Z</time>
      </trkpt>
      <trkpt lat="47.61095" lon="7.14118">
        <ele>355.26177734981</ele>
        <time>2025-10-12T07:40:32Z</time>
      </trkpt>
      <trkpt lat="47.61097" lon="7.1412">
        <ele>354.95009397949</ele>
        <time>2025-10-12T07:40:33Z</time>
      </trkpt>
      <trkpt lat="47.61099" lon="7.14122">
        <ele>354.48045083756</ele>
        <time>2025-10-12T07:40:35Z</time>
      </trkpt>
      <trkpt lat="47.61101" lon="7.14123">
        <ele>354.16733451959</ele>
        <time>2025-10-12T07:40:38Z</time>
      </trkpt>
      <trkpt lat="47.61104" lon="7.14124">
        <ele>353.88642893501</ele>
        <time>2025-10-12T07:40:41Z</time>
      </trkpt>
      <trkpt lat="47.61106" lon="7.14126">
        <ele>353.61504764659</ele>
        <time>2025-10-12T07:40:43Z</time>
      </trkpt>
      <trkpt lat="47.61109" lon="7.14128">
        <ele>353.27515793038</ele>
        <time>2025-10-12T07:40:45Z</time>
      </trkpt>
      <trkpt lat="47.61112" lon="7.14129">
        <ele>352.90222015383</ele>
        <time>2025-10-12T07:40:47Z</time>
      </trkpt>
      <trkpt lat="47.61114" lon="7.1413">
        <ele>352.67926683807</ele>
        <time>2025-10-12T07:40:49Z</time>
      </trkpt>
      <trkpt lat="47.61116" lon="7.14132">
        <ele>352.54466486636</ele>
        <time>2025-10-12T07:40:52Z</time>
      </trkpt>
      <trkpt lat="47.61118" lon="7.14132">
        <ele>352.47312455243</ele>
        <time>2025-10-12T07:40:53Z</time>
      </trkpt>
      <trkpt lat="47.61121" lon="7.14133">
        <ele>352.35262877513</ele>
        <time>2025-10-12T07:40:55Z</time>
      </trkpt>
      <trkpt lat="47.61123" lon="7.14134">
        <ele>352.25493107514</ele>
        <time>2025-10-12T07:40:56Z</time>
      </trkpt>
      <trkpt lat="47.61125" lon="7.14135">
        <ele>352.15960527487</ele>
        <time>2025-10-12T07:40:57Z</time>
      </trkpt>
      <trkpt lat="47.61127" lon="7.14136">
        <ele>352.05696356399</ele>
        <time>2025-10-12T07:40:58Z</time>
      </trkpt>
      <trkpt lat="47.61129" lon="7.14138">
        <ele>351.93807207356</ele>
        <time>2025-10-12T07:40:59Z</time>
      </trkpt>
      <trkpt lat="47.61132" lon="7.1414">
        <ele>351.72332897055</ele>
        <time>2025-10-12T07:41:01Z</time>
      </trkpt>
      <trkpt lat="47.61135" lon="7.14143">
        <ele>351.6221672573</ele>
        <time>2025-10-12T07:41:03Z</time>
      </trkpt>
      <trkpt lat="47.61137" lon="7.14145">
        <ele>351.50955651907</ele>
        <time>2025-10-12T07:41:05Z</time>
      </trkpt>
      <trkpt lat="47.6114" lon="7.14147">
        <ele>351.40677666413</ele>
        <time>2025-10-12T07:41:07Z</time>
      </trkpt>
      <trkpt lat="47.61143" lon="7.14147">
        <ele>351.29852779624</ele>
        <time>2025-10-12T07:41:09Z</time>
      </trkpt>
      <trkpt lat="47.61145" lon="7.1415">
        <ele>351.17360467036</ele>
        <time>2025-10-12T07:41:11Z</time>
      </trkpt>
      <trkpt lat="47.61147" lon="7.14152">
        <ele>351.05682046595</ele>
        <time>2025-10-12T07:41:13Z</time>
      </trkpt>
      <trkpt lat="47.61149" lon="7.14152">
        <ele>350.94208969666</ele>
        <time>2025-10-12T07:41:15Z</time>
      </trkpt>
      <trkpt lat="47.61153" lon="7.14153">
        <ele>350.7636587586</ele>
        <time>2025-10-12T07:41:17Z</time>
      </trkpt>
      <trkpt lat="47.61155" lon="7.14154">
        <ele>350.65973646607</ele>
        <time>2025-10-12T07:41:18Z</time>
      </trkpt>
      <trkpt lat="47.61156" lon="7.14155">
        <ele>350.54354589697</ele>
        <time>2025-10-12T07:41:19Z</time>
      </trkpt>
      <trkpt lat="47.61158" lon="7.14156">
        <ele>350.42165157151</ele>
        <time>2025-10-12T07:41:20Z</time>
      </trkpt>
      <trkpt lat="47.61161" lon="7.14157">
        <ele>350.24724679678</ele>
        <time>2025-10-12T07:41:22Z</time>
      </trkpt>
      <trkpt lat="47.61164" lon="7.14158">
        <ele>350.03107434327</ele>
        <time>2025-10-12T07:41:24Z</time>
      </trkpt>
      <trkpt lat="47.61167" lon="7.14158">
        <ele>349.82580837069</ele>
        <time>2025-10-12T07:41:26Z</time>
      </trkpt>
      <trkpt lat="47.6117" lon="7.1416">
        <ele>349.73156727201</ele>
        <time>2025-10-12T07:41:27Z</time>
      </trkpt>
      <trkpt lat="47.61172" lon="7.14161">
        <ele>349.48415973553</ele>
        <time>2025-10-12T07:41:29Z</time>
      </trkpt>
      <trkpt lat="47.61175" lon="7.14162">
        <ele>349.34158251075</ele>
        <time>2025-10-12T07:41:31Z</time>
      </trkpt>
      <trkpt lat="47.61178" lon="7.14163">
        <ele>349.18057208274</ele>
        <time>2025-10-12T07:41:33Z</time>
      </trkpt>
      <trkpt lat="47.61181" lon="7.14163">
        <ele>349.05757953217</ele>
        <time>2025-10-12T07:41:35Z</time>
      </trkpt>
      <trkpt lat="47.61183" lon="7.14165">
        <ele>348.94255047336</ele>
        <time>2025-10-12T07:41:37Z</time>
      </trkpt>
      <trkpt lat="47.61186" lon="7.14168">
        <ele>348.7813733273</ele>
        <time>2025-10-12T07:41:39Z</time>
      </trkpt>
      <trkpt lat="47.61188" lon="7.1417">
        <ele>348.69886647528</ele>
        <time>2025-10-12T07:41:41Z</time>
      </trkpt>
      <trkpt lat="47.6119" lon="7.14172">
        <ele>348.64604860891</ele>
        <time>2025-10-12T07:41:43Z</time>
      </trkpt>
      <trkpt lat="47.61193" lon="7.14173">
        <ele>348.53551981989</ele>
        <time>2025-10-12T07:41:45Z</time>
      </trkpt>
      <trkpt lat="47.61196" lon="7.14174">
        <ele>348.40374863845</ele>
        <time>2025-10-12T07:41:47Z</time>
      </trkpt>
      <trkpt lat="47.61198" lon="7.14175">
        <ele>348.38022206433</ele>
        <time>2025-10-12T07:41:49Z</time>
      </trkpt>
      <trkpt lat="47.612" lon="7.14175">
        <ele>348.36862485231</ele>
        <time>2025-10-12T07:41:50Z</time>
      </trkpt>
      <trkpt lat="47.61202" lon="7.14175">
        <ele>348.34606925708</ele>
        <time>2025-10-12T07:41:51Z</time>
      </trkpt>
      <trkpt lat="47.61204" lon="7.14176">
        <ele>348.30241138379</ele>
        <time>2025-10-12T07:41:53Z</time>
      </trkpt>
      <trkpt lat="47.61207" lon="7.14177">
        <ele>348.25106620914</ele>
        <time>2025-10-12T07:41:56Z</time>
      </trkpt>
      <trkpt lat="47.61209" lon="7.14179">
        <ele>348.19926927568</ele>
        <time>2025-10-12T07:41:58Z</time>
      </trkpt>
      <trkpt lat="47.61211" lon="7.1418">
        <ele>348.13767006855</ele>
        <time>2025-10-12T07:42:00Z</time>
      </trkpt>
      <trkpt lat="47.61214" lon="7.14181">
        <ele>348.07735162287</ele>
        <time>2025-10-12T07:42:02Z</time>
      </trkpt>
      <trkpt lat="47.61216" lon="7.14183">
        <ele>348.03651590875</ele>
        <time>2025-10-12T07:42:03Z</time>
      </trkpt>
      <trkpt lat="47.61219" lon="7.14183">
        <ele>347.90277806955</ele>
        <time>2025-10-12T07:42:05Z</time>
      </trkpt>
      <trkpt lat="47.6122" lon="7.14184">
        <ele>347.88387178584</ele>
        <time>2025-10-12T07:42:06Z</time>
      </trkpt>
      <trkpt lat="47.61222" lon="7.14186">
        <ele>347.81059749047</ele>
        <time>2025-10-12T07:42:07Z</time>
      </trkpt>
      <trkpt lat="47.61224" lon="7.14187">
        <ele>347.7293870043</ele>
        <time>2025-10-12T07:42:08Z</time>
      </trkpt>
      <trkpt lat="47.61228" lon="7.14187">
        <ele>347.51846471507</ele>
        <time>2025-10-12T07:42:10Z</time>
      </trkpt>
      <trkpt lat="47.6123" lon="7.14188">
        <ele>347.46652199336</ele>
        <time>2025-10-12T07:42:11Z</time>
      </trkpt>
      <trkpt lat="47.61232" lon="7.14188">
        <ele>347.38239095361</ele>
        <time>2025-10-12T07:42:12Z</time>
      </trkpt>
      <trkpt lat="47.61234" lon="7.14187">
        <ele>347.31531085745</ele>
        <time>2025-10-12T07:42:13Z</time>
      </trkpt>
      <trkpt lat="47.61237" lon="7.14186">
        <ele>347.20795096777</ele>
        <time>2025-10-12T07:42:15Z</time>
      </trkpt>
      <trkpt lat="47.61239" lon="7.14187">
        <ele>347.16861270847</ele>
        <time>2025-10-12T07:42:16Z</time>
      </trkpt>
      <trkpt lat="47.61241" lon="7.14188">
        <ele>347.06379692453</ele>
        <time>2025-10-12T07:42:17Z</time>
      </trkpt>
      <trkpt lat="47.61241" lon="7.14191">
        <ele>346.96501273384</ele>
        <time>2025-10-12T07:42:18Z</time>
      </trkpt>
      <trkpt lat="47.61242" lon="7.14194">
        <ele>346.84711124348</ele>
        <time>2025-10-12T07:42:19Z</time>
      </trkpt>
      <trkpt lat="47.61245" lon="7.14195">
        <ele>346.67033867378</ele>
        <time>2025-10-12T07:42:21Z</time>
      </trkpt>
      <trkpt lat="47.61247" lon="7.14196">
        <ele>346.59352274372</ele>
        <time>2025-10-12T07:42:22Z</time>
      </trkpt>
      <trkpt lat="47.61249" lon="7.14196">
        <ele>346.48518804268</ele>
        <time>2025-10-12T07:42:24Z</time>
      </trkpt>
      <trkpt lat="47.61252" lon="7.14197">
        <ele>346.3859528402</ele>
        <time>2025-10-12T07:42:26Z</time>
      </trkpt>
      <trkpt lat="47.61253" lon="7.14199">
        <ele>346.30074560631</ele>
        <time>2025-10-12T07:42:29Z</time>
      </trkpt>
      <trkpt lat="47.61257" lon="7.142">
        <ele>346.23710859895</ele>
        <time>2025-10-12T07:42:31Z</time>
      </trkpt>
      <trkpt lat="47.6126" lon="7.14201">
        <ele>346.09907720934</ele>
        <time>2025-10-12T07:42:33Z</time>
      </trkpt>
      <trkpt lat="47.61262" lon="7.14202">
        <ele>345.99739446625</ele>
        <time>2025-10-12T07:42:35Z</time>
      </trkpt>
      <trkpt lat="47.61266" lon="7.14202">
        <ele>345.90657539272</ele>
        <time>2025-10-12T07:42:37Z</time>
      </trkpt>
      <trkpt lat="47.61269" lon="7.14202">
        <ele>345.78701760482</ele>
        <time>2025-10-12T07:42:39Z</time>
      </trkpt>
      <trkpt lat="47.61272" lon="7.14204">
        <ele>345.67328082821</ele>
        <time>2025-10-12T07:42:41Z</time>
      </trkpt>
      <trkpt lat="47.61275" lon="7.14205">
        <ele>345.55530111425</ele>
        <time>2025-10-12T07:42:43Z</time>
      </trkpt>
      <trkpt lat="47.61277" lon="7.14207">
        <ele>345.47964225217</ele>
        <time>2025-10-12T07:42:45Z</time>
      </trkpt>
      <trkpt lat="47.61278" lon="7.1421">
        <ele>345.41108903269</ele>
        <time>2025-10-12T07:42:47Z</time>
      </trkpt>
      <trkpt lat="47.61281" lon="7.14212">
        <ele>345.36206365675</ele>
        <time>2025-10-12T07:42:49Z</time>
      </trkpt>
      <trkpt lat="47.61283" lon="7.14214">
        <ele>345.29088736783</ele>
        <time>2025-10-12T07:42:51Z</time>
      </trkpt>
      <trkpt lat="47.61286" lon="7.14215">
        <ele>345.22146465827</ele>
        <time>2025-10-12T07:42:54Z</time>
      </trkpt>
      <trkpt lat="47.61288" lon="7.14215">
        <ele>345.16120501066</ele>
        <time>2025-10-12T07:42:56Z</time>
      </trkpt>
      <trkpt lat="47.6129" lon="7.14214">
        <ele>345.10699737268</ele>
        <time>2025-10-12T07:42:58Z</time>
      </trkpt>
      <trkpt lat="47.61293" lon="7.14214">
        <ele>345.05488821866</ele>
        <time>2025-10-12T07:43:00Z</time>
      </trkpt>
      <trkpt lat="47.61297" lon="7.14214">
        <ele>344.96704779118</ele>
        <time>2025-10-12T07:43:02Z</time>
      </trkpt>
      <trkpt lat="47.61301" lon="7.14215">
        <ele>344.88296992402</ele>
        <time>2025-10-12T07:43:04Z</time>
      </trkpt>
      <trkpt lat="47.61303" lon="7.14215">
        <ele>344.81155100546</ele>
        <time>2025-10-12T07:43:05Z</time>
      </trkpt>
      <trkpt lat="47.61305" lon="7.14216">
        <ele>344.73200921126</ele>
        <time>2025-10-12T07:43:06Z</time>
      </trkpt>
      <trkpt lat="47.61307" lon="7.14216">
        <ele>344.65942795665</ele>
        <time>2025-10-12T07:43:07Z</time>
      </trkpt>
      <trkpt lat="47.61309" lon="7.14216">
        <ele>344.58828433314</ele>
        <time>2025-10-12T07:43:08Z</time>
      </trkpt>
      <trkpt lat="47.61311" lon="7.14218">
        <ele>344.50649040536</ele>
        <time>2025-10-12T07:43:09Z</time>
      </trkpt>
      <trkpt lat="47.61314" lon="7.14218">
        <ele>344.32451333698</ele>
        <time>2025-10-12T07:43:11Z</time>
      </trkpt>
      <trkpt lat="47.61316" lon="7.1422">
        <ele>344.23778237313</ele>
        <time>2025-10-12T07:43:12Z</time>
      </trkpt>
      <trkpt lat="47.61318" lon="7.14221">
        <ele>344.12424477479</ele>
        <time>2025-10-12T07:43:13Z</time>
      </trkpt>
      <trkpt lat="47.6132" lon="7.14222">
        <ele>344.0024784173</ele>
        <time>2025-10-12T07:43:14Z</time>
      </trkpt>
      <trkpt lat="47.61322" lon="7.14223">
        <ele>343.85763544854</ele>
        <time>2025-10-12T07:43:16Z</time>
      </trkpt>
      <trkpt lat="47.61326" lon="7.14226">
        <ele>343.76834857891</ele>
        <time>2025-10-12T07:43:18Z</time>
      </trkpt>
      <trkpt lat="47.61328" lon="7.14227">
        <ele>343.71571387095</ele>
        <time>2025-10-12T07:43:19Z</time>
      </trkpt>
      <trkpt lat="47.6133" lon="7.14228">
        <ele>343.64098934059</ele>
        <time>2025-10-12T07:43:20Z</time>
      </trkpt>
      <trkpt lat="47.61332" lon="7.14228">
        <ele>343.55804081333</ele>
        <time>2025-10-12T07:43:21Z</time>
      </trkpt>
      <trkpt lat="47.61335" lon="7.14229">
        <ele>343.40953567699</ele>
        <time>2025-10-12T07:43:23Z</time>
      </trkpt>
      <trkpt lat="47.61337" lon="7.14229">
        <ele>343.28784039326</ele>
        <time>2025-10-12T07:43:24Z</time>
      </trkpt>
      <trkpt lat="47.6134" lon="7.14231">
        <ele>343.08724962738</ele>
        <time>2025-10-12T07:43:26Z</time>
      </trkpt>
      <trkpt lat="47.61343" lon="7.14232">
        <ele>342.9108577334</ele>
        <time>2025-10-12T07:43:28Z</time>
      </trkpt>
      <trkpt lat="47.61346" lon="7.14233">
        <ele>342.74338428076</ele>
        <time>2025-10-12T07:43:30Z</time>
      </trkpt>
      <trkpt lat="47.61348" lon="7.14234">
        <ele>342.69143704563</ele>
        <time>2025-10-12T07:43:31Z</time>
      </trkpt>
      <trkpt lat="47.6135" lon="7.14235">
        <ele>342.57341273227</ele>
        <time>2025-10-12T07:43:32Z</time>
      </trkpt>
      <trkpt lat="47.61353" lon="7.14236">
        <ele>342.46034382145</ele>
        <time>2025-10-12T07:43:33Z</time>
      </trkpt>
      <trkpt lat="47.61355" lon="7.14236">
        <ele>342.35381293134</ele>
        <time>2025-10-12T07:43:34Z</time>
      </trkpt>
      <trkpt lat="47.61357" lon="7.14237">
        <ele>342.25491216166</ele>
        <time>2025-10-12T07:43:35Z</time>
      </trkpt>
      <trkpt lat="47.61359" lon="7.14238">
        <ele>342.1664698386</ele>
        <time>2025-10-12T07:43:36Z</time>
      </trkpt>
      <trkpt lat="47.61361" lon="7.14239">
        <ele>342.07789232993</ele>
        <time>2025-10-12T07:43:37Z</time>
      </trkpt>
      <trkpt lat="47.61363" lon="7.1424">
        <ele>342.00773086812</ele>
        <time>2025-10-12T07:43:38Z</time>
      </trkpt>
      <trkpt lat="47.61365" lon="7.1424">
        <ele>341.92963317898</ele>
        <time>2025-10-12T07:43:39Z</time>
      </trkpt>
      <trkpt lat="47.61369" lon="7.14241">
        <ele>341.72644709626</ele>
        <time>2025-10-12T07:43:41Z</time>
      </trkpt>
      <trkpt lat="47.61371" lon="7.14241">
        <ele>341.61616239456</ele>
        <time>2025-10-12T07:43:42Z</time>
      </trkpt>
      <trkpt lat="47.61374" lon="7.14242">
        <ele>341.41000977611</ele>
        <time>2025-10-12T07:43:44Z</time>
      </trkpt>
      <trkpt lat="47.61376" lon="7.14243">
        <ele>341.26788904582</ele>
        <time>2025-10-12T07:43:46Z</time>
      </trkpt>
      <trkpt lat="47.61378" lon="7.14243">
        <ele>341.14671595194</ele>
        <time>2025-10-12T07:43:49Z</time>
      </trkpt>
      <trkpt lat="47.6138" lon="7.14243">
        <ele>341.01524023844</ele>
        <time>2025-10-12T07:43:51Z</time>
      </trkpt>
      <trkpt lat="47.61383" lon="7.14244">
        <ele>340.90065918492</ele>
        <time>2025-10-12T07:43:53Z</time>
      </trkpt>
      <trkpt lat="47.61387" lon="7.14243">
        <ele>340.70092176061</ele>
        <time>2025-10-12T07:43:55Z</time>
      </trkpt>
      <trkpt lat="47.61389" lon="7.14244">
        <ele>340.54285790787</ele>
        <time>2025-10-12T07:43:56Z</time>
      </trkpt>
      <trkpt lat="47.61391" lon="7.14243">
        <ele>340.40167005287</ele>
        <time>2025-10-12T07:43:57Z</time>
      </trkpt>
      <trkpt lat="47.61394" lon="7.14244">
        <ele>340.27700669839</ele>
        <time>2025-10-12T07:43:59Z</time>
      </trkpt>
      <trkpt lat="47.61396" lon="7.14243">
        <ele>340.17687487198</ele>
        <time>2025-10-12T07:44:01Z</time>
      </trkpt>
      <trkpt lat="47.61399" lon="7.14242">
        <ele>340.08823286768</ele>
        <time>2025-10-12T07:44:03Z</time>
      </trkpt>
      <trkpt lat="47.61402" lon="7.14242">
        <ele>339.99309601866</ele>
        <time>2025-10-12T07:44:06Z</time>
      </trkpt>
      <trkpt lat="47.61405" lon="7.14244">
        <ele>339.8963590684</ele>
        <time>2025-10-12T07:44:08Z</time>
      </trkpt>
      <trkpt lat="47.61407" lon="7.14244">
        <ele>339.83489004197</ele>
        <time>2025-10-12T07:44:09Z</time>
      </trkpt>
      <trkpt lat="47.61408" lon="7.14244">
        <ele>339.7719163571</ele>
        <time>2025-10-12T07:44:10Z</time>
      </trkpt>
      <trkpt lat="47.61411" lon="7.14244">
        <ele>339.6470427796</ele>
        <time>2025-10-12T07:44:12Z</time>
      </trkpt>
      <trkpt lat="47.61414" lon="7.14244">
        <ele>339.54998216012</ele>
        <time>2025-10-12T07:44:15Z</time>
      </trkpt>
      <trkpt lat="47.61416" lon="7.14244">
        <ele>339.48361829847</ele>
        <time>2025-10-12T07:44:17Z</time>
      </trkpt>
      <trkpt lat="47.61418" lon="7.14243">
        <ele>339.41639399091</ele>
        <time>2025-10-12T07:44:19Z</time>
      </trkpt>
      <trkpt lat="47.6142" lon="7.14242">
        <ele>339.26622803445</ele>
        <time>2025-10-12T07:44:21Z</time>
      </trkpt>
      <trkpt lat="47.61423" lon="7.14242">
        <ele>339.09031292274</ele>
        <time>2025-10-12T07:44:23Z</time>
      </trkpt>
      <trkpt lat="47.61426" lon="7.14241">
        <ele>338.94047454799</ele>
        <time>2025-10-12T07:44:25Z</time>
      </trkpt>
      <trkpt lat="47.61428" lon="7.14241">
        <ele>338.85762129208</ele>
        <time>2025-10-12T07:44:26Z</time>
      </trkpt>
      <trkpt lat="47.61431" lon="7.14241">
        <ele>338.62905827621</ele>
        <time>2025-10-12T07:44:28Z</time>
      </trkpt>
      <trkpt lat="47.61434" lon="7.14242">
        <ele>338.41838751546</ele>
        <time>2025-10-12T07:44:31Z</time>
      </trkpt>
      <trkpt lat="47.61436" lon="7.14243">
        <ele>338.32053099703</ele>
        <time>2025-10-12T07:44:32Z</time>
      </trkpt>
      <trkpt lat="47.61438" lon="7.14244">
        <ele>338.11167229758</ele>
        <time>2025-10-12T07:44:34Z</time>
      </trkpt>
      <trkpt lat="47.6144" lon="7.14245">
        <ele>337.93492855922</ele>
        <time>2025-10-12T07:44:36Z</time>
      </trkpt>
      <trkpt lat="47.61443" lon="7.14246">
        <ele>337.74861003541</ele>
        <time>2025-10-12T07:44:38Z</time>
      </trkpt>
      <trkpt lat="47.61446" lon="7.14246">
        <ele>337.56278627888</ele>
        <time>2025-10-12T07:44:40Z</time>
      </trkpt>
      <trkpt lat="47.61448" lon="7.14246">
        <ele>337.47811035333</ele>
        <time>2025-10-12T07:44:42Z</time>
      </trkpt>
      <trkpt lat="47.6145" lon="7.14244">
        <ele>337.4366004471</ele>
        <time>2025-10-12T07:44:44Z</time>
      </trkpt>
      <trkpt lat="47.61454" lon="7.14244">
        <ele>337.35922611952</ele>
        <time>2025-10-12T07:44:46Z</time>
      </trkpt>
      <trkpt lat="47.61456" lon="7.14243">
        <ele>337.30099181056</ele>
        <time>2025-10-12T07:44:47Z</time>
      </trkpt>
      <trkpt lat="47.61458" lon="7.14243">
        <ele>337.24254386795</ele>
        <time>2025-10-12T07:44:48Z</time>
      </trkpt>
      <trkpt lat="47.61461" lon="7.14243">
        <ele>337.10786569289</ele>
        <time>2025-10-12T07:44:50Z</time>
      </trkpt>
      <trkpt lat="47.61463" lon="7.14243">
        <ele>337.06107305305</ele>
        <time>2025-10-12T07:44:51Z</time>
      </trkpt>
      <trkpt lat="47.61465" lon="7.14243">
        <ele>336.99053075196</ele>
        <time>2025-10-12T07:44:52Z</time>
      </trkpt>
      <trkpt lat="47.61468" lon="7.14244">
        <ele>336.91017024744</ele>
        <time>2025-10-12T07:44:53Z</time>
      </trkpt>
      <trkpt lat="47.6147" lon="7.14245">
        <ele>336.80745951437</ele>
        <time>2025-10-12T07:44:54Z</time>
      </trkpt>
      <trkpt lat="47.61472" lon="7.14245">
        <ele>336.69180208852</ele>
        <time>2025-10-12T07:44:55Z</time>
      </trkpt>
      <trkpt lat="47.61474" lon="7.14246">
        <ele>336.51375201289</ele>
        <time>2025-10-12T07:44:57Z</time>
      </trkpt>
      <trkpt lat="47.61476" lon="7.14247">
        <ele>336.29384071379</ele>
        <time>2025-10-12T07:44:59Z</time>
      </trkpt>
      <trkpt lat="47.61479" lon="7.14248">
        <ele>336.12927191086</ele>
        <time>2025-10-12T07:45:01Z</time>
      </trkpt>
      <trkpt lat="47.61482" lon="7.14247">
        <ele>335.96330645965</ele>
        <time>2025-10-12T07:45:03Z</time>
      </trkpt>
      <trkpt lat="47.61484" lon="7.14247">
        <ele>335.80300148043</ele>
        <time>2025-10-12T07:45:05Z</time>
      </trkpt>
      <trkpt lat="47.61486" lon="7.14246">
        <ele>335.75444527439</ele>
        <time>2025-10-12T07:45:06Z</time>
      </trkpt>
      <trkpt lat="47.61488" lon="7.14244">
        <ele>335.63117135246</ele>
        <time>2025-10-12T07:45:08Z</time>
      </trkpt>
      <trkpt lat="47.61491" lon="7.14244">
        <ele>335.51385707028</ele>
        <time>2025-10-12T07:45:10Z</time>
      </trkpt>
      <trkpt lat="47.61494" lon="7.14245">
        <ele>335.31320242111</ele>
        <time>2025-10-12T07:45:12Z</time>
      </trkpt>
      <trkpt lat="47.61497" lon="7.14245">
        <ele>335.09736073057</ele>
        <time>2025-10-12T07:45:14Z</time>
      </trkpt>
      <trkpt lat="47.61499" lon="7.14246">
        <ele>334.85106687665</ele>
        <time>2025-10-12T07:45:16Z</time>
      </trkpt>
      <trkpt lat="47.61502" lon="7.14246">
        <ele>334.68637981702</ele>
        <time>2025-10-12T07:45:18Z</time>
      </trkpt>
      <trkpt lat="47.61504" lon="7.14246">
        <ele>334.56803687802</ele>
        <time>2025-10-12T07:45:21Z</time>
      </trkpt>
      <trkpt lat="47.61506" lon="7.14246">
        <ele>334.57002778852</ele>
        <time>2025-10-12T07:45:23Z</time>
      </trkpt>
      <trkpt lat="47.61508" lon="7.14247">
        <ele>334.3878806444</ele>
        <time>2025-10-12T07:45:25Z</time>
      </trkpt>
      <trkpt lat="47.61511" lon="7.14247">
        <ele>334.27799490294</ele>
        <time>2025-10-12T07:45:27Z</time>
      </trkpt>
      <trkpt lat="47.61513" lon="7.14249">
        <ele>334.13485655578</ele>
        <time>2025-10-12T07:45:29Z</time>
      </trkpt>
      <trkpt lat="47.61515" lon="7.14247">
        <ele>334.04097550848</ele>
        <time>2025-10-12T07:45:30Z</time>
      </trkpt>
      <trkpt lat="47.61517" lon="7.14246">
        <ele>334.09948291157</ele>
        <time>2025-10-12T07:45:31Z</time>
      </trkpt>
      <trkpt lat="47.6152" lon="7.14247">
        <ele>334.07279028262</ele>
        <time>2025-10-12T07:45:34Z</time>
      </trkpt>
      <trkpt lat="47.61522" lon="7.14248">
        <ele>333.85617151397</ele>
        <time>2025-10-12T07:45:36Z</time>
      </trkpt>
      <trkpt lat="47.61524" lon="7.14248">
        <ele>333.71662678625</ele>
        <time>2025-10-12T07:45:38Z</time>
      </trkpt>
      <trkpt lat="47.61527" lon="7.14248">
        <ele>333.66339509629</ele>
        <time>2025-10-12T07:45:40Z</time>
      </trkpt>
      <trkpt lat="47.6153" lon="7.14248">
        <ele>333.53191124131</ele>
        <time>2025-10-12T07:45:42Z</time>
      </trkpt>
      <trkpt lat="47.61533" lon="7.14249">
        <ele>333.40806588518</ele>
        <time>2025-10-12T07:45:44Z</time>
      </trkpt>
      <trkpt lat="47.61536" lon="7.14249">
        <ele>333.23893711179</ele>
        <time>2025-10-12T07:45:46Z</time>
      </trkpt>
      <trkpt lat="47.61539" lon="7.14249">
        <ele>333.15321140023</ele>
        <time>2025-10-12T07:45:48Z</time>
      </trkpt>
      <trkpt lat="47.61541" lon="7.14249">
        <ele>333.02478090093</ele>
        <time>2025-10-12T07:45:50Z</time>
      </trkpt>
      <trkpt lat="47.61544" lon="7.1425">
        <ele>332.88034748705</ele>
        <time>2025-10-12T07:45:52Z</time>
      </trkpt>
      <trkpt lat="47.61547" lon="7.1425">
        <ele>332.78701350447</ele>
        <time>2025-10-12T07:45:54Z</time>
      </trkpt>
      <trkpt lat="47.6155" lon="7.14252">
        <ele>332.68931803441</ele>
        <time>2025-10-12T07:45:55Z</time>
      </trkpt>
      <trkpt lat="47.61552" lon="7.14252">
        <ele>332.54741042588</ele>
        <time>2025-10-12T07:45:56Z</time>
      </trkpt>
      <trkpt lat="47.61554" lon="7.14253">
        <ele>332.4083005279</ele>
        <time>2025-10-12T07:45:58Z</time>
      </trkpt>
      <trkpt lat="47.61557" lon="7.14254">
        <ele>332.26210962424</ele>
        <time>2025-10-12T07:46:00Z</time>
      </trkpt>
      <trkpt lat="47.6156" lon="7.14254">
        <ele>332.19513074743</ele>
        <time>2025-10-12T07:46:02Z</time>
      </trkpt>
      <trkpt lat="47.61563" lon="7.14255">
        <ele>332.10712560831</ele>
        <time>2025-10-12T07:46:03Z</time>
      </trkpt>
      <trkpt lat="47.61566" lon="7.14255">
        <ele>331.9698910269</ele>
        <time>2025-10-12T07:46:05Z</time>
      </trkpt>
      <trkpt lat="47.61569" lon="7.14254">
        <ele>331.90975422415</ele>
        <time>2025-10-12T07:46:06Z</time>
      </trkpt>
      <trkpt lat="47.61571" lon="7.14254">
        <ele>331.81378462262</ele>
        <time>2025-10-12T07:46:08Z</time>
      </trkpt>
      <trkpt lat="47.61574" lon="7.14253">
        <ele>331.74013113999</ele>
        <time>2025-10-12T07:46:10Z</time>
      </trkpt>
      <trkpt lat="47.61576" lon="7.14251">
        <ele>331.71522672179</ele>
        <time>2025-10-12T07:46:11Z</time>
      </trkpt>
      <trkpt lat="47.61578" lon="7.14251">
        <ele>331.62618138862</ele>
        <time>2025-10-12T07:46:13Z</time>
      </trkpt>
      <trkpt lat="47.61581" lon="7.14251">
        <ele>331.55305582786</ele>
        <time>2025-10-12T07:46:15Z</time>
      </trkpt>
      <trkpt lat="47.61584" lon="7.1425">
        <ele>331.4567380244</ele>
        <time>2025-10-12T07:46:17Z</time>
      </trkpt>
      <trkpt lat="47.61586" lon="7.14251">
        <ele>331.32932041982</ele>
        <time>2025-10-12T07:46:20Z</time>
      </trkpt>
      <trkpt lat="47.61588" lon="7.14251">
        <ele>331.28837914933</ele>
        <time>2025-10-12T07:46:22Z</time>
      </trkpt>
      <trkpt lat="47.6159" lon="7.14249">
        <ele>331.23261237578</ele>
        <time>2025-10-12T07:46:24Z</time>
      </trkpt>
      <trkpt lat="47.61593" lon="7.14248">
        <ele>331.26061092143</ele>
        <time>2025-10-12T07:46:26Z</time>
      </trkpt>
      <trkpt lat="47.61595" lon="7.14249">
        <ele>331.18236564231</ele>
        <time>2025-10-12T07:46:27Z</time>
      </trkpt>
      <trkpt lat="47.61599" lon="7.14248">
        <ele>331.00746135937</ele>
        <time>2025-10-12T07:46:29Z</time>
      </trkpt>
      <trkpt lat="47.61601" lon="7.14246">
        <ele>330.98113210701</ele>
        <time>2025-10-12T07:46:30Z</time>
      </trkpt>
      <trkpt lat="47.61603" lon="7.14244">
        <ele>330.96611209681</ele>
        <time>2025-10-12T07:46:31Z</time>
      </trkpt>
      <trkpt lat="47.61605" lon="7.14243">
        <ele>330.97674998837</ele>
        <time>2025-10-12T07:46:32Z</time>
      </trkpt>
      <trkpt lat="47.61609" lon="7.14241">
        <ele>330.89103478046</ele>
        <time>2025-10-12T07:46:34Z</time>
      </trkpt>
      <trkpt lat="47.61611" lon="7.1424">
        <ele>330.84188324794</ele>
        <time>2025-10-12T07:46:35Z</time>
      </trkpt>
      <trkpt lat="47.61614" lon="7.14239">
        <ele>330.77972932516</ele>
        <time>2025-10-12T07:46:36Z</time>
      </trkpt>
      <trkpt lat="47.61615" lon="7.14238">
        <ele>330.72789320534</ele>
        <time>2025-10-12T07:46:37Z</time>
      </trkpt>
      <trkpt lat="47.61616" lon="7.14236">
        <ele>330.69582055528</ele>
        <time>2025-10-12T07:46:38Z</time>
      </trkpt>
      <trkpt lat="47.61618" lon="7.14233">
        <ele>330.74179125284</ele>
        <time>2025-10-12T07:46:41Z</time>
      </trkpt>
      <trkpt lat="47.6162" lon="7.14234">
        <ele>330.75241665885</ele>
        <time>2025-10-12T07:46:42Z</time>
      </trkpt>
      <trkpt lat="47.61622" lon="7.14233">
        <ele>330.66531391625</ele>
        <time>2025-10-12T07:46:43Z</time>
      </trkpt>
      <trkpt lat="47.61625" lon="7.14232">
        <ele>330.5751890965</ele>
        <time>2025-10-12T07:46:45Z</time>
      </trkpt>
      <trkpt lat="47.61628" lon="7.14231">
        <ele>330.54670920201</ele>
        <time>2025-10-12T07:46:46Z</time>
      </trkpt>
      <trkpt lat="47.61631" lon="7.14231">
        <ele>330.45416967533</ele>
        <time>2025-10-12T07:46:48Z</time>
      </trkpt>
      <trkpt lat="47.61632" lon="7.1423">
        <ele>330.34877929796</ele>
        <time>2025-10-12T07:46:52Z</time>
      </trkpt>
      <trkpt lat="47.61635" lon="7.14228">
        <ele>330.37039792763</ele>
        <time>2025-10-12T07:46:56Z</time>
      </trkpt>
      <trkpt lat="47.61637" lon="7.14228">
        <ele>330.31898310068</ele>
        <time>2025-10-12T07:46:58Z</time>
      </trkpt>
      <trkpt lat="47.61641" lon="7.14228">
        <ele>330.2099130442</ele>
        <time>2025-10-12T07:47:00Z</time>
      </trkpt>
      <trkpt lat="47.61643" lon="7.14228">
        <ele>330.14235933115</ele>
        <time>2025-10-12T07:47:01Z</time>
      </trkpt>
      <trkpt lat="47.61646" lon="7.14227">
        <ele>330.01756147936</ele>
        <time>2025-10-12T07:47:03Z</time>
      </trkpt>
      <trkpt lat="47.61649" lon="7.14226">
        <ele>329.96109896227</ele>
        <time>2025-10-12T07:47:05Z</time>
      </trkpt>
      <trkpt lat="47.61651" lon="7.14225">
        <ele>329.89843411737</ele>
        <time>2025-10-12T07:47:07Z</time>
      </trkpt>
      <trkpt lat="47.61654" lon="7.14226">
        <ele>329.80206161931</ele>
        <time>2025-10-12T07:47:09Z</time>
      </trkpt>
      <trkpt lat="47.61657" lon="7.14226">
        <ele>329.67948198857</ele>
        <time>2025-10-12T07:47:11Z</time>
      </trkpt>
      <trkpt lat="47.61659" lon="7.14225">
        <ele>329.62300152832</ele>
        <time>2025-10-12T07:47:12Z</time>
      </trkpt>
      <trkpt lat="47.61661" lon="7.14224">
        <ele>329.58911861902</ele>
        <time>2025-10-12T07:47:13Z</time>
      </trkpt>
      <trkpt lat="47.61663" lon="7.14222">
        <ele>329.54350062985</ele>
        <time>2025-10-12T07:47:15Z</time>
      </trkpt>
      <trkpt lat="47.61665" lon="7.14221">
        <ele>329.49350639507</ele>
        <time>2025-10-12T07:47:18Z</time>
      </trkpt>
      <trkpt lat="47.61668" lon="7.1422">
        <ele>329.44906808056</ele>
        <time>2025-10-12T07:47:35Z</time>
      </trkpt>
      <trkpt lat="47.6167" lon="7.1422">
        <ele>329.41448293697</ele>
        <time>2025-10-12T07:47:37Z</time>
      </trkpt>
      <trkpt lat="47.61671" lon="7.14221">
        <ele>329.31153486298</ele>
        <time>2025-10-12T07:47:41Z</time>
      </trkpt>
      <trkpt lat="47.61673" lon="7.14221">
        <ele>329.2146509857</ele>
        <time>2025-10-12T07:47:44Z</time>
      </trkpt>
      <trkpt lat="47.61676" lon="7.1422">
        <ele>329.20247568008</ele>
        <time>2025-10-12T07:47:46Z</time>
      </trkpt>
      <trkpt lat="47.61678" lon="7.14222">
        <ele>329.10154612673</ele>
        <time>2025-10-12T07:47:48Z</time>
      </trkpt>
      <trkpt lat="47.6168" lon="7.14223">
        <ele>328.9808984645</ele>
        <time>2025-10-12T07:47:50Z</time>
      </trkpt>
      <trkpt lat="47.61683" lon="7.14224">
        <ele>328.84642508114</ele>
        <time>2025-10-12T07:47:52Z</time>
      </trkpt>
      <trkpt lat="47.61685" lon="7.14223">
        <ele>328.74298440004</ele>
        <time>2025-10-12T07:47:54Z</time>
      </trkpt>
      <trkpt lat="47.61687" lon="7.14222">
        <ele>328.70492332087</ele>
        <time>2025-10-12T07:47:56Z</time>
      </trkpt>
      <trkpt lat="47.61689" lon="7.14222">
        <ele>328.64259080578</ele>
        <time>2025-10-12T07:47:58Z</time>
      </trkpt>
      <trkpt lat="47.61691" lon="7.14223">
        <ele>328.558207715</ele>
        <time>2025-10-12T07:48:00Z</time>
      </trkpt>
      <trkpt lat="47.61693" lon="7.14222">
        <ele>328.47429900372</ele>
        <time>2025-10-12T07:48:02Z</time>
      </trkpt>
      <trkpt lat="47.61696" lon="7.14222">
        <ele>328.42978102257</ele>
        <time>2025-10-12T07:48:04Z</time>
      </trkpt>
      <trkpt lat="47.61698" lon="7.14221">
        <ele>328.34304098192</ele>
        <time>2025-10-12T07:48:06Z</time>
      </trkpt>
      <trkpt lat="47.617" lon="7.1422">
        <ele>328.28032497839</ele>
        <time>2025-10-12T07:48:09Z</time>
      </trkpt>
      <trkpt lat="47.61703" lon="7.1422">
        <ele>328.2169722559</ele>
        <time>2025-10-12T07:48:13Z</time>
      </trkpt>
      <trkpt lat="47.61705" lon="7.14221">
        <ele>328.11997783566</ele>
        <time>2025-10-12T07:48:15Z</time>
      </trkpt>
      <trkpt lat="47.61707" lon="7.14218">
        <ele>328.07491426353</ele>
        <time>2025-10-12T07:48:17Z</time>
      </trkpt>
      <trkpt lat="47.6171" lon="7.14216">
        <ele>328.07885266589</ele>
        <time>2025-10-12T07:48:19Z</time>
      </trkpt>
      <trkpt lat="47.61713" lon="7.14214">
        <ele>328.05464247716</ele>
        <time>2025-10-12T07:48:21Z</time>
      </trkpt>
      <trkpt lat="47.61715" lon="7.14213">
        <ele>328.01757694998</ele>
        <time>2025-10-12T07:48:23Z</time>
      </trkpt>
      <trkpt lat="47.61717" lon="7.14213">
        <ele>327.98557689361</ele>
        <time>2025-10-12T07:48:24Z</time>
      </trkpt>
      <trkpt lat="47.61719" lon="7.14211">
        <ele>327.91206299092</ele>
        <time>2025-10-12T07:48:26Z</time>
      </trkpt>
      <trkpt lat="47.61722" lon="7.14212">
        <ele>327.86481997836</ele>
        <time>2025-10-12T07:48:28Z</time>
      </trkpt>
      <trkpt lat="47.61725" lon="7.14212">
        <ele>327.77004365419</ele>
        <time>2025-10-12T07:48:30Z</time>
      </trkpt>
      <trkpt lat="47.61728" lon="7.14212">
        <ele>327.7766242723</ele>
        <time>2025-10-12T07:48:32Z</time>
      </trkpt>
      <trkpt lat="47.6173" lon="7.14212">
        <ele>327.77647186021</ele>
        <time>2025-10-12T07:48:33Z</time>
      </trkpt>
      <trkpt lat="47.61732" lon="7.14213">
        <ele>327.75486848424</ele>
        <time>2025-10-12T07:48:34Z</time>
      </trkpt>
      <trkpt lat="47.61735" lon="7.14215">
        <ele>327.69848332382</ele>
        <time>2025-10-12T07:48:36Z</time>
      </trkpt>
      <trkpt lat="47.61737" lon="7.14216">
        <ele>327.63222123003</ele>
        <time>2025-10-12T07:48:38Z</time>
      </trkpt>
      <trkpt lat="47.61739" lon="7.14216">
        <ele>327.63008369454</ele>
        <time>2025-10-12T07:48:40Z</time>
      </trkpt>
      <trkpt lat="47.61741" lon="7.14216">
        <ele>327.62753740693</ele>
        <time>2025-10-12T07:48:41Z</time>
      </trkpt>
      <trkpt lat="47.61743" lon="7.14217">
        <ele>327.61102301254</ele>
        <time>2025-10-12T07:48:42Z</time>
      </trkpt>
      <trkpt lat="47.61745" lon="7.14218">
        <ele>327.57625843111</ele>
        <time>2025-10-12T07:48:44Z</time>
      </trkpt>
      <trkpt lat="47.61749" lon="7.1422">
        <ele>327.52846083413</ele>
        <time>2025-10-12T07:48:46Z</time>
      </trkpt>
      <trkpt lat="47.61751" lon="7.14221">
        <ele>327.49828332401</ele>
        <time>2025-10-12T07:48:47Z</time>
      </trkpt>
      <trkpt lat="47.61753" lon="7.14222">
        <ele>327.41225048003</ele>
        <time>2025-10-12T07:48:49Z</time>
      </trkpt>
      <trkpt lat="47.61756" lon="7.14223">
        <ele>327.40059883079</ele>
        <time>2025-10-12T07:48:51Z</time>
      </trkpt>
      <trkpt lat="47.61759" lon="7.14223">
        <ele>327.40002638168</ele>
        <time>2025-10-12T07:48:53Z</time>
      </trkpt>
      <trkpt lat="47.61762" lon="7.14225">
        <ele>327.40002065719</ele>
        <time>2025-10-12T07:48:55Z</time>
      </trkpt>
      <trkpt lat="47.61764" lon="7.14226">
        <ele>327.40002059994</ele>
        <time>2025-10-12T07:48:57Z</time>
      </trkpt>
      <trkpt lat="47.61767" lon="7.14228">
        <ele>327.40002059937</ele>
        <time>2025-10-12T07:49:00Z</time>
      </trkpt>
      <trkpt lat="47.61769" lon="7.14229">
        <ele>327.40002059937</ele>
        <time>2025-10-12T07:49:02Z</time>
      </trkpt>
      <trkpt lat="47.61771" lon="7.1423">
        <ele>327.40002059937</ele>
        <time>2025-10-12T07:49:04Z</time>
      </trkpt>
      <trkpt lat="47.61773" lon="7.14231">
        <ele>327.40002059937</ele>
        <time>2025-10-12T07:49:06Z</time>
      </trkpt>
      <trkpt lat="47.61775" lon="7.14232">
        <ele>327.40002059937</ele>
        <time>2025-10-12T07:49:08Z</time>
      </trkpt>
      <trkpt lat="47.61777" lon="7.14234">
        <ele>327.40002059937</ele>
        <time>2025-10-12T07:49:09Z</time>
      </trkpt>
      <trkpt lat="47.61779" lon="7.14234">
        <ele>327.40002059937</ele>
        <time>2025-10-12T07:49:10Z</time>
      </trkpt>
      <trkpt lat="47.61783" lon="7.14237">
        <ele>327.36115097046</ele>
        <time>2025-10-12T07:49:12Z</time>
      </trkpt>
      <trkpt lat="47.61785" lon="7.14238">
        <ele>327.31508200073</ele>
        <time>2025-10-12T07:49:13Z</time>
      </trkpt>
      <trkpt lat="47.61787" lon="7.14238">
        <ele>327.26661218872</ele>
        <time>2025-10-12T07:49:14Z</time>
      </trkpt>
      <trkpt lat="47.61789" lon="7.14239">
        <ele>327.22358771729</ele>
        <time>2025-10-12T07:49:15Z</time>
      </trkpt>
      <trkpt lat="47.61791" lon="7.14239">
        <ele>327.16166197913</ele>
        <time>2025-10-12T07:49:16Z</time>
      </trkpt>
      <trkpt lat="47.61794" lon="7.14239">
        <ele>327.07348265525</ele>
        <time>2025-10-12T07:49:18Z</time>
      </trkpt>
      <trkpt lat="47.61797" lon="7.14241">
        <ele>326.9899095168</ele>
        <time>2025-10-12T07:49:20Z</time>
      </trkpt>
      <trkpt lat="47.618" lon="7.14242">
        <ele>326.89378936159</ele>
        <time>2025-10-12T07:49:22Z</time>
      </trkpt>
      <trkpt lat="47.61803" lon="7.14244">
        <ele>326.79422861169</ele>
        <time>2025-10-12T07:49:24Z</time>
      </trkpt>
      <trkpt lat="47.61805" lon="7.14245">
        <ele>326.71940050704</ele>
        <time>2025-10-12T07:49:25Z</time>
      </trkpt>
      <trkpt lat="47.61808" lon="7.14246">
        <ele>326.60709318262</ele>
        <time>2025-10-12T07:49:27Z</time>
      </trkpt>
      <trkpt lat="47.6181" lon="7.14247">
        <ele>326.65094264356</ele>
        <time>2025-10-12T07:49:29Z</time>
      </trkpt>
      <trkpt lat="47.61812" lon="7.1425">
        <ele>326.65999167283</ele>
        <time>2025-10-12T07:49:31Z</time>
      </trkpt>
      <trkpt lat="47.61814" lon="7.14253">
        <ele>326.64076819828</ele>
        <time>2025-10-12T07:49:33Z</time>
      </trkpt>
      <trkpt lat="47.61816" lon="7.14256">
        <ele>326.67653146891</ele>
        <time>2025-10-12T07:49:35Z</time>
      </trkpt>
      <trkpt lat="47.61818" lon="7.14259">
        <ele>326.69764776861</ele>
        <time>2025-10-12T07:49:37Z</time>
      </trkpt>
      <trkpt lat="47.6182" lon="7.14261">
        <ele>326.72101811129</ele>
        <time>2025-10-12T07:49:39Z</time>
      </trkpt>
      <trkpt lat="47.61822" lon="7.14263">
        <ele>326.70979979392</ele>
        <time>2025-10-12T07:49:40Z</time>
      </trkpt>
      <trkpt lat="47.61823" lon="7.14267">
        <ele>326.69680766133</ele>
        <time>2025-10-12T07:49:42Z</time>
      </trkpt>
      <trkpt lat="47.61824" lon="7.14271">
        <ele>326.62080341139</ele>
        <time>2025-10-12T07:49:44Z</time>
      </trkpt>
      <trkpt lat="47.61827" lon="7.14274">
        <ele>326.55288119848</ele>
        <time>2025-10-12T07:49:46Z</time>
      </trkpt>
      <trkpt lat="47.61828" lon="7.14277">
        <ele>326.46892560916</ele>
        <time>2025-10-12T07:49:48Z</time>
      </trkpt>
      <trkpt lat="47.61829" lon="7.14281">
        <ele>326.42270394702</ele>
        <time>2025-10-12T07:49:49Z</time>
      </trkpt>
      <trkpt lat="47.6183" lon="7.14284">
        <ele>326.40228893413</ele>
        <time>2025-10-12T07:49:50Z</time>
      </trkpt>
      <trkpt lat="47.61831" lon="7.14287">
        <ele>326.40004328271</ele>
        <time>2025-10-12T07:49:52Z</time>
      </trkpt>
      <trkpt lat="47.61833" lon="7.14291">
        <ele>326.4000208262</ele>
        <time>2025-10-12T07:49:54Z</time>
      </trkpt>
      <trkpt lat="47.61833" lon="7.14294">
        <ele>326.40002062205</ele>
        <time>2025-10-12T07:49:55Z</time>
      </trkpt>
      <trkpt lat="47.61834" lon="7.14297">
        <ele>326.40002060163</ele>
        <time>2025-10-12T07:49:56Z</time>
      </trkpt>
      <trkpt lat="47.61834" lon="7.14301">
        <ele>326.40002059959</ele>
        <time>2025-10-12T07:49:57Z</time>
      </trkpt>
      <trkpt lat="47.61835" lon="7.14304">
        <ele>326.40002059939</ele>
        <time>2025-10-12T07:49:58Z</time>
      </trkpt>
      <trkpt lat="47.61837" lon="7.14306">
        <ele>326.40002059937</ele>
        <time>2025-10-12T07:49:59Z</time>
      </trkpt>
      <trkpt lat="47.61837" lon="7.14309">
        <ele>326.3979057312</ele>
        <time>2025-10-12T07:50:00Z</time>
      </trkpt>
      <trkpt lat="47.61839" lon="7.14315">
        <ele>326.36522772217</ele>
        <time>2025-10-12T07:50:02Z</time>
      </trkpt>
      <trkpt lat="47.61839" lon="7.14317">
        <ele>326.3396870636</ele>
        <time>2025-10-12T07:50:03Z</time>
      </trkpt>
      <trkpt lat="47.61841" lon="7.14322">
        <ele>326.29156997397</ele>
        <time>2025-10-12T07:50:05Z</time>
      </trkpt>
      <trkpt lat="47.61841" lon="7.14324">
        <ele>326.25354931612</ele>
        <time>2025-10-12T07:50:06Z</time>
      </trkpt>
      <trkpt lat="47.61842" lon="7.14328">
        <ele>326.19005185821</ele>
        <time>2025-10-12T07:50:08Z</time>
      </trkpt>
      <trkpt lat="47.61843" lon="7.14332">
        <ele>326.12334235971</ele>
        <time>2025-10-12T07:50:10Z</time>
      </trkpt>
      <trkpt lat="47.61845" lon="7.14337">
        <ele>326.01201547468</ele>
        <time>2025-10-12T07:50:12Z</time>
      </trkpt>
      <trkpt lat="47.61846" lon="7.14339">
        <ele>325.98156005272</ele>
        <time>2025-10-12T07:50:13Z</time>
      </trkpt>
      <trkpt lat="47.61848" lon="7.14341">
        <ele>325.93632701052</ele>
        <time>2025-10-12T07:50:14Z</time>
      </trkpt>
      <trkpt lat="47.61849" lon="7.14343">
        <ele>325.89063244165</ele>
        <time>2025-10-12T07:50:15Z</time>
      </trkpt>
      <trkpt lat="47.6185" lon="7.14346">
        <ele>325.84104650527</ele>
        <time>2025-10-12T07:50:16Z</time>
      </trkpt>
      <trkpt lat="47.61852" lon="7.14351">
        <ele>325.7774276846</ele>
        <time>2025-10-12T07:50:18Z</time>
      </trkpt>
      <trkpt lat="47.61853" lon="7.14355">
        <ele>325.70756114971</ele>
        <time>2025-10-12T07:50:20Z</time>
      </trkpt>
      <trkpt lat="47.61854" lon="7.14357">
        <ele>325.68936535264</ele>
        <time>2025-10-12T07:50:21Z</time>
      </trkpt>
      <trkpt lat="47.61855" lon="7.14363">
        <ele>325.62837547268</ele>
        <time>2025-10-12T07:50:23Z</time>
      </trkpt>
      <trkpt lat="47.61857" lon="7.14366">
        <ele>325.60785285415</ele>
        <time>2025-10-12T07:50:25Z</time>
      </trkpt>
      <trkpt lat="47.61858" lon="7.14369">
        <ele>325.56357115883</ele>
        <time>2025-10-12T07:50:26Z</time>
      </trkpt>
      <trkpt lat="47.61859" lon="7.14373">
        <ele>325.50568839256</ele>
        <time>2025-10-12T07:50:28Z</time>
      </trkpt>
      <trkpt lat="47.61859" lon="7.14378">
        <ele>325.47572937691</ele>
        <time>2025-10-12T07:50:30Z</time>
      </trkpt>
      <trkpt lat="47.6186" lon="7.14382">
        <ele>325.44625559241</ele>
        <time>2025-10-12T07:50:32Z</time>
      </trkpt>
      <trkpt lat="47.61861" lon="7.14384">
        <ele>325.43925103226</ele>
        <time>2025-10-12T07:50:33Z</time>
      </trkpt>
      <trkpt lat="47.61862" lon="7.14387">
        <ele>325.406031045</ele>
        <time>2025-10-12T07:50:34Z</time>
      </trkpt>
      <trkpt lat="47.61863" lon="7.14391">
        <ele>325.40008070382</ele>
        <time>2025-10-12T07:50:36Z</time>
      </trkpt>
      <trkpt lat="47.61864" lon="7.14395">
        <ele>325.39311903977</ele>
        <time>2025-10-12T07:50:38Z</time>
      </trkpt>
      <trkpt lat="47.61864" lon="7.14398">
        <ele>325.38150512602</ele>
        <time>2025-10-12T07:50:39Z</time>
      </trkpt>
      <trkpt lat="47.61865" lon="7.14402">
        <ele>325.35324792022</ele>
        <time>2025-10-12T07:50:41Z</time>
      </trkpt>
      <trkpt lat="47.61866" lon="7.14405">
        <ele>325.31706752101</ele>
        <time>2025-10-12T07:50:43Z</time>
      </trkpt>
      <trkpt lat="47.61867" lon="7.14409">
        <ele>325.27104379075</ele>
        <time>2025-10-12T07:50:45Z</time>
      </trkpt>
      <trkpt lat="47.61869" lon="7.14412">
        <ele>325.20900243772</ele>
        <time>2025-10-12T07:50:47Z</time>
      </trkpt>
      <trkpt lat="47.6187" lon="7.14417">
        <ele>325.14014319363</ele>
        <time>2025-10-12T07:50:49Z</time>
      </trkpt>
      <trkpt lat="47.61871" lon="7.1442">
        <ele>325.00678919591</ele>
        <time>2025-10-12T07:50:51Z</time>
      </trkpt>
      <trkpt lat="47.61873" lon="7.14423">
        <ele>324.84344851482</ele>
        <time>2025-10-12T07:50:53Z</time>
      </trkpt>
      <trkpt lat="47.61875" lon="7.14426">
        <ele>324.64539054747</ele>
        <time>2025-10-12T07:50:55Z</time>
      </trkpt>
      <trkpt lat="47.61877" lon="7.14429">
        <ele>324.4859237007</ele>
        <time>2025-10-12T07:50:57Z</time>
      </trkpt>
      <trkpt lat="47.61879" lon="7.14433">
        <ele>324.30101116114</ele>
        <time>2025-10-12T07:50:59Z</time>
      </trkpt>
      <trkpt lat="47.6188" lon="7.14435">
        <ele>324.20631838601</ele>
        <time>2025-10-12T07:51:00Z</time>
      </trkpt>
      <trkpt lat="47.61881" lon="7.14438">
        <ele>324.0777298458</ele>
        <time>2025-10-12T07:51:01Z</time>
      </trkpt>
      <trkpt lat="47.61882" lon="7.14442">
        <ele>323.84234517718</ele>
        <time>2025-10-12T07:51:03Z</time>
      </trkpt>
      <trkpt lat="47.61884" lon="7.14446">
        <ele>323.65498980462</ele>
        <time>2025-10-12T07:51:05Z</time>
      </trkpt>
      <trkpt lat="47.61885" lon="7.14448">
        <ele>323.55856195348</ele>
        <time>2025-10-12T07:51:06Z</time>
      </trkpt>
      <trkpt lat="47.61886" lon="7.1445">
        <ele>323.44070383634</ele>
        <time>2025-10-12T07:51:07Z</time>
      </trkpt>
      <trkpt lat="47.61888" lon="7.14454">
        <ele>323.21247058359</ele>
        <time>2025-10-12T07:51:09Z</time>
      </trkpt>
      <trkpt lat="47.6189" lon="7.14457">
        <ele>323.02586513095</ele>
        <time>2025-10-12T07:51:11Z</time>
      </trkpt>
      <trkpt lat="47.61891" lon="7.14461">
        <ele>322.8541202312</ele>
        <time>2025-10-12T07:51:13Z</time>
      </trkpt>
      <trkpt lat="47.61893" lon="7.14464">
        <ele>322.73450025535</ele>
        <time>2025-10-12T07:51:15Z</time>
      </trkpt>
      <trkpt lat="47.61894" lon="7.14467">
        <ele>322.60700797405</ele>
        <time>2025-10-12T07:51:17Z</time>
      </trkpt>
      <trkpt lat="47.61897" lon="7.1447">
        <ele>322.51905092233</ele>
        <time>2025-10-12T07:51:19Z</time>
      </trkpt>
      <trkpt lat="47.619" lon="7.14472">
        <ele>322.43230495777</ele>
        <time>2025-10-12T07:51:21Z</time>
      </trkpt>
      <trkpt lat="47.61901" lon="7.14474">
        <ele>322.40679212603</ele>
        <time>2025-10-12T07:51:22Z</time>
      </trkpt>
      <trkpt lat="47.61903" lon="7.14477">
        <ele>322.18879650555</ele>
        <time>2025-10-12T07:51:24Z</time>
      </trkpt>
      <trkpt lat="47.61904" lon="7.14481">
        <ele>321.92302432522</ele>
        <time>2025-10-12T07:51:26Z</time>
      </trkpt>
      <trkpt lat="47.61906" lon="7.14484">
        <ele>321.66921364932</ele>
        <time>2025-10-12T07:51:28Z</time>
      </trkpt>
      <trkpt lat="47.61908" lon="7.14487">
        <ele>321.43608075496</ele>
        <time>2025-10-12T07:51:30Z</time>
      </trkpt>
      <trkpt lat="47.61909" lon="7.1449">
        <ele>321.2118860227</ele>
        <time>2025-10-12T07:51:32Z</time>
      </trkpt>
      <trkpt lat="47.61911" lon="7.14493">
        <ele>321.01484488544</ele>
        <time>2025-10-12T07:51:35Z</time>
      </trkpt>
      <trkpt lat="47.61913" lon="7.14497">
        <ele>320.75893159857</ele>
        <time>2025-10-12T07:51:37Z</time>
      </trkpt>
      <trkpt lat="47.61915" lon="7.14499">
        <ele>320.56978066883</ele>
        <time>2025-10-12T07:51:39Z</time>
      </trkpt>
      <trkpt lat="47.61916" lon="7.14502">
        <ele>320.40576666197</ele>
        <time>2025-10-12T07:51:41Z</time>
      </trkpt>
      <trkpt lat="47.61918" lon="7.14505">
        <ele>320.40639519866</ele>
        <time>2025-10-12T07:51:43Z</time>
      </trkpt>
      <trkpt lat="47.61919" lon="7.14508">
        <ele>320.4394840646</ele>
        <time>2025-10-12T07:51:45Z</time>
      </trkpt>
      <trkpt lat="47.6192" lon="7.14512">
        <ele>320.46422382777</ele>
        <time>2025-10-12T07:51:47Z</time>
      </trkpt>
      <trkpt lat="47.61922" lon="7.14514">
        <ele>320.47899789776</ele>
        <time>2025-10-12T07:51:49Z</time>
      </trkpt>
      <trkpt lat="47.61923" lon="7.14516">
        <ele>320.48394371983</ele>
        <time>2025-10-12T07:51:50Z</time>
      </trkpt>
      <trkpt lat="47.61925" lon="7.14519">
        <ele>320.49015395899</ele>
        <time>2025-10-12T07:51:52Z</time>
      </trkpt>
      <trkpt lat="47.61926" lon="7.14521">
        <ele>320.48956372048</ele>
        <time>2025-10-12T07:51:53Z</time>
      </trkpt>
      <trkpt lat="47.61928" lon="7.14523">
        <ele>320.48197906187</ele>
        <time>2025-10-12T07:51:54Z</time>
      </trkpt>
      <trkpt lat="47.6193" lon="7.14525">
        <ele>320.46908070343</ele>
        <time>2025-10-12T07:51:55Z</time>
      </trkpt>
      <trkpt lat="47.61931" lon="7.14528">
        <ele>320.43167616623</ele>
        <time>2025-10-12T07:51:57Z</time>
      </trkpt>
      <trkpt lat="47.61933" lon="7.1453">
        <ele>320.40047723072</ele>
        <time>2025-10-12T07:51:59Z</time>
      </trkpt>
      <trkpt lat="47.61935" lon="7.14532">
        <ele>320.40002516568</ele>
        <time>2025-10-12T07:52:01Z</time>
      </trkpt>
      <trkpt lat="47.61937" lon="7.14534">
        <ele>320.40002064503</ele>
        <time>2025-10-12T07:52:03Z</time>
      </trkpt>
      <trkpt lat="47.61939" lon="7.14538">
        <ele>320.40002059982</ele>
        <time>2025-10-12T07:52:05Z</time>
      </trkpt>
      <trkpt lat="47.6194" lon="7.1454">
        <ele>320.40002059941</ele>
        <time>2025-10-12T07:52:06Z</time>
      </trkpt>
      <trkpt lat="47.61943" lon="7.14544">
        <ele>320.40002059937</ele>
        <time>2025-10-12T07:52:08Z</time>
      </trkpt>
      <trkpt lat="47.61945" lon="7.14546">
        <ele>320.40002059937</ele>
        <time>2025-10-12T07:52:10Z</time>
      </trkpt>
      <trkpt lat="47.61947" lon="7.14548">
        <ele>320.40002059937</ele>
        <time>2025-10-12T07:52:12Z</time>
      </trkpt>
      <trkpt lat="47.6195" lon="7.14552">
        <ele>320.40002059937</ele>
        <time>2025-10-12T07:52:14Z</time>
      </trkpt>
      <trkpt lat="47.61951" lon="7.14555">
        <ele>320.40002059937</ele>
        <time>2025-10-12T07:52:15Z</time>
      </trkpt>
      <trkpt lat="47.61952" lon="7.14558">
        <ele>320.40002059937</ele>
        <time>2025-10-12T07:52:16Z</time>
      </trkpt>
      <trkpt lat="47.61953" lon="7.1456">
        <ele>320.40002059937</ele>
        <time>2025-10-12T07:52:17Z</time>
      </trkpt>
      <trkpt lat="47.61954" lon="7.14563">
        <ele>320.40002059937</ele>
        <time>2025-10-12T07:52:19Z</time>
      </trkpt>
      <trkpt lat="47.61957" lon="7.14566">
        <ele>320.40002059937</ele>
        <time>2025-10-12T07:52:21Z</time>
      </trkpt>
      <trkpt lat="47.61959" lon="7.1457">
        <ele>320.40002059937</ele>
        <time>2025-10-12T07:52:23Z</time>
      </trkpt>
      <trkpt lat="47.6196" lon="7.14573">
        <ele>320.40002059937</ele>
        <time>2025-10-12T07:52:25Z</time>
      </trkpt>
      <trkpt lat="47.61963" lon="7.14573">
        <ele>320.40002059937</ele>
        <time>2025-10-12T07:52:29Z</time>
      </trkpt>
      <trkpt lat="47.61965" lon="7.14574">
        <ele>320.40002059937</ele>
        <time>2025-10-12T07:52:31Z</time>
      </trkpt>
      <trkpt lat="47.61967" lon="7.14575">
        <ele>320.40002059937</ele>
        <time>2025-10-12T07:52:33Z</time>
      </trkpt>
      <trkpt lat="47.6197" lon="7.14578">
        <ele>320.40002059937</ele>
        <time>2025-10-12T07:52:35Z</time>
      </trkpt>
      <trkpt lat="47.61972" lon="7.1458">
        <ele>320.40002059937</ele>
        <time>2025-10-12T07:52:37Z</time>
      </trkpt>
      <trkpt lat="47.61975" lon="7.14581">
        <ele>320.35615219116</ele>
        <time>2025-10-12T07:52:39Z</time>
      </trkpt>
      <trkpt lat="47.61977" lon="7.14583">
        <ele>320.30411764526</ele>
        <time>2025-10-12T07:52:40Z</time>
      </trkpt>
      <trkpt lat="47.6198" lon="7.14585">
        <ele>320.19649565186</ele>
        <time>2025-10-12T07:52:42Z</time>
      </trkpt>
      <trkpt lat="47.61982" lon="7.14589">
        <ele>319.99331219315</ele>
        <time>2025-10-12T07:52:44Z</time>
      </trkpt>
      <trkpt lat="47.61983" lon="7.14591">
        <ele>319.88696511519</ele>
        <time>2025-10-12T07:52:45Z</time>
      </trkpt>
      <trkpt lat="47.61984" lon="7.14593">
        <ele>319.76797774626</ele>
        <time>2025-10-12T07:52:46Z</time>
      </trkpt>
      <trkpt lat="47.61985" lon="7.14595">
        <ele>319.57103293451</ele>
        <time>2025-10-12T07:52:48Z</time>
      </trkpt>
      <trkpt lat="47.61987" lon="7.14598">
        <ele>319.42886695319</ele>
        <time>2025-10-12T07:52:50Z</time>
      </trkpt>
      <trkpt lat="47.61989" lon="7.14601">
        <ele>319.26799796671</ele>
        <time>2025-10-12T07:52:52Z</time>
      </trkpt>
      <trkpt lat="47.61992" lon="7.14604">
        <ele>319.06511425243</ele>
        <time>2025-10-12T07:52:54Z</time>
      </trkpt>
      <trkpt lat="47.61994" lon="7.14606">
        <ele>318.88535958521</ele>
        <time>2025-10-12T07:52:56Z</time>
      </trkpt>
      <trkpt lat="47.61996" lon="7.14608">
        <ele>318.74404665768</ele>
        <time>2025-10-12T07:52:58Z</time>
      </trkpt>
      <trkpt lat="47.61999" lon="7.1461">
        <ele>318.57503709286</ele>
        <time>2025-10-12T07:53:00Z</time>
      </trkpt>
      <trkpt lat="47.62001" lon="7.14612">
        <ele>318.41348493666</ele>
        <time>2025-10-12T07:53:02Z</time>
      </trkpt>
      <trkpt lat="47.62003" lon="7.14613">
        <ele>318.36118453798</ele>
        <time>2025-10-12T07:53:03Z</time>
      </trkpt>
      <trkpt lat="47.62005" lon="7.14613">
        <ele>318.33270078123</ele>
        <time>2025-10-12T07:53:05Z</time>
      </trkpt>
      <trkpt lat="47.62008" lon="7.14615">
        <ele>318.3129069715</ele>
        <time>2025-10-12T07:53:07Z</time>
      </trkpt>
      <trkpt lat="47.6201" lon="7.14616">
        <ele>318.2394467043</ele>
        <time>2025-10-12T07:53:09Z</time>
      </trkpt>
      <trkpt lat="47.62012" lon="7.14618">
        <ele>318.19200922077</ele>
        <time>2025-10-12T07:53:11Z</time>
      </trkpt>
      <trkpt lat="47.62013" lon="7.1462">
        <ele>318.17240183455</ele>
        <time>2025-10-12T07:53:12Z</time>
      </trkpt>
      <trkpt lat="47.62016" lon="7.14623">
        <ele>318.04474270273</ele>
        <time>2025-10-12T07:53:14Z</time>
      </trkpt>
      <trkpt lat="47.62019" lon="7.14625">
        <ele>317.94753898739</ele>
        <time>2025-10-12T07:53:16Z</time>
      </trkpt>
      <trkpt lat="47.62021" lon="7.14627">
        <ele>317.91713205731</ele>
        <time>2025-10-12T07:53:17Z</time>
      </trkpt>
      <trkpt lat="47.62022" lon="7.14629">
        <ele>317.84608599321</ele>
        <time>2025-10-12T07:53:18Z</time>
      </trkpt>
      <trkpt lat="47.62025" lon="7.14632">
        <ele>317.71164525477</ele>
        <time>2025-10-12T07:53:20Z</time>
      </trkpt>
      <trkpt lat="47.62027" lon="7.14633">
        <ele>317.65030537936</ele>
        <time>2025-10-12T07:53:21Z</time>
      </trkpt>
      <trkpt lat="47.6203" lon="7.14637">
        <ele>317.56108637441</ele>
        <time>2025-10-12T07:53:23Z</time>
      </trkpt>
      <trkpt lat="47.62031" lon="7.14639">
        <ele>317.53238999425</ele>
        <time>2025-10-12T07:53:24Z</time>
      </trkpt>
      <trkpt lat="47.62033" lon="7.14643">
        <ele>317.53438598033</ele>
        <time>2025-10-12T07:53:26Z</time>
      </trkpt>
      <trkpt lat="47.62036" lon="7.14646">
        <ele>317.59802776636</ele>
        <time>2025-10-12T07:53:28Z</time>
      </trkpt>
      <trkpt lat="47.62038" lon="7.14649">
        <ele>317.61937341273</ele>
        <time>2025-10-12T07:53:30Z</time>
      </trkpt>
      <trkpt lat="47.6204" lon="7.14651">
        <ele>317.63514076324</ele>
        <time>2025-10-12T07:53:32Z</time>
      </trkpt>
      <trkpt lat="47.62042" lon="7.14654">
        <ele>317.64352719651</ele>
        <time>2025-10-12T07:53:34Z</time>
      </trkpt>
      <trkpt lat="47.62045" lon="7.14657">
        <ele>317.62743369268</ele>
        <time>2025-10-12T07:53:36Z</time>
      </trkpt>
      <trkpt lat="47.62046" lon="7.14659">
        <ele>317.61268805616</ele>
        <time>2025-10-12T07:53:37Z</time>
      </trkpt>
      <trkpt lat="47.62049" lon="7.14662">
        <ele>317.56894994727</ele>
        <time>2025-10-12T07:53:39Z</time>
      </trkpt>
      <trkpt lat="47.62051" lon="7.14665">
        <ele>317.49800505886</ele>
        <time>2025-10-12T07:53:41Z</time>
      </trkpt>
      <trkpt lat="47.62053" lon="7.14666">
        <ele>317.46650849844</ele>
        <time>2025-10-12T07:53:42Z</time>
      </trkpt>
      <trkpt lat="47.62056" lon="7.14667">
        <ele>317.42932683578</ele>
        <time>2025-10-12T07:53:44Z</time>
      </trkpt>
      <trkpt lat="47.62059" lon="7.1467">
        <ele>317.45333642784</ele>
        <time>2025-10-12T07:53:46Z</time>
      </trkpt>
      <trkpt lat="47.62061" lon="7.14672">
        <ele>317.52612474154</ele>
        <time>2025-10-12T07:53:48Z</time>
      </trkpt>
      <trkpt lat="47.62063" lon="7.14674">
        <ele>317.57494527604</ele>
        <time>2025-10-12T07:53:50Z</time>
      </trkpt>
      <trkpt lat="47.62065" lon="7.14675">
        <ele>317.59543665102</ele>
        <time>2025-10-12T07:53:51Z</time>
      </trkpt>
      <trkpt lat="47.62066" lon="7.14677">
        <ele>317.6311314184</ele>
        <time>2025-10-12T07:53:52Z</time>
      </trkpt>
      <trkpt lat="47.62068" lon="7.14678">
        <ele>317.65641526468</ele>
        <time>2025-10-12T07:53:54Z</time>
      </trkpt>
      <trkpt lat="47.6207" lon="7.14681">
        <ele>317.66359646726</ele>
        <time>2025-10-12T07:53:55Z</time>
      </trkpt>
      <trkpt lat="47.62072" lon="7.14684">
        <ele>317.6492005475</ele>
        <time>2025-10-12T07:53:57Z</time>
      </trkpt>
      <trkpt lat="47.62074" lon="7.14686">
        <ele>317.62835045941</ele>
        <time>2025-10-12T07:53:58Z</time>
      </trkpt>
      <trkpt lat="47.62076" lon="7.14689">
        <ele>317.58851391994</ele>
        <time>2025-10-12T07:54:00Z</time>
      </trkpt>
      <trkpt lat="47.62078" lon="7.14691">
        <ele>317.55878082009</ele>
        <time>2025-10-12T07:54:01Z</time>
      </trkpt>
      <trkpt lat="47.6208" lon="7.14694">
        <ele>317.47824882657</ele>
        <time>2025-10-12T07:54:03Z</time>
      </trkpt>
      <trkpt lat="47.62082" lon="7.14696">
        <ele>317.38750118486</ele>
        <time>2025-10-12T07:54:05Z</time>
      </trkpt>
      <trkpt lat="47.62085" lon="7.14698">
        <ele>317.31761330073</ele>
        <time>2025-10-12T07:54:07Z</time>
      </trkpt>
      <trkpt lat="47.62088" lon="7.147">
        <ele>317.3368134087</ele>
        <time>2025-10-12T07:54:09Z</time>
      </trkpt>
      <trkpt lat="47.62089" lon="7.14703">
        <ele>317.3319132467</ele>
        <time>2025-10-12T07:54:11Z</time>
      </trkpt>
      <trkpt lat="47.62091" lon="7.14707">
        <ele>317.25528953805</ele>
        <time>2025-10-12T07:54:13Z</time>
      </trkpt>
      <trkpt lat="47.62093" lon="7.14709">
        <ele>317.22391264422</ele>
        <time>2025-10-12T07:54:15Z</time>
      </trkpt>
      <trkpt lat="47.62095" lon="7.14711">
        <ele>317.2322176497</ele>
        <time>2025-10-12T07:54:17Z</time>
      </trkpt>
      <trkpt lat="47.62096" lon="7.14713">
        <ele>317.24341181319</ele>
        <time>2025-10-12T07:54:18Z</time>
      </trkpt>
      <trkpt lat="47.62098" lon="7.14715">
        <ele>317.20105283598</ele>
        <time>2025-10-12T07:54:19Z</time>
      </trkpt>
      <trkpt lat="47.62099" lon="7.14716">
        <ele>317.15396689585</ele>
        <time>2025-10-12T07:54:21Z</time>
      </trkpt>
      <trkpt lat="47.62102" lon="7.14718">
        <ele>317.19651300422</ele>
        <time>2025-10-12T07:54:23Z</time>
      </trkpt>
      <trkpt lat="47.62104" lon="7.1472">
        <ele>317.19365080662</ele>
        <time>2025-10-12T07:54:25Z</time>
      </trkpt>
      <trkpt lat="47.62107" lon="7.14722">
        <ele>317.23622716511</ele>
        <time>2025-10-12T07:54:27Z</time>
      </trkpt>
      <trkpt lat="47.62109" lon="7.14725">
        <ele>317.22315347801</ele>
        <time>2025-10-12T07:54:29Z</time>
      </trkpt>
      <trkpt lat="47.62111" lon="7.14727">
        <ele>317.24316457571</ele>
        <time>2025-10-12T07:54:30Z</time>
      </trkpt>
      <trkpt lat="47.62114" lon="7.14728">
        <ele>317.20735035456</ele>
        <time>2025-10-12T07:54:32Z</time>
      </trkpt>
      <trkpt lat="47.62115" lon="7.1473">
        <ele>317.20104471258</ele>
        <time>2025-10-12T07:54:33Z</time>
      </trkpt>
      <trkpt lat="47.62118" lon="7.14733">
        <ele>317.12394392643</ele>
        <time>2025-10-12T07:54:35Z</time>
      </trkpt>
      <trkpt lat="47.62119" lon="7.14737">
        <ele>317.05055054309</ele>
        <time>2025-10-12T07:54:37Z</time>
      </trkpt>
      <trkpt lat="47.6212" lon="7.14739">
        <ele>317.03001805175</ele>
        <time>2025-10-12T07:54:38Z</time>
      </trkpt>
      <trkpt lat="47.62121" lon="7.14742">
        <ele>316.99646150671</ele>
        <time>2025-10-12T07:54:39Z</time>
      </trkpt>
      <trkpt lat="47.62121" lon="7.14746">
        <ele>316.93641639908</ele>
        <time>2025-10-12T07:54:40Z</time>
      </trkpt>
      <trkpt lat="47.62122" lon="7.14748">
        <ele>316.86773488637</ele>
        <time>2025-10-12T07:54:41Z</time>
      </trkpt>
      <trkpt lat="47.62122" lon="7.1475">
        <ele>316.84845218432</ele>
        <time>2025-10-12T07:54:42Z</time>
      </trkpt>
      <trkpt lat="47.62123" lon="7.14754">
        <ele>316.7932402227</ele>
        <time>2025-10-12T07:54:43Z</time>
      </trkpt>
      <trkpt lat="47.62123" lon="7.14759">
        <ele>316.62572830829</ele>
        <time>2025-10-12T07:54:45Z</time>
      </trkpt>
      <trkpt lat="47.62124" lon="7.14764">
        <ele>316.45359756171</ele>
        <time>2025-10-12T07:54:47Z</time>
      </trkpt>
      <trkpt lat="47.62126" lon="7.14768">
        <ele>316.32059787289</ele>
        <time>2025-10-12T07:54:49Z</time>
      </trkpt>
      <trkpt lat="47.62127" lon="7.14773">
        <ele>316.22816924319</ele>
        <time>2025-10-12T07:54:51Z</time>
      </trkpt>
      <trkpt lat="47.62128" lon="7.14775">
        <ele>316.15962074207</ele>
        <time>2025-10-12T07:54:52Z</time>
      </trkpt>
      <trkpt lat="47.62129" lon="7.14777">
        <ele>316.12096047203</ele>
        <time>2025-10-12T07:54:53Z</time>
      </trkpt>
      <trkpt lat="47.6213" lon="7.1478">
        <ele>316.07779085616</ele>
        <time>2025-10-12T07:54:54Z</time>
      </trkpt>
      <trkpt lat="47.62132" lon="7.14783">
        <ele>315.96571401238</ele>
        <time>2025-10-12T07:54:56Z</time>
      </trkpt>
      <trkpt lat="47.62134" lon="7.14788">
        <ele>315.92922550713</ele>
        <time>2025-10-12T07:54:58Z</time>
      </trkpt>
      <trkpt lat="47.62135" lon="7.14792">
        <ele>315.81944778028</ele>
        <time>2025-10-12T07:55:00Z</time>
      </trkpt>
      <trkpt lat="47.62136" lon="7.14795">
        <ele>315.73049508358</ele>
        <time>2025-10-12T07:55:02Z</time>
      </trkpt>
      <trkpt lat="47.62137" lon="7.14799">
        <ele>315.62114577878</ele>
        <time>2025-10-12T07:55:04Z</time>
      </trkpt>
      <trkpt lat="47.62139" lon="7.14803">
        <ele>315.52785227352</ele>
        <time>2025-10-12T07:55:06Z</time>
      </trkpt>
      <trkpt lat="47.6214" lon="7.14806">
        <ele>315.45281655527</ele>
        <time>2025-10-12T07:55:08Z</time>
      </trkpt>
      <trkpt lat="47.62141" lon="7.1481">
        <ele>315.3234382684</ele>
        <time>2025-10-12T07:55:10Z</time>
      </trkpt>
      <trkpt lat="47.62141" lon="7.14814">
        <ele>315.21458833318</ele>
        <time>2025-10-12T07:55:12Z</time>
      </trkpt>
      <trkpt lat="47.62142" lon="7.14817">
        <ele>315.0852152269</ele>
        <time>2025-10-12T07:55:14Z</time>
      </trkpt>
      <trkpt lat="47.62144" lon="7.14823">
        <ele>314.97470091478</ele>
        <time>2025-10-12T07:55:16Z</time>
      </trkpt>
      <trkpt lat="47.62144" lon="7.14826">
        <ele>314.89501914848</ele>
        <time>2025-10-12T07:55:17Z</time>
      </trkpt>
      <trkpt lat="47.62145" lon="7.1483">
        <ele>314.76765948867</ele>
        <time>2025-10-12T07:55:19Z</time>
      </trkpt>
      <trkpt lat="47.62146" lon="7.14835">
        <ele>314.66972543064</ele>
        <time>2025-10-12T07:55:21Z</time>
      </trkpt>
      <trkpt lat="47.62148" lon="7.14837">
        <ele>314.57508214963</ele>
        <time>2025-10-12T07:55:23Z</time>
      </trkpt>
      <trkpt lat="47.62148" lon="7.14842">
        <ele>314.5229174551</ele>
        <time>2025-10-12T07:55:25Z</time>
      </trkpt>
      <trkpt lat="47.6215" lon="7.14845">
        <ele>314.40507281011</ele>
        <time>2025-10-12T07:55:27Z</time>
      </trkpt>
      <trkpt lat="47.62151" lon="7.14848">
        <ele>314.32167268397</ele>
        <time>2025-10-12T07:55:29Z</time>
      </trkpt>
      <trkpt lat="47.62152" lon="7.14851">
        <ele>314.28638746798</ele>
        <time>2025-10-12T07:55:30Z</time>
      </trkpt>
      <trkpt lat="47.62154" lon="7.14854">
        <ele>314.21315489793</ele>
        <time>2025-10-12T07:55:32Z</time>
      </trkpt>
      <trkpt lat="47.62154" lon="7.14857">
        <ele>314.15320626364</ele>
        <time>2025-10-12T07:55:34Z</time>
      </trkpt>
      <trkpt lat="47.62156" lon="7.1486">
        <ele>314.07204952632</ele>
        <time>2025-10-12T07:55:36Z</time>
      </trkpt>
      <trkpt lat="47.62158" lon="7.14863">
        <ele>314.05743650476</ele>
        <time>2025-10-12T07:55:37Z</time>
      </trkpt>
      <trkpt lat="47.62161" lon="7.14865">
        <ele>313.99936483899</ele>
        <time>2025-10-12T07:55:39Z</time>
      </trkpt>
      <trkpt lat="47.62163" lon="7.14868">
        <ele>314.03553338991</ele>
        <time>2025-10-12T07:55:41Z</time>
      </trkpt>
      <trkpt lat="47.62165" lon="7.14871">
        <ele>314.0085665842</ele>
        <time>2025-10-12T07:55:43Z</time>
      </trkpt>
      <trkpt lat="47.62167" lon="7.14873">
        <ele>313.98440119883</ele>
        <time>2025-10-12T07:55:44Z</time>
      </trkpt>
      <trkpt lat="47.62168" lon="7.14875">
        <ele>313.97201456751</ele>
        <time>2025-10-12T07:55:45Z</time>
      </trkpt>
      <trkpt lat="47.6217" lon="7.14877">
        <ele>313.91051589462</ele>
        <time>2025-10-12T07:55:46Z</time>
      </trkpt>
      <trkpt lat="47.62173" lon="7.14876">
        <ele>313.83932446589</ele>
        <time>2025-10-12T07:55:48Z</time>
      </trkpt>
      <trkpt lat="47.62176" lon="7.14876">
        <ele>313.86272754184</ele>
        <time>2025-10-12T07:55:50Z</time>
      </trkpt>
      <trkpt lat="47.62178" lon="7.14874">
        <ele>313.89930709262</ele>
        <time>2025-10-12T07:55:52Z</time>
      </trkpt>
      <trkpt lat="47.6218" lon="7.14871">
        <ele>313.98233127436</ele>
        <time>2025-10-12T07:55:54Z</time>
      </trkpt>
      <trkpt lat="47.62181" lon="7.14868">
        <ele>314.09010792731</ele>
        <time>2025-10-12T07:55:56Z</time>
      </trkpt>
      <trkpt lat="47.62182" lon="7.14866">
        <ele>314.18183114061</ele>
        <time>2025-10-12T07:55:58Z</time>
      </trkpt>
      <trkpt lat="47.62183" lon="7.14863">
        <ele>314.28595119257</ele>
        <time>2025-10-12T07:56:00Z</time>
      </trkpt>
      <trkpt lat="47.62185" lon="7.14861">
        <ele>314.37284230764</ele>
        <time>2025-10-12T07:56:02Z</time>
      </trkpt>
      <trkpt lat="47.62186" lon="7.14858">
        <ele>314.41647000785</ele>
        <time>2025-10-12T07:56:04Z</time>
      </trkpt>
      <trkpt lat="47.62187" lon="7.14855">
        <ele>314.44373489814</ele>
        <time>2025-10-12T07:56:06Z</time>
      </trkpt>
      <trkpt lat="47.62189" lon="7.14851">
        <ele>314.46523862614</ele>
        <time>2025-10-12T07:56:08Z</time>
      </trkpt>
      <trkpt lat="47.6219" lon="7.14847">
        <ele>314.47183672006</ele>
        <time>2025-10-12T07:56:10Z</time>
      </trkpt>
      <trkpt lat="47.62191" lon="7.14845">
        <ele>314.4828705464</ele>
        <time>2025-10-12T07:56:11Z</time>
      </trkpt>
      <trkpt lat="47.62191" lon="7.14842">
        <ele>314.48248575655</ele>
        <time>2025-10-12T07:56:13Z</time>
      </trkpt>
      <trkpt lat="47.62192" lon="7.14838">
        <ele>314.47671683297</ele>
        <time>2025-10-12T07:56:15Z</time>
      </trkpt>
      <trkpt lat="47.62193" lon="7.14835">
        <ele>314.4436479743</ele>
        <time>2025-10-12T07:56:17Z</time>
      </trkpt>
      <trkpt lat="47.62194" lon="7.14831">
        <ele>314.4444049322</ele>
        <time>2025-10-12T07:56:19Z</time>
      </trkpt>
      <trkpt lat="47.62196" lon="7.14828">
        <ele>314.72231441828</ele>
        <time>2025-10-12T07:56:21Z</time>
      </trkpt>
      <trkpt lat="47.62197" lon="7.14823">
        <ele>314.90247876705</ele>
        <time>2025-10-12T07:56:23Z</time>
      </trkpt>
      <trkpt lat="47.62198" lon="7.14821">
        <ele>315.04267669445</ele>
        <time>2025-10-12T07:56:24Z</time>
      </trkpt>
      <trkpt lat="47.62199" lon="7.14819">
        <ele>315.17510163856</ele>
        <time>2025-10-12T07:56:25Z</time>
      </trkpt>
      <trkpt lat="47.62201" lon="7.14817">
        <ele>315.27354310758</ele>
        <time>2025-10-12T07:56:26Z</time>
      </trkpt>
      <trkpt lat="47.62202" lon="7.14815">
        <ele>315.30472819687</ele>
        <time>2025-10-12T07:56:27Z</time>
      </trkpt>
      <trkpt lat="47.62204" lon="7.14813">
        <ele>315.38860594438</ele>
        <time>2025-10-12T07:56:29Z</time>
      </trkpt>
      <trkpt lat="47.62207" lon="7.1481">
        <ele>315.36252272479</ele>
        <time>2025-10-12T07:56:31Z</time>
      </trkpt>
      <trkpt lat="47.62209" lon="7.14807">
        <ele>315.32185692433</ele>
        <time>2025-10-12T07:56:33Z</time>
      </trkpt>
      <trkpt lat="47.62211" lon="7.14803">
        <ele>315.29499244162</ele>
        <time>2025-10-12T07:56:35Z</time>
      </trkpt>
      <trkpt lat="47.62213" lon="7.148">
        <ele>315.34897428507</ele>
        <time>2025-10-12T07:56:37Z</time>
      </trkpt>
      <trkpt lat="47.62214" lon="7.14799">
        <ele>315.37643147087</ele>
        <time>2025-10-12T07:56:38Z</time>
      </trkpt>
      <trkpt lat="47.62216" lon="7.14796">
        <ele>315.34922013288</ele>
        <time>2025-10-12T07:56:40Z</time>
      </trkpt>
      <trkpt lat="47.62218" lon="7.14791">
        <ele>315.53852809763</ele>
        <time>2025-10-12T07:56:42Z</time>
      </trkpt>
      <trkpt lat="47.62219" lon="7.14787">
        <ele>315.80539767874</ele>
        <time>2025-10-12T07:56:44Z</time>
      </trkpt>
      <trkpt lat="47.62221" lon="7.14783">
        <ele>315.96413265873</ele>
        <time>2025-10-12T07:56:46Z</time>
      </trkpt>
      <trkpt lat="47.62222" lon="7.14781">
        <ele>316.06941398304</ele>
        <time>2025-10-12T07:56:47Z</time>
      </trkpt>
      <trkpt lat="47.62223" lon="7.14777">
        <ele>316.32568517529</ele>
        <time>2025-10-12T07:56:49Z</time>
      </trkpt>
      <trkpt lat="47.62225" lon="7.14773">
        <ele>316.65183370264</ele>
        <time>2025-10-12T07:56:51Z</time>
      </trkpt>
      <trkpt lat="47.62227" lon="7.14769">
        <ele>316.92744076897</ele>
        <time>2025-10-12T07:56:53Z</time>
      </trkpt>
      <trkpt lat="47.62229" lon="7.14764">
        <ele>317.1501733411</ele>
        <time>2025-10-12T07:56:55Z</time>
      </trkpt>
      <trkpt lat="47.62231" lon="7.14762">
        <ele>317.24388658155</ele>
        <time>2025-10-12T07:56:56Z</time>
      </trkpt>
      <trkpt lat="47.62232" lon="7.14759">
        <ele>317.33136575333</ele>
        <time>2025-10-12T07:56:58Z</time>
      </trkpt>
      <trkpt lat="47.62234" lon="7.14755">
        <ele>317.37347498108</ele>
        <time>2025-10-12T07:57:00Z</time>
      </trkpt>
      <trkpt lat="47.62236" lon="7.14754">
        <ele>317.38964814203</ele>
        <time>2025-10-12T07:57:01Z</time>
      </trkpt>
      <trkpt lat="47.62238" lon="7.14752">
        <ele>317.0578602952</ele>
        <time>2025-10-12T07:57:03Z</time>
      </trkpt>
      <trkpt lat="47.6224" lon="7.14748">
        <ele>316.94612383763</ele>
        <time>2025-10-12T07:57:05Z</time>
      </trkpt>
      <trkpt lat="47.62242" lon="7.14744">
        <ele>317.02986487149</ele>
        <time>2025-10-12T07:57:07Z</time>
      </trkpt>
      <trkpt lat="47.62244" lon="7.14741">
        <ele>317.11453071201</ele>
        <time>2025-10-12T07:57:09Z</time>
      </trkpt>
      <trkpt lat="47.62246" lon="7.14738">
        <ele>317.16156938702</ele>
        <time>2025-10-12T07:57:11Z</time>
      </trkpt>
      <trkpt lat="47.62247" lon="7.14735">
        <ele>317.25012540609</ele>
        <time>2025-10-12T07:57:13Z</time>
      </trkpt>
      <trkpt lat="47.62249" lon="7.14732">
        <ele>317.48814536569</ele>
        <time>2025-10-12T07:57:15Z</time>
      </trkpt>
      <trkpt lat="47.6225" lon="7.14728">
        <ele>317.66289006724</ele>
        <time>2025-10-12T07:57:17Z</time>
      </trkpt>
      <trkpt lat="47.62252" lon="7.14724">
        <ele>317.85946356406</ele>
        <time>2025-10-12T07:57:19Z</time>
      </trkpt>
      <trkpt lat="47.62253" lon="7.14722">
        <ele>317.96116875326</ele>
        <time>2025-10-12T07:57:20Z</time>
      </trkpt>
      <trkpt lat="47.62255" lon="7.14718">
        <ele>318.1285214852</ele>
        <time>2025-10-12T07:57:22Z</time>
      </trkpt>
      <trkpt lat="47.62255" lon="7.14714">
        <ele>318.24266480012</ele>
        <time>2025-10-12T07:57:24Z</time>
      </trkpt>
      <trkpt lat="47.62256" lon="7.14711">
        <ele>318.60575355993</ele>
        <time>2025-10-12T07:57:26Z</time>
      </trkpt>
      <trkpt lat="47.62257" lon="7.14708">
        <ele>318.74056944508</ele>
        <time>2025-10-12T07:57:28Z</time>
      </trkpt>
      <trkpt lat="47.62258" lon="7.14706">
        <ele>318.79830218646</ele>
        <time>2025-10-12T07:57:30Z</time>
      </trkpt>
      <trkpt lat="47.6226" lon="7.14702">
        <ele>318.98716869844</ele>
        <time>2025-10-12T07:57:32Z</time>
      </trkpt>
      <trkpt lat="47.62261" lon="7.14698">
        <ele>319.08072453885</ele>
        <time>2025-10-12T07:57:34Z</time>
      </trkpt>
      <trkpt lat="47.62262" lon="7.14693">
        <ele>319.26927087606</ele>
        <time>2025-10-12T07:57:36Z</time>
      </trkpt>
      <trkpt lat="47.62263" lon="7.14687">
        <ele>319.4670892618</ele>
        <time>2025-10-12T07:57:38Z</time>
      </trkpt>
      <trkpt lat="47.62264" lon="7.14682">
        <ele>319.76883215513</ele>
        <time>2025-10-12T07:57:40Z</time>
      </trkpt>
      <trkpt lat="47.62265" lon="7.14679">
        <ele>320.00143912264</ele>
        <time>2025-10-12T07:57:42Z</time>
      </trkpt>
      <trkpt lat="47.62266" lon="7.14675">
        <ele>320.2728958216</ele>
        <time>2025-10-12T07:57:45Z</time>
      </trkpt>
      <trkpt lat="47.62268" lon="7.14671">
        <ele>320.24925132256</ele>
        <time>2025-10-12T07:57:49Z</time>
      </trkpt>
      <trkpt lat="47.62269" lon="7.14667">
        <ele>320.50509951548</ele>
        <time>2025-10-12T07:57:51Z</time>
      </trkpt>
      <trkpt lat="47.62271" lon="7.14665">
        <ele>320.68423026304</ele>
        <time>2025-10-12T07:57:53Z</time>
      </trkpt>
      <trkpt lat="47.62272" lon="7.14662">
        <ele>320.70288833077</ele>
        <time>2025-10-12T07:57:55Z</time>
      </trkpt>
      <trkpt lat="47.62275" lon="7.1466">
        <ele>320.68927333674</ele>
        <time>2025-10-12T07:57:57Z</time>
      </trkpt>
      <trkpt lat="47.62277" lon="7.14657">
        <ele>320.81955588797</ele>
        <time>2025-10-12T07:57:59Z</time>
      </trkpt>
      <trkpt lat="47.62279" lon="7.14654">
        <ele>320.98791132579</ele>
        <time>2025-10-12T07:58:01Z</time>
      </trkpt>
      <trkpt lat="47.62281" lon="7.1465">
        <ele>320.99994125468</ele>
        <time>2025-10-12T07:58:03Z</time>
      </trkpt>
      <trkpt lat="47.62283" lon="7.14647">
        <ele>321.1345973816</ele>
        <time>2025-10-12T07:58:05Z</time>
      </trkpt>
      <trkpt lat="47.62284" lon="7.14644">
        <ele>321.17506519165</ele>
        <time>2025-10-12T07:58:06Z</time>
      </trkpt>
      <trkpt lat="47.62285" lon="7.14641">
        <ele>321.25777408203</ele>
        <time>2025-10-12T07:58:07Z</time>
      </trkpt>
      <trkpt lat="47.62287" lon="7.1464">
        <ele>321.33498418005</ele>
        <time>2025-10-12T07:58:08Z</time>
      </trkpt>
      <trkpt lat="47.62288" lon="7.14637">
        <ele>320.90287334797</ele>
        <time>2025-10-12T07:58:10Z</time>
      </trkpt>
      <trkpt lat="47.62289" lon="7.14633">
        <ele>321.00161773037</ele>
        <time>2025-10-12T07:58:12Z</time>
      </trkpt>
      <trkpt lat="47.62291" lon="7.1463">
        <ele>320.87908039392</ele>
        <time>2025-10-12T07:58:14Z</time>
      </trkpt>
      <trkpt lat="47.62293" lon="7.14626">
        <ele>320.7303910313</ele>
        <time>2025-10-12T07:58:16Z</time>
      </trkpt>
      <trkpt lat="47.62295" lon="7.14622">
        <ele>320.76694979197</ele>
        <time>2025-10-12T07:58:18Z</time>
      </trkpt>
      <trkpt lat="47.62297" lon="7.14619">
        <ele>320.81161500115</ele>
        <time>2025-10-12T07:58:20Z</time>
      </trkpt>
      <trkpt lat="47.62298" lon="7.14616">
        <ele>320.88494529833</ele>
        <time>2025-10-12T07:58:21Z</time>
      </trkpt>
      <trkpt lat="47.62299" lon="7.14613">
        <ele>320.8880211259</ele>
        <time>2025-10-12T07:58:22Z</time>
      </trkpt>
      <trkpt lat="47.62301" lon="7.1461">
        <ele>321.12223916664</ele>
        <time>2025-10-12T07:58:24Z</time>
      </trkpt>
      <trkpt lat="47.62302" lon="7.14606">
        <ele>321.4365930658</ele>
        <time>2025-10-12T07:58:26Z</time>
      </trkpt>
      <trkpt lat="47.62304" lon="7.14603">
        <ele>321.56064500909</ele>
        <time>2025-10-12T07:58:27Z</time>
      </trkpt>
      <trkpt lat="47.62306" lon="7.14599">
        <ele>321.92553187276</ele>
        <time>2025-10-12T07:58:29Z</time>
      </trkpt>
      <trkpt lat="47.62308" lon="7.14597">
        <ele>321.98752350893</ele>
        <time>2025-10-12T07:58:30Z</time>
      </trkpt>
      <trkpt lat="47.62309" lon="7.14594">
        <ele>321.98581719829</ele>
        <time>2025-10-12T07:58:32Z</time>
      </trkpt>
      <trkpt lat="47.62311" lon="7.14591">
        <ele>322.01011393113</ele>
        <time>2025-10-12T07:58:33Z</time>
      </trkpt>
      <trkpt lat="47.62313" lon="7.14588">
        <ele>322.01208893991</ele>
        <time>2025-10-12T07:58:35Z</time>
      </trkpt>
      <trkpt lat="47.62315" lon="7.14585">
        <ele>321.7632628648</ele>
        <time>2025-10-12T07:58:37Z</time>
      </trkpt>
      <trkpt lat="47.62316" lon="7.14581">
        <ele>321.81377265093</ele>
        <time>2025-10-12T07:58:39Z</time>
      </trkpt>
      <trkpt lat="47.62319" lon="7.14579">
        <ele>321.56166361304</ele>
        <time>2025-10-12T07:58:41Z</time>
      </trkpt>
      <trkpt lat="47.6232" lon="7.14577">
        <ele>321.34963521812</ele>
        <time>2025-10-12T07:58:42Z</time>
      </trkpt>
      <trkpt lat="47.62322" lon="7.14573">
        <ele>321.13179091547</ele>
        <time>2025-10-12T07:58:44Z</time>
      </trkpt>
      <trkpt lat="47.62323" lon="7.1457">
        <ele>320.97470524589</ele>
        <time>2025-10-12T07:58:46Z</time>
      </trkpt>
      <trkpt lat="47.62325" lon="7.14566">
        <ele>320.87895683792</ele>
        <time>2025-10-12T07:58:48Z</time>
      </trkpt>
      <trkpt lat="47.62327" lon="7.14564">
        <ele>320.72619851156</ele>
        <time>2025-10-12T07:58:50Z</time>
      </trkpt>
      <trkpt lat="47.62329" lon="7.1456">
        <ele>320.61666433649</ele>
        <time>2025-10-12T07:58:52Z</time>
      </trkpt>
      <trkpt lat="47.62331" lon="7.14558">
        <ele>320.49304397033</ele>
        <time>2025-10-12T07:58:54Z</time>
      </trkpt>
      <trkpt lat="47.62332" lon="7.14554">
        <ele>320.67129739959</ele>
        <time>2025-10-12T07:58:57Z</time>
      </trkpt>
      <trkpt lat="47.62334" lon="7.14551">
        <ele>320.6621809992</ele>
        <time>2025-10-12T07:58:59Z</time>
      </trkpt>
      <trkpt lat="47.62336" lon="7.14549">
        <ele>320.66182341674</ele>
        <time>2025-10-12T07:59:01Z</time>
      </trkpt>
      <trkpt lat="47.62338" lon="7.14546">
        <ele>320.32093605186</ele>
        <time>2025-10-12T07:59:03Z</time>
      </trkpt>
      <trkpt lat="47.6234" lon="7.14544">
        <ele>320.16480501571</ele>
        <time>2025-10-12T07:59:04Z</time>
      </trkpt>
      <trkpt lat="47.62343" lon="7.14539">
        <ele>319.98803221306</ele>
        <time>2025-10-12T07:59:06Z</time>
      </trkpt>
      <trkpt lat="47.62344" lon="7.14537">
        <ele>319.83793247851</ele>
        <time>2025-10-12T07:59:07Z</time>
      </trkpt>
      <trkpt lat="47.62347" lon="7.14533">
        <ele>319.63440055836</ele>
        <time>2025-10-12T07:59:10Z</time>
      </trkpt>
      <trkpt lat="47.62349" lon="7.14529">
        <ele>319.45558491897</ele>
        <time>2025-10-12T07:59:12Z</time>
      </trkpt>
      <trkpt lat="47.6235" lon="7.14527">
        <ele>319.50461877937</ele>
        <time>2025-10-12T07:59:13Z</time>
      </trkpt>
      <trkpt lat="47.6235" lon="7.14524">
        <ele>319.43363555089</ele>
        <time>2025-10-12T07:59:15Z</time>
      </trkpt>
      <trkpt lat="47.62351" lon="7.1452">
        <ele>319.51099731285</ele>
        <time>2025-10-12T07:59:17Z</time>
      </trkpt>
      <trkpt lat="47.62352" lon="7.14517">
        <ele>319.653016658</ele>
        <time>2025-10-12T07:59:19Z</time>
      </trkpt>
      <trkpt lat="47.62354" lon="7.14515">
        <ele>319.49395483932</ele>
        <time>2025-10-12T07:59:22Z</time>
      </trkpt>
      <trkpt lat="47.62355" lon="7.14513">
        <ele>319.32114701452</ele>
        <time>2025-10-12T07:59:24Z</time>
      </trkpt>
      <trkpt lat="47.62356" lon="7.1451">
        <ele>319.30321684887</ele>
        <time>2025-10-12T07:59:26Z</time>
      </trkpt>
      <trkpt lat="47.62358" lon="7.14508">
        <ele>319.24924024497</ele>
        <time>2025-10-12T07:59:28Z</time>
      </trkpt>
      <trkpt lat="47.6236" lon="7.14505">
        <ele>319.18485617961</ele>
        <time>2025-10-12T07:59:30Z</time>
      </trkpt>
      <trkpt lat="47.62362" lon="7.14501">
        <ele>319.20055999521</ele>
        <time>2025-10-12T07:59:32Z</time>
      </trkpt>
      <trkpt lat="47.62363" lon="7.14498">
        <ele>319.17834337614</ele>
        <time>2025-10-12T07:59:34Z</time>
      </trkpt>
      <trkpt lat="47.62364" lon="7.14495">
        <ele>318.90172991356</ele>
        <time>2025-10-12T07:59:36Z</time>
      </trkpt>
      <trkpt lat="47.62365" lon="7.14493">
        <ele>318.75613327356</ele>
        <time>2025-10-12T07:59:38Z</time>
      </trkpt>
      <trkpt lat="47.62365" lon="7.1449">
        <ele>318.63110610995</ele>
        <time>2025-10-12T07:59:39Z</time>
      </trkpt>
      <trkpt lat="47.62367" lon="7.14487">
        <ele>318.27370901795</ele>
        <time>2025-10-12T07:59:41Z</time>
      </trkpt>
      <trkpt lat="47.62368" lon="7.14483">
        <ele>318.24088675568</ele>
        <time>2025-10-12T07:59:42Z</time>
      </trkpt>
      <trkpt lat="47.62369" lon="7.1448">
        <ele>318.01309891422</ele>
        <time>2025-10-12T07:59:43Z</time>
      </trkpt>
      <trkpt lat="47.6237" lon="7.14477">
        <ele>317.88150054999</ele>
        <time>2025-10-12T07:59:44Z</time>
      </trkpt>
      <trkpt lat="47.62373" lon="7.14473">
        <ele>317.66198963471</ele>
        <time>2025-10-12T07:59:46Z</time>
      </trkpt>
      <trkpt lat="47.62375" lon="7.14471">
        <ele>317.48722402995</ele>
        <time>2025-10-12T07:59:48Z</time>
      </trkpt>
      <trkpt lat="47.62378" lon="7.14468">
        <ele>317.18998259949</ele>
        <time>2025-10-12T07:59:50Z</time>
      </trkpt>
      <trkpt lat="47.62381" lon="7.14466">
        <ele>316.86216643519</ele>
        <time>2025-10-12T07:59:52Z</time>
      </trkpt>
      <trkpt lat="47.62383" lon="7.14463">
        <ele>316.57587496788</ele>
        <time>2025-10-12T07:59:54Z</time>
      </trkpt>
      <trkpt lat="47.62385" lon="7.14459">
        <ele>316.28226646106</ele>
        <time>2025-10-12T07:59:57Z</time>
      </trkpt>
      <trkpt lat="47.62387" lon="7.14457">
        <ele>316.17950495116</ele>
        <time>2025-10-12T07:59:58Z</time>
      </trkpt>
      <trkpt lat="47.62388" lon="7.14453">
        <ele>315.9108684214</ele>
        <time>2025-10-12T08:00:00Z</time>
      </trkpt>
      <trkpt lat="47.62389" lon="7.14451">
        <ele>315.78519961985</ele>
        <time>2025-10-12T08:00:01Z</time>
      </trkpt>
      <trkpt lat="47.6239" lon="7.14448">
        <ele>315.54110261418</ele>
        <time>2025-10-12T08:00:03Z</time>
      </trkpt>
      <trkpt lat="47.62392" lon="7.14444">
        <ele>315.46966468952</ele>
        <time>2025-10-12T08:00:04Z</time>
      </trkpt>
      <trkpt lat="47.62393" lon="7.14441">
        <ele>315.06010241624</ele>
        <time>2025-10-12T08:00:06Z</time>
      </trkpt>
      <trkpt lat="47.62394" lon="7.14439">
        <ele>314.94278049004</ele>
        <time>2025-10-12T08:00:07Z</time>
      </trkpt>
      <trkpt lat="47.62396" lon="7.14436">
        <ele>314.48631031985</ele>
        <time>2025-10-12T08:00:09Z</time>
      </trkpt>
      <trkpt lat="47.62397" lon="7.14434">
        <ele>314.20408814745</ele>
        <time>2025-10-12T08:00:11Z</time>
      </trkpt>
      <trkpt lat="47.62399" lon="7.14431">
        <ele>313.90903234418</ele>
        <time>2025-10-12T08:00:13Z</time>
      </trkpt>
      <trkpt lat="47.624" lon="7.14429">
        <ele>313.78174757951</ele>
        <time>2025-10-12T08:00:14Z</time>
      </trkpt>
      <trkpt lat="47.62402" lon="7.14428">
        <ele>313.51450589895</ele>
        <time>2025-10-12T08:00:16Z</time>
      </trkpt>
      <trkpt lat="47.62404" lon="7.14424">
        <ele>313.29571867502</ele>
        <time>2025-10-12T08:00:18Z</time>
      </trkpt>
      <trkpt lat="47.62406" lon="7.1442">
        <ele>312.9840761519</ele>
        <time>2025-10-12T08:00:20Z</time>
      </trkpt>
      <trkpt lat="47.62408" lon="7.14416">
        <ele>312.56455866466</ele>
        <time>2025-10-12T08:00:22Z</time>
      </trkpt>
      <trkpt lat="47.62411" lon="7.14412">
        <ele>312.3323340098</ele>
        <time>2025-10-12T08:00:24Z</time>
      </trkpt>
      <trkpt lat="47.62413" lon="7.14409">
        <ele>312.19758531062</ele>
        <time>2025-10-12T08:00:26Z</time>
      </trkpt>
      <trkpt lat="47.62414" lon="7.14406">
        <ele>312.07143588271</ele>
        <time>2025-10-12T08:00:28Z</time>
      </trkpt>
      <trkpt lat="47.62416" lon="7.14403">
        <ele>311.99252302124</ele>
        <time>2025-10-12T08:00:30Z</time>
      </trkpt>
      <trkpt lat="47.62417" lon="7.144">
        <ele>311.8725432188</ele>
        <time>2025-10-12T08:00:32Z</time>
      </trkpt>
      <trkpt lat="47.62419" lon="7.14396">
        <ele>311.75490482214</ele>
        <time>2025-10-12T08:00:34Z</time>
      </trkpt>
      <trkpt lat="47.62421" lon="7.14393">
        <ele>311.62566081122</ele>
        <time>2025-10-12T08:00:36Z</time>
      </trkpt>
      <trkpt lat="47.62423" lon="7.1439">
        <ele>311.5262989131</ele>
        <time>2025-10-12T08:00:38Z</time>
      </trkpt>
      <trkpt lat="47.62425" lon="7.14388">
        <ele>311.47213939754</ele>
        <time>2025-10-12T08:00:39Z</time>
      </trkpt>
      <trkpt lat="47.62425" lon="7.14385">
        <ele>311.25598043481</ele>
        <time>2025-10-12T08:00:41Z</time>
      </trkpt>
      <trkpt lat="47.62427" lon="7.14382">
        <ele>311.08314291662</ele>
        <time>2025-10-12T08:00:44Z</time>
      </trkpt>
      <trkpt lat="47.6243" lon="7.14381">
        <ele>311.00316499392</ele>
        <time>2025-10-12T08:00:46Z</time>
      </trkpt>
      <trkpt lat="47.62432" lon="7.14377">
        <ele>310.86441263901</ele>
        <time>2025-10-12T08:00:48Z</time>
      </trkpt>
      <trkpt lat="47.62434" lon="7.14375">
        <ele>310.76144552562</ele>
        <time>2025-10-12T08:00:50Z</time>
      </trkpt>
      <trkpt lat="47.62436" lon="7.14374">
        <ele>310.72785010371</ele>
        <time>2025-10-12T08:00:51Z</time>
      </trkpt>
      <trkpt lat="47.62438" lon="7.14373">
        <ele>310.69076253417</ele>
        <time>2025-10-12T08:00:52Z</time>
      </trkpt>
      <trkpt lat="47.6244" lon="7.1437">
        <ele>310.64754685416</ele>
        <time>2025-10-12T08:00:54Z</time>
      </trkpt>
      <trkpt lat="47.62443" lon="7.14367">
        <ele>310.6083302125</ele>
        <time>2025-10-12T08:00:56Z</time>
      </trkpt>
      <trkpt lat="47.62444" lon="7.14364">
        <ele>310.51598525663</ele>
        <time>2025-10-12T08:00:59Z</time>
      </trkpt>
      <trkpt lat="47.62446" lon="7.14362">
        <ele>310.52553998715</ele>
        <time>2025-10-12T08:01:01Z</time>
      </trkpt>
      <trkpt lat="47.62448" lon="7.1436">
        <ele>310.55902573221</ele>
        <time>2025-10-12T08:01:03Z</time>
      </trkpt>
      <trkpt lat="47.62451" lon="7.14357">
        <ele>310.56513665167</ele>
        <time>2025-10-12T08:01:05Z</time>
      </trkpt>
      <trkpt lat="47.62453" lon="7.14355">
        <ele>310.5782467721</ele>
        <time>2025-10-12T08:01:07Z</time>
      </trkpt>
      <trkpt lat="47.62454" lon="7.14352">
        <ele>310.52418780982</ele>
        <time>2025-10-12T08:01:09Z</time>
      </trkpt>
      <trkpt lat="47.62456" lon="7.1435">
        <ele>310.4522034824</ele>
        <time>2025-10-12T08:01:12Z</time>
      </trkpt>
      <trkpt lat="47.62459" lon="7.14347">
        <ele>310.4300269863</ele>
        <time>2025-10-12T08:01:14Z</time>
      </trkpt>
      <trkpt lat="47.62461" lon="7.14343">
        <ele>310.42640495279</ele>
        <time>2025-10-12T08:01:16Z</time>
      </trkpt>
      <trkpt lat="47.62462" lon="7.14341">
        <ele>310.33967990873</ele>
        <time>2025-10-12T08:01:17Z</time>
      </trkpt>
      <trkpt lat="47.62465" lon="7.14337">
        <ele>310.2606674385</ele>
        <time>2025-10-12T08:01:18Z</time>
      </trkpt>
      <trkpt lat="47.62467" lon="7.14335">
        <ele>310.16570867176</ele>
        <time>2025-10-12T08:01:20Z</time>
      </trkpt>
      <trkpt lat="47.62469" lon="7.14331">
        <ele>310.10727312218</ele>
        <time>2025-10-12T08:01:22Z</time>
      </trkpt>
      <trkpt lat="47.6247" lon="7.14329">
        <ele>310.05271019002</ele>
        <time>2025-10-12T08:01:24Z</time>
      </trkpt>
      <trkpt lat="47.62471" lon="7.14326">
        <ele>310.08718897476</ele>
        <time>2025-10-12T08:01:26Z</time>
      </trkpt>
      <trkpt lat="47.62473" lon="7.14323">
        <ele>310.08649280802</ele>
        <time>2025-10-12T08:01:28Z</time>
      </trkpt>
      <trkpt lat="47.62475" lon="7.1432">
        <ele>310.1011828068</ele>
        <time>2025-10-12T08:01:30Z</time>
      </trkpt>
      <trkpt lat="47.62476" lon="7.14318">
        <ele>310.15783513892</ele>
        <time>2025-10-12T08:01:32Z</time>
      </trkpt>
      <trkpt lat="47.62478" lon="7.14315">
        <ele>310.16741319789</ele>
        <time>2025-10-12T08:01:34Z</time>
      </trkpt>
      <trkpt lat="47.6248" lon="7.14312">
        <ele>310.18555127584</ele>
        <time>2025-10-12T08:01:36Z</time>
      </trkpt>
      <trkpt lat="47.62481" lon="7.14308">
        <ele>310.19515617957</ele>
        <time>2025-10-12T08:01:38Z</time>
      </trkpt>
      <trkpt lat="47.62482" lon="7.14306">
        <ele>310.15363876425</ele>
        <time>2025-10-12T08:01:40Z</time>
      </trkpt>
      <trkpt lat="47.62483" lon="7.14304">
        <ele>310.13659457406</ele>
        <time>2025-10-12T08:01:41Z</time>
      </trkpt>
      <trkpt lat="47.62484" lon="7.14301">
        <ele>310.01257097046</ele>
        <time>2025-10-12T08:01:43Z</time>
      </trkpt>
      <trkpt lat="47.62485" lon="7.14299">
        <ele>309.96123596362</ele>
        <time>2025-10-12T08:01:44Z</time>
      </trkpt>
      <trkpt lat="47.62487" lon="7.14294">
        <ele>309.89814709627</ele>
        <time>2025-10-12T08:01:46Z</time>
      </trkpt>
      <trkpt lat="47.6249" lon="7.14291">
        <ele>309.89880984773</ele>
        <time>2025-10-12T08:01:48Z</time>
      </trkpt>
      <trkpt lat="47.62492" lon="7.14289">
        <ele>309.94395469998</ele>
        <time>2025-10-12T08:01:49Z</time>
      </trkpt>
      <trkpt lat="47.62493" lon="7.14285">
        <ele>309.94555057758</ele>
        <time>2025-10-12T08:01:51Z</time>
      </trkpt>
      <trkpt lat="47.62494" lon="7.14283">
        <ele>309.93940025734</ele>
        <time>2025-10-12T08:01:52Z</time>
      </trkpt>
      <trkpt lat="47.62496" lon="7.14279">
        <ele>309.97867001118</ele>
        <time>2025-10-12T08:01:54Z</time>
      </trkpt>
      <trkpt lat="47.62497" lon="7.14277">
        <ele>310.02258280617</ele>
        <time>2025-10-12T08:01:55Z</time>
      </trkpt>
      <trkpt lat="47.62499" lon="7.14274">
        <ele>310.0314784802</ele>
        <time>2025-10-12T08:01:56Z</time>
      </trkpt>
      <trkpt lat="47.62501" lon="7.14271">
        <ele>310.01893558101</ele>
        <time>2025-10-12T08:01:58Z</time>
      </trkpt>
      <trkpt lat="47.62503" lon="7.14267">
        <ele>310.01579715153</ele>
        <time>2025-10-12T08:02:00Z</time>
      </trkpt>
      <trkpt lat="47.62505" lon="7.14263">
        <ele>309.87781319155</ele>
        <time>2025-10-12T08:02:02Z</time>
      </trkpt>
      <trkpt lat="47.62507" lon="7.14259">
        <ele>309.89301996083</ele>
        <time>2025-10-12T08:02:04Z</time>
      </trkpt>
      <trkpt lat="47.62509" lon="7.14255">
        <ele>309.89219699191</ele>
        <time>2025-10-12T08:02:06Z</time>
      </trkpt>
      <trkpt lat="47.6251" lon="7.14252">
        <ele>309.88613704233</ele>
        <time>2025-10-12T08:02:07Z</time>
      </trkpt>
      <trkpt lat="47.6251" lon="7.14248">
        <ele>309.92881718019</ele>
        <time>2025-10-12T08:02:08Z</time>
      </trkpt>
      <trkpt lat="47.62511" lon="7.14244">
        <ele>309.80959886585</ele>
        <time>2025-10-12T08:02:09Z</time>
      </trkpt>
      <trkpt lat="47.62512" lon="7.14241">
        <ele>309.71810855297</ele>
        <time>2025-10-12T08:02:10Z</time>
      </trkpt>
      <trkpt lat="47.62513" lon="7.14236">
        <ele>309.64812518496</ele>
        <time>2025-10-12T08:02:12Z</time>
      </trkpt>
      <trkpt lat="47.62515" lon="7.14234">
        <ele>309.57526135578</ele>
        <time>2025-10-12T08:02:13Z</time>
      </trkpt>
      <trkpt lat="47.62516" lon="7.14232">
        <ele>309.61705639376</ele>
        <time>2025-10-12T08:02:14Z</time>
      </trkpt>
      <trkpt lat="47.62517" lon="7.14228">
        <ele>309.62472178006</ele>
        <time>2025-10-12T08:02:16Z</time>
      </trkpt>
      <trkpt lat="47.62518" lon="7.14226">
        <ele>309.56567003872</ele>
        <time>2025-10-12T08:02:17Z</time>
      </trkpt>
      <trkpt lat="47.6252" lon="7.14223">
        <ele>309.54511459376</ele>
        <time>2025-10-12T08:02:19Z</time>
      </trkpt>
      <trkpt lat="47.62522" lon="7.14221">
        <ele>309.59733579712</ele>
        <time>2025-10-12T08:02:21Z</time>
      </trkpt>
      <trkpt lat="47.62523" lon="7.14218">
        <ele>309.62222293835</ele>
        <time>2025-10-12T08:02:23Z</time>
      </trkpt>
      <trkpt lat="47.62525" lon="7.14215">
        <ele>309.6190578083</ele>
        <time>2025-10-12T08:02:25Z</time>
      </trkpt>
      <trkpt lat="47.62526" lon="7.14213">
        <ele>309.61778308491</ele>
        <time>2025-10-12T08:02:26Z</time>
      </trkpt>
      <trkpt lat="47.62527" lon="7.14211">
        <ele>309.57247433815</ele>
        <time>2025-10-12T08:02:27Z</time>
      </trkpt>
      <trkpt lat="47.62527" lon="7.14208">
        <ele>309.46942356602</ele>
        <time>2025-10-12T08:02:28Z</time>
      </trkpt>
      <trkpt lat="47.62529" lon="7.14205">
        <ele>309.31981130872</ele>
        <time>2025-10-12T08:02:30Z</time>
      </trkpt>
      <trkpt lat="47.62531" lon="7.142">
        <ele>309.31060553038</ele>
        <time>2025-10-12T08:02:32Z</time>
      </trkpt>
      <trkpt lat="47.62531" lon="7.14197">
        <ele>309.23798461005</ele>
        <time>2025-10-12T08:02:33Z</time>
      </trkpt>
      <trkpt lat="47.62532" lon="7.14192">
        <ele>308.99194729758</ele>
        <time>2025-10-12T08:02:35Z</time>
      </trkpt>
      <trkpt lat="47.62533" lon="7.14188">
        <ele>308.59101554994</ele>
        <time>2025-10-12T08:02:37Z</time>
      </trkpt>
      <trkpt lat="47.62534" lon="7.14184">
        <ele>308.25561586067</ele>
        <time>2025-10-12T08:02:40Z</time>
      </trkpt>
      <trkpt lat="47.62534" lon="7.1418">
        <ele>307.96645954758</ele>
        <time>2025-10-12T08:02:42Z</time>
      </trkpt>
      <trkpt lat="47.62535" lon="7.14177">
        <ele>307.56402569798</ele>
        <time>2025-10-12T08:02:45Z</time>
      </trkpt>
      <trkpt lat="47.62536" lon="7.14173">
        <ele>307.50870868502</ele>
        <time>2025-10-12T08:02:47Z</time>
      </trkpt>
      <trkpt lat="47.62536" lon="7.1417">
        <ele>307.20867644995</ele>
        <time>2025-10-12T08:02:49Z</time>
      </trkpt>
      <trkpt lat="47.62536" lon="7.14165">
        <ele>306.76195481412</ele>
        <time>2025-10-12T08:02:51Z</time>
      </trkpt>
      <trkpt lat="47.62537" lon="7.14163">
        <ele>306.43755473643</ele>
        <time>2025-10-12T08:02:53Z</time>
      </trkpt>
      <trkpt lat="47.62539" lon="7.14159">
        <ele>306.28707196613</ele>
        <time>2025-10-12T08:02:55Z</time>
      </trkpt>
      <trkpt lat="47.6254" lon="7.14157">
        <ele>306.10217510961</ele>
        <time>2025-10-12T08:02:57Z</time>
      </trkpt>
      <trkpt lat="47.62541" lon="7.14154">
        <ele>306.05124472015</ele>
        <time>2025-10-12T08:02:59Z</time>
      </trkpt>
      <trkpt lat="47.62542" lon="7.14151">
        <ele>305.8053228186</ele>
        <time>2025-10-12T08:03:01Z</time>
      </trkpt>
      <trkpt lat="47.62543" lon="7.14147">
        <ele>305.45011321848</ele>
        <time>2025-10-12T08:03:04Z</time>
      </trkpt>
      <trkpt lat="47.62544" lon="7.14145">
        <ele>305.3197006027</ele>
        <time>2025-10-12T08:03:06Z</time>
      </trkpt>
      <trkpt lat="47.62545" lon="7.14141">
        <ele>305.02907701854</ele>
        <time>2025-10-12T08:03:08Z</time>
      </trkpt>
      <trkpt lat="47.62546" lon="7.14137">
        <ele>304.66558301414</ele>
        <time>2025-10-12T08:03:10Z</time>
      </trkpt>
      <trkpt lat="47.62548" lon="7.14136">
        <ele>304.63236189246</ele>
        <time>2025-10-12T08:03:12Z</time>
      </trkpt>
      <trkpt lat="47.62549" lon="7.14133">
        <ele>304.60022151474</ele>
        <time>2025-10-12T08:03:14Z</time>
      </trkpt>
      <trkpt lat="47.6255" lon="7.14127">
        <ele>304.53888529539</ele>
        <time>2025-10-12T08:03:15Z</time>
      </trkpt>
      <trkpt lat="47.62551" lon="7.14121">
        <ele>304.21307699084</ele>
        <time>2025-10-12T08:03:16Z</time>
      </trkpt>
      <trkpt lat="47.62551" lon="7.14118">
        <ele>303.73336295527</ele>
        <time>2025-10-12T08:03:18Z</time>
      </trkpt>
      <trkpt lat="47.62553" lon="7.14115">
        <ele>303.59057342414</ele>
        <time>2025-10-12T08:03:21Z</time>
      </trkpt>
      <trkpt lat="47.62554" lon="7.14112">
        <ele>303.47299393767</ele>
        <time>2025-10-12T08:03:23Z</time>
      </trkpt>
      <trkpt lat="47.62556" lon="7.1411">
        <ele>303.32738912669</ele>
        <time>2025-10-12T08:03:25Z</time>
      </trkpt>
      <trkpt lat="47.62557" lon="7.14107">
        <ele>303.25983932858</ele>
        <time>2025-10-12T08:03:27Z</time>
      </trkpt>
      <trkpt lat="47.62558" lon="7.14105">
        <ele>303.12712739261</ele>
        <time>2025-10-12T08:03:29Z</time>
      </trkpt>
      <trkpt lat="47.6256" lon="7.14103">
        <ele>302.96567728741</ele>
        <time>2025-10-12T08:03:31Z</time>
      </trkpt>
      <trkpt lat="47.62561" lon="7.14102">
        <ele>302.87265378978</ele>
        <time>2025-10-12T08:03:33Z</time>
      </trkpt>
      <trkpt lat="47.62563" lon="7.14099">
        <ele>302.77165259535</ele>
        <time>2025-10-12T08:03:36Z</time>
      </trkpt>
      <trkpt lat="47.62565" lon="7.14098">
        <ele>302.66683750526</ele>
        <time>2025-10-12T08:03:38Z</time>
      </trkpt>
      <trkpt lat="47.62567" lon="7.14096">
        <ele>302.60142595104</ele>
        <time>2025-10-12T08:03:40Z</time>
      </trkpt>
      <trkpt lat="47.62569" lon="7.14094">
        <ele>302.44492527788</ele>
        <time>2025-10-12T08:03:42Z</time>
      </trkpt>
      <trkpt lat="47.62572" lon="7.14093">
        <ele>302.34309864613</ele>
        <time>2025-10-12T08:03:45Z</time>
      </trkpt>
      <trkpt lat="47.62573" lon="7.14091">
        <ele>302.12800124455</ele>
        <time>2025-10-12T08:03:48Z</time>
      </trkpt>
      <trkpt lat="47.62576" lon="7.14092">
        <ele>302.13936967917</ele>
        <time>2025-10-12T08:03:52Z</time>
      </trkpt>
      <trkpt lat="47.62578" lon="7.14094">
        <ele>302.35389340181</ele>
        <time>2025-10-12T08:03:55Z</time>
      </trkpt>
      <trkpt lat="47.62581" lon="7.14094">
        <ele>302.48831512573</ele>
        <time>2025-10-12T08:03:57Z</time>
      </trkpt>
      <trkpt lat="47.62584" lon="7.14094">
        <ele>302.49515546372</ele>
        <time>2025-10-12T08:04:00Z</time>
      </trkpt>
      <trkpt lat="47.62587" lon="7.14095">
        <ele>302.44221187721</ele>
        <time>2025-10-12T08:04:02Z</time>
      </trkpt>
      <trkpt lat="47.62589" lon="7.14097">
        <ele>302.34614807855</ele>
        <time>2025-10-12T08:04:04Z</time>
      </trkpt>
      <trkpt lat="47.62591" lon="7.14101">
        <ele>302.59221502845</ele>
        <time>2025-10-12T08:04:06Z</time>
      </trkpt>
      <trkpt lat="47.62593" lon="7.14103">
        <ele>302.67892937333</ele>
        <time>2025-10-12T08:04:07Z</time>
      </trkpt>
      <trkpt lat="47.62595" lon="7.14105">
        <ele>302.80441294161</ele>
        <time>2025-10-12T08:04:08Z</time>
      </trkpt>
      <trkpt lat="47.62596" lon="7.14108">
        <ele>303.08112171273</ele>
        <time>2025-10-12T08:04:10Z</time>
      </trkpt>
      <trkpt lat="47.62598" lon="7.14109">
        <ele>303.13849909097</ele>
        <time>2025-10-12T08:04:12Z</time>
      </trkpt>
      <trkpt lat="47.626" lon="7.1411">
        <ele>303.09959476688</ele>
        <time>2025-10-12T08:04:13Z</time>
      </trkpt>
      <trkpt lat="47.62602" lon="7.14111">
        <ele>303.06142699073</ele>
        <time>2025-10-12T08:04:14Z</time>
      </trkpt>
      <trkpt lat="47.62604" lon="7.14112">
        <ele>303.12634901875</ele>
        <time>2025-10-12T08:04:16Z</time>
      </trkpt>
      <trkpt lat="47.62606" lon="7.14113">
        <ele>303.08766808974</ele>
        <time>2025-10-12T08:04:17Z</time>
      </trkpt>
      <trkpt lat="47.62608" lon="7.14114">
        <ele>303.10991999196</ele>
        <time>2025-10-12T08:04:18Z</time>
      </trkpt>
      <trkpt lat="47.6261" lon="7.14115">
        <ele>303.13607070413</ele>
        <time>2025-10-12T08:04:20Z</time>
      </trkpt>
      <trkpt lat="47.62612" lon="7.14116">
        <ele>303.10694103694</ele>
        <time>2025-10-12T08:04:22Z</time>
      </trkpt>
      <trkpt lat="47.62614" lon="7.14118">
        <ele>302.97239406399</ele>
        <time>2025-10-12T08:04:24Z</time>
      </trkpt>
      <trkpt lat="47.62616" lon="7.14118">
        <ele>302.94606714993</ele>
        <time>2025-10-12T08:04:25Z</time>
      </trkpt>
      <trkpt lat="47.62619" lon="7.1412">
        <ele>302.54875102337</ele>
        <time>2025-10-12T08:04:27Z</time>
      </trkpt>
      <trkpt lat="47.62622" lon="7.14122">
        <ele>302.3824839738</ele>
        <time>2025-10-12T08:04:28Z</time>
      </trkpt>
      <trkpt lat="47.62623" lon="7.14124">
        <ele>302.26236506954</ele>
        <time>2025-10-12T08:04:30Z</time>
      </trkpt>
      <trkpt lat="47.62627" lon="7.14124">
        <ele>301.80701928821</ele>
        <time>2025-10-12T08:04:32Z</time>
      </trkpt>
      <trkpt lat="47.6263" lon="7.14125">
        <ele>301.30956421907</ele>
        <time>2025-10-12T08:04:34Z</time>
      </trkpt>
      <trkpt lat="47.62633" lon="7.14127">
        <ele>300.83825574503</ele>
        <time>2025-10-12T08:04:36Z</time>
      </trkpt>
      <trkpt lat="47.62636" lon="7.1413">
        <ele>300.41233507973</ele>
        <time>2025-10-12T08:04:38Z</time>
      </trkpt>
      <trkpt lat="47.62639" lon="7.14134">
        <ele>299.78766419095</ele>
        <time>2025-10-12T08:04:40Z</time>
      </trkpt>
      <trkpt lat="47.62641" lon="7.14135">
        <ele>299.48646562259</ele>
        <time>2025-10-12T08:04:41Z</time>
      </trkpt>
      <trkpt lat="47.62644" lon="7.14137">
        <ele>299.17624485184</ele>
        <time>2025-10-12T08:04:43Z</time>
      </trkpt>
      <trkpt lat="47.62647" lon="7.14138">
        <ele>298.98791315195</ele>
        <time>2025-10-12T08:04:45Z</time>
      </trkpt>
      <trkpt lat="47.62649" lon="7.14139">
        <ele>298.84118900501</ele>
        <time>2025-10-12T08:04:46Z</time>
      </trkpt>
      <trkpt lat="47.62652" lon="7.1414">
        <ele>298.68081041356</ele>
        <time>2025-10-12T08:04:47Z</time>
      </trkpt>
      <trkpt lat="47.62654" lon="7.14141">
        <ele>298.52549337961</ele>
        <time>2025-10-12T08:04:48Z</time>
      </trkpt>
      <trkpt lat="47.62656" lon="7.14142">
        <ele>298.37010571919</ele>
        <time>2025-10-12T08:04:49Z</time>
      </trkpt>
      <trkpt lat="47.62659" lon="7.14143">
        <ele>298.19217323279</ele>
        <time>2025-10-12T08:04:51Z</time>
      </trkpt>
      <trkpt lat="47.62662" lon="7.14144">
        <ele>298.02989189377</ele>
        <time>2025-10-12T08:04:53Z</time>
      </trkpt>
      <trkpt lat="47.62665" lon="7.14145">
        <ele>297.82595859454</ele>
        <time>2025-10-12T08:04:55Z</time>
      </trkpt>
      <trkpt lat="47.62667" lon="7.14145">
        <ele>297.71576198189</ele>
        <time>2025-10-12T08:04:56Z</time>
      </trkpt>
      <trkpt lat="47.62669" lon="7.14147">
        <ele>297.63018851124</ele>
        <time>2025-10-12T08:04:58Z</time>
      </trkpt>
      <trkpt lat="47.62673" lon="7.14149">
        <ele>297.69805500553</ele>
        <time>2025-10-12T08:05:00Z</time>
      </trkpt>
      <trkpt lat="47.62675" lon="7.14151">
        <ele>297.79232345319</ele>
        <time>2025-10-12T08:05:02Z</time>
      </trkpt>
      <trkpt lat="47.62678" lon="7.14154">
        <ele>297.89293959958</ele>
        <time>2025-10-12T08:05:04Z</time>
      </trkpt>
      <trkpt lat="47.62681" lon="7.14156">
        <ele>297.95616133722</ele>
        <time>2025-10-12T08:05:06Z</time>
      </trkpt>
      <trkpt lat="47.62682" lon="7.14157">
        <ele>297.99314077667</ele>
        <time>2025-10-12T08:05:07Z</time>
      </trkpt>
      <trkpt lat="47.62685" lon="7.14158">
        <ele>298.06940791686</ele>
        <time>2025-10-12T08:05:09Z</time>
      </trkpt>
      <trkpt lat="47.62688" lon="7.14159">
        <ele>298.10063292957</ele>
        <time>2025-10-12T08:05:11Z</time>
      </trkpt>
      <trkpt lat="47.6269" lon="7.14159">
        <ele>298.11033756969</ele>
        <time>2025-10-12T08:05:12Z</time>
      </trkpt>
      <trkpt lat="47.62692" lon="7.1416">
        <ele>298.12743047023</ele>
        <time>2025-10-12T08:05:13Z</time>
      </trkpt>
      <trkpt lat="47.62696" lon="7.14162">
        <ele>298.18951576741</ele>
        <time>2025-10-12T08:05:15Z</time>
      </trkpt>
      <trkpt lat="47.62698" lon="7.14162">
        <ele>298.21398293355</ele>
        <time>2025-10-12T08:05:16Z</time>
      </trkpt>
      <trkpt lat="47.62699" lon="7.14163">
        <ele>298.24384053884</ele>
        <time>2025-10-12T08:05:17Z</time>
      </trkpt>
      <trkpt lat="47.62701" lon="7.14164">
        <ele>298.27055676812</ele>
        <time>2025-10-12T08:05:18Z</time>
      </trkpt>
      <trkpt lat="47.62704" lon="7.14165">
        <ele>298.32984168371</ele>
        <time>2025-10-12T08:05:20Z</time>
      </trkpt>
      <trkpt lat="47.62706" lon="7.14166">
        <ele>298.34471779569</ele>
        <time>2025-10-12T08:05:21Z</time>
      </trkpt>
      <trkpt lat="47.62708" lon="7.14167">
        <ele>298.38528926919</ele>
        <time>2025-10-12T08:05:22Z</time>
      </trkpt>
      <trkpt lat="47.6271" lon="7.14168">
        <ele>298.42160149651</ele>
        <time>2025-10-12T08:05:24Z</time>
      </trkpt>
      <trkpt lat="47.62713" lon="7.14169">
        <ele>298.44177571498</ele>
        <time>2025-10-12T08:05:26Z</time>
      </trkpt>
      <trkpt lat="47.62715" lon="7.1417">
        <ele>298.46618646737</ele>
        <time>2025-10-12T08:05:27Z</time>
      </trkpt>
      <trkpt lat="47.62717" lon="7.1417">
        <ele>298.50381125843</ele>
        <time>2025-10-12T08:05:28Z</time>
      </trkpt>
      <trkpt lat="47.6272" lon="7.14172">
        <ele>298.56340073008</ele>
        <time>2025-10-12T08:05:30Z</time>
      </trkpt>
      <trkpt lat="47.62722" lon="7.14173">
        <ele>298.59318356361</ele>
        <time>2025-10-12T08:05:31Z</time>
      </trkpt>
      <trkpt lat="47.62724" lon="7.14175">
        <ele>298.64077852295</ele>
        <time>2025-10-12T08:05:33Z</time>
      </trkpt>
      <trkpt lat="47.62727" lon="7.14176">
        <ele>298.58510884266</ele>
        <time>2025-10-12T08:05:35Z</time>
      </trkpt>
      <trkpt lat="47.6273" lon="7.14177">
        <ele>298.50481062975</ele>
        <time>2025-10-12T08:05:37Z</time>
      </trkpt>
      <trkpt lat="47.62733" lon="7.14178">
        <ele>298.45459114371</ele>
        <time>2025-10-12T08:05:39Z</time>
      </trkpt>
      <trkpt lat="47.62735" lon="7.1418">
        <ele>298.43325887073</ele>
        <time>2025-10-12T08:05:41Z</time>
      </trkpt>
      <trkpt lat="47.62737" lon="7.14181">
        <ele>298.42973907982</ele>
        <time>2025-10-12T08:05:42Z</time>
      </trkpt>
      <trkpt lat="47.62739" lon="7.14183">
        <ele>298.38060831151</ele>
        <time>2025-10-12T08:05:44Z</time>
      </trkpt>
      <trkpt lat="47.62742" lon="7.14185">
        <ele>298.37530224553</ele>
        <time>2025-10-12T08:05:46Z</time>
      </trkpt>
      <trkpt lat="47.62745" lon="7.14189">
        <ele>298.37084366729</ele>
        <time>2025-10-12T08:05:48Z</time>
      </trkpt>
      <trkpt lat="47.62747" lon="7.14191">
        <ele>298.3744436044</ele>
        <time>2025-10-12T08:05:49Z</time>
      </trkpt>
      <trkpt lat="47.62749" lon="7.14193">
        <ele>298.38153272409</ele>
        <time>2025-10-12T08:05:50Z</time>
      </trkpt>
      <trkpt lat="47.62751" lon="7.14195">
        <ele>298.36760235383</ele>
        <time>2025-10-12T08:05:51Z</time>
      </trkpt>
      <trkpt lat="47.62754" lon="7.14197">
        <ele>298.38349982267</ele>
        <time>2025-10-12T08:05:53Z</time>
      </trkpt>
      <trkpt lat="47.62756" lon="7.14199">
        <ele>298.44219395361</ele>
        <time>2025-10-12T08:05:55Z</time>
      </trkpt>
      <trkpt lat="47.62759" lon="7.14202">
        <ele>298.48583356826</ele>
        <time>2025-10-12T08:05:57Z</time>
      </trkpt>
      <trkpt lat="47.62761" lon="7.14205">
        <ele>298.57469067974</ele>
        <time>2025-10-12T08:05:59Z</time>
      </trkpt>
      <trkpt lat="47.62764" lon="7.14208">
        <ele>298.62899203161</ele>
        <time>2025-10-12T08:06:01Z</time>
      </trkpt>
      <trkpt lat="47.62766" lon="7.14211">
        <ele>298.63417951535</ele>
        <time>2025-10-12T08:06:03Z</time>
      </trkpt>
      <trkpt lat="47.62767" lon="7.14213">
        <ele>298.67422689624</ele>
        <time>2025-10-12T08:06:04Z</time>
      </trkpt>
      <trkpt lat="47.6277" lon="7.14217">
        <ele>298.70712515013</ele>
        <time>2025-10-12T08:06:06Z</time>
      </trkpt>
      <trkpt lat="47.62771" lon="7.1422">
        <ele>298.75927938901</ele>
        <time>2025-10-12T08:06:08Z</time>
      </trkpt>
      <trkpt lat="47.62773" lon="7.14222">
        <ele>298.77478628296</ele>
        <time>2025-10-12T08:06:10Z</time>
      </trkpt>
      <trkpt lat="47.62775" lon="7.14226">
        <ele>298.74674219419</ele>
        <time>2025-10-12T08:06:12Z</time>
      </trkpt>
      <trkpt lat="47.62776" lon="7.14228">
        <ele>298.73928870611</ele>
        <time>2025-10-12T08:06:13Z</time>
      </trkpt>
      <trkpt lat="47.62778" lon="7.14231">
        <ele>298.72464565223</ele>
        <time>2025-10-12T08:06:14Z</time>
      </trkpt>
      <trkpt lat="47.62779" lon="7.14233">
        <ele>298.7300203361</ele>
        <time>2025-10-12T08:06:15Z</time>
      </trkpt>
      <trkpt lat="47.6278" lon="7.14236">
        <ele>298.74434564628</ele>
        <time>2025-10-12T08:06:16Z</time>
      </trkpt>
      <trkpt lat="47.62782" lon="7.14239">
        <ele>298.80139646343</ele>
        <time>2025-10-12T08:06:17Z</time>
      </trkpt>
      <trkpt lat="47.62784" lon="7.14242">
        <ele>298.85897820566</ele>
        <time>2025-10-12T08:06:19Z</time>
      </trkpt>
      <trkpt lat="47.62785" lon="7.14244">
        <ele>298.88613852796</ele>
        <time>2025-10-12T08:06:20Z</time>
      </trkpt>
      <trkpt lat="47.62787" lon="7.14246">
        <ele>298.93880908578</ele>
        <time>2025-10-12T08:06:22Z</time>
      </trkpt>
      <trkpt lat="47.62789" lon="7.1425">
        <ele>298.95045120884</ele>
        <time>2025-10-12T08:06:24Z</time>
      </trkpt>
      <trkpt lat="47.6279" lon="7.14252">
        <ele>298.99235003727</ele>
        <time>2025-10-12T08:06:25Z</time>
      </trkpt>
      <trkpt lat="47.62793" lon="7.14254">
        <ele>299.07777433808</ele>
        <time>2025-10-12T08:06:27Z</time>
      </trkpt>
      <trkpt lat="47.62795" lon="7.14256">
        <ele>299.10244419388</ele>
        <time>2025-10-12T08:06:29Z</time>
      </trkpt>
      <trkpt lat="47.62797" lon="7.14258">
        <ele>299.07789200328</ele>
        <time>2025-10-12T08:06:31Z</time>
      </trkpt>
      <trkpt lat="47.628" lon="7.14261">
        <ele>299.08150817571</ele>
        <time>2025-10-12T08:06:33Z</time>
      </trkpt>
      <trkpt lat="47.62802" lon="7.14263">
        <ele>299.09095687405</ele>
        <time>2025-10-12T08:06:35Z</time>
      </trkpt>
      <trkpt lat="47.62804" lon="7.14266">
        <ele>299.04697970576</ele>
        <time>2025-10-12T08:06:37Z</time>
      </trkpt>
      <trkpt lat="47.62807" lon="7.1427">
        <ele>299.03940431396</ele>
        <time>2025-10-12T08:06:39Z</time>
      </trkpt>
      <trkpt lat="47.62809" lon="7.14273">
        <ele>299.09583948534</ele>
        <time>2025-10-12T08:06:41Z</time>
      </trkpt>
      <trkpt lat="47.6281" lon="7.14275">
        <ele>299.11384076921</ele>
        <time>2025-10-12T08:06:42Z</time>
      </trkpt>
      <trkpt lat="47.62812" lon="7.14279">
        <ele>299.14738737772</ele>
        <time>2025-10-12T08:06:44Z</time>
      </trkpt>
      <trkpt lat="47.62815" lon="7.14282">
        <ele>299.17185156695</ele>
        <time>2025-10-12T08:06:46Z</time>
      </trkpt>
      <trkpt lat="47.62818" lon="7.14285">
        <ele>299.13649775914</ele>
        <time>2025-10-12T08:06:48Z</time>
      </trkpt>
      <trkpt lat="47.6282" lon="7.14288">
        <ele>299.08426128649</ele>
        <time>2025-10-12T08:06:50Z</time>
      </trkpt>
      <trkpt lat="47.62821" lon="7.14291">
        <ele>299.06750167491</ele>
        <time>2025-10-12T08:06:51Z</time>
      </trkpt>
      <trkpt lat="47.62823" lon="7.14294">
        <ele>299.0261210693</ele>
        <time>2025-10-12T08:06:53Z</time>
      </trkpt>
      <trkpt lat="47.62825" lon="7.14298">
        <ele>298.95792711188</ele>
        <time>2025-10-12T08:06:55Z</time>
      </trkpt>
      <trkpt lat="47.62827" lon="7.14302">
        <ele>298.8941479433</ele>
        <time>2025-10-12T08:06:57Z</time>
      </trkpt>
      <trkpt lat="47.62828" lon="7.14305">
        <ele>298.80724550318</ele>
        <time>2025-10-12T08:06:59Z</time>
      </trkpt>
      <trkpt lat="47.62829" lon="7.14308">
        <ele>298.8176676775</ele>
        <time>2025-10-12T08:07:01Z</time>
      </trkpt>
      <trkpt lat="47.6283" lon="7.14311">
        <ele>298.94326597884</ele>
        <time>2025-10-12T08:07:03Z</time>
      </trkpt>
      <trkpt lat="47.62831" lon="7.14315">
        <ele>299.1246675307</ele>
        <time>2025-10-12T08:07:05Z</time>
      </trkpt>
      <trkpt lat="47.62833" lon="7.14319">
        <ele>299.31773154622</ele>
        <time>2025-10-12T08:07:07Z</time>
      </trkpt>
      <trkpt lat="47.62834" lon="7.14322">
        <ele>299.43035370577</ele>
        <time>2025-10-12T08:07:08Z</time>
      </trkpt>
      <trkpt lat="47.62835" lon="7.14324">
        <ele>299.5394766395</ele>
        <time>2025-10-12T08:07:09Z</time>
      </trkpt>
      <trkpt lat="47.62836" lon="7.14329">
        <ele>299.78572241074</ele>
        <time>2025-10-12T08:07:11Z</time>
      </trkpt>
      <trkpt lat="47.62837" lon="7.14332">
        <ele>300.0481351248</ele>
        <time>2025-10-12T08:07:13Z</time>
      </trkpt>
      <trkpt lat="47.62837" lon="7.14336">
        <ele>300.31130551659</ele>
        <time>2025-10-12T08:07:15Z</time>
      </trkpt>
      <trkpt lat="47.62838" lon="7.14342">
        <ele>300.58428878301</ele>
        <time>2025-10-12T08:07:17Z</time>
      </trkpt>
      <trkpt lat="47.62839" lon="7.14345">
        <ele>300.85867480464</ele>
        <time>2025-10-12T08:07:19Z</time>
      </trkpt>
      <trkpt lat="47.62841" lon="7.14349">
        <ele>300.99027181427</ele>
        <time>2025-10-12T08:07:21Z</time>
      </trkpt>
      <trkpt lat="47.62842" lon="7.14352">
        <ele>301.18560084589</ele>
        <time>2025-10-12T08:07:23Z</time>
      </trkpt>
      <trkpt lat="47.62843" lon="7.14355">
        <ele>301.25398296921</ele>
        <time>2025-10-12T08:07:25Z</time>
      </trkpt>
      <trkpt lat="47.62845" lon="7.14356">
        <ele>301.31499821134</ele>
        <time>2025-10-12T08:07:27Z</time>
      </trkpt>
      <trkpt lat="47.62847" lon="7.14359">
        <ele>301.31516341748</ele>
        <time>2025-10-12T08:07:29Z</time>
      </trkpt>
      <trkpt lat="47.62848" lon="7.1436">
        <ele>301.28249557454</ele>
        <time>2025-10-12T08:07:30Z</time>
      </trkpt>
      <trkpt lat="47.6285" lon="7.14362">
        <ele>301.26806959228</ele>
        <time>2025-10-12T08:07:32Z</time>
      </trkpt>
      <trkpt lat="47.6285" lon="7.14365">
        <ele>301.21887200745</ele>
        <time>2025-10-12T08:07:33Z</time>
      </trkpt>
      <trkpt lat="47.6285" lon="7.14369">
        <ele>301.38262775358</ele>
        <time>2025-10-12T08:07:35Z</time>
      </trkpt>
      <trkpt lat="47.62849" lon="7.14373">
        <ele>301.55658861427</ele>
        <time>2025-10-12T08:07:37Z</time>
      </trkpt>
      <trkpt lat="47.62848" lon="7.14377">
        <ele>301.76048215354</ele>
        <time>2025-10-12T08:07:39Z</time>
      </trkpt>
      <trkpt lat="47.62848" lon="7.14381">
        <ele>301.99294284186</ele>
        <time>2025-10-12T08:07:41Z</time>
      </trkpt>
      <trkpt lat="47.62848" lon="7.14384">
        <ele>302.14809276613</ele>
        <time>2025-10-12T08:07:43Z</time>
      </trkpt>
      <trkpt lat="47.62848" lon="7.14387">
        <ele>302.17526116565</ele>
        <time>2025-10-12T08:07:44Z</time>
      </trkpt>
      <trkpt lat="47.62847" lon="7.1439">
        <ele>302.27081247826</ele>
        <time>2025-10-12T08:07:45Z</time>
      </trkpt>
      <trkpt lat="47.62847" lon="7.14393">
        <ele>302.45123247768</ele>
        <time>2025-10-12T08:07:46Z</time>
      </trkpt>
      <trkpt lat="47.62846" lon="7.14397">
        <ele>302.69001971766</ele>
        <time>2025-10-12T08:07:48Z</time>
      </trkpt>
      <trkpt lat="47.62846" lon="7.14401">
        <ele>302.86833440891</ele>
        <time>2025-10-12T08:07:50Z</time>
      </trkpt>
      <trkpt lat="47.62845" lon="7.14406">
        <ele>303.04250403043</ele>
        <time>2025-10-12T08:07:52Z</time>
      </trkpt>
      <trkpt lat="47.62844" lon="7.14409">
        <ele>303.24031323153</ele>
        <time>2025-10-12T08:07:54Z</time>
      </trkpt>
      <trkpt lat="47.62844" lon="7.14413">
        <ele>303.42748511016</ele>
        <time>2025-10-12T08:07:56Z</time>
      </trkpt>
      <trkpt lat="47.62843" lon="7.14417">
        <ele>303.60741499545</ele>
        <time>2025-10-12T08:07:58Z</time>
      </trkpt>
      <trkpt lat="47.62842" lon="7.14421">
        <ele>303.71722912585</ele>
        <time>2025-10-12T08:08:00Z</time>
      </trkpt>
      <trkpt lat="47.62841" lon="7.14425">
        <ele>303.67538720367</ele>
        <time>2025-10-12T08:08:02Z</time>
      </trkpt>
      <trkpt lat="47.6284" lon="7.14429">
        <ele>303.63805530667</ele>
        <time>2025-10-12T08:08:03Z</time>
      </trkpt>
      <trkpt lat="47.6284" lon="7.14432">
        <ele>303.57925314724</ele>
        <time>2025-10-12T08:08:04Z</time>
      </trkpt>
      <trkpt lat="47.6284" lon="7.14436">
        <ele>303.44771487708</ele>
        <time>2025-10-12T08:08:07Z</time>
      </trkpt>
      <trkpt lat="47.62838" lon="7.1444">
        <ele>303.39013194156</ele>
        <time>2025-10-12T08:08:09Z</time>
      </trkpt>
      <trkpt lat="47.62837" lon="7.14445">
        <ele>303.2967133998</ele>
        <time>2025-10-12T08:08:11Z</time>
      </trkpt>
      <trkpt lat="47.62837" lon="7.14449">
        <ele>303.25241068411</ele>
        <time>2025-10-12T08:08:13Z</time>
      </trkpt>
      <trkpt lat="47.62837" lon="7.14453">
        <ele>303.26708759103</ele>
        <time>2025-10-12T08:08:15Z</time>
      </trkpt>
      <trkpt lat="47.62836" lon="7.14457">
        <ele>303.28159898413</ele>
        <time>2025-10-12T08:08:17Z</time>
      </trkpt>
      <trkpt lat="47.62836" lon="7.14461">
        <ele>303.29485628067</ele>
        <time>2025-10-12T08:08:19Z</time>
      </trkpt>
      <trkpt lat="47.62836" lon="7.14466">
        <ele>303.29412917346</ele>
        <time>2025-10-12T08:08:21Z</time>
      </trkpt>
      <trkpt lat="47.62836" lon="7.1447">
        <ele>303.30487202446</ele>
        <time>2025-10-12T08:08:23Z</time>
      </trkpt>
      <trkpt lat="47.62837" lon="7.14474">
        <ele>303.29753621567</ele>
        <time>2025-10-12T08:08:25Z</time>
      </trkpt>
      <trkpt lat="47.62838" lon="7.14477">
        <ele>303.14970367368</ele>
        <time>2025-10-12T08:08:29Z</time>
      </trkpt>
      <trkpt lat="47.62837" lon="7.14482">
        <ele>303.04669650726</ele>
        <time>2025-10-12T08:08:31Z</time>
      </trkpt>
      <trkpt lat="47.62837" lon="7.14487">
        <ele>302.87632592046</ele>
        <time>2025-10-12T08:08:33Z</time>
      </trkpt>
      <trkpt lat="47.62837" lon="7.1449">
        <ele>302.81215003284</ele>
        <time>2025-10-12T08:08:34Z</time>
      </trkpt>
      <trkpt lat="47.62837" lon="7.14493">
        <ele>302.73069582299</ele>
        <time>2025-10-12T08:08:35Z</time>
      </trkpt>
      <trkpt lat="47.62838" lon="7.14497">
        <ele>302.56468904594</ele>
        <time>2025-10-12T08:08:37Z</time>
      </trkpt>
      <trkpt lat="47.62837" lon="7.14501">
        <ele>302.51088746844</ele>
        <time>2025-10-12T08:08:38Z</time>
      </trkpt>
      <trkpt lat="47.62838" lon="7.14503">
        <ele>302.40874522573</ele>
        <time>2025-10-12T08:08:39Z</time>
      </trkpt>
      <trkpt lat="47.62838" lon="7.14507">
        <ele>302.36853588518</ele>
        <time>2025-10-12T08:08:41Z</time>
      </trkpt>
      <trkpt lat="47.62839" lon="7.14512">
        <ele>302.33655908474</ele>
        <time>2025-10-12T08:08:43Z</time>
      </trkpt>
      <trkpt lat="47.62839" lon="7.14515">
        <ele>302.32187879361</ele>
        <time>2025-10-12T08:08:44Z</time>
      </trkpt>
      <trkpt lat="47.62839" lon="7.14518">
        <ele>302.28757963541</ele>
        <time>2025-10-12T08:08:46Z</time>
      </trkpt>
      <trkpt lat="47.62839" lon="7.14522">
        <ele>302.26160554031</ele>
        <time>2025-10-12T08:08:48Z</time>
      </trkpt>
      <trkpt lat="47.62839" lon="7.14525">
        <ele>302.23140530864</ele>
        <time>2025-10-12T08:08:50Z</time>
      </trkpt>
      <trkpt lat="47.62839" lon="7.14528">
        <ele>302.20277505925</ele>
        <time>2025-10-12T08:08:52Z</time>
      </trkpt>
      <trkpt lat="47.62839" lon="7.14531">
        <ele>302.1871289311</ele>
        <time>2025-10-12T08:08:53Z</time>
      </trkpt>
      <trkpt lat="47.62839" lon="7.14535">
        <ele>302.07043044001</ele>
        <time>2025-10-12T08:08:55Z</time>
      </trkpt>
      <trkpt lat="47.62839" lon="7.14539">
        <ele>301.94693343801</ele>
        <time>2025-10-12T08:08:57Z</time>
      </trkpt>
      <trkpt lat="47.62838" lon="7.14542">
        <ele>301.88751827971</ele>
        <time>2025-10-12T08:08:58Z</time>
      </trkpt>
      <trkpt lat="47.62839" lon="7.14547">
        <ele>301.73176630371</ele>
        <time>2025-10-12T08:09:00Z</time>
      </trkpt>
      <trkpt lat="47.62839" lon="7.14551">
        <ele>301.58394505104</ele>
        <time>2025-10-12T08:09:02Z</time>
      </trkpt>
      <trkpt lat="47.62838" lon="7.14554">
        <ele>301.53473079356</ele>
        <time>2025-10-12T08:09:03Z</time>
      </trkpt>
      <trkpt lat="47.62839" lon="7.14559">
        <ele>301.40235097767</ele>
        <time>2025-10-12T08:09:05Z</time>
      </trkpt>
      <trkpt lat="47.62838" lon="7.14563">
        <ele>301.36611537532</ele>
        <time>2025-10-12T08:09:07Z</time>
      </trkpt>
      <trkpt lat="47.62839" lon="7.14567">
        <ele>301.33982253834</ele>
        <time>2025-10-12T08:09:09Z</time>
      </trkpt>
      <trkpt lat="47.62839" lon="7.1457">
        <ele>301.32080438213</ele>
        <time>2025-10-12T08:09:10Z</time>
      </trkpt>
      <trkpt lat="47.62839" lon="7.14575">
        <ele>301.28395164276</ele>
        <time>2025-10-12T08:09:12Z</time>
      </trkpt>
      <trkpt lat="47.62839" lon="7.1458">
        <ele>301.24615544203</ele>
        <time>2025-10-12T08:09:14Z</time>
      </trkpt>
      <trkpt lat="47.62839" lon="7.14585">
        <ele>301.21313709916</ele>
        <time>2025-10-12T08:09:16Z</time>
      </trkpt>
      <trkpt lat="47.6284" lon="7.14589">
        <ele>301.0798146672</ele>
        <time>2025-10-12T08:09:18Z</time>
      </trkpt>
      <trkpt lat="47.62839" lon="7.14592">
        <ele>300.98844983525</ele>
        <time>2025-10-12T08:09:19Z</time>
      </trkpt>
      <trkpt lat="47.6284" lon="7.14596">
        <ele>300.805573776</ele>
        <time>2025-10-12T08:09:21Z</time>
      </trkpt>
      <trkpt lat="47.6284" lon="7.14601">
        <ele>300.62493153885</ele>
        <time>2025-10-12T08:09:23Z</time>
      </trkpt>
      <trkpt lat="47.6284" lon="7.14604">
        <ele>300.48052257741</ele>
        <time>2025-10-12T08:09:25Z</time>
      </trkpt>
      <trkpt lat="47.6284" lon="7.14609">
        <ele>300.32563518946</ele>
        <time>2025-10-12T08:09:27Z</time>
      </trkpt>
      <trkpt lat="47.6284" lon="7.14611">
        <ele>300.25478603787</ele>
        <time>2025-10-12T08:09:28Z</time>
      </trkpt>
      <trkpt lat="47.6284" lon="7.14616">
        <ele>300.17251631283</ele>
        <time>2025-10-12T08:09:30Z</time>
      </trkpt>
      <trkpt lat="47.6284" lon="7.1462">
        <ele>300.16785664048</ele>
        <time>2025-10-12T08:09:32Z</time>
      </trkpt>
      <trkpt lat="47.6284" lon="7.14624">
        <ele>300.16145719952</ele>
        <time>2025-10-12T08:09:34Z</time>
      </trkpt>
      <trkpt lat="47.62839" lon="7.14628">
        <ele>300.19076789994</ele>
        <time>2025-10-12T08:09:36Z</time>
      </trkpt>
      <trkpt lat="47.62839" lon="7.14631">
        <ele>300.18834520735</ele>
        <time>2025-10-12T08:09:37Z</time>
      </trkpt>
      <trkpt lat="47.62839" lon="7.14634">
        <ele>300.19181082384</ele>
        <time>2025-10-12T08:09:38Z</time>
      </trkpt>
      <trkpt lat="47.62839" lon="7.14637">
        <ele>300.19361307396</ele>
        <time>2025-10-12T08:09:39Z</time>
      </trkpt>
      <trkpt lat="47.62839" lon="7.1464">
        <ele>300.20692196108</ele>
        <time>2025-10-12T08:09:40Z</time>
      </trkpt>
      <trkpt lat="47.62839" lon="7.14643">
        <ele>300.20954374335</ele>
        <time>2025-10-12T08:09:41Z</time>
      </trkpt>
      <trkpt lat="47.62839" lon="7.14646">
        <ele>300.20620665112</ele>
        <time>2025-10-12T08:09:43Z</time>
      </trkpt>
      <trkpt lat="47.62839" lon="7.14651">
        <ele>300.18559588762</ele>
        <time>2025-10-12T08:09:45Z</time>
      </trkpt>
      <trkpt lat="47.62839" lon="7.14654">
        <ele>300.19197534499</ele>
        <time>2025-10-12T08:09:46Z</time>
      </trkpt>
      <trkpt lat="47.62839" lon="7.14657">
        <ele>300.19857337373</ele>
        <time>2025-10-12T08:09:47Z</time>
      </trkpt>
      <trkpt lat="47.62839" lon="7.14662">
        <ele>300.1930314567</ele>
        <time>2025-10-12T08:09:49Z</time>
      </trkpt>
      <trkpt lat="47.62839" lon="7.14666">
        <ele>300.19987644592</ele>
        <time>2025-10-12T08:09:52Z</time>
      </trkpt>
      <trkpt lat="47.62839" lon="7.14671">
        <ele>300.19482427258</ele>
        <time>2025-10-12T08:09:54Z</time>
      </trkpt>
      <trkpt lat="47.62839" lon="7.14675">
        <ele>300.20513935143</ele>
        <time>2025-10-12T08:09:56Z</time>
      </trkpt>
      <trkpt lat="47.62839" lon="7.14678">
        <ele>300.20148279195</ele>
        <time>2025-10-12T08:09:57Z</time>
      </trkpt>
      <trkpt lat="47.62839" lon="7.14683">
        <ele>300.18706476231</ele>
        <time>2025-10-12T08:09:59Z</time>
      </trkpt>
      <trkpt lat="47.6284" lon="7.14686">
        <ele>300.18393230076</ele>
        <time>2025-10-12T08:10:01Z</time>
      </trkpt>
      <trkpt lat="47.62839" lon="7.14689">
        <ele>300.17384633982</ele>
        <time>2025-10-12T08:10:02Z</time>
      </trkpt>
      <trkpt lat="47.6284" lon="7.14693">
        <ele>300.179295722</ele>
        <time>2025-10-12T08:10:04Z</time>
      </trkpt>
      <trkpt lat="47.62839" lon="7.14696">
        <ele>300.17519738379</ele>
        <time>2025-10-12T08:10:06Z</time>
      </trkpt>
      <trkpt lat="47.62839" lon="7.14699">
        <ele>300.18763959617</ele>
        <time>2025-10-12T08:10:07Z</time>
      </trkpt>
      <trkpt lat="47.62839" lon="7.14703">
        <ele>300.20796240213</ele>
        <time>2025-10-12T08:10:09Z</time>
      </trkpt>
      <trkpt lat="47.62839" lon="7.14706">
        <ele>300.20823704132</ele>
        <time>2025-10-12T08:10:11Z</time>
      </trkpt>
      <trkpt lat="47.62839" lon="7.14709">
        <ele>300.2029461254</ele>
        <time>2025-10-12T08:10:12Z</time>
      </trkpt>
      <trkpt lat="47.6284" lon="7.14713">
        <ele>300.1669589619</ele>
        <time>2025-10-12T08:10:15Z</time>
      </trkpt>
      <trkpt lat="47.62842" lon="7.14716">
        <ele>300.12968949471</ele>
        <time>2025-10-12T08:10:17Z</time>
      </trkpt>
      <trkpt lat="47.62844" lon="7.14718">
        <ele>300.04854256908</ele>
        <time>2025-10-12T08:10:19Z</time>
      </trkpt>
      <trkpt lat="47.62847" lon="7.14715">
        <ele>299.9593744436</ele>
        <time>2025-10-12T08:10:22Z</time>
      </trkpt>
      <trkpt lat="47.62848" lon="7.14711">
        <ele>299.92330914513</ele>
        <time>2025-10-12T08:10:24Z</time>
      </trkpt>
      <trkpt lat="47.62849" lon="7.14708">
        <ele>299.85995288668</ele>
        <time>2025-10-12T08:10:26Z</time>
      </trkpt>
      <trkpt lat="47.6285" lon="7.14705">
        <ele>299.84723453122</ele>
        <time>2025-10-12T08:10:27Z</time>
      </trkpt>
      <trkpt lat="47.62851" lon="7.14702">
        <ele>299.80171525915</ele>
        <time>2025-10-12T08:10:28Z</time>
      </trkpt>
      <trkpt lat="47.62853" lon="7.14699">
        <ele>299.72463782672</ele>
        <time>2025-10-12T08:10:30Z</time>
      </trkpt>
      <trkpt lat="47.62853" lon="7.14696">
        <ele>299.70363298258</ele>
        <time>2025-10-12T08:10:32Z</time>
      </trkpt>
      <trkpt lat="47.62854" lon="7.14693">
        <ele>299.68837441119</ele>
        <time>2025-10-12T08:10:34Z</time>
      </trkpt>
      <trkpt lat="47.62855" lon="7.1469">
        <ele>299.6540708245</ele>
        <time>2025-10-12T08:10:36Z</time>
      </trkpt>
      <trkpt lat="47.62856" lon="7.14686">
        <ele>299.6199026098</ele>
        <time>2025-10-12T08:10:39Z</time>
      </trkpt>
      <trkpt lat="47.62858" lon="7.14684">
        <ele>299.56310538006</ele>
        <time>2025-10-12T08:10:42Z</time>
      </trkpt>
      <trkpt lat="47.62861" lon="7.14685">
        <ele>299.46919567755</ele>
        <time>2025-10-12T08:10:45Z</time>
      </trkpt>
      <trkpt lat="47.62864" lon="7.14685">
        <ele>299.36840155913</ele>
        <time>2025-10-12T08:10:47Z</time>
      </trkpt>
      <trkpt lat="47.62866" lon="7.14685">
        <ele>299.26985425027</ele>
        <time>2025-10-12T08:10:49Z</time>
      </trkpt>
      <trkpt lat="47.62869" lon="7.14685">
        <ele>299.17412268343</ele>
        <time>2025-10-12T08:10:51Z</time>
      </trkpt>
      <trkpt lat="47.62872" lon="7.14685">
        <ele>299.07367043368</ele>
        <time>2025-10-12T08:10:53Z</time>
      </trkpt>
      <trkpt lat="47.62874" lon="7.14684">
        <ele>298.96663136529</ele>
        <time>2025-10-12T08:10:55Z</time>
      </trkpt>
      <trkpt lat="47.62876" lon="7.14684">
        <ele>298.88386938525</ele>
        <time>2025-10-12T08:10:57Z</time>
      </trkpt>
      <trkpt lat="47.62879" lon="7.14685">
        <ele>298.82380897736</ele>
        <time>2025-10-12T08:10:59Z</time>
      </trkpt>
      <trkpt lat="47.62882" lon="7.14685">
        <ele>298.70285185845</ele>
        <time>2025-10-12T08:11:02Z</time>
      </trkpt>
      <trkpt lat="47.62885" lon="7.14686">
        <ele>298.60183827963</ele>
        <time>2025-10-12T08:11:04Z</time>
      </trkpt>
      <trkpt lat="47.62888" lon="7.14687">
        <ele>298.48752064873</ele>
        <time>2025-10-12T08:11:06Z</time>
      </trkpt>
      <trkpt lat="47.62891" lon="7.14689">
        <ele>298.38315267994</ele>
        <time>2025-10-12T08:11:08Z</time>
      </trkpt>
      <trkpt lat="47.62894" lon="7.14691">
        <ele>298.27540154175</ele>
        <time>2025-10-12T08:11:10Z</time>
      </trkpt>
      <trkpt lat="47.62897" lon="7.14693">
        <ele>298.17429625938</ele>
        <time>2025-10-12T08:11:12Z</time>
      </trkpt>
      <trkpt lat="47.62899" lon="7.14697">
        <ele>298.08841582179</ele>
        <time>2025-10-12T08:11:14Z</time>
      </trkpt>
      <trkpt lat="47.629" lon="7.14698">
        <ele>298.04608180129</ele>
        <time>2025-10-12T08:11:15Z</time>
      </trkpt>
      <trkpt lat="47.62903" lon="7.14699">
        <ele>297.94090564986</ele>
        <time>2025-10-12T08:11:17Z</time>
      </trkpt>
      <trkpt lat="47.62903" lon="7.14702">
        <ele>297.89902792766</ele>
        <time>2025-10-12T08:11:18Z</time>
      </trkpt>
      <trkpt lat="47.62905" lon="7.14707">
        <ele>297.86080046757</ele>
        <time>2025-10-12T08:11:20Z</time>
      </trkpt>
      <trkpt lat="47.62906" lon="7.14709">
        <ele>297.83690974341</ele>
        <time>2025-10-12T08:11:21Z</time>
      </trkpt>
      <trkpt lat="47.62906" lon="7.14715">
        <ele>297.78021529647</ele>
        <time>2025-10-12T08:11:23Z</time>
      </trkpt>
      <trkpt lat="47.62908" lon="7.14719">
        <ele>297.75160849604</ele>
        <time>2025-10-12T08:11:25Z</time>
      </trkpt>
      <trkpt lat="47.62908" lon="7.14722">
        <ele>297.72686640075</ele>
        <time>2025-10-12T08:11:26Z</time>
      </trkpt>
      <trkpt lat="47.62909" lon="7.14728">
        <ele>297.73535631812</ele>
        <time>2025-10-12T08:11:28Z</time>
      </trkpt>
      <trkpt lat="47.62911" lon="7.14732">
        <ele>297.83229393946</ele>
        <time>2025-10-12T08:11:30Z</time>
      </trkpt>
      <trkpt lat="47.62912" lon="7.14735">
        <ele>297.87075342654</ele>
        <time>2025-10-12T08:11:31Z</time>
      </trkpt>
      <trkpt lat="47.62913" lon="7.14739">
        <ele>298.00441664834</ele>
        <time>2025-10-12T08:11:33Z</time>
      </trkpt>
      <trkpt lat="47.62914" lon="7.14743">
        <ele>298.12328776542</ele>
        <time>2025-10-12T08:11:35Z</time>
      </trkpt>
      <trkpt lat="47.62915" lon="7.14748">
        <ele>298.21859360306</ele>
        <time>2025-10-12T08:11:37Z</time>
      </trkpt>
      <trkpt lat="47.62915" lon="7.14752">
        <ele>298.38239700323</ele>
        <time>2025-10-12T08:11:39Z</time>
      </trkpt>
      <trkpt lat="47.62916" lon="7.14755">
        <ele>298.39825823975</ele>
        <time>2025-10-12T08:11:40Z</time>
      </trkpt>
      <trkpt lat="47.62917" lon="7.14758">
        <ele>298.3998443634</ele>
        <time>2025-10-12T08:11:41Z</time>
      </trkpt>
      <trkpt lat="47.62918" lon="7.14762">
        <ele>298.36307181552</ele>
        <time>2025-10-12T08:11:43Z</time>
      </trkpt>
      <trkpt lat="47.62918" lon="7.14766">
        <ele>298.34997917549</ele>
        <time>2025-10-12T08:11:45Z</time>
      </trkpt>
      <trkpt lat="47.62919" lon="7.14771">
        <ele>298.34165519489</ele>
        <time>2025-10-12T08:11:47Z</time>
      </trkpt>
      <trkpt lat="47.6292" lon="7.14774">
        <ele>298.29789306104</ele>
        <time>2025-10-12T08:11:49Z</time>
      </trkpt>
      <trkpt lat="47.6292" lon="7.14778">
        <ele>298.27577117457</ele>
        <time>2025-10-12T08:11:51Z</time>
      </trkpt>
      <trkpt lat="47.62922" lon="7.14782">
        <ele>298.24898776088</ele>
        <time>2025-10-12T08:11:53Z</time>
      </trkpt>
      <trkpt lat="47.62923" lon="7.14786">
        <ele>298.20326399412</ele>
        <time>2025-10-12T08:11:55Z</time>
      </trkpt>
      <trkpt lat="47.62924" lon="7.1479">
        <ele>298.15678502794</ele>
        <time>2025-10-12T08:11:57Z</time>
      </trkpt>
      <trkpt lat="47.62927" lon="7.14793">
        <ele>298.09306920068</ele>
        <time>2025-10-12T08:11:59Z</time>
      </trkpt>
      <trkpt lat="47.62928" lon="7.14795">
        <ele>298.04720631887</ele>
        <time>2025-10-12T08:12:00Z</time>
      </trkpt>
      <trkpt lat="47.62929" lon="7.14798">
        <ele>298.01339639788</ele>
        <time>2025-10-12T08:12:01Z</time>
      </trkpt>
      <trkpt lat="47.62931" lon="7.148">
        <ele>297.9260768427</ele>
        <time>2025-10-12T08:12:03Z</time>
      </trkpt>
      <trkpt lat="47.62933" lon="7.14803">
        <ele>297.85114206268</ele>
        <time>2025-10-12T08:12:05Z</time>
      </trkpt>
      <trkpt lat="47.62935" lon="7.14806">
        <ele>297.7814370264</ele>
        <time>2025-10-12T08:12:07Z</time>
      </trkpt>
      <trkpt lat="47.62937" lon="7.14807">
        <ele>297.67314537155</ele>
        <time>2025-10-12T08:12:09Z</time>
      </trkpt>
      <trkpt lat="47.6294" lon="7.14809">
        <ele>297.54184974748</ele>
        <time>2025-10-12T08:12:11Z</time>
      </trkpt>
      <trkpt lat="47.62941" lon="7.14811">
        <ele>297.40394652024</ele>
        <time>2025-10-12T08:12:13Z</time>
      </trkpt>
      <trkpt lat="47.62944" lon="7.14813">
        <ele>297.2461331618</ele>
        <time>2025-10-12T08:12:15Z</time>
      </trkpt>
      <trkpt lat="47.62946" lon="7.14815">
        <ele>297.08522855116</ele>
        <time>2025-10-12T08:12:17Z</time>
      </trkpt>
      <trkpt lat="47.62949" lon="7.14818">
        <ele>296.93772106756</ele>
        <time>2025-10-12T08:12:19Z</time>
      </trkpt>
      <trkpt lat="47.6295" lon="7.14819">
        <ele>296.82147558271</ele>
        <time>2025-10-12T08:12:20Z</time>
      </trkpt>
      <trkpt lat="47.62953" lon="7.14822">
        <ele>296.60986075955</ele>
        <time>2025-10-12T08:12:22Z</time>
      </trkpt>
      <trkpt lat="47.62955" lon="7.14824">
        <ele>296.43375687939</ele>
        <time>2025-10-12T08:12:24Z</time>
      </trkpt>
      <trkpt lat="47.62958" lon="7.14827">
        <ele>296.25872771314</ele>
        <time>2025-10-12T08:12:26Z</time>
      </trkpt>
      <trkpt lat="47.6296" lon="7.1483">
        <ele>296.07033343955</ele>
        <time>2025-10-12T08:12:28Z</time>
      </trkpt>
      <trkpt lat="47.62963" lon="7.14833">
        <ele>295.89517312962</ele>
        <time>2025-10-12T08:12:30Z</time>
      </trkpt>
      <trkpt lat="47.62965" lon="7.14834">
        <ele>295.70886220035</ele>
        <time>2025-10-12T08:12:32Z</time>
      </trkpt>
      <trkpt lat="47.62968" lon="7.14837">
        <ele>295.62598590746</ele>
        <time>2025-10-12T08:12:34Z</time>
      </trkpt>
      <trkpt lat="47.6297" lon="7.14839">
        <ele>295.52124295997</ele>
        <time>2025-10-12T08:12:36Z</time>
      </trkpt>
      <trkpt lat="47.62973" lon="7.14842">
        <ele>295.42852560862</ele>
        <time>2025-10-12T08:12:38Z</time>
      </trkpt>
      <trkpt lat="47.62975" lon="7.14846">
        <ele>295.40030564946</ele>
        <time>2025-10-12T08:12:40Z</time>
      </trkpt>
      <trkpt lat="47.62976" lon="7.14848">
        <ele>295.40002344987</ele>
        <time>2025-10-12T08:12:42Z</time>
      </trkpt>
      <trkpt lat="47.62978" lon="7.14852">
        <ele>295.40002062787</ele>
        <time>2025-10-12T08:12:44Z</time>
      </trkpt>
      <trkpt lat="47.6298" lon="7.14854">
        <ele>295.40002059965</ele>
        <time>2025-10-12T08:12:46Z</time>
      </trkpt>
      <trkpt lat="47.62981" lon="7.14856">
        <ele>295.40002059939</ele>
        <time>2025-10-12T08:12:47Z</time>
      </trkpt>
      <trkpt lat="47.62983" lon="7.14858">
        <ele>295.40002059937</ele>
        <time>2025-10-12T08:12:48Z</time>
      </trkpt>
      <trkpt lat="47.62985" lon="7.1486">
        <ele>295.40002059937</ele>
        <time>2025-10-12T08:12:50Z</time>
      </trkpt>
      <trkpt lat="47.62988" lon="7.14861">
        <ele>295.40002059937</ele>
        <time>2025-10-12T08:12:52Z</time>
      </trkpt>
      <trkpt lat="47.62991" lon="7.14864">
        <ele>295.40002059937</ele>
        <time>2025-10-12T08:12:54Z</time>
      </trkpt>
      <trkpt lat="47.62993" lon="7.14866">
        <ele>295.40002059937</ele>
        <time>2025-10-12T08:12:55Z</time>
      </trkpt>
      <trkpt lat="47.62994" lon="7.14868">
        <ele>295.40002059937</ele>
        <time>2025-10-12T08:12:56Z</time>
      </trkpt>
      <trkpt lat="47.62996" lon="7.1487">
        <ele>295.40002059937</ele>
        <time>2025-10-12T08:12:57Z</time>
      </trkpt>
      <trkpt lat="47.62998" lon="7.14871">
        <ele>295.40002059937</ele>
        <time>2025-10-12T08:12:58Z</time>
      </trkpt>
      <trkpt lat="47.63" lon="7.14873">
        <ele>295.40002059937</ele>
        <time>2025-10-12T08:13:00Z</time>
      </trkpt>
      <trkpt lat="47.63003" lon="7.14875">
        <ele>295.40002059937</ele>
        <time>2025-10-12T08:13:01Z</time>
      </trkpt>
      <trkpt lat="47.63004" lon="7.14876">
        <ele>295.40002059937</ele>
        <time>2025-10-12T08:13:02Z</time>
      </trkpt>
      <trkpt lat="47.63006" lon="7.14879">
        <ele>295.40002059937</ele>
        <time>2025-10-12T08:13:04Z</time>
      </trkpt>
      <trkpt lat="47.63008" lon="7.1488">
        <ele>295.40002059937</ele>
        <time>2025-10-12T08:13:05Z</time>
      </trkpt>
      <trkpt lat="47.6301" lon="7.14883">
        <ele>295.40002059937</ele>
        <time>2025-10-12T08:13:07Z</time>
      </trkpt>
      <trkpt lat="47.63013" lon="7.14884">
        <ele>295.40002059937</ele>
        <time>2025-10-12T08:13:09Z</time>
      </trkpt>
      <trkpt lat="47.63015" lon="7.14884">
        <ele>295.40002059937</ele>
        <time>2025-10-12T08:13:11Z</time>
      </trkpt>
      <trkpt lat="47.63018" lon="7.14885">
        <ele>295.40002059937</ele>
        <time>2025-10-12T08:13:13Z</time>
      </trkpt>
      <trkpt lat="47.6302" lon="7.14886">
        <ele>295.40002059937</ele>
        <time>2025-10-12T08:13:14Z</time>
      </trkpt>
      <trkpt lat="47.63023" lon="7.14888">
        <ele>295.40002059937</ele>
        <time>2025-10-12T08:13:16Z</time>
      </trkpt>
      <trkpt lat="47.63026" lon="7.1489">
        <ele>295.40002059937</ele>
        <time>2025-10-12T08:13:18Z</time>
      </trkpt>
      <trkpt lat="47.63028" lon="7.1489">
        <ele>295.40002059937</ele>
        <time>2025-10-12T08:13:20Z</time>
      </trkpt>
      <trkpt lat="47.6303" lon="7.14892">
        <ele>295.40002059937</ele>
        <time>2025-10-12T08:13:22Z</time>
      </trkpt>
      <trkpt lat="47.63033" lon="7.14893">
        <ele>295.40002059937</ele>
        <time>2025-10-12T08:13:24Z</time>
      </trkpt>
      <trkpt lat="47.63035" lon="7.14894">
        <ele>295.40002059937</ele>
        <time>2025-10-12T08:13:26Z</time>
      </trkpt>
      <trkpt lat="47.63039" lon="7.14896">
        <ele>295.40002059937</ele>
        <time>2025-10-12T08:13:28Z</time>
      </trkpt>
      <trkpt lat="47.63041" lon="7.14899">
        <ele>295.40002059937</ele>
        <time>2025-10-12T08:13:30Z</time>
      </trkpt>
      <trkpt lat="47.63044" lon="7.14901">
        <ele>295.40002059937</ele>
        <time>2025-10-12T08:13:32Z</time>
      </trkpt>
      <trkpt lat="47.63046" lon="7.14904">
        <ele>295.40002059937</ele>
        <time>2025-10-12T08:13:33Z</time>
      </trkpt>
      <trkpt lat="47.63049" lon="7.14906">
        <ele>295.40002059937</ele>
        <time>2025-10-12T08:13:35Z</time>
      </trkpt>
      <trkpt lat="47.63051" lon="7.14908">
        <ele>295.40002059937</ele>
        <time>2025-10-12T08:13:37Z</time>
      </trkpt>
      <trkpt lat="47.63052" lon="7.14912">
        <ele>295.40002059937</ele>
        <time>2025-10-12T08:13:39Z</time>
      </trkpt>
      <trkpt lat="47.63054" lon="7.14914">
        <ele>295.40002059937</ele>
        <time>2025-10-12T08:13:40Z</time>
      </trkpt>
      <trkpt lat="47.63055" lon="7.14916">
        <ele>295.40002059937</ele>
        <time>2025-10-12T08:13:41Z</time>
      </trkpt>
      <trkpt lat="47.63057" lon="7.14917">
        <ele>295.40002059937</ele>
        <time>2025-10-12T08:13:42Z</time>
      </trkpt>
      <trkpt lat="47.6306" lon="7.14919">
        <ele>295.44341934204</ele>
        <time>2025-10-12T08:13:44Z</time>
      </trkpt>
      <trkpt lat="47.63062" lon="7.14922">
        <ele>295.50920275574</ele>
        <time>2025-10-12T08:13:46Z</time>
      </trkpt>
      <trkpt lat="47.63065" lon="7.14924">
        <ele>295.62266546048</ele>
        <time>2025-10-12T08:13:48Z</time>
      </trkpt>
      <trkpt lat="47.63067" lon="7.14927">
        <ele>295.71223178919</ele>
        <time>2025-10-12T08:13:50Z</time>
      </trkpt>
      <trkpt lat="47.63068" lon="7.1493">
        <ele>295.83018128548</ele>
        <time>2025-10-12T08:13:52Z</time>
      </trkpt>
      <trkpt lat="47.6307" lon="7.14931">
        <ele>295.87056549236</ele>
        <time>2025-10-12T08:13:54Z</time>
      </trkpt>
      <trkpt lat="47.63072" lon="7.14933">
        <ele>295.92341481034</ele>
        <time>2025-10-12T08:13:55Z</time>
      </trkpt>
      <trkpt lat="47.63075" lon="7.14936">
        <ele>296.03034914597</ele>
        <time>2025-10-12T08:13:57Z</time>
      </trkpt>
      <trkpt lat="47.63076" lon="7.14939">
        <ele>296.08249009953</ele>
        <time>2025-10-12T08:13:58Z</time>
      </trkpt>
      <trkpt lat="47.63078" lon="7.1494">
        <ele>296.21065999163</ele>
        <time>2025-10-12T08:14:00Z</time>
      </trkpt>
      <trkpt lat="47.6308" lon="7.14943">
        <ele>296.28990067493</ele>
        <time>2025-10-12T08:14:02Z</time>
      </trkpt>
      <trkpt lat="47.63081" lon="7.14945">
        <ele>296.33377484227</ele>
        <time>2025-10-12T08:14:03Z</time>
      </trkpt>
      <trkpt lat="47.63084" lon="7.14948">
        <ele>296.48264000215</ele>
        <time>2025-10-12T08:14:05Z</time>
      </trkpt>
      <trkpt lat="47.63085" lon="7.1495">
        <ele>296.547217643</ele>
        <time>2025-10-12T08:14:07Z</time>
      </trkpt>
      <trkpt lat="47.63088" lon="7.14953">
        <ele>296.69687373435</ele>
        <time>2025-10-12T08:14:09Z</time>
      </trkpt>
      <trkpt lat="47.63089" lon="7.14955">
        <ele>296.74770518044</ele>
        <time>2025-10-12T08:14:10Z</time>
      </trkpt>
      <trkpt lat="47.63091" lon="7.14957">
        <ele>296.92256025035</ele>
        <time>2025-10-12T08:14:12Z</time>
      </trkpt>
      <trkpt lat="47.63092" lon="7.1496">
        <ele>296.98579812403</ele>
        <time>2025-10-12T08:14:13Z</time>
      </trkpt>
      <trkpt lat="47.63094" lon="7.14963">
        <ele>297.1875418878</ele>
        <time>2025-10-12T08:14:15Z</time>
      </trkpt>
      <trkpt lat="47.63095" lon="7.14965">
        <ele>297.38806304858</ele>
        <time>2025-10-12T08:14:17Z</time>
      </trkpt>
      <trkpt lat="47.63097" lon="7.14967">
        <ele>297.53194020843</ele>
        <time>2025-10-12T08:14:19Z</time>
      </trkpt>
      <trkpt lat="47.63099" lon="7.14969">
        <ele>297.68874763237</ele>
        <time>2025-10-12T08:14:21Z</time>
      </trkpt>
      <trkpt lat="47.63101" lon="7.14973">
        <ele>297.90444198835</ele>
        <time>2025-10-12T08:14:23Z</time>
      </trkpt>
      <trkpt lat="47.63103" lon="7.14975">
        <ele>298.04883309959</ele>
        <time>2025-10-12T08:14:24Z</time>
      </trkpt>
      <trkpt lat="47.63105" lon="7.14977">
        <ele>298.27230279175</ele>
        <time>2025-10-12T08:14:26Z</time>
      </trkpt>
      <trkpt lat="47.63107" lon="7.1498">
        <ele>298.45559217617</ele>
        <time>2025-10-12T08:14:28Z</time>
      </trkpt>
      <trkpt lat="47.63109" lon="7.14982">
        <ele>298.58434462568</ele>
        <time>2025-10-12T08:14:30Z</time>
      </trkpt>
      <trkpt lat="47.63112" lon="7.14984">
        <ele>298.7521464324</ele>
        <time>2025-10-12T08:14:32Z</time>
      </trkpt>
      <trkpt lat="47.63114" lon="7.14985">
        <ele>298.87654463072</ele>
        <time>2025-10-12T08:14:35Z</time>
      </trkpt>
      <trkpt lat="47.63116" lon="7.14985">
        <ele>298.90977515853</ele>
        <time>2025-10-12T08:14:37Z</time>
      </trkpt>
      <trkpt lat="47.6312" lon="7.14984">
        <ele>298.93252506634</ele>
        <time>2025-10-12T08:14:39Z</time>
      </trkpt>
      <trkpt lat="47.63122" lon="7.14984">
        <ele>298.95283282665</ele>
        <time>2025-10-12T08:14:41Z</time>
      </trkpt>
      <trkpt lat="47.63125" lon="7.14984">
        <ele>299.00204316744</ele>
        <time>2025-10-12T08:14:43Z</time>
      </trkpt>
      <trkpt lat="47.63127" lon="7.14985">
        <ele>299.0640685753</ele>
        <time>2025-10-12T08:14:46Z</time>
      </trkpt>
      <trkpt lat="47.6313" lon="7.14984">
        <ele>299.12125855227</ele>
        <time>2025-10-12T08:14:48Z</time>
      </trkpt>
      <trkpt lat="47.63133" lon="7.14983">
        <ele>299.11110230262</ele>
        <time>2025-10-12T08:14:50Z</time>
      </trkpt>
      <trkpt lat="47.63137" lon="7.14982">
        <ele>299.098089058</ele>
        <time>2025-10-12T08:14:52Z</time>
      </trkpt>
      <trkpt lat="47.63139" lon="7.14982">
        <ele>299.08723162003</ele>
        <time>2025-10-12T08:14:53Z</time>
      </trkpt>
      <trkpt lat="47.63142" lon="7.14982">
        <ele>299.1194893821</ele>
        <time>2025-10-12T08:14:54Z</time>
      </trkpt>
      <trkpt lat="47.63146" lon="7.14983">
        <ele>299.0995324869</ele>
        <time>2025-10-12T08:14:56Z</time>
      </trkpt>
      <trkpt lat="47.63148" lon="7.14983">
        <ele>299.16043504495</ele>
        <time>2025-10-12T08:14:57Z</time>
      </trkpt>
      <trkpt lat="47.63151" lon="7.14982">
        <ele>299.15259666765</ele>
        <time>2025-10-12T08:14:59Z</time>
      </trkpt>
      <trkpt lat="47.63153" lon="7.14984">
        <ele>299.1270492287</ele>
        <time>2025-10-12T08:15:01Z</time>
      </trkpt>
      <trkpt lat="47.63155" lon="7.14987">
        <ele>299.33246330997</ele>
        <time>2025-10-12T08:15:03Z</time>
      </trkpt>
      <trkpt lat="47.63158" lon="7.14989">
        <ele>299.44399424054</ele>
        <time>2025-10-12T08:15:04Z</time>
      </trkpt>
      <trkpt lat="47.6316" lon="7.1499">
        <ele>299.56242882774</ele>
        <time>2025-10-12T08:15:05Z</time>
      </trkpt>
      <trkpt lat="47.63163" lon="7.1499">
        <ele>299.66118569727</ele>
        <time>2025-10-12T08:15:07Z</time>
      </trkpt>
      <trkpt lat="47.63166" lon="7.14991">
        <ele>299.72131541685</ele>
        <time>2025-10-12T08:15:09Z</time>
      </trkpt>
      <trkpt lat="47.6317" lon="7.14992">
        <ele>299.74497152361</ele>
        <time>2025-10-12T08:15:11Z</time>
      </trkpt>
      <trkpt lat="47.63173" lon="7.14994">
        <ele>299.72257899533</ele>
        <time>2025-10-12T08:15:13Z</time>
      </trkpt>
      <trkpt lat="47.63175" lon="7.14994">
        <ele>299.75760908056</ele>
        <time>2025-10-12T08:15:14Z</time>
      </trkpt>
      <trkpt lat="47.63178" lon="7.14995">
        <ele>299.7444952678</ele>
        <time>2025-10-12T08:15:15Z</time>
      </trkpt>
      <trkpt lat="47.63181" lon="7.14996">
        <ele>299.69662932109</ele>
        <time>2025-10-12T08:15:16Z</time>
      </trkpt>
      <trkpt lat="47.63183" lon="7.14997">
        <ele>299.66102607603</ele>
        <time>2025-10-12T08:15:17Z</time>
      </trkpt>
      <trkpt lat="47.63185" lon="7.14997">
        <ele>299.64683647906</ele>
        <time>2025-10-12T08:15:18Z</time>
      </trkpt>
      <trkpt lat="47.63189" lon="7.15">
        <ele>299.62292668541</ele>
        <time>2025-10-12T08:15:20Z</time>
      </trkpt>
      <trkpt lat="47.63191" lon="7.15002">
        <ele>299.59618581745</ele>
        <time>2025-10-12T08:15:22Z</time>
      </trkpt>
      <trkpt lat="47.63193" lon="7.15004">
        <ele>299.62005262508</ele>
        <time>2025-10-12T08:15:24Z</time>
      </trkpt>
      <trkpt lat="47.63196" lon="7.15007">
        <ele>299.59401116972</ele>
        <time>2025-10-12T08:15:27Z</time>
      </trkpt>
      <trkpt lat="47.63198" lon="7.15009">
        <ele>299.58422918183</ele>
        <time>2025-10-12T08:15:29Z</time>
      </trkpt>
      <trkpt lat="47.63202" lon="7.15011">
        <ele>299.57499897669</ele>
        <time>2025-10-12T08:15:31Z</time>
      </trkpt>
      <trkpt lat="47.63204" lon="7.15015">
        <ele>299.55858923079</ele>
        <time>2025-10-12T08:15:33Z</time>
      </trkpt>
      <trkpt lat="47.63205" lon="7.15018">
        <ele>299.63144027005</ele>
        <time>2025-10-12T08:15:35Z</time>
      </trkpt>
      <trkpt lat="47.63206" lon="7.15021">
        <ele>299.69810872185</ele>
        <time>2025-10-12T08:15:37Z</time>
      </trkpt>
      <trkpt lat="47.63207" lon="7.15025">
        <ele>299.76524269153</ele>
        <time>2025-10-12T08:15:39Z</time>
      </trkpt>
      <trkpt lat="47.63209" lon="7.15027">
        <ele>299.82218600388</ele>
        <time>2025-10-12T08:15:41Z</time>
      </trkpt>
      <trkpt lat="47.63211" lon="7.1503">
        <ele>299.87061188232</ele>
        <time>2025-10-12T08:15:43Z</time>
      </trkpt>
      <trkpt lat="47.63212" lon="7.15034">
        <ele>299.91218775487</ele>
        <time>2025-10-12T08:15:45Z</time>
      </trkpt>
      <trkpt lat="47.63214" lon="7.15036">
        <ele>299.99939001262</ele>
        <time>2025-10-12T08:15:47Z</time>
      </trkpt>
      <trkpt lat="47.63215" lon="7.1504">
        <ele>300.0280354727</ele>
        <time>2025-10-12T08:15:49Z</time>
      </trkpt>
      <trkpt lat="47.63216" lon="7.15043">
        <ele>300.13026681255</ele>
        <time>2025-10-12T08:15:51Z</time>
      </trkpt>
      <trkpt lat="47.63217" lon="7.15045">
        <ele>300.18789068845</ele>
        <time>2025-10-12T08:15:53Z</time>
      </trkpt>
      <trkpt lat="47.63217" lon="7.15049">
        <ele>300.28355634371</ele>
        <time>2025-10-12T08:15:55Z</time>
      </trkpt>
      <trkpt lat="47.63218" lon="7.15056">
        <ele>300.34626907126</ele>
        <time>2025-10-12T08:15:56Z</time>
      </trkpt>
      <trkpt lat="47.63219" lon="7.1506">
        <ele>300.60415837705</ele>
        <time>2025-10-12T08:15:58Z</time>
      </trkpt>
      <trkpt lat="47.6322" lon="7.15064">
        <ele>300.71039876913</ele>
        <time>2025-10-12T08:16:00Z</time>
      </trkpt>
      <trkpt lat="47.6322" lon="7.15066">
        <ele>300.76699286458</ele>
        <time>2025-10-12T08:16:01Z</time>
      </trkpt>
      <trkpt lat="47.63221" lon="7.15069">
        <ele>300.85573638057</ele>
        <time>2025-10-12T08:16:02Z</time>
      </trkpt>
      <trkpt lat="47.63221" lon="7.15074">
        <ele>301.01377514487</ele>
        <time>2025-10-12T08:16:04Z</time>
      </trkpt>
      <trkpt lat="47.63221" lon="7.15078">
        <ele>301.16933441435</ele>
        <time>2025-10-12T08:16:06Z</time>
      </trkpt>
      <trkpt lat="47.63223" lon="7.15082">
        <ele>301.31007305148</ele>
        <time>2025-10-12T08:16:08Z</time>
      </trkpt>
      <trkpt lat="47.63224" lon="7.15086">
        <ele>301.35669192467</ele>
        <time>2025-10-12T08:16:10Z</time>
      </trkpt>
      <trkpt lat="47.63225" lon="7.1509">
        <ele>301.32698965637</ele>
        <time>2025-10-12T08:16:12Z</time>
      </trkpt>
      <trkpt lat="47.63225" lon="7.15096">
        <ele>301.33477307802</ele>
        <time>2025-10-12T08:16:14Z</time>
      </trkpt>
      <trkpt lat="47.63226" lon="7.15101">
        <ele>301.34182448402</ele>
        <time>2025-10-12T08:16:16Z</time>
      </trkpt>
      <trkpt lat="47.63227" lon="7.15103">
        <ele>301.3458886099</ele>
        <time>2025-10-12T08:16:17Z</time>
      </trkpt>
      <trkpt lat="47.63228" lon="7.15108">
        <ele>301.36296347137</ele>
        <time>2025-10-12T08:16:19Z</time>
      </trkpt>
      <trkpt lat="47.63229" lon="7.15111">
        <ele>301.37692401742</ele>
        <time>2025-10-12T08:16:20Z</time>
      </trkpt>
      <trkpt lat="47.6323" lon="7.15116">
        <ele>301.43751668433</ele>
        <time>2025-10-12T08:16:22Z</time>
      </trkpt>
      <trkpt lat="47.63232" lon="7.15118">
        <ele>301.50393805454</ele>
        <time>2025-10-12T08:16:23Z</time>
      </trkpt>
      <trkpt lat="47.63232" lon="7.15122">
        <ele>301.61246693944</ele>
        <time>2025-10-12T08:16:25Z</time>
      </trkpt>
      <trkpt lat="47.63233" lon="7.15127">
        <ele>301.70210477956</ele>
        <time>2025-10-12T08:16:27Z</time>
      </trkpt>
      <trkpt lat="47.63234" lon="7.15129">
        <ele>301.73845045293</ele>
        <time>2025-10-12T08:16:28Z</time>
      </trkpt>
      <trkpt lat="47.63235" lon="7.15135">
        <ele>301.80971501753</ele>
        <time>2025-10-12T08:16:30Z</time>
      </trkpt>
      <trkpt lat="47.63235" lon="7.15138">
        <ele>301.86907231657</ele>
        <time>2025-10-12T08:16:31Z</time>
      </trkpt>
      <trkpt lat="47.63235" lon="7.15141">
        <ele>301.92579234823</ele>
        <time>2025-10-12T08:16:32Z</time>
      </trkpt>
      <trkpt lat="47.63236" lon="7.15144">
        <ele>301.95612865804</ele>
        <time>2025-10-12T08:16:33Z</time>
      </trkpt>
      <trkpt lat="47.63236" lon="7.15147">
        <ele>301.98904510152</ele>
        <time>2025-10-12T08:16:34Z</time>
      </trkpt>
      <trkpt lat="47.63237" lon="7.15149">
        <ele>302.02477387966</ele>
        <time>2025-10-12T08:16:35Z</time>
      </trkpt>
      <trkpt lat="47.63237" lon="7.15152">
        <ele>302.07061665493</ele>
        <time>2025-10-12T08:16:36Z</time>
      </trkpt>
      <trkpt lat="47.63237" lon="7.15157">
        <ele>302.16204760484</ele>
        <time>2025-10-12T08:16:38Z</time>
      </trkpt>
      <trkpt lat="47.63237" lon="7.15161">
        <ele>302.25320086698</ele>
        <time>2025-10-12T08:16:40Z</time>
      </trkpt>
      <trkpt lat="47.63237" lon="7.15165">
        <ele>302.33468613007</ele>
        <time>2025-10-12T08:16:42Z</time>
      </trkpt>
      <trkpt lat="47.63236" lon="7.15169">
        <ele>302.39642566532</ele>
        <time>2025-10-12T08:16:44Z</time>
      </trkpt>
      <trkpt lat="47.63236" lon="7.15174">
        <ele>302.39822958411</ele>
        <time>2025-10-12T08:16:46Z</time>
      </trkpt>
      <trkpt lat="47.63236" lon="7.15177">
        <ele>302.40278034061</ele>
        <time>2025-10-12T08:16:47Z</time>
      </trkpt>
      <trkpt lat="47.63235" lon="7.15182">
        <ele>302.41774167822</ele>
        <time>2025-10-12T08:16:49Z</time>
      </trkpt>
      <trkpt lat="47.63234" lon="7.15187">
        <ele>302.47566839121</ele>
        <time>2025-10-12T08:16:51Z</time>
      </trkpt>
      <trkpt lat="47.63233" lon="7.15191">
        <ele>302.54669748744</ele>
        <time>2025-10-12T08:16:53Z</time>
      </trkpt>
      <trkpt lat="47.63231" lon="7.15196">
        <ele>302.68080102791</ele>
        <time>2025-10-12T08:16:55Z</time>
      </trkpt>
      <trkpt lat="47.6323" lon="7.152">
        <ele>302.80704837435</ele>
        <time>2025-10-12T08:16:57Z</time>
      </trkpt>
      <trkpt lat="47.6323" lon="7.15206">
        <ele>302.92640563542</ele>
        <time>2025-10-12T08:16:59Z</time>
      </trkpt>
      <trkpt lat="47.63229" lon="7.1521">
        <ele>303.00818941799</ele>
        <time>2025-10-12T08:17:01Z</time>
      </trkpt>
      <trkpt lat="47.63228" lon="7.15215">
        <ele>303.05672362544</ele>
        <time>2025-10-12T08:17:03Z</time>
      </trkpt>
      <trkpt lat="47.63227" lon="7.15219">
        <ele>303.17546855004</ele>
        <time>2025-10-12T08:17:05Z</time>
      </trkpt>
      <trkpt lat="47.63227" lon="7.15223">
        <ele>303.2095161067</ele>
        <time>2025-10-12T08:17:07Z</time>
      </trkpt>
      <trkpt lat="47.63227" lon="7.15226">
        <ele>303.23119903194</ele>
        <time>2025-10-12T08:17:08Z</time>
      </trkpt>
      <trkpt lat="47.63226" lon="7.1523">
        <ele>303.275513475</ele>
        <time>2025-10-12T08:17:10Z</time>
      </trkpt>
      <trkpt lat="47.63226" lon="7.15234">
        <ele>303.30118397539</ele>
        <time>2025-10-12T08:17:12Z</time>
      </trkpt>
      <trkpt lat="47.63226" lon="7.15239">
        <ele>303.3276842717</ele>
        <time>2025-10-12T08:17:14Z</time>
      </trkpt>
      <trkpt lat="47.63226" lon="7.15242">
        <ele>303.34948522437</ele>
        <time>2025-10-12T08:17:16Z</time>
      </trkpt>
      <trkpt lat="47.63227" lon="7.15247">
        <ele>303.36931108302</ele>
        <time>2025-10-12T08:17:18Z</time>
      </trkpt>
      <trkpt lat="47.63228" lon="7.1525">
        <ele>303.38793066729</ele>
        <time>2025-10-12T08:17:20Z</time>
      </trkpt>
      <trkpt lat="47.63228" lon="7.15255">
        <ele>303.54215067661</ele>
        <time>2025-10-12T08:17:22Z</time>
      </trkpt>
      <trkpt lat="47.63229" lon="7.15258">
        <ele>303.69957601432</ele>
        <time>2025-10-12T08:17:23Z</time>
      </trkpt>
      <trkpt lat="47.6323" lon="7.15263">
        <ele>304.01987925166</ele>
        <time>2025-10-12T08:17:25Z</time>
      </trkpt>
      <trkpt lat="47.63231" lon="7.15267">
        <ele>304.29812775522</ele>
        <time>2025-10-12T08:17:27Z</time>
      </trkpt>
      <trkpt lat="47.63232" lon="7.15269">
        <ele>304.42419105616</ele>
        <time>2025-10-12T08:17:28Z</time>
      </trkpt>
      <trkpt lat="47.63233" lon="7.15271">
        <ele>304.57648575364</ele>
        <time>2025-10-12T08:17:30Z</time>
      </trkpt>
      <trkpt lat="47.63235" lon="7.15275">
        <ele>304.70110776067</ele>
        <time>2025-10-12T08:17:32Z</time>
      </trkpt>
      <trkpt lat="47.63236" lon="7.15277">
        <ele>304.76883781159</ele>
        <time>2025-10-12T08:17:33Z</time>
      </trkpt>
      <trkpt lat="47.63237" lon="7.15279">
        <ele>304.84704941531</ele>
        <time>2025-10-12T08:17:34Z</time>
      </trkpt>
      <trkpt lat="47.63238" lon="7.15282">
        <ele>304.9475972718</ele>
        <time>2025-10-12T08:17:36Z</time>
      </trkpt>
      <trkpt lat="47.6324" lon="7.15286">
        <ele>305.02601241834</ele>
        <time>2025-10-12T08:17:38Z</time>
      </trkpt>
      <trkpt lat="47.63242" lon="7.15288">
        <ele>305.06834411619</ele>
        <time>2025-10-12T08:17:40Z</time>
      </trkpt>
      <trkpt lat="47.63244" lon="7.15292">
        <ele>305.09773563385</ele>
        <time>2025-10-12T08:17:42Z</time>
      </trkpt>
      <trkpt lat="47.63245" lon="7.15295">
        <ele>305.1663892292</ele>
        <time>2025-10-12T08:17:44Z</time>
      </trkpt>
      <trkpt lat="47.63247" lon="7.15297">
        <ele>305.2009109092</ele>
        <time>2025-10-12T08:17:46Z</time>
      </trkpt>
      <trkpt lat="47.63249" lon="7.15301">
        <ele>305.24541292532</ele>
        <time>2025-10-12T08:17:48Z</time>
      </trkpt>
      <trkpt lat="47.6325" lon="7.15305">
        <ele>305.32938425163</ele>
        <time>2025-10-12T08:17:50Z</time>
      </trkpt>
      <trkpt lat="47.63251" lon="7.15309">
        <ele>305.51678829595</ele>
        <time>2025-10-12T08:17:52Z</time>
      </trkpt>
      <trkpt lat="47.63253" lon="7.15313">
        <ele>305.73861137203</ele>
        <time>2025-10-12T08:17:54Z</time>
      </trkpt>
      <trkpt lat="47.63255" lon="7.15316">
        <ele>305.97012525709</ele>
        <time>2025-10-12T08:17:56Z</time>
      </trkpt>
      <trkpt lat="47.63258" lon="7.15321">
        <ele>306.2060674101</ele>
        <time>2025-10-12T08:17:58Z</time>
      </trkpt>
      <trkpt lat="47.63259" lon="7.15323">
        <ele>306.33794339567</ele>
        <time>2025-10-12T08:17:59Z</time>
      </trkpt>
      <trkpt lat="47.6326" lon="7.15326">
        <ele>306.44086182919</ele>
        <time>2025-10-12T08:18:00Z</time>
      </trkpt>
      <trkpt lat="47.63263" lon="7.15329">
        <ele>306.62660180219</ele>
        <time>2025-10-12T08:18:02Z</time>
      </trkpt>
      <trkpt lat="47.63265" lon="7.15331">
        <ele>306.72255435573</ele>
        <time>2025-10-12T08:18:04Z</time>
      </trkpt>
      <trkpt lat="47.63267" lon="7.15335">
        <ele>306.79797646671</ele>
        <time>2025-10-12T08:18:06Z</time>
      </trkpt>
      <trkpt lat="47.6327" lon="7.15337">
        <ele>306.83954215023</ele>
        <time>2025-10-12T08:18:08Z</time>
      </trkpt>
      <trkpt lat="47.63272" lon="7.15339">
        <ele>306.8388509345</ele>
        <time>2025-10-12T08:18:10Z</time>
      </trkpt>
      <trkpt lat="47.63274" lon="7.15341">
        <ele>306.82963747938</ele>
        <time>2025-10-12T08:18:12Z</time>
      </trkpt>
      <trkpt lat="47.63276" lon="7.15342">
        <ele>306.81209630918</ele>
        <time>2025-10-12T08:18:14Z</time>
      </trkpt>
      <trkpt lat="47.63277" lon="7.15346">
        <ele>306.83327282619</ele>
        <time>2025-10-12T08:18:16Z</time>
      </trkpt>
      <trkpt lat="47.63279" lon="7.15348">
        <ele>306.86835192556</ele>
        <time>2025-10-12T08:18:17Z</time>
      </trkpt>
      <trkpt lat="47.63281" lon="7.15352">
        <ele>306.89800377835</ele>
        <time>2025-10-12T08:18:19Z</time>
      </trkpt>
      <trkpt lat="47.63282" lon="7.15356">
        <ele>306.99702893457</ele>
        <time>2025-10-12T08:18:21Z</time>
      </trkpt>
      <trkpt lat="47.63284" lon="7.15359">
        <ele>307.0871842252</ele>
        <time>2025-10-12T08:18:23Z</time>
      </trkpt>
      <trkpt lat="47.63286" lon="7.1536">
        <ele>307.07777236258</ele>
        <time>2025-10-12T08:18:25Z</time>
      </trkpt>
      <trkpt lat="47.63289" lon="7.15364">
        <ele>307.13254122002</ele>
        <time>2025-10-12T08:18:27Z</time>
      </trkpt>
      <trkpt lat="47.6329" lon="7.15366">
        <ele>307.18491206573</ele>
        <time>2025-10-12T08:18:28Z</time>
      </trkpt>
      <trkpt lat="47.63292" lon="7.15369">
        <ele>307.27832178454</ele>
        <time>2025-10-12T08:18:30Z</time>
      </trkpt>
      <trkpt lat="47.63293" lon="7.15372">
        <ele>307.33242469249</ele>
        <time>2025-10-12T08:18:31Z</time>
      </trkpt>
      <trkpt lat="47.63295" lon="7.15375">
        <ele>307.42151505045</ele>
        <time>2025-10-12T08:18:33Z</time>
      </trkpt>
      <trkpt lat="47.63297" lon="7.15378">
        <ele>307.46574976507</ele>
        <time>2025-10-12T08:18:35Z</time>
      </trkpt>
      <trkpt lat="47.633" lon="7.15381">
        <ele>307.50332040811</ele>
        <time>2025-10-12T08:18:37Z</time>
      </trkpt>
      <trkpt lat="47.63301" lon="7.15383">
        <ele>307.47079206181</ele>
        <time>2025-10-12T08:18:39Z</time>
      </trkpt>
      <trkpt lat="47.63302" lon="7.15386">
        <ele>307.52081437356</ele>
        <time>2025-10-12T08:18:41Z</time>
      </trkpt>
      <trkpt lat="47.63303" lon="7.15389">
        <ele>307.5462260957</ele>
        <time>2025-10-12T08:18:43Z</time>
      </trkpt>
      <trkpt lat="47.63305" lon="7.1539">
        <ele>307.56093272757</ele>
        <time>2025-10-12T08:18:45Z</time>
      </trkpt>
      <trkpt lat="47.63306" lon="7.15392">
        <ele>307.48674080463</ele>
        <time>2025-10-12T08:18:47Z</time>
      </trkpt>
      <trkpt lat="47.63308" lon="7.15395">
        <ele>307.47410893179</ele>
        <time>2025-10-12T08:18:49Z</time>
      </trkpt>
      <trkpt lat="47.63311" lon="7.15397">
        <ele>307.50889167068</ele>
        <time>2025-10-12T08:18:51Z</time>
      </trkpt>
      <trkpt lat="47.63313" lon="7.154">
        <ele>307.51558410256</ele>
        <time>2025-10-12T08:18:53Z</time>
      </trkpt>
      <trkpt lat="47.63315" lon="7.15404">
        <ele>307.5536170303</ele>
        <time>2025-10-12T08:18:55Z</time>
      </trkpt>
      <trkpt lat="47.63317" lon="7.15406">
        <ele>307.58651976883</ele>
        <time>2025-10-12T08:18:56Z</time>
      </trkpt>
      <trkpt lat="47.63319" lon="7.15408">
        <ele>307.58102098018</ele>
        <time>2025-10-12T08:18:57Z</time>
      </trkpt>
      <trkpt lat="47.6332" lon="7.1541">
        <ele>307.605739656</ele>
        <time>2025-10-12T08:18:58Z</time>
      </trkpt>
      <trkpt lat="47.63322" lon="7.15411">
        <ele>307.63188706069</ele>
        <time>2025-10-12T08:18:59Z</time>
      </trkpt>
      <trkpt lat="47.63325" lon="7.15412">
        <ele>307.58429428163</ele>
        <time>2025-10-12T08:19:00Z</time>
      </trkpt>
      <trkpt lat="47.63327" lon="7.15414">
        <ele>307.54863595587</ele>
        <time>2025-10-12T08:19:01Z</time>
      </trkpt>
      <trkpt lat="47.63329" lon="7.15415">
        <ele>307.52815117798</ele>
        <time>2025-10-12T08:19:02Z</time>
      </trkpt>
      <trkpt lat="47.63332" lon="7.15418">
        <ele>307.47961519861</ele>
        <time>2025-10-12T08:19:04Z</time>
      </trkpt>
      <trkpt lat="47.63333" lon="7.1542">
        <ele>307.47522419917</ele>
        <time>2025-10-12T08:19:06Z</time>
      </trkpt>
      <trkpt lat="47.63335" lon="7.15422">
        <ele>307.5532079381</ele>
        <time>2025-10-12T08:19:08Z</time>
      </trkpt>
      <trkpt lat="47.63337" lon="7.15424">
        <ele>307.62562559945</ele>
        <time>2025-10-12T08:19:11Z</time>
      </trkpt>
      <trkpt lat="47.63338" lon="7.15425">
        <ele>307.67188663472</ele>
        <time>2025-10-12T08:19:13Z</time>
      </trkpt>
      <trkpt lat="47.63341" lon="7.15427">
        <ele>307.73189239693</ele>
        <time>2025-10-12T08:19:15Z</time>
      </trkpt>
      <trkpt lat="47.63344" lon="7.15427">
        <ele>307.76520796745</ele>
        <time>2025-10-12T08:19:19Z</time>
      </trkpt>
      <trkpt lat="47.63347" lon="7.15427">
        <ele>307.77499663076</ele>
        <time>2025-10-12T08:19:21Z</time>
      </trkpt>
      <trkpt lat="47.63349" lon="7.15427">
        <ele>307.76302328937</ele>
        <time>2025-10-12T08:19:23Z</time>
      </trkpt>
      <trkpt lat="47.63352" lon="7.15428">
        <ele>307.79454418095</ele>
        <time>2025-10-12T08:19:25Z</time>
      </trkpt>
      <trkpt lat="47.63355" lon="7.15426">
        <ele>307.78630378684</ele>
        <time>2025-10-12T08:19:27Z</time>
      </trkpt>
      <trkpt lat="47.63358" lon="7.15428">
        <ele>307.76339179306</ele>
        <time>2025-10-12T08:19:29Z</time>
      </trkpt>
      <trkpt lat="47.6336" lon="7.15427">
        <ele>307.79445708397</ele>
        <time>2025-10-12T08:19:30Z</time>
      </trkpt>
      <trkpt lat="47.63362" lon="7.15427">
        <ele>307.76837048179</ele>
        <time>2025-10-12T08:19:32Z</time>
      </trkpt>
      <trkpt lat="47.63364" lon="7.15425">
        <ele>307.77606921049</ele>
        <time>2025-10-12T08:19:34Z</time>
      </trkpt>
      <trkpt lat="47.63366" lon="7.15425">
        <ele>307.79358249173</ele>
        <time>2025-10-12T08:19:35Z</time>
      </trkpt>
      <trkpt lat="47.63368" lon="7.15424">
        <ele>307.88165000491</ele>
        <time>2025-10-12T08:19:37Z</time>
      </trkpt>
      <trkpt lat="47.63369" lon="7.15423">
        <ele>307.90365189586</ele>
        <time>2025-10-12T08:19:39Z</time>
      </trkpt>
      <trkpt lat="47.63372" lon="7.15421">
        <ele>307.9439308137</ele>
        <time>2025-10-12T08:19:41Z</time>
      </trkpt>
      <trkpt lat="47.63373" lon="7.15418">
        <ele>307.96863261411</ele>
        <time>2025-10-12T08:19:43Z</time>
      </trkpt>
      <trkpt lat="47.63375" lon="7.15416">
        <ele>307.85177024165</ele>
        <time>2025-10-12T08:19:46Z</time>
      </trkpt>
      <trkpt lat="47.63377" lon="7.15415">
        <ele>307.87358730872</ele>
        <time>2025-10-12T08:19:49Z</time>
      </trkpt>
      <trkpt lat="47.6338" lon="7.15413">
        <ele>307.91219860333</ele>
        <time>2025-10-12T08:19:52Z</time>
      </trkpt>
      <trkpt lat="47.63381" lon="7.15411">
        <ele>307.92570207179</ele>
        <time>2025-10-12T08:19:54Z</time>
      </trkpt>
      <trkpt lat="47.63384" lon="7.1541">
        <ele>307.94017426468</ele>
        <time>2025-10-12T08:19:56Z</time>
      </trkpt>
      <trkpt lat="47.63386" lon="7.15409">
        <ele>307.97360481424</ele>
        <time>2025-10-12T08:19:58Z</time>
      </trkpt>
      <trkpt lat="47.63388" lon="7.15407">
        <ele>308.00270407335</ele>
        <time>2025-10-12T08:20:00Z</time>
      </trkpt>
      <trkpt lat="47.63391" lon="7.15407">
        <ele>308.0675205176</ele>
        <time>2025-10-12T08:20:02Z</time>
      </trkpt>
      <trkpt lat="47.63393" lon="7.15406">
        <ele>308.14105472941</ele>
        <time>2025-10-12T08:20:04Z</time>
      </trkpt>
      <trkpt lat="47.63395" lon="7.15404">
        <ele>308.14465876404</ele>
        <time>2025-10-12T08:20:10Z</time>
      </trkpt>
      <trkpt lat="47.63397" lon="7.15401">
        <ele>308.12623651226</ele>
        <time>2025-10-12T08:20:12Z</time>
      </trkpt>
      <trkpt lat="47.63399" lon="7.15399">
        <ele>308.07990971162</ele>
        <time>2025-10-12T08:20:14Z</time>
      </trkpt>
      <trkpt lat="47.63401" lon="7.15397">
        <ele>308.11397813852</ele>
        <time>2025-10-12T08:20:15Z</time>
      </trkpt>
      <trkpt lat="47.63404" lon="7.15395">
        <ele>308.13412550679</ele>
        <time>2025-10-12T08:20:17Z</time>
      </trkpt>
      <trkpt lat="47.63407" lon="7.15393">
        <ele>308.17877491748</ele>
        <time>2025-10-12T08:20:19Z</time>
      </trkpt>
      <trkpt lat="47.6341" lon="7.1539">
        <ele>308.19989768112</ele>
        <time>2025-10-12T08:20:21Z</time>
      </trkpt>
      <trkpt lat="47.63412" lon="7.15387">
        <ele>308.11263576423</ele>
        <time>2025-10-12T08:20:23Z</time>
      </trkpt>
      <trkpt lat="47.63414" lon="7.15384">
        <ele>308.04049208793</ele>
        <time>2025-10-12T08:20:25Z</time>
      </trkpt>
      <trkpt lat="47.63415" lon="7.15383">
        <ele>307.94323103935</ele>
        <time>2025-10-12T08:20:27Z</time>
      </trkpt>
      <trkpt lat="47.63417" lon="7.1538">
        <ele>307.88778546744</ele>
        <time>2025-10-12T08:20:29Z</time>
      </trkpt>
      <trkpt lat="47.63418" lon="7.15378">
        <ele>307.68801317725</ele>
        <time>2025-10-12T08:20:31Z</time>
      </trkpt>
      <trkpt lat="47.6342" lon="7.15378">
        <ele>307.64844770532</ele>
        <time>2025-10-12T08:20:33Z</time>
      </trkpt>
      <trkpt lat="47.63423" lon="7.15378">
        <ele>307.62648863507</ele>
        <time>2025-10-12T08:20:35Z</time>
      </trkpt>
      <trkpt lat="47.63425" lon="7.15377">
        <ele>307.68556775043</ele>
        <time>2025-10-12T08:20:37Z</time>
      </trkpt>
      <trkpt lat="47.63427" lon="7.15376">
        <ele>307.68222216506</ele>
        <time>2025-10-12T08:20:38Z</time>
      </trkpt>
      <trkpt lat="47.6343" lon="7.15374">
        <ele>307.65651967801</ele>
        <time>2025-10-12T08:20:40Z</time>
      </trkpt>
      <trkpt lat="47.63433" lon="7.15372">
        <ele>307.57726546076</ele>
        <time>2025-10-12T08:20:42Z</time>
      </trkpt>
      <trkpt lat="47.63436" lon="7.15371">
        <ele>307.57428389271</ele>
        <time>2025-10-12T08:20:44Z</time>
      </trkpt>
      <trkpt lat="47.63439" lon="7.15371">
        <ele>307.59179374988</ele>
        <time>2025-10-12T08:20:46Z</time>
      </trkpt>
      <trkpt lat="47.63441" lon="7.15369">
        <ele>307.61669083331</ele>
        <time>2025-10-12T08:20:48Z</time>
      </trkpt>
      <trkpt lat="47.63443" lon="7.15368">
        <ele>307.59159118721</ele>
        <time>2025-10-12T08:20:49Z</time>
      </trkpt>
      <trkpt lat="47.63445" lon="7.15367">
        <ele>307.61091654975</ele>
        <time>2025-10-12T08:20:50Z</time>
      </trkpt>
      <trkpt lat="47.63449" lon="7.15366">
        <ele>307.6823660701</ele>
        <time>2025-10-12T08:20:52Z</time>
      </trkpt>
      <trkpt lat="47.63451" lon="7.15366">
        <ele>307.72109572261</ele>
        <time>2025-10-12T08:20:53Z</time>
      </trkpt>
      <trkpt lat="47.63453" lon="7.15366">
        <ele>307.80511395153</ele>
        <time>2025-10-12T08:20:54Z</time>
      </trkpt>
      <trkpt lat="47.63456" lon="7.15366">
        <ele>307.91952807586</ele>
        <time>2025-10-12T08:20:56Z</time>
      </trkpt>
      <trkpt lat="47.63459" lon="7.15364">
        <ele>307.98056418487</ele>
        <time>2025-10-12T08:20:58Z</time>
      </trkpt>
      <trkpt lat="47.6346" lon="7.15363">
        <ele>308.00761109073</ele>
        <time>2025-10-12T08:20:59Z</time>
      </trkpt>
      <trkpt lat="47.63462" lon="7.15361">
        <ele>308.02316978522</ele>
        <time>2025-10-12T08:21:00Z</time>
      </trkpt>
      <trkpt lat="47.63465" lon="7.15359">
        <ele>308.04896876603</ele>
        <time>2025-10-12T08:21:02Z</time>
      </trkpt>
      <trkpt lat="47.63467" lon="7.15356">
        <ele>308.05558783982</ele>
        <time>2025-10-12T08:21:04Z</time>
      </trkpt>
      <trkpt lat="47.63468" lon="7.15354">
        <ele>308.04727593181</ele>
        <time>2025-10-12T08:21:05Z</time>
      </trkpt>
      <trkpt lat="47.6347" lon="7.15353">
        <ele>307.97937928048</ele>
        <time>2025-10-12T08:21:08Z</time>
      </trkpt>
      <trkpt lat="47.63472" lon="7.15352">
        <ele>308.05101651772</ele>
        <time>2025-10-12T08:21:10Z</time>
      </trkpt>
      <trkpt lat="47.63474" lon="7.15348">
        <ele>308.04055155464</ele>
        <time>2025-10-12T08:21:12Z</time>
      </trkpt>
      <trkpt lat="47.63476" lon="7.15346">
        <ele>308.01355489606</ele>
        <time>2025-10-12T08:21:13Z</time>
      </trkpt>
      <trkpt lat="47.63477" lon="7.15344">
        <ele>307.97786878001</ele>
        <time>2025-10-12T08:21:14Z</time>
      </trkpt>
      <trkpt lat="47.6348" lon="7.15342">
        <ele>307.97691236242</ele>
        <time>2025-10-12T08:21:16Z</time>
      </trkpt>
      <trkpt lat="47.63482" lon="7.1534">
        <ele>307.98024700712</ele>
        <time>2025-10-12T08:21:17Z</time>
      </trkpt>
      <trkpt lat="47.63484" lon="7.15339">
        <ele>308.00999636514</ele>
        <time>2025-10-12T08:21:18Z</time>
      </trkpt>
      <trkpt lat="47.63486" lon="7.15337">
        <ele>308.03324193905</ele>
        <time>2025-10-12T08:21:20Z</time>
      </trkpt>
      <trkpt lat="47.63489" lon="7.15336">
        <ele>308.06994752188</ele>
        <time>2025-10-12T08:21:23Z</time>
      </trkpt>
      <trkpt lat="47.63492" lon="7.15335">
        <ele>308.13580006879</ele>
        <time>2025-10-12T08:21:25Z</time>
      </trkpt>
      <trkpt lat="47.63493" lon="7.15332">
        <ele>308.128732459</ele>
        <time>2025-10-12T08:21:27Z</time>
      </trkpt>
      <trkpt lat="47.63496" lon="7.15333">
        <ele>308.11014982001</ele>
        <time>2025-10-12T08:21:29Z</time>
      </trkpt>
      <trkpt lat="47.63499" lon="7.15334">
        <ele>308.19797138764</ele>
        <time>2025-10-12T08:21:30Z</time>
      </trkpt>
      <trkpt lat="47.63501" lon="7.15334">
        <ele>308.42428489729</ele>
        <time>2025-10-12T08:21:32Z</time>
      </trkpt>
      <trkpt lat="47.63503" lon="7.15333">
        <ele>308.39358080826</ele>
        <time>2025-10-12T08:21:34Z</time>
      </trkpt>
      <trkpt lat="47.63506" lon="7.15333">
        <ele>308.39048049345</ele>
        <time>2025-10-12T08:21:36Z</time>
      </trkpt>
      <trkpt lat="47.63508" lon="7.15333">
        <ele>308.4032430694</ele>
        <time>2025-10-12T08:21:38Z</time>
      </trkpt>
      <trkpt lat="47.63511" lon="7.15333">
        <ele>308.36414950375</ele>
        <time>2025-10-12T08:21:40Z</time>
      </trkpt>
      <trkpt lat="47.63514" lon="7.15333">
        <ele>308.39558596067</ele>
        <time>2025-10-12T08:21:42Z</time>
      </trkpt>
      <trkpt lat="47.63517" lon="7.15332">
        <ele>308.34455572075</ele>
        <time>2025-10-12T08:21:44Z</time>
      </trkpt>
      <trkpt lat="47.63519" lon="7.15332">
        <ele>308.30088288173</ele>
        <time>2025-10-12T08:21:46Z</time>
      </trkpt>
      <trkpt lat="47.63521" lon="7.15332">
        <ele>308.31557707375</ele>
        <time>2025-10-12T08:21:48Z</time>
      </trkpt>
      <trkpt lat="47.63524" lon="7.15333">
        <ele>308.34581556841</ele>
        <time>2025-10-12T08:21:50Z</time>
      </trkpt>
      <trkpt lat="47.63527" lon="7.15334">
        <ele>308.40173898607</ele>
        <time>2025-10-12T08:21:52Z</time>
      </trkpt>
      <trkpt lat="47.63529" lon="7.15335">
        <ele>308.42695703372</ele>
        <time>2025-10-12T08:21:54Z</time>
      </trkpt>
      <trkpt lat="47.63533" lon="7.15337">
        <ele>308.43098027133</ele>
        <time>2025-10-12T08:21:56Z</time>
      </trkpt>
      <trkpt lat="47.63535" lon="7.15338">
        <ele>308.36013946122</ele>
        <time>2025-10-12T08:21:58Z</time>
      </trkpt>
      <trkpt lat="47.63538" lon="7.15339">
        <ele>308.284276329</ele>
        <time>2025-10-12T08:22:00Z</time>
      </trkpt>
      <trkpt lat="47.6354" lon="7.1534">
        <ele>308.25380872116</ele>
        <time>2025-10-12T08:22:01Z</time>
      </trkpt>
      <trkpt lat="47.63542" lon="7.15341">
        <ele>308.21692406975</ele>
        <time>2025-10-12T08:22:02Z</time>
      </trkpt>
      <trkpt lat="47.63545" lon="7.15341">
        <ele>308.10460473417</ele>
        <time>2025-10-12T08:22:04Z</time>
      </trkpt>
      <trkpt lat="47.63548" lon="7.15343">
        <ele>308.05665454995</ele>
        <time>2025-10-12T08:22:05Z</time>
      </trkpt>
      <trkpt lat="47.6355" lon="7.15343">
        <ele>308.01379190458</ele>
        <time>2025-10-12T08:22:06Z</time>
      </trkpt>
      <trkpt lat="47.63551" lon="7.15345">
        <ele>307.96984499551</ele>
        <time>2025-10-12T08:22:07Z</time>
      </trkpt>
      <trkpt lat="47.63555" lon="7.15347">
        <ele>307.95852340876</ele>
        <time>2025-10-12T08:22:09Z</time>
      </trkpt>
      <trkpt lat="47.63559" lon="7.15348">
        <ele>307.83497604982</ele>
        <time>2025-10-12T08:22:11Z</time>
      </trkpt>
      <trkpt lat="47.63562" lon="7.15349">
        <ele>307.58795169684</ele>
        <time>2025-10-12T08:22:13Z</time>
      </trkpt>
      <trkpt lat="47.63564" lon="7.1535">
        <ele>307.48756065735</ele>
        <time>2025-10-12T08:22:14Z</time>
      </trkpt>
      <trkpt lat="47.63567" lon="7.15353">
        <ele>307.40591815985</ele>
        <time>2025-10-12T08:22:15Z</time>
      </trkpt>
      <trkpt lat="47.63568" lon="7.15355">
        <ele>307.3100006142</ele>
        <time>2025-10-12T08:22:16Z</time>
      </trkpt>
      <trkpt lat="47.6357" lon="7.15357">
        <ele>307.26300041237</ele>
        <time>2025-10-12T08:22:17Z</time>
      </trkpt>
      <trkpt lat="47.63572" lon="7.15359">
        <ele>307.18704822464</ele>
        <time>2025-10-12T08:22:19Z</time>
      </trkpt>
      <trkpt lat="47.63574" lon="7.15363">
        <ele>307.125325568</ele>
        <time>2025-10-12T08:22:21Z</time>
      </trkpt>
      <trkpt lat="47.63576" lon="7.15365">
        <ele>307.12766915686</ele>
        <time>2025-10-12T08:22:23Z</time>
      </trkpt>
      <trkpt lat="47.63578" lon="7.15367">
        <ele>307.13439699949</ele>
        <time>2025-10-12T08:22:25Z</time>
      </trkpt>
      <trkpt lat="47.6358" lon="7.15369">
        <ele>307.18022233456</ele>
        <time>2025-10-12T08:22:27Z</time>
      </trkpt>
      <trkpt lat="47.63582" lon="7.15371">
        <ele>307.20757786574</ele>
        <time>2025-10-12T08:22:29Z</time>
      </trkpt>
      <trkpt lat="47.63584" lon="7.15373">
        <ele>307.22602830094</ele>
        <time>2025-10-12T08:22:31Z</time>
      </trkpt>
      <trkpt lat="47.63586" lon="7.15375">
        <ele>307.13631442882</ele>
        <time>2025-10-12T08:22:33Z</time>
      </trkpt>
      <trkpt lat="47.63588" lon="7.15379">
        <ele>307.16900524176</ele>
        <time>2025-10-12T08:22:35Z</time>
      </trkpt>
      <trkpt lat="47.63592" lon="7.15381">
        <ele>307.09550402489</ele>
        <time>2025-10-12T08:22:37Z</time>
      </trkpt>
      <trkpt lat="47.63594" lon="7.15382">
        <ele>306.99954941067</ele>
        <time>2025-10-12T08:22:38Z</time>
      </trkpt>
      <trkpt lat="47.63596" lon="7.15384">
        <ele>306.86882968167</ele>
        <time>2025-10-12T08:22:39Z</time>
      </trkpt>
      <trkpt lat="47.63599" lon="7.15386">
        <ele>306.65915479615</ele>
        <time>2025-10-12T08:22:41Z</time>
      </trkpt>
      <trkpt lat="47.636" lon="7.15388">
        <ele>306.60877398486</ele>
        <time>2025-10-12T08:22:42Z</time>
      </trkpt>
      <trkpt lat="47.63602" lon="7.1539">
        <ele>306.54693658733</ele>
        <time>2025-10-12T08:22:43Z</time>
      </trkpt>
      <trkpt lat="47.63605" lon="7.15392">
        <ele>306.40834522799</ele>
        <time>2025-10-12T08:22:45Z</time>
      </trkpt>
      <trkpt lat="47.63606" lon="7.15394">
        <ele>306.30384378488</ele>
        <time>2025-10-12T08:22:46Z</time>
      </trkpt>
      <trkpt lat="47.63608" lon="7.15396">
        <ele>306.25985787397</ele>
        <time>2025-10-12T08:22:47Z</time>
      </trkpt>
      <trkpt lat="47.6361" lon="7.15397">
        <ele>306.1942379694</ele>
        <time>2025-10-12T08:22:48Z</time>
      </trkpt>
      <trkpt lat="47.63613" lon="7.15398">
        <ele>305.99801373742</ele>
        <time>2025-10-12T08:22:50Z</time>
      </trkpt>
      <trkpt lat="47.63615" lon="7.154">
        <ele>305.9195977452</ele>
        <time>2025-10-12T08:22:51Z</time>
      </trkpt>
      <trkpt lat="47.63617" lon="7.15401">
        <ele>305.8767646909</ele>
        <time>2025-10-12T08:22:52Z</time>
      </trkpt>
      <trkpt lat="47.63619" lon="7.15403">
        <ele>305.7903036511</ele>
        <time>2025-10-12T08:22:53Z</time>
      </trkpt>
      <trkpt lat="47.63621" lon="7.15405">
        <ele>305.70664839184</ele>
        <time>2025-10-12T08:22:54Z</time>
      </trkpt>
      <trkpt lat="47.63623" lon="7.15406">
        <ele>305.63467202607</ele>
        <time>2025-10-12T08:22:55Z</time>
      </trkpt>
      <trkpt lat="47.63625" lon="7.15407">
        <ele>305.5011865477</ele>
        <time>2025-10-12T08:22:56Z</time>
      </trkpt>
      <trkpt lat="47.63628" lon="7.15407">
        <ele>305.24511703668</ele>
        <time>2025-10-12T08:22:58Z</time>
      </trkpt>
      <trkpt lat="47.63631" lon="7.15409">
        <ele>305.01324695436</ele>
        <time>2025-10-12T08:23:00Z</time>
      </trkpt>
      <trkpt lat="47.63633" lon="7.1541">
        <ele>304.79444540442</ele>
        <time>2025-10-12T08:23:02Z</time>
      </trkpt>
      <trkpt lat="47.63635" lon="7.15412">
        <ele>304.73335102881</ele>
        <time>2025-10-12T08:23:05Z</time>
      </trkpt>
      <trkpt lat="47.63636" lon="7.15414">
        <ele>304.6496866063</ele>
        <time>2025-10-12T08:23:07Z</time>
      </trkpt>
      <trkpt lat="47.63638" lon="7.15416">
        <ele>304.58113572867</ele>
        <time>2025-10-12T08:23:09Z</time>
      </trkpt>
      <trkpt lat="47.6364" lon="7.15418">
        <ele>304.42148629167</ele>
        <time>2025-10-12T08:23:11Z</time>
      </trkpt>
      <trkpt lat="47.63643" lon="7.15421">
        <ele>304.29592007074</ele>
        <time>2025-10-12T08:23:13Z</time>
      </trkpt>
      <trkpt lat="47.63645" lon="7.15423">
        <ele>304.24070780453</ele>
        <time>2025-10-12T08:23:15Z</time>
      </trkpt>
      <trkpt lat="47.63647" lon="7.15426">
        <ele>304.17146915843</ele>
        <time>2025-10-12T08:23:17Z</time>
      </trkpt>
      <trkpt lat="47.63649" lon="7.15428">
        <ele>304.12263969844</ele>
        <time>2025-10-12T08:23:18Z</time>
      </trkpt>
      <trkpt lat="47.6365" lon="7.15431">
        <ele>304.07899758381</ele>
        <time>2025-10-12T08:23:20Z</time>
      </trkpt>
      <trkpt lat="47.6365" lon="7.15435">
        <ele>304.16171118708</ele>
        <time>2025-10-12T08:23:22Z</time>
      </trkpt>
      <trkpt lat="47.63652" lon="7.15437">
        <ele>304.20362169714</ele>
        <time>2025-10-12T08:23:24Z</time>
      </trkpt>
      <trkpt lat="47.63653" lon="7.15439">
        <ele>304.18287399528</ele>
        <time>2025-10-12T08:23:25Z</time>
      </trkpt>
      <trkpt lat="47.63655" lon="7.15443">
        <ele>304.18043793948</ele>
        <time>2025-10-12T08:23:27Z</time>
      </trkpt>
      <trkpt lat="47.63657" lon="7.15446">
        <ele>304.15284338849</ele>
        <time>2025-10-12T08:23:29Z</time>
      </trkpt>
      <trkpt lat="47.63659" lon="7.15449">
        <ele>304.16382293614</ele>
        <time>2025-10-12T08:23:31Z</time>
      </trkpt>
      <trkpt lat="47.63661" lon="7.1545">
        <ele>304.26417549125</ele>
        <time>2025-10-12T08:23:32Z</time>
      </trkpt>
      <trkpt lat="47.63664" lon="7.15454">
        <ele>304.22370761948</ele>
        <time>2025-10-12T08:23:34Z</time>
      </trkpt>
      <trkpt lat="47.63665" lon="7.15456">
        <ele>304.30111086312</ele>
        <time>2025-10-12T08:23:36Z</time>
      </trkpt>
      <trkpt lat="47.63667" lon="7.15459">
        <ele>304.35856061577</ele>
        <time>2025-10-12T08:23:38Z</time>
      </trkpt>
      <trkpt lat="47.6367" lon="7.15461">
        <ele>304.36369169289</ele>
        <time>2025-10-12T08:23:40Z</time>
      </trkpt>
      <trkpt lat="47.63673" lon="7.15464">
        <ele>304.33282747632</ele>
        <time>2025-10-12T08:23:42Z</time>
      </trkpt>
      <trkpt lat="47.63676" lon="7.15467">
        <ele>304.21879385856</ele>
        <time>2025-10-12T08:23:44Z</time>
      </trkpt>
      <trkpt lat="47.63678" lon="7.15469">
        <ele>304.07819581975</ele>
        <time>2025-10-12T08:23:46Z</time>
      </trkpt>
      <trkpt lat="47.6368" lon="7.15469">
        <ele>303.91683988819</ele>
        <time>2025-10-12T08:23:48Z</time>
      </trkpt>
      <trkpt lat="47.63683" lon="7.1547">
        <ele>303.69168751052</ele>
        <time>2025-10-12T08:23:50Z</time>
      </trkpt>
      <trkpt lat="47.63686" lon="7.15474">
        <ele>303.47419184611</ele>
        <time>2025-10-12T08:23:52Z</time>
      </trkpt>
      <trkpt lat="47.63689" lon="7.15476">
        <ele>303.35841123478</ele>
        <time>2025-10-12T08:23:53Z</time>
      </trkpt>
      <trkpt lat="47.6369" lon="7.15478">
        <ele>303.18791593732</ele>
        <time>2025-10-12T08:23:54Z</time>
      </trkpt>
      <trkpt lat="47.63693" lon="7.15481">
        <ele>303.1030258314</ele>
        <time>2025-10-12T08:23:55Z</time>
      </trkpt>
      <trkpt lat="47.63695" lon="7.15483">
        <ele>302.88598884718</ele>
        <time>2025-10-12T08:23:56Z</time>
      </trkpt>
      <trkpt lat="47.637" lon="7.15486">
        <ele>302.74233690657</ele>
        <time>2025-10-12T08:23:57Z</time>
      </trkpt>
      <trkpt lat="47.63703" lon="7.15488">
        <ele>302.53969351427</ele>
        <time>2025-10-12T08:23:58Z</time>
      </trkpt>
      <trkpt lat="47.63706" lon="7.1549">
        <ele>302.38594528832</ele>
        <time>2025-10-12T08:23:59Z</time>
      </trkpt>
      <trkpt lat="47.63708" lon="7.15491">
        <ele>302.18077126471</ele>
        <time>2025-10-12T08:24:01Z</time>
      </trkpt>
      <trkpt lat="47.6371" lon="7.15494">
        <ele>302.0861020318</ele>
        <time>2025-10-12T08:24:03Z</time>
      </trkpt>
      <trkpt lat="47.63712" lon="7.15497">
        <ele>302.02757874035</ele>
        <time>2025-10-12T08:24:05Z</time>
      </trkpt>
      <trkpt lat="47.63714" lon="7.155">
        <ele>302.00572397619</ele>
        <time>2025-10-12T08:24:07Z</time>
      </trkpt>
      <trkpt lat="47.63715" lon="7.15503">
        <ele>302.00910619759</ele>
        <time>2025-10-12T08:24:09Z</time>
      </trkpt>
      <trkpt lat="47.63715" lon="7.15507">
        <ele>302.11363373318</ele>
        <time>2025-10-12T08:24:11Z</time>
      </trkpt>
      <trkpt lat="47.63717" lon="7.15512">
        <ele>302.17720494848</ele>
        <time>2025-10-12T08:24:13Z</time>
      </trkpt>
      <trkpt lat="47.63717" lon="7.15515">
        <ele>302.23181313096</ele>
        <time>2025-10-12T08:24:14Z</time>
      </trkpt>
      <trkpt lat="47.63718" lon="7.15518">
        <ele>302.28031288963</ele>
        <time>2025-10-12T08:24:15Z</time>
      </trkpt>
      <trkpt lat="47.63719" lon="7.15522">
        <ele>302.35621579522</ele>
        <time>2025-10-12T08:24:17Z</time>
      </trkpt>
      <trkpt lat="47.63721" lon="7.15527">
        <ele>302.43671908697</ele>
        <time>2025-10-12T08:24:19Z</time>
      </trkpt>
      <trkpt lat="47.63721" lon="7.1553">
        <ele>302.49793244508</ele>
        <time>2025-10-12T08:24:21Z</time>
      </trkpt>
      <trkpt lat="47.63722" lon="7.15535">
        <ele>302.44044063579</ele>
        <time>2025-10-12T08:24:23Z</time>
      </trkpt>
      <trkpt lat="47.63723" lon="7.15538">
        <ele>302.39343200188</ele>
        <time>2025-10-12T08:24:25Z</time>
      </trkpt>
      <trkpt lat="47.63724" lon="7.15541">
        <ele>302.35064776931</ele>
        <time>2025-10-12T08:24:28Z</time>
      </trkpt>
      <trkpt lat="47.63724" lon="7.15544">
        <ele>302.29815327487</ele>
        <time>2025-10-12T08:24:30Z</time>
      </trkpt>
      <trkpt lat="47.63725" lon="7.15548">
        <ele>302.28914416965</ele>
        <time>2025-10-12T08:24:31Z</time>
      </trkpt>
      <trkpt lat="47.63726" lon="7.15552">
        <ele>302.2521976627</ele>
        <time>2025-10-12T08:24:33Z</time>
      </trkpt>
      <trkpt lat="47.63727" lon="7.15556">
        <ele>302.25771686951</ele>
        <time>2025-10-12T08:24:35Z</time>
      </trkpt>
      <trkpt lat="47.63727" lon="7.15561">
        <ele>302.24613204693</ele>
        <time>2025-10-12T08:24:37Z</time>
      </trkpt>
      <trkpt lat="47.63727" lon="7.15566">
        <ele>302.22877864988</ele>
        <time>2025-10-12T08:24:39Z</time>
      </trkpt>
      <trkpt lat="47.63728" lon="7.1557">
        <ele>302.20692634393</ele>
        <time>2025-10-12T08:24:41Z</time>
      </trkpt>
      <trkpt lat="47.63728" lon="7.15573">
        <ele>302.1892175865</ele>
        <time>2025-10-12T08:24:43Z</time>
      </trkpt>
      <trkpt lat="47.63729" lon="7.15577">
        <ele>302.16323185446</ele>
        <time>2025-10-12T08:24:46Z</time>
      </trkpt>
      <trkpt lat="47.6373" lon="7.15579">
        <ele>302.13547497754</ele>
        <time>2025-10-12T08:24:48Z</time>
      </trkpt>
      <trkpt lat="47.63731" lon="7.15583">
        <ele>302.10352107821</ele>
        <time>2025-10-12T08:24:50Z</time>
      </trkpt>
      <trkpt lat="47.63732" lon="7.15588">
        <ele>302.06695489615</ele>
        <time>2025-10-12T08:24:52Z</time>
      </trkpt>
      <trkpt lat="47.63733" lon="7.1559">
        <ele>302.04846756908</ele>
        <time>2025-10-12T08:24:53Z</time>
      </trkpt>
      <trkpt lat="47.63734" lon="7.15595">
        <ele>301.98583337717</ele>
        <time>2025-10-12T08:24:55Z</time>
      </trkpt>
      <trkpt lat="47.63736" lon="7.15599">
        <ele>301.95200085849</ele>
        <time>2025-10-12T08:24:57Z</time>
      </trkpt>
      <trkpt lat="47.63737" lon="7.15601">
        <ele>301.89009515049</ele>
        <time>2025-10-12T08:24:59Z</time>
      </trkpt>
      <trkpt lat="47.63738" lon="7.15605">
        <ele>301.83338463632</ele>
        <time>2025-10-12T08:25:02Z</time>
      </trkpt>
      <trkpt lat="47.63739" lon="7.15607">
        <ele>301.81967314843</ele>
        <time>2025-10-12T08:25:04Z</time>
      </trkpt>
      <trkpt lat="47.63741" lon="7.15609">
        <ele>301.76161531731</ele>
        <time>2025-10-12T08:25:08Z</time>
      </trkpt>
      <trkpt lat="47.63743" lon="7.15611">
        <ele>301.73742518835</ele>
        <time>2025-10-12T08:25:09Z</time>
      </trkpt>
      <trkpt lat="47.63745" lon="7.15613">
        <ele>301.65204820971</ele>
        <time>2025-10-12T08:25:11Z</time>
      </trkpt>
      <trkpt lat="47.63746" lon="7.15616">
        <ele>301.58297483543</ele>
        <time>2025-10-12T08:25:13Z</time>
      </trkpt>
      <trkpt lat="47.63748" lon="7.15617">
        <ele>301.53045060559</ele>
        <time>2025-10-12T08:25:15Z</time>
      </trkpt>
      <trkpt lat="47.6375" lon="7.15618">
        <ele>301.47681176893</ele>
        <time>2025-10-12T08:25:16Z</time>
      </trkpt>
      <trkpt lat="47.63753" lon="7.1562">
        <ele>301.45812615755</ele>
        <time>2025-10-12T08:25:18Z</time>
      </trkpt>
      <trkpt lat="47.63755" lon="7.15621">
        <ele>301.53827407926</ele>
        <time>2025-10-12T08:25:20Z</time>
      </trkpt>
      <trkpt lat="47.63757" lon="7.15622">
        <ele>301.62125293854</ele>
        <time>2025-10-12T08:25:23Z</time>
      </trkpt>
      <trkpt lat="47.6376" lon="7.15623">
        <ele>301.7044777958</ele>
        <time>2025-10-12T08:25:25Z</time>
      </trkpt>
      <trkpt lat="47.63762" lon="7.15623">
        <ele>301.79039366254</ele>
        <time>2025-10-12T08:25:27Z</time>
      </trkpt>
      <trkpt lat="47.63764" lon="7.15624">
        <ele>301.82533720256</ele>
        <time>2025-10-12T08:25:28Z</time>
      </trkpt>
      <trkpt lat="47.63766" lon="7.15622">
        <ele>301.94664406569</ele>
        <time>2025-10-12T08:25:30Z</time>
      </trkpt>
      <trkpt lat="47.63769" lon="7.15623">
        <ele>302.01906502006</ele>
        <time>2025-10-12T08:25:32Z</time>
      </trkpt>
      <trkpt lat="47.63771" lon="7.15625">
        <ele>302.12695262072</ele>
        <time>2025-10-12T08:25:34Z</time>
      </trkpt>
      <trkpt lat="47.63774" lon="7.15625">
        <ele>302.20828113052</ele>
        <time>2025-10-12T08:25:36Z</time>
      </trkpt>
      <trkpt lat="47.63778" lon="7.15627">
        <ele>302.31914995761</ele>
        <time>2025-10-12T08:25:38Z</time>
      </trkpt>
      <trkpt lat="47.6378" lon="7.15629">
        <ele>302.45784867273</ele>
        <time>2025-10-12T08:25:40Z</time>
      </trkpt>
      <trkpt lat="47.63783" lon="7.15629">
        <ele>302.64814007883</ele>
        <time>2025-10-12T08:25:42Z</time>
      </trkpt>
      <trkpt lat="47.63785" lon="7.15631">
        <ele>302.77386819184</ele>
        <time>2025-10-12T08:25:43Z</time>
      </trkpt>
      <trkpt lat="47.63787" lon="7.15632">
        <ele>302.92860408908</ele>
        <time>2025-10-12T08:25:44Z</time>
      </trkpt>
      <trkpt lat="47.63789" lon="7.15633">
        <ele>303.05635795224</ele>
        <time>2025-10-12T08:25:45Z</time>
      </trkpt>
      <trkpt lat="47.63792" lon="7.15633">
        <ele>303.31804545971</ele>
        <time>2025-10-12T08:25:47Z</time>
      </trkpt>
      <trkpt lat="47.63795" lon="7.15634">
        <ele>303.55772257648</ele>
        <time>2025-10-12T08:25:49Z</time>
      </trkpt>
      <trkpt lat="47.63797" lon="7.15635">
        <ele>303.65490822872</ele>
        <time>2025-10-12T08:25:50Z</time>
      </trkpt>
      <trkpt lat="47.63799" lon="7.15635">
        <ele>303.79473238476</ele>
        <time>2025-10-12T08:25:51Z</time>
      </trkpt>
      <trkpt lat="47.63802" lon="7.15638">
        <ele>304.02979565911</ele>
        <time>2025-10-12T08:25:53Z</time>
      </trkpt>
      <trkpt lat="47.63804" lon="7.1564">
        <ele>304.20565337194</ele>
        <time>2025-10-12T08:25:55Z</time>
      </trkpt>
      <trkpt lat="47.63807" lon="7.15641">
        <ele>304.37726607504</ele>
        <time>2025-10-12T08:25:57Z</time>
      </trkpt>
      <trkpt lat="47.6381" lon="7.15643">
        <ele>304.49194637443</ele>
        <time>2025-10-12T08:25:59Z</time>
      </trkpt>
      <trkpt lat="47.63812" lon="7.15643">
        <ele>304.55486442199</ele>
        <time>2025-10-12T08:26:00Z</time>
      </trkpt>
      <trkpt lat="47.63814" lon="7.15644">
        <ele>304.63064475214</ele>
        <time>2025-10-12T08:26:01Z</time>
      </trkpt>
      <trkpt lat="47.63817" lon="7.15646">
        <ele>304.75482317878</ele>
        <time>2025-10-12T08:26:03Z</time>
      </trkpt>
      <trkpt lat="47.63819" lon="7.15649">
        <ele>304.82840169401</ele>
        <time>2025-10-12T08:26:05Z</time>
      </trkpt>
      <trkpt lat="47.63821" lon="7.15652">
        <ele>304.91073293814</ele>
        <time>2025-10-12T08:26:07Z</time>
      </trkpt>
      <trkpt lat="47.63823" lon="7.15654">
        <ele>304.96129691137</ele>
        <time>2025-10-12T08:26:08Z</time>
      </trkpt>
      <trkpt lat="47.63825" lon="7.15655">
        <ele>305.0342488165</ele>
        <time>2025-10-12T08:26:09Z</time>
      </trkpt>
      <trkpt lat="47.63827" lon="7.15657">
        <ele>305.09653057928</ele>
        <time>2025-10-12T08:26:10Z</time>
      </trkpt>
      <trkpt lat="47.63829" lon="7.15659">
        <ele>305.1605468415</ele>
        <time>2025-10-12T08:26:11Z</time>
      </trkpt>
      <trkpt lat="47.63831" lon="7.1566">
        <ele>305.23267417573</ele>
        <time>2025-10-12T08:26:12Z</time>
      </trkpt>
      <trkpt lat="47.63833" lon="7.15661">
        <ele>305.31398969235</ele>
        <time>2025-10-12T08:26:13Z</time>
      </trkpt>
      <trkpt lat="47.63836" lon="7.15665">
        <ele>305.42161634498</ele>
        <time>2025-10-12T08:26:15Z</time>
      </trkpt>
      <trkpt lat="47.63838" lon="7.15667">
        <ele>305.63021611004</ele>
        <time>2025-10-12T08:26:17Z</time>
      </trkpt>
      <trkpt lat="47.6384" lon="7.15668">
        <ele>305.74466490629</ele>
        <time>2025-10-12T08:26:18Z</time>
      </trkpt>
      <trkpt lat="47.63843" lon="7.15668">
        <ele>305.9938228774</ele>
        <time>2025-10-12T08:26:20Z</time>
      </trkpt>
      <trkpt lat="47.63846" lon="7.1567">
        <ele>306.22188299959</ele>
        <time>2025-10-12T08:26:22Z</time>
      </trkpt>
      <trkpt lat="47.63849" lon="7.15671">
        <ele>306.32559978372</ele>
        <time>2025-10-12T08:26:23Z</time>
      </trkpt>
      <trkpt lat="47.6385" lon="7.15672">
        <ele>306.47481118382</ele>
        <time>2025-10-12T08:26:24Z</time>
      </trkpt>
      <trkpt lat="47.63852" lon="7.15673">
        <ele>306.59105373496</ele>
        <time>2025-10-12T08:26:25Z</time>
      </trkpt>
      <trkpt lat="47.63855" lon="7.15674">
        <ele>306.82866738092</ele>
        <time>2025-10-12T08:26:27Z</time>
      </trkpt>
      <trkpt lat="47.63857" lon="7.15675">
        <ele>307.02304882743</ele>
        <time>2025-10-12T08:26:29Z</time>
      </trkpt>
      <trkpt lat="47.6386" lon="7.15676">
        <ele>307.22601772735</ele>
        <time>2025-10-12T08:26:31Z</time>
      </trkpt>
      <trkpt lat="47.63863" lon="7.15676">
        <ele>307.42386772885</ele>
        <time>2025-10-12T08:26:33Z</time>
      </trkpt>
      <trkpt lat="47.63866" lon="7.15678">
        <ele>307.7654803231</ele>
        <time>2025-10-12T08:26:35Z</time>
      </trkpt>
      <trkpt lat="47.63868" lon="7.1568">
        <ele>308.03754513068</ele>
        <time>2025-10-12T08:26:37Z</time>
      </trkpt>
      <trkpt lat="47.6387" lon="7.15682">
        <ele>308.22605008052</ele>
        <time>2025-10-12T08:26:39Z</time>
      </trkpt>
      <trkpt lat="47.63872" lon="7.15685">
        <ele>308.40008539857</ele>
        <time>2025-10-12T08:26:41Z</time>
      </trkpt>
      <trkpt lat="47.63873" lon="7.15686">
        <ele>308.53518638104</ele>
        <time>2025-10-12T08:26:42Z</time>
      </trkpt>
      <trkpt lat="47.63876" lon="7.15688">
        <ele>308.76639575572</ele>
        <time>2025-10-12T08:26:44Z</time>
      </trkpt>
      <trkpt lat="47.63877" lon="7.1569">
        <ele>309.03109981724</ele>
        <time>2025-10-12T08:26:46Z</time>
      </trkpt>
      <trkpt lat="47.63879" lon="7.15693">
        <ele>309.19898672602</ele>
        <time>2025-10-12T08:26:48Z</time>
      </trkpt>
      <trkpt lat="47.63881" lon="7.15695">
        <ele>309.35072785096</ele>
        <time>2025-10-12T08:26:50Z</time>
      </trkpt>
      <trkpt lat="47.63883" lon="7.15699">
        <ele>309.54865059669</ele>
        <time>2025-10-12T08:26:52Z</time>
      </trkpt>
      <trkpt lat="47.63885" lon="7.157">
        <ele>309.61683977586</ele>
        <time>2025-10-12T08:26:53Z</time>
      </trkpt>
      <trkpt lat="47.63886" lon="7.15703">
        <ele>309.81294288049</ele>
        <time>2025-10-12T08:26:55Z</time>
      </trkpt>
      <trkpt lat="47.63888" lon="7.15706">
        <ele>309.86274113077</ele>
        <time>2025-10-12T08:26:57Z</time>
      </trkpt>
      <trkpt lat="47.6389" lon="7.15707">
        <ele>309.89656731071</ele>
        <time>2025-10-12T08:26:58Z</time>
      </trkpt>
      <trkpt lat="47.63892" lon="7.15708">
        <ele>310.04752378124</ele>
        <time>2025-10-12T08:26:59Z</time>
      </trkpt>
      <trkpt lat="47.63893" lon="7.15712">
        <ele>310.27959835335</ele>
        <time>2025-10-12T08:27:01Z</time>
      </trkpt>
      <trkpt lat="47.63896" lon="7.15715">
        <ele>310.44129226802</ele>
        <time>2025-10-12T08:27:03Z</time>
      </trkpt>
      <trkpt lat="47.63897" lon="7.15718">
        <ele>310.61859432679</ele>
        <time>2025-10-12T08:27:05Z</time>
      </trkpt>
      <trkpt lat="47.63899" lon="7.1572">
        <ele>310.776397926</ele>
        <time>2025-10-12T08:27:07Z</time>
      </trkpt>
      <trkpt lat="47.63901" lon="7.15722">
        <ele>310.93996662361</ele>
        <time>2025-10-12T08:27:09Z</time>
      </trkpt>
      <trkpt lat="47.63902" lon="7.15724">
        <ele>311.10457062171</ele>
        <time>2025-10-12T08:27:10Z</time>
      </trkpt>
      <trkpt lat="47.63905" lon="7.15726">
        <ele>311.59094183201</ele>
        <time>2025-10-12T08:27:12Z</time>
      </trkpt>
      <trkpt lat="47.63907" lon="7.15729">
        <ele>311.91162677214</ele>
        <time>2025-10-12T08:27:14Z</time>
      </trkpt>
      <trkpt lat="47.63908" lon="7.15732">
        <ele>312.20599054293</ele>
        <time>2025-10-12T08:27:16Z</time>
      </trkpt>
      <trkpt lat="47.6391" lon="7.15734">
        <ele>312.30629508396</ele>
        <time>2025-10-12T08:27:17Z</time>
      </trkpt>
      <trkpt lat="47.63912" lon="7.15737">
        <ele>312.65425454782</ele>
        <time>2025-10-12T08:27:19Z</time>
      </trkpt>
      <trkpt lat="47.63913" lon="7.1574">
        <ele>312.88236884705</ele>
        <time>2025-10-12T08:27:21Z</time>
      </trkpt>
      <trkpt lat="47.63914" lon="7.15745">
        <ele>313.07157137676</ele>
        <time>2025-10-12T08:27:23Z</time>
      </trkpt>
      <trkpt lat="47.63915" lon="7.1575">
        <ele>313.14381435421</ele>
        <time>2025-10-12T08:27:25Z</time>
      </trkpt>
      <trkpt lat="47.63917" lon="7.15753">
        <ele>313.40330601006</ele>
        <time>2025-10-12T08:27:27Z</time>
      </trkpt>
      <trkpt lat="47.63918" lon="7.15758">
        <ele>313.66310460093</ele>
        <time>2025-10-12T08:27:29Z</time>
      </trkpt>
      <trkpt lat="47.6392" lon="7.15762">
        <ele>314.01201636858</ele>
        <time>2025-10-12T08:27:31Z</time>
      </trkpt>
      <trkpt lat="47.63921" lon="7.15766">
        <ele>314.30544841839</ele>
        <time>2025-10-12T08:27:33Z</time>
      </trkpt>
      <trkpt lat="47.63921" lon="7.1577">
        <ele>314.55308671838</ele>
        <time>2025-10-12T08:27:35Z</time>
      </trkpt>
      <trkpt lat="47.63922" lon="7.15775">
        <ele>314.76899724444</ele>
        <time>2025-10-12T08:27:37Z</time>
      </trkpt>
      <trkpt lat="47.63923" lon="7.15778">
        <ele>314.94373233847</ele>
        <time>2025-10-12T08:27:39Z</time>
      </trkpt>
      <trkpt lat="47.63923" lon="7.15781">
        <ele>315.04472468453</ele>
        <time>2025-10-12T08:27:41Z</time>
      </trkpt>
      <trkpt lat="47.63923" lon="7.15785">
        <ele>315.09433812362</ele>
        <time>2025-10-12T08:27:43Z</time>
      </trkpt>
      <trkpt lat="47.63924" lon="7.1579">
        <ele>315.10333767597</ele>
        <time>2025-10-12T08:27:45Z</time>
      </trkpt>
      <trkpt lat="47.63924" lon="7.15794">
        <ele>315.21330468566</ele>
        <time>2025-10-12T08:27:47Z</time>
      </trkpt>
      <trkpt lat="47.63925" lon="7.15798">
        <ele>315.22339307538</ele>
        <time>2025-10-12T08:27:48Z</time>
      </trkpt>
      <trkpt lat="47.63925" lon="7.158">
        <ele>315.28364568876</ele>
        <time>2025-10-12T08:27:49Z</time>
      </trkpt>
      <trkpt lat="47.63925" lon="7.15804">
        <ele>315.29408847868</ele>
        <time>2025-10-12T08:27:51Z</time>
      </trkpt>
      <trkpt lat="47.63926" lon="7.15809">
        <ele>315.3425986683</ele>
        <time>2025-10-12T08:27:53Z</time>
      </trkpt>
      <trkpt lat="47.63926" lon="7.15814">
        <ele>315.42265225164</ele>
        <time>2025-10-12T08:27:55Z</time>
      </trkpt>
      <trkpt lat="47.63926" lon="7.15817">
        <ele>315.42593183588</ele>
        <time>2025-10-12T08:27:56Z</time>
      </trkpt>
      <trkpt lat="47.63927" lon="7.15821">
        <ele>315.47890472593</ele>
        <time>2025-10-12T08:27:59Z</time>
      </trkpt>
      <trkpt lat="47.63927" lon="7.15826">
        <ele>315.4645685959</ele>
        <time>2025-10-12T08:28:01Z</time>
      </trkpt>
      <trkpt lat="47.63927" lon="7.15829">
        <ele>315.50246264915</ele>
        <time>2025-10-12T08:28:03Z</time>
      </trkpt>
      <trkpt lat="47.63928" lon="7.15833">
        <ele>315.62642404818</ele>
        <time>2025-10-12T08:28:05Z</time>
      </trkpt>
      <trkpt lat="47.63929" lon="7.15838">
        <ele>315.67337502692</ele>
        <time>2025-10-12T08:28:07Z</time>
      </trkpt>
      <trkpt lat="47.63929" lon="7.1584">
        <ele>315.75543526575</ele>
        <time>2025-10-12T08:28:08Z</time>
      </trkpt>
      <trkpt lat="47.63929" lon="7.15844">
        <ele>315.80843804257</ele>
        <time>2025-10-12T08:28:09Z</time>
      </trkpt>
      <trkpt lat="47.6393" lon="7.15848">
        <ele>315.97291367272</ele>
        <time>2025-10-12T08:28:11Z</time>
      </trkpt>
      <trkpt lat="47.63931" lon="7.15853">
        <ele>316.15779115608</ele>
        <time>2025-10-12T08:28:13Z</time>
      </trkpt>
      <trkpt lat="47.63931" lon="7.15857">
        <ele>316.2695873604</ele>
        <time>2025-10-12T08:28:16Z</time>
      </trkpt>
      <trkpt lat="47.63932" lon="7.1586">
        <ele>316.43808028065</ele>
        <time>2025-10-12T08:28:18Z</time>
      </trkpt>
      <trkpt lat="47.63932" lon="7.15865">
        <ele>316.59816608876</ele>
        <time>2025-10-12T08:28:20Z</time>
      </trkpt>
      <trkpt lat="47.63933" lon="7.15868">
        <ele>316.67306223492</ele>
        <time>2025-10-12T08:28:22Z</time>
      </trkpt>
      <trkpt lat="47.63933" lon="7.15872">
        <ele>316.71560044199</ele>
        <time>2025-10-12T08:28:24Z</time>
      </trkpt>
      <trkpt lat="47.63934" lon="7.15876">
        <ele>316.77382764291</ele>
        <time>2025-10-12T08:28:26Z</time>
      </trkpt>
      <trkpt lat="47.63934" lon="7.1588">
        <ele>316.82962994666</ele>
        <time>2025-10-12T08:28:28Z</time>
      </trkpt>
      <trkpt lat="47.63933" lon="7.15885">
        <ele>316.83747465182</ele>
        <time>2025-10-12T08:28:30Z</time>
      </trkpt>
      <trkpt lat="47.63933" lon="7.15889">
        <ele>316.67417815991</ele>
        <time>2025-10-12T08:28:32Z</time>
      </trkpt>
      <trkpt lat="47.63933" lon="7.15894">
        <ele>316.87132082976</ele>
        <time>2025-10-12T08:28:34Z</time>
      </trkpt>
      <trkpt lat="47.63933" lon="7.15899">
        <ele>316.8748138629</ele>
        <time>2025-10-12T08:28:36Z</time>
      </trkpt>
      <trkpt lat="47.63933" lon="7.15904">
        <ele>316.9000129778</ele>
        <time>2025-10-12T08:28:38Z</time>
      </trkpt>
      <trkpt lat="47.63933" lon="7.15907">
        <ele>316.97672706612</ele>
        <time>2025-10-12T08:28:40Z</time>
      </trkpt>
      <trkpt lat="47.63934" lon="7.1591">
        <ele>317.03331024704</ele>
        <time>2025-10-12T08:28:42Z</time>
      </trkpt>
      <trkpt lat="47.63934" lon="7.15913">
        <ele>317.10959285027</ele>
        <time>2025-10-12T08:28:43Z</time>
      </trkpt>
      <trkpt lat="47.63934" lon="7.15917">
        <ele>317.25135521348</ele>
        <time>2025-10-12T08:28:45Z</time>
      </trkpt>
      <trkpt lat="47.63934" lon="7.15922">
        <ele>317.33632935566</ele>
        <time>2025-10-12T08:28:47Z</time>
      </trkpt>
      <trkpt lat="47.63934" lon="7.15926">
        <ele>317.27131605998</ele>
        <time>2025-10-12T08:28:49Z</time>
      </trkpt>
      <trkpt lat="47.63934" lon="7.15931">
        <ele>317.23070590505</ele>
        <time>2025-10-12T08:28:51Z</time>
      </trkpt>
      <trkpt lat="47.63934" lon="7.15937">
        <ele>317.26393994022</ele>
        <time>2025-10-12T08:28:53Z</time>
      </trkpt>
      <trkpt lat="47.63934" lon="7.15941">
        <ele>317.30373791777</ele>
        <time>2025-10-12T08:28:55Z</time>
      </trkpt>
      <trkpt lat="47.63935" lon="7.15945">
        <ele>317.33759201327</ele>
        <time>2025-10-12T08:28:57Z</time>
      </trkpt>
      <trkpt lat="47.63935" lon="7.15949">
        <ele>317.37000788577</ele>
        <time>2025-10-12T08:28:59Z</time>
      </trkpt>
      <trkpt lat="47.63935" lon="7.15953">
        <ele>317.39660035504</ele>
        <time>2025-10-12T08:29:01Z</time>
      </trkpt>
      <trkpt lat="47.63936" lon="7.15958">
        <ele>317.44983411421</ele>
        <time>2025-10-12T08:29:03Z</time>
      </trkpt>
      <trkpt lat="47.63936" lon="7.15963">
        <ele>317.47706872231</ele>
        <time>2025-10-12T08:29:05Z</time>
      </trkpt>
      <trkpt lat="47.63937" lon="7.15967">
        <ele>317.5296909219</ele>
        <time>2025-10-12T08:29:07Z</time>
      </trkpt>
      <trkpt lat="47.63937" lon="7.15972">
        <ele>317.59252885044</ele>
        <time>2025-10-12T08:29:09Z</time>
      </trkpt>
      <trkpt lat="47.63938" lon="7.15975">
        <ele>317.62394671744</ele>
        <time>2025-10-12T08:29:10Z</time>
      </trkpt>
      <trkpt lat="47.63938" lon="7.15979">
        <ele>317.83685153535</ele>
        <time>2025-10-12T08:29:12Z</time>
      </trkpt>
      <trkpt lat="47.63939" lon="7.15983">
        <ele>318.0817317432</ele>
        <time>2025-10-12T08:29:14Z</time>
      </trkpt>
      <trkpt lat="47.63939" lon="7.15988">
        <ele>318.31876611657</ele>
        <time>2025-10-12T08:29:16Z</time>
      </trkpt>
      <trkpt lat="47.6394" lon="7.15991">
        <ele>318.4575124979</ele>
        <time>2025-10-12T08:29:18Z</time>
      </trkpt>
      <trkpt lat="47.6394" lon="7.15995">
        <ele>318.68240032792</ele>
        <time>2025-10-12T08:29:20Z</time>
      </trkpt>
      <trkpt lat="47.6394" lon="7.15999">
        <ele>318.80032150847</ele>
        <time>2025-10-12T08:29:22Z</time>
      </trkpt>
      <trkpt lat="47.6394" lon="7.16004">
        <ele>318.92572587896</ele>
        <time>2025-10-12T08:29:24Z</time>
      </trkpt>
      <trkpt lat="47.63941" lon="7.1601">
        <ele>318.96224878253</ele>
        <time>2025-10-12T08:29:26Z</time>
      </trkpt>
      <trkpt lat="47.63941" lon="7.16014">
        <ele>318.96113085727</ele>
        <time>2025-10-12T08:29:28Z</time>
      </trkpt>
      <trkpt lat="47.63941" lon="7.16017">
        <ele>318.99998233316</ele>
        <time>2025-10-12T08:29:29Z</time>
      </trkpt>
      <trkpt lat="47.63941" lon="7.16021">
        <ele>319.0276898334</ele>
        <time>2025-10-12T08:29:31Z</time>
      </trkpt>
      <trkpt lat="47.63941" lon="7.16025">
        <ele>319.0262860002</ele>
        <time>2025-10-12T08:29:33Z</time>
      </trkpt>
      <trkpt lat="47.63942" lon="7.16028">
        <ele>319.06691862935</ele>
        <time>2025-10-12T08:29:35Z</time>
      </trkpt>
      <trkpt lat="47.63942" lon="7.16032">
        <ele>319.13957928914</ele>
        <time>2025-10-12T08:29:37Z</time>
      </trkpt>
      <trkpt lat="47.63942" lon="7.16036">
        <ele>319.35887889378</ele>
        <time>2025-10-12T08:29:39Z</time>
      </trkpt>
      <trkpt lat="47.63943" lon="7.16041">
        <ele>319.53735301776</ele>
        <time>2025-10-12T08:29:41Z</time>
      </trkpt>
      <trkpt lat="47.63943" lon="7.16044">
        <ele>319.71366931417</ele>
        <time>2025-10-12T08:29:43Z</time>
      </trkpt>
      <trkpt lat="47.63943" lon="7.16048">
        <ele>319.84024275638</ele>
        <time>2025-10-12T08:29:46Z</time>
      </trkpt>
      <trkpt lat="47.63943" lon="7.16052">
        <ele>319.98197958363</ele>
        <time>2025-10-12T08:29:48Z</time>
      </trkpt>
      <trkpt lat="47.63945" lon="7.16056">
        <ele>320.25467960571</ele>
        <time>2025-10-12T08:29:50Z</time>
      </trkpt>
      <trkpt lat="47.63945" lon="7.16058">
        <ele>320.41657780859</ele>
        <time>2025-10-12T08:29:51Z</time>
      </trkpt>
      <trkpt lat="47.63946" lon="7.16062">
        <ele>320.48560212605</ele>
        <time>2025-10-12T08:29:53Z</time>
      </trkpt>
      <trkpt lat="47.63946" lon="7.16066">
        <ele>320.47755823836</ele>
        <time>2025-10-12T08:29:55Z</time>
      </trkpt>
      <trkpt lat="47.63946" lon="7.16071">
        <ele>320.48922493083</ele>
        <time>2025-10-12T08:29:57Z</time>
      </trkpt>
      <trkpt lat="47.63946" lon="7.16076">
        <ele>320.49455735704</ele>
        <time>2025-10-12T08:29:59Z</time>
      </trkpt>
      <trkpt lat="47.63945" lon="7.16081">
        <ele>320.4504813478</ele>
        <time>2025-10-12T08:30:01Z</time>
      </trkpt>
      <trkpt lat="47.63946" lon="7.16085">
        <ele>320.4698818963</ele>
        <time>2025-10-12T08:30:03Z</time>
      </trkpt>
      <trkpt lat="47.63946" lon="7.16089">
        <ele>320.48358143609</ele>
        <time>2025-10-12T08:30:04Z</time>
      </trkpt>
      <trkpt lat="47.63946" lon="7.16092">
        <ele>320.4839076889</ele>
        <time>2025-10-12T08:30:05Z</time>
      </trkpt>
      <trkpt lat="47.63946" lon="7.16096">
        <ele>320.5020874976</ele>
        <time>2025-10-12T08:30:07Z</time>
      </trkpt>
      <trkpt lat="47.63946" lon="7.16101">
        <ele>320.48940155887</ele>
        <time>2025-10-12T08:30:09Z</time>
      </trkpt>
      <trkpt lat="47.63946" lon="7.16105">
        <ele>320.48035380105</ele>
        <time>2025-10-12T08:30:11Z</time>
      </trkpt>
      <trkpt lat="47.63945" lon="7.1611">
        <ele>320.46926326244</ele>
        <time>2025-10-12T08:30:13Z</time>
      </trkpt>
      <trkpt lat="47.63945" lon="7.16113">
        <ele>320.44277967639</ele>
        <time>2025-10-12T08:30:15Z</time>
      </trkpt>
      <trkpt lat="47.63945" lon="7.16118">
        <ele>320.45172687666</ele>
        <time>2025-10-12T08:30:17Z</time>
      </trkpt>
      <trkpt lat="47.63946" lon="7.16122">
        <ele>320.46386194798</ele>
        <time>2025-10-12T08:30:20Z</time>
      </trkpt>
      <trkpt lat="47.63946" lon="7.16127">
        <ele>320.49107374674</ele>
        <time>2025-10-12T08:30:22Z</time>
      </trkpt>
      <trkpt lat="47.63946" lon="7.16131">
        <ele>320.49482303758</ele>
        <time>2025-10-12T08:30:24Z</time>
      </trkpt>
      <trkpt lat="47.63947" lon="7.16133">
        <ele>320.54768828927</ele>
        <time>2025-10-12T08:30:26Z</time>
      </trkpt>
      <trkpt lat="47.63947" lon="7.16136">
        <ele>320.62855446621</ele>
        <time>2025-10-12T08:30:28Z</time>
      </trkpt>
      <trkpt lat="47.63948" lon="7.1614">
        <ele>320.62651217583</ele>
        <time>2025-10-12T08:30:30Z</time>
      </trkpt>
      <trkpt lat="47.63948" lon="7.16143">
        <ele>320.63366033202</ele>
        <time>2025-10-12T08:30:32Z</time>
      </trkpt>
      <trkpt lat="47.63948" lon="7.16148">
        <ele>320.65392468468</ele>
        <time>2025-10-12T08:30:34Z</time>
      </trkpt>
      <trkpt lat="47.63948" lon="7.16153">
        <ele>320.63788129549</ele>
        <time>2025-10-12T08:30:36Z</time>
      </trkpt>
      <trkpt lat="47.63949" lon="7.16157">
        <ele>320.68202322976</ele>
        <time>2025-10-12T08:30:38Z</time>
      </trkpt>
      <trkpt lat="47.63949" lon="7.1616">
        <ele>320.70464055243</ele>
        <time>2025-10-12T08:30:40Z</time>
      </trkpt>
      <trkpt lat="47.63949" lon="7.16163">
        <ele>320.72439217731</ele>
        <time>2025-10-12T08:30:42Z</time>
      </trkpt>
      <trkpt lat="47.63949" lon="7.16166">
        <ele>320.71497118489</ele>
        <time>2025-10-12T08:30:43Z</time>
      </trkpt>
      <trkpt lat="47.63949" lon="7.16171">
        <ele>320.72303155542</ele>
        <time>2025-10-12T08:30:45Z</time>
      </trkpt>
      <trkpt lat="47.63948" lon="7.16175">
        <ele>320.68816464936</ele>
        <time>2025-10-12T08:30:47Z</time>
      </trkpt>
      <trkpt lat="47.63947" lon="7.16177">
        <ele>320.64762772897</ele>
        <time>2025-10-12T08:30:48Z</time>
      </trkpt>
      <trkpt lat="47.63947" lon="7.1618">
        <ele>320.56128756422</ele>
        <time>2025-10-12T08:30:50Z</time>
      </trkpt>
      <trkpt lat="47.63946" lon="7.16184">
        <ele>320.55030575437</ele>
        <time>2025-10-12T08:30:52Z</time>
      </trkpt>
      <trkpt lat="47.63946" lon="7.16187">
        <ele>320.51822297484</ele>
        <time>2025-10-12T08:30:54Z</time>
      </trkpt>
      <trkpt lat="47.63947" lon="7.1619">
        <ele>320.54613426375</ele>
        <time>2025-10-12T08:30:56Z</time>
      </trkpt>
      <trkpt lat="47.63948" lon="7.16193">
        <ele>320.60415477068</ele>
        <time>2025-10-12T08:30:58Z</time>
      </trkpt>
      <trkpt lat="47.63949" lon="7.16197">
        <ele>320.68427324479</ele>
        <time>2025-10-12T08:31:00Z</time>
      </trkpt>
      <trkpt lat="47.6395" lon="7.16201">
        <ele>320.74315639975</ele>
        <time>2025-10-12T08:31:02Z</time>
      </trkpt>
      <trkpt lat="47.6395" lon="7.16205">
        <ele>320.77141979184</ele>
        <time>2025-10-12T08:31:04Z</time>
      </trkpt>
      <trkpt lat="47.6395" lon="7.16208">
        <ele>320.79092028424</ele>
        <time>2025-10-12T08:31:05Z</time>
      </trkpt>
      <trkpt lat="47.6395" lon="7.16213">
        <ele>320.81394046023</ele>
        <time>2025-10-12T08:31:08Z</time>
      </trkpt>
      <trkpt lat="47.6395" lon="7.16215">
        <ele>320.78877466614</ele>
        <time>2025-10-12T08:31:10Z</time>
      </trkpt>
      <trkpt lat="47.6395" lon="7.16218">
        <ele>320.83449804482</ele>
        <time>2025-10-12T08:31:12Z</time>
      </trkpt>
      <trkpt lat="47.6395" lon="7.1622">
        <ele>320.82477632731</ele>
        <time>2025-10-12T08:31:13Z</time>
      </trkpt>
      <trkpt lat="47.63949" lon="7.16223">
        <ele>320.76468289053</ele>
        <time>2025-10-12T08:31:15Z</time>
      </trkpt>
      <trkpt lat="47.63949" lon="7.16226">
        <ele>320.69951615309</ele>
        <time>2025-10-12T08:31:35Z</time>
      </trkpt>
      <trkpt lat="47.63949" lon="7.16229">
        <ele>320.75318029895</ele>
        <time>2025-10-12T08:31:48Z</time>
      </trkpt>
      <trkpt lat="47.63949" lon="7.16231">
        <ele>320.74092128612</ele>
        <time>2025-10-12T08:31:49Z</time>
      </trkpt>
      <trkpt lat="47.63949" lon="7.16234">
        <ele>320.73936579499</ele>
        <time>2025-10-12T08:31:50Z</time>
      </trkpt>
      <trkpt lat="47.63948" lon="7.1624">
        <ele>320.70663396099</ele>
        <time>2025-10-12T08:31:52Z</time>
      </trkpt>
      <trkpt lat="47.63948" lon="7.16243">
        <ele>320.63905108845</ele>
        <time>2025-10-12T08:31:54Z</time>
      </trkpt>
      <trkpt lat="47.63947" lon="7.16247">
        <ele>320.60824800142</ele>
        <time>2025-10-12T08:31:56Z</time>
      </trkpt>
      <trkpt lat="47.63948" lon="7.16251">
        <ele>320.62105489975</ele>
        <time>2025-10-12T08:31:58Z</time>
      </trkpt>
      <trkpt lat="47.63948" lon="7.16255">
        <ele>320.65513896239</ele>
        <time>2025-10-12T08:32:00Z</time>
      </trkpt>
      <trkpt lat="47.63949" lon="7.16258">
        <ele>320.69072669022</ele>
        <time>2025-10-12T08:32:02Z</time>
      </trkpt>
      <trkpt lat="47.63951" lon="7.16263">
        <ele>320.78753154211</ele>
        <time>2025-10-12T08:32:04Z</time>
      </trkpt>
      <trkpt lat="47.6395" lon="7.16265">
        <ele>320.82840182059</ele>
        <time>2025-10-12T08:32:05Z</time>
      </trkpt>
      <trkpt lat="47.6395" lon="7.1627">
        <ele>320.81404226558</ele>
        <time>2025-10-12T08:32:07Z</time>
      </trkpt>
      <trkpt lat="47.6395" lon="7.16274">
        <ele>320.79001988585</ele>
        <time>2025-10-12T08:32:09Z</time>
      </trkpt>
      <trkpt lat="47.6395" lon="7.16277">
        <ele>320.80014113348</ele>
        <time>2025-10-12T08:32:10Z</time>
      </trkpt>
      <trkpt lat="47.6395" lon="7.16282">
        <ele>320.80918659963</ele>
        <time>2025-10-12T08:32:12Z</time>
      </trkpt>
      <trkpt lat="47.63949" lon="7.16285">
        <ele>320.78901154021</ele>
        <time>2025-10-12T08:32:13Z</time>
      </trkpt>
      <trkpt lat="47.63949" lon="7.16289">
        <ele>320.7409930283</ele>
        <time>2025-10-12T08:32:15Z</time>
      </trkpt>
      <trkpt lat="47.6395" lon="7.16292">
        <ele>320.75799479538</ele>
        <time>2025-10-12T08:32:16Z</time>
      </trkpt>
      <trkpt lat="47.63951" lon="7.16297">
        <ele>320.82417071486</ele>
        <time>2025-10-12T08:32:18Z</time>
      </trkpt>
      <trkpt lat="47.63951" lon="7.16301">
        <ele>320.84895845062</ele>
        <time>2025-10-12T08:32:20Z</time>
      </trkpt>
      <trkpt lat="47.63951" lon="7.16304">
        <ele>320.87447981418</ele>
        <time>2025-10-12T08:32:21Z</time>
      </trkpt>
      <trkpt lat="47.63952" lon="7.16308">
        <ele>320.90892504259</ele>
        <time>2025-10-12T08:32:23Z</time>
      </trkpt>
      <trkpt lat="47.63952" lon="7.16313">
        <ele>320.89904396997</ele>
        <time>2025-10-12T08:32:25Z</time>
      </trkpt>
      <trkpt lat="47.63952" lon="7.16316">
        <ele>320.93967422418</ele>
        <time>2025-10-12T08:32:27Z</time>
      </trkpt>
      <trkpt lat="47.63952" lon="7.16321">
        <ele>320.95431606139</ele>
        <time>2025-10-12T08:32:29Z</time>
      </trkpt>
      <trkpt lat="47.63951" lon="7.16325">
        <ele>320.90237904471</ele>
        <time>2025-10-12T08:32:31Z</time>
      </trkpt>
      <trkpt lat="47.63951" lon="7.16328">
        <ele>320.84303612718</ele>
        <time>2025-10-12T08:32:33Z</time>
      </trkpt>
      <trkpt lat="47.63951" lon="7.16332">
        <ele>320.87197120142</ele>
        <time>2025-10-12T08:32:35Z</time>
      </trkpt>
      <trkpt lat="47.63952" lon="7.16335">
        <ele>320.93532482218</ele>
        <time>2025-10-12T08:32:37Z</time>
      </trkpt>
      <trkpt lat="47.63952" lon="7.16338">
        <ele>320.95070983512</ele>
        <time>2025-10-12T08:32:38Z</time>
      </trkpt>
      <trkpt lat="47.63951" lon="7.1634">
        <ele>320.92557902489</ele>
        <time>2025-10-12T08:32:39Z</time>
      </trkpt>
      <trkpt lat="47.63951" lon="7.16345">
        <ele>320.8420266719</ele>
        <time>2025-10-12T08:32:41Z</time>
      </trkpt>
      <trkpt lat="47.63951" lon="7.16349">
        <ele>320.88082432708</ele>
        <time>2025-10-12T08:32:43Z</time>
      </trkpt>
      <trkpt lat="47.63951" lon="7.16352">
        <ele>320.87802345749</ele>
        <time>2025-10-12T08:32:44Z</time>
      </trkpt>
      <trkpt lat="47.63952" lon="7.16355">
        <ele>320.89960287404</ele>
        <time>2025-10-12T08:32:46Z</time>
      </trkpt>
      <trkpt lat="47.63953" lon="7.16359">
        <ele>320.95852960571</ele>
        <time>2025-10-12T08:32:48Z</time>
      </trkpt>
      <trkpt lat="47.63953" lon="7.16364">
        <ele>320.98506034031</ele>
        <time>2025-10-12T08:32:50Z</time>
      </trkpt>
      <trkpt lat="47.63954" lon="7.16367">
        <ele>320.94802042307</ele>
        <time>2025-10-12T08:32:51Z</time>
      </trkpt>
      <trkpt lat="47.63954" lon="7.16371">
        <ele>320.88054118598</ele>
        <time>2025-10-12T08:32:53Z</time>
      </trkpt>
      <trkpt lat="47.63954" lon="7.16375">
        <ele>320.79811163287</ele>
        <time>2025-10-12T08:32:55Z</time>
      </trkpt>
      <trkpt lat="47.63953" lon="7.16379">
        <ele>320.65929356292</ele>
        <time>2025-10-12T08:32:57Z</time>
      </trkpt>
      <trkpt lat="47.63954" lon="7.16384">
        <ele>320.55065959365</ele>
        <time>2025-10-12T08:32:59Z</time>
      </trkpt>
      <trkpt lat="47.63954" lon="7.16389">
        <ele>320.52541706499</ele>
        <time>2025-10-12T08:33:01Z</time>
      </trkpt>
      <trkpt lat="47.63954" lon="7.16393">
        <ele>320.44238815045</ele>
        <time>2025-10-12T08:33:03Z</time>
      </trkpt>
      <trkpt lat="47.63954" lon="7.16397">
        <ele>320.42840722654</ele>
        <time>2025-10-12T08:33:05Z</time>
      </trkpt>
      <trkpt lat="47.63954" lon="7.16402">
        <ele>320.43940206085</ele>
        <time>2025-10-12T08:33:07Z</time>
      </trkpt>
      <trkpt lat="47.63954" lon="7.16406">
        <ele>320.44415647941</ele>
        <time>2025-10-12T08:33:09Z</time>
      </trkpt>
      <trkpt lat="47.63954" lon="7.16409">
        <ele>320.47507627721</ele>
        <time>2025-10-12T08:33:10Z</time>
      </trkpt>
      <trkpt lat="47.63955" lon="7.16413">
        <ele>320.43727323134</ele>
        <time>2025-10-12T08:33:12Z</time>
      </trkpt>
      <trkpt lat="47.63955" lon="7.16416">
        <ele>320.4983106819</ele>
        <time>2025-10-12T08:33:13Z</time>
      </trkpt>
      <trkpt lat="47.63955" lon="7.16421">
        <ele>320.53212257978</ele>
        <time>2025-10-12T08:33:15Z</time>
      </trkpt>
      <trkpt lat="47.63955" lon="7.16425">
        <ele>320.51649207083</ele>
        <time>2025-10-12T08:33:17Z</time>
      </trkpt>
      <trkpt lat="47.63954" lon="7.16429">
        <ele>320.47674378576</ele>
        <time>2025-10-12T08:33:19Z</time>
      </trkpt>
      <trkpt lat="47.63955" lon="7.16433">
        <ele>320.52713884441</ele>
        <time>2025-10-12T08:33:21Z</time>
      </trkpt>
      <trkpt lat="47.63956" lon="7.16437">
        <ele>320.60534909383</ele>
        <time>2025-10-12T08:33:23Z</time>
      </trkpt>
      <trkpt lat="47.63956" lon="7.16439">
        <ele>320.63618760408</ele>
        <time>2025-10-12T08:33:24Z</time>
      </trkpt>
      <trkpt lat="47.63956" lon="7.16442">
        <ele>320.67135153324</ele>
        <time>2025-10-12T08:33:25Z</time>
      </trkpt>
      <trkpt lat="47.63957" lon="7.16445">
        <ele>320.64204627088</ele>
        <time>2025-10-12T08:33:26Z</time>
      </trkpt>
      <trkpt lat="47.63957" lon="7.16449">
        <ele>320.75236913977</ele>
        <time>2025-10-12T08:33:28Z</time>
      </trkpt>
      <trkpt lat="47.63957" lon="7.16451">
        <ele>320.76360933524</ele>
        <time>2025-10-12T08:33:29Z</time>
      </trkpt>
      <trkpt lat="47.63957" lon="7.16454">
        <ele>320.78799690459</ele>
        <time>2025-10-12T08:33:30Z</time>
      </trkpt>
      <trkpt lat="47.63957" lon="7.16458">
        <ele>320.78891623156</ele>
        <time>2025-10-12T08:33:32Z</time>
      </trkpt>
      <trkpt lat="47.63958" lon="7.16464">
        <ele>320.83924280764</ele>
        <time>2025-10-12T08:33:34Z</time>
      </trkpt>
      <trkpt lat="47.63959" lon="7.16467">
        <ele>320.88493403113</ele>
        <time>2025-10-12T08:33:35Z</time>
      </trkpt>
      <trkpt lat="47.6396" lon="7.16471">
        <ele>320.93224918925</ele>
        <time>2025-10-12T08:33:37Z</time>
      </trkpt>
      <trkpt lat="47.6396" lon="7.16473">
        <ele>320.94740849742</ele>
        <time>2025-10-12T08:33:38Z</time>
      </trkpt>
      <trkpt lat="47.6396" lon="7.16478">
        <ele>320.96559945881</ele>
        <time>2025-10-12T08:33:40Z</time>
      </trkpt>
      <trkpt lat="47.6396" lon="7.16482">
        <ele>320.95991466921</ele>
        <time>2025-10-12T08:33:42Z</time>
      </trkpt>
      <trkpt lat="47.63958" lon="7.16485">
        <ele>320.92632205471</ele>
        <time>2025-10-12T08:33:44Z</time>
      </trkpt>
      <trkpt lat="47.63958" lon="7.1649">
        <ele>320.89270579409</ele>
        <time>2025-10-12T08:33:46Z</time>
      </trkpt>
      <trkpt lat="47.63958" lon="7.16493">
        <ele>320.88762079116</ele>
        <time>2025-10-12T08:33:48Z</time>
      </trkpt>
      <trkpt lat="47.63959" lon="7.16497">
        <ele>320.8956751047</ele>
        <time>2025-10-12T08:33:50Z</time>
      </trkpt>
      <trkpt lat="47.63959" lon="7.16501">
        <ele>320.91447252451</ele>
        <time>2025-10-12T08:33:51Z</time>
      </trkpt>
      <trkpt lat="47.63959" lon="7.16505">
        <ele>320.91691926901</ele>
        <time>2025-10-12T08:33:53Z</time>
      </trkpt>
      <trkpt lat="47.63959" lon="7.1651">
        <ele>320.93083594837</ele>
        <time>2025-10-12T08:33:55Z</time>
      </trkpt>
      <trkpt lat="47.6396" lon="7.16513">
        <ele>320.94623237834</ele>
        <time>2025-10-12T08:33:57Z</time>
      </trkpt>
      <trkpt lat="47.63961" lon="7.16518">
        <ele>320.95521385729</ele>
        <time>2025-10-12T08:33:59Z</time>
      </trkpt>
      <trkpt lat="47.63962" lon="7.16521">
        <ele>320.98763526207</ele>
        <time>2025-10-12T08:34:00Z</time>
      </trkpt>
      <trkpt lat="47.63962" lon="7.16523">
        <ele>321.0132620461</ele>
        <time>2025-10-12T08:34:01Z</time>
      </trkpt>
      <trkpt lat="47.63964" lon="7.16527">
        <ele>321.0622043444</ele>
        <time>2025-10-12T08:34:03Z</time>
      </trkpt>
      <trkpt lat="47.63966" lon="7.16531">
        <ele>321.1292132376</ele>
        <time>2025-10-12T08:34:05Z</time>
      </trkpt>
      <trkpt lat="47.63967" lon="7.16535">
        <ele>321.17796773815</ele>
        <time>2025-10-12T08:34:07Z</time>
      </trkpt>
      <trkpt lat="47.63968" lon="7.16538">
        <ele>321.19868323317</ele>
        <time>2025-10-12T08:34:08Z</time>
      </trkpt>
      <trkpt lat="47.63969" lon="7.1654">
        <ele>321.22901711177</ele>
        <time>2025-10-12T08:34:09Z</time>
      </trkpt>
      <trkpt lat="47.6397" lon="7.16544">
        <ele>321.30682741019</ele>
        <time>2025-10-12T08:34:11Z</time>
      </trkpt>
      <trkpt lat="47.63972" lon="7.16548">
        <ele>321.36397086962</ele>
        <time>2025-10-12T08:34:13Z</time>
      </trkpt>
      <trkpt lat="47.63974" lon="7.16551">
        <ele>321.39936896437</ele>
        <time>2025-10-12T08:34:15Z</time>
      </trkpt>
      <trkpt lat="47.63975" lon="7.16556">
        <ele>321.40001408302</ele>
        <time>2025-10-12T08:34:17Z</time>
      </trkpt>
      <trkpt lat="47.63977" lon="7.16559">
        <ele>321.4000205342</ele>
        <time>2025-10-12T08:34:19Z</time>
      </trkpt>
      <trkpt lat="47.63979" lon="7.16562">
        <ele>321.40002059871</ele>
        <time>2025-10-12T08:34:21Z</time>
      </trkpt>
      <trkpt lat="47.63981" lon="7.16566">
        <ele>321.40002059936</ele>
        <time>2025-10-12T08:34:23Z</time>
      </trkpt>
      <trkpt lat="47.63983" lon="7.16568">
        <ele>321.40002059937</ele>
        <time>2025-10-12T08:34:25Z</time>
      </trkpt>
      <trkpt lat="47.63985" lon="7.1657">
        <ele>321.40002059937</ele>
        <time>2025-10-12T08:34:27Z</time>
      </trkpt>
      <trkpt lat="47.63987" lon="7.16573">
        <ele>321.40002059937</ele>
        <time>2025-10-12T08:34:29Z</time>
      </trkpt>
      <trkpt lat="47.63988" lon="7.16575">
        <ele>321.40002059937</ele>
        <time>2025-10-12T08:34:30Z</time>
      </trkpt>
      <trkpt lat="47.6399" lon="7.16576">
        <ele>321.40002059937</ele>
        <time>2025-10-12T08:34:32Z</time>
      </trkpt>
      <trkpt lat="47.63992" lon="7.16578">
        <ele>321.40002059937</ele>
        <time>2025-10-12T08:34:33Z</time>
      </trkpt>
      <trkpt lat="47.63994" lon="7.1658">
        <ele>321.40002059937</ele>
        <time>2025-10-12T08:34:35Z</time>
      </trkpt>
      <trkpt lat="47.63996" lon="7.16582">
        <ele>321.40002059937</ele>
        <time>2025-10-12T08:34:36Z</time>
      </trkpt>
      <trkpt lat="47.63997" lon="7.16586">
        <ele>321.37164840698</ele>
        <time>2025-10-12T08:34:38Z</time>
      </trkpt>
      <trkpt lat="47.64" lon="7.16589">
        <ele>321.25368737793</ele>
        <time>2025-10-12T08:34:40Z</time>
      </trkpt>
      <trkpt lat="47.64002" lon="7.16592">
        <ele>321.1189195108</ele>
        <time>2025-10-12T08:34:42Z</time>
      </trkpt>
      <trkpt lat="47.64003" lon="7.16594">
        <ele>321.00485726785</ele>
        <time>2025-10-12T08:34:43Z</time>
      </trkpt>
      <trkpt lat="47.64005" lon="7.16596">
        <ele>320.72320580687</ele>
        <time>2025-10-12T08:34:45Z</time>
      </trkpt>
      <trkpt lat="47.64007" lon="7.16599">
        <ele>320.59213526269</ele>
        <time>2025-10-12T08:34:46Z</time>
      </trkpt>
      <trkpt lat="47.64008" lon="7.16601">
        <ele>320.27715903115</ele>
        <time>2025-10-12T08:34:48Z</time>
      </trkpt>
      <trkpt lat="47.6401" lon="7.16605">
        <ele>320.05472765263</ele>
        <time>2025-10-12T08:34:50Z</time>
      </trkpt>
      <trkpt lat="47.64012" lon="7.16607">
        <ele>319.78927091697</ele>
        <time>2025-10-12T08:34:52Z</time>
      </trkpt>
      <trkpt lat="47.64013" lon="7.16609">
        <ele>319.59376783887</ele>
        <time>2025-10-12T08:34:54Z</time>
      </trkpt>
      <trkpt lat="47.64015" lon="7.1661">
        <ele>319.45385748582</ele>
        <time>2025-10-12T08:34:56Z</time>
      </trkpt>
      <trkpt lat="47.64017" lon="7.16612">
        <ele>319.35514183684</ele>
        <time>2025-10-12T08:34:57Z</time>
      </trkpt>
      <trkpt lat="47.64019" lon="7.16613">
        <ele>319.09308346945</ele>
        <time>2025-10-12T08:34:59Z</time>
      </trkpt>
      <trkpt lat="47.64022" lon="7.16615">
        <ele>318.89557915775</ele>
        <time>2025-10-12T08:35:01Z</time>
      </trkpt>
      <trkpt lat="47.64024" lon="7.16617">
        <ele>318.69644621669</ele>
        <time>2025-10-12T08:35:03Z</time>
      </trkpt>
      <trkpt lat="47.64026" lon="7.1662">
        <ele>318.58063378132</ele>
        <time>2025-10-12T08:35:05Z</time>
      </trkpt>
      <trkpt lat="47.64028" lon="7.16622">
        <ele>318.49402491072</ele>
        <time>2025-10-12T08:35:06Z</time>
      </trkpt>
      <trkpt lat="47.6403" lon="7.16625">
        <ele>318.34645197549</ele>
        <time>2025-10-12T08:35:08Z</time>
      </trkpt>
      <trkpt lat="47.64032" lon="7.16627">
        <ele>318.21289586283</ele>
        <time>2025-10-12T08:35:10Z</time>
      </trkpt>
      <trkpt lat="47.64034" lon="7.1663">
        <ele>318.03494409077</ele>
        <time>2025-10-12T08:35:12Z</time>
      </trkpt>
      <trkpt lat="47.64035" lon="7.16635">
        <ele>317.92607259307</ele>
        <time>2025-10-12T08:35:14Z</time>
      </trkpt>
      <trkpt lat="47.64037" lon="7.16638">
        <ele>317.81403295036</ele>
        <time>2025-10-12T08:35:16Z</time>
      </trkpt>
      <trkpt lat="47.64039" lon="7.16642">
        <ele>317.64382472434</ele>
        <time>2025-10-12T08:35:18Z</time>
      </trkpt>
      <trkpt lat="47.6404" lon="7.16644">
        <ele>317.50624915639</ele>
        <time>2025-10-12T08:35:19Z</time>
      </trkpt>
      <trkpt lat="47.6404" lon="7.16647">
        <ele>317.34170424608</ele>
        <time>2025-10-12T08:35:20Z</time>
      </trkpt>
      <trkpt lat="47.64042" lon="7.16653">
        <ele>317.08227038261</ele>
        <time>2025-10-12T08:35:22Z</time>
      </trkpt>
      <trkpt lat="47.64044" lon="7.16657">
        <ele>316.73832533597</ele>
        <time>2025-10-12T08:35:24Z</time>
      </trkpt>
      <trkpt lat="47.64045" lon="7.16661">
        <ele>316.50054750659</ele>
        <time>2025-10-12T08:35:26Z</time>
      </trkpt>
      <trkpt lat="47.64047" lon="7.16664">
        <ele>316.27864366629</ele>
        <time>2025-10-12T08:35:28Z</time>
      </trkpt>
      <trkpt lat="47.64049" lon="7.16668">
        <ele>315.94890570699</ele>
        <time>2025-10-12T08:35:30Z</time>
      </trkpt>
      <trkpt lat="47.64051" lon="7.16671">
        <ele>315.77145580054</ele>
        <time>2025-10-12T08:35:32Z</time>
      </trkpt>
      <trkpt lat="47.64053" lon="7.16675">
        <ele>315.64361593282</ele>
        <time>2025-10-12T08:35:34Z</time>
      </trkpt>
      <trkpt lat="47.64053" lon="7.16678">
        <ele>315.58972437099</ele>
        <time>2025-10-12T08:35:35Z</time>
      </trkpt>
      <trkpt lat="47.64055" lon="7.1668">
        <ele>315.52921131344</ele>
        <time>2025-10-12T08:35:36Z</time>
      </trkpt>
      <trkpt lat="47.64056" lon="7.16681">
        <ele>315.45298483679</ele>
        <time>2025-10-12T08:35:37Z</time>
      </trkpt>
      <trkpt lat="47.64057" lon="7.16684">
        <ele>315.29391419438</ele>
        <time>2025-10-12T08:35:39Z</time>
      </trkpt>
      <trkpt lat="47.64059" lon="7.16686">
        <ele>315.19390521403</ele>
        <time>2025-10-12T08:35:41Z</time>
      </trkpt>
      <trkpt lat="47.64061" lon="7.1669">
        <ele>315.04668533663</ele>
        <time>2025-10-12T08:35:43Z</time>
      </trkpt>
      <trkpt lat="47.64063" lon="7.16692">
        <ele>314.91187841523</ele>
        <time>2025-10-12T08:35:46Z</time>
      </trkpt>
      <trkpt lat="47.64064" lon="7.16695">
        <ele>314.82758272</ele>
        <time>2025-10-12T08:35:48Z</time>
      </trkpt>
      <trkpt lat="47.64066" lon="7.16696">
        <ele>314.76283601553</ele>
        <time>2025-10-12T08:35:49Z</time>
      </trkpt>
      <trkpt lat="47.64068" lon="7.167">
        <ele>314.46487281359</ele>
        <time>2025-10-12T08:35:51Z</time>
      </trkpt>
      <trkpt lat="47.6407" lon="7.16705">
        <ele>314.21550554729</ele>
        <time>2025-10-12T08:35:53Z</time>
      </trkpt>
      <trkpt lat="47.64072" lon="7.16708">
        <ele>313.88630594201</ele>
        <time>2025-10-12T08:35:55Z</time>
      </trkpt>
      <trkpt lat="47.64073" lon="7.16711">
        <ele>313.70145938053</ele>
        <time>2025-10-12T08:35:57Z</time>
      </trkpt>
      <trkpt lat="47.64075" lon="7.16713">
        <ele>313.48821198913</ele>
        <time>2025-10-12T08:35:59Z</time>
      </trkpt>
      <trkpt lat="47.64077" lon="7.16717">
        <ele>313.20630442977</ele>
        <time>2025-10-12T08:36:01Z</time>
      </trkpt>
      <trkpt lat="47.64078" lon="7.16719">
        <ele>313.05215777147</ele>
        <time>2025-10-12T08:36:02Z</time>
      </trkpt>
      <trkpt lat="47.64081" lon="7.16722">
        <ele>312.75630271327</ele>
        <time>2025-10-12T08:36:04Z</time>
      </trkpt>
      <trkpt lat="47.64083" lon="7.16724">
        <ele>312.5227328956</ele>
        <time>2025-10-12T08:36:06Z</time>
      </trkpt>
      <trkpt lat="47.64085" lon="7.16727">
        <ele>312.36715165299</ele>
        <time>2025-10-12T08:36:08Z</time>
      </trkpt>
      <trkpt lat="47.64087" lon="7.16729">
        <ele>312.27777388012</ele>
        <time>2025-10-12T08:36:10Z</time>
      </trkpt>
      <trkpt lat="47.6409" lon="7.1673">
        <ele>312.17610800766</ele>
        <time>2025-10-12T08:36:12Z</time>
      </trkpt>
      <trkpt lat="47.64092" lon="7.16732">
        <ele>312.05446146612</ele>
        <time>2025-10-12T08:36:14Z</time>
      </trkpt>
      <trkpt lat="47.64095" lon="7.16733">
        <ele>311.92240607249</ele>
        <time>2025-10-12T08:36:16Z</time>
      </trkpt>
      <trkpt lat="47.64097" lon="7.16736">
        <ele>311.76180573339</ele>
        <time>2025-10-12T08:36:18Z</time>
      </trkpt>
      <trkpt lat="47.641" lon="7.16736">
        <ele>311.59243025979</ele>
        <time>2025-10-12T08:36:20Z</time>
      </trkpt>
      <trkpt lat="47.64102" lon="7.16738">
        <ele>311.44206127312</ele>
        <time>2025-10-12T08:36:22Z</time>
      </trkpt>
      <trkpt lat="47.64105" lon="7.16739">
        <ele>311.24045809595</ele>
        <time>2025-10-12T08:36:24Z</time>
      </trkpt>
      <trkpt lat="47.64107" lon="7.1674">
        <ele>311.16933656582</ele>
        <time>2025-10-12T08:36:25Z</time>
      </trkpt>
      <trkpt lat="47.64109" lon="7.16743">
        <ele>310.92395857104</ele>
        <time>2025-10-12T08:36:27Z</time>
      </trkpt>
      <trkpt lat="47.64111" lon="7.16745">
        <ele>310.80848129106</ele>
        <time>2025-10-12T08:36:28Z</time>
      </trkpt>
      <trkpt lat="47.64113" lon="7.16747">
        <ele>310.53326871947</ele>
        <time>2025-10-12T08:36:30Z</time>
      </trkpt>
      <trkpt lat="47.64116" lon="7.16746">
        <ele>310.41603630811</ele>
        <time>2025-10-12T08:36:32Z</time>
      </trkpt>
      <trkpt lat="47.64118" lon="7.16748">
        <ele>310.29254220665</ele>
        <time>2025-10-12T08:36:34Z</time>
      </trkpt>
      <trkpt lat="47.64119" lon="7.1675">
        <ele>310.15467579591</ele>
        <time>2025-10-12T08:36:36Z</time>
      </trkpt>
      <trkpt lat="47.64122" lon="7.16753">
        <ele>310.0712155278</ele>
        <time>2025-10-12T08:36:38Z</time>
      </trkpt>
      <trkpt lat="47.64124" lon="7.16755">
        <ele>309.9835477342</ele>
        <time>2025-10-12T08:36:40Z</time>
      </trkpt>
      <trkpt lat="47.64125" lon="7.16759">
        <ele>309.92357559728</ele>
        <time>2025-10-12T08:36:42Z</time>
      </trkpt>
      <trkpt lat="47.64127" lon="7.16763">
        <ele>309.86436381536</ele>
        <time>2025-10-12T08:36:44Z</time>
      </trkpt>
      <trkpt lat="47.64127" lon="7.16766">
        <ele>309.84748336335</ele>
        <time>2025-10-12T08:36:45Z</time>
      </trkpt>
      <trkpt lat="47.64129" lon="7.16769">
        <ele>309.82324587967</ele>
        <time>2025-10-12T08:36:46Z</time>
      </trkpt>
      <trkpt lat="47.6413" lon="7.16771">
        <ele>309.7798431274</ele>
        <time>2025-10-12T08:36:47Z</time>
      </trkpt>
      <trkpt lat="47.64132" lon="7.16775">
        <ele>309.70092209613</ele>
        <time>2025-10-12T08:36:49Z</time>
      </trkpt>
      <trkpt lat="47.64134" lon="7.16776">
        <ele>309.66351529006</ele>
        <time>2025-10-12T08:36:50Z</time>
      </trkpt>
      <trkpt lat="47.64135" lon="7.16778">
        <ele>309.5960264405</ele>
        <time>2025-10-12T08:36:51Z</time>
      </trkpt>
      <trkpt lat="47.64137" lon="7.16778">
        <ele>309.53885030946</ele>
        <time>2025-10-12T08:36:52Z</time>
      </trkpt>
      <trkpt lat="47.6414" lon="7.16781">
        <ele>309.37880727293</ele>
        <time>2025-10-12T08:36:54Z</time>
      </trkpt>
      <trkpt lat="47.64142" lon="7.16783">
        <ele>309.21009105887</ele>
        <time>2025-10-12T08:36:56Z</time>
      </trkpt>
      <trkpt lat="47.64145" lon="7.16786">
        <ele>309.07630703394</ele>
        <time>2025-10-12T08:36:58Z</time>
      </trkpt>
      <trkpt lat="47.64148" lon="7.16787">
        <ele>308.91380799984</ele>
        <time>2025-10-12T08:37:00Z</time>
      </trkpt>
      <trkpt lat="47.64149" lon="7.1679">
        <ele>308.81111977708</ele>
        <time>2025-10-12T08:37:02Z</time>
      </trkpt>
      <trkpt lat="47.64151" lon="7.16793">
        <ele>308.72527020198</ele>
        <time>2025-10-12T08:37:04Z</time>
      </trkpt>
      <trkpt lat="47.64153" lon="7.16795">
        <ele>308.62524910857</ele>
        <time>2025-10-12T08:37:06Z</time>
      </trkpt>
      <trkpt lat="47.64155" lon="7.16796">
        <ele>308.58827221005</ele>
        <time>2025-10-12T08:37:07Z</time>
      </trkpt>
      <trkpt lat="47.64157" lon="7.16798">
        <ele>308.54930840692</ele>
        <time>2025-10-12T08:37:08Z</time>
      </trkpt>
      <trkpt lat="47.64158" lon="7.168">
        <ele>308.49811588403</ele>
        <time>2025-10-12T08:37:09Z</time>
      </trkpt>
      <trkpt lat="47.64161" lon="7.16802">
        <ele>308.44407345163</ele>
        <time>2025-10-12T08:37:11Z</time>
      </trkpt>
      <trkpt lat="47.64163" lon="7.16803">
        <ele>308.42355713619</ele>
        <time>2025-10-12T08:37:13Z</time>
      </trkpt>
      <trkpt lat="47.64165" lon="7.16807">
        <ele>308.40134910438</ele>
        <time>2025-10-12T08:37:15Z</time>
      </trkpt>
      <trkpt lat="47.64167" lon="7.1681">
        <ele>308.28369690932</ele>
        <time>2025-10-12T08:37:17Z</time>
      </trkpt>
      <trkpt lat="47.64169" lon="7.16812">
        <ele>308.2068685319</ele>
        <time>2025-10-12T08:37:19Z</time>
      </trkpt>
      <trkpt lat="47.64171" lon="7.16815">
        <ele>308.14766671541</ele>
        <time>2025-10-12T08:37:21Z</time>
      </trkpt>
      <trkpt lat="47.64173" lon="7.16817">
        <ele>308.04805492185</ele>
        <time>2025-10-12T08:37:23Z</time>
      </trkpt>
      <trkpt lat="47.64175" lon="7.1682">
        <ele>307.94462502706</ele>
        <time>2025-10-12T08:37:25Z</time>
      </trkpt>
      <trkpt lat="47.64178" lon="7.16823">
        <ele>307.81325167782</ele>
        <time>2025-10-12T08:37:27Z</time>
      </trkpt>
      <trkpt lat="47.6418" lon="7.16825">
        <ele>307.76431428827</ele>
        <time>2025-10-12T08:37:28Z</time>
      </trkpt>
      <trkpt lat="47.64182" lon="7.16827">
        <ele>307.66578633899</ele>
        <time>2025-10-12T08:37:30Z</time>
      </trkpt>
      <trkpt lat="47.64184" lon="7.16829">
        <ele>307.61781421434</ele>
        <time>2025-10-12T08:37:31Z</time>
      </trkpt>
      <trkpt lat="47.64185" lon="7.16831">
        <ele>307.55020267082</ele>
        <time>2025-10-12T08:37:32Z</time>
      </trkpt>
      <trkpt lat="47.64186" lon="7.16834">
        <ele>307.44032338444</ele>
        <time>2025-10-12T08:37:34Z</time>
      </trkpt>
      <trkpt lat="47.64189" lon="7.16837">
        <ele>307.24822178395</ele>
        <time>2025-10-12T08:37:36Z</time>
      </trkpt>
      <trkpt lat="47.6419" lon="7.16839">
        <ele>307.18219789556</ele>
        <time>2025-10-12T08:37:37Z</time>
      </trkpt>
      <trkpt lat="47.64192" lon="7.16842">
        <ele>307.02805355397</ele>
        <time>2025-10-12T08:37:39Z</time>
      </trkpt>
      <trkpt lat="47.64193" lon="7.16846">
        <ele>306.92251278194</ele>
        <time>2025-10-12T08:37:41Z</time>
      </trkpt>
      <trkpt lat="47.64194" lon="7.16849">
        <ele>306.81445877803</ele>
        <time>2025-10-12T08:37:43Z</time>
      </trkpt>
      <trkpt lat="47.64197" lon="7.16852">
        <ele>306.80588281562</ele>
        <time>2025-10-12T08:37:45Z</time>
      </trkpt>
      <trkpt lat="47.64199" lon="7.16855">
        <ele>306.70734307651</ele>
        <time>2025-10-12T08:37:47Z</time>
      </trkpt>
      <trkpt lat="47.64201" lon="7.16857">
        <ele>306.59376429533</ele>
        <time>2025-10-12T08:37:49Z</time>
      </trkpt>
      <trkpt lat="47.64203" lon="7.1686">
        <ele>306.49856905927</ele>
        <time>2025-10-12T08:37:51Z</time>
      </trkpt>
      <trkpt lat="47.64205" lon="7.16862">
        <ele>306.39645774412</ele>
        <time>2025-10-12T08:37:53Z</time>
      </trkpt>
      <trkpt lat="47.64208" lon="7.16864">
        <ele>306.26478721691</ele>
        <time>2025-10-12T08:37:55Z</time>
      </trkpt>
      <trkpt lat="47.6421" lon="7.16865">
        <ele>306.23657048722</ele>
        <time>2025-10-12T08:37:57Z</time>
      </trkpt>
      <trkpt lat="47.64213" lon="7.16868">
        <ele>306.14888383994</ele>
        <time>2025-10-12T08:37:59Z</time>
      </trkpt>
      <trkpt lat="47.64216" lon="7.16871">
        <ele>306.03550422689</ele>
        <time>2025-10-12T08:38:01Z</time>
      </trkpt>
      <trkpt lat="47.64218" lon="7.16873">
        <ele>305.94604859238</ele>
        <time>2025-10-12T08:38:03Z</time>
      </trkpt>
      <trkpt lat="47.6422" lon="7.16876">
        <ele>305.88508354043</ele>
        <time>2025-10-12T08:38:05Z</time>
      </trkpt>
      <trkpt lat="47.64223" lon="7.16878">
        <ele>305.82787507399</ele>
        <time>2025-10-12T08:38:07Z</time>
      </trkpt>
      <trkpt lat="47.64226" lon="7.1688">
        <ele>305.74469678815</ele>
        <time>2025-10-12T08:38:09Z</time>
      </trkpt>
      <trkpt lat="47.64228" lon="7.16881">
        <ele>305.65167597942</ele>
        <time>2025-10-12T08:38:11Z</time>
      </trkpt>
      <trkpt lat="47.64231" lon="7.16884">
        <ele>305.56088584701</ele>
        <time>2025-10-12T08:38:13Z</time>
      </trkpt>
      <trkpt lat="47.64233" lon="7.16886">
        <ele>305.49589194715</ele>
        <time>2025-10-12T08:38:15Z</time>
      </trkpt>
      <trkpt lat="47.64235" lon="7.16888">
        <ele>305.43875305552</ele>
        <time>2025-10-12T08:38:17Z</time>
      </trkpt>
      <trkpt lat="47.64237" lon="7.1689">
        <ele>305.39476095127</ele>
        <time>2025-10-12T08:38:19Z</time>
      </trkpt>
      <trkpt lat="47.64239" lon="7.16893">
        <ele>305.35013855545</ele>
        <time>2025-10-12T08:38:20Z</time>
      </trkpt>
      <trkpt lat="47.64242" lon="7.16895">
        <ele>305.22173827063</ele>
        <time>2025-10-12T08:38:22Z</time>
      </trkpt>
      <trkpt lat="47.64243" lon="7.16897">
        <ele>305.15184739522</ele>
        <time>2025-10-12T08:38:24Z</time>
      </trkpt>
      <trkpt lat="47.64245" lon="7.169">
        <ele>305.07962199721</ele>
        <time>2025-10-12T08:38:26Z</time>
      </trkpt>
      <trkpt lat="47.64247" lon="7.16903">
        <ele>304.94464406696</ele>
        <time>2025-10-12T08:38:28Z</time>
      </trkpt>
      <trkpt lat="47.6425" lon="7.16906">
        <ele>304.84919934759</ele>
        <time>2025-10-12T08:38:31Z</time>
      </trkpt>
      <trkpt lat="47.64252" lon="7.16905">
        <ele>304.79725164466</ele>
        <time>2025-10-12T08:38:33Z</time>
      </trkpt>
      <trkpt lat="47.64255" lon="7.16906">
        <ele>304.75010893765</ele>
        <time>2025-10-12T08:38:35Z</time>
      </trkpt>
      <trkpt lat="47.64257" lon="7.16906">
        <ele>304.69294805746</ele>
        <time>2025-10-12T08:38:37Z</time>
      </trkpt>
      <trkpt lat="47.6426" lon="7.16906">
        <ele>304.67414463713</ele>
        <time>2025-10-12T08:38:39Z</time>
      </trkpt>
      <trkpt lat="47.64262" lon="7.16905">
        <ele>304.63560333144</ele>
        <time>2025-10-12T08:38:41Z</time>
      </trkpt>
      <trkpt lat="47.64264" lon="7.16903">
        <ele>304.62646888722</ele>
        <time>2025-10-12T08:38:42Z</time>
      </trkpt>
      <trkpt lat="47.64266" lon="7.16899">
        <ele>304.66486931076</ele>
        <time>2025-10-12T08:38:44Z</time>
      </trkpt>
      <trkpt lat="47.64268" lon="7.16895">
        <ele>304.68511384966</ele>
        <time>2025-10-12T08:38:46Z</time>
      </trkpt>
      <trkpt lat="47.64268" lon="7.16892">
        <ele>304.69291608753</ele>
        <time>2025-10-12T08:38:48Z</time>
      </trkpt>
      <trkpt lat="47.6427" lon="7.16888">
        <ele>304.69854220561</ele>
        <time>2025-10-12T08:38:50Z</time>
      </trkpt>
      <trkpt lat="47.64271" lon="7.16886">
        <ele>304.70128999632</ele>
        <time>2025-10-12T08:38:51Z</time>
      </trkpt>
      <trkpt lat="47.64272" lon="7.16881">
        <ele>304.78875228748</ele>
        <time>2025-10-12T08:38:53Z</time>
      </trkpt>
      <trkpt lat="47.64273" lon="7.16878">
        <ele>304.85482252806</ele>
        <time>2025-10-12T08:38:55Z</time>
      </trkpt>
      <trkpt lat="47.64275" lon="7.16873">
        <ele>304.93894911182</ele>
        <time>2025-10-12T08:38:57Z</time>
      </trkpt>
      <trkpt lat="47.64277" lon="7.16871">
        <ele>305.02415713791</ele>
        <time>2025-10-12T08:38:59Z</time>
      </trkpt>
      <trkpt lat="47.64279" lon="7.16868">
        <ele>305.08960882754</ele>
        <time>2025-10-12T08:39:01Z</time>
      </trkpt>
      <trkpt lat="47.64282" lon="7.16865">
        <ele>305.1310198752</ele>
        <time>2025-10-12T08:39:03Z</time>
      </trkpt>
      <trkpt lat="47.64284" lon="7.16862">
        <ele>305.12004940316</ele>
        <time>2025-10-12T08:39:05Z</time>
      </trkpt>
      <trkpt lat="47.64287" lon="7.1686">
        <ele>305.1153446667</ele>
        <time>2025-10-12T08:39:07Z</time>
      </trkpt>
      <trkpt lat="47.64289" lon="7.16858">
        <ele>305.03052161836</ele>
        <time>2025-10-12T08:39:09Z</time>
      </trkpt>
      <trkpt lat="47.64292" lon="7.16855">
        <ele>304.94571861493</ele>
        <time>2025-10-12T08:39:11Z</time>
      </trkpt>
      <trkpt lat="47.64294" lon="7.16852">
        <ele>304.85178342669</ele>
        <time>2025-10-12T08:39:13Z</time>
      </trkpt>
      <trkpt lat="47.64295" lon="7.16849">
        <ele>304.80387202891</ele>
        <time>2025-10-12T08:39:15Z</time>
      </trkpt>
      <trkpt lat="47.64297" lon="7.16845">
        <ele>304.72617276112</ele>
        <time>2025-10-12T08:39:17Z</time>
      </trkpt>
      <trkpt lat="47.64299" lon="7.16842">
        <ele>304.70182832042</ele>
        <time>2025-10-12T08:39:18Z</time>
      </trkpt>
      <trkpt lat="47.643" lon="7.16839">
        <ele>304.62000767072</ele>
        <time>2025-10-12T08:39:20Z</time>
      </trkpt>
      <trkpt lat="47.64302" lon="7.16837">
        <ele>304.56792176402</ele>
        <time>2025-10-12T08:39:22Z</time>
      </trkpt>
      <trkpt lat="47.64303" lon="7.16834">
        <ele>304.54598246876</ele>
        <time>2025-10-12T08:39:23Z</time>
      </trkpt>
      <trkpt lat="47.64304" lon="7.16831">
        <ele>304.50453988201</ele>
        <time>2025-10-12T08:39:24Z</time>
      </trkpt>
      <trkpt lat="47.64307" lon="7.16827">
        <ele>304.28644268428</ele>
        <time>2025-10-12T08:39:26Z</time>
      </trkpt>
      <trkpt lat="47.64309" lon="7.16825">
        <ele>304.08213799404</ele>
        <time>2025-10-12T08:39:28Z</time>
      </trkpt>
      <trkpt lat="47.6431" lon="7.16822">
        <ele>303.98233035974</ele>
        <time>2025-10-12T08:39:30Z</time>
      </trkpt>
      <trkpt lat="47.64312" lon="7.1682">
        <ele>303.88729206123</ele>
        <time>2025-10-12T08:39:32Z</time>
      </trkpt>
      <trkpt lat="47.64313" lon="7.16818">
        <ele>303.81698199848</ele>
        <time>2025-10-12T08:39:33Z</time>
      </trkpt>
      <trkpt lat="47.64315" lon="7.16813">
        <ele>303.66307204929</ele>
        <time>2025-10-12T08:39:35Z</time>
      </trkpt>
      <trkpt lat="47.64316" lon="7.16809">
        <ele>303.5272662872</ele>
        <time>2025-10-12T08:39:37Z</time>
      </trkpt>
      <trkpt lat="47.64318" lon="7.16806">
        <ele>303.43293093466</ele>
        <time>2025-10-12T08:39:39Z</time>
      </trkpt>
      <trkpt lat="47.64319" lon="7.16801">
        <ele>303.31755948055</ele>
        <time>2025-10-12T08:39:41Z</time>
      </trkpt>
      <trkpt lat="47.6432" lon="7.16799">
        <ele>303.25466511248</ele>
        <time>2025-10-12T08:39:42Z</time>
      </trkpt>
      <trkpt lat="47.64321" lon="7.16797">
        <ele>303.17701947451</ele>
        <time>2025-10-12T08:39:43Z</time>
      </trkpt>
      <trkpt lat="47.64323" lon="7.16793">
        <ele>303.01551306126</ele>
        <time>2025-10-12T08:39:45Z</time>
      </trkpt>
      <trkpt lat="47.64324" lon="7.16791">
        <ele>302.91299955963</ele>
        <time>2025-10-12T08:39:47Z</time>
      </trkpt>
      <trkpt lat="47.64326" lon="7.16787">
        <ele>302.82177941729</ele>
        <time>2025-10-12T08:39:49Z</time>
      </trkpt>
      <trkpt lat="47.64328" lon="7.16784">
        <ele>302.70300039458</ele>
        <time>2025-10-12T08:39:51Z</time>
      </trkpt>
      <trkpt lat="47.6433" lon="7.16781">
        <ele>302.56651322691</ele>
        <time>2025-10-12T08:39:53Z</time>
      </trkpt>
      <trkpt lat="47.64331" lon="7.16778">
        <ele>302.45638645337</ele>
        <time>2025-10-12T08:39:55Z</time>
      </trkpt>
      <trkpt lat="47.64332" lon="7.16774">
        <ele>302.35088485605</ele>
        <time>2025-10-12T08:39:57Z</time>
      </trkpt>
      <trkpt lat="47.64332" lon="7.16771">
        <ele>302.2066642517</ele>
        <time>2025-10-12T08:39:59Z</time>
      </trkpt>
      <trkpt lat="47.64334" lon="7.16768">
        <ele>302.11791369604</ele>
        <time>2025-10-12T08:40:01Z</time>
      </trkpt>
      <trkpt lat="47.64336" lon="7.16766">
        <ele>302.01737744781</ele>
        <time>2025-10-12T08:40:03Z</time>
      </trkpt>
      <trkpt lat="47.64338" lon="7.16763">
        <ele>301.9147293241</ele>
        <time>2025-10-12T08:40:05Z</time>
      </trkpt>
      <trkpt lat="47.6434" lon="7.16759">
        <ele>301.80290572372</ele>
        <time>2025-10-12T08:40:07Z</time>
      </trkpt>
      <trkpt lat="47.64342" lon="7.16756">
        <ele>301.66295051262</ele>
        <time>2025-10-12T08:40:09Z</time>
      </trkpt>
      <trkpt lat="47.64344" lon="7.16752">
        <ele>301.56852972028</ele>
        <time>2025-10-12T08:40:11Z</time>
      </trkpt>
      <trkpt lat="47.64346" lon="7.16749">
        <ele>301.41932226772</ele>
        <time>2025-10-12T08:40:13Z</time>
      </trkpt>
      <trkpt lat="47.64348" lon="7.16747">
        <ele>301.33994261996</ele>
        <time>2025-10-12T08:40:15Z</time>
      </trkpt>
      <trkpt lat="47.6435" lon="7.16743">
        <ele>301.22896968529</ele>
        <time>2025-10-12T08:40:17Z</time>
      </trkpt>
      <trkpt lat="47.64351" lon="7.16741">
        <ele>301.11417617909</ele>
        <time>2025-10-12T08:40:19Z</time>
      </trkpt>
      <trkpt lat="47.64353" lon="7.16738">
        <ele>301.06609863292</ele>
        <time>2025-10-12T08:40:20Z</time>
      </trkpt>
      <trkpt lat="47.64354" lon="7.16736">
        <ele>300.9867761078</ele>
        <time>2025-10-12T08:40:21Z</time>
      </trkpt>
      <trkpt lat="47.64356" lon="7.16736">
        <ele>300.89570260757</ele>
        <time>2025-10-12T08:40:23Z</time>
      </trkpt>
      <trkpt lat="47.64358" lon="7.16736">
        <ele>300.91785326613</ele>
        <time>2025-10-12T08:40:29Z</time>
      </trkpt>
      <trkpt lat="47.6436" lon="7.16735">
        <ele>300.86968165308</ele>
        <time>2025-10-12T08:40:31Z</time>
      </trkpt>
      <trkpt lat="47.64361" lon="7.16733">
        <ele>300.82841044721</ele>
        <time>2025-10-12T08:40:33Z</time>
      </trkpt>
      <trkpt lat="47.64364" lon="7.16729">
        <ele>300.72615996659</ele>
        <time>2025-10-12T08:40:35Z</time>
      </trkpt>
      <trkpt lat="47.64365" lon="7.16727">
        <ele>300.65815638667</ele>
        <time>2025-10-12T08:40:36Z</time>
      </trkpt>
      <trkpt lat="47.64367" lon="7.16724">
        <ele>300.51781832687</ele>
        <time>2025-10-12T08:40:38Z</time>
      </trkpt>
      <trkpt lat="47.6437" lon="7.1672">
        <ele>300.40607375975</ele>
        <time>2025-10-12T08:40:40Z</time>
      </trkpt>
      <trkpt lat="47.64371" lon="7.16717">
        <ele>300.40008113097</ele>
        <time>2025-10-12T08:40:42Z</time>
      </trkpt>
      <trkpt lat="47.64373" lon="7.16714">
        <ele>300.40002120468</ele>
        <time>2025-10-12T08:40:44Z</time>
      </trkpt>
      <trkpt lat="47.64375" lon="7.16711">
        <ele>300.40002060542</ele>
        <time>2025-10-12T08:40:46Z</time>
      </trkpt>
      <trkpt lat="47.64376" lon="7.16708">
        <ele>300.40002059943</ele>
        <time>2025-10-12T08:40:48Z</time>
      </trkpt>
      <trkpt lat="47.64379" lon="7.16705">
        <ele>300.40002059937</ele>
        <time>2025-10-12T08:40:50Z</time>
      </trkpt>
      <trkpt lat="47.6438" lon="7.16703">
        <ele>300.40002059937</ele>
        <time>2025-10-12T08:40:52Z</time>
      </trkpt>
      <trkpt lat="47.64382" lon="7.167">
        <ele>300.40002059937</ele>
        <time>2025-10-12T08:40:54Z</time>
      </trkpt>
      <trkpt lat="47.64383" lon="7.16697">
        <ele>300.40002059937</ele>
        <time>2025-10-12T08:40:56Z</time>
      </trkpt>
      <trkpt lat="47.64385" lon="7.16696">
        <ele>300.40002059937</ele>
        <time>2025-10-12T08:40:58Z</time>
      </trkpt>
      <trkpt lat="47.64387" lon="7.16694">
        <ele>300.40002059937</ele>
        <time>2025-10-12T08:41:00Z</time>
      </trkpt>
      <trkpt lat="47.64388" lon="7.16692">
        <ele>300.33866744995</ele>
        <time>2025-10-12T08:41:02Z</time>
      </trkpt>
      <trkpt lat="47.6439" lon="7.16689">
        <ele>300.25760927734</ele>
        <time>2025-10-12T08:41:04Z</time>
      </trkpt>
      <trkpt lat="47.64391" lon="7.16686">
        <ele>300.1782751947</ele>
        <time>2025-10-12T08:41:05Z</time>
      </trkpt>
      <trkpt lat="47.64392" lon="7.16684">
        <ele>300.0717120257</ele>
        <time>2025-10-12T08:41:06Z</time>
      </trkpt>
      <trkpt lat="47.64394" lon="7.16681">
        <ele>299.95229106036</ele>
        <time>2025-10-12T08:41:07Z</time>
      </trkpt>
      <trkpt lat="47.64396" lon="7.16677">
        <ele>299.74493569899</ele>
        <time>2025-10-12T08:41:09Z</time>
      </trkpt>
      <trkpt lat="47.64398" lon="7.16673">
        <ele>299.63241109558</ele>
        <time>2025-10-12T08:41:11Z</time>
      </trkpt>
      <trkpt lat="47.644" lon="7.16669">
        <ele>299.51331740472</ele>
        <time>2025-10-12T08:41:13Z</time>
      </trkpt>
      <trkpt lat="47.64402" lon="7.16665">
        <ele>299.41341705619</ele>
        <time>2025-10-12T08:41:15Z</time>
      </trkpt>
      <trkpt lat="47.64403" lon="7.16662">
        <ele>299.40015456393</ele>
        <time>2025-10-12T08:41:17Z</time>
      </trkpt>
      <trkpt lat="47.64404" lon="7.1666">
        <ele>299.40002193901</ele>
        <time>2025-10-12T08:41:19Z</time>
      </trkpt>
      <trkpt lat="47.64405" lon="7.16657">
        <ele>299.40002061276</ele>
        <time>2025-10-12T08:41:21Z</time>
      </trkpt>
      <trkpt lat="47.64407" lon="7.16656">
        <ele>299.4000205995</ele>
        <time>2025-10-12T08:41:23Z</time>
      </trkpt>
      <trkpt lat="47.64409" lon="7.16653">
        <ele>299.40002059938</ele>
        <time>2025-10-12T08:41:24Z</time>
      </trkpt>
      <trkpt lat="47.6441" lon="7.16651">
        <ele>299.40002059937</ele>
        <time>2025-10-12T08:41:25Z</time>
      </trkpt>
      <trkpt lat="47.64411" lon="7.16649">
        <ele>299.40002059937</ele>
        <time>2025-10-12T08:41:26Z</time>
      </trkpt>
      <trkpt lat="47.64413" lon="7.16645">
        <ele>299.40002059937</ele>
        <time>2025-10-12T08:41:29Z</time>
      </trkpt>
      <trkpt lat="47.64414" lon="7.16643">
        <ele>299.40002059937</ele>
        <time>2025-10-12T08:41:30Z</time>
      </trkpt>
      <trkpt lat="47.64415" lon="7.1664">
        <ele>299.40002059937</ele>
        <time>2025-10-12T08:41:32Z</time>
      </trkpt>
      <trkpt lat="47.64415" lon="7.16636">
        <ele>299.39864730835</ele>
        <time>2025-10-12T08:41:34Z</time>
      </trkpt>
      <trkpt lat="47.64414" lon="7.16634">
        <ele>299.39301681519</ele>
        <time>2025-10-12T08:41:35Z</time>
      </trkpt>
      <trkpt lat="47.64412" lon="7.1663">
        <ele>299.36608795166</ele>
        <time>2025-10-12T08:41:37Z</time>
      </trkpt>
      <trkpt lat="47.64411" lon="7.16627">
        <ele>299.3371168808</ele>
        <time>2025-10-12T08:41:39Z</time>
      </trkpt>
      <trkpt lat="47.64411" lon="7.16623">
        <ele>299.30418129607</ele>
        <time>2025-10-12T08:41:41Z</time>
      </trkpt>
      <trkpt lat="47.64411" lon="7.16619">
        <ele>299.26619355399</ele>
        <time>2025-10-12T08:41:43Z</time>
      </trkpt>
      <trkpt lat="47.64409" lon="7.16616">
        <ele>299.21391426251</ele>
        <time>2025-10-12T08:41:45Z</time>
      </trkpt>
      <trkpt lat="47.64409" lon="7.16612">
        <ele>299.16455998766</ele>
        <time>2025-10-12T08:41:47Z</time>
      </trkpt>
      <trkpt lat="47.64409" lon="7.16609">
        <ele>299.11089261678</ele>
        <time>2025-10-12T08:41:49Z</time>
      </trkpt>
      <trkpt lat="47.64407" lon="7.16605">
        <ele>298.99566142403</ele>
        <time>2025-10-12T08:41:51Z</time>
      </trkpt>
      <trkpt lat="47.64406" lon="7.16601">
        <ele>298.85988814042</ele>
        <time>2025-10-12T08:41:53Z</time>
      </trkpt>
      <trkpt lat="47.64405" lon="7.16597">
        <ele>298.74683790271</ele>
        <time>2025-10-12T08:41:55Z</time>
      </trkpt>
      <trkpt lat="47.64405" lon="7.16595">
        <ele>298.70035174376</ele>
        <time>2025-10-12T08:41:56Z</time>
      </trkpt>
      <trkpt lat="47.64404" lon="7.16592">
        <ele>298.59964622526</ele>
        <time>2025-10-12T08:41:58Z</time>
      </trkpt>
      <trkpt lat="47.64404" lon="7.16588">
        <ele>298.51637674965</ele>
        <time>2025-10-12T08:42:01Z</time>
      </trkpt>
      <trkpt lat="47.64403" lon="7.16584">
        <ele>298.46416603343</ele>
        <time>2025-10-12T08:42:03Z</time>
      </trkpt>
      <trkpt lat="47.64403" lon="7.16582">
        <ele>298.40360089648</ele>
        <time>2025-10-12T08:42:05Z</time>
      </trkpt>
      <trkpt lat="47.64402" lon="7.16578">
        <ele>298.33584406103</ele>
        <time>2025-10-12T08:42:07Z</time>
      </trkpt>
      <trkpt lat="47.64401" lon="7.16575">
        <ele>298.2704130747</ele>
        <time>2025-10-12T08:42:09Z</time>
      </trkpt>
      <trkpt lat="47.64402" lon="7.16571">
        <ele>298.19295883808</ele>
        <time>2025-10-12T08:42:11Z</time>
      </trkpt>
      <trkpt lat="47.64401" lon="7.16568">
        <ele>298.13259445197</ele>
        <time>2025-10-12T08:42:13Z</time>
      </trkpt>
      <trkpt lat="47.64401" lon="7.16564">
        <ele>298.04762679443</ele>
        <time>2025-10-12T08:42:15Z</time>
      </trkpt>
      <trkpt lat="47.64402" lon="7.16559">
        <ele>297.98221321405</ele>
        <time>2025-10-12T08:42:17Z</time>
      </trkpt>
      <trkpt lat="47.644" lon="7.16555">
        <ele>297.93826000244</ele>
        <time>2025-10-12T08:42:18Z</time>
      </trkpt>
      <trkpt lat="47.64399" lon="7.16552">
        <ele>297.80282525256</ele>
        <time>2025-10-12T08:42:19Z</time>
      </trkpt>
      <trkpt lat="47.64397" lon="7.1655">
        <ele>297.75148880883</ele>
        <time>2025-10-12T08:42:20Z</time>
      </trkpt>
      <trkpt lat="47.64396" lon="7.16546">
        <ele>297.70595294277</ele>
        <time>2025-10-12T08:42:21Z</time>
      </trkpt>
      <trkpt lat="47.64395" lon="7.16544">
        <ele>297.66127179269</ele>
        <time>2025-10-12T08:42:22Z</time>
      </trkpt>
      <trkpt lat="47.64393" lon="7.16539">
        <ele>297.58138616306</ele>
        <time>2025-10-12T08:42:24Z</time>
      </trkpt>
      <trkpt lat="47.64392" lon="7.16536">
        <ele>297.54793315671</ele>
        <time>2025-10-12T08:42:25Z</time>
      </trkpt>
      <trkpt lat="47.64392" lon="7.16531">
        <ele>297.51149209554</ele>
        <time>2025-10-12T08:42:27Z</time>
      </trkpt>
      <trkpt lat="47.64391" lon="7.16527">
        <ele>297.49521398864</ele>
        <time>2025-10-12T08:42:29Z</time>
      </trkpt>
      <trkpt lat="47.64391" lon="7.16522">
        <ele>297.4797472525</ele>
        <time>2025-10-12T08:42:31Z</time>
      </trkpt>
      <trkpt lat="47.6439" lon="7.16518">
        <ele>297.45524962859</ele>
        <time>2025-10-12T08:42:33Z</time>
      </trkpt>
      <trkpt lat="47.6439" lon="7.16513">
        <ele>297.43411140284</ele>
        <time>2025-10-12T08:42:35Z</time>
      </trkpt>
      <trkpt lat="47.6439" lon="7.1651">
        <ele>297.43605907424</ele>
        <time>2025-10-12T08:42:36Z</time>
      </trkpt>
      <trkpt lat="47.6439" lon="7.16506">
        <ele>297.43858868675</ele>
        <time>2025-10-12T08:42:38Z</time>
      </trkpt>
      <trkpt lat="47.64389" lon="7.16502">
        <ele>297.42721566745</ele>
        <time>2025-10-12T08:42:40Z</time>
      </trkpt>
      <trkpt lat="47.64389" lon="7.16498">
        <ele>297.40724140259</ele>
        <time>2025-10-12T08:42:42Z</time>
      </trkpt>
      <trkpt lat="47.64389" lon="7.16495">
        <ele>297.40736194238</ele>
        <time>2025-10-12T08:42:43Z</time>
      </trkpt>
      <trkpt lat="47.64387" lon="7.1649">
        <ele>297.39406801182</ele>
        <time>2025-10-12T08:42:45Z</time>
      </trkpt>
      <trkpt lat="47.64384" lon="7.16485">
        <ele>297.35604322681</ele>
        <time>2025-10-12T08:42:47Z</time>
      </trkpt>
      <trkpt lat="47.64383" lon="7.16482">
        <ele>297.31690582109</ele>
        <time>2025-10-12T08:42:48Z</time>
      </trkpt>
      <trkpt lat="47.64381" lon="7.16478">
        <ele>297.2426040634</ele>
        <time>2025-10-12T08:42:50Z</time>
      </trkpt>
      <trkpt lat="47.6438" lon="7.16476">
        <ele>297.18688209518</ele>
        <time>2025-10-12T08:42:51Z</time>
      </trkpt>
      <trkpt lat="47.64379" lon="7.16472">
        <ele>297.09928356247</ele>
        <time>2025-10-12T08:42:53Z</time>
      </trkpt>
      <trkpt lat="47.64378" lon="7.16468">
        <ele>297.02173936306</ele>
        <time>2025-10-12T08:42:56Z</time>
      </trkpt>
      <trkpt lat="47.64378" lon="7.16465">
        <ele>297.00266356825</ele>
        <time>2025-10-12T08:42:58Z</time>
      </trkpt>
      <trkpt lat="47.64376" lon="7.16461">
        <ele>296.97435055689</ele>
        <time>2025-10-12T08:43:00Z</time>
      </trkpt>
      <trkpt lat="47.64376" lon="7.16458">
        <ele>296.9306219922</ele>
        <time>2025-10-12T08:43:02Z</time>
      </trkpt>
      <trkpt lat="47.64376" lon="7.16453">
        <ele>296.94449714552</ele>
        <time>2025-10-12T08:43:04Z</time>
      </trkpt>
      <trkpt lat="47.64376" lon="7.1645">
        <ele>296.9412356285</ele>
        <time>2025-10-12T08:43:06Z</time>
      </trkpt>
      <trkpt lat="47.64376" lon="7.16447">
        <ele>296.94943177309</ele>
        <time>2025-10-12T08:43:08Z</time>
      </trkpt>
      <trkpt lat="47.64377" lon="7.16442">
        <ele>296.94738238688</ele>
        <time>2025-10-12T08:43:10Z</time>
      </trkpt>
      <trkpt lat="47.64376" lon="7.16439">
        <ele>297.01256300386</ele>
        <time>2025-10-12T08:43:12Z</time>
      </trkpt>
      <trkpt lat="47.64377" lon="7.16436">
        <ele>297.08203042282</ele>
        <time>2025-10-12T08:43:14Z</time>
      </trkpt>
      <trkpt lat="47.64377" lon="7.16434">
        <ele>297.14107924773</ele>
        <time>2025-10-12T08:43:15Z</time>
      </trkpt>
      <trkpt lat="47.64376" lon="7.16429">
        <ele>297.22970566095</ele>
        <time>2025-10-12T08:43:17Z</time>
      </trkpt>
      <trkpt lat="47.64376" lon="7.16424">
        <ele>297.24912586063</ele>
        <time>2025-10-12T08:43:19Z</time>
      </trkpt>
      <trkpt lat="47.64376" lon="7.16421">
        <ele>297.28506540284</ele>
        <time>2025-10-12T08:43:20Z</time>
      </trkpt>
      <trkpt lat="47.64376" lon="7.16417">
        <ele>297.40994801273</ele>
        <time>2025-10-12T08:43:22Z</time>
      </trkpt>
      <trkpt lat="47.64376" lon="7.16413">
        <ele>297.5281490483</ele>
        <time>2025-10-12T08:43:24Z</time>
      </trkpt>
      <trkpt lat="47.64376" lon="7.16409">
        <ele>297.46493469635</ele>
        <time>2025-10-12T08:43:26Z</time>
      </trkpt>
      <trkpt lat="47.64376" lon="7.16404">
        <ele>297.45280536045</ele>
        <time>2025-10-12T08:43:28Z</time>
      </trkpt>
      <trkpt lat="47.64376" lon="7.16401">
        <ele>297.46728943192</ele>
        <time>2025-10-12T08:43:29Z</time>
      </trkpt>
      <trkpt lat="47.64377" lon="7.16396">
        <ele>297.51032036289</ele>
        <time>2025-10-12T08:43:31Z</time>
      </trkpt>
      <trkpt lat="47.64377" lon="7.16392">
        <ele>297.54651940999</ele>
        <time>2025-10-12T08:43:33Z</time>
      </trkpt>
      <trkpt lat="47.64378" lon="7.16388">
        <ele>297.59983000886</ele>
        <time>2025-10-12T08:43:35Z</time>
      </trkpt>
      <trkpt lat="47.64379" lon="7.16385">
        <ele>297.62656550743</ele>
        <time>2025-10-12T08:43:37Z</time>
      </trkpt>
      <trkpt lat="47.64379" lon="7.16382">
        <ele>297.629053264</ele>
        <time>2025-10-12T08:43:38Z</time>
      </trkpt>
      <trkpt lat="47.6438" lon="7.16378">
        <ele>297.6004713264</ele>
        <time>2025-10-12T08:43:40Z</time>
      </trkpt>
      <trkpt lat="47.6438" lon="7.16373">
        <ele>297.61767848798</ele>
        <time>2025-10-12T08:43:42Z</time>
      </trkpt>
      <trkpt lat="47.64381" lon="7.16369">
        <ele>297.61652554973</ele>
        <time>2025-10-12T08:43:45Z</time>
      </trkpt>
      <trkpt lat="47.64383" lon="7.16365">
        <ele>297.70901456733</ele>
        <time>2025-10-12T08:43:47Z</time>
      </trkpt>
      <trkpt lat="47.64383" lon="7.16361">
        <ele>297.80916247996</ele>
        <time>2025-10-12T08:43:49Z</time>
      </trkpt>
      <trkpt lat="47.64384" lon="7.16356">
        <ele>297.67761116368</ele>
        <time>2025-10-12T08:43:51Z</time>
      </trkpt>
      <trkpt lat="47.64385" lon="7.16352">
        <ele>297.40395830921</ele>
        <time>2025-10-12T08:43:53Z</time>
      </trkpt>
      <trkpt lat="47.64386" lon="7.16348">
        <ele>297.24749833096</ele>
        <time>2025-10-12T08:43:55Z</time>
      </trkpt>
      <trkpt lat="47.64387" lon="7.16344">
        <ele>297.12027485666</ele>
        <time>2025-10-12T08:43:57Z</time>
      </trkpt>
      <trkpt lat="47.64386" lon="7.16341">
        <ele>296.9879090622</ele>
        <time>2025-10-12T08:43:58Z</time>
      </trkpt>
      <trkpt lat="47.64387" lon="7.16338">
        <ele>296.76931054428</ele>
        <time>2025-10-12T08:43:59Z</time>
      </trkpt>
      <trkpt lat="47.64387" lon="7.16335">
        <ele>296.59850354894</ele>
        <time>2025-10-12T08:44:00Z</time>
      </trkpt>
      <trkpt lat="47.64388" lon="7.16332">
        <ele>296.31876202066</ele>
        <time>2025-10-12T08:44:02Z</time>
      </trkpt>
      <trkpt lat="47.64387" lon="7.16329">
        <ele>296.27651270108</ele>
        <time>2025-10-12T08:44:04Z</time>
      </trkpt>
      <trkpt lat="47.64387" lon="7.16324">
        <ele>296.25398846228</ele>
        <time>2025-10-12T08:44:06Z</time>
      </trkpt>
      <trkpt lat="47.64387" lon="7.16321">
        <ele>296.25076944547</ele>
        <time>2025-10-12T08:44:08Z</time>
      </trkpt>
      <trkpt lat="47.64388" lon="7.16316">
        <ele>296.2975115473</ele>
        <time>2025-10-12T08:44:10Z</time>
      </trkpt>
      <trkpt lat="47.64389" lon="7.16311">
        <ele>296.37819564312</ele>
        <time>2025-10-12T08:44:12Z</time>
      </trkpt>
      <trkpt lat="47.6439" lon="7.16309">
        <ele>296.42431515452</ele>
        <time>2025-10-12T08:44:13Z</time>
      </trkpt>
      <trkpt lat="47.64391" lon="7.16304">
        <ele>296.48047472656</ele>
        <time>2025-10-12T08:44:15Z</time>
      </trkpt>
      <trkpt lat="47.64391" lon="7.16301">
        <ele>296.46167929333</ele>
        <time>2025-10-12T08:44:16Z</time>
      </trkpt>
      <trkpt lat="47.64392" lon="7.16298">
        <ele>296.4203039004</ele>
        <time>2025-10-12T08:44:17Z</time>
      </trkpt>
      <trkpt lat="47.64393" lon="7.16295">
        <ele>296.38996396853</ele>
        <time>2025-10-12T08:44:18Z</time>
      </trkpt>
      <trkpt lat="47.64393" lon="7.1629">
        <ele>296.23427916392</ele>
        <time>2025-10-12T08:44:20Z</time>
      </trkpt>
      <trkpt lat="47.64393" lon="7.16287">
        <ele>296.11043620191</ele>
        <time>2025-10-12T08:44:21Z</time>
      </trkpt>
      <trkpt lat="47.64393" lon="7.16284">
        <ele>296.03040359028</ele>
        <time>2025-10-12T08:44:22Z</time>
      </trkpt>
      <trkpt lat="47.64394" lon="7.16281">
        <ele>295.93698162795</ele>
        <time>2025-10-12T08:44:23Z</time>
      </trkpt>
      <trkpt lat="47.64394" lon="7.16275">
        <ele>295.78816486785</ele>
        <time>2025-10-12T08:44:25Z</time>
      </trkpt>
      <trkpt lat="47.64394" lon="7.16271">
        <ele>295.71634967465</ele>
        <time>2025-10-12T08:44:26Z</time>
      </trkpt>
      <trkpt lat="47.64395" lon="7.16268">
        <ele>295.60194159283</ele>
        <time>2025-10-12T08:44:27Z</time>
      </trkpt>
      <trkpt lat="47.64395" lon="7.16265">
        <ele>295.52925200535</ele>
        <time>2025-10-12T08:44:28Z</time>
      </trkpt>
      <trkpt lat="47.64397" lon="7.1626">
        <ele>295.46679142905</ele>
        <time>2025-10-12T08:44:30Z</time>
      </trkpt>
      <trkpt lat="47.64399" lon="7.16255">
        <ele>295.54627638139</ele>
        <time>2025-10-12T08:44:32Z</time>
      </trkpt>
      <trkpt lat="47.644" lon="7.16253">
        <ele>295.59152606038</ele>
        <time>2025-10-12T08:44:33Z</time>
      </trkpt>
      <trkpt lat="47.644" lon="7.1625">
        <ele>295.63255310347</ele>
        <time>2025-10-12T08:44:34Z</time>
      </trkpt>
      <trkpt lat="47.64401" lon="7.16247">
        <ele>295.64338493376</ele>
        <time>2025-10-12T08:44:35Z</time>
      </trkpt>
      <trkpt lat="47.64401" lon="7.16242">
        <ele>295.57024843216</ele>
        <time>2025-10-12T08:44:37Z</time>
      </trkpt>
      <trkpt lat="47.64402" lon="7.16237">
        <ele>295.3591673357</ele>
        <time>2025-10-12T08:44:39Z</time>
      </trkpt>
      <trkpt lat="47.64401" lon="7.16234">
        <ele>295.23187280892</ele>
        <time>2025-10-12T08:44:41Z</time>
      </trkpt>
      <trkpt lat="47.64401" lon="7.16229">
        <ele>295.03342273962</ele>
        <time>2025-10-12T08:44:43Z</time>
      </trkpt>
      <trkpt lat="47.64401" lon="7.16226">
        <ele>294.90048120768</ele>
        <time>2025-10-12T08:44:45Z</time>
      </trkpt>
      <trkpt lat="47.64402" lon="7.16221">
        <ele>294.82096484168</ele>
        <time>2025-10-12T08:44:47Z</time>
      </trkpt>
      <trkpt lat="47.64402" lon="7.16218">
        <ele>294.81530548124</ele>
        <time>2025-10-12T08:44:49Z</time>
      </trkpt>
      <trkpt lat="47.64402" lon="7.16215">
        <ele>294.8184953476</ele>
        <time>2025-10-12T08:44:51Z</time>
      </trkpt>
      <trkpt lat="47.64402" lon="7.1621">
        <ele>294.79687594011</ele>
        <time>2025-10-12T08:44:53Z</time>
      </trkpt>
      <trkpt lat="47.64403" lon="7.16206">
        <ele>294.87407765375</ele>
        <time>2025-10-12T08:44:55Z</time>
      </trkpt>
      <trkpt lat="47.64403" lon="7.16202">
        <ele>294.92090985155</ele>
        <time>2025-10-12T08:44:57Z</time>
      </trkpt>
      <trkpt lat="47.64405" lon="7.16199">
        <ele>295.03744873017</ele>
        <time>2025-10-12T08:44:59Z</time>
      </trkpt>
      <trkpt lat="47.64406" lon="7.16194">
        <ele>295.1790633377</ele>
        <time>2025-10-12T08:45:01Z</time>
      </trkpt>
      <trkpt lat="47.64407" lon="7.16192">
        <ele>295.26174445328</ele>
        <time>2025-10-12T08:45:02Z</time>
      </trkpt>
      <trkpt lat="47.64408" lon="7.16188">
        <ele>295.22595747902</ele>
        <time>2025-10-12T08:45:04Z</time>
      </trkpt>
      <trkpt lat="47.64409" lon="7.16186">
        <ele>295.20123000999</ele>
        <time>2025-10-12T08:45:05Z</time>
      </trkpt>
      <trkpt lat="47.64409" lon="7.16181">
        <ele>295.18524399718</ele>
        <time>2025-10-12T08:45:07Z</time>
      </trkpt>
      <trkpt lat="47.6441" lon="7.16177">
        <ele>295.10157156381</ele>
        <time>2025-10-12T08:45:09Z</time>
      </trkpt>
      <trkpt lat="47.6441" lon="7.16173">
        <ele>295.03999692444</ele>
        <time>2025-10-12T08:45:11Z</time>
      </trkpt>
      <trkpt lat="47.6441" lon="7.1617">
        <ele>294.7731046285</ele>
        <time>2025-10-12T08:45:21Z</time>
      </trkpt>
      <trkpt lat="47.6441" lon="7.16167">
        <ele>294.6916889183</ele>
        <time>2025-10-12T08:45:29Z</time>
      </trkpt>
      <trkpt lat="47.64411" lon="7.16162">
        <ele>294.66048427962</ele>
        <time>2025-10-12T08:45:31Z</time>
      </trkpt>
      <trkpt lat="47.64411" lon="7.16159">
        <ele>294.61942119564</ele>
        <time>2025-10-12T08:45:33Z</time>
      </trkpt>
      <trkpt lat="47.64412" lon="7.16156">
        <ele>294.58491449546</ele>
        <time>2025-10-12T08:45:35Z</time>
      </trkpt>
      <trkpt lat="47.64412" lon="7.16151">
        <ele>294.51570987036</ele>
        <time>2025-10-12T08:45:37Z</time>
      </trkpt>
      <trkpt lat="47.64412" lon="7.16147">
        <ele>294.3616761493</ele>
        <time>2025-10-12T08:45:39Z</time>
      </trkpt>
      <trkpt lat="47.64413" lon="7.16144">
        <ele>294.28426423006</ele>
        <time>2025-10-12T08:45:41Z</time>
      </trkpt>
      <trkpt lat="47.64413" lon="7.1614">
        <ele>294.23507336282</ele>
        <time>2025-10-12T08:45:43Z</time>
      </trkpt>
      <trkpt lat="47.64414" lon="7.16135">
        <ele>294.16836410796</ele>
        <time>2025-10-12T08:45:45Z</time>
      </trkpt>
      <trkpt lat="47.64415" lon="7.16131">
        <ele>294.22338396609</ele>
        <time>2025-10-12T08:45:47Z</time>
      </trkpt>
      <trkpt lat="47.64416" lon="7.16127">
        <ele>294.29181319299</ele>
        <time>2025-10-12T08:45:49Z</time>
      </trkpt>
      <trkpt lat="47.64416" lon="7.16122">
        <ele>294.36410637198</ele>
        <time>2025-10-12T08:45:51Z</time>
      </trkpt>
      <trkpt lat="47.64417" lon="7.16119">
        <ele>294.37626926452</ele>
        <time>2025-10-12T08:45:52Z</time>
      </trkpt>
      <trkpt lat="47.64417" lon="7.16116">
        <ele>294.4174243824</ele>
        <time>2025-10-12T08:45:54Z</time>
      </trkpt>
      <trkpt lat="47.64416" lon="7.16111">
        <ele>294.37911462011</ele>
        <time>2025-10-12T08:45:56Z</time>
      </trkpt>
      <trkpt lat="47.64416" lon="7.16107">
        <ele>294.24859297268</ele>
        <time>2025-10-12T08:45:58Z</time>
      </trkpt>
      <trkpt lat="47.64416" lon="7.16104">
        <ele>294.0928611815</ele>
        <time>2025-10-12T08:46:00Z</time>
      </trkpt>
      <trkpt lat="47.64416" lon="7.16101">
        <ele>294.05501327574</ele>
        <time>2025-10-12T08:46:01Z</time>
      </trkpt>
      <trkpt lat="47.64417" lon="7.16098">
        <ele>293.96200082398</ele>
        <time>2025-10-12T08:46:03Z</time>
      </trkpt>
      <trkpt lat="47.64417" lon="7.16096">
        <ele>293.93901281128</ele>
        <time>2025-10-12T08:46:04Z</time>
      </trkpt>
      <trkpt lat="47.64418" lon="7.16092">
        <ele>293.86438635156</ele>
        <time>2025-10-12T08:46:06Z</time>
      </trkpt>
      <trkpt lat="47.64419" lon="7.16088">
        <ele>293.75434809478</ele>
        <time>2025-10-12T08:46:08Z</time>
      </trkpt>
      <trkpt lat="47.64419" lon="7.16085">
        <ele>293.65933932598</ele>
        <time>2025-10-12T08:46:10Z</time>
      </trkpt>
      <trkpt lat="47.6442" lon="7.16081">
        <ele>293.56637599366</ele>
        <time>2025-10-12T08:46:12Z</time>
      </trkpt>
      <trkpt lat="47.64421" lon="7.16077">
        <ele>293.51328876757</ele>
        <time>2025-10-12T08:46:14Z</time>
      </trkpt>
      <trkpt lat="47.64422" lon="7.16074">
        <ele>293.46416811259</ele>
        <time>2025-10-12T08:46:16Z</time>
      </trkpt>
      <trkpt lat="47.64422" lon="7.16071">
        <ele>293.38278457206</ele>
        <time>2025-10-12T08:46:18Z</time>
      </trkpt>
      <trkpt lat="47.64424" lon="7.16067">
        <ele>293.33841818538</ele>
        <time>2025-10-12T08:46:20Z</time>
      </trkpt>
      <trkpt lat="47.64424" lon="7.16064">
        <ele>293.29893848297</ele>
        <time>2025-10-12T08:46:21Z</time>
      </trkpt>
      <trkpt lat="47.64424" lon="7.16061">
        <ele>293.20298347205</ele>
        <time>2025-10-12T08:46:23Z</time>
      </trkpt>
      <trkpt lat="47.64425" lon="7.16056">
        <ele>293.08301177594</ele>
        <time>2025-10-12T08:46:25Z</time>
      </trkpt>
      <trkpt lat="47.64425" lon="7.16052">
        <ele>292.9129219833</ele>
        <time>2025-10-12T08:46:27Z</time>
      </trkpt>
      <trkpt lat="47.64425" lon="7.16048">
        <ele>292.74022163469</ele>
        <time>2025-10-12T08:46:29Z</time>
      </trkpt>
      <trkpt lat="47.64424" lon="7.16043">
        <ele>292.49190100327</ele>
        <time>2025-10-12T08:46:31Z</time>
      </trkpt>
      <trkpt lat="47.64424" lon="7.16039">
        <ele>292.36075416171</ele>
        <time>2025-10-12T08:46:33Z</time>
      </trkpt>
      <trkpt lat="47.64424" lon="7.16034">
        <ele>292.06710199505</ele>
        <time>2025-10-12T08:46:35Z</time>
      </trkpt>
      <trkpt lat="47.64424" lon="7.16031">
        <ele>291.9488637487</ele>
        <time>2025-10-12T08:46:36Z</time>
      </trkpt>
      <trkpt lat="47.64424" lon="7.16027">
        <ele>291.72576598887</ele>
        <time>2025-10-12T08:46:38Z</time>
      </trkpt>
      <trkpt lat="47.64423" lon="7.16023">
        <ele>291.55220047758</ele>
        <time>2025-10-12T08:46:40Z</time>
      </trkpt>
      <trkpt lat="47.64424" lon="7.1602">
        <ele>291.43781925362</ele>
        <time>2025-10-12T08:46:42Z</time>
      </trkpt>
      <trkpt lat="47.64424" lon="7.16014">
        <ele>291.28859347116</ele>
        <time>2025-10-12T08:46:44Z</time>
      </trkpt>
      <trkpt lat="47.64425" lon="7.1601">
        <ele>291.13695656002</ele>
        <time>2025-10-12T08:46:46Z</time>
      </trkpt>
      <trkpt lat="47.64424" lon="7.16006">
        <ele>290.99098920214</ele>
        <time>2025-10-12T08:46:48Z</time>
      </trkpt>
      <trkpt lat="47.64424" lon="7.16002">
        <ele>290.82134807104</ele>
        <time>2025-10-12T08:46:50Z</time>
      </trkpt>
      <trkpt lat="47.64423" lon="7.15998">
        <ele>290.66485429645</ele>
        <time>2025-10-12T08:46:52Z</time>
      </trkpt>
      <trkpt lat="47.64421" lon="7.15993">
        <ele>290.44460375079</ele>
        <time>2025-10-12T08:46:54Z</time>
      </trkpt>
      <trkpt lat="47.6442" lon="7.1599">
        <ele>290.29500015474</ele>
        <time>2025-10-12T08:46:55Z</time>
      </trkpt>
      <trkpt lat="47.64419" lon="7.15988">
        <ele>290.14095288107</ele>
        <time>2025-10-12T08:46:56Z</time>
      </trkpt>
      <trkpt lat="47.64417" lon="7.15985">
        <ele>290.01510809023</ele>
        <time>2025-10-12T08:46:57Z</time>
      </trkpt>
      <trkpt lat="47.64416" lon="7.15983">
        <ele>289.88472270783</ele>
        <time>2025-10-12T08:46:58Z</time>
      </trkpt>
      <trkpt lat="47.64414" lon="7.15979">
        <ele>289.68031134604</ele>
        <time>2025-10-12T08:47:00Z</time>
      </trkpt>
      <trkpt lat="47.64413" lon="7.15977">
        <ele>289.59836522579</ele>
        <time>2025-10-12T08:47:01Z</time>
      </trkpt>
      <trkpt lat="47.64412" lon="7.15972">
        <ele>289.45726252952</ele>
        <time>2025-10-12T08:47:03Z</time>
      </trkpt>
      <trkpt lat="47.64411" lon="7.1597">
        <ele>289.40445389883</ele>
        <time>2025-10-12T08:47:04Z</time>
      </trkpt>
      <trkpt lat="47.64409" lon="7.15968">
        <ele>289.34498297228</ele>
        <time>2025-10-12T08:47:05Z</time>
      </trkpt>
      <trkpt lat="47.64408" lon="7.15966">
        <ele>289.28987206127</ele>
        <time>2025-10-12T08:47:06Z</time>
      </trkpt>
      <trkpt lat="47.64405" lon="7.15963">
        <ele>289.23353093039</ele>
        <time>2025-10-12T08:47:08Z</time>
      </trkpt>
      <trkpt lat="47.64403" lon="7.15959">
        <ele>289.18219145707</ele>
        <time>2025-10-12T08:47:10Z</time>
      </trkpt>
      <trkpt lat="47.64402" lon="7.15954">
        <ele>289.12696889486</ele>
        <time>2025-10-12T08:47:12Z</time>
      </trkpt>
      <trkpt lat="47.64401" lon="7.15952">
        <ele>289.09343021904</ele>
        <time>2025-10-12T08:47:14Z</time>
      </trkpt>
      <trkpt lat="47.64399" lon="7.15947">
        <ele>289.07305027662</ele>
        <time>2025-10-12T08:47:16Z</time>
      </trkpt>
      <trkpt lat="47.64398" lon="7.15943">
        <ele>289.06105540053</ele>
        <time>2025-10-12T08:47:18Z</time>
      </trkpt>
      <trkpt lat="47.64397" lon="7.1594">
        <ele>289.08383037831</ele>
        <time>2025-10-12T08:47:19Z</time>
      </trkpt>
      <trkpt lat="47.64396" lon="7.15938">
        <ele>289.13862252453</ele>
        <time>2025-10-12T08:47:20Z</time>
      </trkpt>
      <trkpt lat="47.64394" lon="7.15935">
        <ele>289.23183166744</ele>
        <time>2025-10-12T08:47:22Z</time>
      </trkpt>
      <trkpt lat="47.64392" lon="7.1593">
        <ele>289.30624032137</ele>
        <time>2025-10-12T08:47:24Z</time>
      </trkpt>
      <trkpt lat="47.64391" lon="7.15927">
        <ele>289.35814773799</ele>
        <time>2025-10-12T08:47:26Z</time>
      </trkpt>
      <trkpt lat="47.64389" lon="7.15924">
        <ele>289.39086499331</ele>
        <time>2025-10-12T08:47:28Z</time>
      </trkpt>
      <trkpt lat="47.64387" lon="7.15921">
        <ele>289.3999290433</ele>
        <time>2025-10-12T08:47:30Z</time>
      </trkpt>
      <trkpt lat="47.64385" lon="7.15918">
        <ele>289.4000196838</ele>
        <time>2025-10-12T08:47:32Z</time>
      </trkpt>
      <trkpt lat="47.64383" lon="7.15914">
        <ele>289.42756880798</ele>
        <time>2025-10-12T08:47:34Z</time>
      </trkpt>
      <trkpt lat="47.64381" lon="7.15911">
        <ele>289.53545812979</ele>
        <time>2025-10-12T08:47:36Z</time>
      </trkpt>
      <trkpt lat="47.64379" lon="7.15909">
        <ele>289.61501511139</ele>
        <time>2025-10-12T08:47:38Z</time>
      </trkpt>
      <trkpt lat="47.64378" lon="7.15905">
        <ele>289.7706519898</ele>
        <time>2025-10-12T08:47:40Z</time>
      </trkpt>
      <trkpt lat="47.64377" lon="7.159">
        <ele>289.90288523846</ele>
        <time>2025-10-12T08:47:42Z</time>
      </trkpt>
      <trkpt lat="47.64377" lon="7.15897">
        <ele>289.98924138945</ele>
        <time>2025-10-12T08:47:43Z</time>
      </trkpt>
      <trkpt lat="47.64375" lon="7.15895">
        <ele>290.13544894008</ele>
        <time>2025-10-12T08:47:45Z</time>
      </trkpt>
      <trkpt lat="47.64373" lon="7.15891">
        <ele>290.25852142818</ele>
        <time>2025-10-12T08:47:47Z</time>
      </trkpt>
      <trkpt lat="47.64372" lon="7.15887">
        <ele>290.38744349828</ele>
        <time>2025-10-12T08:47:49Z</time>
      </trkpt>
      <trkpt lat="47.64371" lon="7.15885">
        <ele>290.56701061205</ele>
        <time>2025-10-12T08:47:51Z</time>
      </trkpt>
      <trkpt lat="47.64369" lon="7.1588">
        <ele>290.78470685691</ele>
        <time>2025-10-12T08:47:53Z</time>
      </trkpt>
      <trkpt lat="47.64368" lon="7.15877">
        <ele>291.04072293069</ele>
        <time>2025-10-12T08:47:55Z</time>
      </trkpt>
      <trkpt lat="47.64366" lon="7.15873">
        <ele>291.26402039612</ele>
        <time>2025-10-12T08:47:57Z</time>
      </trkpt>
      <trkpt lat="47.64364" lon="7.15871">
        <ele>291.52231996013</ele>
        <time>2025-10-12T08:47:59Z</time>
      </trkpt>
      <trkpt lat="47.64364" lon="7.15867">
        <ele>291.75109497237</ele>
        <time>2025-10-12T08:48:01Z</time>
      </trkpt>
      <trkpt lat="47.64362" lon="7.15864">
        <ele>291.9931922928</ele>
        <time>2025-10-12T08:48:03Z</time>
      </trkpt>
      <trkpt lat="47.64363" lon="7.15861">
        <ele>292.26193559267</ele>
        <time>2025-10-12T08:48:05Z</time>
      </trkpt>
      <trkpt lat="47.64363" lon="7.15857">
        <ele>292.42945056856</ele>
        <time>2025-10-12T08:48:08Z</time>
      </trkpt>
      <trkpt lat="47.64365" lon="7.15854">
        <ele>292.55047603187</ele>
        <time>2025-10-12T08:48:10Z</time>
      </trkpt>
      <trkpt lat="47.64367" lon="7.15852">
        <ele>292.59147327381</ele>
        <time>2025-10-12T08:48:12Z</time>
      </trkpt>
      <trkpt lat="47.64369" lon="7.1585">
        <ele>292.59642334632</ele>
        <time>2025-10-12T08:48:14Z</time>
      </trkpt>
      <trkpt lat="47.64371" lon="7.15849">
        <ele>292.65058600623</ele>
        <time>2025-10-12T08:48:16Z</time>
      </trkpt>
      <trkpt lat="47.64374" lon="7.15848">
        <ele>292.65047669289</ele>
        <time>2025-10-12T08:48:18Z</time>
      </trkpt>
      <trkpt lat="47.64376" lon="7.15848">
        <ele>292.65237348794</ele>
        <time>2025-10-12T08:48:20Z</time>
      </trkpt>
      <trkpt lat="47.64378" lon="7.15847">
        <ele>292.59305447931</ele>
        <time>2025-10-12T08:48:28Z</time>
      </trkpt>
      <trkpt lat="47.6438" lon="7.15845">
        <ele>292.68300318426</ele>
        <time>2025-10-12T08:48:30Z</time>
      </trkpt>
      <trkpt lat="47.64383" lon="7.15845">
        <ele>292.68657234904</ele>
        <time>2025-10-12T08:48:32Z</time>
      </trkpt>
      <trkpt lat="47.64384" lon="7.15843">
        <ele>292.67875206828</ele>
        <time>2025-10-12T08:48:33Z</time>
      </trkpt>
      <trkpt lat="47.64386" lon="7.15842">
        <ele>292.73823004997</ele>
        <time>2025-10-12T08:48:34Z</time>
      </trkpt>
      <trkpt lat="47.64389" lon="7.15841">
        <ele>292.8306692344</ele>
        <time>2025-10-12T08:48:36Z</time>
      </trkpt>
      <trkpt lat="47.64392" lon="7.15841">
        <ele>292.82803954909</ele>
        <time>2025-10-12T08:48:38Z</time>
      </trkpt>
      <trkpt lat="47.64393" lon="7.15839">
        <ele>292.89810602568</ele>
        <time>2025-10-12T08:48:40Z</time>
      </trkpt>
      <trkpt lat="47.64396" lon="7.15839">
        <ele>292.94530907082</ele>
        <time>2025-10-12T08:48:42Z</time>
      </trkpt>
      <trkpt lat="47.64399" lon="7.15838">
        <ele>293.02322098164</ele>
        <time>2025-10-12T08:48:44Z</time>
      </trkpt>
      <trkpt lat="47.64402" lon="7.15836">
        <ele>293.13143540348</ele>
        <time>2025-10-12T08:48:46Z</time>
      </trkpt>
      <trkpt lat="47.64404" lon="7.15836">
        <ele>293.20656539926</ele>
        <time>2025-10-12T08:48:48Z</time>
      </trkpt>
      <trkpt lat="47.64407" lon="7.15835">
        <ele>293.24934764404</ele>
        <time>2025-10-12T08:48:50Z</time>
      </trkpt>
      <trkpt lat="47.6441" lon="7.15834">
        <ele>293.30484443622</ele>
        <time>2025-10-12T08:48:52Z</time>
      </trkpt>
      <trkpt lat="47.64412" lon="7.15833">
        <ele>293.35114647445</ele>
        <time>2025-10-12T08:48:54Z</time>
      </trkpt>
      <trkpt lat="47.64414" lon="7.15832">
        <ele>293.45297485128</ele>
        <time>2025-10-12T08:48:56Z</time>
      </trkpt>
      <trkpt lat="47.64417" lon="7.15831">
        <ele>293.5293565994</ele>
        <time>2025-10-12T08:48:58Z</time>
      </trkpt>
      <trkpt lat="47.64419" lon="7.1583">
        <ele>293.58084154726</ele>
        <time>2025-10-12T08:49:00Z</time>
      </trkpt>
      <trkpt lat="47.64421" lon="7.15828">
        <ele>293.69646839625</ele>
        <time>2025-10-12T08:49:02Z</time>
      </trkpt>
      <trkpt lat="47.64424" lon="7.15826">
        <ele>293.8027473454</ele>
        <time>2025-10-12T08:49:04Z</time>
      </trkpt>
      <trkpt lat="47.64426" lon="7.15824">
        <ele>293.9098282013</ele>
        <time>2025-10-12T08:49:06Z</time>
      </trkpt>
      <trkpt lat="47.64429" lon="7.15824">
        <ele>293.94561855331</ele>
        <time>2025-10-12T08:49:08Z</time>
      </trkpt>
      <trkpt lat="47.64432" lon="7.15824">
        <ele>293.91236378594</ele>
        <time>2025-10-12T08:49:10Z</time>
      </trkpt>
      <trkpt lat="47.64434" lon="7.15823">
        <ele>293.9110479619</ele>
        <time>2025-10-12T08:49:12Z</time>
      </trkpt>
      <trkpt lat="47.64437" lon="7.15822">
        <ele>293.90111964252</ele>
        <time>2025-10-12T08:49:14Z</time>
      </trkpt>
      <trkpt lat="47.64439" lon="7.1582">
        <ele>293.95198318892</ele>
        <time>2025-10-12T08:49:16Z</time>
      </trkpt>
      <trkpt lat="47.64442" lon="7.15818">
        <ele>294.00290808415</ele>
        <time>2025-10-12T08:49:18Z</time>
      </trkpt>
      <trkpt lat="47.64444" lon="7.15817">
        <ele>294.012236608</ele>
        <time>2025-10-12T08:49:20Z</time>
      </trkpt>
      <trkpt lat="47.64446" lon="7.15817">
        <ele>293.96378130926</ele>
        <time>2025-10-12T08:49:22Z</time>
      </trkpt>
      <trkpt lat="47.64449" lon="7.15816">
        <ele>293.91075464201</ele>
        <time>2025-10-12T08:49:24Z</time>
      </trkpt>
      <trkpt lat="47.64452" lon="7.15816">
        <ele>293.79084418735</ele>
        <time>2025-10-12T08:49:26Z</time>
      </trkpt>
      <trkpt lat="47.64454" lon="7.15815">
        <ele>293.744065554</ele>
        <time>2025-10-12T08:49:28Z</time>
      </trkpt>
      <trkpt lat="47.64456" lon="7.15813">
        <ele>293.69828465731</ele>
        <time>2025-10-12T08:49:30Z</time>
      </trkpt>
      <trkpt lat="47.64459" lon="7.15812">
        <ele>293.67842499287</ele>
        <time>2025-10-12T08:49:32Z</time>
      </trkpt>
      <trkpt lat="47.64461" lon="7.15811">
        <ele>293.63704414525</ele>
        <time>2025-10-12T08:49:34Z</time>
      </trkpt>
      <trkpt lat="47.64463" lon="7.15809">
        <ele>293.61230111314</ele>
        <time>2025-10-12T08:49:36Z</time>
      </trkpt>
      <trkpt lat="47.64465" lon="7.15807">
        <ele>293.59004532101</ele>
        <time>2025-10-12T08:49:38Z</time>
      </trkpt>
      <trkpt lat="47.64468" lon="7.15805">
        <ele>293.59379706728</ele>
        <time>2025-10-12T08:49:40Z</time>
      </trkpt>
      <trkpt lat="47.64471" lon="7.15805">
        <ele>293.54947179178</ele>
        <time>2025-10-12T08:49:42Z</time>
      </trkpt>
      <trkpt lat="47.64473" lon="7.15802">
        <ele>293.54611166891</ele>
        <time>2025-10-12T08:49:44Z</time>
      </trkpt>
      <trkpt lat="47.64476" lon="7.15801">
        <ele>293.58279986944</ele>
        <time>2025-10-12T08:49:46Z</time>
      </trkpt>
      <trkpt lat="47.64479" lon="7.15799">
        <ele>293.61329400974</ele>
        <time>2025-10-12T08:49:48Z</time>
      </trkpt>
      <trkpt lat="47.64481" lon="7.15797">
        <ele>293.65481141452</ele>
        <time>2025-10-12T08:49:50Z</time>
      </trkpt>
      <trkpt lat="47.64482" lon="7.15796">
        <ele>293.67082438791</ele>
        <time>2025-10-12T08:49:51Z</time>
      </trkpt>
      <trkpt lat="47.64485" lon="7.15794">
        <ele>293.75874609331</ele>
        <time>2025-10-12T08:49:53Z</time>
      </trkpt>
      <trkpt lat="47.64487" lon="7.15794">
        <ele>293.76822957454</ele>
        <time>2025-10-12T08:49:54Z</time>
      </trkpt>
      <trkpt lat="47.64489" lon="7.15793">
        <ele>293.68651274771</ele>
        <time>2025-10-12T08:49:56Z</time>
      </trkpt>
      <trkpt lat="47.64492" lon="7.15793">
        <ele>293.62101082602</ele>
        <time>2025-10-12T08:49:58Z</time>
      </trkpt>
      <trkpt lat="47.64495" lon="7.15792">
        <ele>293.57250760124</ele>
        <time>2025-10-12T08:50:00Z</time>
      </trkpt>
      <trkpt lat="47.64498" lon="7.1579">
        <ele>293.55223893862</ele>
        <time>2025-10-12T08:50:02Z</time>
      </trkpt>
      <trkpt lat="47.64499" lon="7.15786">
        <ele>293.65598974275</ele>
        <time>2025-10-12T08:50:05Z</time>
      </trkpt>
      <trkpt lat="47.645" lon="7.15783">
        <ele>293.78866072659</ele>
        <time>2025-10-12T08:50:06Z</time>
      </trkpt>
      <trkpt lat="47.64501" lon="7.1578">
        <ele>293.99979159451</ele>
        <time>2025-10-12T08:50:07Z</time>
      </trkpt>
      <trkpt lat="47.645" lon="7.15777">
        <ele>294.17029127798</ele>
        <time>2025-10-12T08:50:08Z</time>
      </trkpt>
      <trkpt lat="47.64499" lon="7.15774">
        <ele>294.43019339892</ele>
        <time>2025-10-12T08:50:10Z</time>
      </trkpt>
      <trkpt lat="47.64498" lon="7.1577">
        <ele>294.45418005441</ele>
        <time>2025-10-12T08:50:12Z</time>
      </trkpt>
      <trkpt lat="47.64498" lon="7.15767">
        <ele>294.47512090974</ele>
        <time>2025-10-12T08:50:14Z</time>
      </trkpt>
      <trkpt lat="47.64498" lon="7.15762">
        <ele>294.48670391448</ele>
        <time>2025-10-12T08:50:16Z</time>
      </trkpt>
      <trkpt lat="47.64499" lon="7.15758">
        <ele>294.44108366054</ele>
        <time>2025-10-12T08:50:18Z</time>
      </trkpt>
      <trkpt lat="47.64499" lon="7.15756">
        <ele>294.43799226193</ele>
        <time>2025-10-12T08:50:19Z</time>
      </trkpt>
      <trkpt lat="47.645" lon="7.15752">
        <ele>294.42284813093</ele>
        <time>2025-10-12T08:50:21Z</time>
      </trkpt>
      <trkpt lat="47.645" lon="7.15749">
        <ele>294.41715958025</ele>
        <time>2025-10-12T08:50:23Z</time>
      </trkpt>
      <trkpt lat="47.64499" lon="7.15745">
        <ele>294.42092319035</ele>
        <time>2025-10-12T08:50:25Z</time>
      </trkpt>
      <trkpt lat="47.64498" lon="7.15742">
        <ele>294.44350184967</ele>
        <time>2025-10-12T08:50:26Z</time>
      </trkpt>
      <trkpt lat="47.64498" lon="7.15739">
        <ele>294.4786808147</ele>
        <time>2025-10-12T08:50:28Z</time>
      </trkpt>
      <trkpt lat="47.64498" lon="7.15735">
        <ele>294.49134003843</ele>
        <time>2025-10-12T08:50:30Z</time>
      </trkpt>
      <trkpt lat="47.64498" lon="7.15731">
        <ele>294.5146038377</ele>
        <time>2025-10-12T08:50:32Z</time>
      </trkpt>
      <trkpt lat="47.64498" lon="7.15728">
        <ele>294.54133732164</ele>
        <time>2025-10-12T08:50:33Z</time>
      </trkpt>
      <trkpt lat="47.64497" lon="7.15724">
        <ele>294.54825505565</ele>
        <time>2025-10-12T08:50:35Z</time>
      </trkpt>
      <trkpt lat="47.64496" lon="7.15721">
        <ele>294.59111967976</ele>
        <time>2025-10-12T08:50:36Z</time>
      </trkpt>
      <trkpt lat="47.64494" lon="7.15719">
        <ele>294.73993128865</ele>
        <time>2025-10-12T08:50:37Z</time>
      </trkpt>
      <trkpt lat="47.64495" lon="7.15714">
        <ele>294.96658437911</ele>
        <time>2025-10-12T08:50:39Z</time>
      </trkpt>
      <trkpt lat="47.64494" lon="7.15712">
        <ele>295.0172269041</ele>
        <time>2025-10-12T08:50:40Z</time>
      </trkpt>
      <trkpt lat="47.64493" lon="7.15706">
        <ele>295.21963138312</ele>
        <time>2025-10-12T08:50:42Z</time>
      </trkpt>
      <trkpt lat="47.64491" lon="7.15702">
        <ele>295.41575638005</ele>
        <time>2025-10-12T08:50:44Z</time>
      </trkpt>
      <trkpt lat="47.6449" lon="7.15697">
        <ele>295.58727512514</ele>
        <time>2025-10-12T08:50:46Z</time>
      </trkpt>
      <trkpt lat="47.6449" lon="7.15693">
        <ele>295.75357100107</ele>
        <time>2025-10-12T08:50:48Z</time>
      </trkpt>
      <trkpt lat="47.64489" lon="7.15689">
        <ele>295.79048084703</ele>
        <time>2025-10-12T08:50:50Z</time>
      </trkpt>
      <trkpt lat="47.64488" lon="7.15686">
        <ele>295.82761843915</ele>
        <time>2025-10-12T08:50:52Z</time>
      </trkpt>
      <trkpt lat="47.64488" lon="7.15682">
        <ele>295.8292532428</ele>
        <time>2025-10-12T08:50:54Z</time>
      </trkpt>
      <trkpt lat="47.64487" lon="7.15678">
        <ele>295.85084673928</ele>
        <time>2025-10-12T08:50:56Z</time>
      </trkpt>
      <trkpt lat="47.64486" lon="7.15673">
        <ele>295.87699590178</ele>
        <time>2025-10-12T08:50:58Z</time>
      </trkpt>
      <trkpt lat="47.64485" lon="7.15668">
        <ele>295.91570954184</ele>
        <time>2025-10-12T08:51:00Z</time>
      </trkpt>
      <trkpt lat="47.64484" lon="7.15665">
        <ele>295.92982435689</ele>
        <time>2025-10-12T08:51:01Z</time>
      </trkpt>
      <trkpt lat="47.64483" lon="7.15661">
        <ele>296.06460544114</ele>
        <time>2025-10-12T08:51:03Z</time>
      </trkpt>
      <trkpt lat="47.64482" lon="7.15658">
        <ele>296.19722614017</ele>
        <time>2025-10-12T08:51:05Z</time>
      </trkpt>
      <trkpt lat="47.64481" lon="7.15653">
        <ele>296.32089335057</ele>
        <time>2025-10-12T08:51:07Z</time>
      </trkpt>
      <trkpt lat="47.6448" lon="7.15649">
        <ele>296.50609334055</ele>
        <time>2025-10-12T08:51:09Z</time>
      </trkpt>
      <trkpt lat="47.64478" lon="7.15645">
        <ele>296.70001656848</ele>
        <time>2025-10-12T08:51:11Z</time>
      </trkpt>
      <trkpt lat="47.64477" lon="7.15641">
        <ele>296.87375450681</ele>
        <time>2025-10-12T08:51:13Z</time>
      </trkpt>
      <trkpt lat="47.64476" lon="7.15638">
        <ele>297.05672235494</ele>
        <time>2025-10-12T08:51:15Z</time>
      </trkpt>
      <trkpt lat="47.64475" lon="7.15635">
        <ele>297.15715982151</ele>
        <time>2025-10-12T08:51:17Z</time>
      </trkpt>
      <trkpt lat="47.64474" lon="7.15631">
        <ele>297.22276380555</ele>
        <time>2025-10-12T08:51:19Z</time>
      </trkpt>
      <trkpt lat="47.64473" lon="7.15626">
        <ele>297.31198063641</ele>
        <time>2025-10-12T08:51:21Z</time>
      </trkpt>
      <trkpt lat="47.64473" lon="7.15623">
        <ele>297.33021197708</ele>
        <time>2025-10-12T08:51:23Z</time>
      </trkpt>
      <trkpt lat="47.64473" lon="7.15619">
        <ele>297.36996429781</ele>
        <time>2025-10-12T08:51:25Z</time>
      </trkpt>
      <trkpt lat="47.64472" lon="7.15614">
        <ele>297.41004169162</ele>
        <time>2025-10-12T08:51:27Z</time>
      </trkpt>
      <trkpt lat="47.64471" lon="7.15611">
        <ele>297.44241817357</ele>
        <time>2025-10-12T08:51:29Z</time>
      </trkpt>
      <trkpt lat="47.6447" lon="7.15606">
        <ele>297.47572289542</ele>
        <time>2025-10-12T08:51:31Z</time>
      </trkpt>
      <trkpt lat="47.64469" lon="7.15603">
        <ele>297.51227786647</ele>
        <time>2025-10-12T08:51:33Z</time>
      </trkpt>
      <trkpt lat="47.64467" lon="7.15598">
        <ele>297.5452590778</ele>
        <time>2025-10-12T08:51:35Z</time>
      </trkpt>
      <trkpt lat="47.64466" lon="7.15594">
        <ele>297.59514272292</ele>
        <time>2025-10-12T08:51:37Z</time>
      </trkpt>
      <trkpt lat="47.64463" lon="7.1559">
        <ele>297.65920570732</ele>
        <time>2025-10-12T08:51:39Z</time>
      </trkpt>
      <trkpt lat="47.64462" lon="7.15587">
        <ele>297.71128151739</ele>
        <time>2025-10-12T08:51:40Z</time>
      </trkpt>
      <trkpt lat="47.64461" lon="7.15584">
        <ele>297.7502995232</ele>
        <time>2025-10-12T08:51:41Z</time>
      </trkpt>
      <trkpt lat="47.64461" lon="7.15582">
        <ele>297.7926260064</ele>
        <time>2025-10-12T08:51:42Z</time>
      </trkpt>
      <trkpt lat="47.6446" lon="7.15579">
        <ele>297.78922315667</ele>
        <time>2025-10-12T08:51:43Z</time>
      </trkpt>
      <trkpt lat="47.64459" lon="7.15575">
        <ele>297.74945736371</ele>
        <time>2025-10-12T08:51:45Z</time>
      </trkpt>
      <trkpt lat="47.64458" lon="7.15573">
        <ele>297.73329801603</ele>
        <time>2025-10-12T08:51:46Z</time>
      </trkpt>
      <trkpt lat="47.64457" lon="7.15569">
        <ele>297.7345609541</ele>
        <time>2025-10-12T08:51:48Z</time>
      </trkpt>
      <trkpt lat="47.64455" lon="7.15565">
        <ele>297.74562582957</ele>
        <time>2025-10-12T08:51:50Z</time>
      </trkpt>
      <trkpt lat="47.64454" lon="7.15562">
        <ele>297.75367684698</ele>
        <time>2025-10-12T08:51:52Z</time>
      </trkpt>
      <trkpt lat="47.64454" lon="7.15559">
        <ele>297.77505710081</ele>
        <time>2025-10-12T08:51:54Z</time>
      </trkpt>
      <trkpt lat="47.64453" lon="7.15555">
        <ele>297.76345236086</ele>
        <time>2025-10-12T08:51:56Z</time>
      </trkpt>
      <trkpt lat="47.64453" lon="7.15552">
        <ele>297.74615076282</ele>
        <time>2025-10-12T08:51:57Z</time>
      </trkpt>
      <trkpt lat="47.64452" lon="7.15549">
        <ele>297.64537612707</ele>
        <time>2025-10-12T08:51:59Z</time>
      </trkpt>
      <trkpt lat="47.64453" lon="7.15544">
        <ele>297.47460214536</ele>
        <time>2025-10-12T08:52:01Z</time>
      </trkpt>
      <trkpt lat="47.64452" lon="7.15541">
        <ele>297.39220775787</ele>
        <time>2025-10-12T08:52:02Z</time>
      </trkpt>
      <trkpt lat="47.64451" lon="7.15537">
        <ele>297.28919753687</ele>
        <time>2025-10-12T08:52:04Z</time>
      </trkpt>
      <trkpt lat="47.64451" lon="7.15532">
        <ele>297.17312684628</ele>
        <time>2025-10-12T08:52:06Z</time>
      </trkpt>
      <trkpt lat="47.64451" lon="7.15529">
        <ele>297.01850636154</ele>
        <time>2025-10-12T08:52:08Z</time>
      </trkpt>
      <trkpt lat="47.64451" lon="7.15525">
        <ele>296.90862946822</ele>
        <time>2025-10-12T08:52:10Z</time>
      </trkpt>
      <trkpt lat="47.6445" lon="7.1552">
        <ele>296.81783282331</ele>
        <time>2025-10-12T08:52:12Z</time>
      </trkpt>
      <trkpt lat="47.6445" lon="7.15518">
        <ele>296.75900458055</ele>
        <time>2025-10-12T08:52:13Z</time>
      </trkpt>
      <trkpt lat="47.64449" lon="7.15515">
        <ele>296.69376811858</ele>
        <time>2025-10-12T08:52:14Z</time>
      </trkpt>
      <trkpt lat="47.64449" lon="7.15512">
        <ele>296.65675741183</ele>
        <time>2025-10-12T08:52:15Z</time>
      </trkpt>
      <trkpt lat="47.64448" lon="7.15507">
        <ele>296.56929451046</ele>
        <time>2025-10-12T08:52:17Z</time>
      </trkpt>
      <trkpt lat="47.64447" lon="7.15503">
        <ele>296.46605202256</ele>
        <time>2025-10-12T08:52:19Z</time>
      </trkpt>
      <trkpt lat="47.64446" lon="7.155">
        <ele>296.41381978661</ele>
        <time>2025-10-12T08:52:20Z</time>
      </trkpt>
      <trkpt lat="47.64445" lon="7.15498">
        <ele>296.36226172414</ele>
        <time>2025-10-12T08:52:21Z</time>
      </trkpt>
      <trkpt lat="47.64444" lon="7.15495">
        <ele>296.29756001946</ele>
        <time>2025-10-12T08:52:22Z</time>
      </trkpt>
      <trkpt lat="47.64443" lon="7.15493">
        <ele>296.24599097204</ele>
        <time>2025-10-12T08:52:23Z</time>
      </trkpt>
      <trkpt lat="47.64443" lon="7.1549">
        <ele>296.18005220695</ele>
        <time>2025-10-12T08:52:24Z</time>
      </trkpt>
      <trkpt lat="47.64442" lon="7.15486">
        <ele>296.04558000968</ele>
        <time>2025-10-12T08:52:26Z</time>
      </trkpt>
      <trkpt lat="47.64441" lon="7.15482">
        <ele>295.92648656944</ele>
        <time>2025-10-12T08:52:28Z</time>
      </trkpt>
      <trkpt lat="47.6444" lon="7.15478">
        <ele>295.8048085745</ele>
        <time>2025-10-12T08:52:30Z</time>
      </trkpt>
      <trkpt lat="47.64439" lon="7.15474">
        <ele>295.70746417003</ele>
        <time>2025-10-12T08:52:32Z</time>
      </trkpt>
      <trkpt lat="47.64438" lon="7.1547">
        <ele>295.61383478117</ele>
        <time>2025-10-12T08:52:34Z</time>
      </trkpt>
      <trkpt lat="47.64438" lon="7.15467">
        <ele>295.49973656101</ele>
        <time>2025-10-12T08:52:36Z</time>
      </trkpt>
      <trkpt lat="47.64437" lon="7.15464">
        <ele>295.42164459004</ele>
        <time>2025-10-12T08:52:38Z</time>
      </trkpt>
      <trkpt lat="47.64437" lon="7.1546">
        <ele>295.30037111662</ele>
        <time>2025-10-12T08:52:40Z</time>
      </trkpt>
      <trkpt lat="47.64436" lon="7.15457">
        <ele>295.21501409477</ele>
        <time>2025-10-12T08:52:42Z</time>
      </trkpt>
      <trkpt lat="47.64434" lon="7.15453">
        <ele>295.14919561977</ele>
        <time>2025-10-12T08:52:44Z</time>
      </trkpt>
      <trkpt lat="47.64433" lon="7.15451">
        <ele>295.09044713461</ele>
        <time>2025-10-12T08:52:45Z</time>
      </trkpt>
      <trkpt lat="47.64432" lon="7.15447">
        <ele>294.97269055075</ele>
        <time>2025-10-12T08:52:47Z</time>
      </trkpt>
      <trkpt lat="47.64431" lon="7.15442">
        <ele>294.88285057036</ele>
        <time>2025-10-12T08:52:49Z</time>
      </trkpt>
      <trkpt lat="47.6443" lon="7.1544">
        <ele>294.86073035428</ele>
        <time>2025-10-12T08:52:50Z</time>
      </trkpt>
      <trkpt lat="47.64429" lon="7.15435">
        <ele>294.80572480385</ele>
        <time>2025-10-12T08:52:52Z</time>
      </trkpt>
      <trkpt lat="47.64428" lon="7.1543">
        <ele>294.72067340557</ele>
        <time>2025-10-12T08:52:54Z</time>
      </trkpt>
      <trkpt lat="47.64427" lon="7.15427">
        <ele>294.67897613877</ele>
        <time>2025-10-12T08:52:55Z</time>
      </trkpt>
      <trkpt lat="47.64426" lon="7.15423">
        <ele>294.59094827732</ele>
        <time>2025-10-12T08:52:57Z</time>
      </trkpt>
      <trkpt lat="47.64425" lon="7.15417">
        <ele>294.49740656072</ele>
        <time>2025-10-12T08:52:59Z</time>
      </trkpt>
      <trkpt lat="47.64424" lon="7.15414">
        <ele>294.32732288915</ele>
        <time>2025-10-12T08:53:01Z</time>
      </trkpt>
      <trkpt lat="47.64423" lon="7.15409">
        <ele>294.17598277021</ele>
        <time>2025-10-12T08:53:03Z</time>
      </trkpt>
      <trkpt lat="47.64422" lon="7.15407">
        <ele>294.07620690434</ele>
        <time>2025-10-12T08:53:04Z</time>
      </trkpt>
      <trkpt lat="47.64421" lon="7.15404">
        <ele>293.91768242579</ele>
        <time>2025-10-12T08:53:06Z</time>
      </trkpt>
      <trkpt lat="47.64421" lon="7.154">
        <ele>293.82389991538</ele>
        <time>2025-10-12T08:53:08Z</time>
      </trkpt>
      <trkpt lat="47.6442" lon="7.15397">
        <ele>293.72720162179</ele>
        <time>2025-10-12T08:53:09Z</time>
      </trkpt>
      <trkpt lat="47.64419" lon="7.15394">
        <ele>293.61903936079</ele>
        <time>2025-10-12T08:53:10Z</time>
      </trkpt>
      <trkpt lat="47.64418" lon="7.1539">
        <ele>293.45516763512</ele>
        <time>2025-10-12T08:53:12Z</time>
      </trkpt>
      <trkpt lat="47.64417" lon="7.15386">
        <ele>293.35080949648</ele>
        <time>2025-10-12T08:53:14Z</time>
      </trkpt>
      <trkpt lat="47.64415" lon="7.15381">
        <ele>293.239573044</ele>
        <time>2025-10-12T08:53:16Z</time>
      </trkpt>
      <trkpt lat="47.64414" lon="7.15379">
        <ele>293.13453126375</ele>
        <time>2025-10-12T08:53:17Z</time>
      </trkpt>
      <trkpt lat="47.64413" lon="7.15376">
        <ele>293.04149229569</ele>
        <time>2025-10-12T08:53:18Z</time>
      </trkpt>
      <trkpt lat="47.64413" lon="7.15373">
        <ele>292.93278959517</ele>
        <time>2025-10-12T08:53:19Z</time>
      </trkpt>
      <trkpt lat="47.64412" lon="7.1537">
        <ele>292.76522194655</ele>
        <time>2025-10-12T08:53:21Z</time>
      </trkpt>
      <trkpt lat="47.64411" lon="7.15366">
        <ele>292.6598902642</ele>
        <time>2025-10-12T08:53:23Z</time>
      </trkpt>
      <trkpt lat="47.6441" lon="7.15362">
        <ele>292.50910702795</ele>
        <time>2025-10-12T08:53:25Z</time>
      </trkpt>
      <trkpt lat="47.6441" lon="7.15357">
        <ele>292.36376618777</ele>
        <time>2025-10-12T08:53:27Z</time>
      </trkpt>
      <trkpt lat="47.64408" lon="7.15355">
        <ele>292.2629991197</ele>
        <time>2025-10-12T08:53:29Z</time>
      </trkpt>
      <trkpt lat="47.64408" lon="7.15352">
        <ele>292.20239885869</ele>
        <time>2025-10-12T08:53:31Z</time>
      </trkpt>
      <trkpt lat="47.64407" lon="7.15348">
        <ele>292.1354821261</ele>
        <time>2025-10-12T08:53:33Z</time>
      </trkpt>
      <trkpt lat="47.64406" lon="7.15344">
        <ele>292.07179812723</ele>
        <time>2025-10-12T08:53:35Z</time>
      </trkpt>
      <trkpt lat="47.64405" lon="7.1534">
        <ele>291.99005197328</ele>
        <time>2025-10-12T08:53:37Z</time>
      </trkpt>
      <trkpt lat="47.64404" lon="7.15337">
        <ele>291.95873921144</ele>
        <time>2025-10-12T08:53:39Z</time>
      </trkpt>
      <trkpt lat="47.64403" lon="7.15333">
        <ele>291.92662887852</ele>
        <time>2025-10-12T08:53:42Z</time>
      </trkpt>
      <trkpt lat="47.64402" lon="7.15329">
        <ele>291.90299755862</ele>
        <time>2025-10-12T08:53:44Z</time>
      </trkpt>
      <trkpt lat="47.64401" lon="7.15325">
        <ele>291.94885713165</ele>
        <time>2025-10-12T08:53:46Z</time>
      </trkpt>
      <trkpt lat="47.64399" lon="7.15321">
        <ele>292.00357170883</ele>
        <time>2025-10-12T08:53:48Z</time>
      </trkpt>
      <trkpt lat="47.64398" lon="7.15319">
        <ele>292.03325779039</ele>
        <time>2025-10-12T08:53:49Z</time>
      </trkpt>
      <trkpt lat="47.64397" lon="7.15317">
        <ele>292.06017659386</ele>
        <time>2025-10-12T08:53:50Z</time>
      </trkpt>
      <trkpt lat="47.64397" lon="7.15314">
        <ele>292.09706342049</ele>
        <time>2025-10-12T08:53:51Z</time>
      </trkpt>
      <trkpt lat="47.64397" lon="7.1531">
        <ele>292.1132490514</ele>
        <time>2025-10-12T08:53:52Z</time>
      </trkpt>
      <trkpt lat="47.64396" lon="7.15308">
        <ele>292.12047064183</ele>
        <time>2025-10-12T08:53:53Z</time>
      </trkpt>
      <trkpt lat="47.64395" lon="7.15305">
        <ele>292.15115801084</ele>
        <time>2025-10-12T08:53:54Z</time>
      </trkpt>
      <trkpt lat="47.64395" lon="7.15302">
        <ele>292.16801458954</ele>
        <time>2025-10-12T08:53:55Z</time>
      </trkpt>
      <trkpt lat="47.64395" lon="7.15299">
        <ele>292.20265923178</ele>
        <time>2025-10-12T08:53:56Z</time>
      </trkpt>
      <trkpt lat="47.64394" lon="7.15296">
        <ele>292.23792911593</ele>
        <time>2025-10-12T08:53:57Z</time>
      </trkpt>
      <trkpt lat="47.64393" lon="7.15292">
        <ele>292.30369204293</ele>
        <time>2025-10-12T08:53:59Z</time>
      </trkpt>
      <trkpt lat="47.64393" lon="7.15287">
        <ele>292.33166717708</ele>
        <time>2025-10-12T08:54:01Z</time>
      </trkpt>
      <trkpt lat="47.64392" lon="7.15284">
        <ele>292.36407644503</ele>
        <time>2025-10-12T08:54:03Z</time>
      </trkpt>
      <trkpt lat="47.64391" lon="7.15281">
        <ele>292.3819182379</ele>
        <time>2025-10-12T08:54:05Z</time>
      </trkpt>
      <trkpt lat="47.6439" lon="7.15276">
        <ele>292.39730722712</ele>
        <time>2025-10-12T08:54:07Z</time>
      </trkpt>
      <trkpt lat="47.64389" lon="7.15272">
        <ele>292.39999346564</ele>
        <time>2025-10-12T08:54:09Z</time>
      </trkpt>
      <trkpt lat="47.64387" lon="7.15268">
        <ele>292.43398730801</ele>
        <time>2025-10-12T08:54:11Z</time>
      </trkpt>
      <trkpt lat="47.64386" lon="7.15265">
        <ele>292.46845352817</ele>
        <time>2025-10-12T08:54:13Z</time>
      </trkpt>
      <trkpt lat="47.64385" lon="7.15261">
        <ele>292.5176461518</ele>
        <time>2025-10-12T08:54:15Z</time>
      </trkpt>
      <trkpt lat="47.64383" lon="7.15257">
        <ele>292.57730220157</ele>
        <time>2025-10-12T08:54:17Z</time>
      </trkpt>
      <trkpt lat="47.64382" lon="7.15252">
        <ele>292.62676594957</ele>
        <time>2025-10-12T08:54:19Z</time>
      </trkpt>
      <trkpt lat="47.64381" lon="7.15247">
        <ele>292.66065353138</ele>
        <time>2025-10-12T08:54:21Z</time>
      </trkpt>
      <trkpt lat="47.64382" lon="7.15244">
        <ele>292.73817800878</ele>
        <time>2025-10-12T08:54:22Z</time>
      </trkpt>
      <trkpt lat="47.64381" lon="7.1524">
        <ele>292.89091773742</ele>
        <time>2025-10-12T08:54:24Z</time>
      </trkpt>
      <trkpt lat="47.6438" lon="7.15236">
        <ele>293.00164099653</ele>
        <time>2025-10-12T08:54:26Z</time>
      </trkpt>
      <trkpt lat="47.64379" lon="7.15233">
        <ele>293.09484661779</ele>
        <time>2025-10-12T08:54:28Z</time>
      </trkpt>
      <trkpt lat="47.64378" lon="7.15229">
        <ele>293.19416124236</ele>
        <time>2025-10-12T08:54:30Z</time>
      </trkpt>
      <trkpt lat="47.64378" lon="7.15225">
        <ele>293.29085079974</ele>
        <time>2025-10-12T08:54:32Z</time>
      </trkpt>
      <trkpt lat="47.64377" lon="7.15221">
        <ele>293.38043891113</ele>
        <time>2025-10-12T08:54:34Z</time>
      </trkpt>
      <trkpt lat="47.64376" lon="7.15217">
        <ele>293.43944697487</ele>
        <time>2025-10-12T08:54:36Z</time>
      </trkpt>
      <trkpt lat="47.64376" lon="7.15213">
        <ele>293.51231885482</ele>
        <time>2025-10-12T08:54:38Z</time>
      </trkpt>
      <trkpt lat="47.64376" lon="7.15209">
        <ele>293.59876565223</ele>
        <time>2025-10-12T08:54:40Z</time>
      </trkpt>
      <trkpt lat="47.64377" lon="7.15206">
        <ele>293.63892821591</ele>
        <time>2025-10-12T08:54:42Z</time>
      </trkpt>
      <trkpt lat="47.64379" lon="7.15204">
        <ele>293.65212342065</ele>
        <time>2025-10-12T08:54:44Z</time>
      </trkpt>
      <trkpt lat="47.64381" lon="7.15202">
        <ele>293.63373791664</ele>
        <time>2025-10-12T08:54:46Z</time>
      </trkpt>
      <trkpt lat="47.64384" lon="7.152">
        <ele>293.56972624178</ele>
        <time>2025-10-12T08:54:48Z</time>
      </trkpt>
      <trkpt lat="47.64387" lon="7.15198">
        <ele>293.50445904983</ele>
        <time>2025-10-12T08:54:50Z</time>
      </trkpt>
      <trkpt lat="47.64389" lon="7.15198">
        <ele>293.42867637303</ele>
        <time>2025-10-12T08:54:52Z</time>
      </trkpt>
      <trkpt lat="47.64392" lon="7.15197">
        <ele>293.35425521618</ele>
        <time>2025-10-12T08:54:54Z</time>
      </trkpt>
      <trkpt lat="47.64395" lon="7.15195">
        <ele>293.23479823606</ele>
        <time>2025-10-12T08:54:56Z</time>
      </trkpt>
      <trkpt lat="47.64397" lon="7.15195">
        <ele>293.17989423706</ele>
        <time>2025-10-12T08:54:57Z</time>
      </trkpt>
      <trkpt lat="47.644" lon="7.15194">
        <ele>293.05540020732</ele>
        <time>2025-10-12T08:54:59Z</time>
      </trkpt>
      <trkpt lat="47.64402" lon="7.15194">
        <ele>292.9980933502</ele>
        <time>2025-10-12T08:55:00Z</time>
      </trkpt>
      <trkpt lat="47.64405" lon="7.15192">
        <ele>292.93375981076</ele>
        <time>2025-10-12T08:55:02Z</time>
      </trkpt>
      <trkpt lat="47.64408" lon="7.15191">
        <ele>292.89132722976</ele>
        <time>2025-10-12T08:55:04Z</time>
      </trkpt>
      <trkpt lat="47.64411" lon="7.15191">
        <ele>292.81006000844</ele>
        <time>2025-10-12T08:55:06Z</time>
      </trkpt>
      <trkpt lat="47.64414" lon="7.15189">
        <ele>292.71788777812</ele>
        <time>2025-10-12T08:55:08Z</time>
      </trkpt>
      <trkpt lat="47.64416" lon="7.15188">
        <ele>292.6743995275</ele>
        <time>2025-10-12T08:55:10Z</time>
      </trkpt>
      <trkpt lat="47.64419" lon="7.15186">
        <ele>292.64390055808</ele>
        <time>2025-10-12T08:55:12Z</time>
      </trkpt>
      <trkpt lat="47.64422" lon="7.15185">
        <ele>292.67176577297</ele>
        <time>2025-10-12T08:55:13Z</time>
      </trkpt>
      <trkpt lat="47.64425" lon="7.15182">
        <ele>292.69744080989</ele>
        <time>2025-10-12T08:55:15Z</time>
      </trkpt>
      <trkpt lat="47.64428" lon="7.15181">
        <ele>292.70930461592</ele>
        <time>2025-10-12T08:55:17Z</time>
      </trkpt>
      <trkpt lat="47.6443" lon="7.15179">
        <ele>292.7034137325</ele>
        <time>2025-10-12T08:55:19Z</time>
      </trkpt>
      <trkpt lat="47.64433" lon="7.15178">
        <ele>292.68218416937</ele>
        <time>2025-10-12T08:55:21Z</time>
      </trkpt>
      <trkpt lat="47.64435" lon="7.15175">
        <ele>292.64962812374</ele>
        <time>2025-10-12T08:55:23Z</time>
      </trkpt>
      <trkpt lat="47.64437" lon="7.15174">
        <ele>292.61961750469</ele>
        <time>2025-10-12T08:55:25Z</time>
      </trkpt>
      <trkpt lat="47.6444" lon="7.15173">
        <ele>292.56649238629</ele>
        <time>2025-10-12T08:55:27Z</time>
      </trkpt>
      <trkpt lat="47.64443" lon="7.15171">
        <ele>292.49762342759</ele>
        <time>2025-10-12T08:55:29Z</time>
      </trkpt>
      <trkpt lat="47.64445" lon="7.1517">
        <ele>292.41677299483</ele>
        <time>2025-10-12T08:55:31Z</time>
      </trkpt>
      <trkpt lat="47.64447" lon="7.15169">
        <ele>292.3931898323</ele>
        <time>2025-10-12T08:55:33Z</time>
      </trkpt>
      <trkpt lat="47.6445" lon="7.15168">
        <ele>292.38875722334</ele>
        <time>2025-10-12T08:55:35Z</time>
      </trkpt>
      <trkpt lat="47.64451" lon="7.15167">
        <ele>292.39230246489</ele>
        <time>2025-10-12T08:55:36Z</time>
      </trkpt>
      <trkpt lat="47.64454" lon="7.15165">
        <ele>292.4155522437</ele>
        <time>2025-10-12T08:55:38Z</time>
      </trkpt>
      <trkpt lat="47.64457" lon="7.15163">
        <ele>292.45785139188</ele>
        <time>2025-10-12T08:55:40Z</time>
      </trkpt>
      <trkpt lat="47.64459" lon="7.15162">
        <ele>292.47432815534</ele>
        <time>2025-10-12T08:55:42Z</time>
      </trkpt>
      <trkpt lat="47.64462" lon="7.15161">
        <ele>292.47715710754</ele>
        <time>2025-10-12T08:55:44Z</time>
      </trkpt>
      <trkpt lat="47.64463" lon="7.1516">
        <ele>292.47692065155</ele>
        <time>2025-10-12T08:55:45Z</time>
      </trkpt>
      <trkpt lat="47.64466" lon="7.15158">
        <ele>292.47717204618</ele>
        <time>2025-10-12T08:55:47Z</time>
      </trkpt>
      <trkpt lat="47.64469" lon="7.15157">
        <ele>292.46134875446</ele>
        <time>2025-10-12T08:55:49Z</time>
      </trkpt>
      <trkpt lat="47.64471" lon="7.15155">
        <ele>292.44938461605</ele>
        <time>2025-10-12T08:55:50Z</time>
      </trkpt>
      <trkpt lat="47.64473" lon="7.15153">
        <ele>292.40663087772</ele>
        <time>2025-10-12T08:55:52Z</time>
      </trkpt>
      <trkpt lat="47.64475" lon="7.15151">
        <ele>292.37040164355</ele>
        <time>2025-10-12T08:55:54Z</time>
      </trkpt>
      <trkpt lat="47.64478" lon="7.15149">
        <ele>292.34485319399</ele>
        <time>2025-10-12T08:55:56Z</time>
      </trkpt>
      <trkpt lat="47.6448" lon="7.15148">
        <ele>292.32471320941</ele>
        <time>2025-10-12T08:55:57Z</time>
      </trkpt>
      <trkpt lat="47.64483" lon="7.15147">
        <ele>292.28785791853</ele>
        <time>2025-10-12T08:55:59Z</time>
      </trkpt>
      <trkpt lat="47.64485" lon="7.15147">
        <ele>292.27949036644</ele>
        <time>2025-10-12T08:56:00Z</time>
      </trkpt>
      <trkpt lat="47.64488" lon="7.15144">
        <ele>292.27841063395</ele>
        <time>2025-10-12T08:56:02Z</time>
      </trkpt>
      <trkpt lat="47.6449" lon="7.15142">
        <ele>292.32266649922</ele>
        <time>2025-10-12T08:56:04Z</time>
      </trkpt>
      <trkpt lat="47.64492" lon="7.15141">
        <ele>292.34591942165</ele>
        <time>2025-10-12T08:56:06Z</time>
      </trkpt>
      <trkpt lat="47.64495" lon="7.15138">
        <ele>292.37852865985</ele>
        <time>2025-10-12T08:56:08Z</time>
      </trkpt>
      <trkpt lat="47.64497" lon="7.15137">
        <ele>292.41316986733</ele>
        <time>2025-10-12T08:56:09Z</time>
      </trkpt>
      <trkpt lat="47.64498" lon="7.15135">
        <ele>292.47233467167</ele>
        <time>2025-10-12T08:56:10Z</time>
      </trkpt>
      <trkpt lat="47.64501" lon="7.15133">
        <ele>292.57187777329</ele>
        <time>2025-10-12T08:56:12Z</time>
      </trkpt>
      <trkpt lat="47.64504" lon="7.15132">
        <ele>292.63187253292</ele>
        <time>2025-10-12T08:56:14Z</time>
      </trkpt>
      <trkpt lat="47.64507" lon="7.15131">
        <ele>292.68084528325</ele>
        <time>2025-10-12T08:56:16Z</time>
      </trkpt>
      <trkpt lat="47.6451" lon="7.15129">
        <ele>292.71276140236</ele>
        <time>2025-10-12T08:56:18Z</time>
      </trkpt>
      <trkpt lat="47.64512" lon="7.15126">
        <ele>292.78716137409</ele>
        <time>2025-10-12T08:56:20Z</time>
      </trkpt>
      <trkpt lat="47.64516" lon="7.15125">
        <ele>292.88752665067</ele>
        <time>2025-10-12T08:56:22Z</time>
      </trkpt>
      <trkpt lat="47.64517" lon="7.15124">
        <ele>292.90679122403</ele>
        <time>2025-10-12T08:56:23Z</time>
      </trkpt>
      <trkpt lat="47.64519" lon="7.15123">
        <ele>292.93736453195</ele>
        <time>2025-10-12T08:56:24Z</time>
      </trkpt>
      <trkpt lat="47.64521" lon="7.15123">
        <ele>292.95750560298</ele>
        <time>2025-10-12T08:56:25Z</time>
      </trkpt>
      <trkpt lat="47.64523" lon="7.15122">
        <ele>292.97657598449</ele>
        <time>2025-10-12T08:56:26Z</time>
      </trkpt>
      <trkpt lat="47.64526" lon="7.15121">
        <ele>293.02804079189</ele>
        <time>2025-10-12T08:56:28Z</time>
      </trkpt>
      <trkpt lat="47.64529" lon="7.1512">
        <ele>293.05809492971</ele>
        <time>2025-10-12T08:56:30Z</time>
      </trkpt>
      <trkpt lat="47.64531" lon="7.15119">
        <ele>293.09916238299</ele>
        <time>2025-10-12T08:56:31Z</time>
      </trkpt>
      <trkpt lat="47.64534" lon="7.15116">
        <ele>293.20921172423</ele>
        <time>2025-10-12T08:56:33Z</time>
      </trkpt>
      <trkpt lat="47.64536" lon="7.15115">
        <ele>293.27423891442</ele>
        <time>2025-10-12T08:56:35Z</time>
      </trkpt>
      <trkpt lat="47.64538" lon="7.15114">
        <ele>293.30345195236</ele>
        <time>2025-10-12T08:56:36Z</time>
      </trkpt>
      <trkpt lat="47.64541" lon="7.15112">
        <ele>293.36055332598</ele>
        <time>2025-10-12T08:56:38Z</time>
      </trkpt>
      <trkpt lat="47.64544" lon="7.15111">
        <ele>293.38603034558</ele>
        <time>2025-10-12T08:56:40Z</time>
      </trkpt>
      <trkpt lat="47.64546" lon="7.15109">
        <ele>293.41070223003</ele>
        <time>2025-10-12T08:56:42Z</time>
      </trkpt>
      <trkpt lat="47.64549" lon="7.15107">
        <ele>293.48147018911</ele>
        <time>2025-10-12T08:56:44Z</time>
      </trkpt>
      <trkpt lat="47.64552" lon="7.15104">
        <ele>293.56094434819</ele>
        <time>2025-10-12T08:56:46Z</time>
      </trkpt>
      <trkpt lat="47.64555" lon="7.15103">
        <ele>293.64200520306</ele>
        <time>2025-10-12T08:56:48Z</time>
      </trkpt>
      <trkpt lat="47.64558" lon="7.15101">
        <ele>293.72610865829</ele>
        <time>2025-10-12T08:56:50Z</time>
      </trkpt>
      <trkpt lat="47.64561" lon="7.151">
        <ele>293.85892295945</ele>
        <time>2025-10-12T08:56:52Z</time>
      </trkpt>
      <trkpt lat="47.64564" lon="7.15099">
        <ele>293.9605013466</ele>
        <time>2025-10-12T08:56:54Z</time>
      </trkpt>
      <trkpt lat="47.64567" lon="7.15097">
        <ele>294.06020182285</ele>
        <time>2025-10-12T08:56:56Z</time>
      </trkpt>
      <trkpt lat="47.64569" lon="7.15095">
        <ele>294.13637552439</ele>
        <time>2025-10-12T08:56:58Z</time>
      </trkpt>
      <trkpt lat="47.64572" lon="7.15094">
        <ele>294.2256705866</ele>
        <time>2025-10-12T08:57:00Z</time>
      </trkpt>
      <trkpt lat="47.64574" lon="7.15093">
        <ele>294.2484699975</ele>
        <time>2025-10-12T08:57:01Z</time>
      </trkpt>
      <trkpt lat="47.64577" lon="7.15091">
        <ele>294.31163345028</ele>
        <time>2025-10-12T08:57:03Z</time>
      </trkpt>
      <trkpt lat="47.6458" lon="7.15089">
        <ele>294.35203009946</ele>
        <time>2025-10-12T08:57:05Z</time>
      </trkpt>
      <trkpt lat="47.64583" lon="7.15087">
        <ele>294.38310514749</ele>
        <time>2025-10-12T08:57:07Z</time>
      </trkpt>
      <trkpt lat="47.64585" lon="7.15086">
        <ele>294.41453741897</ele>
        <time>2025-10-12T08:57:09Z</time>
      </trkpt>
      <trkpt lat="47.64588" lon="7.15085">
        <ele>294.50364599217</ele>
        <time>2025-10-12T08:57:11Z</time>
      </trkpt>
      <trkpt lat="47.64591" lon="7.15083">
        <ele>294.60721255398</ele>
        <time>2025-10-12T08:57:13Z</time>
      </trkpt>
      <trkpt lat="47.64592" lon="7.15082">
        <ele>294.73635155211</ele>
        <time>2025-10-12T08:57:15Z</time>
      </trkpt>
      <trkpt lat="47.64594" lon="7.15081">
        <ele>294.79231091085</ele>
        <time>2025-10-12T08:57:17Z</time>
      </trkpt>
      <trkpt lat="47.64597" lon="7.15079">
        <ele>294.89616396146</ele>
        <time>2025-10-12T08:57:19Z</time>
      </trkpt>
      <trkpt lat="47.64599" lon="7.15077">
        <ele>295.00641757986</ele>
        <time>2025-10-12T08:57:21Z</time>
      </trkpt>
      <trkpt lat="47.64602" lon="7.15077">
        <ele>295.09687192269</ele>
        <time>2025-10-12T08:57:23Z</time>
      </trkpt>
      <trkpt lat="47.64605" lon="7.15075">
        <ele>295.18680692266</ele>
        <time>2025-10-12T08:57:25Z</time>
      </trkpt>
      <trkpt lat="47.64607" lon="7.15074">
        <ele>295.27176266914</ele>
        <time>2025-10-12T08:57:27Z</time>
      </trkpt>
      <trkpt lat="47.64609" lon="7.15073">
        <ele>295.3061431706</ele>
        <time>2025-10-12T08:57:28Z</time>
      </trkpt>
      <trkpt lat="47.64612" lon="7.15071">
        <ele>295.3722367323</ele>
        <time>2025-10-12T08:57:30Z</time>
      </trkpt>
      <trkpt lat="47.64613" lon="7.15071">
        <ele>295.38614602125</ele>
        <time>2025-10-12T08:57:31Z</time>
      </trkpt>
      <trkpt lat="47.64616" lon="7.15069">
        <ele>295.2751815362</ele>
        <time>2025-10-12T08:57:33Z</time>
      </trkpt>
      <trkpt lat="47.64619" lon="7.15068">
        <ele>295.17485710864</ele>
        <time>2025-10-12T08:57:35Z</time>
      </trkpt>
      <trkpt lat="47.64622" lon="7.15066">
        <ele>295.0653226754</ele>
        <time>2025-10-12T08:57:37Z</time>
      </trkpt>
      <trkpt lat="47.64624" lon="7.15065">
        <ele>294.97125827589</ele>
        <time>2025-10-12T08:57:39Z</time>
      </trkpt>
      <trkpt lat="47.64627" lon="7.15064">
        <ele>294.87301996344</ele>
        <time>2025-10-12T08:57:41Z</time>
      </trkpt>
      <trkpt lat="47.6463" lon="7.15061">
        <ele>294.77292167455</ele>
        <time>2025-10-12T08:57:43Z</time>
      </trkpt>
      <trkpt lat="47.64633" lon="7.15059">
        <ele>294.68508750074</ele>
        <time>2025-10-12T08:57:45Z</time>
      </trkpt>
      <trkpt lat="47.64635" lon="7.15058">
        <ele>294.57086595832</ele>
        <time>2025-10-12T08:57:47Z</time>
      </trkpt>
      <trkpt lat="47.64638" lon="7.15057">
        <ele>294.48848259299</ele>
        <time>2025-10-12T08:57:49Z</time>
      </trkpt>
      <trkpt lat="47.64642" lon="7.15057">
        <ele>294.4023581612</ele>
        <time>2025-10-12T08:57:51Z</time>
      </trkpt>
      <trkpt lat="47.64644" lon="7.15056">
        <ele>294.40004397498</ele>
        <time>2025-10-12T08:57:53Z</time>
      </trkpt>
      <trkpt lat="47.64646" lon="7.15054">
        <ele>294.39691719543</ele>
        <time>2025-10-12T08:57:55Z</time>
      </trkpt>
      <trkpt lat="47.64649" lon="7.15053">
        <ele>294.38671892596</ele>
        <time>2025-10-12T08:57:56Z</time>
      </trkpt>
      <trkpt lat="47.64652" lon="7.15054">
        <ele>294.36153431115</ele>
        <time>2025-10-12T08:57:58Z</time>
      </trkpt>
      <trkpt lat="47.64654" lon="7.15055">
        <ele>294.37288677408</ele>
        <time>2025-10-12T08:58:00Z</time>
      </trkpt>
      <trkpt lat="47.64657" lon="7.15056">
        <ele>294.39726360437</ele>
        <time>2025-10-12T08:58:02Z</time>
      </trkpt>
      <trkpt lat="47.64659" lon="7.15055">
        <ele>294.39798708737</ele>
        <time>2025-10-12T08:58:03Z</time>
      </trkpt>
      <trkpt lat="47.64661" lon="7.15054">
        <ele>294.37603633602</ele>
        <time>2025-10-12T08:58:05Z</time>
      </trkpt>
      <trkpt lat="47.64664" lon="7.15053">
        <ele>294.34471453359</ele>
        <time>2025-10-12T08:58:07Z</time>
      </trkpt>
      <trkpt lat="47.64667" lon="7.15053">
        <ele>294.3003736056</ele>
        <time>2025-10-12T08:58:09Z</time>
      </trkpt>
      <trkpt lat="47.6467" lon="7.15052">
        <ele>294.22977150492</ele>
        <time>2025-10-12T08:58:11Z</time>
      </trkpt>
      <trkpt lat="47.64673" lon="7.15053">
        <ele>294.10799065481</ele>
        <time>2025-10-12T08:58:13Z</time>
      </trkpt>
      <trkpt lat="47.64675" lon="7.15054">
        <ele>294.08443149651</ele>
        <time>2025-10-12T08:58:14Z</time>
      </trkpt>
      <trkpt lat="47.64679" lon="7.15054">
        <ele>293.98192757455</ele>
        <time>2025-10-12T08:58:16Z</time>
      </trkpt>
      <trkpt lat="47.64682" lon="7.15053">
        <ele>293.84644910515</ele>
        <time>2025-10-12T08:58:18Z</time>
      </trkpt>
      <trkpt lat="47.64684" lon="7.15052">
        <ele>293.7218277189</ele>
        <time>2025-10-12T08:58:20Z</time>
      </trkpt>
      <trkpt lat="47.64687" lon="7.15052">
        <ele>293.5999543688</ele>
        <time>2025-10-12T08:58:22Z</time>
      </trkpt>
      <trkpt lat="47.64689" lon="7.15051">
        <ele>293.47897641899</ele>
        <time>2025-10-12T08:58:24Z</time>
      </trkpt>
      <trkpt lat="47.64692" lon="7.15051">
        <ele>293.36070182016</ele>
        <time>2025-10-12T08:58:26Z</time>
      </trkpt>
      <trkpt lat="47.64695" lon="7.1505">
        <ele>293.25889254829</ele>
        <time>2025-10-12T08:58:28Z</time>
      </trkpt>
      <trkpt lat="47.64699" lon="7.15052">
        <ele>293.15992859376</ele>
        <time>2025-10-12T08:58:30Z</time>
      </trkpt>
      <trkpt lat="47.64702" lon="7.15052">
        <ele>293.10861333165</ele>
        <time>2025-10-12T08:58:32Z</time>
      </trkpt>
      <trkpt lat="47.64705" lon="7.15052">
        <ele>292.98065877278</ele>
        <time>2025-10-12T08:58:34Z</time>
      </trkpt>
      <trkpt lat="47.64708" lon="7.15051">
        <ele>292.89145564321</ele>
        <time>2025-10-12T08:58:36Z</time>
      </trkpt>
      <trkpt lat="47.64711" lon="7.1505">
        <ele>292.7884292125</ele>
        <time>2025-10-12T08:58:38Z</time>
      </trkpt>
      <trkpt lat="47.64713" lon="7.15049">
        <ele>292.72475318431</ele>
        <time>2025-10-12T08:58:39Z</time>
      </trkpt>
      <trkpt lat="47.64716" lon="7.15048">
        <ele>292.61710032268</ele>
        <time>2025-10-12T08:58:41Z</time>
      </trkpt>
      <trkpt lat="47.64719" lon="7.15047">
        <ele>292.52732842052</ele>
        <time>2025-10-12T08:58:43Z</time>
      </trkpt>
      <trkpt lat="47.64721" lon="7.15046">
        <ele>292.45833194662</ele>
        <time>2025-10-12T08:58:45Z</time>
      </trkpt>
      <trkpt lat="47.64723" lon="7.15046">
        <ele>292.39332252387</ele>
        <time>2025-10-12T08:58:47Z</time>
      </trkpt>
      <trkpt lat="47.64725" lon="7.15044">
        <ele>292.36534810627</ele>
        <time>2025-10-12T08:58:48Z</time>
      </trkpt>
      <trkpt lat="47.64728" lon="7.15044">
        <ele>292.24743357902</ele>
        <time>2025-10-12T08:58:50Z</time>
      </trkpt>
      <trkpt lat="47.64731" lon="7.15043">
        <ele>292.15313706315</ele>
        <time>2025-10-12T08:58:52Z</time>
      </trkpt>
      <trkpt lat="47.64734" lon="7.15042">
        <ele>292.03317645883</ele>
        <time>2025-10-12T08:58:54Z</time>
      </trkpt>
      <trkpt lat="47.64737" lon="7.15043">
        <ele>291.92958427466</ele>
        <time>2025-10-12T08:58:56Z</time>
      </trkpt>
      <trkpt lat="47.64739" lon="7.15042">
        <ele>291.84251716385</ele>
        <time>2025-10-12T08:58:58Z</time>
      </trkpt>
      <trkpt lat="47.64741" lon="7.15042">
        <ele>291.79047692085</ele>
        <time>2025-10-12T08:58:59Z</time>
      </trkpt>
      <trkpt lat="47.64744" lon="7.15042">
        <ele>291.66896758201</ele>
        <time>2025-10-12T08:59:01Z</time>
      </trkpt>
      <trkpt lat="47.64748" lon="7.15043">
        <ele>291.5471555648</ele>
        <time>2025-10-12T08:59:03Z</time>
      </trkpt>
      <trkpt lat="47.64751" lon="7.15043">
        <ele>291.43161096757</ele>
        <time>2025-10-12T08:59:05Z</time>
      </trkpt>
      <trkpt lat="47.64754" lon="7.15043">
        <ele>291.40033650305</ele>
        <time>2025-10-12T08:59:07Z</time>
      </trkpt>
      <trkpt lat="47.64757" lon="7.15041">
        <ele>291.4000237584</ele>
        <time>2025-10-12T08:59:09Z</time>
      </trkpt>
      <trkpt lat="47.64759" lon="7.1504">
        <ele>291.40002063096</ele>
        <time>2025-10-12T08:59:11Z</time>
      </trkpt>
      <trkpt lat="47.64761" lon="7.15039">
        <ele>291.40002059968</ele>
        <time>2025-10-12T08:59:13Z</time>
      </trkpt>
      <trkpt lat="47.64764" lon="7.15037">
        <ele>291.40002059937</ele>
        <time>2025-10-12T08:59:15Z</time>
      </trkpt>
      <trkpt lat="47.64766" lon="7.15037">
        <ele>291.40002059937</ele>
        <time>2025-10-12T08:59:17Z</time>
      </trkpt>
      <trkpt lat="47.64768" lon="7.15036">
        <ele>291.40002059937</ele>
        <time>2025-10-12T08:59:18Z</time>
      </trkpt>
      <trkpt lat="47.64771" lon="7.15035">
        <ele>291.40002059937</ele>
        <time>2025-10-12T08:59:20Z</time>
      </trkpt>
      <trkpt lat="47.64774" lon="7.15035">
        <ele>291.40002059937</ele>
        <time>2025-10-12T08:59:22Z</time>
      </trkpt>
      <trkpt lat="47.64777" lon="7.15035">
        <ele>291.40002059937</ele>
        <time>2025-10-12T08:59:24Z</time>
      </trkpt>
      <trkpt lat="47.6478" lon="7.15036">
        <ele>291.38952865601</ele>
        <time>2025-10-12T08:59:26Z</time>
      </trkpt>
      <trkpt lat="47.64783" lon="7.15035">
        <ele>291.32310476685</ele>
        <time>2025-10-12T08:59:28Z</time>
      </trkpt>
      <trkpt lat="47.64785" lon="7.15034">
        <ele>291.27172659912</ele>
        <time>2025-10-12T08:59:29Z</time>
      </trkpt>
      <trkpt lat="47.64788" lon="7.15034">
        <ele>291.16698930731</ele>
        <time>2025-10-12T08:59:31Z</time>
      </trkpt>
      <trkpt lat="47.64791" lon="7.15034">
        <ele>291.0890403841</ele>
        <time>2025-10-12T08:59:33Z</time>
      </trkpt>
      <trkpt lat="47.64794" lon="7.15034">
        <ele>291.00125466928</ele>
        <time>2025-10-12T08:59:35Z</time>
      </trkpt>
      <trkpt lat="47.64796" lon="7.15033">
        <ele>290.91056357971</ele>
        <time>2025-10-12T08:59:37Z</time>
      </trkpt>
      <trkpt lat="47.64799" lon="7.15033">
        <ele>290.82588591686</ele>
        <time>2025-10-12T08:59:39Z</time>
      </trkpt>
      <trkpt lat="47.64802" lon="7.15033">
        <ele>290.7505902877</ele>
        <time>2025-10-12T08:59:41Z</time>
      </trkpt>
      <trkpt lat="47.64805" lon="7.15032">
        <ele>290.67009856187</ele>
        <time>2025-10-12T08:59:43Z</time>
      </trkpt>
      <trkpt lat="47.64807" lon="7.15032">
        <ele>290.59814045616</ele>
        <time>2025-10-12T08:59:44Z</time>
      </trkpt>
      <trkpt lat="47.64808" lon="7.15031">
        <ele>290.535243962</ele>
        <time>2025-10-12T08:59:45Z</time>
      </trkpt>
      <trkpt lat="47.6481" lon="7.1503">
        <ele>290.49547347762</ele>
        <time>2025-10-12T08:59:46Z</time>
      </trkpt>
      <trkpt lat="47.64813" lon="7.15028">
        <ele>290.43685372922</ele>
        <time>2025-10-12T08:59:48Z</time>
      </trkpt>
      <trkpt lat="47.64815" lon="7.15027">
        <ele>290.40126783691</ele>
        <time>2025-10-12T08:59:50Z</time>
      </trkpt>
      <trkpt lat="47.64817" lon="7.15026">
        <ele>290.40014532312</ele>
        <time>2025-10-12T08:59:51Z</time>
      </trkpt>
      <trkpt lat="47.6482" lon="7.15025">
        <ele>290.4000218466</ele>
        <time>2025-10-12T08:59:53Z</time>
      </trkpt>
      <trkpt lat="47.64822" lon="7.15025">
        <ele>290.40002061184</ele>
        <time>2025-10-12T08:59:55Z</time>
      </trkpt>
      <trkpt lat="47.64824" lon="7.15024">
        <ele>290.40002059949</ele>
        <time>2025-10-12T08:59:57Z</time>
      </trkpt>
      <trkpt lat="47.64827" lon="7.15024">
        <ele>290.40002059937</ele>
        <time>2025-10-12T08:59:59Z</time>
      </trkpt>
      <trkpt lat="47.6483" lon="7.15023">
        <ele>290.40002059937</ele>
        <time>2025-10-12T09:00:01Z</time>
      </trkpt>
      <trkpt lat="47.64832" lon="7.15023">
        <ele>290.40002059937</ele>
        <time>2025-10-12T09:00:03Z</time>
      </trkpt>
      <trkpt lat="47.64834" lon="7.15025">
        <ele>290.40002059937</ele>
        <time>2025-10-12T09:00:06Z</time>
      </trkpt>
      <trkpt lat="47.64835" lon="7.15027">
        <ele>290.34713477658</ele>
        <time>2025-10-12T09:00:25Z</time>
      </trkpt>
      <trkpt lat="47.64836" lon="7.15027">
        <ele>290.31730850334</ele>
        <time>2025-10-12T09:00:28Z</time>
      </trkpt>
      <trkpt lat="47.64838" lon="7.15028">
        <ele>290.27020299989</ele>
        <time>2025-10-12T09:00:30Z</time>
      </trkpt>
      <trkpt lat="47.64839" lon="7.15026">
        <ele>290.21973631023</ele>
        <time>2025-10-12T09:00:34Z</time>
      </trkpt>
      <trkpt lat="47.6484" lon="7.15023">
        <ele>290.19412595951</ele>
        <time>2025-10-12T09:00:35Z</time>
      </trkpt>
      <trkpt lat="47.6484" lon="7.15019">
        <ele>290.17457975538</ele>
        <time>2025-10-12T09:00:39Z</time>
      </trkpt>
      <trkpt lat="47.64843" lon="7.15018">
        <ele>290.09029491438</ele>
        <time>2025-10-12T09:00:42Z</time>
      </trkpt>
      <trkpt lat="47.64845" lon="7.15015">
        <ele>290.03008709984</ele>
        <time>2025-10-12T09:00:44Z</time>
      </trkpt>
      <trkpt lat="47.64847" lon="7.15014">
        <ele>289.94330826388</ele>
        <time>2025-10-12T09:00:46Z</time>
      </trkpt>
      <trkpt lat="47.64849" lon="7.15013">
        <ele>289.86116636664</ele>
        <time>2025-10-12T09:00:48Z</time>
      </trkpt>
      <trkpt lat="47.64852" lon="7.15012">
        <ele>289.78826364883</ele>
        <time>2025-10-12T09:00:50Z</time>
      </trkpt>
      <trkpt lat="47.64854" lon="7.1501">
        <ele>289.69740003914</ele>
        <time>2025-10-12T09:00:52Z</time>
      </trkpt>
      <trkpt lat="47.64856" lon="7.15009">
        <ele>289.64595704025</ele>
        <time>2025-10-12T09:00:54Z</time>
      </trkpt>
      <trkpt lat="47.64858" lon="7.15007">
        <ele>289.54728502946</ele>
        <time>2025-10-12T09:00:57Z</time>
      </trkpt>
      <trkpt lat="47.64859" lon="7.15004">
        <ele>289.49882112453</ele>
        <time>2025-10-12T09:00:59Z</time>
      </trkpt>
      <trkpt lat="47.64862" lon="7.15002">
        <ele>289.43202026233</ele>
        <time>2025-10-12T09:01:01Z</time>
      </trkpt>
      <trkpt lat="47.64865" lon="7.15002">
        <ele>289.32927003935</ele>
        <time>2025-10-12T09:01:03Z</time>
      </trkpt>
      <trkpt lat="47.64868" lon="7.15003">
        <ele>289.22984898244</ele>
        <time>2025-10-12T09:01:05Z</time>
      </trkpt>
      <trkpt lat="47.6487" lon="7.15001">
        <ele>289.12942850234</ele>
        <time>2025-10-12T09:01:07Z</time>
      </trkpt>
      <trkpt lat="47.64873" lon="7.15">
        <ele>289.03265098211</ele>
        <time>2025-10-12T09:01:09Z</time>
      </trkpt>
      <trkpt lat="47.64876" lon="7.15">
        <ele>288.94512467419</ele>
        <time>2025-10-12T09:01:11Z</time>
      </trkpt>
      <trkpt lat="47.64879" lon="7.14999">
        <ele>288.8312467866</ele>
        <time>2025-10-12T09:01:13Z</time>
      </trkpt>
      <trkpt lat="47.64882" lon="7.14997">
        <ele>288.72347745352</ele>
        <time>2025-10-12T09:01:15Z</time>
      </trkpt>
      <trkpt lat="47.64885" lon="7.14996">
        <ele>288.60392869086</ele>
        <time>2025-10-12T09:01:17Z</time>
      </trkpt>
      <trkpt lat="47.64888" lon="7.14995">
        <ele>288.53197757062</ele>
        <time>2025-10-12T09:01:18Z</time>
      </trkpt>
      <trkpt lat="47.64891" lon="7.14994">
        <ele>288.4040730182</ele>
        <time>2025-10-12T09:01:20Z</time>
      </trkpt>
      <trkpt lat="47.64893" lon="7.14993">
        <ele>288.40006112355</ele>
        <time>2025-10-12T09:01:22Z</time>
      </trkpt>
      <trkpt lat="47.64896" lon="7.14992">
        <ele>288.40002100461</ele>
        <time>2025-10-12T09:01:24Z</time>
      </trkpt>
      <trkpt lat="47.64898" lon="7.14992">
        <ele>288.40002059977</ele>
        <time>2025-10-12T09:01:27Z</time>
      </trkpt>
      <trkpt lat="47.649" lon="7.14994">
        <ele>288.40002059937</ele>
        <time>2025-10-12T09:01:29Z</time>
      </trkpt>
      <trkpt lat="47.64902" lon="7.14997">
        <ele>288.40002059937</ele>
        <time>2025-10-12T09:01:31Z</time>
      </trkpt>
      <trkpt lat="47.64904" lon="7.14996">
        <ele>288.40002059937</ele>
        <time>2025-10-12T09:01:33Z</time>
      </trkpt>
      <trkpt lat="47.64906" lon="7.14995">
        <ele>288.40002059937</ele>
        <time>2025-10-12T09:01:35Z</time>
      </trkpt>
      <trkpt lat="47.64909" lon="7.14994">
        <ele>288.40002059937</ele>
        <time>2025-10-12T09:01:37Z</time>
      </trkpt>
      <trkpt lat="47.64912" lon="7.14995">
        <ele>288.40002059937</ele>
        <time>2025-10-12T09:01:39Z</time>
      </trkpt>
      <trkpt lat="47.64915" lon="7.14994">
        <ele>288.40002059937</ele>
        <time>2025-10-12T09:01:41Z</time>
      </trkpt>
      <trkpt lat="47.64918" lon="7.14993">
        <ele>288.40002059937</ele>
        <time>2025-10-12T09:01:43Z</time>
      </trkpt>
      <trkpt lat="47.6492" lon="7.1499">
        <ele>288.33530288696</ele>
        <time>2025-10-12T09:01:45Z</time>
      </trkpt>
      <trkpt lat="47.64922" lon="7.14991">
        <ele>288.26181360779</ele>
        <time>2025-10-12T09:01:47Z</time>
      </trkpt>
      <trkpt lat="47.64925" lon="7.14989">
        <ele>288.1524761149</ele>
        <time>2025-10-12T09:01:49Z</time>
      </trkpt>
      <trkpt lat="47.64927" lon="7.14988">
        <ele>288.07080351634</ele>
        <time>2025-10-12T09:01:51Z</time>
      </trkpt>
      <trkpt lat="47.64928" lon="7.14986">
        <ele>288.00287955158</ele>
        <time>2025-10-12T09:01:53Z</time>
      </trkpt>
      <trkpt lat="47.64929" lon="7.14982">
        <ele>287.96580535344</ele>
        <time>2025-10-12T09:01:55Z</time>
      </trkpt>
      <trkpt lat="47.64927" lon="7.1498">
        <ele>287.96886408942</ele>
        <time>2025-10-12T09:01:56Z</time>
      </trkpt>
      <trkpt lat="47.64928" lon="7.14977">
        <ele>288.0252551681</ele>
        <time>2025-10-12T09:01:57Z</time>
      </trkpt>
      <trkpt lat="47.64927" lon="7.14974">
        <ele>288.01358892406</ele>
        <time>2025-10-12T09:01:59Z</time>
      </trkpt>
      <trkpt lat="47.64928" lon="7.14971">
        <ele>288.00608670253</ele>
        <time>2025-10-12T09:02:01Z</time>
      </trkpt>
      <trkpt lat="47.6493" lon="7.14968">
        <ele>287.97086955487</ele>
        <time>2025-10-12T09:02:04Z</time>
      </trkpt>
      <trkpt lat="47.64932" lon="7.14969">
        <ele>287.89963869585</ele>
        <time>2025-10-12T09:02:06Z</time>
      </trkpt>
      <trkpt lat="47.64935" lon="7.14968">
        <ele>287.80195281549</ele>
        <time>2025-10-12T09:02:08Z</time>
      </trkpt>
      <trkpt lat="47.64937" lon="7.14968">
        <ele>287.71197571254</ele>
        <time>2025-10-12T09:02:10Z</time>
      </trkpt>
      <trkpt lat="47.6494" lon="7.14968">
        <ele>287.61391560216</ele>
        <time>2025-10-12T09:02:12Z</time>
      </trkpt>
      <trkpt lat="47.64942" lon="7.14968">
        <ele>287.55247699418</ele>
        <time>2025-10-12T09:02:13Z</time>
      </trkpt>
      <trkpt lat="47.64946" lon="7.14967">
        <ele>287.42318822972</ele>
        <time>2025-10-12T09:02:15Z</time>
      </trkpt>
      <trkpt lat="47.6495" lon="7.14967">
        <ele>287.40025227567</ele>
        <time>2025-10-12T09:02:17Z</time>
      </trkpt>
      <trkpt lat="47.64952" lon="7.14967">
        <ele>287.40002291613</ele>
        <time>2025-10-12T09:02:19Z</time>
      </trkpt>
      <trkpt lat="47.64955" lon="7.14966">
        <ele>287.40002062253</ele>
        <time>2025-10-12T09:02:21Z</time>
      </trkpt>
      <trkpt lat="47.64958" lon="7.14965">
        <ele>287.4000205996</ele>
        <time>2025-10-12T09:02:23Z</time>
      </trkpt>
      <trkpt lat="47.6496" lon="7.14965">
        <ele>287.40002059939</ele>
        <time>2025-10-12T09:02:24Z</time>
      </trkpt>
      <trkpt lat="47.64963" lon="7.14965">
        <ele>287.40002059937</ele>
        <time>2025-10-12T09:02:26Z</time>
      </trkpt>
      <trkpt lat="47.64966" lon="7.14964">
        <ele>287.40002059937</ele>
        <time>2025-10-12T09:02:28Z</time>
      </trkpt>
      <trkpt lat="47.64968" lon="7.14963">
        <ele>287.40002059937</ele>
        <time>2025-10-12T09:02:30Z</time>
      </trkpt>
      <trkpt lat="47.64971" lon="7.14963">
        <ele>287.40002059937</ele>
        <time>2025-10-12T09:02:32Z</time>
      </trkpt>
      <trkpt lat="47.64974" lon="7.14962">
        <ele>287.40002059937</ele>
        <time>2025-10-12T09:02:34Z</time>
      </trkpt>
      <trkpt lat="47.64977" lon="7.14962">
        <ele>287.40002059937</ele>
        <time>2025-10-12T09:02:36Z</time>
      </trkpt>
      <trkpt lat="47.64979" lon="7.14962">
        <ele>287.40002059937</ele>
        <time>2025-10-12T09:02:37Z</time>
      </trkpt>
      <trkpt lat="47.64981" lon="7.14962">
        <ele>287.40002059937</ele>
        <time>2025-10-12T09:02:38Z</time>
      </trkpt>
      <trkpt lat="47.64983" lon="7.14961">
        <ele>287.40002059937</ele>
        <time>2025-10-12T09:02:39Z</time>
      </trkpt>
      <trkpt lat="47.64985" lon="7.14961">
        <ele>287.40002059937</ele>
        <time>2025-10-12T09:02:40Z</time>
      </trkpt>
      <trkpt lat="47.64989" lon="7.14961">
        <ele>287.40002059937</ele>
        <time>2025-10-12T09:02:42Z</time>
      </trkpt>
      <trkpt lat="47.64991" lon="7.1496">
        <ele>287.40002059937</ele>
        <time>2025-10-12T09:02:43Z</time>
      </trkpt>
      <trkpt lat="47.64993" lon="7.1496">
        <ele>287.40002059937</ele>
        <time>2025-10-12T09:02:44Z</time>
      </trkpt>
      <trkpt lat="47.64995" lon="7.1496">
        <ele>287.40002059937</ele>
        <time>2025-10-12T09:02:45Z</time>
      </trkpt>
      <trkpt lat="47.64998" lon="7.14959">
        <ele>287.40002059937</ele>
        <time>2025-10-12T09:02:47Z</time>
      </trkpt>
      <trkpt lat="47.65" lon="7.14958">
        <ele>287.40002059937</ele>
        <time>2025-10-12T09:02:48Z</time>
      </trkpt>
      <trkpt lat="47.65003" lon="7.14957">
        <ele>287.34777511597</ele>
        <time>2025-10-12T09:02:50Z</time>
      </trkpt>
      <trkpt lat="47.65006" lon="7.14956">
        <ele>287.24178116455</ele>
        <time>2025-10-12T09:02:52Z</time>
      </trkpt>
      <trkpt lat="47.65008" lon="7.14956">
        <ele>287.19199084534</ele>
        <time>2025-10-12T09:02:53Z</time>
      </trkpt>
      <trkpt lat="47.65011" lon="7.14956">
        <ele>287.0696770572</ele>
        <time>2025-10-12T09:02:55Z</time>
      </trkpt>
      <trkpt lat="47.65014" lon="7.14955">
        <ele>286.94924401941</ele>
        <time>2025-10-12T09:02:57Z</time>
      </trkpt>
      <trkpt lat="47.65017" lon="7.14955">
        <ele>286.84947859284</ele>
        <time>2025-10-12T09:02:59Z</time>
      </trkpt>
      <trkpt lat="47.65019" lon="7.14955">
        <ele>286.74496775498</ele>
        <time>2025-10-12T09:03:01Z</time>
      </trkpt>
      <trkpt lat="47.65022" lon="7.14955">
        <ele>286.67545859631</ele>
        <time>2025-10-12T09:03:03Z</time>
      </trkpt>
      <trkpt lat="47.65024" lon="7.14955">
        <ele>286.57088502572</ele>
        <time>2025-10-12T09:03:05Z</time>
      </trkpt>
      <trkpt lat="47.65027" lon="7.14953">
        <ele>286.47242351853</ele>
        <time>2025-10-12T09:03:07Z</time>
      </trkpt>
      <trkpt lat="47.6503" lon="7.14953">
        <ele>286.3829605099</ele>
        <time>2025-10-12T09:03:09Z</time>
      </trkpt>
      <trkpt lat="47.65033" lon="7.14952">
        <ele>286.30891066742</ele>
        <time>2025-10-12T09:03:11Z</time>
      </trkpt>
      <trkpt lat="47.65036" lon="7.14952">
        <ele>286.22971130669</ele>
        <time>2025-10-12T09:03:13Z</time>
      </trkpt>
      <trkpt lat="47.6504" lon="7.14952">
        <ele>286.14037225497</ele>
        <time>2025-10-12T09:03:15Z</time>
      </trkpt>
      <trkpt lat="47.65042" lon="7.14951">
        <ele>286.0571912668</ele>
        <time>2025-10-12T09:03:17Z</time>
      </trkpt>
      <trkpt lat="47.65045" lon="7.1495">
        <ele>285.96409627332</ele>
        <time>2025-10-12T09:03:19Z</time>
      </trkpt>
      <trkpt lat="47.65048" lon="7.14949">
        <ele>285.85852604116</ele>
        <time>2025-10-12T09:03:21Z</time>
      </trkpt>
      <trkpt lat="47.6505" lon="7.14949">
        <ele>285.77007409861</ele>
        <time>2025-10-12T09:03:23Z</time>
      </trkpt>
      <trkpt lat="47.65053" lon="7.14947">
        <ele>285.66001294344</ele>
        <time>2025-10-12T09:03:25Z</time>
      </trkpt>
      <trkpt lat="47.65055" lon="7.14947">
        <ele>285.53830167515</ele>
        <time>2025-10-12T09:03:27Z</time>
      </trkpt>
      <trkpt lat="47.65058" lon="7.14946">
        <ele>285.47421529977</ele>
        <time>2025-10-12T09:03:29Z</time>
      </trkpt>
      <trkpt lat="47.65061" lon="7.14946">
        <ele>285.47253622801</ele>
        <time>2025-10-12T09:03:31Z</time>
      </trkpt>
      <trkpt lat="47.65064" lon="7.14945">
        <ele>285.44665762089</ele>
        <time>2025-10-12T09:03:33Z</time>
      </trkpt>
      <trkpt lat="47.65067" lon="7.14944">
        <ele>285.42444540464</ele>
        <time>2025-10-12T09:03:35Z</time>
      </trkpt>
      <trkpt lat="47.6507" lon="7.14944">
        <ele>285.42411616578</ele>
        <time>2025-10-12T09:03:37Z</time>
      </trkpt>
      <trkpt lat="47.65072" lon="7.14944">
        <ele>285.41206911118</ele>
        <time>2025-10-12T09:03:39Z</time>
      </trkpt>
      <trkpt lat="47.65076" lon="7.14943">
        <ele>285.41305825978</ele>
        <time>2025-10-12T09:03:41Z</time>
      </trkpt>
      <trkpt lat="47.65079" lon="7.14942">
        <ele>285.46354208925</ele>
        <time>2025-10-12T09:03:43Z</time>
      </trkpt>
      <trkpt lat="47.65082" lon="7.14941">
        <ele>285.51502074346</ele>
        <time>2025-10-12T09:03:45Z</time>
      </trkpt>
      <trkpt lat="47.65084" lon="7.14941">
        <ele>285.52052881614</ele>
        <time>2025-10-12T09:03:47Z</time>
      </trkpt>
      <trkpt lat="47.65087" lon="7.1494">
        <ele>285.51757638954</ele>
        <time>2025-10-12T09:03:49Z</time>
      </trkpt>
      <trkpt lat="47.65089" lon="7.14939">
        <ele>285.54880846195</ele>
        <time>2025-10-12T09:03:51Z</time>
      </trkpt>
      <trkpt lat="47.65091" lon="7.14937">
        <ele>285.57576537496</ele>
        <time>2025-10-12T09:03:53Z</time>
      </trkpt>
      <trkpt lat="47.65093" lon="7.14938">
        <ele>285.57159372095</ele>
        <time>2025-10-12T09:03:55Z</time>
      </trkpt>
      <trkpt lat="47.65095" lon="7.14938">
        <ele>285.54780505617</ele>
        <time>2025-10-12T09:03:57Z</time>
      </trkpt>
      <trkpt lat="47.65097" lon="7.14938">
        <ele>285.53308718905</ele>
        <time>2025-10-12T09:03:59Z</time>
      </trkpt>
      <trkpt lat="47.651" lon="7.14938">
        <ele>285.51604029114</ele>
        <time>2025-10-12T09:04:01Z</time>
      </trkpt>
      <trkpt lat="47.65103" lon="7.14937">
        <ele>285.48911262001</ele>
        <time>2025-10-12T09:04:03Z</time>
      </trkpt>
      <trkpt lat="47.65106" lon="7.14938">
        <ele>285.46256953959</ele>
        <time>2025-10-12T09:04:05Z</time>
      </trkpt>
      <trkpt lat="47.65108" lon="7.14937">
        <ele>285.44297641103</ele>
        <time>2025-10-12T09:04:07Z</time>
      </trkpt>
      <trkpt lat="47.6511" lon="7.14936">
        <ele>285.42557039674</ele>
        <time>2025-10-12T09:04:09Z</time>
      </trkpt>
      <trkpt lat="47.65112" lon="7.14936">
        <ele>285.41309498828</ele>
        <time>2025-10-12T09:04:10Z</time>
      </trkpt>
      <trkpt lat="47.65115" lon="7.14934">
        <ele>285.40015134325</ele>
        <time>2025-10-12T09:04:12Z</time>
      </trkpt>
      <trkpt lat="47.65117" lon="7.14935">
        <ele>285.40003367375</ele>
        <time>2025-10-12T09:04:13Z</time>
      </trkpt>
      <trkpt lat="47.65119" lon="7.14936">
        <ele>285.4000219068</ele>
        <time>2025-10-12T09:04:14Z</time>
      </trkpt>
      <trkpt lat="47.6512" lon="7.14937">
        <ele>285.40002073011</ele>
        <time>2025-10-12T09:04:15Z</time>
      </trkpt>
      <trkpt lat="47.65122" lon="7.14938">
        <ele>285.4000205995</ele>
        <time>2025-10-12T09:04:18Z</time>
      </trkpt>
      <trkpt lat="47.65124" lon="7.1494">
        <ele>285.40002059937</ele>
        <time>2025-10-12T09:04:22Z</time>
      </trkpt>
      <trkpt lat="47.65126" lon="7.1494">
        <ele>285.40002059937</ele>
        <time>2025-10-12T09:04:29Z</time>
      </trkpt>
      <trkpt lat="47.65127" lon="7.14941">
        <ele>285.40002059937</ele>
        <time>2025-10-12T09:04:40Z</time>
      </trkpt>
      <trkpt lat="47.6513" lon="7.14939">
        <ele>285.40002059937</ele>
        <time>2025-10-12T09:04:51Z</time>
      </trkpt>
      <trkpt lat="47.65132" lon="7.14935">
        <ele>285.40002059937</ele>
        <time>2025-10-12T09:04:52Z</time>
      </trkpt>
      <trkpt lat="47.65132" lon="7.14933">
        <ele>285.40002059937</ele>
        <time>2025-10-12T09:04:53Z</time>
      </trkpt>
      <trkpt lat="47.65134" lon="7.14929">
        <ele>285.40002059937</ele>
        <time>2025-10-12T09:04:55Z</time>
      </trkpt>
      <trkpt lat="47.65135" lon="7.14926">
        <ele>285.40002059937</ele>
        <time>2025-10-12T09:04:57Z</time>
      </trkpt>
      <trkpt lat="47.65136" lon="7.14922">
        <ele>285.40002059937</ele>
        <time>2025-10-12T09:05:00Z</time>
      </trkpt>
      <trkpt lat="47.65136" lon="7.14919">
        <ele>285.40002059937</ele>
        <time>2025-10-12T09:05:03Z</time>
      </trkpt>
      <trkpt lat="47.65134" lon="7.14915">
        <ele>285.40002059937</ele>
        <time>2025-10-12T09:05:05Z</time>
      </trkpt>
      <trkpt lat="47.65133" lon="7.14912">
        <ele>285.40002059937</ele>
        <time>2025-10-12T09:05:08Z</time>
      </trkpt>
      <trkpt lat="47.65133" lon="7.14908">
        <ele>285.40002059937</ele>
        <time>2025-10-12T09:05:10Z</time>
      </trkpt>
      <trkpt lat="47.65133" lon="7.14904">
        <ele>285.40002059937</ele>
        <time>2025-10-12T09:05:12Z</time>
      </trkpt>
      <trkpt lat="47.65134" lon="7.14901">
        <ele>285.40002059937</ele>
        <time>2025-10-12T09:05:14Z</time>
      </trkpt>
      <trkpt lat="47.65133" lon="7.14898">
        <ele>285.40002059937</ele>
        <time>2025-10-12T09:05:16Z</time>
      </trkpt>
      <trkpt lat="47.65132" lon="7.14896">
        <ele>285.40002059937</ele>
        <time>2025-10-12T09:05:18Z</time>
      </trkpt>
      <trkpt lat="47.65132" lon="7.14892">
        <ele>285.40002059937</ele>
        <time>2025-10-12T09:05:20Z</time>
      </trkpt>
      <trkpt lat="47.65132" lon="7.14887">
        <ele>285.40002059937</ele>
        <time>2025-10-12T09:05:22Z</time>
      </trkpt>
      <trkpt lat="47.65132" lon="7.14883">
        <ele>285.29496383667</ele>
        <time>2025-10-12T09:05:24Z</time>
      </trkpt>
      <trkpt lat="47.65131" lon="7.14878">
        <ele>285.19089447021</ele>
        <time>2025-10-12T09:05:26Z</time>
      </trkpt>
      <trkpt lat="47.6513" lon="7.14875">
        <ele>285.10815120087</ele>
        <time>2025-10-12T09:05:28Z</time>
      </trkpt>
      <trkpt lat="47.6513" lon="7.1487">
        <ele>285.01807633165</ele>
        <time>2025-10-12T09:05:30Z</time>
      </trkpt>
      <trkpt lat="47.6513" lon="7.14866">
        <ele>284.87279600532</ele>
        <time>2025-10-12T09:05:32Z</time>
      </trkpt>
      <trkpt lat="47.6513" lon="7.14862">
        <ele>284.79920422501</ele>
        <time>2025-10-12T09:05:34Z</time>
      </trkpt>
      <trkpt lat="47.6513" lon="7.14859">
        <ele>284.75464233107</ele>
        <time>2025-10-12T09:05:35Z</time>
      </trkpt>
      <trkpt lat="47.65129" lon="7.14855">
        <ele>284.83589256131</ele>
        <time>2025-10-12T09:05:37Z</time>
      </trkpt>
      <trkpt lat="47.65129" lon="7.1485">
        <ele>284.95537938002</ele>
        <time>2025-10-12T09:05:39Z</time>
      </trkpt>
      <trkpt lat="47.65128" lon="7.14846">
        <ele>285.0700080861</ele>
        <time>2025-10-12T09:05:41Z</time>
      </trkpt>
      <trkpt lat="47.65127" lon="7.14842">
        <ele>285.15924000548</ele>
        <time>2025-10-12T09:05:43Z</time>
      </trkpt>
      <trkpt lat="47.65127" lon="7.14838">
        <ele>285.25745196579</ele>
        <time>2025-10-12T09:05:45Z</time>
      </trkpt>
      <trkpt lat="47.65126" lon="7.14835">
        <ele>285.29699420476</ele>
        <time>2025-10-12T09:05:46Z</time>
      </trkpt>
      <trkpt lat="47.65125" lon="7.14833">
        <ele>285.3579400058</ele>
        <time>2025-10-12T09:05:47Z</time>
      </trkpt>
      <trkpt lat="47.65124" lon="7.14831">
        <ele>285.39581254001</ele>
        <time>2025-10-12T09:05:48Z</time>
      </trkpt>
      <trkpt lat="47.65123" lon="7.14826">
        <ele>285.39997851877</ele>
        <time>2025-10-12T09:05:50Z</time>
      </trkpt>
      <trkpt lat="47.65123" lon="7.14822">
        <ele>285.40002017856</ele>
        <time>2025-10-12T09:05:52Z</time>
      </trkpt>
      <trkpt lat="47.65123" lon="7.14819">
        <ele>285.40002059516</ele>
        <time>2025-10-12T09:05:54Z</time>
      </trkpt>
      <trkpt lat="47.65123" lon="7.14816">
        <ele>285.40002059894</ele>
        <time>2025-10-12T09:05:55Z</time>
      </trkpt>
      <trkpt lat="47.65122" lon="7.1481">
        <ele>285.40002059936</ele>
        <time>2025-10-12T09:05:57Z</time>
      </trkpt>
      <trkpt lat="47.6512" lon="7.14806">
        <ele>285.40002059937</ele>
        <time>2025-10-12T09:05:59Z</time>
      </trkpt>
      <trkpt lat="47.6512" lon="7.14801">
        <ele>285.40002059937</ele>
        <time>2025-10-12T09:06:01Z</time>
      </trkpt>
      <trkpt lat="47.65119" lon="7.14799">
        <ele>285.40002059937</ele>
        <time>2025-10-12T09:06:02Z</time>
      </trkpt>
      <trkpt lat="47.65118" lon="7.14794">
        <ele>285.40002059937</ele>
        <time>2025-10-12T09:06:04Z</time>
      </trkpt>
      <trkpt lat="47.65117" lon="7.14791">
        <ele>285.40002059937</ele>
        <time>2025-10-12T09:06:05Z</time>
      </trkpt>
      <trkpt lat="47.65116" lon="7.14787">
        <ele>285.40002059937</ele>
        <time>2025-10-12T09:06:07Z</time>
      </trkpt>
      <trkpt lat="47.65116" lon="7.14785">
        <ele>285.40002059937</ele>
        <time>2025-10-12T09:06:09Z</time>
      </trkpt>
      <trkpt lat="47.65116" lon="7.14781">
        <ele>285.40002059937</ele>
        <time>2025-10-12T09:06:11Z</time>
      </trkpt>
      <trkpt lat="47.65115" lon="7.14776">
        <ele>285.40002059937</ele>
        <time>2025-10-12T09:06:13Z</time>
      </trkpt>
      <trkpt lat="47.65115" lon="7.14772">
        <ele>285.40002059937</ele>
        <time>2025-10-12T09:06:15Z</time>
      </trkpt>
      <trkpt lat="47.65116" lon="7.14769">
        <ele>285.40002059937</ele>
        <time>2025-10-12T09:06:16Z</time>
      </trkpt>
      <trkpt lat="47.65116" lon="7.14766">
        <ele>285.40002059937</ele>
        <time>2025-10-12T09:06:18Z</time>
      </trkpt>
      <trkpt lat="47.65116" lon="7.14762">
        <ele>285.40002059937</ele>
        <time>2025-10-12T09:06:20Z</time>
      </trkpt>
      <trkpt lat="47.65114" lon="7.14757">
        <ele>285.40002059937</ele>
        <time>2025-10-12T09:06:22Z</time>
      </trkpt>
      <trkpt lat="47.65113" lon="7.14753">
        <ele>285.40002059937</ele>
        <time>2025-10-12T09:06:24Z</time>
      </trkpt>
      <trkpt lat="47.65113" lon="7.1475">
        <ele>285.40002059937</ele>
        <time>2025-10-12T09:06:26Z</time>
      </trkpt>
      <trkpt lat="47.65112" lon="7.14748">
        <ele>285.40002059937</ele>
        <time>2025-10-12T09:06:27Z</time>
      </trkpt>
      <trkpt lat="47.65111" lon="7.14743">
        <ele>285.40002059937</ele>
        <time>2025-10-12T09:06:29Z</time>
      </trkpt>
      <trkpt lat="47.65109" lon="7.14742">
        <ele>285.4119682312</ele>
        <time>2025-10-12T09:06:30Z</time>
      </trkpt>
      <trkpt lat="47.65108" lon="7.14737">
        <ele>285.45415435791</ele>
        <time>2025-10-12T09:06:32Z</time>
      </trkpt>
      <trkpt lat="47.65108" lon="7.14734">
        <ele>285.45267009125</ele>
        <time>2025-10-12T09:06:34Z</time>
      </trkpt>
      <trkpt lat="47.65107" lon="7.14731">
        <ele>285.45065908371</ele>
        <time>2025-10-12T09:06:35Z</time>
      </trkpt>
      <trkpt lat="47.65107" lon="7.14728">
        <ele>285.44082483577</ele>
        <time>2025-10-12T09:06:37Z</time>
      </trkpt>
      <trkpt lat="47.65106" lon="7.14725">
        <ele>285.4286195597</ele>
        <time>2025-10-12T09:06:39Z</time>
      </trkpt>
      <trkpt lat="47.65105" lon="7.14722">
        <ele>285.409381296</ele>
        <time>2025-10-12T09:06:41Z</time>
      </trkpt>
      <trkpt lat="47.65104" lon="7.14718">
        <ele>285.41982642557</ele>
        <time>2025-10-12T09:06:43Z</time>
      </trkpt>
      <trkpt lat="47.65103" lon="7.14714">
        <ele>285.46326644815</ele>
        <time>2025-10-12T09:06:45Z</time>
      </trkpt>
      <trkpt lat="47.65103" lon="7.14709">
        <ele>285.51242246703</ele>
        <time>2025-10-12T09:06:47Z</time>
      </trkpt>
      <trkpt lat="47.65102" lon="7.14705">
        <ele>285.57414083386</ele>
        <time>2025-10-12T09:06:49Z</time>
      </trkpt>
      <trkpt lat="47.65102" lon="7.14702">
        <ele>285.60661719313</ele>
        <time>2025-10-12T09:06:50Z</time>
      </trkpt>
      <trkpt lat="47.65101" lon="7.14697">
        <ele>285.68545143347</ele>
        <time>2025-10-12T09:06:52Z</time>
      </trkpt>
      <trkpt lat="47.651" lon="7.14693">
        <ele>285.77318008349</ele>
        <time>2025-10-12T09:06:54Z</time>
      </trkpt>
      <trkpt lat="47.65098" lon="7.14691">
        <ele>285.83518255309</ele>
        <time>2025-10-12T09:06:56Z</time>
      </trkpt>
      <trkpt lat="47.65097" lon="7.14687">
        <ele>285.87880306607</ele>
        <time>2025-10-12T09:06:58Z</time>
      </trkpt>
      <trkpt lat="47.65097" lon="7.14684">
        <ele>285.89441068686</ele>
        <time>2025-10-12T09:06:59Z</time>
      </trkpt>
      <trkpt lat="47.65096" lon="7.1468">
        <ele>285.92890798169</ele>
        <time>2025-10-12T09:07:01Z</time>
      </trkpt>
      <trkpt lat="47.65095" lon="7.14676">
        <ele>285.97631563774</ele>
        <time>2025-10-12T09:07:03Z</time>
      </trkpt>
      <trkpt lat="47.65094" lon="7.14672">
        <ele>286.01677720209</ele>
        <time>2025-10-12T09:07:05Z</time>
      </trkpt>
      <trkpt lat="47.65093" lon="7.14669">
        <ele>286.04259319469</ele>
        <time>2025-10-12T09:07:07Z</time>
      </trkpt>
      <trkpt lat="47.65092" lon="7.14665">
        <ele>286.07492868616</ele>
        <time>2025-10-12T09:07:09Z</time>
      </trkpt>
      <trkpt lat="47.65092" lon="7.14662">
        <ele>286.08267879889</ele>
        <time>2025-10-12T09:07:11Z</time>
      </trkpt>
      <trkpt lat="47.65092" lon="7.14658">
        <ele>286.09064448361</ele>
        <time>2025-10-12T09:07:13Z</time>
      </trkpt>
      <trkpt lat="47.65091" lon="7.14656">
        <ele>286.1073162425</ele>
        <time>2025-10-12T09:07:15Z</time>
      </trkpt>
      <trkpt lat="47.6509" lon="7.14652">
        <ele>286.14567143666</ele>
        <time>2025-10-12T09:07:17Z</time>
      </trkpt>
      <trkpt lat="47.65089" lon="7.14648">
        <ele>286.18168914387</ele>
        <time>2025-10-12T09:07:19Z</time>
      </trkpt>
      <trkpt lat="47.6509" lon="7.14645">
        <ele>286.18566931606</ele>
        <time>2025-10-12T09:07:21Z</time>
      </trkpt>
      <trkpt lat="47.65089" lon="7.14641">
        <ele>286.17860371007</ele>
        <time>2025-10-12T09:07:23Z</time>
      </trkpt>
      <trkpt lat="47.65088" lon="7.14638">
        <ele>286.21658420147</ele>
        <time>2025-10-12T09:07:25Z</time>
      </trkpt>
      <trkpt lat="47.65088" lon="7.14635">
        <ele>286.20383577305</ele>
        <time>2025-10-12T09:07:26Z</time>
      </trkpt>
      <trkpt lat="47.65089" lon="7.14631">
        <ele>286.13356678959</ele>
        <time>2025-10-12T09:07:27Z</time>
      </trkpt>
      <trkpt lat="47.65089" lon="7.14626">
        <ele>285.97882090502</ele>
        <time>2025-10-12T09:07:29Z</time>
      </trkpt>
      <trkpt lat="47.65088" lon="7.14622">
        <ele>285.87626239881</ele>
        <time>2025-10-12T09:07:31Z</time>
      </trkpt>
      <trkpt lat="47.65087" lon="7.14618">
        <ele>285.79330077859</ele>
        <time>2025-10-12T09:07:33Z</time>
      </trkpt>
      <trkpt lat="47.65087" lon="7.14614">
        <ele>285.67661758573</ele>
        <time>2025-10-12T09:07:35Z</time>
      </trkpt>
      <trkpt lat="47.65085" lon="7.1461">
        <ele>285.52965393983</ele>
        <time>2025-10-12T09:07:37Z</time>
      </trkpt>
      <trkpt lat="47.65085" lon="7.14605">
        <ele>285.45496591959</ele>
        <time>2025-10-12T09:07:39Z</time>
      </trkpt>
      <trkpt lat="47.65084" lon="7.14601">
        <ele>285.41907652229</ele>
        <time>2025-10-12T09:07:41Z</time>
      </trkpt>
      <trkpt lat="47.65082" lon="7.14597">
        <ele>285.41909116348</ele>
        <time>2025-10-12T09:07:43Z</time>
      </trkpt>
      <trkpt lat="47.65081" lon="7.14593">
        <ele>285.47096600471</ele>
        <time>2025-10-12T09:07:45Z</time>
      </trkpt>
      <trkpt lat="47.6508" lon="7.14588">
        <ele>285.48269080781</ele>
        <time>2025-10-12T09:07:47Z</time>
      </trkpt>
      <trkpt lat="47.65079" lon="7.14584">
        <ele>285.52205671307</ele>
        <time>2025-10-12T09:07:49Z</time>
      </trkpt>
      <trkpt lat="47.65079" lon="7.1458">
        <ele>285.55067941093</ele>
        <time>2025-10-12T09:07:50Z</time>
      </trkpt>
      <trkpt lat="47.65079" lon="7.14578">
        <ele>285.5381058897</ele>
        <time>2025-10-12T09:07:51Z</time>
      </trkpt>
      <trkpt lat="47.65079" lon="7.14575">
        <ele>285.53407448973</ele>
        <time>2025-10-12T09:07:52Z</time>
      </trkpt>
      <trkpt lat="47.65078" lon="7.14569">
        <ele>285.50669805233</ele>
        <time>2025-10-12T09:07:54Z</time>
      </trkpt>
      <trkpt lat="47.65076" lon="7.14565">
        <ele>285.49480899255</ele>
        <time>2025-10-12T09:07:56Z</time>
      </trkpt>
      <trkpt lat="47.65076" lon="7.1456">
        <ele>285.46701004824</ele>
        <time>2025-10-12T09:07:58Z</time>
      </trkpt>
      <trkpt lat="47.65075" lon="7.14556">
        <ele>285.42543994454</ele>
        <time>2025-10-12T09:08:00Z</time>
      </trkpt>
      <trkpt lat="47.65075" lon="7.1455">
        <ele>285.42671064487</ele>
        <time>2025-10-12T09:08:02Z</time>
      </trkpt>
      <trkpt lat="47.65073" lon="7.14546">
        <ele>285.48930971662</ele>
        <time>2025-10-12T09:08:04Z</time>
      </trkpt>
      <trkpt lat="47.65071" lon="7.14541">
        <ele>285.56696909357</ele>
        <time>2025-10-12T09:08:06Z</time>
      </trkpt>
      <trkpt lat="47.6507" lon="7.14538">
        <ele>285.6622143763</ele>
        <time>2025-10-12T09:08:08Z</time>
      </trkpt>
      <trkpt lat="47.65069" lon="7.14533">
        <ele>285.75381502249</ele>
        <time>2025-10-12T09:08:10Z</time>
      </trkpt>
      <trkpt lat="47.65068" lon="7.1453">
        <ele>285.86229267446</ele>
        <time>2025-10-12T09:08:12Z</time>
      </trkpt>
      <trkpt lat="47.65067" lon="7.14525">
        <ele>285.96556403545</ele>
        <time>2025-10-12T09:08:14Z</time>
      </trkpt>
      <trkpt lat="47.65067" lon="7.1452">
        <ele>286.2429495933</ele>
        <time>2025-10-12T09:08:16Z</time>
      </trkpt>
      <trkpt lat="47.65066" lon="7.14517">
        <ele>286.38060561302</ele>
        <time>2025-10-12T09:08:17Z</time>
      </trkpt>
      <trkpt lat="47.65065" lon="7.14513">
        <ele>286.65665933524</ele>
        <time>2025-10-12T09:08:19Z</time>
      </trkpt>
      <trkpt lat="47.65064" lon="7.1451">
        <ele>286.82573640079</ele>
        <time>2025-10-12T09:08:21Z</time>
      </trkpt>
      <trkpt lat="47.65064" lon="7.14506">
        <ele>287.03953196881</ele>
        <time>2025-10-12T09:08:23Z</time>
      </trkpt>
      <trkpt lat="47.65064" lon="7.14502">
        <ele>287.21596802019</ele>
        <time>2025-10-12T09:08:25Z</time>
      </trkpt>
      <trkpt lat="47.65063" lon="7.14499">
        <ele>287.3766084183</ele>
        <time>2025-10-12T09:08:27Z</time>
      </trkpt>
      <trkpt lat="47.65062" lon="7.14495">
        <ele>287.30738871144</ele>
        <time>2025-10-12T09:08:29Z</time>
      </trkpt>
      <trkpt lat="47.6506" lon="7.1449">
        <ele>287.18631382394</ele>
        <time>2025-10-12T09:08:31Z</time>
      </trkpt>
      <trkpt lat="47.65059" lon="7.14486">
        <ele>287.03821861462</ele>
        <time>2025-10-12T09:08:33Z</time>
      </trkpt>
      <trkpt lat="47.65057" lon="7.14482">
        <ele>286.89028990862</ele>
        <time>2025-10-12T09:08:35Z</time>
      </trkpt>
      <trkpt lat="47.65057" lon="7.14478">
        <ele>286.72298573142</ele>
        <time>2025-10-12T09:08:37Z</time>
      </trkpt>
      <trkpt lat="47.65056" lon="7.14474">
        <ele>286.56156598555</ele>
        <time>2025-10-12T09:08:39Z</time>
      </trkpt>
      <trkpt lat="47.65055" lon="7.14469">
        <ele>286.37320618262</ele>
        <time>2025-10-12T09:08:41Z</time>
      </trkpt>
      <trkpt lat="47.65055" lon="7.14464">
        <ele>286.22407282873</ele>
        <time>2025-10-12T09:08:43Z</time>
      </trkpt>
      <trkpt lat="47.65055" lon="7.14459">
        <ele>286.06532319441</ele>
        <time>2025-10-12T09:08:45Z</time>
      </trkpt>
      <trkpt lat="47.65054" lon="7.14455">
        <ele>285.92783756575</ele>
        <time>2025-10-12T09:08:47Z</time>
      </trkpt>
      <trkpt lat="47.65053" lon="7.14449">
        <ele>285.84906128124</ele>
        <time>2025-10-12T09:08:49Z</time>
      </trkpt>
      <trkpt lat="47.65052" lon="7.14446">
        <ele>285.75888645954</ele>
        <time>2025-10-12T09:08:50Z</time>
      </trkpt>
      <trkpt lat="47.65052" lon="7.14443">
        <ele>285.6996065262</ele>
        <time>2025-10-12T09:08:51Z</time>
      </trkpt>
      <trkpt lat="47.65051" lon="7.1444">
        <ele>285.78691172231</ele>
        <time>2025-10-12T09:08:53Z</time>
      </trkpt>
      <trkpt lat="47.65051" lon="7.14435">
        <ele>285.95458470102</ele>
        <time>2025-10-12T09:08:55Z</time>
      </trkpt>
      <trkpt lat="47.6505" lon="7.14431">
        <ele>286.11254469497</ele>
        <time>2025-10-12T09:08:57Z</time>
      </trkpt>
      <trkpt lat="47.6505" lon="7.14427">
        <ele>286.23355117479</ele>
        <time>2025-10-12T09:08:59Z</time>
      </trkpt>
      <trkpt lat="47.65048" lon="7.14424">
        <ele>286.32064172331</ele>
        <time>2025-10-12T09:09:00Z</time>
      </trkpt>
      <trkpt lat="47.65048" lon="7.14419">
        <ele>286.53891522613</ele>
        <time>2025-10-12T09:09:02Z</time>
      </trkpt>
      <trkpt lat="47.65048" lon="7.14416">
        <ele>286.65320519993</ele>
        <time>2025-10-12T09:09:04Z</time>
      </trkpt>
      <trkpt lat="47.65046" lon="7.14412">
        <ele>286.72314723297</ele>
        <time>2025-10-12T09:09:06Z</time>
      </trkpt>
      <trkpt lat="47.65044" lon="7.14409">
        <ele>286.78276083787</ele>
        <time>2025-10-12T09:09:08Z</time>
      </trkpt>
      <trkpt lat="47.65044" lon="7.14406">
        <ele>286.810949137</ele>
        <time>2025-10-12T09:09:10Z</time>
      </trkpt>
      <trkpt lat="47.65044" lon="7.14402">
        <ele>286.81986352732</ele>
        <time>2025-10-12T09:09:12Z</time>
      </trkpt>
      <trkpt lat="47.65043" lon="7.14398">
        <ele>286.85116757601</ele>
        <time>2025-10-12T09:09:14Z</time>
      </trkpt>
      <trkpt lat="47.65042" lon="7.14394">
        <ele>286.87175588505</ele>
        <time>2025-10-12T09:09:16Z</time>
      </trkpt>
      <trkpt lat="47.65041" lon="7.14389">
        <ele>286.89872995662</ele>
        <time>2025-10-12T09:09:18Z</time>
      </trkpt>
      <trkpt lat="47.65041" lon="7.14385">
        <ele>286.93651251472</ele>
        <time>2025-10-12T09:09:20Z</time>
      </trkpt>
      <trkpt lat="47.65041" lon="7.14382">
        <ele>286.93383888766</ele>
        <time>2025-10-12T09:09:22Z</time>
      </trkpt>
      <trkpt lat="47.6504" lon="7.14377">
        <ele>286.94576527639</ele>
        <time>2025-10-12T09:09:24Z</time>
      </trkpt>
      <trkpt lat="47.65039" lon="7.14374">
        <ele>286.96853549676</ele>
        <time>2025-10-12T09:09:25Z</time>
      </trkpt>
      <trkpt lat="47.65039" lon="7.1437">
        <ele>287.00168109014</ele>
        <time>2025-10-12T09:09:27Z</time>
      </trkpt>
      <trkpt lat="47.65038" lon="7.14366">
        <ele>287.00369620085</ele>
        <time>2025-10-12T09:09:29Z</time>
      </trkpt>
      <trkpt lat="47.65038" lon="7.14363">
        <ele>287.02023704288</ele>
        <time>2025-10-12T09:09:31Z</time>
      </trkpt>
      <trkpt lat="47.65037" lon="7.14359">
        <ele>287.05407280042</ele>
        <time>2025-10-12T09:09:33Z</time>
      </trkpt>
      <trkpt lat="47.65037" lon="7.14356">
        <ele>287.11415481034</ele>
        <time>2025-10-12T09:09:35Z</time>
      </trkpt>
      <trkpt lat="47.65036" lon="7.14353">
        <ele>287.16207923884</ele>
        <time>2025-10-12T09:09:37Z</time>
      </trkpt>
      <trkpt lat="47.65036" lon="7.14349">
        <ele>287.20366932297</ele>
        <time>2025-10-12T09:09:39Z</time>
      </trkpt>
      <trkpt lat="47.65035" lon="7.14345">
        <ele>287.26291426434</ele>
        <time>2025-10-12T09:09:41Z</time>
      </trkpt>
      <trkpt lat="47.65034" lon="7.14341">
        <ele>287.31684259021</ele>
        <time>2025-10-12T09:09:43Z</time>
      </trkpt>
      <trkpt lat="47.65034" lon="7.14336">
        <ele>287.35654813324</ele>
        <time>2025-10-12T09:09:45Z</time>
      </trkpt>
      <trkpt lat="47.65033" lon="7.14332">
        <ele>287.39418334785</ele>
        <time>2025-10-12T09:09:47Z</time>
      </trkpt>
      <trkpt lat="47.65032" lon="7.14328">
        <ele>287.30831153105</ele>
        <time>2025-10-12T09:09:49Z</time>
      </trkpt>
      <trkpt lat="47.65031" lon="7.14324">
        <ele>287.18371654579</ele>
        <time>2025-10-12T09:09:51Z</time>
      </trkpt>
      <trkpt lat="47.6503" lon="7.1432">
        <ele>287.05005238305</ele>
        <time>2025-10-12T09:09:53Z</time>
      </trkpt>
      <trkpt lat="47.65028" lon="7.14316">
        <ele>286.89631614425</ele>
        <time>2025-10-12T09:09:55Z</time>
      </trkpt>
      <trkpt lat="47.65027" lon="7.14313">
        <ele>286.71641574476</ele>
        <time>2025-10-12T09:09:57Z</time>
      </trkpt>
      <trkpt lat="47.65026" lon="7.14308">
        <ele>286.59364628178</ele>
        <time>2025-10-12T09:09:59Z</time>
      </trkpt>
      <trkpt lat="47.65026" lon="7.14305">
        <ele>286.52663719593</ele>
        <time>2025-10-12T09:10:00Z</time>
      </trkpt>
      <trkpt lat="47.65026" lon="7.14302">
        <ele>286.46294471019</ele>
        <time>2025-10-12T09:10:01Z</time>
      </trkpt>
      <trkpt lat="47.65026" lon="7.14299">
        <ele>286.47492262959</ele>
        <time>2025-10-12T09:10:02Z</time>
      </trkpt>
      <trkpt lat="47.65025" lon="7.14297">
        <ele>286.47647747719</ele>
        <time>2025-10-12T09:10:03Z</time>
      </trkpt>
      <trkpt lat="47.65024" lon="7.14292">
        <ele>286.55993311736</ele>
        <time>2025-10-12T09:10:05Z</time>
      </trkpt>
      <trkpt lat="47.65022" lon="7.14289">
        <ele>286.62905868939</ele>
        <time>2025-10-12T09:10:07Z</time>
      </trkpt>
      <trkpt lat="47.65021" lon="7.14287">
        <ele>286.71035421794</ele>
        <time>2025-10-12T09:10:08Z</time>
      </trkpt>
      <trkpt lat="47.6502" lon="7.14281">
        <ele>286.86243759522</ele>
        <time>2025-10-12T09:10:10Z</time>
      </trkpt>
      <trkpt lat="47.65019" lon="7.14278">
        <ele>286.98977385868</ele>
        <time>2025-10-12T09:10:12Z</time>
      </trkpt>
      <trkpt lat="47.65019" lon="7.14274">
        <ele>287.05577592004</ele>
        <time>2025-10-12T09:10:14Z</time>
      </trkpt>
      <trkpt lat="47.65018" lon="7.14271">
        <ele>287.10915383617</ele>
        <time>2025-10-12T09:10:16Z</time>
      </trkpt>
      <trkpt lat="47.65018" lon="7.14267">
        <ele>287.10321941464</ele>
        <time>2025-10-12T09:10:18Z</time>
      </trkpt>
      <trkpt lat="47.65018" lon="7.14264">
        <ele>287.09054616937</ele>
        <time>2025-10-12T09:10:19Z</time>
      </trkpt>
      <trkpt lat="47.65018" lon="7.14261">
        <ele>287.08525471249</ele>
        <time>2025-10-12T09:10:21Z</time>
      </trkpt>
      <trkpt lat="47.65017" lon="7.14258">
        <ele>287.12602699323</ele>
        <time>2025-10-12T09:10:23Z</time>
      </trkpt>
      <trkpt lat="47.65016" lon="7.14253">
        <ele>287.21490761643</ele>
        <time>2025-10-12T09:10:25Z</time>
      </trkpt>
      <trkpt lat="47.65015" lon="7.1425">
        <ele>287.26972281426</ele>
        <time>2025-10-12T09:10:27Z</time>
      </trkpt>
      <trkpt lat="47.65016" lon="7.14246">
        <ele>287.28182034368</ele>
        <time>2025-10-12T09:10:29Z</time>
      </trkpt>
      <trkpt lat="47.65015" lon="7.14243">
        <ele>287.31270029114</ele>
        <time>2025-10-12T09:10:31Z</time>
      </trkpt>
      <trkpt lat="47.65014" lon="7.14239">
        <ele>287.35677862187</ele>
        <time>2025-10-12T09:10:33Z</time>
      </trkpt>
      <trkpt lat="47.65013" lon="7.14236">
        <ele>287.43333543301</ele>
        <time>2025-10-12T09:10:35Z</time>
      </trkpt>
      <trkpt lat="47.65013" lon="7.14231">
        <ele>287.42587498794</ele>
        <time>2025-10-12T09:10:37Z</time>
      </trkpt>
      <trkpt lat="47.65013" lon="7.14227">
        <ele>287.47279165546</ele>
        <time>2025-10-12T09:10:39Z</time>
      </trkpt>
      <trkpt lat="47.65012" lon="7.14221">
        <ele>287.49600526793</ele>
        <time>2025-10-12T09:10:41Z</time>
      </trkpt>
      <trkpt lat="47.65012" lon="7.14218">
        <ele>287.52198173712</ele>
        <time>2025-10-12T09:10:42Z</time>
      </trkpt>
      <trkpt lat="47.65011" lon="7.14216">
        <ele>287.51584525318</ele>
        <time>2025-10-12T09:10:43Z</time>
      </trkpt>
      <trkpt lat="47.65009" lon="7.1421">
        <ele>287.59844660713</ele>
        <time>2025-10-12T09:10:45Z</time>
      </trkpt>
      <trkpt lat="47.65009" lon="7.14207">
        <ele>287.60132987495</ele>
        <time>2025-10-12T09:10:46Z</time>
      </trkpt>
      <trkpt lat="47.65008" lon="7.14201">
        <ele>287.54924499583</ele>
        <time>2025-10-12T09:10:48Z</time>
      </trkpt>
      <trkpt lat="47.65007" lon="7.14199">
        <ele>287.50851908882</ele>
        <time>2025-10-12T09:10:49Z</time>
      </trkpt>
      <trkpt lat="47.65005" lon="7.14195">
        <ele>287.45245293533</ele>
        <time>2025-10-12T09:10:51Z</time>
      </trkpt>
      <trkpt lat="47.65004" lon="7.14191">
        <ele>287.37619647302</ele>
        <time>2025-10-12T09:10:53Z</time>
      </trkpt>
      <trkpt lat="47.65004" lon="7.14189">
        <ele>287.32548547677</ele>
        <time>2025-10-12T09:10:54Z</time>
      </trkpt>
      <trkpt lat="47.65002" lon="7.14184">
        <ele>287.18275394687</ele>
        <time>2025-10-12T09:10:56Z</time>
      </trkpt>
      <trkpt lat="47.65001" lon="7.14179">
        <ele>287.00092013743</ele>
        <time>2025-10-12T09:10:58Z</time>
      </trkpt>
      <trkpt lat="47.65001" lon="7.14175">
        <ele>286.83046990236</ele>
        <time>2025-10-12T09:11:00Z</time>
      </trkpt>
      <trkpt lat="47.65" lon="7.1417">
        <ele>286.63011061486</ele>
        <time>2025-10-12T09:11:02Z</time>
      </trkpt>
      <trkpt lat="47.64999" lon="7.14167">
        <ele>286.54631930225</ele>
        <time>2025-10-12T09:11:04Z</time>
      </trkpt>
      <trkpt lat="47.64997" lon="7.14163">
        <ele>286.6423176318</ele>
        <time>2025-10-12T09:11:06Z</time>
      </trkpt>
      <trkpt lat="47.64997" lon="7.14159">
        <ele>286.72557619908</ele>
        <time>2025-10-12T09:11:08Z</time>
      </trkpt>
      <trkpt lat="47.64996" lon="7.14156">
        <ele>286.77221849332</ele>
        <time>2025-10-12T09:11:09Z</time>
      </trkpt>
      <trkpt lat="47.64996" lon="7.14154">
        <ele>286.79891031064</ele>
        <time>2025-10-12T09:11:10Z</time>
      </trkpt>
      <trkpt lat="47.64996" lon="7.14149">
        <ele>286.90265146425</ele>
        <time>2025-10-12T09:11:12Z</time>
      </trkpt>
      <trkpt lat="47.64996" lon="7.14146">
        <ele>286.84176169073</ele>
        <time>2025-10-12T09:11:14Z</time>
      </trkpt>
      <trkpt lat="47.64996" lon="7.14142">
        <ele>286.86158736331</ele>
        <time>2025-10-12T09:11:16Z</time>
      </trkpt>
      <trkpt lat="47.64995" lon="7.14138">
        <ele>286.86127475577</ele>
        <time>2025-10-12T09:11:18Z</time>
      </trkpt>
      <trkpt lat="47.64995" lon="7.14133">
        <ele>286.94144435919</ele>
        <time>2025-10-12T09:11:20Z</time>
      </trkpt>
      <trkpt lat="47.64993" lon="7.14129">
        <ele>287.01390987358</ele>
        <time>2025-10-12T09:11:22Z</time>
      </trkpt>
      <trkpt lat="47.64993" lon="7.14126">
        <ele>287.10682883831</ele>
        <time>2025-10-12T09:11:23Z</time>
      </trkpt>
      <trkpt lat="47.64993" lon="7.14123">
        <ele>287.15907727775</ele>
        <time>2025-10-12T09:11:24Z</time>
      </trkpt>
      <trkpt lat="47.64992" lon="7.1412">
        <ele>287.20113378674</ele>
        <time>2025-10-12T09:11:25Z</time>
      </trkpt>
      <trkpt lat="47.64991" lon="7.14117">
        <ele>287.31190166532</ele>
        <time>2025-10-12T09:11:27Z</time>
      </trkpt>
      <trkpt lat="47.64989" lon="7.14113">
        <ele>287.49309448815</ele>
        <time>2025-10-12T09:11:29Z</time>
      </trkpt>
      <trkpt lat="47.64988" lon="7.14109">
        <ele>287.64606455847</ele>
        <time>2025-10-12T09:11:31Z</time>
      </trkpt>
      <trkpt lat="47.64988" lon="7.14105">
        <ele>287.92048091689</ele>
        <time>2025-10-12T09:11:33Z</time>
      </trkpt>
      <trkpt lat="47.64987" lon="7.14102">
        <ele>288.19317838858</ele>
        <time>2025-10-12T09:11:35Z</time>
      </trkpt>
      <trkpt lat="47.64985" lon="7.14099">
        <ele>288.43003500196</ele>
        <time>2025-10-12T09:11:37Z</time>
      </trkpt>
      <trkpt lat="47.64985" lon="7.14096">
        <ele>288.70213165648</ele>
        <time>2025-10-12T09:11:39Z</time>
      </trkpt>
      <trkpt lat="47.64984" lon="7.14092">
        <ele>288.87727754978</ele>
        <time>2025-10-12T09:11:41Z</time>
      </trkpt>
      <trkpt lat="47.64984" lon="7.14089">
        <ele>289.0788098925</ele>
        <time>2025-10-12T09:11:43Z</time>
      </trkpt>
      <trkpt lat="47.64984" lon="7.14086">
        <ele>289.2301980797</ele>
        <time>2025-10-12T09:11:45Z</time>
      </trkpt>
      <trkpt lat="47.64983" lon="7.14082">
        <ele>289.34977928335</ele>
        <time>2025-10-12T09:11:47Z</time>
      </trkpt>
      <trkpt lat="47.64982" lon="7.1408">
        <ele>289.37497388476</ele>
        <time>2025-10-12T09:11:48Z</time>
      </trkpt>
      <trkpt lat="47.64981" lon="7.14075">
        <ele>289.2721859037</ele>
        <time>2025-10-12T09:11:50Z</time>
      </trkpt>
      <trkpt lat="47.64981" lon="7.14072">
        <ele>289.20524860441</ele>
        <time>2025-10-12T09:11:51Z</time>
      </trkpt>
      <trkpt lat="47.64981" lon="7.14069">
        <ele>289.08476752053</ele>
        <time>2025-10-12T09:11:53Z</time>
      </trkpt>
      <trkpt lat="47.64981" lon="7.14066">
        <ele>289.00165414035</ele>
        <time>2025-10-12T09:11:55Z</time>
      </trkpt>
      <trkpt lat="47.6498" lon="7.14061">
        <ele>288.88511499874</ele>
        <time>2025-10-12T09:11:57Z</time>
      </trkpt>
      <trkpt lat="47.6498" lon="7.14057">
        <ele>288.78324892373</ele>
        <time>2025-10-12T09:11:59Z</time>
      </trkpt>
      <trkpt lat="47.64979" lon="7.14053">
        <ele>288.65757389091</ele>
        <time>2025-10-12T09:12:01Z</time>
      </trkpt>
      <trkpt lat="47.64978" lon="7.14049">
        <ele>288.46097747994</ele>
        <time>2025-10-12T09:12:03Z</time>
      </trkpt>
      <trkpt lat="47.64977" lon="7.14046">
        <ele>288.31002042696</ele>
        <time>2025-10-12T09:12:05Z</time>
      </trkpt>
      <trkpt lat="47.64978" lon="7.14043">
        <ele>288.20194347362</ele>
        <time>2025-10-12T09:12:07Z</time>
      </trkpt>
      <trkpt lat="47.64977" lon="7.14039">
        <ele>288.05649960594</ele>
        <time>2025-10-12T09:12:09Z</time>
      </trkpt>
      <trkpt lat="47.64976" lon="7.14034">
        <ele>287.8668768323</ele>
        <time>2025-10-12T09:12:11Z</time>
      </trkpt>
      <trkpt lat="47.64976" lon="7.1403">
        <ele>287.70019392244</ele>
        <time>2025-10-12T09:12:13Z</time>
      </trkpt>
      <trkpt lat="47.64975" lon="7.14027">
        <ele>287.61573434281</ele>
        <time>2025-10-12T09:12:14Z</time>
      </trkpt>
      <trkpt lat="47.64975" lon="7.14023">
        <ele>287.51714556258</ele>
        <time>2025-10-12T09:12:15Z</time>
      </trkpt>
      <trkpt lat="47.64974" lon="7.14021">
        <ele>287.49310072351</ele>
        <time>2025-10-12T09:12:17Z</time>
      </trkpt>
      <trkpt lat="47.64974" lon="7.14016">
        <ele>287.46429800566</ele>
        <time>2025-10-12T09:12:20Z</time>
      </trkpt>
      <trkpt lat="47.64972" lon="7.14013">
        <ele>287.45911881232</ele>
        <time>2025-10-12T09:12:23Z</time>
      </trkpt>
      <trkpt lat="47.6497" lon="7.14007">
        <ele>287.44184601753</ele>
        <time>2025-10-12T09:12:25Z</time>
      </trkpt>
      <trkpt lat="47.6497" lon="7.14003">
        <ele>287.55069337015</ele>
        <time>2025-10-12T09:12:27Z</time>
      </trkpt>
      <trkpt lat="47.6497" lon="7.13999">
        <ele>287.56479789592</ele>
        <time>2025-10-12T09:12:29Z</time>
      </trkpt>
      <trkpt lat="47.64969" lon="7.13994">
        <ele>287.59312436598</ele>
        <time>2025-10-12T09:12:31Z</time>
      </trkpt>
      <trkpt lat="47.64968" lon="7.13992">
        <ele>287.65045585396</ele>
        <time>2025-10-12T09:12:32Z</time>
      </trkpt>
      <trkpt lat="47.64968" lon="7.13989">
        <ele>287.68494571662</ele>
        <time>2025-10-12T09:12:33Z</time>
      </trkpt>
      <trkpt lat="47.64967" lon="7.13985">
        <ele>287.77946195259</ele>
        <time>2025-10-12T09:12:35Z</time>
      </trkpt>
      <trkpt lat="47.64966" lon="7.1398">
        <ele>287.80269837471</ele>
        <time>2025-10-12T09:12:37Z</time>
      </trkpt>
      <trkpt lat="47.64965" lon="7.13976">
        <ele>287.87794264079</ele>
        <time>2025-10-12T09:12:39Z</time>
      </trkpt>
      <trkpt lat="47.64964" lon="7.13973">
        <ele>287.94486848433</ele>
        <time>2025-10-12T09:12:41Z</time>
      </trkpt>
      <trkpt lat="47.64963" lon="7.1397">
        <ele>287.97341713103</ele>
        <time>2025-10-12T09:12:42Z</time>
      </trkpt>
      <trkpt lat="47.64962" lon="7.13967">
        <ele>288.05344255296</ele>
        <time>2025-10-12T09:12:44Z</time>
      </trkpt>
      <trkpt lat="47.64962" lon="7.13964">
        <ele>288.11731897148</ele>
        <time>2025-10-12T09:12:45Z</time>
      </trkpt>
      <trkpt lat="47.64961" lon="7.13961">
        <ele>288.19389158113</ele>
        <time>2025-10-12T09:12:47Z</time>
      </trkpt>
      <trkpt lat="47.6496" lon="7.13956">
        <ele>288.23671571787</ele>
        <time>2025-10-12T09:12:49Z</time>
      </trkpt>
      <trkpt lat="47.64959" lon="7.13952">
        <ele>288.31834940358</ele>
        <time>2025-10-12T09:12:51Z</time>
      </trkpt>
      <trkpt lat="47.64957" lon="7.13947">
        <ele>288.42092111153</ele>
        <time>2025-10-12T09:12:53Z</time>
      </trkpt>
      <trkpt lat="47.64957" lon="7.13945">
        <ele>288.48060796503</ele>
        <time>2025-10-12T09:12:54Z</time>
      </trkpt>
      <trkpt lat="47.64957" lon="7.13941">
        <ele>288.50520757654</ele>
        <time>2025-10-12T09:12:56Z</time>
      </trkpt>
      <trkpt lat="47.64957" lon="7.13937">
        <ele>288.57811440029</ele>
        <time>2025-10-12T09:12:58Z</time>
      </trkpt>
      <trkpt lat="47.64956" lon="7.13935">
        <ele>288.69697396169</ele>
        <time>2025-10-12T09:13:00Z</time>
      </trkpt>
      <trkpt lat="47.64955" lon="7.13931">
        <ele>288.85325105828</ele>
        <time>2025-10-12T09:13:02Z</time>
      </trkpt>
      <trkpt lat="47.64954" lon="7.13926">
        <ele>289.03470671255</ele>
        <time>2025-10-12T09:13:04Z</time>
      </trkpt>
      <trkpt lat="47.64954" lon="7.13923">
        <ele>289.12563520678</ele>
        <time>2025-10-12T09:13:05Z</time>
      </trkpt>
      <trkpt lat="47.64954" lon="7.13918">
        <ele>289.27691328108</ele>
        <time>2025-10-12T09:13:07Z</time>
      </trkpt>
      <trkpt lat="47.64953" lon="7.13914">
        <ele>289.45254288312</ele>
        <time>2025-10-12T09:13:09Z</time>
      </trkpt>
      <trkpt lat="47.64953" lon="7.13909">
        <ele>289.49296006781</ele>
        <time>2025-10-12T09:13:11Z</time>
      </trkpt>
      <trkpt lat="47.64951" lon="7.13906">
        <ele>289.65366300674</ele>
        <time>2025-10-12T09:13:13Z</time>
      </trkpt>
      <trkpt lat="47.6495" lon="7.13903">
        <ele>289.81554957715</ele>
        <time>2025-10-12T09:13:15Z</time>
      </trkpt>
      <trkpt lat="47.6495" lon="7.13899">
        <ele>289.9043339702</ele>
        <time>2025-10-12T09:13:17Z</time>
      </trkpt>
      <trkpt lat="47.64949" lon="7.13895">
        <ele>289.99006098649</ele>
        <time>2025-10-12T09:13:19Z</time>
      </trkpt>
      <trkpt lat="47.64948" lon="7.13891">
        <ele>290.09849638165</ele>
        <time>2025-10-12T09:13:21Z</time>
      </trkpt>
      <trkpt lat="47.64948" lon="7.13887">
        <ele>290.13497868482</ele>
        <time>2025-10-12T09:13:23Z</time>
      </trkpt>
      <trkpt lat="47.64946" lon="7.13883">
        <ele>289.99247729692</ele>
        <time>2025-10-12T09:13:25Z</time>
      </trkpt>
      <trkpt lat="47.64945" lon="7.1388">
        <ele>289.83561771273</ele>
        <time>2025-10-12T09:13:27Z</time>
      </trkpt>
      <trkpt lat="47.64945" lon="7.13877">
        <ele>289.65058018378</ele>
        <time>2025-10-12T09:13:29Z</time>
      </trkpt>
      <trkpt lat="47.64944" lon="7.13873">
        <ele>289.43558405654</ele>
        <time>2025-10-12T09:13:31Z</time>
      </trkpt>
      <trkpt lat="47.64943" lon="7.13869">
        <ele>289.13446864116</ele>
        <time>2025-10-12T09:13:33Z</time>
      </trkpt>
      <trkpt lat="47.64942" lon="7.13866">
        <ele>289.00671430491</ele>
        <time>2025-10-12T09:13:34Z</time>
      </trkpt>
      <trkpt lat="47.64942" lon="7.13863">
        <ele>288.72417194804</ele>
        <time>2025-10-12T09:13:36Z</time>
      </trkpt>
      <trkpt lat="47.64942" lon="7.13858">
        <ele>288.48393472027</ele>
        <time>2025-10-12T09:13:38Z</time>
      </trkpt>
      <trkpt lat="47.64941" lon="7.13855">
        <ele>288.39531081517</ele>
        <time>2025-10-12T09:13:39Z</time>
      </trkpt>
      <trkpt lat="47.64941" lon="7.13852">
        <ele>288.33083013852</ele>
        <time>2025-10-12T09:13:40Z</time>
      </trkpt>
      <trkpt lat="47.6494" lon="7.13847">
        <ele>288.18750404876</ele>
        <time>2025-10-12T09:13:42Z</time>
      </trkpt>
      <trkpt lat="47.6494" lon="7.13842">
        <ele>288.091555407</ele>
        <time>2025-10-12T09:13:44Z</time>
      </trkpt>
      <trkpt lat="47.6494" lon="7.13838">
        <ele>287.96505789568</ele>
        <time>2025-10-12T09:13:46Z</time>
      </trkpt>
      <trkpt lat="47.6494" lon="7.13835">
        <ele>287.85859608219</ele>
        <time>2025-10-12T09:13:48Z</time>
      </trkpt>
      <trkpt lat="47.6494" lon="7.13832">
        <ele>287.74726718183</ele>
        <time>2025-10-12T09:13:50Z</time>
      </trkpt>
      <trkpt lat="47.64939" lon="7.13828">
        <ele>287.79783358033</ele>
        <time>2025-10-12T09:13:52Z</time>
      </trkpt>
      <trkpt lat="47.64938" lon="7.13825">
        <ele>287.83878815789</ele>
        <time>2025-10-12T09:13:54Z</time>
      </trkpt>
      <trkpt lat="47.64937" lon="7.13823">
        <ele>287.90652192241</ele>
        <time>2025-10-12T09:13:56Z</time>
      </trkpt>
      <trkpt lat="47.64936" lon="7.1382">
        <ele>287.94692307597</ele>
        <time>2025-10-12T09:13:58Z</time>
      </trkpt>
      <trkpt lat="47.64935" lon="7.13816">
        <ele>288.0240308839</ele>
        <time>2025-10-12T09:14:00Z</time>
      </trkpt>
      <trkpt lat="47.64935" lon="7.13811">
        <ele>288.06598695953</ele>
        <time>2025-10-12T09:14:02Z</time>
      </trkpt>
      <trkpt lat="47.64934" lon="7.13807">
        <ele>288.097083095</ele>
        <time>2025-10-12T09:14:04Z</time>
      </trkpt>
      <trkpt lat="47.64934" lon="7.13802">
        <ele>288.18334284786</ele>
        <time>2025-10-12T09:14:06Z</time>
      </trkpt>
      <trkpt lat="47.64932" lon="7.13799">
        <ele>288.42674786482</ele>
        <time>2025-10-12T09:14:08Z</time>
      </trkpt>
      <trkpt lat="47.64931" lon="7.13796">
        <ele>288.63233834809</ele>
        <time>2025-10-12T09:14:10Z</time>
      </trkpt>
      <trkpt lat="47.64931" lon="7.13791">
        <ele>288.80139193359</ele>
        <time>2025-10-12T09:14:12Z</time>
      </trkpt>
      <trkpt lat="47.6493" lon="7.13785">
        <ele>289.01177326534</ele>
        <time>2025-10-12T09:14:14Z</time>
      </trkpt>
      <trkpt lat="47.6493" lon="7.13782">
        <ele>289.17541705737</ele>
        <time>2025-10-12T09:14:15Z</time>
      </trkpt>
      <trkpt lat="47.64929" lon="7.13779">
        <ele>289.30939007915</ele>
        <time>2025-10-12T09:14:16Z</time>
      </trkpt>
      <trkpt lat="47.64928" lon="7.13776">
        <ele>289.46423635594</ele>
        <time>2025-10-12T09:14:17Z</time>
      </trkpt>
      <trkpt lat="47.64927" lon="7.1377">
        <ele>289.65658652402</ele>
        <time>2025-10-12T09:14:19Z</time>
      </trkpt>
      <trkpt lat="47.64927" lon="7.13768">
        <ele>289.73510712347</ele>
        <time>2025-10-12T09:14:20Z</time>
      </trkpt>
      <trkpt lat="47.64925" lon="7.13764">
        <ele>289.8816804856</ele>
        <time>2025-10-12T09:14:22Z</time>
      </trkpt>
      <trkpt lat="47.64924" lon="7.13759">
        <ele>289.99941452977</ele>
        <time>2025-10-12T09:14:24Z</time>
      </trkpt>
      <trkpt lat="47.64923" lon="7.13753">
        <ele>290.08410444345</ele>
        <time>2025-10-12T09:14:26Z</time>
      </trkpt>
      <trkpt lat="47.64922" lon="7.13751">
        <ele>290.13928164491</ele>
        <time>2025-10-12T09:14:27Z</time>
      </trkpt>
      <trkpt lat="47.64922" lon="7.13747">
        <ele>290.11289203062</ele>
        <time>2025-10-12T09:14:29Z</time>
      </trkpt>
      <trkpt lat="47.64922" lon="7.13743">
        <ele>289.75732478975</ele>
        <time>2025-10-12T09:14:31Z</time>
      </trkpt>
      <trkpt lat="47.64922" lon="7.13739">
        <ele>289.4493681774</ele>
        <time>2025-10-12T09:14:33Z</time>
      </trkpt>
      <trkpt lat="47.64921" lon="7.13735">
        <ele>289.05940781294</ele>
        <time>2025-10-12T09:14:35Z</time>
      </trkpt>
      <trkpt lat="47.6492" lon="7.13731">
        <ele>288.70523385627</ele>
        <time>2025-10-12T09:14:37Z</time>
      </trkpt>
      <trkpt lat="47.64919" lon="7.13728">
        <ele>288.34192282959</ele>
        <time>2025-10-12T09:14:39Z</time>
      </trkpt>
      <trkpt lat="47.64919" lon="7.13725">
        <ele>288.00620872567</ele>
        <time>2025-10-12T09:14:41Z</time>
      </trkpt>
      <trkpt lat="47.64918" lon="7.13722">
        <ele>287.68795046159</ele>
        <time>2025-10-12T09:14:43Z</time>
      </trkpt>
      <trkpt lat="47.64918" lon="7.13719">
        <ele>287.50987652152</ele>
        <time>2025-10-12T09:14:45Z</time>
      </trkpt>
      <trkpt lat="47.64917" lon="7.13714">
        <ele>287.46610603603</ele>
        <time>2025-10-12T09:14:47Z</time>
      </trkpt>
      <trkpt lat="47.64915" lon="7.13712">
        <ele>287.4088813403</ele>
        <time>2025-10-12T09:14:48Z</time>
      </trkpt>
      <trkpt lat="47.64915" lon="7.13709">
        <ele>287.4819583092</ele>
        <time>2025-10-12T09:14:49Z</time>
      </trkpt>
      <trkpt lat="47.64913" lon="7.13706">
        <ele>287.62258527676</ele>
        <time>2025-10-12T09:14:51Z</time>
      </trkpt>
      <trkpt lat="47.64913" lon="7.13702">
        <ele>287.6926121519</ele>
        <time>2025-10-12T09:14:53Z</time>
      </trkpt>
      <trkpt lat="47.64912" lon="7.13698">
        <ele>287.72412632446</ele>
        <time>2025-10-12T09:14:55Z</time>
      </trkpt>
      <trkpt lat="47.6491" lon="7.13695">
        <ele>287.81472436414</ele>
        <time>2025-10-12T09:14:57Z</time>
      </trkpt>
      <trkpt lat="47.6491" lon="7.13691">
        <ele>287.9100990335</ele>
        <time>2025-10-12T09:14:59Z</time>
      </trkpt>
      <trkpt lat="47.64909" lon="7.13685">
        <ele>287.91839164738</ele>
        <time>2025-10-12T09:15:01Z</time>
      </trkpt>
      <trkpt lat="47.64908" lon="7.13681">
        <ele>287.96828933182</ele>
        <time>2025-10-12T09:15:03Z</time>
      </trkpt>
      <trkpt lat="47.64907" lon="7.13677">
        <ele>288.06914017634</ele>
        <time>2025-10-12T09:15:05Z</time>
      </trkpt>
      <trkpt lat="47.64905" lon="7.13672">
        <ele>288.16441687326</ele>
        <time>2025-10-12T09:15:07Z</time>
      </trkpt>
      <trkpt lat="47.64905" lon="7.13668">
        <ele>288.25083228671</ele>
        <time>2025-10-12T09:15:09Z</time>
      </trkpt>
      <trkpt lat="47.64903" lon="7.13664">
        <ele>288.31287106243</ele>
        <time>2025-10-12T09:15:11Z</time>
      </trkpt>
      <trkpt lat="47.64902" lon="7.13659">
        <ele>288.48331536376</ele>
        <time>2025-10-12T09:15:13Z</time>
      </trkpt>
      <trkpt lat="47.64902" lon="7.13656">
        <ele>288.57935227307</ele>
        <time>2025-10-12T09:15:14Z</time>
      </trkpt>
      <trkpt lat="47.64902" lon="7.13652">
        <ele>288.68473383798</ele>
        <time>2025-10-12T09:15:16Z</time>
      </trkpt>
      <trkpt lat="47.64902" lon="7.13648">
        <ele>288.78192626447</ele>
        <time>2025-10-12T09:15:18Z</time>
      </trkpt>
      <trkpt lat="47.64902" lon="7.13646">
        <ele>288.88410149684</ele>
        <time>2025-10-12T09:15:20Z</time>
      </trkpt>
      <trkpt lat="47.649" lon="7.13642">
        <ele>288.98642268764</ele>
        <time>2025-10-12T09:15:22Z</time>
      </trkpt>
      <trkpt lat="47.649" lon="7.13638">
        <ele>289.13727469593</ele>
        <time>2025-10-12T09:15:24Z</time>
      </trkpt>
      <trkpt lat="47.64899" lon="7.13634">
        <ele>289.34998713447</ele>
        <time>2025-10-12T09:15:26Z</time>
      </trkpt>
      <trkpt lat="47.64898" lon="7.13629">
        <ele>289.59847992048</ele>
        <time>2025-10-12T09:15:28Z</time>
      </trkpt>
      <trkpt lat="47.64898" lon="7.13627">
        <ele>289.72297932445</ele>
        <time>2025-10-12T09:15:29Z</time>
      </trkpt>
      <trkpt lat="47.64897" lon="7.13622">
        <ele>289.9520117833</ele>
        <time>2025-10-12T09:15:31Z</time>
      </trkpt>
      <trkpt lat="47.64898" lon="7.13618">
        <ele>290.10613316257</ele>
        <time>2025-10-12T09:15:33Z</time>
      </trkpt>
      <trkpt lat="47.64896" lon="7.13614">
        <ele>290.24100994765</ele>
        <time>2025-10-12T09:15:35Z</time>
      </trkpt>
      <trkpt lat="47.64895" lon="7.13611">
        <ele>290.36897340056</ele>
        <time>2025-10-12T09:15:37Z</time>
      </trkpt>
      <trkpt lat="47.64894" lon="7.13608">
        <ele>290.35045567181</ele>
        <time>2025-10-12T09:15:39Z</time>
      </trkpt>
      <trkpt lat="47.64893" lon="7.13603">
        <ele>290.24085490614</ele>
        <time>2025-10-12T09:15:41Z</time>
      </trkpt>
      <trkpt lat="47.64893" lon="7.13599">
        <ele>290.09437407183</ele>
        <time>2025-10-12T09:15:43Z</time>
      </trkpt>
      <trkpt lat="47.64893" lon="7.13596">
        <ele>289.96430605304</ele>
        <time>2025-10-12T09:15:45Z</time>
      </trkpt>
      <trkpt lat="47.64891" lon="7.13592">
        <ele>289.85892364677</ele>
        <time>2025-10-12T09:15:47Z</time>
      </trkpt>
      <trkpt lat="47.64891" lon="7.13587">
        <ele>289.69791163179</ele>
        <time>2025-10-12T09:15:49Z</time>
      </trkpt>
      <trkpt lat="47.64891" lon="7.13583">
        <ele>289.52764214885</ele>
        <time>2025-10-12T09:15:51Z</time>
      </trkpt>
      <trkpt lat="47.64891" lon="7.13579">
        <ele>289.41152508634</ele>
        <time>2025-10-12T09:15:53Z</time>
      </trkpt>
      <trkpt lat="47.6489" lon="7.13575">
        <ele>289.23354445771</ele>
        <time>2025-10-12T09:15:55Z</time>
      </trkpt>
      <trkpt lat="47.64889" lon="7.13571">
        <ele>289.04604626764</ele>
        <time>2025-10-12T09:15:57Z</time>
      </trkpt>
      <trkpt lat="47.64888" lon="7.13567">
        <ele>288.92270809842</ele>
        <time>2025-10-12T09:16:00Z</time>
      </trkpt>
      <trkpt lat="47.64887" lon="7.13565">
        <ele>288.80513883178</ele>
        <time>2025-10-12T09:16:02Z</time>
      </trkpt>
      <trkpt lat="47.64887" lon="7.13562">
        <ele>288.75506299263</ele>
        <time>2025-10-12T09:16:04Z</time>
      </trkpt>
      <trkpt lat="47.64886" lon="7.13559">
        <ele>288.76922457975</ele>
        <time>2025-10-12T09:16:07Z</time>
      </trkpt>
      <trkpt lat="47.64885" lon="7.13556">
        <ele>288.70213152345</ele>
        <time>2025-10-12T09:16:09Z</time>
      </trkpt>
      <trkpt lat="47.64884" lon="7.13553">
        <ele>288.74040712609</ele>
        <time>2025-10-12T09:16:11Z</time>
      </trkpt>
      <trkpt lat="47.64885" lon="7.13548">
        <ele>288.89766640799</ele>
        <time>2025-10-12T09:16:13Z</time>
      </trkpt>
      <trkpt lat="47.64884" lon="7.13545">
        <ele>289.08871196224</ele>
        <time>2025-10-12T09:16:15Z</time>
      </trkpt>
      <trkpt lat="47.64883" lon="7.13541">
        <ele>289.24512864337</ele>
        <time>2025-10-12T09:16:17Z</time>
      </trkpt>
      <trkpt lat="47.64883" lon="7.13537">
        <ele>289.40728271496</ele>
        <time>2025-10-12T09:16:19Z</time>
      </trkpt>
      <trkpt lat="47.64882" lon="7.13533">
        <ele>289.62310744171</ele>
        <time>2025-10-12T09:16:21Z</time>
      </trkpt>
      <trkpt lat="47.64882" lon="7.13529">
        <ele>289.80116504201</ele>
        <time>2025-10-12T09:16:23Z</time>
      </trkpt>
      <trkpt lat="47.64882" lon="7.13525">
        <ele>289.86700882293</ele>
        <time>2025-10-12T09:16:24Z</time>
      </trkpt>
      <trkpt lat="47.6488" lon="7.13522">
        <ele>290.309642569</ele>
        <time>2025-10-12T09:16:26Z</time>
      </trkpt>
      <trkpt lat="47.6488" lon="7.13519">
        <ele>290.50834424652</ele>
        <time>2025-10-12T09:16:27Z</time>
      </trkpt>
      <trkpt lat="47.6488" lon="7.13515">
        <ele>290.95743501259</ele>
        <time>2025-10-12T09:16:29Z</time>
      </trkpt>
      <trkpt lat="47.64878" lon="7.1351">
        <ele>291.36731868149</ele>
        <time>2025-10-12T09:16:31Z</time>
      </trkpt>
      <trkpt lat="47.64878" lon="7.13507">
        <ele>291.71260617784</ele>
        <time>2025-10-12T09:16:33Z</time>
      </trkpt>
      <trkpt lat="47.64878" lon="7.13502">
        <ele>292.01181100593</ele>
        <time>2025-10-12T09:16:35Z</time>
      </trkpt>
      <trkpt lat="47.64877" lon="7.13501">
        <ele>292.19582793592</ele>
        <time>2025-10-12T09:16:36Z</time>
      </trkpt>
      <trkpt lat="47.64877" lon="7.13498">
        <ele>292.38077682947</ele>
        <time>2025-10-12T09:16:38Z</time>
      </trkpt>
      <trkpt lat="47.64876" lon="7.13495">
        <ele>292.3460638184</ele>
        <time>2025-10-12T09:16:40Z</time>
      </trkpt>
      <trkpt lat="47.64875" lon="7.13492">
        <ele>292.28087704297</ele>
        <time>2025-10-12T09:16:43Z</time>
      </trkpt>
      <trkpt lat="47.64874" lon="7.13489">
        <ele>292.23449017454</ele>
        <time>2025-10-12T09:16:45Z</time>
      </trkpt>
      <trkpt lat="47.64874" lon="7.13485">
        <ele>292.16006085176</ele>
        <time>2025-10-12T09:16:47Z</time>
      </trkpt>
      <trkpt lat="47.64872" lon="7.13481">
        <ele>292.06801742523</ele>
        <time>2025-10-12T09:16:49Z</time>
      </trkpt>
      <trkpt lat="47.6487" lon="7.13478">
        <ele>291.92183301391</ele>
        <time>2025-10-12T09:16:51Z</time>
      </trkpt>
      <trkpt lat="47.64869" lon="7.13473">
        <ele>291.79268531775</ele>
        <time>2025-10-12T09:16:53Z</time>
      </trkpt>
      <trkpt lat="47.64868" lon="7.13471">
        <ele>291.71416500089</ele>
        <time>2025-10-12T09:16:54Z</time>
      </trkpt>
      <trkpt lat="47.64867" lon="7.13468">
        <ele>291.51553538131</ele>
        <time>2025-10-12T09:16:55Z</time>
      </trkpt>
      <trkpt lat="47.64866" lon="7.13466">
        <ele>291.24812298088</ele>
        <time>2025-10-12T09:16:56Z</time>
      </trkpt>
      <trkpt lat="47.64865" lon="7.13464">
        <ele>290.99382741955</ele>
        <time>2025-10-12T09:16:57Z</time>
      </trkpt>
      <trkpt lat="47.64864" lon="7.1346">
        <ele>290.47439799862</ele>
        <time>2025-10-12T09:16:59Z</time>
      </trkpt>
      <trkpt lat="47.64864" lon="7.13456">
        <ele>290.04379659992</ele>
        <time>2025-10-12T09:17:01Z</time>
      </trkpt>
      <trkpt lat="47.64863" lon="7.13452">
        <ele>289.56680656494</ele>
        <time>2025-10-12T09:17:03Z</time>
      </trkpt>
      <trkpt lat="47.64862" lon="7.13448">
        <ele>289.0339266182</ele>
        <time>2025-10-12T09:17:05Z</time>
      </trkpt>
      <trkpt lat="47.64861" lon="7.13443">
        <ele>288.58596689832</ele>
        <time>2025-10-12T09:17:07Z</time>
      </trkpt>
      <trkpt lat="47.6486" lon="7.1344">
        <ele>288.47858935191</ele>
        <time>2025-10-12T09:17:09Z</time>
      </trkpt>
      <trkpt lat="47.6486" lon="7.13436">
        <ele>288.53886597927</ele>
        <time>2025-10-12T09:17:11Z</time>
      </trkpt>
      <trkpt lat="47.6486" lon="7.13432">
        <ele>288.56522619184</ele>
        <time>2025-10-12T09:17:13Z</time>
      </trkpt>
      <trkpt lat="47.64859" lon="7.13429">
        <ele>288.55378786271</ele>
        <time>2025-10-12T09:17:14Z</time>
      </trkpt>
      <trkpt lat="47.6486" lon="7.13424">
        <ele>288.63497105276</ele>
        <time>2025-10-12T09:17:16Z</time>
      </trkpt>
      <trkpt lat="47.64858" lon="7.13422">
        <ele>288.61319459978</ele>
        <time>2025-10-12T09:17:17Z</time>
      </trkpt>
      <trkpt lat="47.64857" lon="7.13418">
        <ele>288.87929680958</ele>
        <time>2025-10-12T09:17:19Z</time>
      </trkpt>
      <trkpt lat="47.64856" lon="7.13415">
        <ele>288.94908957781</ele>
        <time>2025-10-12T09:17:20Z</time>
      </trkpt>
      <trkpt lat="47.64855" lon="7.1341">
        <ele>289.22937878183</ele>
        <time>2025-10-12T09:17:22Z</time>
      </trkpt>
      <trkpt lat="47.64855" lon="7.13407">
        <ele>289.28353014808</ele>
        <time>2025-10-12T09:17:23Z</time>
      </trkpt>
      <trkpt lat="47.64853" lon="7.13404">
        <ele>289.34939755521</ele>
        <time>2025-10-12T09:17:24Z</time>
      </trkpt>
      <trkpt lat="47.64853" lon="7.134">
        <ele>289.5748259534</ele>
        <time>2025-10-12T09:17:26Z</time>
      </trkpt>
      <trkpt lat="47.64853" lon="7.13396">
        <ele>289.64592331599</ele>
        <time>2025-10-12T09:17:28Z</time>
      </trkpt>
      <trkpt lat="47.64852" lon="7.13393">
        <ele>289.66327857673</ele>
        <time>2025-10-12T09:17:30Z</time>
      </trkpt>
      <trkpt lat="47.64851" lon="7.13389">
        <ele>289.76250761029</ele>
        <time>2025-10-12T09:17:32Z</time>
      </trkpt>
      <trkpt lat="47.6485" lon="7.13384">
        <ele>289.9177781599</ele>
        <time>2025-10-12T09:17:34Z</time>
      </trkpt>
      <trkpt lat="47.6485" lon="7.1338">
        <ele>289.97570687788</ele>
        <time>2025-10-12T09:17:35Z</time>
      </trkpt>
      <trkpt lat="47.64849" lon="7.13378">
        <ele>290.06277111198</ele>
        <time>2025-10-12T09:17:36Z</time>
      </trkpt>
      <trkpt lat="47.64848" lon="7.13374">
        <ele>290.17123339477</ele>
        <time>2025-10-12T09:17:37Z</time>
      </trkpt>
      <trkpt lat="47.64847" lon="7.1337">
        <ele>290.35807208279</ele>
        <time>2025-10-12T09:17:39Z</time>
      </trkpt>
      <trkpt lat="47.64847" lon="7.13365">
        <ele>290.4060061435</ele>
        <time>2025-10-12T09:17:41Z</time>
      </trkpt>
      <trkpt lat="47.64846" lon="7.13362">
        <ele>290.49672443674</ele>
        <time>2025-10-12T09:17:43Z</time>
      </trkpt>
      <trkpt lat="47.64845" lon="7.13359">
        <ele>290.59255841474</ele>
        <time>2025-10-12T09:17:44Z</time>
      </trkpt>
      <trkpt lat="47.64844" lon="7.13357">
        <ele>290.81461739848</ele>
        <time>2025-10-12T09:17:45Z</time>
      </trkpt>
      <trkpt lat="47.64843" lon="7.13354">
        <ele>291.1065101865</ele>
        <time>2025-10-12T09:17:46Z</time>
      </trkpt>
      <trkpt lat="47.64843" lon="7.13349">
        <ele>291.60587516809</ele>
        <time>2025-10-12T09:17:48Z</time>
      </trkpt>
      <trkpt lat="47.64842" lon="7.13346">
        <ele>291.84110929642</ele>
        <time>2025-10-12T09:17:50Z</time>
      </trkpt>
      <trkpt lat="47.64842" lon="7.13341">
        <ele>292.14092745802</ele>
        <time>2025-10-12T09:17:52Z</time>
      </trkpt>
      <trkpt lat="47.64842" lon="7.13339">
        <ele>292.28773128035</ele>
        <time>2025-10-12T09:17:53Z</time>
      </trkpt>
      <trkpt lat="47.64841" lon="7.13334">
        <ele>292.59590454211</ele>
        <time>2025-10-12T09:17:55Z</time>
      </trkpt>
      <trkpt lat="47.6484" lon="7.1333">
        <ele>292.85672553254</ele>
        <time>2025-10-12T09:17:57Z</time>
      </trkpt>
      <trkpt lat="47.64839" lon="7.13325">
        <ele>292.85379388649</ele>
        <time>2025-10-12T09:17:59Z</time>
      </trkpt>
      <trkpt lat="47.64838" lon="7.13321">
        <ele>292.79090904024</ele>
        <time>2025-10-12T09:18:01Z</time>
      </trkpt>
      <trkpt lat="47.64837" lon="7.13316">
        <ele>292.72036594618</ele>
        <time>2025-10-12T09:18:03Z</time>
      </trkpt>
      <trkpt lat="47.64836" lon="7.13312">
        <ele>292.65311083262</ele>
        <time>2025-10-12T09:18:05Z</time>
      </trkpt>
      <trkpt lat="47.64835" lon="7.13308">
        <ele>292.53387210879</ele>
        <time>2025-10-12T09:18:08Z</time>
      </trkpt>
      <trkpt lat="47.64834" lon="7.13304">
        <ele>292.41882737618</ele>
        <time>2025-10-12T09:18:10Z</time>
      </trkpt>
      <trkpt lat="47.64833" lon="7.13302">
        <ele>292.08820793471</ele>
        <time>2025-10-12T09:18:12Z</time>
      </trkpt>
      <trkpt lat="47.64833" lon="7.13297">
        <ele>291.77372498248</ele>
        <time>2025-10-12T09:18:14Z</time>
      </trkpt>
      <trkpt lat="47.64833" lon="7.13294">
        <ele>291.32857819984</ele>
        <time>2025-10-12T09:18:16Z</time>
      </trkpt>
      <trkpt lat="47.64832" lon="7.13289">
        <ele>290.95044875349</ele>
        <time>2025-10-12T09:18:18Z</time>
      </trkpt>
      <trkpt lat="47.64831" lon="7.13286">
        <ele>290.64597715141</ele>
        <time>2025-10-12T09:18:20Z</time>
      </trkpt>
      <trkpt lat="47.6483" lon="7.13284">
        <ele>290.50679398895</ele>
        <time>2025-10-12T09:18:21Z</time>
      </trkpt>
      <trkpt lat="47.64829" lon="7.13279">
        <ele>290.13191505445</ele>
        <time>2025-10-12T09:18:23Z</time>
      </trkpt>
      <trkpt lat="47.64828" lon="7.13276">
        <ele>289.97510748825</ele>
        <time>2025-10-12T09:18:25Z</time>
      </trkpt>
      <trkpt lat="47.64828" lon="7.13272">
        <ele>290.01686674413</ele>
        <time>2025-10-12T09:18:27Z</time>
      </trkpt>
      <trkpt lat="47.64827" lon="7.13267">
        <ele>290.05422037185</ele>
        <time>2025-10-12T09:18:29Z</time>
      </trkpt>
      <trkpt lat="47.64826" lon="7.13263">
        <ele>290.14020212346</ele>
        <time>2025-10-12T09:18:31Z</time>
      </trkpt>
      <trkpt lat="47.64826" lon="7.1326">
        <ele>290.21531303961</ele>
        <time>2025-10-12T09:18:33Z</time>
      </trkpt>
      <trkpt lat="47.64825" lon="7.13257">
        <ele>290.22493973597</ele>
        <time>2025-10-12T09:18:34Z</time>
      </trkpt>
      <trkpt lat="47.64825" lon="7.13252">
        <ele>290.27875502022</ele>
        <time>2025-10-12T09:18:36Z</time>
      </trkpt>
      <trkpt lat="47.64825" lon="7.13248">
        <ele>290.30466335129</ele>
        <time>2025-10-12T09:18:38Z</time>
      </trkpt>
      <trkpt lat="47.64824" lon="7.13243">
        <ele>290.52811243704</ele>
        <time>2025-10-12T09:18:40Z</time>
      </trkpt>
      <trkpt lat="47.64823" lon="7.13238">
        <ele>290.76960168864</ele>
        <time>2025-10-12T09:18:42Z</time>
      </trkpt>
      <trkpt lat="47.64823" lon="7.13235">
        <ele>291.00205106602</ele>
        <time>2025-10-12T09:18:44Z</time>
      </trkpt>
      <trkpt lat="47.64822" lon="7.13233">
        <ele>291.15046900462</ele>
        <time>2025-10-12T09:18:46Z</time>
      </trkpt>
      <trkpt lat="47.64822" lon="7.13229">
        <ele>291.25974279582</ele>
        <time>2025-10-12T09:18:48Z</time>
      </trkpt>
      <trkpt lat="47.64821" lon="7.13225">
        <ele>291.42601223051</ele>
        <time>2025-10-12T09:18:50Z</time>
      </trkpt>
      <trkpt lat="47.6482" lon="7.13222">
        <ele>291.75283178521</ele>
        <time>2025-10-12T09:18:52Z</time>
      </trkpt>
      <trkpt lat="47.6482" lon="7.13218">
        <ele>291.76269177763</ele>
        <time>2025-10-12T09:18:54Z</time>
      </trkpt>
      <trkpt lat="47.64818" lon="7.13214">
        <ele>291.79498031896</ele>
        <time>2025-10-12T09:18:56Z</time>
      </trkpt>
      <trkpt lat="47.64818" lon="7.13212">
        <ele>291.85065243558</ele>
        <time>2025-10-12T09:18:57Z</time>
      </trkpt>
      <trkpt lat="47.64817" lon="7.13207">
        <ele>291.89156457642</ele>
        <time>2025-10-12T09:18:59Z</time>
      </trkpt>
      <trkpt lat="47.64815" lon="7.13203">
        <ele>291.9018366739</ele>
        <time>2025-10-12T09:19:01Z</time>
      </trkpt>
      <trkpt lat="47.64814" lon="7.13199">
        <ele>291.92604339878</ele>
        <time>2025-10-12T09:19:03Z</time>
      </trkpt>
      <trkpt lat="47.64813" lon="7.13196">
        <ele>291.9189987839</ele>
        <time>2025-10-12T09:19:05Z</time>
      </trkpt>
      <trkpt lat="47.64813" lon="7.13193">
        <ele>291.84976390904</ele>
        <time>2025-10-12T09:19:07Z</time>
      </trkpt>
      <trkpt lat="47.64812" lon="7.1319">
        <ele>292.03135122338</ele>
        <time>2025-10-12T09:19:09Z</time>
      </trkpt>
      <trkpt lat="47.64811" lon="7.13185">
        <ele>292.2628472723</ele>
        <time>2025-10-12T09:19:11Z</time>
      </trkpt>
      <trkpt lat="47.6481" lon="7.13181">
        <ele>292.50541949598</ele>
        <time>2025-10-12T09:19:13Z</time>
      </trkpt>
      <trkpt lat="47.64809" lon="7.13176">
        <ele>292.76586250949</ele>
        <time>2025-10-12T09:19:16Z</time>
      </trkpt>
      <trkpt lat="47.64809" lon="7.13172">
        <ele>292.95648907706</ele>
        <time>2025-10-12T09:19:18Z</time>
      </trkpt>
      <trkpt lat="47.64809" lon="7.13168">
        <ele>293.14163630953</ele>
        <time>2025-10-12T09:19:20Z</time>
      </trkpt>
      <trkpt lat="47.64808" lon="7.13164">
        <ele>293.24655601916</ele>
        <time>2025-10-12T09:19:22Z</time>
      </trkpt>
      <trkpt lat="47.64808" lon="7.1316">
        <ele>293.13479210591</ele>
        <time>2025-10-12T09:19:24Z</time>
      </trkpt>
      <trkpt lat="47.64808" lon="7.13156">
        <ele>292.99448592918</ele>
        <time>2025-10-12T09:19:26Z</time>
      </trkpt>
      <trkpt lat="47.64807" lon="7.13152">
        <ele>292.86584196165</ele>
        <time>2025-10-12T09:19:28Z</time>
      </trkpt>
      <trkpt lat="47.64806" lon="7.13147">
        <ele>292.76360215283</ele>
        <time>2025-10-12T09:19:30Z</time>
      </trkpt>
      <trkpt lat="47.64805" lon="7.13144">
        <ele>292.64046671763</ele>
        <time>2025-10-12T09:19:32Z</time>
      </trkpt>
      <trkpt lat="47.64804" lon="7.13141">
        <ele>292.5411466792</ele>
        <time>2025-10-12T09:19:34Z</time>
      </trkpt>
      <trkpt lat="47.64803" lon="7.13138">
        <ele>292.42766721173</ele>
        <time>2025-10-12T09:19:36Z</time>
      </trkpt>
      <trkpt lat="47.64803" lon="7.13134">
        <ele>292.23482099127</ele>
        <time>2025-10-12T09:19:38Z</time>
      </trkpt>
      <trkpt lat="47.64802" lon="7.13131">
        <ele>291.99612617164</ele>
        <time>2025-10-12T09:19:40Z</time>
      </trkpt>
      <trkpt lat="47.64801" lon="7.13128">
        <ele>291.77009878155</ele>
        <time>2025-10-12T09:19:42Z</time>
      </trkpt>
      <trkpt lat="47.64801" lon="7.13124">
        <ele>291.60391699886</ele>
        <time>2025-10-12T09:19:44Z</time>
      </trkpt>
      <trkpt lat="47.648" lon="7.13121">
        <ele>291.40811303016</ele>
        <time>2025-10-12T09:19:46Z</time>
      </trkpt>
      <trkpt lat="47.648" lon="7.13117">
        <ele>291.23830037621</ele>
        <time>2025-10-12T09:19:48Z</time>
      </trkpt>
      <trkpt lat="47.64799" lon="7.13113">
        <ele>291.04331703239</ele>
        <time>2025-10-12T09:19:50Z</time>
      </trkpt>
      <trkpt lat="47.64797" lon="7.13109">
        <ele>290.9594146843</ele>
        <time>2025-10-12T09:19:52Z</time>
      </trkpt>
      <trkpt lat="47.64796" lon="7.13106">
        <ele>291.18157340252</ele>
        <time>2025-10-12T09:19:54Z</time>
      </trkpt>
      <trkpt lat="47.64794" lon="7.13103">
        <ele>291.43765607369</ele>
        <time>2025-10-12T09:19:56Z</time>
      </trkpt>
      <trkpt lat="47.64792" lon="7.13099">
        <ele>291.5940474668</ele>
        <time>2025-10-12T09:19:58Z</time>
      </trkpt>
      <trkpt lat="47.64791" lon="7.13095">
        <ele>291.892992057</ele>
        <time>2025-10-12T09:20:00Z</time>
      </trkpt>
      <trkpt lat="47.64791" lon="7.13091">
        <ele>292.09108770408</ele>
        <time>2025-10-12T09:20:02Z</time>
      </trkpt>
      <trkpt lat="47.64789" lon="7.13088">
        <ele>292.31041668301</ele>
        <time>2025-10-12T09:20:04Z</time>
      </trkpt>
      <trkpt lat="47.64788" lon="7.13085">
        <ele>292.41338991964</ele>
        <time>2025-10-12T09:20:05Z</time>
      </trkpt>
      <trkpt lat="47.64786" lon="7.13084">
        <ele>292.68768023251</ele>
        <time>2025-10-12T09:20:07Z</time>
      </trkpt>
      <trkpt lat="47.64784" lon="7.13083">
        <ele>292.94709800826</ele>
        <time>2025-10-12T09:20:27Z</time>
      </trkpt>
      <trkpt lat="47.64783" lon="7.13085">
        <ele>292.99494379301</ele>
        <time>2025-10-12T09:20:52Z</time>
      </trkpt>
      <trkpt lat="47.64785" lon="7.13083">
        <ele>292.89427345165</ele>
        <time>2025-10-12T09:21:17Z</time>
      </trkpt>
      <trkpt lat="47.64785" lon="7.13079">
        <ele>292.95946233443</ele>
        <time>2025-10-12T09:21:19Z</time>
      </trkpt>
      <trkpt lat="47.64784" lon="7.13076">
        <ele>293.05361062218</ele>
        <time>2025-10-12T09:21:21Z</time>
      </trkpt>
      <trkpt lat="47.64783" lon="7.13072">
        <ele>293.22892435848</ele>
        <time>2025-10-12T09:21:23Z</time>
      </trkpt>
      <trkpt lat="47.64782" lon="7.13069">
        <ele>293.42409180248</ele>
        <time>2025-10-12T09:21:25Z</time>
      </trkpt>
      <trkpt lat="47.64781" lon="7.13067">
        <ele>293.64145439957</ele>
        <time>2025-10-12T09:21:28Z</time>
      </trkpt>
      <trkpt lat="47.64779" lon="7.13064">
        <ele>293.82863305748</ele>
        <time>2025-10-12T09:21:30Z</time>
      </trkpt>
      <trkpt lat="47.64778" lon="7.13061">
        <ele>294.04043984162</ele>
        <time>2025-10-12T09:21:32Z</time>
      </trkpt>
      <trkpt lat="47.64777" lon="7.13057">
        <ele>294.27610801933</ele>
        <time>2025-10-12T09:21:34Z</time>
      </trkpt>
      <trkpt lat="47.64777" lon="7.13053">
        <ele>294.25900516741</ele>
        <time>2025-10-12T09:21:36Z</time>
      </trkpt>
      <trkpt lat="47.64777" lon="7.1305">
        <ele>294.07033678078</ele>
        <time>2025-10-12T09:21:37Z</time>
      </trkpt>
      <trkpt lat="47.64776" lon="7.13048">
        <ele>293.79554342844</ele>
        <time>2025-10-12T09:21:38Z</time>
      </trkpt>
      <trkpt lat="47.64774" lon="7.13044">
        <ele>293.37125304934</ele>
        <time>2025-10-12T09:21:40Z</time>
      </trkpt>
      <trkpt lat="47.64773" lon="7.1304">
        <ele>292.98831965482</ele>
        <time>2025-10-12T09:21:42Z</time>
      </trkpt>
      <trkpt lat="47.64772" lon="7.13036">
        <ele>292.70579738875</ele>
        <time>2025-10-12T09:21:44Z</time>
      </trkpt>
      <trkpt lat="47.64771" lon="7.13033">
        <ele>292.52387220408</ele>
        <time>2025-10-12T09:21:45Z</time>
      </trkpt>
      <trkpt lat="47.6477" lon="7.1303">
        <ele>292.2125634367</ele>
        <time>2025-10-12T09:21:47Z</time>
      </trkpt>
      <trkpt lat="47.64768" lon="7.13028">
        <ele>292.13512620146</ele>
        <time>2025-10-12T09:21:48Z</time>
      </trkpt>
      <trkpt lat="47.64766" lon="7.13023">
        <ele>292.19453107921</ele>
        <time>2025-10-12T09:21:50Z</time>
      </trkpt>
      <trkpt lat="47.64765" lon="7.1302">
        <ele>292.39223908063</ele>
        <time>2025-10-12T09:21:52Z</time>
      </trkpt>
      <trkpt lat="47.64764" lon="7.13015">
        <ele>292.56023056494</ele>
        <time>2025-10-12T09:21:54Z</time>
      </trkpt>
      <trkpt lat="47.64763" lon="7.13013">
        <ele>292.63093417405</ele>
        <time>2025-10-12T09:21:55Z</time>
      </trkpt>
      <trkpt lat="47.64762" lon="7.13009">
        <ele>292.77228493047</ele>
        <time>2025-10-12T09:21:56Z</time>
      </trkpt>
      <trkpt lat="47.6476" lon="7.13007">
        <ele>292.92696260865</ele>
        <time>2025-10-12T09:21:57Z</time>
      </trkpt>
      <trkpt lat="47.64759" lon="7.13005">
        <ele>293.1350207085</ele>
        <time>2025-10-12T09:21:58Z</time>
      </trkpt>
      <trkpt lat="47.64757" lon="7.13003">
        <ele>293.3191932177</ele>
        <time>2025-10-12T09:21:59Z</time>
      </trkpt>
      <trkpt lat="47.64757" lon="7.12999">
        <ele>293.63385557506</ele>
        <time>2025-10-12T09:22:01Z</time>
      </trkpt>
      <trkpt lat="47.64756" lon="7.12995">
        <ele>293.64145715469</ele>
        <time>2025-10-12T09:22:03Z</time>
      </trkpt>
      <trkpt lat="47.64756" lon="7.1299">
        <ele>293.63259579256</ele>
        <time>2025-10-12T09:22:05Z</time>
      </trkpt>
      <trkpt lat="47.64755" lon="7.12988">
        <ele>293.57994315775</ele>
        <time>2025-10-12T09:22:06Z</time>
      </trkpt>
      <trkpt lat="47.64754" lon="7.12984">
        <ele>293.54515570141</ele>
        <time>2025-10-12T09:22:08Z</time>
      </trkpt>
      <trkpt lat="47.64754" lon="7.1298">
        <ele>293.52174752412</ele>
        <time>2025-10-12T09:22:10Z</time>
      </trkpt>
      <trkpt lat="47.64753" lon="7.12977">
        <ele>293.46193458492</ele>
        <time>2025-10-12T09:22:12Z</time>
      </trkpt>
      <trkpt lat="47.64751" lon="7.12974">
        <ele>293.42115945358</ele>
        <time>2025-10-12T09:22:14Z</time>
      </trkpt>
      <trkpt lat="47.6475" lon="7.12971">
        <ele>293.38486760802</ele>
        <time>2025-10-12T09:22:16Z</time>
      </trkpt>
      <trkpt lat="47.64748" lon="7.12968">
        <ele>293.33471314901</ele>
        <time>2025-10-12T09:22:19Z</time>
      </trkpt>
      <trkpt lat="47.64747" lon="7.12965">
        <ele>293.29045730758</ele>
        <time>2025-10-12T09:22:21Z</time>
      </trkpt>
      <trkpt lat="47.64745" lon="7.12961">
        <ele>293.24328714906</ele>
        <time>2025-10-12T09:22:23Z</time>
      </trkpt>
      <trkpt lat="47.64744" lon="7.12958">
        <ele>293.15285664621</ele>
        <time>2025-10-12T09:22:25Z</time>
      </trkpt>
      <trkpt lat="47.64742" lon="7.12956">
        <ele>293.11009443103</ele>
        <time>2025-10-12T09:22:27Z</time>
      </trkpt>
      <trkpt lat="47.64741" lon="7.12953">
        <ele>293.09746841222</ele>
        <time>2025-10-12T09:22:28Z</time>
      </trkpt>
      <trkpt lat="47.6474" lon="7.1295">
        <ele>293.03935156229</ele>
        <time>2025-10-12T09:22:29Z</time>
      </trkpt>
      <trkpt lat="47.64737" lon="7.12946">
        <ele>292.94024233917</ele>
        <time>2025-10-12T09:22:31Z</time>
      </trkpt>
      <trkpt lat="47.64735" lon="7.12944">
        <ele>292.92425765563</ele>
        <time>2025-10-12T09:22:33Z</time>
      </trkpt>
      <trkpt lat="47.64732" lon="7.12941">
        <ele>293.01241964717</ele>
        <time>2025-10-12T09:22:35Z</time>
      </trkpt>
      <trkpt lat="47.6473" lon="7.12937">
        <ele>293.14158862061</ele>
        <time>2025-10-12T09:22:37Z</time>
      </trkpt>
      <trkpt lat="47.64728" lon="7.12933">
        <ele>293.22504980497</ele>
        <time>2025-10-12T09:22:39Z</time>
      </trkpt>
      <trkpt lat="47.64727" lon="7.12929">
        <ele>293.29484834503</ele>
        <time>2025-10-12T09:22:41Z</time>
      </trkpt>
      <trkpt lat="47.64726" lon="7.12926">
        <ele>293.34559729479</ele>
        <time>2025-10-12T09:22:43Z</time>
      </trkpt>
      <trkpt lat="47.64723" lon="7.12923">
        <ele>293.37800908116</ele>
        <time>2025-10-12T09:22:45Z</time>
      </trkpt>
      <trkpt lat="47.64721" lon="7.1292">
        <ele>293.40605445147</ele>
        <time>2025-10-12T09:22:47Z</time>
      </trkpt>
      <trkpt lat="47.64719" lon="7.12917">
        <ele>293.4861807914</ele>
        <time>2025-10-12T09:22:49Z</time>
      </trkpt>
      <trkpt lat="47.64716" lon="7.12914">
        <ele>293.52774407873</ele>
        <time>2025-10-12T09:22:51Z</time>
      </trkpt>
      <trkpt lat="47.64714" lon="7.12911">
        <ele>293.51676688933</ele>
        <time>2025-10-12T09:22:53Z</time>
      </trkpt>
      <trkpt lat="47.64712" lon="7.12909">
        <ele>293.48744172437</ele>
        <time>2025-10-12T09:22:55Z</time>
      </trkpt>
      <trkpt lat="47.6471" lon="7.12906">
        <ele>293.46763126081</ele>
        <time>2025-10-12T09:22:57Z</time>
      </trkpt>
      <trkpt lat="47.64708" lon="7.12902">
        <ele>293.39833739201</ele>
        <time>2025-10-12T09:22:59Z</time>
      </trkpt>
      <trkpt lat="47.64706" lon="7.12899">
        <ele>293.37982188253</ele>
        <time>2025-10-12T09:23:01Z</time>
      </trkpt>
      <trkpt lat="47.64704" lon="7.12897">
        <ele>293.34520282851</ele>
        <time>2025-10-12T09:23:03Z</time>
      </trkpt>
      <trkpt lat="47.64702" lon="7.12892">
        <ele>293.29396796609</ele>
        <time>2025-10-12T09:23:05Z</time>
      </trkpt>
      <trkpt lat="47.647" lon="7.12889">
        <ele>293.22414012674</ele>
        <time>2025-10-12T09:23:07Z</time>
      </trkpt>
      <trkpt lat="47.64698" lon="7.12886">
        <ele>293.2391934963</ele>
        <time>2025-10-12T09:23:09Z</time>
      </trkpt>
      <trkpt lat="47.64696" lon="7.12884">
        <ele>293.30657486496</ele>
        <time>2025-10-12T09:23:11Z</time>
      </trkpt>
      <trkpt lat="47.64694" lon="7.12883">
        <ele>293.37539137884</ele>
        <time>2025-10-12T09:23:13Z</time>
      </trkpt>
      <trkpt lat="47.64692" lon="7.1288">
        <ele>293.43817152396</ele>
        <time>2025-10-12T09:23:15Z</time>
      </trkpt>
      <trkpt lat="47.6469" lon="7.12877">
        <ele>293.47622699875</ele>
        <time>2025-10-12T09:23:17Z</time>
      </trkpt>
      <trkpt lat="47.64688" lon="7.12873">
        <ele>293.49348530008</ele>
        <time>2025-10-12T09:23:19Z</time>
      </trkpt>
      <trkpt lat="47.64685" lon="7.1287">
        <ele>293.50614933817</ele>
        <time>2025-10-12T09:23:21Z</time>
      </trkpt>
      <trkpt lat="47.64684" lon="7.12868">
        <ele>293.50692863926</ele>
        <time>2025-10-12T09:23:22Z</time>
      </trkpt>
      <trkpt lat="47.64681" lon="7.12865">
        <ele>293.48501424031</ele>
        <time>2025-10-12T09:23:24Z</time>
      </trkpt>
      <trkpt lat="47.64679" lon="7.12861">
        <ele>293.44378588001</ele>
        <time>2025-10-12T09:23:26Z</time>
      </trkpt>
      <trkpt lat="47.64678" lon="7.12859">
        <ele>293.40480911473</ele>
        <time>2025-10-12T09:23:27Z</time>
      </trkpt>
      <trkpt lat="47.64676" lon="7.12856">
        <ele>293.40006848452</ele>
        <time>2025-10-12T09:23:29Z</time>
      </trkpt>
      <trkpt lat="47.64674" lon="7.12853">
        <ele>293.40002107822</ele>
        <time>2025-10-12T09:23:31Z</time>
      </trkpt>
      <trkpt lat="47.64671" lon="7.1285">
        <ele>293.40002060415</ele>
        <time>2025-10-12T09:23:33Z</time>
      </trkpt>
      <trkpt lat="47.64669" lon="7.12847">
        <ele>293.40002059941</ele>
        <time>2025-10-12T09:23:35Z</time>
      </trkpt>
      <trkpt lat="47.64667" lon="7.12845">
        <ele>293.40002059937</ele>
        <time>2025-10-12T09:23:37Z</time>
      </trkpt>
      <trkpt lat="47.64664" lon="7.12842">
        <ele>293.43465499878</ele>
        <time>2025-10-12T09:23:39Z</time>
      </trkpt>
      <trkpt lat="47.64663" lon="7.1284">
        <ele>293.5201673584</ele>
        <time>2025-10-12T09:23:41Z</time>
      </trkpt>
      <trkpt lat="47.64659" lon="7.12837">
        <ele>293.59511977203</ele>
        <time>2025-10-12T09:23:43Z</time>
      </trkpt>
      <trkpt lat="47.64657" lon="7.12834">
        <ele>293.72307449637</ele>
        <time>2025-10-12T09:23:45Z</time>
      </trkpt>
      <trkpt lat="47.64655" lon="7.12831">
        <ele>293.77665995181</ele>
        <time>2025-10-12T09:23:47Z</time>
      </trkpt>
      <trkpt lat="47.64653" lon="7.12829">
        <ele>293.79780341135</ele>
        <time>2025-10-12T09:23:49Z</time>
      </trkpt>
      <trkpt lat="47.64651" lon="7.12827">
        <ele>293.8258871604</ele>
        <time>2025-10-12T09:23:51Z</time>
      </trkpt>
      <trkpt lat="47.64649" lon="7.12826">
        <ele>293.86249703841</ele>
        <time>2025-10-12T09:23:53Z</time>
      </trkpt>
      <trkpt lat="47.64646" lon="7.12823">
        <ele>293.87531064696</ele>
        <time>2025-10-12T09:23:55Z</time>
      </trkpt>
      <trkpt lat="47.64644" lon="7.12821">
        <ele>293.86142297494</ele>
        <time>2025-10-12T09:23:57Z</time>
      </trkpt>
      <trkpt lat="47.64642" lon="7.12819">
        <ele>293.84233817537</ele>
        <time>2025-10-12T09:23:59Z</time>
      </trkpt>
      <trkpt lat="47.64639" lon="7.12816">
        <ele>293.80627421946</ele>
        <time>2025-10-12T09:24:01Z</time>
      </trkpt>
      <trkpt lat="47.64637" lon="7.12815">
        <ele>293.75348682209</ele>
        <time>2025-10-12T09:24:03Z</time>
      </trkpt>
      <trkpt lat="47.64635" lon="7.12814">
        <ele>293.7656437109</ele>
        <time>2025-10-12T09:24:04Z</time>
      </trkpt>
      <trkpt lat="47.64633" lon="7.12811">
        <ele>293.77550361271</ele>
        <time>2025-10-12T09:24:06Z</time>
      </trkpt>
      <trkpt lat="47.64632" lon="7.12809">
        <ele>293.76949333918</ele>
        <time>2025-10-12T09:24:07Z</time>
      </trkpt>
      <trkpt lat="47.6463" lon="7.12808">
        <ele>293.7631794212</ele>
        <time>2025-10-12T09:24:08Z</time>
      </trkpt>
      <trkpt lat="47.64628" lon="7.12806">
        <ele>293.77345196006</ele>
        <time>2025-10-12T09:24:09Z</time>
      </trkpt>
      <trkpt lat="47.64626" lon="7.12803">
        <ele>293.85353518641</ele>
        <time>2025-10-12T09:24:11Z</time>
      </trkpt>
      <trkpt lat="47.64623" lon="7.128">
        <ele>293.98835548889</ele>
        <time>2025-10-12T09:24:13Z</time>
      </trkpt>
      <trkpt lat="47.6462" lon="7.12796">
        <ele>294.11396455617</ele>
        <time>2025-10-12T09:24:15Z</time>
      </trkpt>
      <trkpt lat="47.64618" lon="7.12793">
        <ele>294.22293610094</ele>
        <time>2025-10-12T09:24:17Z</time>
      </trkpt>
      <trkpt lat="47.64615" lon="7.1279">
        <ele>294.30462151952</ele>
        <time>2025-10-12T09:24:19Z</time>
      </trkpt>
      <trkpt lat="47.64613" lon="7.12788">
        <ele>294.35438795866</ele>
        <time>2025-10-12T09:24:21Z</time>
      </trkpt>
      <trkpt lat="47.64611" lon="7.12785">
        <ele>294.39222815235</ele>
        <time>2025-10-12T09:24:23Z</time>
      </trkpt>
      <trkpt lat="47.64609" lon="7.12783">
        <ele>294.43301152255</ele>
        <time>2025-10-12T09:24:25Z</time>
      </trkpt>
      <trkpt lat="47.64607" lon="7.12781">
        <ele>294.51386125078</ele>
        <time>2025-10-12T09:24:27Z</time>
      </trkpt>
      <trkpt lat="47.64605" lon="7.1278">
        <ele>294.58404529817</ele>
        <time>2025-10-12T09:24:30Z</time>
      </trkpt>
      <trkpt lat="47.64603" lon="7.12779">
        <ele>294.64100025065</ele>
        <time>2025-10-12T09:24:32Z</time>
      </trkpt>
      <trkpt lat="47.64601" lon="7.12777">
        <ele>294.73188840369</ele>
        <time>2025-10-12T09:24:34Z</time>
      </trkpt>
      <trkpt lat="47.646" lon="7.12774">
        <ele>294.76741148136</ele>
        <time>2025-10-12T09:24:35Z</time>
      </trkpt>
      <trkpt lat="47.64599" lon="7.12771">
        <ele>294.79005253424</ele>
        <time>2025-10-12T09:24:36Z</time>
      </trkpt>
      <trkpt lat="47.64597" lon="7.12769">
        <ele>294.86992799879</ele>
        <time>2025-10-12T09:24:38Z</time>
      </trkpt>
      <trkpt lat="47.64595" lon="7.12765">
        <ele>294.96906812307</ele>
        <time>2025-10-12T09:24:40Z</time>
      </trkpt>
      <trkpt lat="47.64593" lon="7.12762">
        <ele>295.03719972206</ele>
        <time>2025-10-12T09:24:42Z</time>
      </trkpt>
      <trkpt lat="47.64591" lon="7.12759">
        <ele>295.0844328569</ele>
        <time>2025-10-12T09:24:44Z</time>
      </trkpt>
      <trkpt lat="47.64589" lon="7.12756">
        <ele>295.13664530055</ele>
        <time>2025-10-12T09:24:46Z</time>
      </trkpt>
      <trkpt lat="47.64587" lon="7.12753">
        <ele>295.22718939765</ele>
        <time>2025-10-12T09:24:48Z</time>
      </trkpt>
      <trkpt lat="47.64586" lon="7.12751">
        <ele>295.2931064353</ele>
        <time>2025-10-12T09:24:50Z</time>
      </trkpt>
      <trkpt lat="47.64584" lon="7.1275">
        <ele>295.31621516929</ele>
        <time>2025-10-12T09:24:51Z</time>
      </trkpt>
      <trkpt lat="47.64581" lon="7.12747">
        <ele>295.33644786489</ele>
        <time>2025-10-12T09:24:53Z</time>
      </trkpt>
      <trkpt lat="47.6458" lon="7.12745">
        <ele>295.30239440502</ele>
        <time>2025-10-12T09:24:54Z</time>
      </trkpt>
      <trkpt lat="47.64577" lon="7.12742">
        <ele>295.25806502834</ele>
        <time>2025-10-12T09:24:56Z</time>
      </trkpt>
      <trkpt lat="47.64575" lon="7.12739">
        <ele>295.23079037471</ele>
        <time>2025-10-12T09:24:58Z</time>
      </trkpt>
      <trkpt lat="47.64573" lon="7.12737">
        <ele>295.25921117065</ele>
        <time>2025-10-12T09:25:00Z</time>
      </trkpt>
      <trkpt lat="47.64571" lon="7.12735">
        <ele>295.31746199238</ele>
        <time>2025-10-12T09:25:02Z</time>
      </trkpt>
      <trkpt lat="47.64569" lon="7.12733">
        <ele>295.36547247912</ele>
        <time>2025-10-12T09:25:04Z</time>
      </trkpt>
      <trkpt lat="47.64567" lon="7.12731">
        <ele>295.47682660742</ele>
        <time>2025-10-12T09:25:06Z</time>
      </trkpt>
      <trkpt lat="47.64565" lon="7.12729">
        <ele>295.5755069822</ele>
        <time>2025-10-12T09:25:08Z</time>
      </trkpt>
      <trkpt lat="47.64562" lon="7.12727">
        <ele>295.74175288019</ele>
        <time>2025-10-12T09:25:10Z</time>
      </trkpt>
      <trkpt lat="47.64559" lon="7.12724">
        <ele>295.93506908672</ele>
        <time>2025-10-12T09:25:12Z</time>
      </trkpt>
      <trkpt lat="47.64558" lon="7.12722">
        <ele>296.08114690806</ele>
        <time>2025-10-12T09:25:13Z</time>
      </trkpt>
      <trkpt lat="47.64555" lon="7.12719">
        <ele>296.23911213589</ele>
        <time>2025-10-12T09:25:15Z</time>
      </trkpt>
      <trkpt lat="47.64553" lon="7.12718">
        <ele>296.17749664755</ele>
        <time>2025-10-12T09:25:16Z</time>
      </trkpt>
      <trkpt lat="47.64551" lon="7.12715">
        <ele>296.04016840672</ele>
        <time>2025-10-12T09:25:18Z</time>
      </trkpt>
      <trkpt lat="47.64549" lon="7.12713">
        <ele>295.91392451885</ele>
        <time>2025-10-12T09:25:20Z</time>
      </trkpt>
      <trkpt lat="47.64548" lon="7.1271">
        <ele>295.84455508534</ele>
        <time>2025-10-12T09:25:22Z</time>
      </trkpt>
      <trkpt lat="47.64546" lon="7.12708">
        <ele>295.77631608898</ele>
        <time>2025-10-12T09:25:23Z</time>
      </trkpt>
      <trkpt lat="47.64545" lon="7.12706">
        <ele>295.70571257037</ele>
        <time>2025-10-12T09:25:25Z</time>
      </trkpt>
      <trkpt lat="47.64543" lon="7.12705">
        <ele>295.69818928377</ele>
        <time>2025-10-12T09:25:26Z</time>
      </trkpt>
      <trkpt lat="47.64541" lon="7.12703">
        <ele>295.71666302933</ele>
        <time>2025-10-12T09:25:27Z</time>
      </trkpt>
      <trkpt lat="47.64539" lon="7.12699">
        <ele>295.71152381566</ele>
        <time>2025-10-12T09:25:29Z</time>
      </trkpt>
      <trkpt lat="47.64537" lon="7.12697">
        <ele>295.7074221417</ele>
        <time>2025-10-12T09:25:30Z</time>
      </trkpt>
      <trkpt lat="47.64536" lon="7.12696">
        <ele>295.77820338055</ele>
        <time>2025-10-12T09:25:31Z</time>
      </trkpt>
      <trkpt lat="47.64534" lon="7.12693">
        <ele>295.84770776165</ele>
        <time>2025-10-12T09:25:33Z</time>
      </trkpt>
      <trkpt lat="47.64531" lon="7.12691">
        <ele>295.91496622099</ele>
        <time>2025-10-12T09:25:35Z</time>
      </trkpt>
      <trkpt lat="47.64529" lon="7.12689">
        <ele>295.96381110783</ele>
        <time>2025-10-12T09:25:37Z</time>
      </trkpt>
      <trkpt lat="47.64527" lon="7.12688">
        <ele>295.97242748224</ele>
        <time>2025-10-12T09:25:38Z</time>
      </trkpt>
      <trkpt lat="47.64525" lon="7.12685">
        <ele>295.87576999778</ele>
        <time>2025-10-12T09:25:40Z</time>
      </trkpt>
      <trkpt lat="47.64522" lon="7.12682">
        <ele>295.74893855478</ele>
        <time>2025-10-12T09:25:42Z</time>
      </trkpt>
      <trkpt lat="47.64521" lon="7.1268">
        <ele>295.69531583729</ele>
        <time>2025-10-12T09:25:43Z</time>
      </trkpt>
      <trkpt lat="47.64519" lon="7.12676">
        <ele>295.54850669383</ele>
        <time>2025-10-12T09:25:45Z</time>
      </trkpt>
      <trkpt lat="47.64517" lon="7.12675">
        <ele>295.51152255015</ele>
        <time>2025-10-12T09:25:47Z</time>
      </trkpt>
      <trkpt lat="47.64515" lon="7.12672">
        <ele>295.51956548948</ele>
        <time>2025-10-12T09:25:49Z</time>
      </trkpt>
      <trkpt lat="47.64513" lon="7.12669">
        <ele>295.52169212249</ele>
        <time>2025-10-12T09:25:51Z</time>
      </trkpt>
      <trkpt lat="47.64511" lon="7.12667">
        <ele>295.55916578139</ele>
        <time>2025-10-12T09:25:53Z</time>
      </trkpt>
      <trkpt lat="47.64509" lon="7.12665">
        <ele>295.64028178996</ele>
        <time>2025-10-12T09:25:55Z</time>
      </trkpt>
      <trkpt lat="47.64508" lon="7.12663">
        <ele>295.67305184538</ele>
        <time>2025-10-12T09:25:56Z</time>
      </trkpt>
      <trkpt lat="47.64506" lon="7.1266">
        <ele>295.68103460323</ele>
        <time>2025-10-12T09:25:58Z</time>
      </trkpt>
      <trkpt lat="47.64504" lon="7.12658">
        <ele>295.6675140896</ele>
        <time>2025-10-12T09:25:59Z</time>
      </trkpt>
      <trkpt lat="47.64503" lon="7.12656">
        <ele>295.61666863003</ele>
        <time>2025-10-12T09:26:00Z</time>
      </trkpt>
      <trkpt lat="47.645" lon="7.12653">
        <ele>295.52253681112</ele>
        <time>2025-10-12T09:26:02Z</time>
      </trkpt>
      <trkpt lat="47.64498" lon="7.12651">
        <ele>295.39659854469</ele>
        <time>2025-10-12T09:26:04Z</time>
      </trkpt>
      <trkpt lat="47.64497" lon="7.12649">
        <ele>295.34460942417</ele>
        <time>2025-10-12T09:26:05Z</time>
      </trkpt>
      <trkpt lat="47.64495" lon="7.12646">
        <ele>295.24606988117</ele>
        <time>2025-10-12T09:26:07Z</time>
      </trkpt>
      <trkpt lat="47.64493" lon="7.12645">
        <ele>295.22189054219</ele>
        <time>2025-10-12T09:26:08Z</time>
      </trkpt>
      <trkpt lat="47.64491" lon="7.12642">
        <ele>295.22864609811</ele>
        <time>2025-10-12T09:26:10Z</time>
      </trkpt>
      <trkpt lat="47.64489" lon="7.1264">
        <ele>295.23562680064</ele>
        <time>2025-10-12T09:26:12Z</time>
      </trkpt>
      <trkpt lat="47.64487" lon="7.12638">
        <ele>295.26644184692</ele>
        <time>2025-10-12T09:26:14Z</time>
      </trkpt>
      <trkpt lat="47.64484" lon="7.12636">
        <ele>295.4472152982</ele>
        <time>2025-10-12T09:26:17Z</time>
      </trkpt>
      <trkpt lat="47.64483" lon="7.12634">
        <ele>295.55545470456</ele>
        <time>2025-10-12T09:26:19Z</time>
      </trkpt>
      <trkpt lat="47.6448" lon="7.12633">
        <ele>295.64154655907</ele>
        <time>2025-10-12T09:26:21Z</time>
      </trkpt>
      <trkpt lat="47.64478" lon="7.1263">
        <ele>295.7491781075</ele>
        <time>2025-10-12T09:26:23Z</time>
      </trkpt>
      <trkpt lat="47.64476" lon="7.12629">
        <ele>295.78943769295</ele>
        <time>2025-10-12T09:26:24Z</time>
      </trkpt>
      <trkpt lat="47.64473" lon="7.12628">
        <ele>295.9087585203</ele>
        <time>2025-10-12T09:26:26Z</time>
      </trkpt>
      <trkpt lat="47.64472" lon="7.12626">
        <ele>295.96125513434</ele>
        <time>2025-10-12T09:26:28Z</time>
      </trkpt>
      <trkpt lat="47.6447" lon="7.12624">
        <ele>295.91270966591</ele>
        <time>2025-10-12T09:26:30Z</time>
      </trkpt>
      <trkpt lat="47.64468" lon="7.12623">
        <ele>295.88077253825</ele>
        <time>2025-10-12T09:26:31Z</time>
      </trkpt>
      <trkpt lat="47.64467" lon="7.12621">
        <ele>295.84077462626</ele>
        <time>2025-10-12T09:26:32Z</time>
      </trkpt>
      <trkpt lat="47.64464" lon="7.12619">
        <ele>295.80372898192</ele>
        <time>2025-10-12T09:26:34Z</time>
      </trkpt>
      <trkpt lat="47.64461" lon="7.12617">
        <ele>295.82090643807</ele>
        <time>2025-10-12T09:26:36Z</time>
      </trkpt>
      <trkpt lat="47.64459" lon="7.12614">
        <ele>295.84938448705</ele>
        <time>2025-10-12T09:26:38Z</time>
      </trkpt>
      <trkpt lat="47.64457" lon="7.12612">
        <ele>295.89701210201</ele>
        <time>2025-10-12T09:26:40Z</time>
      </trkpt>
      <trkpt lat="47.64455" lon="7.12609">
        <ele>295.9845330559</ele>
        <time>2025-10-12T09:26:42Z</time>
      </trkpt>
      <trkpt lat="47.64453" lon="7.12607">
        <ele>295.98249963506</ele>
        <time>2025-10-12T09:26:44Z</time>
      </trkpt>
      <trkpt lat="47.64451" lon="7.12605">
        <ele>295.99002141511</ele>
        <time>2025-10-12T09:26:46Z</time>
      </trkpt>
      <trkpt lat="47.64448" lon="7.12602">
        <ele>296.00593342491</ele>
        <time>2025-10-12T09:26:48Z</time>
      </trkpt>
      <trkpt lat="47.64445" lon="7.12601">
        <ele>296.00875398299</ele>
        <time>2025-10-12T09:26:50Z</time>
      </trkpt>
      <trkpt lat="47.64443" lon="7.12598">
        <ele>295.97720748154</ele>
        <time>2025-10-12T09:26:52Z</time>
      </trkpt>
      <trkpt lat="47.64441" lon="7.12594">
        <ele>295.87104149162</ele>
        <time>2025-10-12T09:26:54Z</time>
      </trkpt>
      <trkpt lat="47.6444" lon="7.12592">
        <ele>295.82205860168</ele>
        <time>2025-10-12T09:26:55Z</time>
      </trkpt>
      <trkpt lat="47.64438" lon="7.12588">
        <ele>295.75172755165</ele>
        <time>2025-10-12T09:26:57Z</time>
      </trkpt>
      <trkpt lat="47.64437" lon="7.12585">
        <ele>295.72696070377</ele>
        <time>2025-10-12T09:26:58Z</time>
      </trkpt>
      <trkpt lat="47.64435" lon="7.12584">
        <ele>295.71649146527</ele>
        <time>2025-10-12T09:26:59Z</time>
      </trkpt>
      <trkpt lat="47.64433" lon="7.1258">
        <ele>295.76508594279</ele>
        <time>2025-10-12T09:27:01Z</time>
      </trkpt>
      <trkpt lat="47.64432" lon="7.12578">
        <ele>295.80706851554</ele>
        <time>2025-10-12T09:27:02Z</time>
      </trkpt>
      <trkpt lat="47.6443" lon="7.12576">
        <ele>295.86012846715</ele>
        <time>2025-10-12T09:27:03Z</time>
      </trkpt>
      <trkpt lat="47.64429" lon="7.12575">
        <ele>295.91344471622</ele>
        <time>2025-10-12T09:27:04Z</time>
      </trkpt>
      <trkpt lat="47.64427" lon="7.12573">
        <ele>295.96843454425</ele>
        <time>2025-10-12T09:27:05Z</time>
      </trkpt>
      <trkpt lat="47.64425" lon="7.12569">
        <ele>296.0753269312</ele>
        <time>2025-10-12T09:27:07Z</time>
      </trkpt>
      <trkpt lat="47.64422" lon="7.12566">
        <ele>296.14836454403</ele>
        <time>2025-10-12T09:27:09Z</time>
      </trkpt>
      <trkpt lat="47.6442" lon="7.12563">
        <ele>296.2495127058</ele>
        <time>2025-10-12T09:27:11Z</time>
      </trkpt>
      <trkpt lat="47.64418" lon="7.12561">
        <ele>296.33464924846</ele>
        <time>2025-10-12T09:27:13Z</time>
      </trkpt>
      <trkpt lat="47.64415" lon="7.12561">
        <ele>296.39174237414</ele>
        <time>2025-10-12T09:27:15Z</time>
      </trkpt>
      <trkpt lat="47.64413" lon="7.12558">
        <ele>296.38747932102</ele>
        <time>2025-10-12T09:27:17Z</time>
      </trkpt>
      <trkpt lat="47.64411" lon="7.12556">
        <ele>296.3888513104</ele>
        <time>2025-10-12T09:27:18Z</time>
      </trkpt>
      <trkpt lat="47.64409" lon="7.12552">
        <ele>296.37189376976</ele>
        <time>2025-10-12T09:27:20Z</time>
      </trkpt>
      <trkpt lat="47.64407" lon="7.12549">
        <ele>296.33521937257</ele>
        <time>2025-10-12T09:27:22Z</time>
      </trkpt>
      <trkpt lat="47.64405" lon="7.12547">
        <ele>296.33328046692</ele>
        <time>2025-10-12T09:27:23Z</time>
      </trkpt>
      <trkpt lat="47.64403" lon="7.12544">
        <ele>296.37209886454</ele>
        <time>2025-10-12T09:27:25Z</time>
      </trkpt>
      <trkpt lat="47.64401" lon="7.12542">
        <ele>296.40500125303</ele>
        <time>2025-10-12T09:27:26Z</time>
      </trkpt>
      <trkpt lat="47.64399" lon="7.12539">
        <ele>296.50632193178</ele>
        <time>2025-10-12T09:27:28Z</time>
      </trkpt>
      <trkpt lat="47.64397" lon="7.12537">
        <ele>296.56182260761</ele>
        <time>2025-10-12T09:27:29Z</time>
      </trkpt>
      <trkpt lat="47.64395" lon="7.12536">
        <ele>296.73160199835</ele>
        <time>2025-10-12T09:27:31Z</time>
      </trkpt>
      <trkpt lat="47.64393" lon="7.12534">
        <ele>296.86706383035</ele>
        <time>2025-10-12T09:27:33Z</time>
      </trkpt>
      <trkpt lat="47.64391" lon="7.12531">
        <ele>297.03290575335</ele>
        <time>2025-10-12T09:27:35Z</time>
      </trkpt>
      <trkpt lat="47.64389" lon="7.12528">
        <ele>297.23717952903</ele>
        <time>2025-10-12T09:27:37Z</time>
      </trkpt>
      <trkpt lat="47.64387" lon="7.12524">
        <ele>297.26274674188</ele>
        <time>2025-10-12T09:27:39Z</time>
      </trkpt>
      <trkpt lat="47.64386" lon="7.12522">
        <ele>297.09032153393</ele>
        <time>2025-10-12T09:27:40Z</time>
      </trkpt>
      <trkpt lat="47.64384" lon="7.12518">
        <ele>296.79213173859</ele>
        <time>2025-10-12T09:27:42Z</time>
      </trkpt>
      <trkpt lat="47.64381" lon="7.12516">
        <ele>296.57645727472</ele>
        <time>2025-10-12T09:27:44Z</time>
      </trkpt>
      <trkpt lat="47.6438" lon="7.12513">
        <ele>296.43112120879</ele>
        <time>2025-10-12T09:27:46Z</time>
      </trkpt>
      <trkpt lat="47.64377" lon="7.12511">
        <ele>296.33103808739</ele>
        <time>2025-10-12T09:27:48Z</time>
      </trkpt>
      <trkpt lat="47.64374" lon="7.12508">
        <ele>296.25213869661</ele>
        <time>2025-10-12T09:27:50Z</time>
      </trkpt>
      <trkpt lat="47.64373" lon="7.12506">
        <ele>296.18518728815</ele>
        <time>2025-10-12T09:27:52Z</time>
      </trkpt>
      <trkpt lat="47.64371" lon="7.12504">
        <ele>296.16522852846</ele>
        <time>2025-10-12T09:27:54Z</time>
      </trkpt>
      <trkpt lat="47.6437" lon="7.125">
        <ele>296.11296747846</ele>
        <time>2025-10-12T09:27:56Z</time>
      </trkpt>
      <trkpt lat="47.64368" lon="7.12497">
        <ele>296.07251505839</ele>
        <time>2025-10-12T09:27:58Z</time>
      </trkpt>
      <trkpt lat="47.64366" lon="7.12495">
        <ele>296.08043267774</ele>
        <time>2025-10-12T09:28:00Z</time>
      </trkpt>
      <trkpt lat="47.64363" lon="7.12492">
        <ele>296.09819984222</ele>
        <time>2025-10-12T09:28:02Z</time>
      </trkpt>
      <trkpt lat="47.64361" lon="7.1249">
        <ele>296.06108991621</ele>
        <time>2025-10-12T09:28:04Z</time>
      </trkpt>
      <trkpt lat="47.64359" lon="7.12489">
        <ele>296.0161994688</ele>
        <time>2025-10-12T09:28:06Z</time>
      </trkpt>
      <trkpt lat="47.64356" lon="7.12487">
        <ele>295.9566468656</ele>
        <time>2025-10-12T09:28:08Z</time>
      </trkpt>
      <trkpt lat="47.64354" lon="7.12486">
        <ele>295.90693695968</ele>
        <time>2025-10-12T09:28:10Z</time>
      </trkpt>
      <trkpt lat="47.64353" lon="7.12483">
        <ele>295.87751835184</ele>
        <time>2025-10-12T09:28:12Z</time>
      </trkpt>
      <trkpt lat="47.64351" lon="7.1248">
        <ele>295.84973911937</ele>
        <time>2025-10-12T09:28:14Z</time>
      </trkpt>
      <trkpt lat="47.64349" lon="7.12478">
        <ele>295.84913997695</ele>
        <time>2025-10-12T09:28:16Z</time>
      </trkpt>
      <trkpt lat="47.64347" lon="7.12476">
        <ele>295.8853943615</ele>
        <time>2025-10-12T09:28:18Z</time>
      </trkpt>
      <trkpt lat="47.64345" lon="7.12475">
        <ele>295.93415442732</ele>
        <time>2025-10-12T09:28:20Z</time>
      </trkpt>
      <trkpt lat="47.64342" lon="7.12473">
        <ele>295.9755592263</ele>
        <time>2025-10-12T09:28:21Z</time>
      </trkpt>
      <trkpt lat="47.64341" lon="7.12471">
        <ele>296.05740051186</ele>
        <time>2025-10-12T09:28:22Z</time>
      </trkpt>
      <trkpt lat="47.64339" lon="7.12467">
        <ele>296.08295121001</ele>
        <time>2025-10-12T09:28:24Z</time>
      </trkpt>
      <trkpt lat="47.64336" lon="7.12465">
        <ele>296.05520330887</ele>
        <time>2025-10-12T09:28:25Z</time>
      </trkpt>
      <trkpt lat="47.64335" lon="7.12463">
        <ele>296.04814385078</ele>
        <time>2025-10-12T09:28:26Z</time>
      </trkpt>
      <trkpt lat="47.64332" lon="7.12461">
        <ele>296.02911077963</ele>
        <time>2025-10-12T09:28:28Z</time>
      </trkpt>
      <trkpt lat="47.64331" lon="7.12458">
        <ele>295.9659386506</ele>
        <time>2025-10-12T09:28:29Z</time>
      </trkpt>
      <trkpt lat="47.6433" lon="7.12457">
        <ele>295.86780320039</ele>
        <time>2025-10-12T09:28:30Z</time>
      </trkpt>
      <trkpt lat="47.64328" lon="7.12453">
        <ele>295.70688836678</ele>
        <time>2025-10-12T09:28:32Z</time>
      </trkpt>
      <trkpt lat="47.64326" lon="7.12451">
        <ele>295.64227658997</ele>
        <time>2025-10-12T09:28:33Z</time>
      </trkpt>
      <trkpt lat="47.64324" lon="7.12448">
        <ele>295.53142265146</ele>
        <time>2025-10-12T09:28:35Z</time>
      </trkpt>
      <trkpt lat="47.64321" lon="7.12445">
        <ele>295.45684304274</ele>
        <time>2025-10-12T09:28:37Z</time>
      </trkpt>
      <trkpt lat="47.64319" lon="7.12442">
        <ele>295.40144850397</ele>
        <time>2025-10-12T09:28:39Z</time>
      </trkpt>
      <trkpt lat="47.64318" lon="7.1244">
        <ele>295.40003487841</ele>
        <time>2025-10-12T09:28:41Z</time>
      </trkpt>
      <trkpt lat="47.64315" lon="7.12438">
        <ele>295.40002074216</ele>
        <time>2025-10-12T09:28:43Z</time>
      </trkpt>
      <trkpt lat="47.64313" lon="7.12436">
        <ele>295.40002060079</ele>
        <time>2025-10-12T09:28:45Z</time>
      </trkpt>
      <trkpt lat="47.64312" lon="7.12435">
        <ele>295.40002059938</ele>
        <time>2025-10-12T09:28:47Z</time>
      </trkpt>
      <trkpt lat="47.64309" lon="7.12434">
        <ele>295.40002059937</ele>
        <time>2025-10-12T09:28:49Z</time>
      </trkpt>
      <trkpt lat="47.64307" lon="7.12432">
        <ele>295.40002059937</ele>
        <time>2025-10-12T09:28:51Z</time>
      </trkpt>
      <trkpt lat="47.64304" lon="7.12431">
        <ele>295.40002059937</ele>
        <time>2025-10-12T09:28:53Z</time>
      </trkpt>
      <trkpt lat="47.64302" lon="7.1243">
        <ele>295.40002059937</ele>
        <time>2025-10-12T09:28:55Z</time>
      </trkpt>
      <trkpt lat="47.643" lon="7.12427">
        <ele>295.40002059937</ele>
        <time>2025-10-12T09:28:58Z</time>
      </trkpt>
      <trkpt lat="47.64297" lon="7.12425">
        <ele>295.40002059937</ele>
        <time>2025-10-12T09:29:00Z</time>
      </trkpt>
      <trkpt lat="47.64295" lon="7.12422">
        <ele>295.40002059937</ele>
        <time>2025-10-12T09:29:02Z</time>
      </trkpt>
      <trkpt lat="47.64293" lon="7.12419">
        <ele>295.40002059937</ele>
        <time>2025-10-12T09:29:04Z</time>
      </trkpt>
      <trkpt lat="47.6429" lon="7.12417">
        <ele>295.40002059937</ele>
        <time>2025-10-12T09:29:06Z</time>
      </trkpt>
      <trkpt lat="47.64288" lon="7.12416">
        <ele>295.40002059937</ele>
        <time>2025-10-12T09:29:07Z</time>
      </trkpt>
      <trkpt lat="47.64286" lon="7.12412">
        <ele>295.40002059937</ele>
        <time>2025-10-12T09:29:09Z</time>
      </trkpt>
      <trkpt lat="47.64285" lon="7.1241">
        <ele>295.40002059937</ele>
        <time>2025-10-12T09:29:11Z</time>
      </trkpt>
      <trkpt lat="47.64283" lon="7.12409">
        <ele>295.40002059937</ele>
        <time>2025-10-12T09:29:13Z</time>
      </trkpt>
      <trkpt lat="47.64281" lon="7.12405">
        <ele>295.40002059937</ele>
        <time>2025-10-12T09:29:15Z</time>
      </trkpt>
      <trkpt lat="47.64279" lon="7.12401">
        <ele>295.40002059937</ele>
        <time>2025-10-12T09:29:17Z</time>
      </trkpt>
      <trkpt lat="47.64276" lon="7.12398">
        <ele>295.40002059937</ele>
        <time>2025-10-12T09:29:19Z</time>
      </trkpt>
      <trkpt lat="47.64274" lon="7.12394">
        <ele>295.40002059937</ele>
        <time>2025-10-12T09:29:21Z</time>
      </trkpt>
      <trkpt lat="47.64272" lon="7.12391">
        <ele>295.40002059937</ele>
        <time>2025-10-12T09:29:23Z</time>
      </trkpt>
      <trkpt lat="47.6427" lon="7.12388">
        <ele>295.40002059937</ele>
        <time>2025-10-12T09:29:25Z</time>
      </trkpt>
      <trkpt lat="47.64267" lon="7.12385">
        <ele>295.42940628052</ele>
        <time>2025-10-12T09:29:27Z</time>
      </trkpt>
      <trkpt lat="47.64266" lon="7.12383">
        <ele>295.45113421631</ele>
        <time>2025-10-12T09:29:28Z</time>
      </trkpt>
      <trkpt lat="47.64264" lon="7.12381">
        <ele>295.4821186554</ele>
        <time>2025-10-12T09:29:29Z</time>
      </trkpt>
      <trkpt lat="47.64263" lon="7.12378">
        <ele>295.5747771268</ele>
        <time>2025-10-12T09:29:31Z</time>
      </trkpt>
      <trkpt lat="47.64261" lon="7.12375">
        <ele>295.65458005429</ele>
        <time>2025-10-12T09:29:33Z</time>
      </trkpt>
      <trkpt lat="47.64259" lon="7.12373">
        <ele>295.74671566901</ele>
        <time>2025-10-12T09:29:35Z</time>
      </trkpt>
      <trkpt lat="47.64256" lon="7.1237">
        <ele>295.85832428102</ele>
        <time>2025-10-12T09:29:37Z</time>
      </trkpt>
      <trkpt lat="47.64253" lon="7.12368">
        <ele>295.99751653901</ele>
        <time>2025-10-12T09:29:39Z</time>
      </trkpt>
      <trkpt lat="47.64251" lon="7.12366">
        <ele>296.11826667693</ele>
        <time>2025-10-12T09:29:41Z</time>
      </trkpt>
      <trkpt lat="47.64249" lon="7.12364">
        <ele>296.24369109725</ele>
        <time>2025-10-12T09:29:43Z</time>
      </trkpt>
      <trkpt lat="47.64247" lon="7.12362">
        <ele>296.26634670864</ele>
        <time>2025-10-12T09:29:45Z</time>
      </trkpt>
      <trkpt lat="47.64244" lon="7.12359">
        <ele>296.25833077208</ele>
        <time>2025-10-12T09:29:47Z</time>
      </trkpt>
      <trkpt lat="47.64243" lon="7.12356">
        <ele>296.20311023185</ele>
        <time>2025-10-12T09:29:49Z</time>
      </trkpt>
      <trkpt lat="47.6424" lon="7.12353">
        <ele>296.16668217196</ele>
        <time>2025-10-12T09:29:51Z</time>
      </trkpt>
      <trkpt lat="47.64238" lon="7.12351">
        <ele>296.14142287183</ele>
        <time>2025-10-12T09:29:53Z</time>
      </trkpt>
      <trkpt lat="47.64236" lon="7.12349">
        <ele>296.12798467915</ele>
        <time>2025-10-12T09:29:54Z</time>
      </trkpt>
      <trkpt lat="47.64234" lon="7.12346">
        <ele>296.12103528655</ele>
        <time>2025-10-12T09:29:56Z</time>
      </trkpt>
      <trkpt lat="47.64232" lon="7.12343">
        <ele>296.15346884438</ele>
        <time>2025-10-12T09:29:58Z</time>
      </trkpt>
      <trkpt lat="47.6423" lon="7.12341">
        <ele>296.18724105594</ele>
        <time>2025-10-12T09:30:00Z</time>
      </trkpt>
      <trkpt lat="47.64227" lon="7.12338">
        <ele>296.22795902708</ele>
        <time>2025-10-12T09:30:02Z</time>
      </trkpt>
      <trkpt lat="47.64225" lon="7.12335">
        <ele>296.29140301099</ele>
        <time>2025-10-12T09:30:04Z</time>
      </trkpt>
      <trkpt lat="47.64224" lon="7.12333">
        <ele>296.35534841572</ele>
        <time>2025-10-12T09:30:05Z</time>
      </trkpt>
      <trkpt lat="47.64221" lon="7.12329">
        <ele>296.32188405819</ele>
        <time>2025-10-12T09:30:07Z</time>
      </trkpt>
      <trkpt lat="47.64219" lon="7.12326">
        <ele>296.21523197077</ele>
        <time>2025-10-12T09:30:09Z</time>
      </trkpt>
      <trkpt lat="47.64217" lon="7.12324">
        <ele>296.18340330877</ele>
        <time>2025-10-12T09:30:10Z</time>
      </trkpt>
      <trkpt lat="47.64215" lon="7.12322">
        <ele>296.13803294257</ele>
        <time>2025-10-12T09:30:11Z</time>
      </trkpt>
      <trkpt lat="47.64214" lon="7.12321">
        <ele>296.1075956374</ele>
        <time>2025-10-12T09:30:12Z</time>
      </trkpt>
      <trkpt lat="47.64212" lon="7.12318">
        <ele>296.0689429684</ele>
        <time>2025-10-12T09:30:14Z</time>
      </trkpt>
      <trkpt lat="47.6421" lon="7.12316">
        <ele>296.05093711798</ele>
        <time>2025-10-12T09:30:16Z</time>
      </trkpt>
      <trkpt lat="47.64209" lon="7.12313">
        <ele>296.0459594192</ele>
        <time>2025-10-12T09:30:17Z</time>
      </trkpt>
      <trkpt lat="47.64208" lon="7.12311">
        <ele>296.02041282119</ele>
        <time>2025-10-12T09:30:18Z</time>
      </trkpt>
      <trkpt lat="47.64206" lon="7.12309">
        <ele>296.01360095924</ele>
        <time>2025-10-12T09:30:19Z</time>
      </trkpt>
      <trkpt lat="47.64205" lon="7.12308">
        <ele>296.02777878184</ele>
        <time>2025-10-12T09:30:20Z</time>
      </trkpt>
      <trkpt lat="47.64203" lon="7.12306">
        <ele>296.05751382484</ele>
        <time>2025-10-12T09:30:21Z</time>
      </trkpt>
      <trkpt lat="47.64201" lon="7.12303">
        <ele>296.10034370057</ele>
        <time>2025-10-12T09:30:23Z</time>
      </trkpt>
      <trkpt lat="47.64199" lon="7.12301">
        <ele>296.11239604913</ele>
        <time>2025-10-12T09:30:24Z</time>
      </trkpt>
      <trkpt lat="47.64197" lon="7.12298">
        <ele>296.08598682212</ele>
        <time>2025-10-12T09:30:26Z</time>
      </trkpt>
      <trkpt lat="47.64195" lon="7.12296">
        <ele>296.06435706823</ele>
        <time>2025-10-12T09:30:28Z</time>
      </trkpt>
      <trkpt lat="47.64193" lon="7.12294">
        <ele>296.01920394208</ele>
        <time>2025-10-12T09:30:30Z</time>
      </trkpt>
      <trkpt lat="47.64192" lon="7.12291">
        <ele>295.96746548455</ele>
        <time>2025-10-12T09:30:32Z</time>
      </trkpt>
      <trkpt lat="47.64189" lon="7.1229">
        <ele>295.92488968933</ele>
        <time>2025-10-12T09:30:34Z</time>
      </trkpt>
      <trkpt lat="47.64188" lon="7.12288">
        <ele>295.92884723004</ele>
        <time>2025-10-12T09:30:35Z</time>
      </trkpt>
      <trkpt lat="47.64185" lon="7.12287">
        <ele>295.93662417329</ele>
        <time>2025-10-12T09:30:37Z</time>
      </trkpt>
      <trkpt lat="47.64183" lon="7.12284">
        <ele>295.94721585874</ele>
        <time>2025-10-12T09:30:39Z</time>
      </trkpt>
      <trkpt lat="47.64181" lon="7.12281">
        <ele>295.95096099678</ele>
        <time>2025-10-12T09:30:41Z</time>
      </trkpt>
      <trkpt lat="47.64178" lon="7.12277">
        <ele>295.97067496184</ele>
        <time>2025-10-12T09:30:43Z</time>
      </trkpt>
      <trkpt lat="47.64176" lon="7.12276">
        <ele>295.98912644089</ele>
        <time>2025-10-12T09:30:44Z</time>
      </trkpt>
      <trkpt lat="47.64174" lon="7.12273">
        <ele>296.0434894776</ele>
        <time>2025-10-12T09:30:46Z</time>
      </trkpt>
      <trkpt lat="47.64171" lon="7.1227">
        <ele>296.07878286383</ele>
        <time>2025-10-12T09:30:48Z</time>
      </trkpt>
      <trkpt lat="47.6417" lon="7.12268">
        <ele>296.04962290003</ele>
        <time>2025-10-12T09:30:49Z</time>
      </trkpt>
      <trkpt lat="47.64167" lon="7.12264">
        <ele>295.95809071905</ele>
        <time>2025-10-12T09:30:51Z</time>
      </trkpt>
      <trkpt lat="47.64165" lon="7.12261">
        <ele>295.89347941336</ele>
        <time>2025-10-12T09:30:53Z</time>
      </trkpt>
      <trkpt lat="47.64163" lon="7.1226">
        <ele>295.85775576299</ele>
        <time>2025-10-12T09:30:54Z</time>
      </trkpt>
      <trkpt lat="47.64161" lon="7.12257">
        <ele>295.81659349544</ele>
        <time>2025-10-12T09:30:56Z</time>
      </trkpt>
      <trkpt lat="47.64159" lon="7.12256">
        <ele>295.8167723879</ele>
        <time>2025-10-12T09:30:58Z</time>
      </trkpt>
      <trkpt lat="47.64156" lon="7.12253">
        <ele>295.83959278034</ele>
        <time>2025-10-12T09:31:00Z</time>
      </trkpt>
      <trkpt lat="47.64154" lon="7.12251">
        <ele>295.86109875526</ele>
        <time>2025-10-12T09:31:02Z</time>
      </trkpt>
      <trkpt lat="47.64151" lon="7.12248">
        <ele>295.91309237946</ele>
        <time>2025-10-12T09:31:04Z</time>
      </trkpt>
      <trkpt lat="47.64148" lon="7.12245">
        <ele>296.04797236209</ele>
        <time>2025-10-12T09:31:06Z</time>
      </trkpt>
      <trkpt lat="47.64145" lon="7.12242">
        <ele>296.1698329417</ele>
        <time>2025-10-12T09:31:08Z</time>
      </trkpt>
      <trkpt lat="47.64143" lon="7.12241">
        <ele>296.24277636973</ele>
        <time>2025-10-12T09:31:09Z</time>
      </trkpt>
      <trkpt lat="47.64141" lon="7.12239">
        <ele>296.34154133365</ele>
        <time>2025-10-12T09:31:12Z</time>
      </trkpt>
      <trkpt lat="47.64138" lon="7.12239">
        <ele>296.39320655866</ele>
        <time>2025-10-12T09:31:14Z</time>
      </trkpt>
      <trkpt lat="47.64137" lon="7.12236">
        <ele>296.39995245896</ele>
        <time>2025-10-12T09:31:16Z</time>
      </trkpt>
      <trkpt lat="47.64135" lon="7.12235">
        <ele>296.40001991796</ele>
        <time>2025-10-12T09:31:18Z</time>
      </trkpt>
      <trkpt lat="47.64133" lon="7.12233">
        <ele>296.40002059255</ele>
        <time>2025-10-12T09:31:20Z</time>
      </trkpt>
      <trkpt lat="47.64132" lon="7.12231">
        <ele>296.4000205993</ele>
        <time>2025-10-12T09:31:22Z</time>
      </trkpt>
      <trkpt lat="47.6413" lon="7.12228">
        <ele>296.40002059936</ele>
        <time>2025-10-12T09:31:24Z</time>
      </trkpt>
      <trkpt lat="47.64128" lon="7.12226">
        <ele>296.40002059937</ele>
        <time>2025-10-12T09:31:26Z</time>
      </trkpt>
      <trkpt lat="47.64125" lon="7.12224">
        <ele>296.40002059937</ele>
        <time>2025-10-12T09:31:28Z</time>
      </trkpt>
      <trkpt lat="47.64122" lon="7.12221">
        <ele>296.40002059937</ele>
        <time>2025-10-12T09:31:30Z</time>
      </trkpt>
      <trkpt lat="47.6412" lon="7.12219">
        <ele>296.40002059937</ele>
        <time>2025-10-12T09:31:32Z</time>
      </trkpt>
      <trkpt lat="47.64118" lon="7.12216">
        <ele>296.40002059937</ele>
        <time>2025-10-12T09:31:34Z</time>
      </trkpt>
      <trkpt lat="47.64116" lon="7.12213">
        <ele>296.40002059937</ele>
        <time>2025-10-12T09:31:36Z</time>
      </trkpt>
      <trkpt lat="47.64114" lon="7.12211">
        <ele>296.40002059937</ele>
        <time>2025-10-12T09:31:38Z</time>
      </trkpt>
      <trkpt lat="47.64111" lon="7.12209">
        <ele>296.40002059937</ele>
        <time>2025-10-12T09:31:40Z</time>
      </trkpt>
      <trkpt lat="47.64109" lon="7.12205">
        <ele>296.44131271362</ele>
        <time>2025-10-12T09:31:42Z</time>
      </trkpt>
      <trkpt lat="47.64108" lon="7.12203">
        <ele>296.49327897949</ele>
        <time>2025-10-12T09:31:44Z</time>
      </trkpt>
      <trkpt lat="47.64107" lon="7.122">
        <ele>296.53646404742</ele>
        <time>2025-10-12T09:31:46Z</time>
      </trkpt>
      <trkpt lat="47.64106" lon="7.12196">
        <ele>296.57289809537</ele>
        <time>2025-10-12T09:31:48Z</time>
      </trkpt>
      <trkpt lat="47.64104" lon="7.12193">
        <ele>296.62081675714</ele>
        <time>2025-10-12T09:31:50Z</time>
      </trkpt>
      <trkpt lat="47.64102" lon="7.12191">
        <ele>296.70847795059</ele>
        <time>2025-10-12T09:31:52Z</time>
      </trkpt>
      <trkpt lat="47.641" lon="7.12188">
        <ele>296.77959290481</ele>
        <time>2025-10-12T09:31:54Z</time>
      </trkpt>
      <trkpt lat="47.64098" lon="7.12186">
        <ele>296.83951486978</ele>
        <time>2025-10-12T09:31:56Z</time>
      </trkpt>
      <trkpt lat="47.64096" lon="7.12183">
        <ele>296.91332148689</ele>
        <time>2025-10-12T09:31:58Z</time>
      </trkpt>
      <trkpt lat="47.64093" lon="7.12182">
        <ele>296.99894267074</ele>
        <time>2025-10-12T09:32:00Z</time>
      </trkpt>
      <trkpt lat="47.64091" lon="7.1218">
        <ele>297.08228423414</ele>
        <time>2025-10-12T09:32:02Z</time>
      </trkpt>
      <trkpt lat="47.64088" lon="7.12178">
        <ele>297.17097531579</ele>
        <time>2025-10-12T09:32:04Z</time>
      </trkpt>
      <trkpt lat="47.64085" lon="7.12175">
        <ele>297.26619907963</ele>
        <time>2025-10-12T09:32:06Z</time>
      </trkpt>
      <trkpt lat="47.64083" lon="7.12174">
        <ele>297.37114240614</ele>
        <time>2025-10-12T09:32:08Z</time>
      </trkpt>
      <trkpt lat="47.64081" lon="7.12173">
        <ele>297.39973181743</ele>
        <time>2025-10-12T09:32:10Z</time>
      </trkpt>
      <trkpt lat="47.64078" lon="7.12171">
        <ele>297.40001771155</ele>
        <time>2025-10-12T09:32:12Z</time>
      </trkpt>
      <trkpt lat="47.64076" lon="7.12168">
        <ele>297.40002057049</ele>
        <time>2025-10-12T09:32:14Z</time>
      </trkpt>
      <trkpt lat="47.64075" lon="7.12166">
        <ele>297.40002059908</ele>
        <time>2025-10-12T09:32:16Z</time>
      </trkpt>
      <trkpt lat="47.64073" lon="7.12162">
        <ele>297.40002059936</ele>
        <time>2025-10-12T09:32:18Z</time>
      </trkpt>
      <trkpt lat="47.6407" lon="7.12158">
        <ele>297.40002059937</ele>
        <time>2025-10-12T09:32:20Z</time>
      </trkpt>
      <trkpt lat="47.64069" lon="7.12156">
        <ele>297.40002059937</ele>
        <time>2025-10-12T09:32:21Z</time>
      </trkpt>
      <trkpt lat="47.64068" lon="7.12154">
        <ele>297.40002059937</ele>
        <time>2025-10-12T09:32:22Z</time>
      </trkpt>
      <trkpt lat="47.64066" lon="7.12151">
        <ele>297.40002059937</ele>
        <time>2025-10-12T09:32:23Z</time>
      </trkpt>
      <trkpt lat="47.64065" lon="7.12148">
        <ele>297.40002059937</ele>
        <time>2025-10-12T09:32:24Z</time>
      </trkpt>
      <trkpt lat="47.64064" lon="7.12145">
        <ele>297.40002059937</ele>
        <time>2025-10-12T09:32:26Z</time>
      </trkpt>
      <trkpt lat="47.64061" lon="7.12143">
        <ele>297.40002059937</ele>
        <time>2025-10-12T09:32:28Z</time>
      </trkpt>
      <trkpt lat="47.6406" lon="7.12141">
        <ele>297.40002059937</ele>
        <time>2025-10-12T09:32:29Z</time>
      </trkpt>
      <trkpt lat="47.64057" lon="7.12137">
        <ele>297.40002059937</ele>
        <time>2025-10-12T09:32:31Z</time>
      </trkpt>
      <trkpt lat="47.64054" lon="7.12135">
        <ele>297.40002059937</ele>
        <time>2025-10-12T09:32:33Z</time>
      </trkpt>
      <trkpt lat="47.64052" lon="7.12133">
        <ele>297.40002059937</ele>
        <time>2025-10-12T09:32:35Z</time>
      </trkpt>
      <trkpt lat="47.6405" lon="7.1213">
        <ele>297.40002059937</ele>
        <time>2025-10-12T09:32:37Z</time>
      </trkpt>
      <trkpt lat="47.64048" lon="7.12126">
        <ele>297.40002059937</ele>
        <time>2025-10-12T09:32:39Z</time>
      </trkpt>
      <trkpt lat="47.64046" lon="7.12125">
        <ele>297.40002059937</ele>
        <time>2025-10-12T09:32:40Z</time>
      </trkpt>
      <trkpt lat="47.64044" lon="7.12122">
        <ele>297.40002059937</ele>
        <time>2025-10-12T09:32:42Z</time>
      </trkpt>
      <trkpt lat="47.6404" lon="7.12119">
        <ele>297.40002059937</ele>
        <time>2025-10-12T09:32:44Z</time>
      </trkpt>
      <trkpt lat="47.64038" lon="7.12118">
        <ele>297.40002059937</ele>
        <time>2025-10-12T09:32:45Z</time>
      </trkpt>
      <trkpt lat="47.64037" lon="7.12117">
        <ele>297.40002059937</ele>
        <time>2025-10-12T09:32:46Z</time>
      </trkpt>
      <trkpt lat="47.64035" lon="7.12113">
        <ele>297.40002059937</ele>
        <time>2025-10-12T09:32:48Z</time>
      </trkpt>
      <trkpt lat="47.64032" lon="7.1211">
        <ele>297.39716415405</ele>
        <time>2025-10-12T09:32:50Z</time>
      </trkpt>
      <trkpt lat="47.64031" lon="7.12109">
        <ele>297.34498898315</ele>
        <time>2025-10-12T09:32:52Z</time>
      </trkpt>
      <trkpt lat="47.64029" lon="7.12107">
        <ele>297.32143088989</ele>
        <time>2025-10-12T09:32:53Z</time>
      </trkpt>
      <trkpt lat="47.64027" lon="7.12105">
        <ele>297.21747414319</ele>
        <time>2025-10-12T09:32:55Z</time>
      </trkpt>
      <trkpt lat="47.64025" lon="7.12102">
        <ele>297.19227564017</ele>
        <time>2025-10-12T09:32:57Z</time>
      </trkpt>
      <trkpt lat="47.64024" lon="7.121">
        <ele>297.18267322747</ele>
        <time>2025-10-12T09:32:58Z</time>
      </trkpt>
      <trkpt lat="47.64022" lon="7.12098">
        <ele>297.22440596354</ele>
        <time>2025-10-12T09:33:00Z</time>
      </trkpt>
      <trkpt lat="47.6402" lon="7.12096">
        <ele>297.27374266346</ele>
        <time>2025-10-12T09:33:02Z</time>
      </trkpt>
      <trkpt lat="47.64017" lon="7.12093">
        <ele>297.34591358172</ele>
        <time>2025-10-12T09:33:04Z</time>
      </trkpt>
      <trkpt lat="47.64014" lon="7.12091">
        <ele>297.43726425819</ele>
        <time>2025-10-12T09:33:06Z</time>
      </trkpt>
      <trkpt lat="47.64012" lon="7.12089">
        <ele>297.55684933478</ele>
        <time>2025-10-12T09:33:08Z</time>
      </trkpt>
      <trkpt lat="47.6401" lon="7.12086">
        <ele>297.66261305664</ele>
        <time>2025-10-12T09:33:10Z</time>
      </trkpt>
      <trkpt lat="47.64008" lon="7.12083">
        <ele>297.78023563527</ele>
        <time>2025-10-12T09:33:12Z</time>
      </trkpt>
      <trkpt lat="47.64006" lon="7.12082">
        <ele>297.85266612639</ele>
        <time>2025-10-12T09:33:13Z</time>
      </trkpt>
      <trkpt lat="47.64003" lon="7.12079">
        <ele>297.88385308491</ele>
        <time>2025-10-12T09:33:15Z</time>
      </trkpt>
      <trkpt lat="47.64002" lon="7.12077">
        <ele>297.87807914089</ele>
        <time>2025-10-12T09:33:16Z</time>
      </trkpt>
      <trkpt lat="47.64" lon="7.12073">
        <ele>297.76906662667</ele>
        <time>2025-10-12T09:33:18Z</time>
      </trkpt>
      <trkpt lat="47.63998" lon="7.12071">
        <ele>297.62739270026</ele>
        <time>2025-10-12T09:33:20Z</time>
      </trkpt>
      <trkpt lat="47.63996" lon="7.12069">
        <ele>297.529831857</ele>
        <time>2025-10-12T09:33:22Z</time>
      </trkpt>
      <trkpt lat="47.63994" lon="7.12066">
        <ele>297.442152147</ele>
        <time>2025-10-12T09:33:24Z</time>
      </trkpt>
      <trkpt lat="47.63992" lon="7.12063">
        <ele>297.40686617021</ele>
        <time>2025-10-12T09:33:26Z</time>
      </trkpt>
      <trkpt lat="47.6399" lon="7.12061">
        <ele>297.34503193868</ele>
        <time>2025-10-12T09:33:27Z</time>
      </trkpt>
      <trkpt lat="47.63988" lon="7.12058">
        <ele>297.33821369372</ele>
        <time>2025-10-12T09:33:29Z</time>
      </trkpt>
      <trkpt lat="47.63986" lon="7.12056">
        <ele>297.39641424906</ele>
        <time>2025-10-12T09:33:31Z</time>
      </trkpt>
      <trkpt lat="47.63984" lon="7.12054">
        <ele>297.48337076633</ele>
        <time>2025-10-12T09:33:33Z</time>
      </trkpt>
      <trkpt lat="47.63981" lon="7.12051">
        <ele>297.60975089059</ele>
        <time>2025-10-12T09:33:35Z</time>
      </trkpt>
      <trkpt lat="47.63979" lon="7.1205">
        <ele>297.67299252985</ele>
        <time>2025-10-12T09:33:36Z</time>
      </trkpt>
      <trkpt lat="47.63976" lon="7.12048">
        <ele>297.72842078986</ele>
        <time>2025-10-12T09:33:38Z</time>
      </trkpt>
      <trkpt lat="47.63974" lon="7.12046">
        <ele>297.71339650709</ele>
        <time>2025-10-12T09:33:39Z</time>
      </trkpt>
      <trkpt lat="47.63972" lon="7.12042">
        <ele>297.57884222465</ele>
        <time>2025-10-12T09:33:41Z</time>
      </trkpt>
      <trkpt lat="47.63971" lon="7.1204">
        <ele>297.46528130193</ele>
        <time>2025-10-12T09:33:42Z</time>
      </trkpt>
      <trkpt lat="47.63969" lon="7.12038">
        <ele>297.3627112204</ele>
        <time>2025-10-12T09:33:43Z</time>
      </trkpt>
      <trkpt lat="47.63967" lon="7.12036">
        <ele>297.28108854561</ele>
        <time>2025-10-12T09:33:45Z</time>
      </trkpt>
      <trkpt lat="47.63964" lon="7.12033">
        <ele>297.26210367873</ele>
        <time>2025-10-12T09:33:47Z</time>
      </trkpt>
      <trkpt lat="47.63961" lon="7.12031">
        <ele>297.28202155711</ele>
        <time>2025-10-12T09:33:49Z</time>
      </trkpt>
      <trkpt lat="47.63959" lon="7.12028">
        <ele>297.36364041363</ele>
        <time>2025-10-12T09:33:51Z</time>
      </trkpt>
      <trkpt lat="47.63956" lon="7.12024">
        <ele>297.48058483706</ele>
        <time>2025-10-12T09:33:53Z</time>
      </trkpt>
      <trkpt lat="47.63955" lon="7.12022">
        <ele>297.5685323454</ele>
        <time>2025-10-12T09:33:54Z</time>
      </trkpt>
      <trkpt lat="47.63954" lon="7.1202">
        <ele>297.6478593228</ele>
        <time>2025-10-12T09:33:55Z</time>
      </trkpt>
      <trkpt lat="47.63952" lon="7.12017">
        <ele>297.73330056546</ele>
        <time>2025-10-12T09:33:56Z</time>
      </trkpt>
      <trkpt lat="47.63951" lon="7.12015">
        <ele>297.77875875222</ele>
        <time>2025-10-12T09:33:57Z</time>
      </trkpt>
      <trkpt lat="47.63949" lon="7.12013">
        <ele>297.79415356992</ele>
        <time>2025-10-12T09:33:58Z</time>
      </trkpt>
      <trkpt lat="47.63948" lon="7.12011">
        <ele>297.79835723626</ele>
        <time>2025-10-12T09:33:59Z</time>
      </trkpt>
      <trkpt lat="47.63945" lon="7.12008">
        <ele>297.73708196866</ele>
        <time>2025-10-12T09:34:01Z</time>
      </trkpt>
      <trkpt lat="47.63943" lon="7.12005">
        <ele>297.64779581511</ele>
        <time>2025-10-12T09:34:03Z</time>
      </trkpt>
      <trkpt lat="47.63942" lon="7.12003">
        <ele>297.61827258248</ele>
        <time>2025-10-12T09:34:05Z</time>
      </trkpt>
      <trkpt lat="47.63939" lon="7.12">
        <ele>297.57694569949</ele>
        <time>2025-10-12T09:34:08Z</time>
      </trkpt>
      <trkpt lat="47.63937" lon="7.11999">
        <ele>297.64384612478</ele>
        <time>2025-10-12T09:34:10Z</time>
      </trkpt>
      <trkpt lat="47.63935" lon="7.11998">
        <ele>297.75446355433</ele>
        <time>2025-10-12T09:34:12Z</time>
      </trkpt>
      <trkpt lat="47.63933" lon="7.11996">
        <ele>297.86307094932</ele>
        <time>2025-10-12T09:34:14Z</time>
      </trkpt>
      <trkpt lat="47.63931" lon="7.11995">
        <ele>297.91181635702</ele>
        <time>2025-10-12T09:34:15Z</time>
      </trkpt>
      <trkpt lat="47.63929" lon="7.11992">
        <ele>298.02741242169</ele>
        <time>2025-10-12T09:34:17Z</time>
      </trkpt>
      <trkpt lat="47.63928" lon="7.11989">
        <ele>298.07277565074</ele>
        <time>2025-10-12T09:34:19Z</time>
      </trkpt>
      <trkpt lat="47.63927" lon="7.11987">
        <ele>298.13603389747</ele>
        <time>2025-10-12T09:34:19Z</time>
      </trkpt>
      <trkpt lat="47.63925" lon="7.11985">
        <ele>298.21998174553</ele>
        <time>2025-10-12T09:34:21Z</time>
      </trkpt>
      <trkpt lat="47.63923" lon="7.11983">
        <ele>298.28105102137</ele>
        <time>2025-10-12T09:34:23Z</time>
      </trkpt>
      <trkpt lat="47.63921" lon="7.1198">
        <ele>298.33324527126</ele>
        <time>2025-10-12T09:34:25Z</time>
      </trkpt>
      <trkpt lat="47.63919" lon="7.11978">
        <ele>298.3652183246</ele>
        <time>2025-10-12T09:34:27Z</time>
      </trkpt>
      <trkpt lat="47.63917" lon="7.11975">
        <ele>298.38965853853</ele>
        <time>2025-10-12T09:34:29Z</time>
      </trkpt>
      <trkpt lat="47.63915" lon="7.11973">
        <ele>298.39975493042</ele>
        <time>2025-10-12T09:34:31Z</time>
      </trkpt>
      <trkpt lat="47.63913" lon="7.11971">
        <ele>298.39999403247</ele>
        <time>2025-10-12T09:34:32Z</time>
      </trkpt>
      <trkpt lat="47.63911" lon="7.11969">
        <ele>298.4000203337</ele>
        <time>2025-10-12T09:34:34Z</time>
      </trkpt>
      <trkpt lat="47.63909" lon="7.11966">
        <ele>298.40002059671</ele>
        <time>2025-10-12T09:34:36Z</time>
      </trkpt>
      <trkpt lat="47.63907" lon="7.11965">
        <ele>298.40002059934</ele>
        <time>2025-10-12T09:34:38Z</time>
      </trkpt>
      <trkpt lat="47.63905" lon="7.11962">
        <ele>298.40002059936</ele>
        <time>2025-10-12T09:34:40Z</time>
      </trkpt>
      <trkpt lat="47.63904" lon="7.1196">
        <ele>298.40002059937</ele>
        <time>2025-10-12T09:34:41Z</time>
      </trkpt>
      <trkpt lat="47.63902" lon="7.11958">
        <ele>298.40002059937</ele>
        <time>2025-10-12T09:34:42Z</time>
      </trkpt>
      <trkpt lat="47.63901" lon="7.11956">
        <ele>298.40002059937</ele>
        <time>2025-10-12T09:34:43Z</time>
      </trkpt>
      <trkpt lat="47.63898" lon="7.11953">
        <ele>298.40002059937</ele>
        <time>2025-10-12T09:34:45Z</time>
      </trkpt>
      <trkpt lat="47.63896" lon="7.11952">
        <ele>298.40002059937</ele>
        <time>2025-10-12T09:34:46Z</time>
      </trkpt>
      <trkpt lat="47.63894" lon="7.11949">
        <ele>298.40002059937</ele>
        <time>2025-10-12T09:34:48Z</time>
      </trkpt>
      <trkpt lat="47.63891" lon="7.11946">
        <ele>298.40002059937</ele>
        <time>2025-10-12T09:34:50Z</time>
      </trkpt>
      <trkpt lat="47.6389" lon="7.11944">
        <ele>298.40002059937</ele>
        <time>2025-10-12T09:34:52Z</time>
      </trkpt>
      <trkpt lat="47.63887" lon="7.11942">
        <ele>298.40002059937</ele>
        <time>2025-10-12T09:34:54Z</time>
      </trkpt>
      <trkpt lat="47.63885" lon="7.11939">
        <ele>298.40002059937</ele>
        <time>2025-10-12T09:34:56Z</time>
      </trkpt>
      <trkpt lat="47.63883" lon="7.11938">
        <ele>298.40002059937</ele>
        <time>2025-10-12T09:34:57Z</time>
      </trkpt>
      <trkpt lat="47.6388" lon="7.11936">
        <ele>298.40002059937</ele>
        <time>2025-10-12T09:34:59Z</time>
      </trkpt>
      <trkpt lat="47.63878" lon="7.11934">
        <ele>298.40002059937</ele>
        <time>2025-10-12T09:35:01Z</time>
      </trkpt>
      <trkpt lat="47.63875" lon="7.11931">
        <ele>298.40002059937</ele>
        <time>2025-10-12T09:35:03Z</time>
      </trkpt>
      <trkpt lat="47.63873" lon="7.11928">
        <ele>298.40002059937</ele>
        <time>2025-10-12T09:35:05Z</time>
      </trkpt>
      <trkpt lat="47.63871" lon="7.11926">
        <ele>298.40002059937</ele>
        <time>2025-10-12T09:35:06Z</time>
      </trkpt>
      <trkpt lat="47.6387" lon="7.11924">
        <ele>298.40002059937</ele>
        <time>2025-10-12T09:35:07Z</time>
      </trkpt>
      <trkpt lat="47.63869" lon="7.11921">
        <ele>298.40002059937</ele>
        <time>2025-10-12T09:35:09Z</time>
      </trkpt>
      <trkpt lat="47.63866" lon="7.11918">
        <ele>298.40002059937</ele>
        <time>2025-10-12T09:35:11Z</time>
      </trkpt>
      <trkpt lat="47.63865" lon="7.11914">
        <ele>298.40002059937</ele>
        <time>2025-10-12T09:35:13Z</time>
      </trkpt>
      <trkpt lat="47.63863" lon="7.11912">
        <ele>298.40002059937</ele>
        <time>2025-10-12T09:35:14Z</time>
      </trkpt>
      <trkpt lat="47.63862" lon="7.11909">
        <ele>298.40002059937</ele>
        <time>2025-10-12T09:35:16Z</time>
      </trkpt>
      <trkpt lat="47.6386" lon="7.11907">
        <ele>298.40400314331</ele>
        <time>2025-10-12T09:35:18Z</time>
      </trkpt>
      <trkpt lat="47.63859" lon="7.11905">
        <ele>298.41943206787</ele>
        <time>2025-10-12T09:35:20Z</time>
      </trkpt>
      <trkpt lat="47.63857" lon="7.11901">
        <ele>298.44943621063</ele>
        <time>2025-10-12T09:35:22Z</time>
      </trkpt>
      <trkpt lat="47.63855" lon="7.11898">
        <ele>298.50078971886</ele>
        <time>2025-10-12T09:35:24Z</time>
      </trkpt>
      <trkpt lat="47.63852" lon="7.11896">
        <ele>298.5982795723</ele>
        <time>2025-10-12T09:35:26Z</time>
      </trkpt>
      <trkpt lat="47.63849" lon="7.11892">
        <ele>298.70112794495</ele>
        <time>2025-10-12T09:35:28Z</time>
      </trkpt>
      <trkpt lat="47.63848" lon="7.11891">
        <ele>298.77147654877</ele>
        <time>2025-10-12T09:35:29Z</time>
      </trkpt>
      <trkpt lat="47.63845" lon="7.11889">
        <ele>298.91004833025</ele>
        <time>2025-10-12T09:35:31Z</time>
      </trkpt>
      <trkpt lat="47.63843" lon="7.11887">
        <ele>299.00920687521</ele>
        <time>2025-10-12T09:35:33Z</time>
      </trkpt>
      <trkpt lat="47.63841" lon="7.11885">
        <ele>299.03920460781</ele>
        <time>2025-10-12T09:35:34Z</time>
      </trkpt>
      <trkpt lat="47.63839" lon="7.11884">
        <ele>299.06980753048</ele>
        <time>2025-10-12T09:35:35Z</time>
      </trkpt>
      <trkpt lat="47.63837" lon="7.11883">
        <ele>299.09843850146</ele>
        <time>2025-10-12T09:35:36Z</time>
      </trkpt>
      <trkpt lat="47.63835" lon="7.11882">
        <ele>299.11434786321</ele>
        <time>2025-10-12T09:35:37Z</time>
      </trkpt>
      <trkpt lat="47.63833" lon="7.1188">
        <ele>299.10846809626</ele>
        <time>2025-10-12T09:35:38Z</time>
      </trkpt>
      <trkpt lat="47.63831" lon="7.11879">
        <ele>299.08739061761</ele>
        <time>2025-10-12T09:35:39Z</time>
      </trkpt>
      <trkpt lat="47.6383" lon="7.11878">
        <ele>299.03719021838</ele>
        <time>2025-10-12T09:35:40Z</time>
      </trkpt>
      <trkpt lat="47.63828" lon="7.11875">
        <ele>298.94072335024</ele>
        <time>2025-10-12T09:35:42Z</time>
      </trkpt>
      <trkpt lat="47.63825" lon="7.11874">
        <ele>298.89399238517</ele>
        <time>2025-10-12T09:35:44Z</time>
      </trkpt>
      <trkpt lat="47.63823" lon="7.11871">
        <ele>298.86990172347</ele>
        <time>2025-10-12T09:35:46Z</time>
      </trkpt>
      <trkpt lat="47.63821" lon="7.11868">
        <ele>298.86836168356</ele>
        <time>2025-10-12T09:35:48Z</time>
      </trkpt>
      <trkpt lat="47.63818" lon="7.11865">
        <ele>298.89952822896</ele>
        <time>2025-10-12T09:35:50Z</time>
      </trkpt>
      <trkpt lat="47.63816" lon="7.11862">
        <ele>298.97092967713</ele>
        <time>2025-10-12T09:35:52Z</time>
      </trkpt>
      <trkpt lat="47.63813" lon="7.11858">
        <ele>299.05225862081</ele>
        <time>2025-10-12T09:35:54Z</time>
      </trkpt>
      <trkpt lat="47.63811" lon="7.11856">
        <ele>299.08757172714</ele>
        <time>2025-10-12T09:35:56Z</time>
      </trkpt>
      <trkpt lat="47.63808" lon="7.11853">
        <ele>299.09752690898</ele>
        <time>2025-10-12T09:35:58Z</time>
      </trkpt>
      <trkpt lat="47.63805" lon="7.1185">
        <ele>299.03606731773</ele>
        <time>2025-10-12T09:36:00Z</time>
      </trkpt>
      <trkpt lat="47.63802" lon="7.11847">
        <ele>298.9457768185</ele>
        <time>2025-10-12T09:36:02Z</time>
      </trkpt>
      <trkpt lat="47.638" lon="7.11845">
        <ele>298.87511622308</ele>
        <time>2025-10-12T09:36:04Z</time>
      </trkpt>
      <trkpt lat="47.63797" lon="7.11842">
        <ele>298.83562238568</ele>
        <time>2025-10-12T09:36:06Z</time>
      </trkpt>
      <trkpt lat="47.63795" lon="7.1184">
        <ele>298.81824533061</ele>
        <time>2025-10-12T09:36:08Z</time>
      </trkpt>
      <trkpt lat="47.63793" lon="7.11836">
        <ele>298.83519649902</ele>
        <time>2025-10-12T09:36:10Z</time>
      </trkpt>
      <trkpt lat="47.63792" lon="7.11834">
        <ele>298.84681882898</ele>
        <time>2025-10-12T09:36:11Z</time>
      </trkpt>
      <trkpt lat="47.63791" lon="7.11831">
        <ele>298.93204656506</ele>
        <time>2025-10-12T09:36:13Z</time>
      </trkpt>
      <trkpt lat="47.63788" lon="7.11828">
        <ele>299.02361295375</ele>
        <time>2025-10-12T09:36:15Z</time>
      </trkpt>
      <trkpt lat="47.63785" lon="7.11826">
        <ele>299.14594951607</ele>
        <time>2025-10-12T09:36:17Z</time>
      </trkpt>
      <trkpt lat="47.63784" lon="7.11825">
        <ele>299.22038577232</ele>
        <time>2025-10-12T09:36:19Z</time>
      </trkpt>
      <trkpt lat="47.63782" lon="7.11822">
        <ele>299.28341437561</ele>
        <time>2025-10-12T09:36:21Z</time>
      </trkpt>
      <trkpt lat="47.63779" lon="7.11819">
        <ele>299.34602677834</ele>
        <time>2025-10-12T09:36:23Z</time>
      </trkpt>
      <trkpt lat="47.63777" lon="7.11816">
        <ele>299.39295203567</ele>
        <time>2025-10-12T09:36:25Z</time>
      </trkpt>
      <trkpt lat="47.63774" lon="7.11813">
        <ele>299.37459896158</ele>
        <time>2025-10-12T09:36:27Z</time>
      </trkpt>
      <trkpt lat="47.63772" lon="7.1181">
        <ele>299.37036422234</ele>
        <time>2025-10-12T09:36:29Z</time>
      </trkpt>
      <trkpt lat="47.6377" lon="7.11807">
        <ele>299.37448020015</ele>
        <time>2025-10-12T09:36:31Z</time>
      </trkpt>
      <trkpt lat="47.63768" lon="7.11805">
        <ele>299.38398084167</ele>
        <time>2025-10-12T09:36:32Z</time>
      </trkpt>
      <trkpt lat="47.63767" lon="7.11803">
        <ele>299.3984166236</ele>
        <time>2025-10-12T09:36:33Z</time>
      </trkpt>
      <trkpt lat="47.63764" lon="7.11801">
        <ele>299.40000455961</ele>
        <time>2025-10-12T09:36:35Z</time>
      </trkpt>
      <trkpt lat="47.63762" lon="7.11799">
        <ele>299.40002043897</ele>
        <time>2025-10-12T09:36:37Z</time>
      </trkpt>
      <trkpt lat="47.6376" lon="7.11796">
        <ele>299.40002059776</ele>
        <time>2025-10-12T09:36:39Z</time>
      </trkpt>
      <trkpt lat="47.63758" lon="7.11792">
        <ele>299.40002059935</ele>
        <time>2025-10-12T09:36:41Z</time>
      </trkpt>
      <trkpt lat="47.63756" lon="7.1179">
        <ele>299.40002059937</ele>
        <time>2025-10-12T09:36:43Z</time>
      </trkpt>
      <trkpt lat="47.63753" lon="7.11787">
        <ele>299.40002059937</ele>
        <time>2025-10-12T09:36:45Z</time>
      </trkpt>
      <trkpt lat="47.63752" lon="7.11785">
        <ele>299.40002059937</ele>
        <time>2025-10-12T09:36:46Z</time>
      </trkpt>
      <trkpt lat="47.63749" lon="7.11783">
        <ele>299.40002059937</ele>
        <time>2025-10-12T09:36:48Z</time>
      </trkpt>
      <trkpt lat="47.63748" lon="7.11782">
        <ele>299.40002059937</ele>
        <time>2025-10-12T09:36:49Z</time>
      </trkpt>
      <trkpt lat="47.63746" lon="7.11779">
        <ele>299.40002059937</ele>
        <time>2025-10-12T09:36:51Z</time>
      </trkpt>
      <trkpt lat="47.63744" lon="7.11776">
        <ele>299.40002059937</ele>
        <time>2025-10-12T09:36:53Z</time>
      </trkpt>
      <trkpt lat="47.63741" lon="7.11774">
        <ele>299.40002059937</ele>
        <time>2025-10-12T09:36:55Z</time>
      </trkpt>
      <trkpt lat="47.6374" lon="7.11771">
        <ele>299.40002059937</ele>
        <time>2025-10-12T09:36:57Z</time>
      </trkpt>
      <trkpt lat="47.63739" lon="7.11768">
        <ele>299.40002059937</ele>
        <time>2025-10-12T09:36:59Z</time>
      </trkpt>
      <trkpt lat="47.63736" lon="7.11766">
        <ele>299.40002059937</ele>
        <time>2025-10-12T09:37:01Z</time>
      </trkpt>
      <trkpt lat="47.63735" lon="7.11765">
        <ele>299.40002059937</ele>
        <time>2025-10-12T09:37:03Z</time>
      </trkpt>
      <trkpt lat="47.63733" lon="7.11762">
        <ele>299.40002059937</ele>
        <time>2025-10-12T09:37:05Z</time>
      </trkpt>
      <trkpt lat="47.6373" lon="7.11759">
        <ele>299.40002059937</ele>
        <time>2025-10-12T09:37:07Z</time>
      </trkpt>
      <trkpt lat="47.63728" lon="7.11756">
        <ele>299.40002059937</ele>
        <time>2025-10-12T09:37:09Z</time>
      </trkpt>
      <trkpt lat="47.63725" lon="7.11753">
        <ele>299.40002059937</ele>
        <time>2025-10-12T09:37:11Z</time>
      </trkpt>
      <trkpt lat="47.63723" lon="7.11751">
        <ele>299.40002059937</ele>
        <time>2025-10-12T09:37:12Z</time>
      </trkpt>
      <trkpt lat="47.63721" lon="7.11748">
        <ele>299.41691207886</ele>
        <time>2025-10-12T09:37:14Z</time>
      </trkpt>
      <trkpt lat="47.63718" lon="7.11745">
        <ele>299.52245910645</ele>
        <time>2025-10-12T09:37:16Z</time>
      </trkpt>
      <trkpt lat="47.63716" lon="7.11742">
        <ele>299.62394060211</ele>
        <time>2025-10-12T09:37:18Z</time>
      </trkpt>
      <trkpt lat="47.63714" lon="7.11741">
        <ele>299.68149768265</ele>
        <time>2025-10-12T09:37:19Z</time>
      </trkpt>
      <trkpt lat="47.63712" lon="7.11739">
        <ele>299.7392037784</ele>
        <time>2025-10-12T09:37:21Z</time>
      </trkpt>
      <trkpt lat="47.63711" lon="7.11737">
        <ele>299.78333161746</ele>
        <time>2025-10-12T09:37:22Z</time>
      </trkpt>
      <trkpt lat="47.63709" lon="7.11736">
        <ele>299.88601343855</ele>
        <time>2025-10-12T09:37:24Z</time>
      </trkpt>
      <trkpt lat="47.63707" lon="7.11735">
        <ele>299.90666736864</ele>
        <time>2025-10-12T09:37:25Z</time>
      </trkpt>
      <trkpt lat="47.63705" lon="7.11733">
        <ele>299.99071603434</ele>
        <time>2025-10-12T09:37:27Z</time>
      </trkpt>
      <trkpt lat="47.63702" lon="7.11732">
        <ele>300.02427655274</ele>
        <time>2025-10-12T09:37:29Z</time>
      </trkpt>
      <trkpt lat="47.63699" lon="7.1173">
        <ele>300.0918100339</ele>
        <time>2025-10-12T09:37:31Z</time>
      </trkpt>
      <trkpt lat="47.63697" lon="7.11728">
        <ele>300.17563539312</ele>
        <time>2025-10-12T09:37:33Z</time>
      </trkpt>
      <trkpt lat="47.63695" lon="7.11725">
        <ele>300.23869471605</ele>
        <time>2025-10-12T09:37:35Z</time>
      </trkpt>
      <trkpt lat="47.63693" lon="7.11723">
        <ele>300.33458776045</ele>
        <time>2025-10-12T09:37:37Z</time>
      </trkpt>
      <trkpt lat="47.6369" lon="7.1172">
        <ele>300.4013493032</ele>
        <time>2025-10-12T09:37:39Z</time>
      </trkpt>
      <trkpt lat="47.63689" lon="7.11717">
        <ele>300.42497010467</ele>
        <time>2025-10-12T09:37:41Z</time>
      </trkpt>
      <trkpt lat="47.63686" lon="7.11715">
        <ele>300.45315278485</ele>
        <time>2025-10-12T09:37:43Z</time>
      </trkpt>
      <trkpt lat="47.63683" lon="7.11713">
        <ele>300.50521592268</ele>
        <time>2025-10-12T09:37:45Z</time>
      </trkpt>
      <trkpt lat="47.63682" lon="7.1171">
        <ele>300.53644345201</ele>
        <time>2025-10-12T09:37:46Z</time>
      </trkpt>
      <trkpt lat="47.6368" lon="7.11706">
        <ele>300.63878839234</ele>
        <time>2025-10-12T09:37:48Z</time>
      </trkpt>
      <trkpt lat="47.63678" lon="7.11704">
        <ele>300.7384553354</ele>
        <time>2025-10-12T09:37:50Z</time>
      </trkpt>
      <trkpt lat="47.63676" lon="7.11702">
        <ele>300.83479410688</ele>
        <time>2025-10-12T09:37:52Z</time>
      </trkpt>
      <trkpt lat="47.63674" lon="7.117">
        <ele>300.9099371821</ele>
        <time>2025-10-12T09:37:54Z</time>
      </trkpt>
      <trkpt lat="47.63671" lon="7.11698">
        <ele>301.02545728961</ele>
        <time>2025-10-12T09:37:56Z</time>
      </trkpt>
      <trkpt lat="47.63668" lon="7.11695">
        <ele>301.21444299605</ele>
        <time>2025-10-12T09:37:58Z</time>
      </trkpt>
      <trkpt lat="47.63665" lon="7.11693">
        <ele>301.38036971835</ele>
        <time>2025-10-12T09:38:00Z</time>
      </trkpt>
      <trkpt lat="47.63663" lon="7.11692">
        <ele>301.29580026224</ele>
        <time>2025-10-12T09:38:01Z</time>
      </trkpt>
      <trkpt lat="47.63662" lon="7.1169">
        <ele>301.19980974729</ele>
        <time>2025-10-12T09:38:02Z</time>
      </trkpt>
      <trkpt lat="47.6366" lon="7.11688">
        <ele>301.03577178674</ele>
        <time>2025-10-12T09:38:04Z</time>
      </trkpt>
      <trkpt lat="47.63658" lon="7.11686">
        <ele>300.91786035001</ele>
        <time>2025-10-12T09:38:06Z</time>
      </trkpt>
      <trkpt lat="47.63655" lon="7.11683">
        <ele>300.81450838408</ele>
        <time>2025-10-12T09:38:08Z</time>
      </trkpt>
      <trkpt lat="47.63654" lon="7.11681">
        <ele>300.7165534777</ele>
        <time>2025-10-12T09:38:10Z</time>
      </trkpt>
      <trkpt lat="47.63651" lon="7.11678">
        <ele>300.62439839153</ele>
        <time>2025-10-12T09:38:12Z</time>
      </trkpt>
      <trkpt lat="47.6365" lon="7.11675">
        <ele>300.54883847397</ele>
        <time>2025-10-12T09:38:14Z</time>
      </trkpt>
      <trkpt lat="47.63648" lon="7.11673">
        <ele>300.51866825597</ele>
        <time>2025-10-12T09:38:15Z</time>
      </trkpt>
      <trkpt lat="47.63645" lon="7.1167">
        <ele>300.45882487378</ele>
        <time>2025-10-12T09:38:17Z</time>
      </trkpt>
      <trkpt lat="47.63642" lon="7.11668">
        <ele>300.41506664992</ele>
        <time>2025-10-12T09:38:19Z</time>
      </trkpt>
      <trkpt lat="47.6364" lon="7.11665">
        <ele>300.40192063262</ele>
        <time>2025-10-12T09:38:21Z</time>
      </trkpt>
      <trkpt lat="47.63639" lon="7.11663">
        <ele>300.4000395997</ele>
        <time>2025-10-12T09:38:23Z</time>
      </trkpt>
      <trkpt lat="47.63636" lon="7.11659">
        <ele>300.41093295978</ele>
        <time>2025-10-12T09:38:25Z</time>
      </trkpt>
      <trkpt lat="47.63634" lon="7.11657">
        <ele>300.44865908088</ele>
        <time>2025-10-12T09:38:27Z</time>
      </trkpt>
      <trkpt lat="47.63632" lon="7.11654">
        <ele>300.47706521172</ele>
        <time>2025-10-12T09:38:29Z</time>
      </trkpt>
      <trkpt lat="47.6363" lon="7.11653">
        <ele>300.51028243365</ele>
        <time>2025-10-12T09:38:30Z</time>
      </trkpt>
      <trkpt lat="47.63628" lon="7.11649">
        <ele>300.59761918939</ele>
        <time>2025-10-12T09:38:32Z</time>
      </trkpt>
      <trkpt lat="47.63626" lon="7.11648">
        <ele>300.6778605379</ele>
        <time>2025-10-12T09:38:34Z</time>
      </trkpt>
      <trkpt lat="47.63624" lon="7.11645">
        <ele>300.77015983859</ele>
        <time>2025-10-12T09:38:36Z</time>
      </trkpt>
      <trkpt lat="47.63622" lon="7.11642">
        <ele>300.85131873248</ele>
        <time>2025-10-12T09:38:38Z</time>
      </trkpt>
      <trkpt lat="47.63621" lon="7.11641">
        <ele>300.92566493904</ele>
        <time>2025-10-12T09:38:39Z</time>
      </trkpt>
      <trkpt lat="47.63618" lon="7.11638">
        <ele>301.08768182792</ele>
        <time>2025-10-12T09:38:41Z</time>
      </trkpt>
      <trkpt lat="47.63615" lon="7.11634">
        <ele>301.12283776341</ele>
        <time>2025-10-12T09:38:43Z</time>
      </trkpt>
      <trkpt lat="47.63613" lon="7.11632">
        <ele>301.1051697471</ele>
        <time>2025-10-12T09:38:46Z</time>
      </trkpt>
      <trkpt lat="47.6361" lon="7.1163">
        <ele>301.11336389992</ele>
        <time>2025-10-12T09:38:48Z</time>
      </trkpt>
      <trkpt lat="47.63609" lon="7.11626">
        <ele>301.02570627846</ele>
        <time>2025-10-12T09:38:50Z</time>
      </trkpt>
      <trkpt lat="47.63608" lon="7.11625">
        <ele>300.98095159403</ele>
        <time>2025-10-12T09:38:51Z</time>
      </trkpt>
      <trkpt lat="47.63605" lon="7.11622">
        <ele>300.92917188929</ele>
        <time>2025-10-12T09:38:53Z</time>
      </trkpt>
      <trkpt lat="47.63603" lon="7.11619">
        <ele>300.89771384566</ele>
        <time>2025-10-12T09:38:55Z</time>
      </trkpt>
      <trkpt lat="47.63601" lon="7.11616">
        <ele>300.88939572519</ele>
        <time>2025-10-12T09:38:57Z</time>
      </trkpt>
      <trkpt lat="47.63598" lon="7.11614">
        <ele>300.89452006351</ele>
        <time>2025-10-12T09:38:59Z</time>
      </trkpt>
      <trkpt lat="47.63595" lon="7.11612">
        <ele>300.95352119703</ele>
        <time>2025-10-12T09:39:01Z</time>
      </trkpt>
      <trkpt lat="47.63593" lon="7.11609">
        <ele>300.98594958728</ele>
        <time>2025-10-12T09:39:03Z</time>
      </trkpt>
      <trkpt lat="47.63591" lon="7.11607">
        <ele>300.24371342703</ele>
        <time>2025-10-12T09:39:06Z</time>
      </trkpt>
      <trkpt lat="47.6359" lon="7.11605">
        <ele>300.92098961358</ele>
        <time>2025-10-12T09:39:06Z</time>
      </trkpt>
      <trkpt lat="47.63588" lon="7.11603">
        <ele>300.98553363423</ele>
        <time>2025-10-12T09:39:08Z</time>
      </trkpt>
      <trkpt lat="47.63586" lon="7.11602">
        <ele>300.99995043675</ele>
        <time>2025-10-12T09:39:10Z</time>
      </trkpt>
      <trkpt lat="47.63585" lon="7.11601">
        <ele>301.00553970615</ele>
        <time>2025-10-12T09:39:11Z</time>
      </trkpt>
      <trkpt lat="47.63584" lon="7.11599">
        <ele>300.97106968692</ele>
        <time>2025-10-12T09:39:13Z</time>
      </trkpt>
      <trkpt lat="47.63582" lon="7.11596">
        <ele>300.90165668839</ele>
        <time>2025-10-12T09:39:15Z</time>
      </trkpt>
      <trkpt lat="47.6358" lon="7.11593">
        <ele>300.85463870586</ele>
        <time>2025-10-12T09:39:17Z</time>
      </trkpt>
      <trkpt lat="47.63579" lon="7.1159">
        <ele>300.79273297916</ele>
        <time>2025-10-12T09:39:19Z</time>
      </trkpt>
      <trkpt lat="47.63578" lon="7.11587">
        <ele>300.72408383156</ele>
        <time>2025-10-12T09:39:21Z</time>
      </trkpt>
      <trkpt lat="47.63576" lon="7.11585">
        <ele>300.70760149853</ele>
        <time>2025-10-12T09:39:24Z</time>
      </trkpt>
      <trkpt lat="47.63577" lon="7.11586">
        <ele>300.68020361473</ele>
        <time>2025-10-12T09:39:31Z</time>
      </trkpt>
      <trkpt lat="47.63576" lon="7.11588">
        <ele>300.71225822248</ele>
        <time>2025-10-12T09:39:51Z</time>
      </trkpt>
      <trkpt lat="47.63575" lon="7.11591">
        <ele>300.84590398988</ele>
        <time>2025-10-12T09:39:55Z</time>
      </trkpt>
    </trkseg>
  </trk>
</gpx>